
Distance (Route):
Temperature : 19.1°C
Humidity : -1.0%
Pressure : -1.0hPa| Receiver | Frames | First received | Last received |
|---|---|---|---|
| BIOWL1-15 | 531 | 2026-09-01 13:00:53 | 2026-09-01 14:47:01 |
| DM0DOS-11 | 503 | 2026-09-01 13:01:04 | 2026-09-01 14:44:33 |
| DO3MHA-11 | 432 | 2026-09-01 13:17:59 | 2026-09-01 14:44:50 |
| DL1NUX | 316 | 2026-09-01 13:33:23 | 2026-09-01 14:43:18 |
| DK7TD | 244 | 2026-09-01 13:28:04 | 2026-09-01 14:41:16 |
| DB0UT-7 | 227 | 2026-09-01 12:36:36 | 2026-09-01 14:57:54 |
| DO3DL | 224 | 2026-09-01 13:34:08 | 2026-09-01 14:33:35 |
| DB0NH | 214 | 2026-09-01 12:59:46 | 2026-09-01 14:57:35 |
| NBG1-10 | 168 | 2026-09-01 13:07:22 | 2026-09-01 14:55:10 |
| DL1XH-west | 162 | 2026-09-01 13:44:13 | 2026-09-01 14:14:20 |
| CB1BUN | 144 | 2026-09-01 13:05:57 | 2026-09-01 14:38:09 |
| DF1GD-15 | 129 | 2026-09-01 13:19:08 | 2026-09-01 14:50:38 |
| HEMX73-11 | 113 | 2026-09-01 13:09:14 | 2026-09-01 14:31:01 |
| DF2AP-13 | 113 | 2026-09-01 13:29:32 | 2026-09-01 14:42:34 |
| HSKMA3-T | 111 | 2026-09-01 14:02:25 | 2026-09-01 14:33:13 |
| DN1GJH-1 | 90 | 2026-09-01 13:27:36 | 2026-09-01 14:35:42 |
| SO1NDE-10 | 86 | 2026-09-01 13:33:51 | 2026-09-01 14:42:46 |
| DM7RM-13 | 78 | 2026-09-01 14:12:16 | 2026-09-01 14:57:21 |
| BEGRI65-1 | 47 | 2026-09-01 13:46:30 | 2026-09-01 14:48:22 |
| DO2KSM | 39 | 2026-09-01 13:28:15 | 2026-09-01 14:21:24 |
| DJTTGO | 36 | 2026-09-01 13:42:50 | 2026-09-01 14:28:23 |
| AM1SDL-15 | 35 | 2026-09-01 13:53:23 | 2026-09-01 14:15:51 |
| DJ3KS | 25 | 2026-09-01 13:21:48 | 2026-09-01 14:19:52 |
| DL1ZP-14 | 22 | 2026-09-01 12:52:06 | 2026-09-01 14:58:25 |
| DB0ND-19 | 21 | 2026-09-01 12:50:09 | 2026-09-01 14:50:08 |
| DD1CC2-15 | 21 | 2026-09-01 13:45:41 | 2026-09-01 14:13:29 |
| BIOWL7-15 | 17 | 2026-09-01 13:07:18 | 2026-09-01 14:45:25 |
| DL8DAS-15 | 17 | 2026-09-01 13:17:09 | 2026-09-01 14:23:54 |
| DL9PN | 16 | 2026-09-01 12:47:13 | 2026-09-01 13:41:03 |
| DL1XH-15 | 16 | 2026-09-01 14:01:48 | 2026-09-01 14:07:43 |
| DH7VM-15 | 13 | 2026-09-01 13:04:37 | 2026-09-01 14:38:32 |
| DM3KS-11 | 12 | 2026-09-01 12:51:46 | 2026-09-01 14:15:05 |
| THATR2-17 | 8 | 2026-09-01 13:49:32 | 2026-09-01 14:25:46 |
| OE3JTB-15 | 7 | 2026-09-01 13:54:51 | 2026-09-01 14:00:02 |
| DL9SK-14 | 6 | 2026-09-01 13:36:04 | 2026-09-01 14:50:05 |
| KANTATE | 6 | 2026-09-01 13:46:52 | 2026-09-01 14:45:52 |
| DL8DAS-14 | 4 | 2026-09-01 13:03:04 | 2026-09-01 14:25:48 |
| DF3TZ-5 | 4 | 2026-09-01 13:29:03 | 2026-09-01 14:15:06 |
| AU51GT2 | 3 | 2026-09-01 13:37:02 | 2026-09-01 14:22:02 |
| DL1CLM-18 | 3 | 2026-09-01 13:44:02 | 2026-09-01 14:04:12 |
| DL3AQ-11 | 3 | 2026-09-01 14:03:04 | 2026-09-01 14:13:03 |
| DG1MJG | 3 | 2026-09-01 14:05:43 | 2026-09-01 14:07:15 |
| DJ2DS-15 | 3 | 2026-09-01 14:06:04 | 2026-09-01 14:18:05 |
| DF7PN | 2 | 2026-09-01 13:27:02 | 2026-09-01 14:56:03 |
| DO1YAY-16 | 1 | 2026-09-01 13:27:03 | 2026-09-01 13:27:03 |
| DD1CC8 | 1 | 2026-09-01 13:45:03 | 2026-09-01 13:45:03 |
| HTAHTA | 1 | 2026-09-01 13:49:35 | 2026-09-01 13:49:35 |
| SONDE2-11 | 1 | 2026-09-01 14:02:02 | 2026-09-01 14:02:02 |
| BIOWL9-15 | 1 | 2026-09-01 14:42:04 | 2026-09-01 14:42:04 |
| Receiver | Date | Latitude | Longitude | Direction | Speed | Altitude | Climb | Temperature | Humidity | Pressure | Voltage | Killtimer | Uptime | BKT | XDATA |
|---|---|---|---|---|---|---|---|---|---|---|---|---|---|---|---|
| DL1ZP-14 | 2026-09-01 14:58:25 | 49.73968 | 9.14419 | 80° | 15km/h | 536m | -5.7m/s | 19.1°C | -1.0% | -1.0hPa | 5.0V | 00:00:00 | 00:00:00 | 00:00:00 | |
| DB0UT-7 | 2026-09-01 14:57:54 | 49.73966 | 9.14381 | 89° | 13km/h | 578m | -5.0m/s | 0°C | 0% | 0hPa | 4.7V | 00:00:00 | 00:00:00 | 00:00:00 | |
| DB0UT-7 | 2026-09-01 14:57:49 | 49.73966 | 9.14354 | 90° | 13km/h | 604m | -4.6m/s | 0°C | 0% | 0hPa | 4.7V | 00:00:00 | 00:00:00 | 00:00:00 | |
| DB0UT-7 | 2026-09-01 14:57:44 | 49.73966 | 9.14332 | 105° | 15km/h | 626m | -4.7m/s | 0°C | 0% | 0hPa | 4.7V | 00:00:00 | 00:00:00 | 00:00:00 | |
| DB0UT-7 | 2026-09-01 14:57:39 | 49.73970 | 9.14303 | 96° | 16km/h | 650m | -5.0m/s | 0°C | 0% | 0hPa | 4.7V | 00:00:00 | 00:00:00 | 00:00:00 | |
| DB0NH | 2026-09-01 14:57:35 | 49.73972 | 9.14278 | 100° | 16km/h | 681m | -4.8m/s | 0°C | 0% | 0hPa | 4.7V | 00:00:00 | 00:00:00 | 00:00:00 | |
| DB0UT-7 | 2026-09-01 14:57:34 | 49.73972 | 9.14273 | 100° | 16km/h | 676m | -4.7m/s | 0°C | 0% | 0hPa | 4.7V | 00:00:00 | 00:00:00 | 00:00:00 | |
| DB0NH | 2026-09-01 14:57:30 | 49.73975 | 9.14247 | 101° | 18km/h | 700m | -5.0m/s | 0°C | 0% | 0hPa | 4.7V | 00:00:00 | 00:00:00 | 00:00:00 | |
| DB0UT-7 | 2026-09-01 14:57:29 | 49.73976 | 9.14240 | 100° | 16km/h | 700m | -5.0m/s | 0°C | 0% | 0hPa | 4.7V | 00:00:00 | 00:00:00 | 00:00:00 | |
| DB0NH | 2026-09-01 14:57:25 | 49.73979 | 9.14214 | 100° | 16km/h | 720m | -5.0m/s | 0°C | 0% | 0hPa | 4.7V | 00:00:00 | 00:00:00 | 00:00:00 | |
| DB0UT-7 | 2026-09-01 14:57:24 | 49.73980 | 9.14207 | 101° | 16km/h | 725m | -4.8m/s | 0°C | 0% | 0hPa | 4.7V | 00:00:00 | 00:00:00 | 00:00:00 | |
| DM7RM-13 | 2026-09-01 14:57:21 | 49.73982 | 9.14187 | 101° | 16km/h | 735m | -4.9m/s | 0°C | 0% | 0hPa | 4.7V | 00:00:00 | 00:00:00 | 00:00:00 | |
| DB0NH | 2026-09-01 14:57:20 | 49.73983 | 9.14181 | 97° | 15km/h | 745m | -5.4m/s | 0°C | 0% | 0hPa | 4.7V | 00:00:00 | 00:00:00 | 00:00:00 | |
| DB0UT-7 | 2026-09-01 14:57:19 | 49.73983 | 9.14175 | 97° | 15km/h | 750m | -5.2m/s | 0°C | 0% | 0hPa | 4.7V | 00:00:00 | 00:00:00 | 00:00:00 | |
| DB0NH | 2026-09-01 14:57:15 | 49.73984 | 9.14151 | 91° | 16km/h | 770m | -4.8m/s | 0°C | 0% | 0hPa | 4.7V | 00:00:00 | 00:00:00 | 00:00:00 | |
| DB0UT-7 | 2026-09-01 14:57:14 | 49.73984 | 9.14145 | 89° | 16km/h | 775m | -4.7m/s | 0°C | 0% | 0hPa | 4.7V | 00:00:00 | 00:00:00 | 00:00:00 | |
| DB0NH | 2026-09-01 14:57:10 | 49.73983 | 9.14118 | 83° | 18km/h | 794m | -4.3m/s | 0°C | 0% | 0hPa | 4.7V | 00:00:00 | 00:00:00 | 00:00:00 | |
| DB0UT-7 | 2026-09-01 14:57:09 | 49.73982 | 9.14112 | 84° | 16km/h | 799m | -4.6m/s | 0°C | 0% | 0hPa | 4.7V | 00:00:00 | 00:00:00 | 00:00:00 | |
| DB0NH | 2026-09-01 14:57:05 | 49.73981 | 9.14084 | 92° | 18km/h | 817m | -4.8m/s | 0°C | 0% | 0hPa | 4.7V | 00:00:00 | 00:00:00 | 00:00:00 | |
| DM7RM-13 | 2026-09-01 14:57:01 | 49.73982 | 9.14056 | 89° | 18km/h | 833m | -5.1m/s | 0°C | 0% | 0hPa | 4.7V | 00:00:00 | 00:00:00 | 00:00:00 | |
| DB0NH | 2026-09-01 14:57:00 | 49.73981 | 9.14049 | 86° | 18km/h | 843m | -4.7m/s | 0°C | 0% | 0hPa | 4.7V | 00:00:00 | 00:00:00 | 00:00:00 | |
| DB0NH | 2026-09-01 14:56:55 | 49.73979 | 9.14014 | 84° | 16km/h | 870m | -5.2m/s | 0°C | 0% | 0hPa | 4.7V | 00:00:00 | 00:00:00 | 00:00:00 | |
| DB0NH | 2026-09-01 14:56:50 | 49.73975 | 9.13980 | 77° | 18km/h | 896m | -5.1m/s | 0°C | 0% | 0hPa | 4.7V | 00:00:00 | 00:00:00 | 00:00:00 | |
| DB0NH | 2026-09-01 14:56:45 | 49.73971 | 9.13947 | 83° | 15km/h | 923m | -5.2m/s | 0°C | 0% | 0hPa | 4.7V | 00:00:00 | 00:00:00 | 00:00:00 | |
| DB0UT-7 | 2026-09-01 14:56:41 | 49.73968 | 9.13924 | 78° | 16km/h | 944m | -5.3m/s | 0°C | 0% | 0hPa | 4.7V | 00:00:00 | 00:00:00 | 00:00:00 | |
| DM7RM-13 | 2026-09-01 14:56:40 | 49.73967 | 9.13918 | 78° | 15km/h | 944m | -5.4m/s | 0°C | 0% | 0hPa | 4.7V | 00:00:00 | 00:00:00 | 00:00:00 | |
| DB0NH | 2026-09-01 14:56:40 | 49.73967 | 9.13918 | 78° | 16km/h | 949m | -5.0m/s | 0°C | 0% | 0hPa | 4.7V | 00:00:00 | 00:00:00 | 00:00:00 | |
| DB0UT-7 | 2026-09-01 14:56:36 | 49.73963 | 9.13893 | 79° | 18km/h | 969m | -4.7m/s | 0°C | 0% | 0hPa | 4.7V | 00:00:00 | 00:00:00 | 00:00:00 | |
| DB0NH | 2026-09-01 14:56:35 | 49.73962 | 9.13887 | 80° | 18km/h | 974m | -5.2m/s | 0°C | 0% | 0hPa | 4.7V | 00:00:00 | 00:00:00 | 00:00:00 | |
| DB0UT-7 | 2026-09-01 14:56:31 | 49.73959 | 9.13859 | 74° | 18km/h | 994m | -4.6m/s | 0°C | 0% | 0hPa | 4.7V | 00:00:00 | 00:00:00 | 00:00:00 | |
| DB0NH | 2026-09-01 14:56:30 | 49.73958 | 9.13852 | 73° | 20km/h | 998m | -4.8m/s | 0°C | 0% | 0hPa | 4.7V | 00:00:00 | 00:00:00 | 00:00:00 | |
| DB0UT-7 | 2026-09-01 14:56:25 | 49.73951 | 9.13815 | 81° | 22km/h | 1074m | -4.8m/s | 0°C | 0% | 0hPa | 4.7V | 00:00:00 | 00:00:00 | 00:00:00 | |
| DB0NH | 2026-09-01 14:56:25 | 49.73951 | 9.13815 | 81° | 20km/h | 1022m | -5.0m/s | 0°C | 0% | 0hPa | 4.7V | 00:00:00 | 00:00:00 | 00:00:00 | |
| DM7RM-13 | 2026-09-01 14:56:20 | 49.73945 | 9.13770 | 77° | 22km/h | 1048m | -4.9m/s | 0°C | 0% | 0hPa | 4.7V | 00:00:00 | 00:00:00 | 00:00:00 | |
| DB0NH | 2026-09-01 14:56:15 | 49.73940 | 9.13738 | 79° | 22km/h | 1074m | -4.8m/s | 0°C | 0% | 0hPa | 4.7V | 00:00:00 | 00:00:00 | 00:00:00 | |
| DB0UT-7 | 2026-09-01 14:56:07 | 49.73930 | 9.13672 | 77° | 26km/h | 1111m | -4.8m/s | 0°C | 0% | 0hPa | 4.7V | 00:00:00 | 00:00:00 | 00:00:00 | |
| DF7PN | 2026-09-01 14:56:03 | 49.73923 | 9.13629 | 72° | 22km/h | 1133m | -5.6m/s | 13.2°C | -1.0% | -1.0hPa | 4.7V | 00:00:00 | 00:00:00 | 00:00:00 | |
| DM7RM-13 | 2026-09-01 14:55:59 | 49.73917 | 9.13593 | 81° | 24km/h | 1155m | -5.0m/s | 0°C | 0% | 0hPa | 4.7V | 00:00:00 | 00:00:00 | 00:00:00 | |
| DB0NH | 2026-09-01 14:55:55 | 49.73915 | 9.13566 | 84° | 24km/h | 1176m | -5.3m/s | 0°C | 0% | 0hPa | 4.7V | 00:00:00 | 00:00:00 | 00:00:00 | |
| DB0NH | 2026-09-01 14:55:45 | 49.73904 | 9.13475 | 75° | 24km/h | 1225m | -4.4m/s | 0°C | 0% | 0hPa | 4.7V | 00:00:00 | 00:00:00 | 00:00:00 | |
| DB0NH | 2026-09-01 14:55:35 | 49.73890 | 9.13385 | 74° | 24km/h | 1274m | -4.7m/s | 0°C | 0% | 0hPa | 4.7V | 00:00:00 | 00:00:00 | 00:00:00 | |
| DM7RM-13 | 2026-09-01 14:55:28 | 49.73877 | 9.13324 | 72° | 24km/h | 1302m | -4.6m/s | 0°C | 0% | 0hPa | 4.7V | 00:00:00 | 00:00:00 | 00:00:00 | |
| DB0NH | 2026-09-01 14:55:25 | 49.73871 | 9.13297 | 73° | 26km/h | 1322m | -5.1m/s | 0°C | 0% | 0hPa | 4.7V | 00:00:00 | 00:00:00 | 00:00:00 | |
| DB0NH | 2026-09-01 14:55:15 | 49.73855 | 9.13200 | 77° | 27km/h | 1373m | -4.6m/s | 0°C | 0% | 0hPa | 4.7V | 00:00:00 | 00:00:00 | 00:00:00 | |
| NBG1-10 | 2026-09-01 14:55:10 | 49.73847 | 9.13148 | 77° | 29km/h | 1414m | -5.1m/s | 0°C | 0% | 0hPa | 4.7V | 00:00:00 | 00:00:00 | 00:00:00 | |
| DM7RM-13 | 2026-09-01 14:55:08 | 49.73842 | 9.13116 | 75° | 27km/h | 1409m | -5.2m/s | 0°C | 0% | 0hPa | 4.7V | 00:00:00 | 00:00:00 | 00:00:00 | |
| DB0NH | 2026-09-01 14:55:05 | 49.73838 | 9.13094 | 74° | 29km/h | 1424m | -5.0m/s | 0°C | 0% | 0hPa | 4.7V | 00:00:00 | 00:00:00 | 00:00:00 | |
| NBG1-10 | 2026-09-01 14:55:00 | 49.73828 | 9.13041 | 74° | 29km/h | 1455m | -5.0m/s | 0°C | 0% | 0hPa | 4.7V | 00:00:00 | 00:00:00 | 00:00:00 | |
| DB0NH | 2026-09-01 14:54:55 | 49.73819 | 9.12985 | 76° | 29km/h | 1475m | -4.6m/s | 0°C | 0% | 0hPa | 4.7V | 00:00:00 | 00:00:00 | 00:00:00 | |
| NBG1-10 | 2026-09-01 14:54:54 | 49.73817 | 9.12963 | 78° | 27km/h | 1480m | -4.7m/s | 0°C | 0% | 0hPa | 4.7V | 00:00:00 | 00:00:00 | 00:00:00 | |
| DM7RM-13 | 2026-09-01 14:54:46 | 49.73805 | 9.12886 | 80° | 26km/h | 1513m | -4.6m/s | 0°C | 0% | 0hPa | 4.7V | 00:00:00 | 00:00:00 | 00:00:00 | |
| DB0NH | 2026-09-01 14:54:45 | 49.73804 | 9.12876 | 78° | 27km/h | 1522m | -4.7m/s | 0°C | 0% | 0hPa | 4.7V | 00:00:00 | 00:00:00 | 00:00:00 | |
| NBG1-10 | 2026-09-01 14:54:43 | 49.73801 | 9.12856 | 79° | 27km/h | 1527m | -4.7m/s | 0°C | 0% | 0hPa | 4.7V | 00:00:00 | 00:00:00 | 00:00:00 | |
| DB0NH | 2026-09-01 14:54:35 | 49.73792 | 9.12773 | 82° | 27km/h | 1570m | -4.7m/s | 0°C | 0% | 0hPa | 4.7V | 00:00:00 | 00:00:00 | 00:00:00 | |
| DM7RM-13 | 2026-09-01 14:54:26 | 49.73784 | 9.12678 | 85° | 27km/h | 1609m | -4.8m/s | 0°C | 0% | 0hPa | 4.7V | 00:00:00 | 00:00:00 | 00:00:00 | |
| DB0NH | 2026-09-01 14:54:25 | 49.73784 | 9.12667 | 84° | 27km/h | 1619m | -5.1m/s | 0°C | 0% | 0hPa | 4.7V | 00:00:00 | 00:00:00 | 00:00:00 | |
| DB0UT-7 | 2026-09-01 14:54:24 | 49.73783 | 9.12656 | 84° | 27km/h | 1624m | -4.6m/s | 0°C | 0% | 0hPa | 4.7V | 00:00:00 | 00:00:00 | 00:00:00 | |
| NBG1-10 | 2026-09-01 14:54:20 | 49.73780 | 9.12613 | 87° | 27km/h | 1643m | -4.5m/s | 0°C | 0% | 0hPa | 4.7V | 00:00:00 | 00:00:00 | 00:00:00 | |
| DB0NH | 2026-09-01 14:54:15 | 49.73778 | 9.12559 | 85° | 27km/h | 1667m | -4.8m/s | 0°C | 0% | 0hPa | 4.7V | 00:00:00 | 00:00:00 | 00:00:00 | |
| DB0UT-7 | 2026-09-01 14:54:14 | 49.73777 | 9.12549 | 85° | 27km/h | 1672m | -4.6m/s | 0°C | 0% | 0hPa | 4.7V | 00:00:00 | 00:00:00 | 00:00:00 | |
| DM7RM-13 | 2026-09-01 14:54:05 | 49.73769 | 9.12450 | 85° | 29km/h | 1709m | -4.5m/s | 0°C | 0% | 0hPa | 4.7V | 00:00:00 | 00:00:00 | 00:00:00 | |
| DB0NH | 2026-09-01 14:54:05 | 49.73769 | 9.12450 | 84° | 29km/h | 1714m | -4.6m/s | 0°C | 0% | 0hPa | 4.7V | 00:00:00 | 00:00:00 | 00:00:00 | |
| DB0UT-7 | 2026-09-01 14:54:04 | 49.73768 | 9.12439 | 86° | 29km/h | 1718m | -4.7m/s | 0°C | 0% | 0hPa | 4.7V | 00:00:00 | 00:00:00 | 00:00:00 | |
| NBG1-10 | 2026-09-01 14:53:58 | 49.73762 | 9.12372 | 84° | 31km/h | 1746m | -4.4m/s | 0°C | 0% | 0hPa | 4.7V | 00:00:00 | 00:00:00 | 00:00:00 | |
| DB0NH | 2026-09-01 14:53:55 | 49.73760 | 9.12338 | 85° | 31km/h | 1759m | -4.8m/s | 0°C | 0% | 0hPa | 4.7V | 00:00:00 | 00:00:00 | 00:00:00 | |
| DB0UT-7 | 2026-09-01 14:53:54 | 49.73759 | 9.12327 | 85° | 31km/h | 1764m | -4.2m/s | 0°C | 0% | 0hPa | 4.7V | 00:00:00 | 00:00:00 | 00:00:00 | |
| DM7RM-13 | 2026-09-01 14:53:45 | 49.73753 | 9.12221 | 85° | 31km/h | 1803m | -4.7m/s | 0°C | 0% | 0hPa | 4.7V | 00:00:00 | 00:00:00 | 00:00:00 | |
| DB0NH | 2026-09-01 14:53:45 | 49.73753 | 9.12220 | 84° | 31km/h | 1808m | -4.7m/s | 0°C | 0% | 0hPa | 4.7V | 00:00:00 | 00:00:00 | 00:00:00 | |
| DB0UT-7 | 2026-09-01 14:53:44 | 49.73752 | 9.12208 | 84° | 31km/h | 1813m | -4.7m/s | 0°C | 0% | 0hPa | 4.7V | 00:00:00 | 00:00:00 | 00:00:00 | |
| NBG1-10 | 2026-09-01 14:53:36 | 49.73746 | 9.12113 | 84° | 31km/h | 1852m | -4.9m/s | 0°C | 0% | 0hPa | 4.7V | 00:00:00 | 00:00:00 | 00:00:00 | |
| DB0NH | 2026-09-01 14:53:35 | 49.73745 | 9.12101 | 84° | 31km/h | 1857m | -4.6m/s | 0°C | 0% | 0hPa | 4.7V | 00:00:00 | 00:00:00 | 00:00:00 | |
| DB0UT-7 | 2026-09-01 14:53:34 | 49.73744 | 9.12089 | 84° | 31km/h | 1861m | -4.8m/s | 0°C | 0% | 0hPa | 4.7V | 00:00:00 | 00:00:00 | 00:00:00 | |
| DB0NH | 2026-09-01 14:53:25 | 49.73738 | 9.11981 | 85° | 31km/h | 1905m | -4.5m/s | 0°C | 0% | 0hPa | 4.7V | 00:00:00 | 00:00:00 | 00:00:00 | |
| DM7RM-13 | 2026-09-01 14:53:24 | 49.73737 | 9.11969 | 85° | 31km/h | 1905m | -4.6m/s | 0°C | 0% | 0hPa | 4.7V | 00:00:00 | 00:00:00 | 00:00:00 | |
| DB0UT-7 | 2026-09-01 14:53:24 | 49.73737 | 9.11969 | 85° | 29km/h | 1953m | -4.5m/s | 0°C | 0% | 0hPa | 4.7V | 00:00:00 | 00:00:00 | 00:00:00 | |
| DB0NH | 2026-09-01 14:53:15 | 49.73729 | 9.11864 | 85° | 29km/h | 1953m | -4.5m/s | 0°C | 0% | 0hPa | 4.7V | 00:00:00 | 00:00:00 | 00:00:00 | |
| NBG1-10 | 2026-09-01 14:53:14 | 49.73728 | 9.11853 | 85° | 29km/h | 1957m | -4.8m/s | 0°C | 0% | 0hPa | 4.7V | 00:00:00 | 00:00:00 | 00:00:00 | |
| DB0UT-7 | 2026-09-01 14:53:10 | 49.73725 | 9.11807 | 80° | 29km/h | 1976m | -4.6m/s | 0°C | 0% | 0hPa | 4.7V | 00:00:00 | 00:00:00 | 00:00:00 | |
| DB0NH | 2026-09-01 14:53:05 | 49.73718 | 9.11751 | 80° | 29km/h | 2000m | -4.8m/s | 0°C | 0% | 0hPa | 4.7V | 00:00:00 | 00:00:00 | 00:00:00 | |
| DM7RM-13 | 2026-09-01 14:53:04 | 49.73717 | 9.11740 | 80° | 29km/h | 2000m | -4.9m/s | 0°C | 0% | 0hPa | 4.7V | 00:00:00 | 00:00:00 | 00:00:00 | |
| DB0UT-7 | 2026-09-01 14:53:00 | 49.73711 | 9.11694 | 79° | 29km/h | 2023m | -4.8m/s | 0°C | 0% | 0hPa | 4.7V | 00:00:00 | 00:00:00 | 00:00:00 | |
| DB0NH | 2026-09-01 14:52:55 | 49.73703 | 9.11638 | 78° | 29km/h | 2047m | -4.6m/s | 0°C | 0% | 0hPa | 4.7V | 00:00:00 | 00:00:00 | 00:00:00 | |
| NBG1-10 | 2026-09-01 14:52:51 | 49.73697 | 9.11592 | 78° | 29km/h | 2066m | -4.5m/s | 0°C | 0% | 0hPa | 4.7V | 00:00:00 | 00:00:00 | 00:00:00 | |
| DM7RM-13 | 2026-09-01 14:52:43 | 49.73684 | 9.11505 | 78° | 29km/h | 2100m | -4.5m/s | 0°C | 0% | 0hPa | 4.7V | 00:00:00 | 00:00:00 | 00:00:00 | |
| DB0UT-7 | 2026-09-01 14:52:38 | 49.73675 | 9.11450 | 74° | 29km/h | 2130m | -5.0m/s | 0°C | 0% | 0hPa | 4.7V | 00:00:00 | 00:00:00 | 00:00:00 | |
| DB0NH | 2026-09-01 14:52:35 | 49.73669 | 9.11418 | 74° | 29km/h | 2145m | -5.1m/s | 0°C | 0% | 0hPa | 4.7V | 00:00:00 | 00:00:00 | 00:00:00 | |
| NBG1-10 | 2026-09-01 14:52:29 | 49.73657 | 9.11353 | 74° | 31km/h | 2174m | -4.3m/s | 0°C | 0% | 0hPa | 4.7V | 00:00:00 | 00:00:00 | 00:00:00 | |
| DM7RM-13 | 2026-09-01 14:52:23 | 49.73644 | 9.11285 | 75° | 31km/h | 2198m | -4.8m/s | 0°C | 0% | 0hPa | 4.7V | 00:00:00 | 00:00:00 | 00:00:00 | |
| DB0UT-7 | 2026-09-01 14:52:18 | 49.73634 | 9.11227 | 76° | 31km/h | 2227m | -4.8m/s | 0°C | 0% | 0hPa | 4.7V | 00:00:00 | 00:00:00 | 00:00:00 | |
| DB0NH | 2026-09-01 14:52:15 | 49.73628 | 9.11190 | 75° | 31km/h | 2241m | -4.5m/s | 0°C | 0% | 0hPa | 4.7V | 00:00:00 | 00:00:00 | 00:00:00 | |
| NBG1-10 | 2026-09-01 14:52:07 | 49.73612 | 9.11095 | 77° | 31km/h | 2285m | -4.9m/s | 0°C | 0% | 0hPa | 4.7V | 00:00:00 | 00:00:00 | 00:00:00 | |
| DM7RM-13 | 2026-09-01 14:52:02 | 49.73601 | 9.11035 | 76° | 31km/h | 2300m | -5.4m/s | 0°C | 0% | 0hPa | 4.7V | 00:00:00 | 00:00:00 | 00:00:00 | |
| DB0UT-7 | 2026-09-01 14:51:58 | 49.73594 | 9.10987 | 78° | 33km/h | 2326m | -4.8m/s | 0°C | 0% | 0hPa | 4.7V | 00:00:00 | 00:00:00 | 00:00:00 | |
| DB0NH | 2026-09-01 14:51:55 | 49.73589 | 9.10950 | 79° | 31km/h | 2341m | -4.7m/s | 0°C | 0% | 0hPa | 4.7V | 00:00:00 | 00:00:00 | 00:00:00 | |
| NBG1-10 | 2026-09-01 14:51:45 | 49.73572 | 9.10829 | 79° | 31km/h | 2393m | -4.9m/s | 0°C | 0% | 0hPa | 4.7V | 00:00:00 | 00:00:00 | 00:00:00 | |
| DM7RM-13 | 2026-09-01 14:51:42 | 49.73567 | 9.10792 | 79° | 31km/h | 2403m | -5.0m/s | 0°C | 0% | 0hPa | 4.7V | 00:00:00 | 00:00:00 | 00:00:00 | |
| DB0UT-7 | 2026-09-01 14:51:37 | 49.73560 | 9.10730 | 81° | 33km/h | 2434m | -5.1m/s | 0°C | 0% | 0hPa | 4.7V | 00:00:00 | 00:00:00 | 00:00:00 | |
| DB0NH | 2026-09-01 14:51:35 | 49.73557 | 9.10705 | 82° | 31km/h | 2445m | -5.5m/s | 0°C | 0% | 0hPa | 4.7V | 00:00:00 | 00:00:00 | 00:00:00 | |
| NBG1-10 | 2026-09-01 14:51:23 | 49.73542 | 9.10558 | 82° | 33km/h | 2510m | -5.2m/s | 0°C | 0% | 0hPa | 4.7V | 00:00:00 | 00:00:00 | 00:00:00 | |
| DM7RM-13 | 2026-09-01 14:51:21 | 49.73539 | 9.10534 | 82° | 33km/h | 2515m | -5.2m/s | 0°C | 0% | 0hPa | 4.7V | 00:00:00 | 00:00:00 | 00:00:00 | |
| DB0UT-7 | 2026-09-01 14:51:17 | 49.73534 | 9.10484 | 82° | 33km/h | 2542m | -5.2m/s | 0°C | 0% | 0hPa | 4.7V | 00:00:00 | 00:00:00 | 00:00:00 | |
| DB0NH | 2026-09-01 14:51:15 | 49.73531 | 9.10459 | 82° | 33km/h | 2552m | -5.3m/s | 0°C | 0% | 0hPa | 4.7V | 00:00:00 | 00:00:00 | 00:00:00 | |
| NBG1-10 | 2026-09-01 14:51:01 | 49.73515 | 9.10282 | 84° | 33km/h | 2624m | -4.9m/s | 0°C | 0% | 0hPa | 4.7V | 00:00:00 | 00:00:00 | 00:00:00 | |
| DB0UT-7 | 2026-09-01 14:50:57 | 49.73510 | 9.10232 | 79° | 33km/h | 2644m | -4.8m/s | 0°C | 0% | 0hPa | 4.7V | 00:00:00 | 00:00:00 | 00:00:00 | |
| DB0NH | 2026-09-01 14:50:55 | 49.73507 | 9.10208 | 82° | 33km/h | 2654m | -4.6m/s | 0°C | 0% | 0hPa | 4.7V | 00:00:00 | 00:00:00 | 00:00:00 | |
| DM7RM-13 | 2026-09-01 14:50:40 | 49.73497 | 9.10019 | 85° | 35km/h | 2719m | -4.3m/s | 0°C | 0% | 0hPa | 4.7V | 00:00:00 | 00:00:00 | 00:00:00 | |
| NBG1-10 | 2026-09-01 14:50:39 | 49.73496 | 9.10006 | 85° | 33km/h | 2728m | -4.4m/s | 0°C | 0% | 0hPa | 4.7V | 00:00:00 | 00:00:00 | 00:00:00 | |
| DF1GD-15 | 2026-09-01 14:50:38 | 49.73495 | 9.09993 | 85° | 33km/h | 2728m | -4.4m/s | 0.2°C | 0% | 0hPa | 4.7V | 00:00:00 | 00:00:00 | 00:00:00 | |
| DB0UT-7 | 2026-09-01 14:50:37 | 49.73495 | 9.09980 | 86° | 33km/h | 2737m | -4.0m/s | 0°C | 0% | 0hPa | 4.7V | 00:00:00 | 00:00:00 | 00:00:00 | |
| DB0NH | 2026-09-01 14:50:35 | 49.73493 | 9.09955 | 88° | 33km/h | 2746m | -4.1m/s | 0°C | 0% | 0hPa | 4.7V | 00:00:00 | 00:00:00 | 00:00:00 | |
| DM7RM-13 | 2026-09-01 14:50:20 | 49.73487 | 9.09763 | 87° | 33km/h | 2807m | -4.2m/s | 0°C | 0% | 0hPa | 4.7V | 00:00:00 | 00:00:00 | 00:00:00 | |
| NBG1-10 | 2026-09-01 14:50:17 | 49.73485 | 9.09725 | 86° | 33km/h | 2823m | -4.1m/s | 0°C | 0% | 0hPa | 4.7V | 00:00:00 | 00:00:00 | 00:00:00 | |
| DB0NH | 2026-09-01 14:50:15 | 49.73483 | 9.09701 | 84° | 33km/h | 2832m | -4.2m/s | 0°C | 0% | 0hPa | 4.7V | 00:00:00 | 00:00:00 | 00:00:00 | |
| DB0ND-19 | 2026-09-01 14:50:08 | 49.73477 | 9.09602 | 85° | 31km/h | 2861m | -4.0m/s | -0.0°C | -1.0% | -1.0hPa | 4.7V | 00:00:00 | 00:00:00 | 00:00:00 | |
| DL9SK-14 | 2026-09-01 14:50:05 | 49.73475 | 9.09563 | 85° | 33km/h | 2872m | -4.0m/s | -0.7°C | -1.0% | -1.0hPa | 4.7V | 00:00:00 | 00:00:00 | 00:00:00 | |
| DM7RM-13 | 2026-09-01 14:49:59 | 49.73472 | 9.09499 | 87° | 33km/h | 2895m | -4.5m/s | 0°C | 0% | 0hPa | 4.7V | 00:00:00 | 00:00:00 | 00:00:00 | |
| DB0UT-7 | 2026-09-01 14:49:57 | 49.73470 | 9.09473 | 85° | 35km/h | 2930m | -4.1m/s | 0°C | 0% | 0hPa | 4.7V | 00:00:00 | 00:00:00 | 00:00:00 | |
| DF1GD-15 | 2026-09-01 14:49:56 | 49.73470 | 9.09460 | 85° | 33km/h | 2908m | -4.5m/s | -1.0°C | 0% | 0hPa | 4.7V | 00:00:00 | 00:00:00 | 00:00:00 | |
| NBG1-10 | 2026-09-01 14:49:55 | 49.73469 | 9.09447 | 85° | 35km/h | 2918m | -4.3m/s | 0°C | 0% | 0hPa | 4.7V | 00:00:00 | 00:00:00 | 00:00:00 | |
| DM7RM-13 | 2026-09-01 14:49:38 | 49.73453 | 9.09218 | 85° | 35km/h | 2982m | -3.7m/s | 0°C | 0% | 0hPa | 4.7V | 00:00:00 | 00:00:00 | 00:00:00 | |
| DB0NH | 2026-09-01 14:49:35 | 49.73450 | 9.09177 | 86° | 35km/h | 2998m | -3.3m/s | 0°C | 0% | 0hPa | 4.7V | 00:00:00 | 00:00:00 | 00:00:00 | |
| NBG1-10 | 2026-09-01 14:49:33 | 49.73449 | 9.09151 | 86° | 35km/h | 3002m | -4.1m/s | 0°C | 0% | 0hPa | 4.7V | 00:00:00 | 00:00:00 | 00:00:00 | |
| DM7RM-13 | 2026-09-01 14:49:18 | 49.73440 | 9.08954 | 90° | 37km/h | 3064m | -3.9m/s | 0°C | 0% | 0hPa | 4.7V | 00:00:00 | 00:00:00 | 00:00:00 | |
| DF1GD-15 | 2026-09-01 14:49:14 | 49.73439 | 9.08897 | 86° | 37km/h | 3082m | -4.8m/s | -2.1°C | 0% | 0hPa | 4.7V | 00:00:00 | 00:00:00 | 00:00:00 | |
| DB0UT-7 | 2026-09-01 14:49:07 | 49.73438 | 9.08793 | 89° | 38km/h | 3120m | -4.7m/s | 0°C | 0% | 0hPa | 4.7V | 00:00:00 | 00:00:00 | 00:00:00 | |
| DB0NH | 2026-09-01 14:49:05 | 49.73438 | 9.08764 | 91° | 38km/h | 3129m | -4.1m/s | 0°C | 0% | 0hPa | 4.7V | 00:00:00 | 00:00:00 | 00:00:00 | |
| DM7RM-13 | 2026-09-01 14:48:57 | 49.73447 | 9.08646 | 101° | 35km/h | 3158m | -4.1m/s | 0°C | 0% | 0hPa | 4.7V | 00:00:00 | 00:00:00 | 00:00:00 | |
| NBG1-10 | 2026-09-01 14:48:49 | 49.73466 | 9.08533 | 107° | 42km/h | 3197m | -4.1m/s | 0°C | 0% | 0hPa | 4.7V | 00:00:00 | 00:00:00 | 00:00:00 | |
| DB0UT-7 | 2026-09-01 14:48:37 | 49.73506 | 9.08351 | 108° | 42km/h | 3251m | -4.2m/s | 0°C | 0% | 0hPa | 4.7V | 00:00:00 | 00:00:00 | 00:00:00 | |
| DB0NH | 2026-09-01 14:48:35 | 49.73512 | 9.08320 | 109° | 42km/h | 3260m | -4.6m/s | 0°C | 0% | 0hPa | 4.7V | 00:00:00 | 00:00:00 | 00:00:00 | |
| DF1GD-15 | 2026-09-01 14:48:33 | 49.73519 | 9.08289 | 109° | 42km/h | 3264m | -3.9m/s | 0.8°C | 0% | 0hPa | 4.7V | 00:00:00 | 00:00:00 | 00:00:00 | |
| NBG1-10 | 2026-09-01 14:48:23 | 49.73551 | 9.08130 | 109° | 42km/h | 3312m | -4.1m/s | 0°C | 0% | 0hPa | 4.7V | 00:00:00 | 00:00:00 | 00:00:00 | |
| BEGRI65-1 | 2026-09-01 14:48:22 | 49.73561 | 9.08082 | 111° | 42km/h | 3320m | -4.0m/s | 0.7°C | 0% | 0hPa | 4.7V | 00:00:00 | 00:00:00 | 00:00:00 | |
| DM7RM-13 | 2026-09-01 14:48:16 | 49.73575 | 9.08019 | 108° | 44km/h | 3339m | -4.2m/s | 0°C | 0% | 0hPa | 4.7V | 00:00:00 | 00:00:00 | 00:00:00 | |
| DF1GD-15 | 2026-09-01 14:48:13 | 49.73586 | 9.07970 | 110° | 44km/h | 3352m | -4.8m/s | 0.4°C | 0% | 0hPa | 4.7V | 00:00:00 | 00:00:00 | 00:00:00 | |
| DB0UT-7 | 2026-09-01 14:48:07 | 49.73608 | 9.07875 | 109° | 42km/h | 3393m | -4.9m/s | 0°C | 0% | 0hPa | 4.7V | 00:00:00 | 00:00:00 | 00:00:00 | |
| DB0NH | 2026-09-01 14:48:05 | 49.73615 | 9.07843 | 109° | 42km/h | 3393m | -4.9m/s | 0°C | 0% | 0hPa | 4.7V | 00:00:00 | 00:00:00 | 00:00:00 | |
| DB0ND-19 | 2026-09-01 14:48:04 | 49.73622 | 9.07811 | 107° | 42km/h | 3398m | -4.0m/s | 0.8°C | -1.0% | -1.0hPa | 4.7V | 00:00:00 | 00:00:00 | 00:00:00 | |
| DM7RM-13 | 2026-09-01 14:47:56 | 49.73646 | 9.07680 | 107° | 44km/h | 3434m | -4.1m/s | 0°C | 0% | 0hPa | 4.7V | 00:00:00 | 00:00:00 | 00:00:00 | |
| DF1GD-15 | 2026-09-01 14:47:52 | 49.73655 | 9.07634 | 107° | 42km/h | 3448m | -4.5m/s | -0.2°C | 0% | 0hPa | 4.7V | 00:00:00 | 00:00:00 | 00:00:00 | |
| NBG1-10 | 2026-09-01 14:47:50 | 49.73660 | 9.07603 | 103° | 42km/h | 3462m | -4.1m/s | 0°C | 0% | 0hPa | 4.7V | 00:00:00 | 00:00:00 | 00:00:00 | |
| BEGRI65-1 | 2026-09-01 14:47:44 | 49.73684 | 9.07458 | 107° | 44km/h | 3498m | -5.1m/s | -0.5°C | 0% | 0hPa | 4.7V | 00:00:00 | 00:00:00 | 00:00:00 | |
| DB0NH | 2026-09-01 14:47:35 | 49.73699 | 9.07362 | 104° | 42km/h | 3530m | -4.1m/s | 0°C | 0% | 0hPa | 4.7V | 00:00:00 | 00:00:00 | 00:00:00 | |
| DF1GD-15 | 2026-09-01 14:47:32 | 49.73707 | 9.07315 | 108° | 40km/h | 3538m | -4.6m/s | -0.8°C | 0% | 0hPa | 4.7V | 00:00:00 | 00:00:00 | 00:00:00 | |
| NBG1-10 | 2026-09-01 14:47:17 | 49.73747 | 9.07079 | 104° | 44km/h | 3615m | -4.3m/s | 0°C | 0% | 0hPa | 4.7V | 00:00:00 | 00:00:00 | 00:00:00 | |
| DM7RM-13 | 2026-09-01 14:47:15 | 49.73752 | 9.07049 | 102° | 40km/h | 3619m | -4.5m/s | 0°C | 0% | 0hPa | 4.7V | 00:00:00 | 00:00:00 | 00:00:00 | |
| BEGRI65-1 | 2026-09-01 14:47:14 | 49.73756 | 9.07016 | 99° | 44km/h | 3629m | -4.9m/s | -1.5°C | 0% | 0hPa | 4.7V | 00:00:00 | 00:00:00 | 00:00:00 | |
| DF1GD-15 | 2026-09-01 14:47:11 | 49.73759 | 9.06983 | 99° | 44km/h | 3638m | -4.8m/s | -1.5°C | 0% | 0hPa | 4.7V | 00:00:00 | 00:00:00 | 00:00:00 | |
| DB0NH | 2026-09-01 14:47:05 | 49.73774 | 9.06889 | 104° | 44km/h | 3671m | -4.4m/s | 0°C | 0% | 0hPa | 4.7V | 00:00:00 | 00:00:00 | 00:00:00 | |
| DB0ND-19 | 2026-09-01 14:47:02 | 49.73783 | 9.06820 | 99° | 44km/h | 3685m | -5.5m/s | -1.3°C | -1.0% | -1.0hPa | 4.7V | 00:00:00 | 00:00:00 | 00:00:00 | |
| BIOWL1-15 | 2026-09-01 14:47:01 | 49.73785 | 9.06802 | 100° | 44km/h | 3690m | -4.3m/s | -2.1°C | 0% | 0hPa | 4.7V | 00:00:00 | 00:00:00 | 00:00:00 | |
| DM7RM-13 | 2026-09-01 14:46:54 | 49.73799 | 9.06696 | 105° | 49km/h | 3719m | -5.0m/s | 0°C | 0% | 0hPa | 4.7V | 00:00:00 | 00:00:00 | 00:00:00 | |
| DF1GD-15 | 2026-09-01 14:46:50 | 49.73809 | 9.06627 | 100° | 42km/h | 3738m | -4.1m/s | -2.3°C | 0% | 0hPa | 4.7V | 00:00:00 | 00:00:00 | 00:00:00 | |
| BIOWL1-15 | 2026-09-01 14:46:49 | 49.73811 | 9.06595 | 94° | 42km/h | 3748m | -4.5m/s | -2.4°C | 0% | 0hPa | 4.7V | 00:00:00 | 00:00:00 | 00:00:00 | |
| NBG1-10 | 2026-09-01 14:46:44 | 49.73815 | 9.06525 | 100° | 42km/h | 3772m | -4.0m/s | 0°C | 0% | 0hPa | 4.7V | 00:00:00 | 00:00:00 | 00:00:00 | |
| BIOWL1-15 | 2026-09-01 14:46:38 | 49.73829 | 9.06415 | 97° | 37km/h | 3800m | -4.8m/s | -2.7°C | 0% | 0hPa | 4.7V | 00:00:00 | 00:00:00 | 00:00:00 | |
| DB0NH | 2026-09-01 14:46:35 | 49.73831 | 9.06385 | 94° | 42km/h | 3814m | -4.2m/s | 0°C | 0% | 0hPa | 4.7V | 00:00:00 | 00:00:00 | 00:00:00 | |
| DM7RM-13 | 2026-09-01 14:46:34 | 49.73831 | 9.06369 | 93° | 42km/h | 3814m | -4.3m/s | 0°C | 0% | 0hPa | 4.7V | 00:00:00 | 00:00:00 | 00:00:00 | |
| BIOWL1-15 | 2026-09-01 14:46:27 | 49.73844 | 9.06250 | 105° | 40km/h | 3848m | -4.7m/s | -3°C | 0% | 0hPa | 4.7V | 00:00:00 | 00:00:00 | 00:00:00 | |
| BIOWL1-15 | 2026-09-01 14:46:19 | 49.73867 | 9.06074 | 104° | 47km/h | 3900m | -4.8m/s | -3.3°C | 0% | 0hPa | 4.7V | 00:00:00 | 00:00:00 | 00:00:00 | |
| DM7RM-13 | 2026-09-01 14:46:13 | 49.73876 | 9.06022 | 105° | 44km/h | 3915m | -4.5m/s | 0°C | 0% | 0hPa | 4.7V | 00:00:00 | 00:00:00 | 00:00:00 | |
| NBG1-10 | 2026-09-01 14:46:11 | 49.73880 | 9.05990 | 102° | 40km/h | 3929m | -4.8m/s | 0°C | 0% | 0hPa | 4.7V | 00:00:00 | 00:00:00 | 00:00:00 | |
| DF1GD-15 | 2026-09-01 14:46:09 | 49.73884 | 9.05960 | 100° | 38km/h | 3934m | -4.5m/s | -3.5°C | 0% | 0hPa | 4.7V | 00:00:00 | 00:00:00 | 00:00:00 | |
| BIOWL1-15 | 2026-09-01 14:46:06 | 49.73890 | 9.05901 | 97° | 40km/h | 3953m | -5.1m/s | -3.6°C | 0% | 0hPa | 4.7V | 00:00:00 | 00:00:00 | 00:00:00 | |
| DB0NH | 2026-09-01 14:46:05 | 49.73890 | 9.05901 | 97° | 40km/h | 3958m | -4.2m/s | 0°C | 0% | 0hPa | 4.7V | 00:00:00 | 00:00:00 | 00:00:00 | |
| BIOWL1-15 | 2026-09-01 14:45:57 | 49.73900 | 9.05720 | 95° | 44km/h | 4006m | -4.1m/s | -3.9°C | 0% | 0hPa | 4.7V | 00:00:00 | 00:00:00 | 00:00:00 | |
| DM7RM-13 | 2026-09-01 14:45:53 | 49.73901 | 9.05703 | 97° | 42km/h | 4010m | -4.6m/s | 0°C | 0% | 0hPa | 4.7V | 00:00:00 | 00:00:00 | 00:00:00 | |
| KANTATE | 2026-09-01 14:45:52 | 49.73902 | 9.05687 | 98° | 40km/h | 4015m | -4.9m/s | -4.0°C | 0% | 0hPa | 4.7V | 00:00:00 | 00:00:00 | 00:00:00 | |
| DF1GD-15 | 2026-09-01 14:45:49 | 49.73905 | 9.05643 | 98° | 37km/h | 4030m | -4.4m/s | -4.1°C | 0% | 0hPa | 4.7V | 00:00:00 | 00:00:00 | 00:00:00 | |
| BIOWL1-15 | 2026-09-01 14:45:46 | 49.73911 | 9.05568 | 96° | 42km/h | 4055m | -4.9m/s | -4.3°C | 0% | 0hPa | 4.7V | 00:00:00 | 00:00:00 | 00:00:00 | |
| NBG1-10 | 2026-09-01 14:45:38 | 49.73917 | 9.05472 | 91° | 37km/h | 4089m | -4.4m/s | 0°C | 0% | 0hPa | 4.7V | 00:00:00 | 00:00:00 | 00:00:00 | |
| DB0UT-7 | 2026-09-01 14:45:37 | 49.73917 | 9.05457 | 91° | 37km/h | 4094m | -5.0m/s | 0°C | 0% | 0hPa | 4.7V | 00:00:00 | 00:00:00 | 00:00:00 | |
| BIOWL1-15 | 2026-09-01 14:45:36 | 49.73922 | 9.05396 | 102° | 40km/h | 4108m | -4.3m/s | -4.5°C | 0% | 0hPa | 4.7V | 00:00:00 | 00:00:00 | 00:00:00 | |
| DB0NH | 2026-09-01 14:45:35 | 49.73918 | 9.05428 | 97° | 37km/h | 4104m | -4.6m/s | 0°C | 0% | 0hPa | 4.7V | 00:00:00 | 00:00:00 | 00:00:00 | |
| DM7RM-13 | 2026-09-01 14:45:32 | 49.73924 | 9.05381 | 104° | 40km/h | 4113m | -5.0m/s | 0°C | 0% | 0hPa | 4.7V | 00:00:00 | 00:00:00 | 00:00:00 | |
| DF1GD-15 | 2026-09-01 14:45:28 | 49.73931 | 9.05325 | 98° | 35km/h | 4133m | -4.8m/s | -4.6°C | 0% | 0hPa | 4.7V | 00:00:00 | 00:00:00 | 00:00:00 | |
| BIOWL7-15 | 2026-09-01 14:45:25 | 49.73932 | 9.05281 | 92° | 42km/h | 4147m | -4.7m/s | -4.6°C | 0% | 0hPa | 4.7V | 00:00:00 | 00:00:00 | 00:00:00 | |
| BIOWL1-15 | 2026-09-01 14:45:23 | 49.73937 | 9.05232 | 107° | 42km/h | 4161m | -4.9m/s | -4.6°C | 0% | 0hPa | 4.7V | 00:00:00 | 00:00:00 | 00:00:00 | |
| DM7RM-13 | 2026-09-01 14:45:12 | 49.73966 | 9.05100 | 110° | 38km/h | 4209m | -4.5m/s | 0°C | 0% | 0hPa | 4.7V | 00:00:00 | 00:00:00 | 00:00:00 | |
| BIOWL1-15 | 2026-09-01 14:45:11 | 49.73969 | 9.05086 | 110° | 38km/h | 4214m | -5m/s | -5°C | 0% | 0hPa | 4.7V | 00:00:00 | 00:00:00 | 00:00:00 | |
| DF1GD-15 | 2026-09-01 14:45:08 | 49.73979 | 9.05047 | 112° | 35km/h | 4228m | -4.7m/s | -5.1°C | 0% | 0hPa | 4.7V | 00:00:00 | 00:00:00 | 00:00:00 | |
| DB0UT-7 | 2026-09-01 14:45:07 | 49.73982 | 9.05034 | 110° | 37km/h | 4284m | -4.6m/s | 0°C | 0% | 0hPa | 4.7V | 00:00:00 | 00:00:00 | 00:00:00 | |
| NBG1-10 | 2026-09-01 14:45:05 | 49.73987 | 9.05009 | 107° | 37km/h | 4249m | -4.2m/s | 0°C | 0% | 0hPa | 4.7V | 00:00:00 | 00:00:00 | 00:00:00 | |
| BIOWL1-15 | 2026-09-01 14:45:03 | 49.73997 | 9.04949 | 105° | 33km/h | 4268m | -4.7m/s | -5.4°C | 0% | 0hPa | 4.7V | 00:00:00 | 00:00:00 | 00:00:00 | |
| BEGRI65-1 | 2026-09-01 14:44:59 | 49.73999 | 9.04935 | 106° | 37km/h | 4274m | -5.2m/s | -5.5°C | 0% | 0hPa | 4.7V | 00:00:00 | 00:00:00 | 00:00:00 | |
| BIOWL1-15 | 2026-09-01 14:44:51 | 49.74020 | 9.04805 | 105° | 31km/h | 4320m | -5m/s | -5.9°C | 0% | 0hPa | 4.7V | 00:00:00 | 00:00:00 | 00:00:00 | |
| DO3MHA-11 | 2026-09-01 14:44:50 | 49.74020 | 9.04805 | 105° | 35km/h | 4336m | -5.3m/s | 0°C | 0% | 0hPa | 4.7V | 00:00:00 | 00:00:00 | 00:00:00 | |
| DF1GD-15 | 2026-09-01 14:44:47 | 49.74026 | 9.04767 | 104° | 37km/h | 4336m | -5.4m/s | -6.0°C | 0% | 0hPa | 4.7V | 00:00:00 | 00:00:00 | 00:00:00 | |
| BIOWL1-15 | 2026-09-01 14:44:39 | 49.74044 | 9.04649 | 99° | 33km/h | 4378m | -4.9m/s | -6.3°C | 0% | 0hPa | 4.7V | 00:00:00 | 00:00:00 | 00:00:00 | |
| DB0UT-7 | 2026-09-01 14:44:36 | 49.74048 | 9.04608 | 99° | 38km/h | 4428m | -4.8m/s | 0°C | 0% | 0hPa | 0V | 00:00:00 | 00:00:00 | 00:00:00 | |
| DB0NH | 2026-09-01 14:44:35 | 49.74049 | 9.04593 | 100° | 38km/h | 4404m | -4.5m/s | 0°C | 0% | 0hPa | 0V | 00:00:00 | 00:00:00 | 00:00:00 | |
| DM0DOS-11 | 2026-09-01 14:44:33 | 49.74053 | 9.04563 | 106° | 38km/h | 4414m | -4.8m/s | 0°C | 0% | 0hPa | 0V | 00:00:00 | 00:00:00 | 00:00:00 | |
| DM0DOS-11 | 2026-09-01 14:44:33 | 49.74068 | 9.04493 | 106° | 38km/h | 4475m | -4.8m/s | 0°C | 0% | 0hPa | 0V | 00:00:00 | 00:00:00 | 00:00:00 | |
| NBG1-10 | 2026-09-01 14:44:32 | 49.74055 | 9.04549 | 107° | 40km/h | 4419m | -5.1m/s | 0°C | 0% | 0hPa | 4.6V | 00:00:00 | 00:00:00 | 00:00:00 | |
| DM7RM-13 | 2026-09-01 14:44:30 | 49.74062 | 9.04521 | 112° | 38km/h | 4424m | -4.7m/s | 0°C | 0% | 0hPa | 4.6V | 00:00:00 | 00:00:00 | 00:00:00 | |
| BIOWL1-15 | 2026-09-01 14:44:29 | 49.74068 | 9.04493 | 107° | 38km/h | 4434m | -5.4m/s | -6.8°C | 0% | 0hPa | 4.6V | 00:00:00 | 00:00:00 | 00:00:00 | |
| DF1GD-15 | 2026-09-01 14:44:27 | 49.74070 | 9.04478 | 104° | 38km/h | 4439m | -4.7m/s | -6.8°C | 0% | 0hPa | 0V | 00:00:00 | 00:00:00 | 00:00:00 | |
| DM0DOS-11 | 2026-09-01 14:44:23 | 49.74079 | 9.04339 | 98° | 40km/h | 4485m | -5.3m/s | 0°C | 0% | 0hPa | 0V | 00:00:00 | 00:00:00 | 00:00:00 | |
| BIOWL1-15 | 2026-09-01 14:44:18 | 49.74080 | 9.04323 | 98° | 40km/h | 4491m | -5m/s | -7.2°C | 0% | 0hPa | 4.6V | 00:00:00 | 00:00:00 | 00:00:00 | |
| DM0DOS-11 | 2026-09-01 14:44:15 | 49.74084 | 9.04218 | 92° | 38km/h | 4533m | -5.6m/s | 0°C | 0% | 0hPa | 0V | 00:00:00 | 00:00:00 | 00:00:00 | |
| BEGRI65-1 | 2026-09-01 14:44:13 | 49.74083 | 9.04264 | 91° | 37km/h | 4512m | -4.9m/s | -7.3°C | 0% | 0hPa | 4.6V | 00:00:00 | 00:00:00 | 00:00:00 | |
| DM7RM-13 | 2026-09-01 14:44:10 | 49.74084 | 9.04219 | 93° | 40km/h | 4528m | -4.8m/s | 0°C | 0% | 0hPa | 4.6V | 00:00:00 | 00:00:00 | 00:00:00 | |
| BIOWL1-15 | 2026-09-01 14:44:08 | 49.74085 | 9.04175 | 92° | 37km/h | 4544m | -5.7m/s | -7.5°C | 0% | 0hPa | 4.6V | 00:00:00 | 00:00:00 | 00:00:00 | |
| DB0UT-7 | 2026-09-01 14:44:06 | 49.74085 | 9.04160 | 93° | 44km/h | 4555m | -4.8m/s | 0°C | 0% | 0hPa | 0V | 00:00:00 | 00:00:00 | 00:00:00 | |
| DM0DOS-11 | 2026-09-01 14:44:05 | 49.74086 | 9.04147 | 89° | 38km/h | 4561m | -5.3m/s | 0°C | 0% | 0hPa | 0V | 00:00:00 | 00:00:00 | 00:00:00 | |
| DM0DOS-11 | 2026-09-01 14:44:05 | 49.74086 | 9.04062 | 92° | 44km/h | 4588m | -4.8m/s | 0°C | 0% | 0hPa | 0V | 00:00:00 | 00:00:00 | 00:00:00 | |
| DB0NH | 2026-09-01 14:44:05 | 49.74086 | 9.04147 | 90° | 44km/h | 4561m | -5.3m/s | 0°C | 0% | 0hPa | 4.6V | 00:00:00 | 00:00:00 | 00:00:00 | |
| NBG1-10 | 2026-09-01 14:43:59 | 49.74087 | 9.04045 | 90° | 44km/h | 4593m | -5.1m/s | 0°C | 0% | 0hPa | 4.6V | 00:00:00 | 00:00:00 | 00:00:00 | |
| BIOWL1-15 | 2026-09-01 14:43:56 | 49.74086 | 9.03994 | 88° | 44km/h | 4604m | -5.1m/s | -7.9°C | 0% | 0hPa | 4.6V | 00:00:00 | 00:00:00 | 00:00:00 | |
| DM0DOS-11 | 2026-09-01 14:43:50 | 49.74085 | 9.03891 | 91° | 44km/h | 4641m | -5.5m/s | 0°C | 0% | 0hPa | 0V | 00:00:00 | 00:00:00 | 00:00:00 | |
| DM0DOS-11 | 2026-09-01 14:43:50 | 49.74086 | 9.03804 | 89° | 44km/h | 4667m | -5.3m/s | 0°C | 0% | 0hPa | 0V | 00:00:00 | 00:00:00 | 00:00:00 | |
| DM7RM-13 | 2026-09-01 14:43:49 | 49.74086 | 9.03874 | 93° | 44km/h | 4641m | -5.6m/s | 0°C | 0% | 0hPa | 4.6V | 00:00:00 | 00:00:00 | 00:00:00 | |
| BIOWL1-15 | 2026-09-01 14:43:45 | 49.74086 | 9.03804 | 90° | 44km/h | 4662m | -5.3m/s | -8.4°C | 0% | 0hPa | 4.6V | 00:00:00 | 00:00:00 | 00:00:00 | |
| DM0DOS-11 | 2026-09-01 14:43:45 | 49.74086 | 9.03718 | 91° | 44km/h | 4694m | -5.2m/s | 0°C | 0% | 0hPa | 0V | 00:00:00 | 00:00:00 | 00:00:00 | |
| DO3MHA-11 | 2026-09-01 14:43:41 | 49.74086 | 9.03736 | 92° | 44km/h | 4689m | -4.9m/s | 0°C | 0% | 0hPa | 0V | 00:00:00 | 00:00:00 | 00:00:00 | |
| DM0DOS-11 | 2026-09-01 14:43:35 | 49.74087 | 9.03631 | 91° | 44km/h | 4721m | -5.3m/s | 0°C | 0% | 0hPa | 0V | 00:00:00 | 00:00:00 | 00:00:00 | |
| DM0DOS-11 | 2026-09-01 14:43:35 | 49.74091 | 9.03548 | 97° | 40km/h | 4748m | -5.2m/s | 0°C | 0% | 0hPa | 0V | 00:00:00 | 00:00:00 | 00:00:00 | |
| DB0NH | 2026-09-01 14:43:35 | 49.74087 | 9.03631 | 92° | 40km/h | 4721m | -5.2m/s | 0°C | 0% | 0hPa | 4.6V | 00:00:00 | 00:00:00 | 00:00:00 | |
| BIOWL1-15 | 2026-09-01 14:43:35 | 49.74088 | 9.03614 | 92° | 44km/h | 4721m | -5.3m/s | -9°C | 0% | 0hPa | 4.6V | 00:00:00 | 00:00:00 | 00:00:00 | |
| DO3MHA-11 | 2026-09-01 14:43:34 | 49.74088 | 9.03614 | 92° | 42km/h | 4733m | -4.7m/s | 0°C | 0% | 0hPa | 4.6V | 00:00:00 | 00:00:00 | 00:00:00 | |
| DM7RM-13 | 2026-09-01 14:43:29 | 49.74093 | 9.03532 | 97° | 38km/h | 4748m | -5.2m/s | 0°C | 0% | 0hPa | 4.6V | 00:00:00 | 00:00:00 | 00:00:00 | |
| DO3MHA-11 | 2026-09-01 14:43:28 | 49.74094 | 9.03518 | 96° | 38km/h | 4759m | -5.4m/s | 0°C | 0% | 0hPa | 4.6V | 00:00:00 | 00:00:00 | 00:00:00 | |
| NBG1-10 | 2026-09-01 14:43:26 | 49.74095 | 9.03489 | 93° | 42km/h | 4769m | -5.0m/s | 0°C | 0% | 0hPa | 4.6V | 00:00:00 | 00:00:00 | 00:00:00 | |
| BIOWL1-15 | 2026-09-01 14:43:25 | 49.74096 | 9.03459 | 93° | 40km/h | 4774m | -4.7m/s | -9.4°C | 0% | 0hPa | 4.6V | 00:00:00 | 00:00:00 | 00:00:00 | |
| DM0DOS-11 | 2026-09-01 14:43:24 | 49.74096 | 9.03459 | 93° | 40km/h | 4779m | -5.3m/s | 0°C | 0% | 0hPa | 0V | 00:00:00 | 00:00:00 | 00:00:00 | |
| DM0DOS-11 | 2026-09-01 14:43:24 | 49.74102 | 9.03377 | 98° | 40km/h | 4805m | -4.8m/s | 0°C | 0% | 0hPa | 0V | 00:00:00 | 00:00:00 | 00:00:00 | |
| DO3MHA-11 | 2026-09-01 14:43:23 | 49.74097 | 9.03442 | 96° | 42km/h | 4800m | -5.5m/s | 0°C | 0% | 0hPa | 0V | 00:00:00 | 00:00:00 | 00:00:00 | |
| DM0DOS-11 | 2026-09-01 14:43:19 | 49.74110 | 9.03298 | 99° | 40km/h | 4832m | -5m/s | 0°C | 0% | 0hPa | 0V | 00:00:00 | 00:00:00 | 00:00:00 | |
| DL1NUX | 2026-09-01 14:43:18 | 49.74111 | 9.03282 | 99° | 40km/h | 4848m | -4.6m/s | 0°C | 0% | 0hPa | 0V | 00:00:00 | 00:00:00 | 00:00:00 | |
| DO3MHA-11 | 2026-09-01 14:43:18 | 49.74104 | 9.03361 | 99° | 40km/h | 4816m | -5.8m/s | 0°C | 0% | 0hPa | 4.6V | 00:00:00 | 00:00:00 | 00:00:00 | |
| BIOWL1-15 | 2026-09-01 14:43:15 | 49.74111 | 9.03282 | 99° | 40km/h | 4832m | -5.1m/s | -9.8°C | 0% | 0hPa | 4.6V | 00:00:00 | 00:00:00 | 00:00:00 | |
| DO3MHA-11 | 2026-09-01 14:43:13 | 49.74111 | 9.03282 | 100° | 40km/h | 4843m | -5.8m/s | 0°C | 0% | 0hPa | 0V | 00:00:00 | 00:00:00 | 00:00:00 | |
| DM0DOS-11 | 2026-09-01 14:43:09 | 49.74117 | 9.03219 | 96° | 40km/h | 4859m | -5.2m/s | 0°C | 0% | 0hPa | 0V | 00:00:00 | 00:00:00 | 00:00:00 | |
| DM0DOS-11 | 2026-09-01 14:43:09 | 49.74123 | 9.03137 | 95° | 47km/h | 4887m | -4.8m/s | 0°C | 0% | 0hPa | 0V | 00:00:00 | 00:00:00 | 00:00:00 | |
| DO3MHA-11 | 2026-09-01 14:43:08 | 49.74119 | 9.03203 | 97° | 42km/h | 4864m | -5.6m/s | 0°C | 0% | 0hPa | 0V | 00:00:00 | 00:00:00 | 00:00:00 | |
| DL1NUX | 2026-09-01 14:43:07 | 49.74120 | 9.03191 | 96° | 40km/h | 4876m | -5m/s | 0°C | 0% | 0hPa | 0V | 00:00:00 | 00:00:00 | 00:00:00 | |
| DL1NUX | 2026-09-01 14:43:07 | 49.74126 | 9.03099 | 95° | 47km/h | 4918m | -4.8m/s | 0°C | 0% | 0hPa | 0V | 00:00:00 | 00:00:00 | 00:00:00 | |
| DB0NH | 2026-09-01 14:43:05 | 49.74122 | 9.03155 | 96° | 46km/h | 4882m | -5.3m/s | 0°C | 0% | 0hPa | 4.6V | 00:00:00 | 00:00:00 | 00:00:00 | |
| BIOWL1-15 | 2026-09-01 14:43:04 | 49.74126 | 9.03099 | 95° | 47km/h | 4892m | -5.3m/s | -10.2°C | 0% | 0hPa | 4.6V | 00:00:00 | 00:00:00 | 00:00:00 | |
| DL1NUX | 2026-09-01 14:43:02 | 49.74128 | 9.03016 | 90° | 38km/h | 4928m | -5m/s | 0°C | 0% | 0hPa | 0V | 00:00:00 | 00:00:00 | 00:00:00 | |
| KANTATE | 2026-09-01 14:43:01 | 49.74127 | 9.03081 | 96° | 46km/h | 4898m | -4.8m/s | 0°C | 0% | 0hPa | 0V | 00:00:00 | 00:00:00 | 00:00:00 | |
| DM0DOS-11 | 2026-09-01 14:42:58 | 49.74128 | 9.03032 | 90° | 38km/h | 4918m | -4.8m/s | 0°C | 0% | 0hPa | 0V | 00:00:00 | 00:00:00 | 00:00:00 | |
| DM0DOS-11 | 2026-09-01 14:42:58 | 49.74129 | 9.02951 | 94° | 46km/h | 4944m | -5m/s | 0°C | 0% | 0hPa | 0V | 00:00:00 | 00:00:00 | 00:00:00 | |
| DO3MHA-11 | 2026-09-01 14:42:58 | 49.74128 | 9.03032 | 91° | 42km/h | 4918m | -4.7m/s | 0°C | 0% | 0hPa | 4.6V | 00:00:00 | 00:00:00 | 00:00:00 | |
| BIOWL1-15 | 2026-09-01 14:42:54 | 49.74131 | 9.02914 | 93° | 47km/h | 4950m | -5.9m/s | -10.6°C | 0% | 0hPa | 4.6V | 00:00:00 | 00:00:00 | 00:00:00 | |
| DM0DOS-11 | 2026-09-01 14:42:53 | 49.74132 | 9.02860 | 93° | 46km/h | 4971m | -5.3m/s | 0°C | 0% | 0hPa | 0V | 00:00:00 | 00:00:00 | 00:00:00 | |
| NBG1-10 | 2026-09-01 14:42:53 | 49.74129 | 9.02951 | 95° | 47km/h | 4944m | -5.0m/s | 0°C | 0% | 0hPa | 0V | 00:00:00 | 00:00:00 | 00:00:00 | |
| DL1NUX | 2026-09-01 14:42:51 | 49.74131 | 9.02914 | 92° | 47km/h | 4955m | -4.6m/s | 0°C | 0% | 0hPa | 0V | 00:00:00 | 00:00:00 | 00:00:00 | |
| DL1NUX | 2026-09-01 14:42:51 | 49.74133 | 9.02824 | 97° | 47km/h | 4976m | -5.9m/s | 0°C | 0% | 0hPa | 0V | 00:00:00 | 00:00:00 | 00:00:00 | |
| DO3MHA-11 | 2026-09-01 14:42:48 | 49.74132 | 9.02860 | 94° | 47km/h | 4971m | -5.3m/s | 0°C | 0% | 0hPa | 0V | 00:00:00 | 00:00:00 | 00:00:00 | |
| SO1NDE-10 | 2026-09-01 14:42:46 | 49.74133 | 9.02824 | 98° | 47km/h | 4976m | -5.8m/s | 0°C | 0% | 0hPa | 0V | 00:00:00 | 00:00:00 | 00:00:00 | |
| DB0UT-7 | 2026-09-01 14:42:45 | 49.74135 | 9.02805 | 100° | 47km/h | 4987m | -5.1m/s | 0°C | 0% | 0hPa | 0V | 00:00:00 | 00:00:00 | 00:00:00 | |
| DF1GD-15 | 2026-09-01 14:42:44 | 49.74137 | 9.02786 | 101° | 49km/h | 4987m | -5.2m/s | -10.9°C | 0% | 0hPa | 0V | 00:00:00 | 00:00:00 | 00:00:00 | |
| DM0DOS-11 | 2026-09-01 14:42:43 | 49.74139 | 9.02767 | 97° | 49km/h | 4997m | -5.6m/s | 0°C | 0% | 0hPa | 0V | 00:00:00 | 00:00:00 | 00:00:00 | |
| DM0DOS-11 | 2026-09-01 14:42:43 | 49.74139 | 9.02679 | 87° | 44km/h | 5023m | -4.9m/s | 0°C | 0% | 0hPa | 0V | 00:00:00 | 00:00:00 | 00:00:00 | |
| BIOWL1-15 | 2026-09-01 14:42:43 | 49.74141 | 9.02713 | 88° | 44km/h | 5008m | -4.8m/s | -11.1°C | 0% | 0hPa | 4.6V | 00:00:00 | 00:00:00 | 00:00:00 | |
| DO3MHA-11 | 2026-09-01 14:42:38 | 49.74139 | 9.02679 | 88° | 46km/h | 5023m | -4.9m/s | 0°C | 0% | 0hPa | 0V | 00:00:00 | 00:00:00 | 00:00:00 | |
| DB0NH | 2026-09-01 14:42:35 | 49.74138 | 9.02623 | 93° | 47km/h | 5038m | -5.5m/s | 0°C | 0% | 0hPa | 0V | 00:00:00 | 00:00:00 | 00:00:00 | |
| DF2AP-13 | 2026-09-01 14:42:34 | 49.74138 | 9.02605 | 93° | 47km/h | 5044m | -4.9m/s | 0°C | 0% | 0hPa | 0V | 00:00:00 | 00:00:00 | 00:00:00 | |
| DM0DOS-11 | 2026-09-01 14:42:33 | 49.74143 | 9.02498 | 91° | 47km/h | 5074m | -4.6m/s | 0°C | 0% | 0hPa | 0V | 00:00:00 | 00:00:00 | 00:00:00 | |
| BIOWL1-15 | 2026-09-01 14:42:31 | 49.74142 | 9.02534 | 94° | 46km/h | 5059m | -5.1m/s | -11.5°C | 0% | 0hPa | 4.6V | 00:00:00 | 00:00:00 | 00:00:00 | |
| DO3MHA-11 | 2026-09-01 14:42:28 | 49.74143 | 9.02498 | 93° | 47km/h | 5074m | -4.5m/s | 0°C | 0% | 0hPa | 4.6V | 00:00:00 | 00:00:00 | 00:00:00 | |
| DM7RM-13 | 2026-09-01 14:42:27 | 49.74143 | 9.02479 | 93° | 47km/h | 5074m | -4.6m/s | 0°C | 0% | 0hPa | 4.6V | 00:00:00 | 00:00:00 | 00:00:00 | |
| DF1GD-15 | 2026-09-01 14:42:24 | 49.74145 | 9.02424 | 95° | 47km/h | 5089m | -5.5m/s | -11.8°C | 0% | 0hPa | 4.6V | 00:00:00 | 00:00:00 | 00:00:00 | |
| NBG1-10 | 2026-09-01 14:42:20 | 49.74147 | 9.02351 | 91° | 49km/h | 5113m | -5.0m/s | 0°C | 0% | 0hPa | 4.6V | 00:00:00 | 00:00:00 | 00:00:00 | |
| BIOWL1-15 | 2026-09-01 14:42:19 | 49.74148 | 9.02332 | 91° | 47km/h | 5113m | -5m/s | -11.9°C | 0% | 0hPa | 4.6V | 00:00:00 | 00:00:00 | 00:00:00 | |
| DO3MHA-11 | 2026-09-01 14:42:17 | 49.74148 | 9.02295 | 92° | 51km/h | 5129m | -5.2m/s | 0°C | 0% | 0hPa | 0V | 00:00:00 | 00:00:00 | 00:00:00 | |
| DL1NUX | 2026-09-01 14:42:16 | 49.74149 | 9.02177 | 91° | 51km/h | 5158m | -4.7m/s | 0°C | 0% | 0hPa | 0V | 00:00:00 | 00:00:00 | 00:00:00 | |
| DM0DOS-11 | 2026-09-01 14:42:13 | 49.74149 | 9.02117 | 91° | 49km/h | 5173m | -5m/s | 0°C | 0% | 0hPa | 0V | 00:00:00 | 00:00:00 | 00:00:00 | |
| DB0UT-7 | 2026-09-01 14:42:12 | 49.74148 | 9.02197 | 90° | 53km/h | 5153m | -5.5m/s | 0°C | 0% | 0hPa | 4.6V | 00:00:00 | 00:00:00 | 00:00:00 | |
| SO1NDE-10 | 2026-09-01 14:42:11 | 49.74148 | 9.02177 | 92° | 49km/h | 5158m | -4.6m/s | 0°C | 0% | 0hPa | 4.6V | 00:00:00 | 00:00:00 | 00:00:00 | |
| BIOWL1-15 | 2026-09-01 14:42:09 | 49.74149 | 9.02117 | 91° | 49km/h | 5168m | -4.7m/s | -12.4°C | 0% | 0hPa | 4.6V | 00:00:00 | 00:00:00 | 00:00:00 | |
| DO3MHA-11 | 2026-09-01 14:42:07 | 49.74149 | 9.02097 | 89° | 49km/h | 5179m | -5.4m/s | 0°C | 0% | 0hPa | 0V | 00:00:00 | 00:00:00 | 00:00:00 | |
| DL1NUX | 2026-09-01 14:42:06 | 49.74149 | 9.01985 | 89° | 49km/h | 5210m | -4.9m/s | 0°C | 0% | 0hPa | 0V | 00:00:00 | 00:00:00 | 00:00:00 | |
| DB0NH | 2026-09-01 14:42:05 | 49.74149 | 9.02060 | 90° | 49km/h | 5189m | -5.9m/s | 0°C | 0% | 0hPa | 0V | 00:00:00 | 00:00:00 | 00:00:00 | |
| BIOWL9-15 | 2026-09-01 14:42:04 | 49.74149 | 9.02004 | 89° | 49km/h | 5200m | -5.1m/s | -12.6°C | -1.0% | -1.0hPa | 0V | 00:00:00 | 00:00:00 | 00:00:00 | |
| DM0DOS-11 | 2026-09-01 14:42:03 | 49.74149 | 9.01927 | 89° | 47km/h | 5226m | -5.1m/s | 0°C | 0% | 0hPa | 0V | 00:00:00 | 00:00:00 | 00:00:00 | |
| BIOWL1-15 | 2026-09-01 14:42:00 | 49.74149 | 9.01908 | 90° | 49km/h | 5226m | -5.1m/s | -12.8°C | 0% | 0hPa | 4.6V | 00:00:00 | 00:00:00 | 00:00:00 | |
| DO3MHA-11 | 2026-09-01 14:41:57 | 49.74149 | 9.01908 | 90° | 49km/h | 5231m | -4.9m/s | 0°C | 0% | 0hPa | 0V | 00:00:00 | 00:00:00 | 00:00:00 | |
| DL1NUX | 2026-09-01 14:41:56 | 49.74145 | 9.01792 | 88° | 47km/h | 5260m | -4.3m/s | 0°C | 0% | 0hPa | 0V | 00:00:00 | 00:00:00 | 00:00:00 | |
| DM0DOS-11 | 2026-09-01 14:41:53 | 49.74144 | 9.01736 | 89° | 47km/h | 5274m | -5m/s | 0°C | 0% | 0hPa | 0V | 00:00:00 | 00:00:00 | 00:00:00 | |
| BIOWL1-15 | 2026-09-01 14:41:47 | 49.74144 | 9.01717 | 88° | 47km/h | 5274m | -5m/s | -13.2°C | 0% | 0hPa | 4.6V | 00:00:00 | 00:00:00 | 00:00:00 | |
| DO3MHA-11 | 2026-09-01 14:41:47 | 49.74144 | 9.01717 | 89° | 51km/h | 5279m | -4.3m/s | 0°C | 0% | 0hPa | 0V | 00:00:00 | 00:00:00 | 00:00:00 | |
| DL1NUX | 2026-09-01 14:41:46 | 49.74137 | 9.01597 | 86° | 53km/h | 5307m | -4.7m/s | 0°C | 0% | 0hPa | 0V | 00:00:00 | 00:00:00 | 00:00:00 | |
| DM0DOS-11 | 2026-09-01 14:41:43 | 49.74134 | 9.01536 | 83° | 51km/h | 5321m | -4.6m/s | 0°C | 0% | 0hPa | 0V | 00:00:00 | 00:00:00 | 00:00:00 | |
| DF1GD-15 | 2026-09-01 14:41:42 | 49.74139 | 9.01618 | 85° | 53km/h | 5297m | -4.7m/s | -13.4°C | 0% | 0hPa | 4.6V | 00:00:00 | 00:00:00 | 00:00:00 | |
| SO1NDE-10 | 2026-09-01 14:41:41 | 49.74138 | 9.01597 | 87° | 51km/h | 5307m | -4.7m/s | 0°C | 0% | 0hPa | 4.6V | 00:00:00 | 00:00:00 | 00:00:00 | |
| BIOWL1-15 | 2026-09-01 14:41:39 | 49.74132 | 9.01497 | 86° | 49km/h | 5325m | -3.8m/s | -13.5°C | 0% | 0hPa | 4.6V | 00:00:00 | 00:00:00 | 00:00:00 | |
| DO3MHA-11 | 2026-09-01 14:41:37 | 49.74133 | 9.01517 | 87° | 51km/h | 5325m | -3.7m/s | 0°C | 0% | 0hPa | 0V | 00:00:00 | 00:00:00 | 00:00:00 | |
| DL1NUX | 2026-09-01 14:41:36 | 49.74128 | 9.01397 | 84° | 51km/h | 5351m | -3.7m/s | 0°C | 0% | 0hPa | 0V | 00:00:00 | 00:00:00 | 00:00:00 | |
| DB0NH | 2026-09-01 14:41:35 | 49.74131 | 9.01478 | 87° | 51km/h | 5333m | -3.9m/s | 0°C | 0% | 0hPa | 0V | 00:00:00 | 00:00:00 | 00:00:00 | |
| DF2AP-13 | 2026-09-01 14:41:34 | 49.74130 | 9.01458 | 87° | 51km/h | 5338m | -4.6m/s | 0°C | 0% | 0hPa | 0V | 00:00:00 | 00:00:00 | 00:00:00 | |
| DM0DOS-11 | 2026-09-01 14:41:32 | 49.74123 | 9.01318 | 84° | 49km/h | 5368m | -4.1m/s | 0°C | 0% | 0hPa | 0V | 00:00:00 | 00:00:00 | 00:00:00 | |
| DO3MHA-11 | 2026-09-01 14:41:27 | 49.74123 | 9.01318 | 85° | 51km/h | 5368m | -4.1m/s | 0°C | 0% | 0hPa | 0V | 00:00:00 | 00:00:00 | 00:00:00 | |
| DL1NUX | 2026-09-01 14:41:26 | 49.74119 | 9.01198 | 85° | 51km/h | 5393m | -3.8m/s | 0°C | 0% | 0hPa | 0V | 00:00:00 | 00:00:00 | 00:00:00 | |
| BIOWL1-15 | 2026-09-01 14:41:25 | 49.74122 | 9.01279 | 87° | 51km/h | 5372m | -4m/s | -13.9°C | 0% | 0hPa | 4.6V | 00:00:00 | 00:00:00 | 00:00:00 | |
| DM0DOS-11 | 2026-09-01 14:41:22 | 49.74115 | 9.01119 | 89° | 51km/h | 5409m | -4.2m/s | 0°C | 0% | 0hPa | 0V | 00:00:00 | 00:00:00 | 00:00:00 | |
| BIOWL1-15 | 2026-09-01 14:41:17 | 49.74115 | 9.01057 | 89° | 53km/h | 5417m | -4.3m/s | -14.4°C | 0% | 0hPa | 4.5V | 00:00:00 | 00:00:00 | 00:00:00 | |
| DL1NUX | 2026-09-01 14:41:16 | 49.74113 | 9.00994 | 87° | 53km/h | 5433m | -4m/s | 0°C | 0% | 0hPa | 0V | 00:00:00 | 00:00:00 | 00:00:00 | |
| DK7TD | 2026-09-01 14:41:16 | 49.74115 | 9.01078 | 90° | 53km/h | 5413m | -3.6m/s | 0°C | 0% | 0hPa | 0V | 00:00:00 | 00:00:00 | 00:00:00 | |
| NBG1-10 | 2026-09-01 14:41:14 | 49.74115 | 9.01057 | 90° | 53km/h | 5421m | -3.9m/s | 0°C | 0% | 0hPa | 0V | 00:00:00 | 00:00:00 | 00:00:00 | |
| DM0DOS-11 | 2026-09-01 14:41:12 | 49.74112 | 9.00913 | 91° | 51km/h | 5449m | -3.8m/s | 0°C | 0% | 0hPa | 0V | 00:00:00 | 00:00:00 | 00:00:00 | |
| SO1NDE-10 | 2026-09-01 14:41:11 | 49.74113 | 9.00994 | 88° | 53km/h | 5433m | -3.9m/s | 0°C | 0% | 0hPa | 0V | 00:00:00 | 00:00:00 | 00:00:00 | |
| DO3MHA-11 | 2026-09-01 14:41:07 | 49.74112 | 9.00913 | 92° | 53km/h | 5449m | -3.7m/s | 0°C | 0% | 0hPa | 0V | 00:00:00 | 00:00:00 | 00:00:00 | |
| DL1NUX | 2026-09-01 14:41:06 | 49.74113 | 9.00788 | 90° | 53km/h | 5473m | -4.9m/s | 0°C | 0% | 0hPa | 0V | 00:00:00 | 00:00:00 | 00:00:00 | |
| DB0NH | 2026-09-01 14:41:05 | 49.74112 | 9.00872 | 92° | 53km/h | 5457m | -3.8m/s | 0°C | 0% | 0hPa | 4.5V | 00:00:00 | 00:00:00 | 00:00:00 | |
| BIOWL1-15 | 2026-09-01 14:41:04 | 49.74113 | 9.00830 | 89° | 55km/h | 5460m | -3.8m/s | -14.7°C | 0% | 0hPa | 4.5V | 00:00:00 | 00:00:00 | 00:00:00 | |
| DF2AP-13 | 2026-09-01 14:41:04 | 49.74113 | 9.00851 | 90° | 53km/h | 5460m | -3.7m/s | 0°C | 0% | 0hPa | 0V | 00:00:00 | 00:00:00 | 00:00:00 | |
| DM0DOS-11 | 2026-09-01 14:41:02 | 49.74113 | 9.00707 | 89° | 51km/h | 5491m | -4.2m/s | 0°C | 0% | 0hPa | 0V | 00:00:00 | 00:00:00 | 00:00:00 | |
| DF1GD-15 | 2026-09-01 14:41:01 | 49.74113 | 9.00788 | 92° | 53km/h | 5468m | -3.7m/s | -14.8°C | 0% | 0hPa | 0V | 00:00:00 | 00:00:00 | 00:00:00 | |
| DO3MHA-11 | 2026-09-01 14:40:57 | 49.74113 | 9.00707 | 90° | 53km/h | 5491m | -4.1m/s | 0°C | 0% | 0hPa | 0V | 00:00:00 | 00:00:00 | 00:00:00 | |
| DL1NUX | 2026-09-01 14:40:56 | 49.74109 | 9.00583 | 89° | 53km/h | 5517m | -4.2m/s | 0°C | 0% | 0hPa | 0V | 00:00:00 | 00:00:00 | 00:00:00 | |
| DB0UT-7 | 2026-09-01 14:40:54 | 49.74111 | 9.00647 | 87° | 55km/h | 5503m | -4.5m/s | 0°C | 0% | 0hPa | 4.5V | 00:00:00 | 00:00:00 | 00:00:00 | |
| BIOWL1-15 | 2026-09-01 14:40:53 | 49.74110 | 9.00625 | 86° | 55km/h | 5503m | -4.5m/s | -15.1°C | 0% | 0hPa | 4.5V | 00:00:00 | 00:00:00 | 00:00:00 | |
| DM0DOS-11 | 2026-09-01 14:40:52 | 49.74108 | 9.00504 | 87° | 51km/h | 5537m | -4m/s | 0°C | 0% | 0hPa | 0V | 00:00:00 | 00:00:00 | 00:00:00 | |
| DO3MHA-11 | 2026-09-01 14:40:47 | 49.74108 | 9.00504 | 88° | 55km/h | 5537m | -4.0m/s | 0°C | 0% | 0hPa | 4.5V | 00:00:00 | 00:00:00 | 00:00:00 | |
| DM7RM-13 | 2026-09-01 14:40:45 | 49.74106 | 9.00462 | 89° | 55km/h | 5541m | -3.6m/s | 0°C | 0% | 0hPa | 4.5V | 00:00:00 | 00:00:00 | 00:00:00 | |
| BIOWL1-15 | 2026-09-01 14:40:43 | 49.74106 | 9.00396 | 90° | 55km/h | 5553m | -4.1m/s | -15.4°C | 0% | 0hPa | 4.5V | 00:00:00 | 00:00:00 | 00:00:00 | |
| DM0DOS-11 | 2026-09-01 14:40:42 | 49.74102 | 9.00293 | 84° | 51km/h | 5574m | -3.8m/s | 0°C | 0% | 0hPa | 0V | 00:00:00 | 00:00:00 | 00:00:00 | |
| SO1NDE-10 | 2026-09-01 14:40:41 | 49.74106 | 9.00374 | 87° | 57km/h | 5560m | -3.9m/s | 0°C | 0% | 0hPa | 0V | 00:00:00 | 00:00:00 | 00:00:00 | |
| DO3MHA-11 | 2026-09-01 14:40:37 | 49.74101 | 9.00293 | 85° | 55km/h | 5574m | -3.8m/s | 0°C | 0% | 0hPa | 0V | 00:00:00 | 00:00:00 | 00:00:00 | |
| DL1NUX | 2026-09-01 14:40:36 | 49.74097 | 9.00160 | 85° | 57km/h | 5596m | -4.5m/s | 0°C | 0% | 0hPa | 0V | 00:00:00 | 00:00:00 | 00:00:00 | |
| DB0NH | 2026-09-01 14:40:35 | 49.74099 | 9.00251 | 87° | 57km/h | 5581m | -3.4m/s | 0°C | 0% | 0hPa | 4.5V | 00:00:00 | 00:00:00 | 00:00:00 | |
| BIOWL1-15 | 2026-09-01 14:40:34 | 49.74097 | 9.00160 | 86° | 57km/h | 5592m | -3.6m/s | -15.5°C | 0% | 0hPa | 4.5V | 00:00:00 | 00:00:00 | 00:00:00 | |
| DM0DOS-11 | 2026-09-01 14:40:32 | 49.74092 | 9.00075 | 86° | 55km/h | 5614m | -3.6m/s | 0°C | 0% | 0hPa | 0V | 00:00:00 | 00:00:00 | 00:00:00 | |
| DO3MHA-11 | 2026-09-01 14:40:27 | 49.74092 | 9.00075 | 87° | 57km/h | 5614m | -3.5m/s | 0°C | 0% | 0hPa | 0V | 00:00:00 | 00:00:00 | 00:00:00 | |
| DL1NUX | 2026-09-01 14:40:26 | 49.74082 | 8.99944 | 76° | 57km/h | 5637m | -3.8m/s | 0°C | 0% | 0hPa | 0V | 00:00:00 | 00:00:00 | 00:00:00 | |
| DB0UT-7 | 2026-09-01 14:40:24 | 49.74088 | 9.00009 | 85° | 57km/h | 5626m | -3.5m/s | 0°C | 0% | 0hPa | 0V | 00:00:00 | 00:00:00 | 00:00:00 | |
| DM0DOS-11 | 2026-09-01 14:40:22 | 49.74070 | 8.99858 | 80° | 57km/h | 5655m | -4.3m/s | 0°C | 0% | 0hPa | 0V | 00:00:00 | 00:00:00 | 00:00:00 | |
| BIOWL1-15 | 2026-09-01 14:40:21 | 49.74079 | 8.99922 | 76° | 55km/h | 5637m | -3.8m/s | -15.7°C | 0% | 0hPa | 4.5V | 00:00:00 | 00:00:00 | 00:00:00 | |
| DF1GD-15 | 2026-09-01 14:40:20 | 49.74079 | 8.99922 | 77° | 55km/h | 5637m | -3.8m/s | -15.7°C | 0% | 0hPa | 0V | 00:00:00 | 00:00:00 | 00:00:00 | |
| DO3MHA-11 | 2026-09-01 14:40:17 | 49.74071 | 8.99858 | 81° | 57km/h | 5655m | -4.2m/s | 0°C | 0% | 0hPa | 0V | 00:00:00 | 00:00:00 | 00:00:00 | |
| DL1NUX | 2026-09-01 14:40:16 | 49.74057 | 8.99726 | 79° | 55km/h | 5675m | -3.6m/s | 0°C | 0% | 0hPa | 0V | 00:00:00 | 00:00:00 | 00:00:00 | |
| DM0DOS-11 | 2026-09-01 14:40:12 | 49.74047 | 8.99642 | 80° | 57km/h | 5727m | -3m/s | 0°C | 0% | 0hPa | 0V | 00:00:00 | 00:00:00 | 00:00:00 | |
| BIOWL1-15 | 2026-09-01 14:40:11 | 49.74054 | 8.99706 | 80° | 55km/h | 5675m | -3.6m/s | -16°C | 0% | 0hPa | 4.5V | 00:00:00 | 00:00:00 | 00:00:00 | |
| NBG1-10 | 2026-09-01 14:40:08 | 49.74049 | 8.99663 | 82° | 57km/h | 5684m | -3.0m/s | 0°C | 0% | 0hPa | 0V | 00:00:00 | 00:00:00 | 00:00:00 | |
| DO3MHA-11 | 2026-09-01 14:40:07 | 49.74047 | 8.99642 | 81° | 57km/h | 5687m | -2.9m/s | 0°C | 0% | 0hPa | 0V | 00:00:00 | 00:00:00 | 00:00:00 | |
| DL1NUX | 2026-09-01 14:40:06 | 49.74032 | 8.99511 | 79° | 55km/h | 5706m | -2.9m/s | 0°C | 0% | 0hPa | 0V | 00:00:00 | 00:00:00 | 00:00:00 | |
| DB0NH | 2026-09-01 14:40:05 | 49.74042 | 8.99598 | 80° | 57km/h | 5693m | -3.0m/s | 0°C | 0% | 0hPa | 4.5V | 00:00:00 | 00:00:00 | 00:00:00 | |
| DF2AP-13 | 2026-09-01 14:40:04 | 49.74040 | 8.99575 | 80° | 57km/h | 5699m | -3.0m/s | 0°C | 0% | 0hPa | 4.5V | 00:00:00 | 00:00:00 | 00:00:00 | |
| BIOWL1-15 | 2026-09-01 14:40:02 | 49.74027 | 8.99469 | 80° | 55km/h | 5709m | -3m/s | -16.3°C | 0% | 0hPa | 4.5V | 00:00:00 | 00:00:00 | 00:00:00 | |
| DF1GD-15 | 2026-09-01 14:40:00 | 49.74030 | 8.99490 | 81° | 55km/h | 5706m | -2.9m/s | -16.3°C | 0% | 0hPa | 0V | 00:00:00 | 00:00:00 | 00:00:00 | |
| DO3MHA-11 | 2026-09-01 14:39:57 | 49.74022 | 8.99426 | 80° | 57km/h | 5718m | -3.0m/s | 0°C | 0% | 0hPa | 0V | 00:00:00 | 00:00:00 | 00:00:00 | |
| DL1NUX | 2026-09-01 14:39:56 | 49.74006 | 8.99294 | 79° | 57km/h | 5736m | -3m/s | 0°C | 0% | 0hPa | 0V | 00:00:00 | 00:00:00 | 00:00:00 | |
| DB0UT-7 | 2026-09-01 14:39:54 | 49.74014 | 8.99361 | 80° | 57km/h | 5727m | -3.0m/s | 0°C | 0% | 0hPa | 0V | 00:00:00 | 00:00:00 | 00:00:00 | |
| BEGRI65-1 | 2026-09-01 14:39:53 | 49.74012 | 8.99339 | 80° | 58km/h | 5727m | -3.0m/s | -16.4°C | 0% | 0hPa | 0V | 00:00:00 | 00:00:00 | 00:00:00 | |
| DM0DOS-11 | 2026-09-01 14:39:51 | 49.73993 | 8.99186 | 79° | 58km/h | 5751m | -2.9m/s | 0°C | 0% | 0hPa | 0V | 00:00:00 | 00:00:00 | 00:00:00 | |
| BIOWL1-15 | 2026-09-01 14:39:49 | 49.73998 | 8.99230 | 79° | 57km/h | 5742m | -3m/s | -16.5°C | 0% | 0hPa | 4.5V | 00:00:00 | 00:00:00 | 00:00:00 | |
| DO3MHA-11 | 2026-09-01 14:39:47 | 49.73995 | 8.99208 | 80° | 57km/h | 5748m | -3.0m/s | 0°C | 0% | 0hPa | 0V | 00:00:00 | 00:00:00 | 00:00:00 | |
| DL1NUX | 2026-09-01 14:39:46 | 49.73982 | 8.99075 | 81° | 57km/h | 5766m | -3m/s | 0°C | 0% | 0hPa | 0V | 00:00:00 | 00:00:00 | 00:00:00 | |
| DM7RM-13 | 2026-09-01 14:39:43 | 49.73986 | 8.99119 | 83° | 58km/h | 5757m | -3.0m/s | 0°C | 0% | 0hPa | 4.5V | 00:00:00 | 00:00:00 | 00:00:00 | |
| SO1NDE-10 | 2026-09-01 14:39:41 | 49.73982 | 8.99075 | 82° | 57km/h | 5766m | -2.9m/s | 0°C | 0% | 0hPa | 4.5V | 00:00:00 | 00:00:00 | 00:00:00 | |
| DF1GD-15 | 2026-09-01 14:39:39 | 49.73977 | 8.99031 | 82° | 57km/h | 5769m | -3.0m/s | -16.6°C | 0% | 0hPa | 4.5V | 00:00:00 | 00:00:00 | 00:00:00 | |
| BIOWL1-15 | 2026-09-01 14:39:38 | 49.73973 | 8.98987 | 82° | 57km/h | 5775m | -2.9m/s | -16.6°C | 0% | 0hPa | 4.5V | 00:00:00 | 00:00:00 | 00:00:00 | |
| DO3MHA-11 | 2026-09-01 14:39:37 | 49.73973 | 8.98987 | 82° | 57km/h | 5778m | -2.9m/s | 0°C | 0% | 0hPa | 0V | 00:00:00 | 00:00:00 | 00:00:00 | |
| DL1NUX | 2026-09-01 14:39:36 | 49.73963 | 8.98856 | 84° | 57km/h | 5795m | -3m/s | 0°C | 0% | 0hPa | 0V | 00:00:00 | 00:00:00 | 00:00:00 | |
| NBG1-10 | 2026-09-01 14:39:35 | 49.73969 | 8.98943 | 83° | 58km/h | 5784m | -2.9m/s | 0°C | 0% | 0hPa | 4.5V | 00:00:00 | 00:00:00 | 00:00:00 | |
| DF2AP-13 | 2026-09-01 14:39:33 | 49.73966 | 8.98899 | 85° | 57km/h | 5790m | -2.9m/s | 0°C | 0% | 0hPa | 4.5V | 00:00:00 | 00:00:00 | 00:00:00 | |
| BIOWL1-15 | 2026-09-01 14:39:29 | 49.73958 | 8.98768 | 85° | 57km/h | 5804m | -2.9m/s | -16.8°C | 0% | 0hPa | 4.5V | 00:00:00 | 00:00:00 | 00:00:00 | |
| DO3MHA-11 | 2026-09-01 14:39:27 | 49.73958 | 8.98768 | 85° | 57km/h | 5807m | -2.9m/s | 0°C | 0% | 0hPa | 0V | 00:00:00 | 00:00:00 | 00:00:00 | |
| DL1NUX | 2026-09-01 14:39:26 | 49.73952 | 8.98639 | 86° | 55km/h | 5824m | -3m/s | 0°C | 0% | 0hPa | 0V | 00:00:00 | 00:00:00 | 00:00:00 | |
| DB0UT-7 | 2026-09-01 14:39:24 | 49.73955 | 8.98702 | 86° | 60km/h | 5821m | -2.8m/s | 0°C | 0% | 0hPa | 4.5V | 00:00:00 | 00:00:00 | 00:00:00 | |
| DM7RM-13 | 2026-09-01 14:39:22 | 49.73952 | 8.98660 | 86° | 55km/h | 5819m | -3.0m/s | 0°C | 0% | 0hPa | 4.5V | 00:00:00 | 00:00:00 | 00:00:00 | |
| DF1GD-15 | 2026-09-01 14:39:19 | 49.73950 | 8.98594 | 87° | 58km/h | 5827m | -3.0m/s | -17.0°C | 0% | 0hPa | 4.5V | 00:00:00 | 00:00:00 | 00:00:00 | |
| DO3MHA-11 | 2026-09-01 14:39:17 | 49.73948 | 8.98548 | 87° | 58km/h | 5837m | -2.9m/s | 0°C | 0% | 0hPa | 4.5V | 00:00:00 | 00:00:00 | 00:00:00 | |
| BIOWL1-15 | 2026-09-01 14:39:16 | 49.73947 | 8.98525 | 87° | 60km/h | 5837m | -3m/s | -17.1°C | 0% | 0hPa | 4.5V | 00:00:00 | 00:00:00 | 00:00:00 | |
| DL1NUX | 2026-09-01 14:39:16 | 49.73942 | 8.98412 | 85° | 58km/h | 5854m | -2.9m/s | 0°C | 0% | 0hPa | 0V | 00:00:00 | 00:00:00 | 00:00:00 | |
| SO1NDE-10 | 2026-09-01 14:39:11 | 49.73942 | 8.98412 | 86° | 62km/h | 5854m | -2.9m/s | 0°C | 0% | 0hPa | 4.5V | 00:00:00 | 00:00:00 | 00:00:00 | |
| BIOWL1-15 | 2026-09-01 14:39:07 | 49.73935 | 8.98268 | 84° | 62km/h | 5869m | -2.8m/s | -17.2°C | 0% | 0hPa | 4.5V | 00:00:00 | 00:00:00 | 00:00:00 | |
| DO3MHA-11 | 2026-09-01 14:39:07 | 49.73937 | 8.98317 | 86° | 62km/h | 5866m | -2.9m/s | 0°C | 0% | 0hPa | 0V | 00:00:00 | 00:00:00 | 00:00:00 | |
| DL1NUX | 2026-09-01 14:39:06 | 49.73929 | 8.98174 | 85° | 60km/h | 5883m | -2.9m/s | 0°C | 0% | 0hPa | 0V | 00:00:00 | 00:00:00 | 00:00:00 | |
| DB0NH | 2026-09-01 14:39:05 | 49.73934 | 8.98268 | 85° | 62km/h | 5872m | -2.8m/s | 0°C | 0% | 0hPa | 0V | 00:00:00 | 00:00:00 | 00:00:00 | |
| DF2AP-13 | 2026-09-01 14:39:03 | 49.73932 | 8.98221 | 85° | 60km/h | 5892m | -2.8m/s | 0°C | 0% | 0hPa | 0V | 00:00:00 | 00:00:00 | 00:00:00 | |
| NBG1-10 | 2026-09-01 14:39:02 | 49.73930 | 8.98198 | 86° | 62km/h | 5880m | -2.8m/s | 0°C | 0% | 0hPa | 0V | 00:00:00 | 00:00:00 | 00:00:00 | |
| DM0DOS-11 | 2026-09-01 14:39:00 | 49.73921 | 8.98029 | 83° | 60km/h | 5901m | -3m/s | 0°C | 0% | 0hPa | 0V | 00:00:00 | 00:00:00 | 00:00:00 | |
| DF1GD-15 | 2026-09-01 14:38:58 | 49.73925 | 8.98102 | 87° | 62km/h | 5889m | -2.8m/s | -17.3°C | 0% | 0hPa | 0V | 00:00:00 | 00:00:00 | 00:00:00 | |
| DO3MHA-11 | 2026-09-01 14:38:57 | 49.73924 | 8.98077 | 85° | 62km/h | 5895m | -2.8m/s | 0°C | 0% | 0hPa | 0V | 00:00:00 | 00:00:00 | 00:00:00 | |
| DL1NUX | 2026-09-01 14:38:56 | 49.73914 | 8.97934 | 84° | 62km/h | 5909m | -2.9m/s | 0°C | 0% | 0hPa | 0V | 00:00:00 | 00:00:00 | 00:00:00 | |
| BIOWL1-15 | 2026-09-01 14:38:54 | 49.73919 | 8.98006 | 84° | 62km/h | 5901m | -3m/s | -17.4°C | 0% | 0hPa | 4.5V | 00:00:00 | 00:00:00 | 00:00:00 | |
| DB0UT-7 | 2026-09-01 14:38:54 | 49.73919 | 8.98006 | 84° | 60km/h | 5904m | -2.9m/s | 0°C | 0% | 0hPa | 0V | 00:00:00 | 00:00:00 | 00:00:00 | |
| DM0DOS-11 | 2026-09-01 14:38:50 | 49.73903 | 8.97790 | 82° | 62km/h | 5930m | -3m/s | 0°C | 0% | 0hPa | 0V | 00:00:00 | 00:00:00 | 00:00:00 | |
| DO3MHA-11 | 2026-09-01 14:38:47 | 49.73907 | 8.97838 | 83° | 62km/h | 5924m | -2.8m/s | 0°C | 0% | 0hPa | 0V | 00:00:00 | 00:00:00 | 00:00:00 | |
| DL1NUX | 2026-09-01 14:38:46 | 49.73895 | 8.97695 | 83° | 62km/h | 5946m | -3m/s | 0°C | 0% | 0hPa | 0V | 00:00:00 | 00:00:00 | 00:00:00 | |
| BIOWL1-15 | 2026-09-01 14:38:45 | 49.73901 | 8.97767 | 82° | 62km/h | 5930m | -3.1m/s | -17.6°C | 0% | 0hPa | 4.5V | 00:00:00 | 00:00:00 | 00:00:00 | |
| SO1NDE-10 | 2026-09-01 14:38:41 | 49.73895 | 8.97695 | 84° | 62km/h | 5946m | -2.9m/s | 0°C | 0% | 0hPa | 0V | 00:00:00 | 00:00:00 | 00:00:00 | |
| DM0DOS-11 | 2026-09-01 14:38:40 | 49.73883 | 8.97551 | 81° | 62km/h | 5961m | -3m/s | 0°C | 0% | 0hPa | 0V | 00:00:00 | 00:00:00 | 00:00:00 | |
| BIOWL1-15 | 2026-09-01 14:38:38 | 49.73878 | 8.97504 | 80° | 62km/h | 5964m | -3.1m/s | -17.8°C | 0% | 0hPa | 4.5V | 00:00:00 | 00:00:00 | 00:00:00 | |
| DO3MHA-11 | 2026-09-01 14:38:37 | 49.73888 | 8.97599 | 84° | 62km/h | 5955m | -2.9m/s | 0°C | 0% | 0hPa | 0V | 00:00:00 | 00:00:00 | 00:00:00 | |
| DL1NUX | 2026-09-01 14:38:36 | 49.73874 | 8.97455 | 82° | 62km/h | 6016m | -4.2m/s | 0°C | 0% | 0hPa | 0V | 00:00:00 | 00:00:00 | 00:00:00 | |
| DB0NH | 2026-09-01 14:38:35 | 49.73883 | 8.97551 | 82° | 64km/h | 5961m | -2.9m/s | 0°C | 0% | 0hPa | 0V | 00:00:00 | 00:00:00 | 00:00:00 | |
| DH7VM-15 | 2026-09-01 14:38:32 | 49.73876 | 8.97480 | 82° | 62km/h | 5967m | -3.1m/s | -17.8°C | 0% | 0hPa | 0V | 00:00:00 | 00:00:00 | 00:00:00 | |
| DF2AP-13 | 2026-09-01 14:38:31 | 49.73873 | 8.97455 | 83° | 62km/h | 5983m | -2.9m/s | 0°C | 0% | 0hPa | 0V | 00:00:00 | 00:00:00 | 00:00:00 | |
| DM0DOS-11 | 2026-09-01 14:38:30 | 49.73863 | 8.97309 | 77° | 60km/h | 5992m | -3.1m/s | 0°C | 0% | 0hPa | 0V | 00:00:00 | 00:00:00 | 00:00:00 | |
| NBG1-10 | 2026-09-01 14:38:29 | 49.73870 | 8.97406 | 86° | 62km/h | 5980m | -3.1m/s | 0°C | 0% | 0hPa | 4.5V | 00:00:00 | 00:00:00 | 00:00:00 | |
| BIOWL1-15 | 2026-09-01 14:38:22 | 49.73855 | 8.97238 | 83° | 64km/h | 5998m | -2.7m/s | -18°C | 0% | 0hPa | 4.5V | 00:00:00 | 00:00:00 | 00:00:00 | |
| DM7RM-13 | 2026-09-01 14:38:21 | 49.73853 | 8.97212 | 87° | 66km/h | 6002m | -3.1m/s | 0°C | 0% | 0hPa | 0V | 00:00:00 | 00:00:00 | 00:00:00 | |
| DM0DOS-11 | 2026-09-01 14:38:20 | 49.73848 | 8.97064 | 78° | 58km/h | 6066m | -3.8m/s | 0°C | 0% | 0hPa | 0V | 00:00:00 | 00:00:00 | 00:00:00 | |
| DF1GD-15 | 2026-09-01 14:38:17 | 49.73852 | 8.97109 | 88° | 60km/h | 6016m | -4.2m/s | -18.1°C | 0% | 0hPa | 0V | 00:00:00 | 00:00:00 | 00:00:00 | |
| DL1NUX | 2026-09-01 14:38:14 | 49.73838 | 8.96912 | 87° | 68km/h | 6050m | -3.9m/s | 0°C | 0% | 0hPa | 0V | 00:00:00 | 00:00:00 | 00:00:00 | |
| BIOWL1-15 | 2026-09-01 14:38:13 | 49.73839 | 8.96965 | 87° | 68km/h | 6039m | -3.6m/s | -18.3°C | 0% | 0hPa | 4.5V | 00:00:00 | 00:00:00 | 00:00:00 | |
| SO1NDE-10 | 2026-09-01 14:38:11 | 49.73839 | 8.96965 | 87° | 62km/h | 6043m | -4.0m/s | 0°C | 0% | 0hPa | 4.5V | 00:00:00 | 00:00:00 | 00:00:00 | |
| CB1BUN | 2026-09-01 14:38:09 | 49.73837 | 8.96912 | 88° | 68km/h | 6047m | -3.3m/s | -18.4°C | 0% | 0hPa | 4.5V | 00:00:00 | 00:00:00 | 00:00:00 | |
| DB0NH | 2026-09-01 14:38:05 | 49.73832 | 8.96818 | 82° | 60km/h | 6066m | -3.8m/s | 0°C | 0% | 0hPa | 4.5V | 00:00:00 | 00:00:00 | 00:00:00 | |
| BIOWL1-15 | 2026-09-01 14:38:01 | 49.73822 | 8.96702 | 86° | 64km/h | 6081m | -3.7m/s | -18.7°C | 0% | 0hPa | 4.5V | 00:00:00 | 00:00:00 | 00:00:00 | |
| DM7RM-13 | 2026-09-01 14:38:00 | 49.73821 | 8.96702 | 87° | 64km/h | 6081m | -3.7m/s | 0°C | 0% | 0hPa | 4.5V | 00:00:00 | 00:00:00 | 00:00:00 | |
| DO3MHA-11 | 2026-09-01 14:37:57 | 49.73820 | 8.96629 | 87° | 60km/h | 6098m | -4.1m/s | 0°C | 0% | 0hPa | 4.5V | 00:00:00 | 00:00:00 | 00:00:00 | |
| NBG1-10 | 2026-09-01 14:37:56 | 49.73819 | 8.96606 | 87° | 60km/h | 6102m | -3.6m/s | 0°C | 0% | 0hPa | 4.5V | 00:00:00 | 00:00:00 | 00:00:00 | |
| BIOWL1-15 | 2026-09-01 14:37:51 | 49.73807 | 8.96466 | 83° | 62km/h | 6122m | -4.1m/s | -19°C | 0% | 0hPa | 4.5V | 00:00:00 | 00:00:00 | 00:00:00 | |
| CB1BUN | 2026-09-01 14:37:48 | 49.73803 | 8.96395 | 87° | 60km/h | 6134m | -4.1m/s | -19.1°C | 0% | 0hPa | 0V | 00:00:00 | 00:00:00 | 00:00:00 | |
| DO3MHA-11 | 2026-09-01 14:37:47 | 49.73803 | 8.96395 | 87° | 60km/h | 6138m | -3.8m/s | 0°C | 0% | 0hPa | 0V | 00:00:00 | 00:00:00 | 00:00:00 | |
| DL1NUX | 2026-09-01 14:37:44 | 49.73784 | 8.96210 | 87° | 57km/h | 6171m | -4.6m/s | 0°C | 0% | 0hPa | 0V | 00:00:00 | 00:00:00 | 00:00:00 | |
| DB0UT-7 | 2026-09-01 14:37:43 | 49.73794 | 8.96301 | 79° | 58km/h | 6154m | -4.6m/s | 0°C | 0% | 0hPa | 4.5V | 00:00:00 | 00:00:00 | 00:00:00 | |
| DM7RM-13 | 2026-09-01 14:37:40 | 49.73785 | 8.96232 | 85° | 57km/h | 6163m | -4.0m/s | 0°C | 0% | 0hPa | 4.5V | 00:00:00 | 00:00:00 | 00:00:00 | |
| BIOWL1-15 | 2026-09-01 14:37:39 | 49.73784 | 8.96210 | 88° | 57km/h | 6167m | -4m/s | -19.2°C | 0% | 0hPa | 4.5V | 00:00:00 | 00:00:00 | 00:00:00 | |
| DO3MHA-11 | 2026-09-01 14:37:37 | 49.73783 | 8.96163 | 88° | 60km/h | 6180m | -4.0m/s | 0°C | 0% | 0hPa | 4.5V | 00:00:00 | 00:00:00 | 00:00:00 | |
| DF1GD-15 | 2026-09-01 14:37:36 | 49.73782 | 8.96139 | 86° | 62km/h | 6180m | -4.1m/s | -19.0°C | 0% | 0hPa | 4.5V | 00:00:00 | 00:00:00 | 00:00:00 | |
| DB0NH | 2026-09-01 14:37:35 | 49.73780 | 8.96115 | 82° | 58km/h | 6189m | -4.0m/s | 0°C | 0% | 0hPa | 4.5V | 00:00:00 | 00:00:00 | 00:00:00 | |
| BIOWL1-15 | 2026-09-01 14:37:34 | 49.73770 | 8.95951 | 87° | 60km/h | 6210m | -3.8m/s | -19.2°C | 0% | 0hPa | 4.5V | 00:00:00 | 00:00:00 | 00:00:00 | |
| DL1NUX | 2026-09-01 14:37:34 | 49.73771 | 8.95974 | 86° | 60km/h | 6210m | -3.8m/s | 0°C | 0% | 0hPa | 0V | 00:00:00 | 00:00:00 | 00:00:00 | |
| DF2AP-13 | 2026-09-01 14:37:31 | 49.73773 | 8.96021 | 87° | 58km/h | 6203m | -3.2m/s | 0°C | 0% | 0hPa | 0V | 00:00:00 | 00:00:00 | 00:00:00 | |
| DO3MHA-11 | 2026-09-01 14:37:27 | 49.73769 | 8.95927 | 86° | 58km/h | 6217m | -3.2m/s | 0°C | 0% | 0hPa | 0V | 00:00:00 | 00:00:00 | 00:00:00 | |
| DL1NUX | 2026-09-01 14:37:24 | 49.73760 | 8.95743 | 88° | 58km/h | 6244m | -3.6m/s | 0°C | 0% | 0hPa | 0V | 00:00:00 | 00:00:00 | 00:00:00 | |
| NBG1-10 | 2026-09-01 14:37:23 | 49.73764 | 8.95835 | 85° | 58km/h | 6230m | -3.4m/s | 0°C | 0% | 0hPa | 4.5V | 00:00:00 | 00:00:00 | 00:00:00 | |
| DM7RM-13 | 2026-09-01 14:37:19 | 49.73760 | 8.95743 | 90° | 58km/h | 6241m | -3.5m/s | 0°C | 0% | 0hPa | 4.5V | 00:00:00 | 00:00:00 | 00:00:00 | |
| BIOWL1-15 | 2026-09-01 14:37:18 | 49.73760 | 8.95698 | 89° | 58km/h | 6249m | -5.1m/s | -19.4°C | 0% | 0hPa | 4.5V | 00:00:00 | 00:00:00 | 00:00:00 | |
| DO3MHA-11 | 2026-09-01 14:37:17 | 49.73760 | 8.95698 | 89° | 58km/h | 6253m | -3.9m/s | 0°C | 0% | 0hPa | 0V | 00:00:00 | 00:00:00 | 00:00:00 | |
| DF1GD-15 | 2026-09-01 14:37:16 | 49.73759 | 8.95675 | 89° | 57km/h | 6253m | -4.0m/s | -19.5°C | 0% | 0hPa | 0V | 00:00:00 | 00:00:00 | 00:00:00 | |
| DL1NUX | 2026-09-01 14:37:14 | 49.73755 | 8.95516 | 89° | 57km/h | 6285m | -4m/s | 0°C | 0% | 0hPa | 0V | 00:00:00 | 00:00:00 | 00:00:00 | |
| DB0UT-7 | 2026-09-01 14:37:13 | 49.73757 | 8.95607 | 87° | 58km/h | 6269m | -3.4m/s | 0°C | 0% | 0hPa | 4.5V | 00:00:00 | 00:00:00 | 00:00:00 | |
| BIOWL1-15 | 2026-09-01 14:37:12 | 49.73755 | 8.95472 | 89° | 58km/h | 6289m | -3.8m/s | -19.7°C | 0% | 0hPa | 4.5V | 00:00:00 | 00:00:00 | 00:00:00 | |
| SO1NDE-10 | 2026-09-01 14:37:11 | 49.73756 | 8.95562 | 89° | 58km/h | 6277m | -4.2m/s | 0°C | 0% | 0hPa | 0V | 00:00:00 | 00:00:00 | 00:00:00 | |
| DO3MHA-11 | 2026-09-01 14:37:07 | 49.73755 | 8.95472 | 90° | 58km/h | 6293m | -3.4m/s | 0°C | 0% | 0hPa | 0V | 00:00:00 | 00:00:00 | 00:00:00 | |
| CB1BUN | 2026-09-01 14:37:06 | 49.73755 | 8.95449 | 90° | 58km/h | 6293m | -3.5m/s | -19.7°C | 0% | 0hPa | 0V | 00:00:00 | 00:00:00 | 00:00:00 | |
| DB0NH | 2026-09-01 14:37:05 | 49.73755 | 8.95426 | 89° | 58km/h | 6300m | -3.4m/s | 0°C | 0% | 0hPa | 0V | 00:00:00 | 00:00:00 | 00:00:00 | |
| DL1NUX | 2026-09-01 14:37:04 | 49.73753 | 8.95288 | 89° | 58km/h | 6321m | -3.3m/s | 0°C | 0% | 0hPa | 0V | 00:00:00 | 00:00:00 | 00:00:00 | |
| DF2AP-13 | 2026-09-01 14:37:01 | 49.73753 | 8.95334 | 90° | 57km/h | 6314m | -3.4m/s | 0°C | 0% | 0hPa | 4.5V | 00:00:00 | 00:00:00 | 00:00:00 | |
| DM7RM-13 | 2026-09-01 14:36:59 | 49.73754 | 8.95266 | 91° | 58km/h | 6321m | -3.3m/s | 0°C | 0% | 0hPa | 4.5V | 00:00:00 | 00:00:00 | 00:00:00 | |
| BIOWL1-15 | 2026-09-01 14:36:57 | 49.73754 | 8.95220 | 90° | 58km/h | 6328m | -3.4m/s | -20°C | 0% | 0hPa | 4.5V | 00:00:00 | 00:00:00 | 00:00:00 | |
| DO3MHA-11 | 2026-09-01 14:36:57 | 49.73753 | 8.95243 | 91° | 58km/h | 6328m | -3.3m/s | 0°C | 0% | 0hPa | 0V | 00:00:00 | 00:00:00 | 00:00:00 | |
| BEGRI65-1 | 2026-09-01 14:36:55 | 49.73754 | 8.95197 | 90° | 58km/h | 6331m | -3.3m/s | -20.1°C | 0% | 0hPa | 0V | 00:00:00 | 00:00:00 | 00:00:00 | |
| DL1NUX | 2026-09-01 14:36:54 | 49.73751 | 8.95062 | 88° | 57km/h | 6356m | -3.4m/s | 0°C | 0% | 0hPa | 0V | 00:00:00 | 00:00:00 | 00:00:00 | |
| DM0DOS-11 | 2026-09-01 14:36:50 | 49.80304 | 8.94973 | 89° | 58km/h | 6370m | -3.4m/s | 0°C | 0% | 0hPa | 0V | 00:00:00 | 00:00:00 | 00:00:00 | |
| NBG1-10 | 2026-09-01 14:36:50 | 49.73752 | 8.95085 | 89° | 57km/h | 6352m | -3.4m/s | 0°C | 0% | 0hPa | 0V | 00:00:00 | 00:00:00 | 00:00:00 | |
| BIOWL1-15 | 2026-09-01 14:36:50 | 49.73751 | 8.94973 | 89° | 58km/h | 6366m | -3.5m/s | -20.3°C | 0% | 0hPa | 4.5V | 00:00:00 | 00:00:00 | 00:00:00 | |
| DO3MHA-11 | 2026-09-01 14:36:47 | 49.73751 | 8.95018 | 89° | 57km/h | 6363m | -3.4m/s | 0°C | 0% | 0hPa | 0V | 00:00:00 | 00:00:00 | 00:00:00 | |
| DH7VM-15 | 2026-09-01 14:36:46 | 49.73751 | 8.94973 | 90° | 58km/h | 6366m | -3.5m/s | -20.3°C | 0% | 0hPa | 0V | 00:00:00 | 00:00:00 | 00:00:00 | |
| DL1NUX | 2026-09-01 14:36:44 | 49.73748 | 8.94840 | 88° | 57km/h | 6390m | -3.5m/s | 0°C | 0% | 0hPa | 0V | 00:00:00 | 00:00:00 | 00:00:00 | |
| DB0UT-7 | 2026-09-01 14:36:43 | 49.73750 | 8.94928 | 89° | 55km/h | 6377m | -3.3m/s | 0°C | 0% | 0hPa | 0V | 00:00:00 | 00:00:00 | 00:00:00 | |
| SO1NDE-10 | 2026-09-01 14:36:41 | 49.73749 | 8.94884 | 88° | 55km/h | 6383m | -3.5m/s | 0°C | 0% | 0hPa | 0V | 00:00:00 | 00:00:00 | 00:00:00 | |
| DM0DOS-11 | 2026-09-01 14:36:40 | 49.73746 | 8.94752 | 87° | 57km/h | 6404m | -3.5m/s | 0°C | 0% | 0hPa | 0V | 00:00:00 | 00:00:00 | 00:00:00 | |
| DK7TD | 2026-09-01 14:36:40 | 49.73748 | 8.94840 | 89° | 57km/h | 6386m | -3.4m/s | -20.4°C | 0% | 0hPa | 4.5V | 00:00:00 | 00:00:00 | 00:00:00 | |
| DM7RM-13 | 2026-09-01 14:36:38 | 49.73748 | 8.94818 | 89° | 57km/h | 6390m | -3.5m/s | 0°C | 0% | 0hPa | 4.5V | 00:00:00 | 00:00:00 | 00:00:00 | |
| BIOWL1-15 | 2026-09-01 14:36:37 | 49.73746 | 8.94730 | 87° | 55km/h | 6404m | -3.5m/s | -20.5°C | 0% | 0hPa | 4.5V | 00:00:00 | 00:00:00 | 00:00:00 | |
| DB0NH | 2026-09-01 14:36:35 | 49.73746 | 8.94751 | 88° | 53km/h | 6400m | -3.4m/s | 0°C | 0% | 0hPa | 0V | 00:00:00 | 00:00:00 | 00:00:00 | |
| DL1NUX | 2026-09-01 14:36:34 | 49.73743 | 8.94622 | 86° | 55km/h | 6425m | -3.6m/s | 0°C | 0% | 0hPa | 0V | 00:00:00 | 00:00:00 | 00:00:00 | |
| BEGRI65-1 | 2026-09-01 14:36:33 | 49.73745 | 8.94708 | 88° | 57km/h | 6408m | -3.6m/s | -20.6°C | 0% | 0hPa | 0V | 00:00:00 | 00:00:00 | 00:00:00 | |
| DF2AP-13 | 2026-09-01 14:36:31 | 49.73744 | 8.94665 | 89° | 53km/h | 6418m | -3.5m/s | 0°C | 0% | 0hPa | 0V | 00:00:00 | 00:00:00 | 00:00:00 | |
| DM0DOS-11 | 2026-09-01 14:36:30 | 49.73740 | 8.94534 | 85° | 57km/h | 6440m | -3.6m/s | 0°C | 0% | 0hPa | 0V | 00:00:00 | 00:00:00 | 00:00:00 | |
| BIOWL1-15 | 2026-09-01 14:36:27 | 49.73739 | 8.94512 | 86° | 57km/h | 6440m | -3.6m/s | -20.8°C | 0% | 0hPa | 4.5V | 00:00:00 | 00:00:00 | 00:00:00 | |
| CB1BUN | 2026-09-01 14:36:25 | 49.73740 | 8.94534 | 87° | 57km/h | 6437m | -3.8m/s | -20.7°C | 0% | 0hPa | 0V | 00:00:00 | 00:00:00 | 00:00:00 | |
| DL1NUX | 2026-09-01 14:36:24 | 49.73736 | 8.94405 | 89° | 55km/h | 6463m | -3.9m/s | 0°C | 0% | 0hPa | 0V | 00:00:00 | 00:00:00 | 00:00:00 | |
| DK7TD | 2026-09-01 14:36:23 | 49.73737 | 8.94469 | 87° | 55km/h | 6448m | -3.7m/s | -20.9°C | 0% | 0hPa | 4.5V | 00:00:00 | 00:00:00 | 00:00:00 | |
| DM0DOS-11 | 2026-09-01 14:36:20 | 49.73734 | 8.94320 | 87° | 53km/h | 6483m | -4.7m/s | 0°C | 0% | 0hPa | 0V | 00:00:00 | 00:00:00 | 00:00:00 | |
| DM7RM-13 | 2026-09-01 14:36:18 | 49.73736 | 8.94384 | 91° | 55km/h | 6463m | -3.9m/s | 0°C | 0% | 0hPa | 0V | 00:00:00 | 00:00:00 | 00:00:00 | |
| NBG1-10 | 2026-09-01 14:36:17 | 49.73735 | 8.94362 | 89° | 51km/h | 6471m | -3.8m/s | 0°C | 0% | 0hPa | 0V | 00:00:00 | 00:00:00 | 00:00:00 | |
| DL1NUX | 2026-09-01 14:36:14 | 49.73731 | 8.94194 | 86° | 55km/h | 6505m | -4.2m/s | 0°C | 0% | 0hPa | 0V | 00:00:00 | 00:00:00 | 00:00:00 | |
| BIOWL1-15 | 2026-09-01 14:36:14 | 49.73733 | 8.94279 | 87° | 53km/h | 6483m | -4.7m/s | -21°C | 0% | 0hPa | 4.4V | 00:00:00 | 00:00:00 | 00:00:00 | |
| DB0UT-7 | 2026-09-01 14:36:13 | 49.73733 | 8.94279 | 88° | 51km/h | 6488m | -4.6m/s | 0°C | 0% | 0hPa | 0V | 00:00:00 | 00:00:00 | 00:00:00 | |
| BEGRI65-1 | 2026-09-01 14:36:12 | 49.73733 | 8.94258 | 90° | 55km/h | 6488m | -4.7m/s | -21.0°C | 0% | 0hPa | 0V | 00:00:00 | 00:00:00 | 00:00:00 | |
| SO1NDE-10 | 2026-09-01 14:36:11 | 49.73732 | 8.94237 | 89° | 51km/h | 6496m | -4.2m/s | 0°C | 0% | 0hPa | 0V | 00:00:00 | 00:00:00 | 00:00:00 | |
| DM0DOS-11 | 2026-09-01 14:36:09 | 49.73728 | 8.94094 | 85° | 49km/h | 6525m | -3.9m/s | 0°C | 0% | 0hPa | 0V | 00:00:00 | 00:00:00 | 00:00:00 | |
| DO3MHA-11 | 2026-09-01 14:36:07 | 49.73730 | 8.94153 | 88° | 51km/h | 6513m | -3.9m/s | 0°C | 0% | 0hPa | 0V | 00:00:00 | 00:00:00 | 00:00:00 | |
| CB1BUN | 2026-09-01 14:36:05 | 49.73729 | 8.94114 | 88° | 49km/h | 6518m | -4.1m/s | -20.4°C | 0% | 0hPa | 0V | 00:00:00 | 00:00:00 | 00:00:00 | |
| DL1NUX | 2026-09-01 14:36:04 | 49.73722 | 8.93997 | 88° | 51km/h | 6546m | -4.2m/s | 0°C | 0% | 0hPa | 0V | 00:00:00 | 00:00:00 | 00:00:00 | |
| DK7TD | 2026-09-01 14:36:03 | 49.73725 | 8.94056 | 84° | 49km/h | 6529m | -4m/s | -20.2°C | 0% | 0hPa | 4.4V | 00:00:00 | 00:00:00 | 00:00:00 | |
| DF2AP-13 | 2026-09-01 14:36:01 | 49.73724 | 8.94037 | 86° | 49km/h | 6537m | -4.0m/s | 0°C | 0% | 0hPa | 0V | 00:00:00 | 00:00:00 | 00:00:00 | |
| DB0NH | 2026-09-01 14:36:00 | 49.73723 | 8.94017 | 86° | 49km/h | 6542m | -4.1m/s | 0°C | 0% | 0hPa | 0V | 00:00:00 | 00:00:00 | 00:00:00 | |
| DM0DOS-11 | 2026-09-01 14:35:59 | 49.73723 | 8.93902 | 86° | 47km/h | 6568m | -4.2m/s | 0°C | 0% | 0hPa | 0V | 00:00:00 | 00:00:00 | 00:00:00 | |
| DO3MHA-11 | 2026-09-01 14:35:57 | 49.73723 | 8.93957 | 93° | 49km/h | 6554m | -4.6m/s | 0°C | 0% | 0hPa | 0V | 00:00:00 | 00:00:00 | 00:00:00 | |
| DL1NUX | 2026-09-01 14:35:54 | 49.73722 | 8.93804 | 91° | 51km/h | 6592m | -3.9m/s | 0°C | 0% | 0hPa | 0V | 00:00:00 | 00:00:00 | 00:00:00 | |
| BIOWL1-15 | 2026-09-01 14:35:54 | 49.73721 | 8.93843 | 90° | 51km/h | 6578m | -5.9m/s | -19.6°C | 0% | 0hPa | 4.4V | 00:00:00 | 00:00:00 | 00:00:00 | |
| DF1GD-15 | 2026-09-01 14:35:53 | 49.73722 | 8.93882 | 88° | 49km/h | 6568m | -4.2m/s | -19.6°C | 0% | 0hPa | 0V | 00:00:00 | 00:00:00 | 00:00:00 | |
| BIOWL7-15 | 2026-09-01 14:35:52 | 49.73722 | 8.93843 | 90° | 51km/h | 6578m | -5.9m/s | -19.6°C | 0% | 0hPa | 0V | 00:00:00 | 00:00:00 | 00:00:00 | |
| BEGRI65-1 | 2026-09-01 14:35:51 | 49.73722 | 8.93843 | 90° | 51km/h | 6578m | -5.9m/s | -19.6°C | 0% | 0hPa | 0V | 00:00:00 | 00:00:00 | 00:00:00 | |
| DM0DOS-11 | 2026-09-01 14:35:49 | 49.73725 | 8.93707 | 92° | 51km/h | 6615m | -4.3m/s | 0°C | 0% | 0hPa | 0V | 00:00:00 | 00:00:00 | 00:00:00 | |
| DO3MHA-11 | 2026-09-01 14:35:47 | 49.73723 | 8.93765 | 94° | 49km/h | 6601m | -4.5m/s | 0°C | 0% | 0hPa | 4.4V | 00:00:00 | 00:00:00 | 00:00:00 | |
| CB1BUN | 2026-09-01 14:35:45 | 49.73725 | 8.93707 | 93° | 51km/h | 6610m | -4.4m/s | -19.9°C | 0% | 0hPa | 4.4V | 00:00:00 | 00:00:00 | 00:00:00 | |
| NBG1-10 | 2026-09-01 14:35:44 | 49.73725 | 8.93707 | 93° | 51km/h | 6615m | -4.3m/s | 0°C | 0% | 0hPa | 4.4V | 00:00:00 | 00:00:00 | 00:00:00 | |
| DB0UT-7 | 2026-09-01 14:35:43 | 49.73726 | 8.93687 | 93° | 51km/h | 6619m | -4.3m/s | 0°C | 0% | 0hPa | 4.4V | 00:00:00 | 00:00:00 | 00:00:00 | |
| DN1GJH-1 | 2026-09-01 14:35:42 | 49.73726 | 8.93668 | 93° | 51km/h | 6619m | -4.4m/s | -19.9°C | 0% | 0hPa | 4.4V | 00:00:00 | 00:00:00 | 00:00:00 | |
| BIOWL1-15 | 2026-09-01 14:35:41 | 49.73727 | 8.93628 | 93° | 51km/h | 6629m | -5.2m/s | -20°C | 0% | 0hPa | 4.4V | 00:00:00 | 00:00:00 | 00:00:00 | |
| DM0DOS-11 | 2026-09-01 14:35:39 | 49.73733 | 8.93510 | 94° | 49km/h | 6667m | -5m/s | 0°C | 0% | 0hPa | 0V | 00:00:00 | 00:00:00 | 00:00:00 | |
| DO3MHA-11 | 2026-09-01 14:35:37 | 49.73730 | 8.93569 | 95° | 51km/h | 6651m | -5.1m/s | 0°C | 0% | 0hPa | 4.4V | 00:00:00 | 00:00:00 | 00:00:00 | |
| DK7TD | 2026-09-01 14:35:33 | 49.73735 | 8.93471 | 94° | 51km/h | 6672m | -4.9m/s | -20.4°C | 0% | 0hPa | 4.4V | 00:00:00 | 00:00:00 | 00:00:00 | |
| BIOWL1-15 | 2026-09-01 14:35:32 | 49.73737 | 8.93432 | 95° | 51km/h | 6682m | -4.9m/s | -20.4°C | 0% | 0hPa | 4.4V | 00:00:00 | 00:00:00 | 00:00:00 | |
| DF2AP-13 | 2026-09-01 14:35:31 | 49.73736 | 8.93451 | 95° | 53km/h | 6682m | -4.9m/s | 0°C | 0% | 0hPa | 0V | 00:00:00 | 00:00:00 | 00:00:00 | |
| DB0NH | 2026-09-01 14:35:30 | 49.73737 | 8.93432 | 95° | 53km/h | 6687m | -5.3m/s | 0°C | 0% | 0hPa | 0V | 00:00:00 | 00:00:00 | 00:00:00 | |
| DM0DOS-11 | 2026-09-01 14:35:29 | 49.73743 | 8.93314 | 94° | 51km/h | 6723m | -5.1m/s | 0°C | 0% | 0hPa | 0V | 00:00:00 | 00:00:00 | 00:00:00 | |
| BEGRI65-1 | 2026-09-01 14:35:28 | 49.73741 | 8.93392 | 95° | 49km/h | 6692m | -5.0m/s | -20.6°C | 0% | 0hPa | 0V | 00:00:00 | 00:00:00 | 00:00:00 | |
| DO3MHA-11 | 2026-09-01 14:35:27 | 49.73740 | 8.93372 | 95° | 51km/h | 6702m | -5.1m/s | 0°C | 0% | 0hPa | 0V | 00:00:00 | 00:00:00 | 00:00:00 | |
| DL1NUX | 2026-09-01 14:35:24 | 49.73750 | 8.93211 | 98° | 53km/h | 6743m | -4.8m/s | 0°C | 0% | 0hPa | 0V | 00:00:00 | 00:00:00 | 00:00:00 | |
| DN1GJH-1 | 2026-09-01 14:35:22 | 49.73745 | 8.93252 | 97° | 53km/h | 6728m | -4.7m/s | -20.8°C | 0% | 0hPa | 4.4V | 00:00:00 | 00:00:00 | 00:00:00 | |
| BIOWL1-15 | 2026-09-01 14:35:21 | 49.73750 | 8.93210 | 98° | 53km/h | 6738m | -5.3m/s | -20.9°C | 0% | 0hPa | 4.4V | 00:00:00 | 00:00:00 | 00:00:00 | |
| DM0DOS-11 | 2026-09-01 14:35:19 | 49.73758 | 8.93109 | 95° | 55km/h | 6768m | -4.9m/s | 0°C | 0% | 0hPa | 0V | 00:00:00 | 00:00:00 | 00:00:00 | |
| DO3MHA-11 | 2026-09-01 14:35:17 | 49.73753 | 8.93170 | 98° | 53km/h | 6753m | -4.9m/s | 0°C | 0% | 0hPa | 0V | 00:00:00 | 00:00:00 | 00:00:00 | |
| DM7RM-13 | 2026-09-01 14:35:16 | 49.73755 | 8.93150 | 98° | 53km/h | 6753m | -4.9m/s | 0°C | 0% | 0hPa | 0V | 00:00:00 | 00:00:00 | 00:00:00 | |
| DH7VM-15 | 2026-09-01 14:35:15 | 49.73757 | 8.93130 | 97° | 53km/h | 6758m | -4.8m/s | -21.0°C | 0% | 0hPa | 0V | 00:00:00 | 00:00:00 | 00:00:00 | |
| DL1NUX | 2026-09-01 14:35:14 | 49.73768 | 8.93005 | 98° | 51km/h | 6793m | -5.1m/s | 0°C | 0% | 0hPa | 0V | 00:00:00 | 00:00:00 | 00:00:00 | |
| DK7TD | 2026-09-01 14:35:14 | 49.73760 | 8.93088 | 97° | 55km/h | 6768m | -4.9m/s | -21.6°C | 0% | 0hPa | 4.4V | 00:00:00 | 00:00:00 | 00:00:00 | |
| DB0UT-7 | 2026-09-01 14:35:13 | 49.73760 | 8.93088 | 98° | 55km/h | 6773m | -4.7m/s | 0°C | 0% | 0hPa | 4.4V | 00:00:00 | 00:00:00 | 00:00:00 | |
| DF1GD-15 | 2026-09-01 14:35:12 | 49.73762 | 8.93067 | 99° | 55km/h | 6773m | -4.8m/s | -21.1°C | 0% | 0hPa | 4.4V | 00:00:00 | 00:00:00 | 00:00:00 | |
| BIOWL1-15 | 2026-09-01 14:35:11 | 49.73770 | 8.92985 | 99° | 51km/h | 6793m | -5.1m/s | -21.3°C | 0% | 0hPa | 4.4V | 00:00:00 | 00:00:00 | 00:00:00 | |
| DM0DOS-11 | 2026-09-01 14:35:09 | 49.73777 | 8.92901 | 98° | 57km/h | 6819m | -5m/s | 0°C | 0% | 0hPa | 0V | 00:00:00 | 00:00:00 | 00:00:00 | |
| DO3MHA-11 | 2026-09-01 14:35:07 | 49.73772 | 8.92965 | 98° | 55km/h | 6803m | -4.9m/s | 0°C | 0% | 0hPa | 0V | 00:00:00 | 00:00:00 | 00:00:00 | |
| DL1NUX | 2026-09-01 14:35:04 | 49.73789 | 8.92794 | 99° | 55km/h | 6845m | -4.9m/s | 0°C | 0% | 0hPa | 0V | 00:00:00 | 00:00:00 | 00:00:00 | |
| CB1BUN | 2026-09-01 14:35:03 | 49.73780 | 8.92879 | 100° | 57km/h | 6819m | -5.0m/s | -21.5°C | 0% | 0hPa | 0V | 00:00:00 | 00:00:00 | 00:00:00 | |
| DF2AP-13 | 2026-09-01 14:35:01 | 49.73784 | 8.92836 | 101° | 58km/h | 6835m | -5.0m/s | 0°C | 0% | 0hPa | 0V | 00:00:00 | 00:00:00 | 00:00:00 | |
| DB0NH | 2026-09-01 14:35:00 | 49.73787 | 8.92815 | 101° | 57km/h | 6840m | -4.9m/s | 0°C | 0% | 0hPa | 0V | 00:00:00 | 00:00:00 | 00:00:00 | |
| DM0DOS-11 | 2026-09-01 14:34:59 | 49.73800 | 8.92684 | 100° | 58km/h | 6870m | -4.8m/s | 0°C | 0% | 0hPa | 0V | 00:00:00 | 00:00:00 | 00:00:00 | |
| DK7TD | 2026-09-01 14:34:58 | 49.73793 | 8.92752 | 98° | 55km/h | 6850m | -5.1m/s | -21.7°C | 0% | 0hPa | 4.4V | 00:00:00 | 00:00:00 | 00:00:00 | |
| DO3MHA-11 | 2026-09-01 14:34:57 | 49.73793 | 8.92751 | 98° | 57km/h | 6855m | -4.9m/s | 0°C | 0% | 0hPa | 0V | 00:00:00 | 00:00:00 | 00:00:00 | |
| DM7RM-13 | 2026-09-01 14:34:56 | 49.73796 | 8.92730 | 99° | 57km/h | 6855m | -4.9m/s | 0°C | 0% | 0hPa | 0V | 00:00:00 | 00:00:00 | 00:00:00 | |
| DL1NUX | 2026-09-01 14:34:54 | 49.73813 | 8.92577 | 99° | 55km/h | 6896m | -5m/s | 0°C | 0% | 0hPa | 0V | 00:00:00 | 00:00:00 | 00:00:00 | |
| BEGRI65-1 | 2026-09-01 14:34:52 | 49.73813 | 8.92640 | 102° | 55km/h | 6875m | -4.8m/s | -22.1°C | 0% | 0hPa | 0V | 00:00:00 | 00:00:00 | 00:00:00 | |
| DM0DOS-11 | 2026-09-01 14:34:49 | 49.73827 | 8.92466 | 104° | 60km/h | 6922m | -5.3m/s | 0°C | 0% | 0hPa | 0V | 00:00:00 | 00:00:00 | 00:00:00 | |
| BIOWL1-15 | 2026-09-01 14:34:48 | 49.73818 | 8.92534 | 99° | 58km/h | 6901m | -4.8m/s | -22.2°C | 0% | 0hPa | 4.4V | 00:00:00 | 00:00:00 | 00:00:00 | |
| DO3MHA-11 | 2026-09-01 14:34:47 | 49.73818 | 8.92534 | 100° | 57km/h | 6906m | -5.0m/s | 0°C | 0% | 0hPa | 0V | 00:00:00 | 00:00:00 | 00:00:00 | |
| DL1NUX | 2026-09-01 14:34:44 | 49.73843 | 8.92357 | 105° | 55km/h | 6961m | -4.3m/s | 0°C | 0% | 0hPa | 0V | 00:00:00 | 00:00:00 | 00:00:00 | |
| DB0UT-7 | 2026-09-01 14:34:43 | 49.73833 | 8.92443 | 105° | 62km/h | 6922m | -5.2m/s | 0°C | 0% | 0hPa | 0V | 00:00:00 | 00:00:00 | 00:00:00 | |
| CB1BUN | 2026-09-01 14:34:42 | 49.73834 | 8.92421 | 105° | 57km/h | 6927m | -4.4m/s | -22.3°C | 0% | 0hPa | 0V | 00:00:00 | 00:00:00 | 00:00:00 | |
| SO1NDE-10 | 2026-09-01 14:34:41 | 49.73837 | 8.92402 | 101° | 62km/h | 6936m | -5.2m/s | 0°C | 0% | 0hPa | 0V | 00:00:00 | 00:00:00 | 00:00:00 | |
| DM0DOS-11 | 2026-09-01 14:34:39 | 49.73860 | 8.92241 | 108° | 62km/h | 6971m | -4.8m/s | 0°C | 0% | 0hPa | 0V | 00:00:00 | 00:00:00 | 00:00:00 | |
| DK7TD | 2026-09-01 14:34:39 | 49.73845 | 8.92337 | 99° | 57km/h | 6946m | -4.4m/s | -22.5°C | 0% | 0hPa | 4.4V | 00:00:00 | 00:00:00 | 00:00:00 | |
| NBG1-10 | 2026-09-01 14:34:38 | 49.73845 | 8.92337 | 99° | 62km/h | 6951m | -5.0m/s | 0°C | 0% | 0hPa | 4.4V | 00:00:00 | 00:00:00 | 00:00:00 | |
| BIOWL1-15 | 2026-09-01 14:34:37 | 49.73851 | 8.92290 | 103° | 66km/h | 6956m | -4.8m/s | -22.6°C | 0% | 0hPa | 4.4V | 00:00:00 | 00:00:00 | 00:00:00 | |
| DO3MHA-11 | 2026-09-01 14:34:37 | 49.73847 | 8.92315 | 104° | 60km/h | 6956m | -4.7m/s | 0°C | 0% | 0hPa | 0V | 00:00:00 | 00:00:00 | 00:00:00 | |
| DM7RM-13 | 2026-09-01 14:34:35 | 49.73855 | 8.92265 | 107° | 66km/h | 6961m | -4.3m/s | 0°C | 0% | 0hPa | 0V | 00:00:00 | 00:00:00 | 00:00:00 | |
| DL1NUX | 2026-09-01 14:34:32 | 49.73877 | 8.92084 | 96° | 69km/h | 7009m | -5.5m/s | 0°C | 0% | 0hPa | 0V | 00:00:00 | 00:00:00 | 00:00:00 | |
| DF2AP-13 | 2026-09-01 14:34:31 | 49.73872 | 8.92176 | 102° | 64km/h | 6988m | -5.1m/s | 0°C | 0% | 0hPa | 4.4V | 00:00:00 | 00:00:00 | 00:00:00 | |
| DB0NH | 2026-09-01 14:34:30 | 49.73874 | 8.92157 | 93° | 64km/h | 6993m | -5.1m/s | 0°C | 0% | 0hPa | 4.4V | 00:00:00 | 00:00:00 | 00:00:00 | |
| DO3MHA-11 | 2026-09-01 14:34:27 | 49.73877 | 8.92084 | 97° | 62km/h | 7009m | -5.5m/s | 0°C | 0% | 0hPa | 4.4V | 00:00:00 | 00:00:00 | 00:00:00 | |
| BIOWL1-15 | 2026-09-01 14:34:25 | 49.73884 | 8.92030 | 106° | 71km/h | 7015m | -5.8m/s | -23.1°C | 0% | 0hPa | 4.4V | 00:00:00 | 00:00:00 | 00:00:00 | |
| DK7TD | 2026-09-01 14:34:23 | 49.73900 | 8.91958 | 109° | 57km/h | 7032m | -5.5m/s | -24°C | 0% | 0hPa | 4.4V | 00:00:00 | 00:00:00 | 00:00:00 | |
| DL1NUX | 2026-09-01 14:34:22 | 49.73911 | 8.91847 | 97° | 68km/h | 7061m | -6m/s | 0°C | 0% | 0hPa | 0V | 00:00:00 | 00:00:00 | 00:00:00 | |
| DM0DOS-11 | 2026-09-01 14:34:19 | 49.73922 | 8.91770 | 104° | 66km/h | 7084m | -5.2m/s | 0°C | 0% | 0hPa | 0V | 00:00:00 | 00:00:00 | 00:00:00 | |
| BIOWL1-15 | 2026-09-01 14:34:17 | 49.73922 | 8.91770 | 105° | 66km/h | 7079m | -6.1m/s | -23.6°C | 0% | 0hPa | 4.4V | 00:00:00 | 00:00:00 | 00:00:00 | |
| DO3MHA-11 | 2026-09-01 14:34:17 | 49.73912 | 8.91847 | 101° | 64km/h | 7067m | -5.0m/s | 0°C | 0% | 0hPa | 0V | 00:00:00 | 00:00:00 | 00:00:00 | |
| DM7RM-13 | 2026-09-01 14:34:14 | 49.73922 | 8.91770 | 106° | 66km/h | 7079m | -6.1m/s | 0°C | 0% | 0hPa | 0V | 00:00:00 | 00:00:00 | 00:00:00 | |
| DB0UT-7 | 2026-09-01 14:34:13 | 49.73926 | 8.91746 | 103° | 66km/h | 7090m | -4.0m/s | 0°C | 0% | 0hPa | 0V | 00:00:00 | 00:00:00 | 00:00:00 | |
| DL1NUX | 2026-09-01 14:34:12 | 49.73946 | 8.91600 | 104° | 68km/h | 7119m | -4.4m/s | 0°C | 0% | 0hPa | 0V | 00:00:00 | 00:00:00 | 00:00:00 | |
| SO1NDE-10 | 2026-09-01 14:34:11 | 49.73933 | 8.91699 | 100° | 66km/h | 7098m | -4.3m/s | 0°C | 0% | 0hPa | 0V | 00:00:00 | 00:00:00 | 00:00:00 | |
| DM0DOS-11 | 2026-09-01 14:34:09 | 49.73960 | 8.91524 | 102° | 69km/h | 7133m | -5.2m/s | 0°C | 0% | 0hPa | 0V | 00:00:00 | 00:00:00 | 00:00:00 | |
| DO3MHA-11 | 2026-09-01 14:34:07 | 49.73946 | 8.91600 | 105° | 68km/h | 7119m | -4.4m/s | 0°C | 0% | 0hPa | 4.4V | 00:00:00 | 00:00:00 | 00:00:00 | |
| BIOWL1-15 | 2026-09-01 14:34:05 | 49.73964 | 8.91497 | 102° | 71km/h | 7133m | -5.2m/s | -24°C | 0% | 0hPa | 4.4V | 00:00:00 | 00:00:00 | 00:00:00 | |
| NBG1-10 | 2026-09-01 14:34:05 | 49.73955 | 8.91549 | 107° | 66km/h | 7128m | -4.7m/s | 0°C | 0% | 0hPa | 0V | 00:00:00 | 00:00:00 | 00:00:00 | |
| DL1NUX | 2026-09-01 14:34:02 | 49.73986 | 8.91344 | 103° | 60km/h | 7166m | -4.6m/s | 0°C | 0% | 0hPa | 0V | 00:00:00 | 00:00:00 | 00:00:00 | |
| DL9SK-14 | 2026-09-01 14:34:02 | 49.73971 | 8.91444 | 101° | 68km/h | 7144m | -5.2m/s | -24.1°C | -1.0% | -1.0hPa | 4.4V | 00:00:00 | 00:00:00 | 00:00:00 | |
| DK7TD | 2026-09-01 14:34:01 | 49.73975 | 8.91417 | 103° | 68km/h | 7148m | -4.8m/s | -24.1°C | 0% | 0hPa | 4.4V | 00:00:00 | 00:00:00 | 00:00:00 | |
| DF2AP-13 | 2026-09-01 14:34:01 | 49.73971 | 8.91443 | 102° | 68km/h | 7148m | -4.8m/s | 0°C | 0% | 0hPa | 0V | 00:00:00 | 00:00:00 | 00:00:00 | |
| DB0NH | 2026-09-01 14:34:00 | 49.73975 | 8.91416 | 104° | 68km/h | 7153m | -4.2m/s | 0°C | 0% | 0hPa | 0V | 00:00:00 | 00:00:00 | 00:00:00 | |
| DM0DOS-11 | 2026-09-01 14:33:59 | 49.73995 | 8.91274 | 101° | 64km/h | 7180m | -4.6m/s | 0°C | 0% | 0hPa | 0V | 00:00:00 | 00:00:00 | 00:00:00 | |
| DO3MHA-11 | 2026-09-01 14:33:57 | 49.73986 | 8.91343 | 104° | 66km/h | 7166m | -4.5m/s | 0°C | 0% | 0hPa | 4.4V | 00:00:00 | 00:00:00 | 00:00:00 | |
| BIOWL1-15 | 2026-09-01 14:33:55 | 49.73998 | 8.91248 | 101° | 68km/h | 7180m | -4.6m/s | -24.3°C | 0% | 0hPa | 4.4V | 00:00:00 | 00:00:00 | 00:00:00 | |
| DM7RM-13 | 2026-09-01 14:33:53 | 49.73998 | 8.91247 | 102° | 68km/h | 7180m | -4.6m/s | 0°C | 0% | 0hPa | 0V | 00:00:00 | 00:00:00 | 00:00:00 | |
| DL1NUX | 2026-09-01 14:33:52 | 49.74021 | 8.91092 | 100° | 58km/h | 7214m | -4.9m/s | 0°C | 0% | 0hPa | 0V | 00:00:00 | 00:00:00 | 00:00:00 | |
| DN1GJH-1 | 2026-09-01 14:33:50 | 49.74014 | 8.91140 | 104° | 68km/h | 7200m | -4.3m/s | -24.4°C | 0% | 0hPa | 0V | 00:00:00 | 00:00:00 | 00:00:00 | |
| DM0DOS-11 | 2026-09-01 14:33:49 | 49.74030 | 8.91023 | 99° | 66km/h | 7228m | -4.2m/s | 0°C | 0% | 0hPa | 0V | 00:00:00 | 00:00:00 | 00:00:00 | |
| DO3MHA-11 | 2026-09-01 14:33:47 | 49.74021 | 8.91092 | 101° | 66km/h | 7214m | -4.9m/s | 0°C | 0% | 0hPa | 4.4V | 00:00:00 | 00:00:00 | 00:00:00 | |
| BIOWL1-15 | 2026-09-01 14:33:44 | 49.74037 | 8.90969 | 104° | 75km/h | 7232m | -4.2m/s | -24.8°C | 0% | 0hPa | 4.4V | 00:00:00 | 00:00:00 | 00:00:00 | |
| DK7TD | 2026-09-01 14:33:44 | 49.74033 | 8.90997 | 101° | 69km/h | 7228m | -4.2m/s | -24.8°C | 0% | 0hPa | 4.4V | 00:00:00 | 00:00:00 | 00:00:00 | |
| DB0UT-7 | 2026-09-01 14:33:43 | 49.74033 | 8.90997 | 104° | 68km/h | 7233m | -4.1m/s | 0°C | 0% | 0hPa | 0V | 00:00:00 | 00:00:00 | 00:00:00 | |
| DL1NUX | 2026-09-01 14:33:42 | 49.74062 | 8.90842 | 102° | 58km/h | 7262m | -4.8m/s | 0°C | 0% | 0hPa | 0V | 00:00:00 | 00:00:00 | 00:00:00 | |
| SO1NDE-10 | 2026-09-01 14:33:41 | 49.74042 | 8.90940 | 109° | 68km/h | 7242m | -4.6m/s | 0°C | 0% | 0hPa | 0V | 00:00:00 | 00:00:00 | 00:00:00 | |
| DM0DOS-11 | 2026-09-01 14:33:39 | 49.74068 | 8.90769 | 99° | 75km/h | 7272m | -5.1m/s | 0°C | 0% | 0hPa | 0V | 00:00:00 | 00:00:00 | 00:00:00 | |
| DO3MHA-11 | 2026-09-01 14:33:37 | 49.74062 | 8.90842 | 103° | 68km/h | 7262m | -4.8m/s | 0°C | 0% | 0hPa | 0V | 00:00:00 | 00:00:00 | 00:00:00 | |
| DO3DL | 2026-09-01 14:33:35 | 49.74069 | 8.90769 | 101° | 69km/h | 7272m | -5.1m/s | -25.2°C | 0% | 0hPa | 0V | 00:00:00 | 00:00:00 | 00:00:00 | |
| DL1NUX | 2026-09-01 14:33:32 | 49.74104 | 8.90587 | 102° | 55km/h | 7317m | -5.3m/s | 0°C | 0% | 0hPa | 0V | 00:00:00 | 00:00:00 | 00:00:00 | |
| BIOWL1-15 | 2026-09-01 14:33:32 | 49.74083 | 8.90683 | 107° | 77km/h | 7288m | -5.1m/s | -25.3°C | 0% | 0hPa | 4.4V | 00:00:00 | 00:00:00 | 00:00:00 | |
| NBG1-10 | 2026-09-01 14:33:32 | 49.74078 | 8.90705 | 110° | 69km/h | 7288m | -5.1m/s | 0°C | 0% | 0hPa | 4.4V | 00:00:00 | 00:00:00 | 00:00:00 | |
| DF2AP-13 | 2026-09-01 14:33:31 | 49.74083 | 8.90683 | 108° | 68km/h | 7306m | -5.5m/s | 0°C | 0% | 0hPa | 4.4V | 00:00:00 | 00:00:00 | 00:00:00 | |
| DK7TD | 2026-09-01 14:33:30 | 49.74095 | 8.90631 | 111° | 64km/h | 7300m | -5.6m/s | -25.4°C | 0% | 0hPa | 4.4V | 00:00:00 | 00:00:00 | 00:00:00 | |
| DB0NH | 2026-09-01 14:33:30 | 49.74089 | 8.90653 | 111° | 69km/h | 7300m | -5.5m/s | 0°C | 0% | 0hPa | 0V | 00:00:00 | 00:00:00 | 00:00:00 | |
| DM0DOS-11 | 2026-09-01 14:33:29 | 49.74110 | 8.90514 | 95° | 71km/h | 7334m | -5.3m/s | 0°C | 0% | 0hPa | 0V | 00:00:00 | 00:00:00 | 00:00:00 | |
| DO3MHA-11 | 2026-09-01 14:33:27 | 49.74104 | 8.90587 | 103° | 66km/h | 7317m | -5.3m/s | 0°C | 0% | 0hPa | 0V | 00:00:00 | 00:00:00 | 00:00:00 | |
| DL1NUX | 2026-09-01 14:33:21 | 49.74142 | 8.90305 | 100° | 69km/h | 7378m | -5.6m/s | 0°C | 0% | 0hPa | 0V | 00:00:00 | 00:00:00 | 00:00:00 | |
| BIOWL1-15 | 2026-09-01 14:33:21 | 49.74126 | 8.90404 | 108° | 66km/h | 7350m | -5m/s | -25.8°C | 0% | 0hPa | 4.4V | 00:00:00 | 00:00:00 | 00:00:00 | |
| DM0DOS-11 | 2026-09-01 14:33:19 | 49.74149 | 8.90251 | 100° | 71km/h | 7389m | -5.4m/s | 0°C | 0% | 0hPa | 0V | 00:00:00 | 00:00:00 | 00:00:00 | |
| BEGRI65-1 | 2026-09-01 14:33:18 | 49.74135 | 8.90356 | 105° | 64km/h | 7361m | -5.6m/s | -25.9°C | 0% | 0hPa | 4.4V | 00:00:00 | 00:00:00 | 00:00:00 | |
| DO3MHA-11 | 2026-09-01 14:33:17 | 49.74139 | 8.90332 | 101° | 71km/h | 7372m | -5.7m/s | 0°C | 0% | 0hPa | 4.4V | 00:00:00 | 00:00:00 | 00:00:00 | |
| DK7TD | 2026-09-01 14:33:15 | 49.74149 | 8.90251 | 100° | 71km/h | 7383m | -5.6m/s | -26.1°C | 0% | 0hPa | 4.4V | 00:00:00 | 00:00:00 | 00:00:00 | |
| HSKMA3-T | 2026-09-01 14:33:13 | 49.74156 | 8.90197 | 103° | 71km/h | 7395m | -5.5m/s | -26.2°C | 0% | 0hPa | 4.4V | 00:00:00 | 00:00:00 | 00:00:00 | |
| DB0UT-7 | 2026-09-01 14:33:13 | 49.74152 | 8.90223 | 103° | 71km/h | 7395m | -5.5m/s | 0°C | 0% | 0hPa | 0V | 00:00:00 | 00:00:00 | 00:00:00 | |
| DL1NUX | 2026-09-01 14:33:11 | 49.74179 | 8.90032 | 100° | 73km/h | 7428m | -4.5m/s | 0°C | 0% | 0hPa | 0V | 00:00:00 | 00:00:00 | 00:00:00 | |
| BIOWL1-15 | 2026-09-01 14:33:11 | 49.74164 | 8.90142 | 103° | 71km/h | 7405m | -4.5m/s | -26.2°C | 0% | 0hPa | 4.4V | 00:00:00 | 00:00:00 | 00:00:00 | |
| DM0DOS-11 | 2026-09-01 14:33:09 | 49.74186 | 8.89977 | 100° | 73km/h | 7437m | -4.4m/s | 0°C | 0% | 0hPa | 0V | 00:00:00 | 00:00:00 | 00:00:00 | |
| DO3DL | 2026-09-01 14:33:08 | 49.74172 | 8.90088 | 103° | 71km/h | 7415m | -4.6m/s | -26.3°C | 0% | 0hPa | 4.4V | 00:00:00 | 00:00:00 | 00:00:00 | |
| DO3MHA-11 | 2026-09-01 14:33:07 | 49.74175 | 8.90060 | 101° | 71km/h | 7424m | -4.4m/s | 0°C | 0% | 0hPa | 4.4V | 00:00:00 | 00:00:00 | 00:00:00 | |
| DN1GJH-1 | 2026-09-01 14:33:06 | 49.74179 | 8.90032 | 102° | 73km/h | 7424m | -4.5m/s | -26.4°C | 0% | 0hPa | 4.4V | 00:00:00 | 00:00:00 | 00:00:00 | |
| DK7TD | 2026-09-01 14:33:05 | 49.74186 | 8.89977 | 101° | 73km/h | 7433m | -4.3m/s | -26.4°C | 0% | 0hPa | 4.4V | 00:00:00 | 00:00:00 | 00:00:00 | |
| DB0ND-19 | 2026-09-01 14:33:04 | 49.74189 | 8.89949 | 100° | 71km/h | 7437m | -4.4m/s | -26.0°C | -1.0% | -1.0hPa | 4.4V | 00:00:00 | 00:00:00 | 00:00:00 | |
| DL1ZP-14 | 2026-09-01 14:33:03 | 49.74192 | 8.89921 | 100° | 71km/h | 7442m | -4.6m/s | -26.4°C | -1.0% | -1.0hPa | 4.4V | 00:00:00 | 00:00:00 | 00:00:00 | |
| BIOWL1-15 | 2026-09-01 14:33:02 | 49.74202 | 8.89839 | 100° | 71km/h | 7455m | -4.4m/s | -26.4°C | 0% | 0hPa | 4.4V | 00:00:00 | 00:00:00 | 00:00:00 | |
| DL1NUX | 2026-09-01 14:33:01 | 49.74211 | 8.89755 | 98° | 73km/h | 7474m | -4.5m/s | 0°C | 0% | 0hPa | 0V | 00:00:00 | 00:00:00 | 00:00:00 | |
| DB0NH | 2026-09-01 14:33:00 | 49.74199 | 8.89866 | 100° | 71km/h | 7455m | -4.4m/s | 0°C | 0% | 0hPa | 0V | 00:00:00 | 00:00:00 | 00:00:00 | |
| DM0DOS-11 | 2026-09-01 14:32:59 | 49.74216 | 8.89699 | 99° | 71km/h | 7483m | -4.6m/s | 0°C | 0% | 0hPa | 0V | 00:00:00 | 00:00:00 | 00:00:00 | |
| NBG1-10 | 2026-09-01 14:32:58 | 49.74205 | 8.89811 | 99° | 71km/h | 7465m | -4.4m/s | 0°C | 0% | 0hPa | 4.4V | 00:00:00 | 00:00:00 | 00:00:00 | |
| DO3MHA-11 | 2026-09-01 14:32:57 | 49.74208 | 8.89783 | 100° | 71km/h | 7469m | -4.5m/s | 0°C | 0% | 0hPa | 4.4V | 00:00:00 | 00:00:00 | 00:00:00 | |
| DK7TD | 2026-09-01 14:32:53 | 49.74222 | 8.89644 | 100° | 71km/h | 7487m | -4.5m/s | -26.6°C | 0% | 0hPa | 4.4V | 00:00:00 | 00:00:00 | 00:00:00 | |
| DO3DL | 2026-09-01 14:32:52 | 49.74223 | 8.89644 | 101° | 71km/h | 7488m | -4.5m/s | -26.6°C | 0% | 0hPa | 0V | 00:00:00 | 00:00:00 | 00:00:00 | |
| DL1NUX | 2026-09-01 14:32:51 | 49.74238 | 8.89481 | 98° | 71km/h | 7519m | -4.7m/s | 0°C | 0% | 0hPa | 0V | 00:00:00 | 00:00:00 | 00:00:00 | |
| DM7RM-13 | 2026-09-01 14:32:50 | 49.74228 | 8.89590 | 100° | 69km/h | 7497m | -4.4m/s | 0°C | 0% | 0hPa | 0V | 00:00:00 | 00:00:00 | 00:00:00 | |
| DM0DOS-11 | 2026-09-01 14:32:49 | 49.74243 | 8.89425 | 98° | 71km/h | 7529m | -4.6m/s | 0°C | 0% | 0hPa | 0V | 00:00:00 | 00:00:00 | 00:00:00 | |
| BIOWL1-15 | 2026-09-01 14:32:48 | 49.74233 | 8.89536 | 98° | 71km/h | 7506m | -4.6m/s | -26.7°C | 0% | 0hPa | 4.4V | 00:00:00 | 00:00:00 | 00:00:00 | |
| DO3MHA-11 | 2026-09-01 14:32:47 | 49.74235 | 8.89508 | 99° | 71km/h | 7515m | -4.5m/s | 0°C | 0% | 0hPa | 4.4V | 00:00:00 | 00:00:00 | 00:00:00 | |
| DN1GJH-1 | 2026-09-01 14:32:45 | 49.74240 | 8.89453 | 100° | 71km/h | 7520m | -4.7m/s | -26.8°C | 0% | 0hPa | 4.4V | 00:00:00 | 00:00:00 | 00:00:00 | |
| HSKMA3-T | 2026-09-01 14:32:43 | 49.74249 | 8.89371 | 99° | 69km/h | 7533m | -4.5m/s | -27°C | 0% | 0hPa | 4.4V | 00:00:00 | 00:00:00 | 00:00:00 | |
| SO1NDE-10 | 2026-09-01 14:32:41 | 49.74251 | 8.89343 | 99° | 73km/h | 7543m | -4.5m/s | 0°C | 0% | 0hPa | 0V | 00:00:00 | 00:00:00 | 00:00:00 | |
| CB1BUN | 2026-09-01 14:32:40 | 49.74256 | 8.89289 | 99° | 71km/h | 7547m | -4.6m/s | -27.1°C | 0% | 0hPa | 0V | 00:00:00 | 00:00:00 | 00:00:00 | |
| DM0DOS-11 | 2026-09-01 14:32:38 | 49.74272 | 8.89123 | 98° | 73km/h | 7579m | -4.5m/s | 0°C | 0% | 0hPa | 0V | 00:00:00 | 00:00:00 | 00:00:00 | |
| BIOWL1-15 | 2026-09-01 14:32:38 | 49.74262 | 8.89234 | 99° | 71km/h | 7556m | -4.5m/s | -27.2°C | 0% | 0hPa | 4.4V | 00:00:00 | 00:00:00 | 00:00:00 | |
| DO3MHA-11 | 2026-09-01 14:32:37 | 49.74262 | 8.89234 | 99° | 71km/h | 7561m | -4.4m/s | 0°C | 0% | 0hPa | 4.4V | 00:00:00 | 00:00:00 | 00:00:00 | |
| BIOWL7-15 | 2026-09-01 14:32:34 | 49.74270 | 8.89151 | 99° | 71km/h | 7570m | -4.7m/s | -27.3°C | 0% | 0hPa | 4.4V | 00:00:00 | 00:00:00 | 00:00:00 | |
| DK7TD | 2026-09-01 14:32:32 | 49.74277 | 8.89068 | 98° | 73km/h | 7583m | -4.5m/s | -27.4°C | 0% | 0hPa | 4.4V | 00:00:00 | 00:00:00 | 00:00:00 | |
| DB0NH | 2026-09-01 14:32:30 | 49.74280 | 8.89040 | 97° | 73km/h | 7593m | -4.5m/s | 0°C | 0% | 0hPa | 0V | 00:00:00 | 00:00:00 | 00:00:00 | |
| DM0DOS-11 | 2026-09-01 14:32:28 | 49.74297 | 8.88843 | 97° | 73km/h | 7625m | -4.5m/s | 0°C | 0% | 0hPa | 0V | 00:00:00 | 00:00:00 | 00:00:00 | |
| BIOWL1-15 | 2026-09-01 14:32:28 | 49.74287 | 8.88956 | 98° | 71km/h | 7602m | -4.5m/s | -27.5°C | 0% | 0hPa | 4.4V | 00:00:00 | 00:00:00 | 00:00:00 | |
| DO3MHA-11 | 2026-09-01 14:32:27 | 49.74287 | 8.88956 | 98° | 73km/h | 7606m | -4.5m/s | 0°C | 0% | 0hPa | 0V | 00:00:00 | 00:00:00 | 00:00:00 | |
| NBG1-10 | 2026-09-01 14:32:25 | 49.74292 | 8.88900 | 98° | 73km/h | 7616m | -4.6m/s | 0°C | 0% | 0hPa | 0V | 00:00:00 | 00:00:00 | 00:00:00 | |
| DN1GJH-1 | 2026-09-01 14:32:24 | 49.74294 | 8.88872 | 99° | 73km/h | 7616m | -4.6m/s | -27.6°C | 0% | 0hPa | 0V | 00:00:00 | 00:00:00 | 00:00:00 | |
| DL1NUX | 2026-09-01 14:32:21 | 49.74314 | 8.88646 | 99° | 73km/h | 7657m | -4.6m/s | 0°C | 0% | 0hPa | 0V | 00:00:00 | 00:00:00 | 00:00:00 | |
| DK7TD | 2026-09-01 14:32:21 | 49.74303 | 8.88758 | 98° | 73km/h | 7634m | -4.6m/s | -27.8°C | 0% | 0hPa | 4.4V | 00:00:00 | 00:00:00 | 00:00:00 | |
| CB1BUN | 2026-09-01 14:32:19 | 49.74306 | 8.88730 | 99° | 71km/h | 7639m | -4.6m/s | -27.9°C | 0% | 0hPa | 0V | 00:00:00 | 00:00:00 | 00:00:00 | |
| DM0DOS-11 | 2026-09-01 14:32:17 | 49.74323 | 8.88561 | 97° | 73km/h | 7672m | -4.6m/s | 0°C | 0% | 0hPa | 0V | 00:00:00 | 00:00:00 | 00:00:00 | |
| DO3MHA-11 | 2026-09-01 14:32:17 | 49.74312 | 8.88674 | 100° | 73km/h | 7653m | -4.5m/s | 0°C | 0% | 0hPa | 4.4V | 00:00:00 | 00:00:00 | 00:00:00 | |
| BIOWL1-15 | 2026-09-01 14:32:16 | 49.74315 | 8.88646 | 99° | 73km/h | 7653m | -4.5m/s | -28°C | 0% | 0hPa | 4.4V | 00:00:00 | 00:00:00 | 00:00:00 | |
| BEGRI65-1 | 2026-09-01 14:32:16 | 49.74314 | 8.88646 | 100° | 73km/h | 7653m | -4.6m/s | -28.0°C | 0% | 0hPa | 0V | 00:00:00 | 00:00:00 | 00:00:00 | |
| DL1NUX | 2026-09-01 14:32:11 | 49.74342 | 8.88365 | 99° | 73km/h | 7706m | -5.9m/s | 0°C | 0% | 0hPa | 0V | 00:00:00 | 00:00:00 | 00:00:00 | |
| DK7TD | 2026-09-01 14:32:11 | 49.74330 | 8.88477 | 98° | 71km/h | 7681m | -5.3m/s | -28.2°C | 0% | 0hPa | 4.4V | 00:00:00 | 00:00:00 | 00:00:00 | |
| DF2AP-13 | 2026-09-01 14:32:10 | 49.74330 | 8.88477 | 100° | 75km/h | 7686m | -4.4m/s | 0°C | 0% | 0hPa | 0V | 00:00:00 | 00:00:00 | 00:00:00 | |
| DM7RM-13 | 2026-09-01 14:32:09 | 49.74332 | 8.88449 | 100° | 71km/h | 7686m | -4.5m/s | 0°C | 0% | 0hPa | 0V | 00:00:00 | 00:00:00 | 00:00:00 | |
| DM0DOS-11 | 2026-09-01 14:32:08 | 49.74350 | 8.88280 | 97° | 73km/h | 7722m | -4.9m/s | 0°C | 0% | 0hPa | 0V | 00:00:00 | 00:00:00 | 00:00:00 | |
| DO3MHA-11 | 2026-09-01 14:32:07 | 49.74339 | 8.88393 | 101° | 73km/h | 7701m | -4.4m/s | 0°C | 0% | 0hPa | 4.3V | 00:00:00 | 00:00:00 | 00:00:00 | |
| BIOWL1-15 | 2026-09-01 14:32:06 | 49.74345 | 8.88337 | 99° | 73km/h | 7706m | -5.9m/s | -28.5°C | 0% | 0hPa | 4.3V | 00:00:00 | 00:00:00 | 00:00:00 | |
| DB0ND-19 | 2026-09-01 14:32:02 | 49.74355 | 8.88223 | 97° | 73km/h | 7727m | -4.9m/s | -28.3°C | -1.0% | -1.0hPa | 4.3V | 00:00:00 | 00:00:00 | 00:00:00 | |
| DB0NH | 2026-09-01 14:32:00 | 49.74357 | 8.88194 | 98° | 75km/h | 7737m | -4.9m/s | 0°C | 0% | 0hPa | 4.3V | 00:00:00 | 00:00:00 | 00:00:00 | |
| CB1BUN | 2026-09-01 14:31:58 | 49.74362 | 8.88136 | 100° | 75km/h | 7742m | -4.8m/s | -28.7°C | 0% | 0hPa | 4.3V | 00:00:00 | 00:00:00 | 00:00:00 | |
| DK7TD | 2026-09-01 14:31:57 | 49.74365 | 8.88108 | 99° | 75km/h | 7746m | -4.9m/s | -29.1°C | 0% | 0hPa | 4.3V | 00:00:00 | 00:00:00 | 00:00:00 | |
| DO3MHA-11 | 2026-09-01 14:31:57 | 49.74365 | 8.88108 | 99° | 75km/h | 7751m | -4.8m/s | 0°C | 0% | 0hPa | 4.3V | 00:00:00 | 00:00:00 | 00:00:00 | |
| BIOWL1-15 | 2026-09-01 14:31:55 | 49.74374 | 8.88022 | 97° | 75km/h | 7761m | -5.1m/s | -28.9°C | 0% | 0hPa | 4.3V | 00:00:00 | 00:00:00 | 00:00:00 | |
| NBG1-10 | 2026-09-01 14:31:52 | 49.74377 | 8.87963 | 96° | 75km/h | 7776m | -4.8m/s | 0°C | 0% | 0hPa | 0V | 00:00:00 | 00:00:00 | 00:00:00 | |
| DL1NUX | 2026-09-01 14:31:51 | 49.74392 | 8.87789 | 99° | 73km/h | 7804m | -4.9m/s | 0°C | 0% | 0hPa | 0V | 00:00:00 | 00:00:00 | 00:00:00 | |
| DM7RM-13 | 2026-09-01 14:31:49 | 49.74386 | 8.87845 | 100° | 75km/h | 7790m | -4.5m/s | 0°C | 0% | 0hPa | 4.4V | 00:00:00 | 00:00:00 | 00:00:00 | |
| DO3MHA-11 | 2026-09-01 14:31:47 | 49.74389 | 8.87817 | 100° | 75km/h | 7800m | -4.8m/s | 0°C | 0% | 0hPa | 4.4V | 00:00:00 | 00:00:00 | 00:00:00 | |
| BIOWL1-15 | 2026-09-01 14:31:44 | 49.74397 | 8.87731 | 95° | 75km/h | 7809m | -4.5m/s | -29.2°C | 0% | 0hPa | 4.4V | 00:00:00 | 00:00:00 | 00:00:00 | |
| DL1NUX | 2026-09-01 14:31:41 | 49.74415 | 8.87498 | 98° | 73km/h | 7856m | -5.3m/s | 0°C | 0% | 0hPa | 0V | 00:00:00 | 00:00:00 | 00:00:00 | |
| SO1NDE-10 | 2026-09-01 14:31:41 | 49.74402 | 8.87641 | 95° | 75km/h | 7829m | -5.4m/s | 0°C | 0% | 0hPa | 4.4V | 00:00:00 | 00:00:00 | 00:00:00 | |
| DK7TD | 2026-09-01 14:31:40 | 49.74406 | 8.87582 | 99° | 75km/h | 7835m | -5.2m/s | -29.7°C | 0% | 0hPa | 4.4V | 00:00:00 | 00:00:00 | 00:00:00 | |
| DF2AP-13 | 2026-09-01 14:31:40 | 49.74403 | 8.87611 | 99° | 77km/h | 7835m | -5.2m/s | 0°C | 0% | 0hPa | 0V | 00:00:00 | 00:00:00 | 00:00:00 | |
| DM0DOS-11 | 2026-09-01 14:31:38 | 49.74423 | 8.87411 | 96° | 77km/h | 7873m | -5.5m/s | 0°C | 0% | 0hPa | 0V | 00:00:00 | 00:00:00 | 00:00:00 | |
| DO3MHA-11 | 2026-09-01 14:31:37 | 49.74412 | 8.87525 | 100° | 75km/h | 7850m | -5.2m/s | 0°C | 0% | 0hPa | 4.4V | 00:00:00 | 00:00:00 | 00:00:00 | |
| BIOWL1-15 | 2026-09-01 14:31:34 | 49.74423 | 8.87411 | 97° | 77km/h | 7867m | -5.7m/s | -29.7°C | 0% | 0hPa | 4.4V | 00:00:00 | 00:00:00 | 00:00:00 | |
| DL1NUX | 2026-09-01 14:31:31 | 49.74440 | 8.87206 | 98° | 75km/h | 7974m | -5.7m/s | 0°C | 0% | 0hPa | 0V | 00:00:00 | 00:00:00 | 00:00:00 | |
| DB0NH | 2026-09-01 14:31:30 | 49.74430 | 8.87322 | 97° | 77km/h | 7889m | -5.6m/s | 0°C | 0% | 0hPa | 0V | 00:00:00 | 00:00:00 | 00:00:00 | |
| DM0DOS-11 | 2026-09-01 14:31:28 | 49.74447 | 8.87120 | 94° | 75km/h | 7927m | -4.8m/s | 0°C | 0% | 0hPa | 0V | 00:00:00 | 00:00:00 | 00:00:00 | |
| DK7TD | 2026-09-01 14:31:27 | 49.74440 | 8.87206 | 99° | 75km/h | 7906m | -5.2m/s | -30°C | 0% | 0hPa | 4.4V | 00:00:00 | 00:00:00 | 00:00:00 | |
| DO3MHA-11 | 2026-09-01 14:31:27 | 49.74437 | 8.87235 | 99° | 77km/h | 7906m | -5.2m/s | 0°C | 0% | 0hPa | 4.4V | 00:00:00 | 00:00:00 | 00:00:00 | |
| DF1GD-15 | 2026-09-01 14:31:26 | 49.74440 | 8.87206 | 100° | 75km/h | 7906m | -5.2m/s | -30.0°C | 0% | 0hPa | 4.4V | 00:00:00 | 00:00:00 | 00:00:00 | |
| BIOWL1-15 | 2026-09-01 14:31:25 | 49.74448 | 8.87090 | 95° | 77km/h | 7927m | -4.8m/s | -30.2°C | 0% | 0hPa | 4.4V | 00:00:00 | 00:00:00 | 00:00:00 | |
| DN1GJH-1 | 2026-09-01 14:31:20 | 49.74453 | 8.87029 | 99° | 80km/h | 7942m | -4.9m/s | -30.3°C | 0% | 0hPa | 0V | 00:00:00 | 00:00:00 | 00:00:00 | |
| NBG1-10 | 2026-09-01 14:31:19 | 49.74456 | 8.86997 | 100° | 78km/h | 7948m | -5.2m/s | 0°C | 0% | 0hPa | 0V | 00:00:00 | 00:00:00 | 00:00:00 | |
| DM0DOS-11 | 2026-09-01 14:31:18 | 49.74469 | 8.86815 | 92° | 78km/h | 7980m | -6.2m/s | 0°C | 0% | 0hPa | 0V | 00:00:00 | 00:00:00 | 00:00:00 | |
| DO3MHA-11 | 2026-09-01 14:31:17 | 49.74462 | 8.86934 | 100° | 78km/h | 7958m | -5.4m/s | 0°C | 0% | 0hPa | 0V | 00:00:00 | 00:00:00 | 00:00:00 | |
| DL1NUX | 2026-09-01 14:31:16 | 49.74472 | 8.86753 | 96° | 80km/h | 7997m | -5.8m/s | 0°C | 0% | 0hPa | 0V | 00:00:00 | 00:00:00 | 00:00:00 | |
| DK7TD | 2026-09-01 14:31:14 | 49.74469 | 8.86815 | 92° | 78km/h | 7974m | -5.6m/s | -30.5°C | 0% | 0hPa | 4.4V | 00:00:00 | 00:00:00 | 00:00:00 | |
| BIOWL1-15 | 2026-09-01 14:31:14 | 49.74472 | 8.86753 | 96° | 80km/h | 7986m | -5.7m/s | -30.6°C | 0% | 0hPa | 4.4V | 00:00:00 | 00:00:00 | 00:00:00 | |
| SO1NDE-10 | 2026-09-01 14:31:11 | 49.74472 | 8.86753 | 97° | 77km/h | 7997m | -5.8m/s | 0°C | 0% | 0hPa | 0V | 00:00:00 | 00:00:00 | 00:00:00 | |
| DF2AP-13 | 2026-09-01 14:31:10 | 49.74475 | 8.86722 | 98° | 78km/h | 7992m | -5.2m/s | 0°C | 0% | 0hPa | 0V | 00:00:00 | 00:00:00 | 00:00:00 | |
| DM0DOS-11 | 2026-09-01 14:31:08 | 49.74488 | 8.86509 | 92° | 75km/h | 8038m | -5.6m/s | 0°C | 0% | 0hPa | 0V | 00:00:00 | 00:00:00 | 00:00:00 | |
| DO3MHA-11 | 2026-09-01 14:31:07 | 49.74483 | 8.86628 | 98° | 77km/h | 8015m | -6.1m/s | 0°C | 0% | 0hPa | 0V | 00:00:00 | 00:00:00 | 00:00:00 | |
| DL1NUX | 2026-09-01 14:31:06 | 49.74492 | 8.86450 | 98° | 77km/h | 8043m | -5.2m/s | 0°C | 0% | 0hPa | 0V | 00:00:00 | 00:00:00 | 00:00:00 | |
| DH7VM-15 | 2026-09-01 14:31:05 | 49.74487 | 8.86539 | 93° | 75km/h | 8026m | -6.0m/s | -31.0°C | 0% | 0hPa | 4.4V | 00:00:00 | 00:00:00 | 00:00:00 | |
| DK7TD | 2026-09-01 14:31:04 | 49.74488 | 8.86509 | 93° | 75km/h | 8032m | -5.6m/s | -31.1°C | 0% | 0hPa | 4.4V | 00:00:00 | 00:00:00 | 00:00:00 | |
| BIOWL1-15 | 2026-09-01 14:31:03 | 49.74495 | 8.86420 | 100° | 77km/h | 8049m | -5.6m/s | -31.2°C | 0% | 0hPa | 4.4V | 00:00:00 | 00:00:00 | 00:00:00 | |
| HEMX73-11 | 2026-09-01 14:31:01 | 49.74492 | 8.86450 | 99° | 77km/h | 8043m | -5.2m/s | -31.2°C | 0% | 0hPa | 0V | 00:00:00 | 00:00:00 | 00:00:00 | |
| DB0NH | 2026-09-01 14:31:00 | 49.74495 | 8.86420 | 100° | 77km/h | 8054m | -5.5m/s | 0°C | 0% | 0hPa | 0V | 00:00:00 | 00:00:00 | 00:00:00 | |
| DM0DOS-11 | 2026-09-01 14:30:58 | 49.74506 | 8.86210 | 95° | 73km/h | 8092m | -4.9m/s | 0°C | 0% | 0hPa | 0V | 00:00:00 | 00:00:00 | 00:00:00 | |
| CB1BUN | 2026-09-01 14:30:57 | 49.74504 | 8.86330 | 95° | 78km/h | 8065m | -5.8m/s | -31.3°C | 0% | 0hPa | 4.4V | 00:00:00 | 00:00:00 | 00:00:00 | |
| DO3MHA-11 | 2026-09-01 14:30:56 | 49.74505 | 8.86299 | 92° | 78km/h | 8077m | -5.2m/s | 0°C | 0% | 0hPa | 4.4V | 00:00:00 | 00:00:00 | 00:00:00 | |
| HSKMA3-T | 2026-09-01 14:30:55 | 49.74505 | 8.86269 | 90° | 78km/h | 8077m | -5.3m/s | -31.4°C | 0% | 0hPa | 4.4V | 00:00:00 | 00:00:00 | 00:00:00 | |
| DO3DL | 2026-09-01 14:30:54 | 49.74505 | 8.86239 | 92° | 77km/h | 8082m | -5.2m/s | -31.5°C | 0% | 0hPa | 4.4V | 00:00:00 | 00:00:00 | 00:00:00 | |
| DK7TD | 2026-09-01 14:30:53 | 49.74507 | 8.86181 | 95° | 73km/h | 8092m | -4.9m/s | -31.6°C | 0% | 0hPa | 4.4V | 00:00:00 | 00:00:00 | 00:00:00 | |
| BIOWL1-15 | 2026-09-01 14:30:53 | 49.74512 | 8.86122 | 99° | 78km/h | 8102m | -5.2m/s | -31.6°C | 0% | 0hPa | 4.4V | 00:00:00 | 00:00:00 | 00:00:00 | |
| DM0DOS-11 | 2026-09-01 14:30:48 | 49.74517 | 8.85906 | 94° | 69km/h | 8141m | -4.4m/s | 0°C | 0% | 0hPa | 0V | 00:00:00 | 00:00:00 | 00:00:00 | |
| DO3DL | 2026-09-01 14:30:47 | 49.74518 | 8.86025 | 92° | 82km/h | 8118m | -4.6m/s | -31.8°C | 0% | 0hPa | 0V | 00:00:00 | 00:00:00 | 00:00:00 | |
| DL1NUX | 2026-09-01 14:30:46 | 49.74524 | 8.85851 | 103° | 77km/h | 8149m | -4.6m/s | 0°C | 0% | 0hPa | 0V | 00:00:00 | 00:00:00 | 00:00:00 | |
| DF1GD-15 | 2026-09-01 14:30:45 | 49.74517 | 8.85962 | 89° | 77km/h | 8127m | -4.7m/s | -31.9°C | 0% | 0hPa | 4.4V | 00:00:00 | 00:00:00 | 00:00:00 | |
| DK7TD | 2026-09-01 14:30:42 | 49.74524 | 8.85851 | 104° | 77km/h | 8145m | -5m/s | -32°C | 0% | 0hPa | 4.4V | 00:00:00 | 00:00:00 | 00:00:00 | |
| SO1NDE-10 | 2026-09-01 14:30:41 | 49.74524 | 8.85851 | 104° | 80km/h | 8150m | -4.5m/s | 0°C | 0% | 0hPa | 4.4V | 00:00:00 | 00:00:00 | 00:00:00 | |
| HSKMA3-T | 2026-09-01 14:30:40 | 49.74533 | 8.85786 | 99° | 91km/h | 8155m | -5.3m/s | -32.1°C | 0% | 0hPa | 4.4V | 00:00:00 | 00:00:00 | 00:00:00 | |
| DF2AP-13 | 2026-09-01 14:30:39 | 49.74533 | 8.85786 | 99° | 80km/h | 8160m | -5.5m/s | 0°C | 0% | 0hPa | 0V | 00:00:00 | 00:00:00 | 00:00:00 | |
| DM0DOS-11 | 2026-09-01 14:30:38 | 49.74529 | 8.85595 | 95° | 66km/h | 8193m | -5.5m/s | 0°C | 0% | 0hPa | 0V | 00:00:00 | 00:00:00 | 00:00:00 | |
| CB1BUN | 2026-09-01 14:30:37 | 49.74534 | 8.85681 | 85° | 84km/h | 8171m | -5.3m/s | -32.2°C | 0% | 0hPa | 0V | 00:00:00 | 00:00:00 | 00:00:00 | |
| DL1NUX | 2026-09-01 14:30:36 | 49.74532 | 8.85544 | 99° | 73km/h | 8203m | -5.3m/s | 0°C | 0% | 0hPa | 0V | 00:00:00 | 00:00:00 | 00:00:00 | |
| DO3MHA-11 | 2026-09-01 14:30:36 | 49.74534 | 8.85680 | 84° | 78km/h | 8177m | -5.2m/s | 0°C | 0% | 0hPa | 4.4V | 00:00:00 | 00:00:00 | 00:00:00 | |
| DO3DL | 2026-09-01 14:30:34 | 49.74529 | 8.85621 | 86° | 71km/h | 8182m | -5.3m/s | -32.3°C | 0% | 0hPa | 4.4V | 00:00:00 | 00:00:00 | 00:00:00 | |
| DK7TD | 2026-09-01 14:30:31 | 49.74535 | 8.85512 | 100° | 80km/h | 8203m | -5.3m/s | -32.4°C | 0% | 0hPa | 4.4V | 00:00:00 | 00:00:00 | 00:00:00 | |
| DB0NH | 2026-09-01 14:30:30 | 49.74535 | 8.85512 | 100° | 82km/h | 8209m | -5.2m/s | 0°C | 0% | 0hPa | 4.4V | 00:00:00 | 00:00:00 | 00:00:00 | |
| BIOWL1-15 | 2026-09-01 14:30:29 | 49.74540 | 8.85445 | 93° | 89km/h | 8214m | -5.4m/s | -32.5°C | 0% | 0hPa | 4.4V | 00:00:00 | 00:00:00 | 00:00:00 | |
| DM0DOS-11 | 2026-09-01 14:30:28 | 49.74540 | 8.85287 | 93° | 73km/h | 8249m | -5.9m/s | 0°C | 0% | 0hPa | 0V | 00:00:00 | 00:00:00 | 00:00:00 | |
| DM7RM-13 | 2026-09-01 14:30:27 | 49.74540 | 8.85410 | 91° | 88km/h | 8220m | -5.7m/s | 0°C | 0% | 0hPa | 0V | 00:00:00 | 00:00:00 | 00:00:00 | |
| DL1NUX | 2026-09-01 14:30:26 | 49.74542 | 8.85229 | 93° | 77km/h | 8260m | -5.4m/s | 0°C | 0% | 0hPa | 0V | 00:00:00 | 00:00:00 | 00:00:00 | |
| DO3MHA-11 | 2026-09-01 14:30:26 | 49.74540 | 8.85377 | 89° | 78km/h | 8231m | -5.5m/s | 0°C | 0% | 0hPa | 4.4V | 00:00:00 | 00:00:00 | 00:00:00 | |
| DF1GD-15 | 2026-09-01 14:30:25 | 49.74540 | 8.85345 | 90° | 78km/h | 8231m | -5.5m/s | -32.6°C | 0% | 0hPa | 4.4V | 00:00:00 | 00:00:00 | 00:00:00 | |
| DO3DL | 2026-09-01 14:30:22 | 49.74542 | 8.85229 | 95° | 77km/h | 8255m | -5.6m/s | -32.9°C | 0% | 0hPa | 4.4V | 00:00:00 | 00:00:00 | 00:00:00 | |
| DN1GJH-1 | 2026-09-01 14:30:21 | 49.74543 | 8.85199 | 93° | 80km/h | 8260m | -5.4m/s | 0°C | 0% | 0hPa | 4.4V | 00:00:00 | 00:00:00 | 00:00:00 | |
| DK7TD | 2026-09-01 14:30:20 | 49.74544 | 8.85167 | 91° | 82km/h | 8266m | -5.6m/s | -33°C | 0% | 0hPa | 4.4V | 00:00:00 | 00:00:00 | 00:00:00 | |
| BIOWL1-15 | 2026-09-01 14:30:20 | 49.74544 | 8.85102 | 91° | 84km/h | 8277m | -5.8m/s | -33.1°C | 0% | 0hPa | 4.4V | 00:00:00 | 00:00:00 | 00:00:00 | |
| DM0DOS-11 | 2026-09-01 14:30:18 | 49.74548 | 8.84975 | 93° | 78km/h | 8308m | -6.1m/s | 0°C | 0% | 0hPa | 0V | 00:00:00 | 00:00:00 | 00:00:00 | |
| DL1NUX | 2026-09-01 14:30:16 | 49.74550 | 8.84915 | 91° | 77km/h | 8320m | -5.7m/s | 0°C | 0% | 0hPa | 0V | 00:00:00 | 00:00:00 | 00:00:00 | |
| DO3MHA-11 | 2026-09-01 14:30:16 | 49.74545 | 8.85069 | 94° | 80km/h | 8289m | -5.9m/s | 0°C | 0% | 0hPa | 4.4V | 00:00:00 | 00:00:00 | 00:00:00 | |
| HEMX73-11 | 2026-09-01 14:30:14 | 49.74546 | 8.85006 | 95° | 80km/h | 8295m | -6.3m/s | -33.2°C | 0% | 0hPa | 4.4V | 00:00:00 | 00:00:00 | 00:00:00 | |
| NBG1-10 | 2026-09-01 14:30:13 | 49.74548 | 8.84975 | 94° | 80km/h | 8309m | -6.0m/s | 0°C | 0% | 0hPa | 4.4V | 00:00:00 | 00:00:00 | 00:00:00 | |
| SO1NDE-10 | 2026-09-01 14:30:11 | 49.74550 | 8.84915 | 92° | 80km/h | 8320m | -5.6m/s | 0°C | 0% | 0hPa | 4.4V | 00:00:00 | 00:00:00 | 00:00:00 | |
| DK7TD | 2026-09-01 14:30:10 | 49.74550 | 8.84853 | 88° | 80km/h | 8326m | -5.9m/s | -33.4°C | 0% | 0hPa | 4.4V | 00:00:00 | 00:00:00 | 00:00:00 | |
| DF2AP-13 | 2026-09-01 14:30:09 | 49.74549 | 8.84853 | 89° | 82km/h | 8332m | -5.9m/s | 0°C | 0% | 0hPa | 0V | 00:00:00 | 00:00:00 | 00:00:00 | |
| DM0DOS-11 | 2026-09-01 14:30:08 | 49.74546 | 8.84651 | 96° | 89km/h | 8366m | -6.1m/s | 0°C | 0% | 0hPa | 0V | 00:00:00 | 00:00:00 | 00:00:00 | |
| BIOWL1-15 | 2026-09-01 14:30:07 | 49.74548 | 8.84789 | 87° | 84km/h | 8338m | -5.9m/s | -33.5°C | 0% | 0hPa | 4.4V | 00:00:00 | 00:00:00 | 00:00:00 | |
| DB0UT-7 | 2026-09-01 14:30:07 | 49.74547 | 8.84789 | 88° | 82km/h | 8344m | -5.7m/s | 0°C | 0% | 0hPa | 0V | 00:00:00 | 00:00:00 | 00:00:00 | |
| DL1NUX | 2026-09-01 14:30:06 | 49.74551 | 8.84583 | 97° | 84km/h | 8378m | -6m/s | 0°C | 0% | 0hPa | 0V | 00:00:00 | 00:00:00 | 00:00:00 | |
| DO3MHA-11 | 2026-09-01 14:30:06 | 49.74547 | 8.84756 | 88° | 82km/h | 8350m | -5.9m/s | 0°C | 0% | 0hPa | 4.4V | 00:00:00 | 00:00:00 | 00:00:00 | |
| DF1GD-15 | 2026-09-01 14:30:04 | 49.74546 | 8.84686 | 92° | 89km/h | 8356m | -5.8m/s | -33.7°C | 0% | 0hPa | 4.4V | 00:00:00 | 00:00:00 | 00:00:00 | |
| BEGRI65-1 | 2026-09-01 14:30:03 | 49.74546 | 8.84651 | 95° | 89km/h | 8361m | -5.8m/s | -33.7°C | 0% | 0hPa | 4.4V | 00:00:00 | 00:00:00 | 00:00:00 | |
| DB0NH | 2026-09-01 14:30:00 | 49.74554 | 8.84552 | 98° | 80km/h | 8384m | -5.8m/s | 0°C | 0% | 0hPa | 4.4V | 00:00:00 | 00:00:00 | 00:00:00 | |
| DK7TD | 2026-09-01 14:29:59 | 49.74558 | 8.84493 | 94° | 71km/h | 8390m | -5.8m/s | -34°C | 0% | 0hPa | 4.4V | 00:00:00 | 00:00:00 | 00:00:00 | |
| DM0DOS-11 | 2026-09-01 14:29:58 | 49.74553 | 8.84343 | 86° | 86km/h | 8425m | -6.1m/s | 0°C | 0% | 0hPa | 0V | 00:00:00 | 00:00:00 | 00:00:00 | |
| HSKMA3-T | 2026-09-01 14:29:57 | 49.74558 | 8.84437 | 87° | 75km/h | 8402m | -5.8m/s | -34.1°C | 0% | 0hPa | 4.4V | 00:00:00 | 00:00:00 | 00:00:00 | |
| DL1NUX | 2026-09-01 14:29:56 | 49.74553 | 8.84274 | 93° | 91km/h | 8437m | -5.7m/s | 0°C | 0% | 0hPa | 0V | 00:00:00 | 00:00:00 | 00:00:00 | |
| CB1BUN | 2026-09-01 14:29:56 | 49.74556 | 8.84407 | 85° | 78km/h | 8408m | -5.8m/s | -34.2°C | 0% | 0hPa | 0V | 00:00:00 | 00:00:00 | 00:00:00 | |
| DO3DL | 2026-09-01 14:29:53 | 49.74553 | 8.84343 | 88° | 88km/h | 8419m | -5.8m/s | -34.3°C | 0% | 0hPa | 0V | 00:00:00 | 00:00:00 | 00:00:00 | |
| DM0DOS-11 | 2026-09-01 14:29:48 | 49.74561 | 8.84032 | 82° | 80km/h | 8484m | -5.8m/s | 0°C | 0% | 0hPa | 0V | 00:00:00 | 00:00:00 | 00:00:00 | |
| DK7TD | 2026-09-01 14:29:48 | 49.74563 | 8.84145 | 97° | 73km/h | 8455m | -5.9m/s | -34.5°C | 0% | 0hPa | 4.4V | 00:00:00 | 00:00:00 | 00:00:00 | |
| DO3DL | 2026-09-01 14:29:47 | 49.74563 | 8.84145 | 98° | 73km/h | 8455m | -5.9m/s | -34.5°C | 0% | 0hPa | 0V | 00:00:00 | 00:00:00 | 00:00:00 | |
| DL1NUX | 2026-09-01 14:29:46 | 49.74557 | 8.83965 | 87° | 91km/h | 8496m | -6.1m/s | 0°C | 0% | 0hPa | 0V | 00:00:00 | 00:00:00 | 00:00:00 | |
| BIOWL1-15 | 2026-09-01 14:29:46 | 49.74565 | 8.84090 | 88° | 71km/h | 8467m | -5.8m/s | -34.6°C | 0% | 0hPa | 4.4V | 00:00:00 | 00:00:00 | 00:00:00 | |
| DF1GD-15 | 2026-09-01 14:29:44 | 49.74563 | 8.84062 | 85° | 73km/h | 8473m | -5.9m/s | -34.6°C | 0% | 0hPa | 4.4V | 00:00:00 | 00:00:00 | 00:00:00 | |
| SO1NDE-10 | 2026-09-01 14:29:41 | 49.74557 | 8.83965 | 88° | 84km/h | 8496m | -6.0m/s | 0°C | 0% | 0hPa | 4.4V | 00:00:00 | 00:00:00 | 00:00:00 | |
| NBG1-10 | 2026-09-01 14:29:40 | 49.74556 | 8.83929 | 92° | 84km/h | 8508m | -5.5m/s | 0°C | 0% | 0hPa | 4.4V | 00:00:00 | 00:00:00 | 00:00:00 | |
| HSKMA3-T | 2026-09-01 14:29:39 | 49.74558 | 8.83893 | 95° | 93km/h | 8502m | -5.9m/s | -34.8°C | 0% | 0hPa | 4.4V | 00:00:00 | 00:00:00 | 00:00:00 | |
| DF2AP-13 | 2026-09-01 14:29:39 | 49.74558 | 8.83893 | 96° | 84km/h | 8508m | -5.5m/s | 0°C | 0% | 0hPa | 0V | 00:00:00 | 00:00:00 | 00:00:00 | |
| DM0DOS-11 | 2026-09-01 14:29:37 | 49.74570 | 8.83680 | 84° | 82km/h | 8548m | -5.8m/s | 0°C | 0% | 0hPa | 0V | 00:00:00 | 00:00:00 | 00:00:00 | |
| DK7TD | 2026-09-01 14:29:37 | 49.74568 | 8.83795 | 100° | 75km/h | 8519m | -6m/s | -34.9°C | 0% | 0hPa | 4.4V | 00:00:00 | 00:00:00 | 00:00:00 | |
| BIOWL1-15 | 2026-09-01 14:29:37 | 49.74572 | 8.83739 | 92° | 71km/h | 8531m | -5.7m/s | -35°C | 0% | 0hPa | 4.4V | 00:00:00 | 00:00:00 | 00:00:00 | |
| DL1NUX | 2026-09-01 14:29:36 | 49.74569 | 8.83648 | 88° | 88km/h | 8554m | -5.9m/s | 0°C | 0% | 0hPa | 0V | 00:00:00 | 00:00:00 | 00:00:00 | |
| DO3MHA-11 | 2026-09-01 14:29:36 | 49.74568 | 8.83795 | 101° | 82km/h | 8526m | -5.9m/s | 0°C | 0% | 0hPa | 4.4V | 00:00:00 | 00:00:00 | 00:00:00 | |
| CB1BUN | 2026-09-01 14:29:34 | 49.74572 | 8.83739 | 93° | 71km/h | 8531m | -5.7m/s | -35.0°C | 0% | 0hPa | 4.4V | 00:00:00 | 00:00:00 | 00:00:00 | |
| DB0NH | 2026-09-01 14:29:30 | 49.74567 | 8.83612 | 89° | 84km/h | 8560m | -5.8m/s | 0°C | 0% | 0hPa | 4.4V | 00:00:00 | 00:00:00 | 00:00:00 | |
| HSKMA3-T | 2026-09-01 14:29:29 | 49.74569 | 8.83539 | 96° | 91km/h | 8566m | -5.9m/s | -35.2°C | 0% | 0hPa | 4.4V | 00:00:00 | 00:00:00 | 00:00:00 | |
| DO3DL | 2026-09-01 14:29:28 | 49.74571 | 8.83504 | 100° | 88km/h | 8572m | -5.5m/s | -35.3°C | 0% | 0hPa | 0V | 00:00:00 | 00:00:00 | 00:00:00 | |
| DM0DOS-11 | 2026-09-01 14:29:27 | 49.74582 | 8.83351 | 88° | 82km/h | 8606m | -5.6m/s | 0°C | 0% | 0hPa | 0V | 00:00:00 | 00:00:00 | 00:00:00 | |
| DK7TD | 2026-09-01 14:29:27 | 49.74575 | 8.83472 | 100° | 82km/h | 8577m | -5.7m/s | -35.3°C | 0% | 0hPa | 4.4V | 00:00:00 | 00:00:00 | 00:00:00 | |
| DL1NUX | 2026-09-01 14:29:26 | 49.74582 | 8.83317 | 88° | 86km/h | 8612m | -5.7m/s | 0°C | 0% | 0hPa | 0V | 00:00:00 | 00:00:00 | 00:00:00 | |
| HEMX73-11 | 2026-09-01 14:29:26 | 49.74578 | 8.83441 | 99° | 78km/h | 8583m | -5.9m/s | -35.3°C | 0% | 0hPa | 4.4V | 00:00:00 | 00:00:00 | 00:00:00 | |
| DM7RM-13 | 2026-09-01 14:29:25 | 49.74578 | 8.83441 | 99° | 78km/h | 8583m | -5.9m/s | 0°C | 0% | 0hPa | 4.4V | 00:00:00 | 00:00:00 | 00:00:00 | |
| BIOWL1-15 | 2026-09-01 14:29:24 | 49.74580 | 8.83411 | 96° | 77km/h | 8588m | -6m/s | -35.4°C | 0% | 0hPa | 4.4V | 00:00:00 | 00:00:00 | 00:00:00 | |
| DF1GD-15 | 2026-09-01 14:29:23 | 49.74582 | 8.83381 | 93° | 78km/h | 8594m | -5.8m/s | -35.4°C | 0% | 0hPa | 4.4V | 00:00:00 | 00:00:00 | 00:00:00 | |
| DO3DL | 2026-09-01 14:29:21 | 49.74582 | 8.83317 | 89° | 86km/h | 8606m | -5.6m/s | -35.5°C | 0% | 0hPa | 4.4V | 00:00:00 | 00:00:00 | 00:00:00 | |
| HSKMA3-T | 2026-09-01 14:29:18 | 49.74577 | 8.83181 | 88° | 86km/h | 8629m | -5.8m/s | -35.7°C | 0% | 0hPa | 4.4V | 00:00:00 | 00:00:00 | 00:00:00 | |
| BIOWL7-15 | 2026-09-01 14:29:18 | 49.74577 | 8.83181 | 89° | 86km/h | 8629m | -5.8m/s | -35.7°C | 0% | 0hPa | 0V | 00:00:00 | 00:00:00 | 00:00:00 | |
| KANTATE | 2026-09-01 14:29:17 | 49.74577 | 8.83181 | 89° | 86km/h | 8629m | -5.8m/s | -35.7°C | 0% | 0hPa | 0V | 00:00:00 | 00:00:00 | 00:00:00 | |
| DL1NUX | 2026-09-01 14:29:16 | 49.74588 | 8.82985 | 99° | 82km/h | 8670m | -5.8m/s | 0°C | 0% | 0hPa | 0V | 00:00:00 | 00:00:00 | 00:00:00 | |
| DK7TD | 2026-09-01 14:29:16 | 49.74578 | 8.83115 | 93° | 84km/h | 8640m | -5.8m/s | -35.9°C | 0% | 0hPa | 4.4V | 00:00:00 | 00:00:00 | 00:00:00 | |
| DO3MHA-11 | 2026-09-01 14:29:16 | 49.74577 | 8.83147 | 94° | 84km/h | 8640m | -5.8m/s | 0°C | 0% | 0hPa | 4.4V | 00:00:00 | 00:00:00 | 00:00:00 | |
| BIOWL1-15 | 2026-09-01 14:29:14 | 49.74581 | 8.83050 | 97° | 84km/h | 8652m | -6.2m/s | -36°C | 0% | 0hPa | 4.4V | 00:00:00 | 00:00:00 | 00:00:00 | |
| BEGRI65-1 | 2026-09-01 14:29:13 | 49.74582 | 8.83050 | 98° | 84km/h | 8653m | -6.2m/s | -36.0°C | 0% | 0hPa | 0V | 00:00:00 | 00:00:00 | 00:00:00 | |
| SO1NDE-10 | 2026-09-01 14:29:11 | 49.74587 | 8.82985 | 100° | 86km/h | 8670m | -5.7m/s | 0°C | 0% | 0hPa | 0V | 00:00:00 | 00:00:00 | 00:00:00 | |
| DF2AP-13 | 2026-09-01 14:29:09 | 49.74595 | 8.82921 | 99° | 86km/h | 8682m | -5.7m/s | 0°C | 0% | 0hPa | 0V | 00:00:00 | 00:00:00 | 00:00:00 | |
| DO3DL | 2026-09-01 14:29:08 | 49.74598 | 8.82889 | 99° | 84km/h | 8682m | -5.8m/s | -36.2°C | 0% | 0hPa | 0V | 00:00:00 | 00:00:00 | 00:00:00 | |
| DM0DOS-11 | 2026-09-01 14:29:07 | 49.74604 | 8.82693 | 91° | 86km/h | 8721m | -5.2m/s | 0°C | 0% | 0hPa | 0V | 00:00:00 | 00:00:00 | 00:00:00 | |
| HSKMA3-T | 2026-09-01 14:29:07 | 49.74602 | 8.82824 | 93° | 82km/h | 8693m | -5.5m/s | -36.3°C | 0% | 0hPa | 4.4V | 00:00:00 | 00:00:00 | 00:00:00 | |
| DO3MHA-11 | 2026-09-01 14:29:06 | 49.74602 | 8.82824 | 94° | 84km/h | 8699m | -5.8m/s | 0°C | 0% | 0hPa | 4.4V | 00:00:00 | 00:00:00 | 00:00:00 | |
| DK7TD | 2026-09-01 14:29:05 | 49.74603 | 8.82760 | 91° | 84km/h | 8705m | -5.5m/s | -36.4°C | 0% | 0hPa | 4.4V | 00:00:00 | 00:00:00 | 00:00:00 | |
| BIOWL1-15 | 2026-09-01 14:29:03 | 49.74604 | 8.82693 | 92° | 86km/h | 8715m | -5.4m/s | -36.4°C | 0% | 0hPa | 4.4V | 00:00:00 | 00:00:00 | 00:00:00 | |
| DO3DL | 2026-09-01 14:29:02 | 49.74604 | 8.82693 | 93° | 86km/h | 8715m | -5.4m/s | -36.4°C | 0% | 0hPa | 0V | 00:00:00 | 00:00:00 | 00:00:00 | |
| DB0NH | 2026-09-01 14:29:00 | 49.74606 | 8.82627 | 94° | 88km/h | 8731m | -5.0m/s | 0°C | 0% | 0hPa | 0V | 00:00:00 | 00:00:00 | 00:00:00 | |
| DM0DOS-11 | 2026-09-01 14:28:57 | 49.74615 | 8.82358 | 92° | 84km/h | 8771m | -5.9m/s | 0°C | 0% | 0hPa | 0V | 00:00:00 | 00:00:00 | 00:00:00 | |
| HSKMA3-T | 2026-09-01 14:28:56 | 49.74614 | 8.82493 | 94° | 88km/h | 8746m | -5m/s | -36.7°C | 0% | 0hPa | 4.4V | 00:00:00 | 00:00:00 | 00:00:00 | |
| DL1NUX | 2026-09-01 14:28:56 | 49.74615 | 8.82325 | 92° | 86km/h | 8777m | -5.8m/s | 0°C | 0% | 0hPa | 0V | 00:00:00 | 00:00:00 | 00:00:00 | |
| DK7TD | 2026-09-01 14:28:55 | 49.74615 | 8.82426 | 90° | 86km/h | 8755m | -4.6m/s | -36.8°C | 0% | 0hPa | 4.4V | 00:00:00 | 00:00:00 | 00:00:00 | |
| BIOWL1-15 | 2026-09-01 14:28:54 | 49.74616 | 8.82325 | 92° | 86km/h | 8771m | -5.9m/s | -36.9°C | 0% | 0hPa | 4.4V | 00:00:00 | 00:00:00 | 00:00:00 | |
| CB1BUN | 2026-09-01 14:28:53 | 49.74615 | 8.82392 | 91° | 86km/h | 8761m | -5.4m/s | -36.8°C | 0% | 0hPa | 0V | 00:00:00 | 00:00:00 | 00:00:00 | |
| BEGRI65-1 | 2026-09-01 14:28:51 | 49.74616 | 8.82325 | 93° | 86km/h | 8771m | -5.9m/s | -36.9°C | 0% | 0hPa | 0V | 00:00:00 | 00:00:00 | 00:00:00 | |
| DO3DL | 2026-09-01 14:28:49 | 49.74618 | 8.82258 | 94° | 86km/h | 8783m | -5.6m/s | -37.0°C | 0% | 0hPa | 0V | 00:00:00 | 00:00:00 | 00:00:00 | |
| DL1NUX | 2026-09-01 14:28:46 | 49.74625 | 8.81985 | 92° | 89km/h | 8827m | -4.9m/s | 0°C | 0% | 0hPa | 0V | 00:00:00 | 00:00:00 | 00:00:00 | |
| HEMX73-11 | 2026-09-01 14:28:45 | 49.74621 | 8.82087 | 93° | 88km/h | 8808m | -5.0m/s | -37.2°C | 0% | 0hPa | 4.4V | 00:00:00 | 00:00:00 | 00:00:00 | |
| DM7RM-13 | 2026-09-01 14:28:44 | 49.74621 | 8.82087 | 93° | 88km/h | 8808m | -5.0m/s | 0°C | 0% | 0hPa | 4.4V | 00:00:00 | 00:00:00 | 00:00:00 | |
| HSKMA3-T | 2026-09-01 14:28:43 | 49.74622 | 8.82053 | 92° | 88km/h | 8813m | -4.8m/s | -37.2°C | 0% | 0hPa | 4.4V | 00:00:00 | 00:00:00 | 00:00:00 | |
| BIOWL1-15 | 2026-09-01 14:28:43 | 49.74626 | 8.81950 | 93° | 89km/h | 8827m | -4.9m/s | -37.3°C | 0% | 0hPa | 4.4V | 00:00:00 | 00:00:00 | 00:00:00 | |
| DO3DL | 2026-09-01 14:28:43 | 49.74623 | 8.82019 | 94° | 88km/h | 8818m | -4.8m/s | -37.2°C | 0% | 0hPa | 0V | 00:00:00 | 00:00:00 | 00:00:00 | |
| DF1GD-15 | 2026-09-01 14:28:42 | 49.74623 | 8.82019 | 94° | 88km/h | 8818m | -4.8m/s | -37.2°C | 0% | 0hPa | 0V | 00:00:00 | 00:00:00 | 00:00:00 | |
| SO1NDE-10 | 2026-09-01 14:28:41 | 49.74625 | 8.81985 | 93° | 88km/h | 8828m | -4.8m/s | 0°C | 0% | 0hPa | 0V | 00:00:00 | 00:00:00 | 00:00:00 | |
| DF2AP-13 | 2026-09-01 14:28:39 | 49.74627 | 8.81915 | 91° | 89km/h | 8837m | -4.9m/s | 0°C | 0% | 0hPa | 0V | 00:00:00 | 00:00:00 | 00:00:00 | |
| DM0DOS-11 | 2026-09-01 14:28:37 | 49.74629 | 8.81674 | 91° | 88km/h | 8870m | -4.9m/s | 0°C | 0% | 0hPa | 0V | 00:00:00 | 00:00:00 | 00:00:00 | |
| DO3DL | 2026-09-01 14:28:36 | 49.74628 | 8.81810 | 91° | 88km/h | 8847m | -4.7m/s | -37.5°C | 0% | 0hPa | 4.4V | 00:00:00 | 00:00:00 | 00:00:00 | |
| NBG1-10 | 2026-09-01 14:28:34 | 49.74628 | 8.81742 | 91° | 89km/h | 8861m | -4.7m/s | 0°C | 0% | 0hPa | 4.4V | 00:00:00 | 00:00:00 | 00:00:00 | |
| HSKMA3-T | 2026-09-01 14:28:33 | 49.74629 | 8.81674 | 92° | 88km/h | 8865m | -4.7m/s | -37.5°C | 0% | 0hPa | 4.4V | 00:00:00 | 00:00:00 | 00:00:00 | |
| BIOWL1-15 | 2026-09-01 14:28:32 | 49.74631 | 8.81604 | 92° | 89km/h | 8875m | -4.9m/s | -37.6°C | 0% | 0hPa | 4.4V | 00:00:00 | 00:00:00 | 00:00:00 | |
| DO3MHA-11 | 2026-09-01 14:28:31 | 49.74630 | 8.81639 | 92° | 88km/h | 8875m | -4.9m/s | 0°C | 0% | 0hPa | 0V | 00:00:00 | 00:00:00 | 00:00:00 | |
| DB0NH | 2026-09-01 14:28:30 | 49.74631 | 8.81604 | 92° | 89km/h | 8879m | -4.8m/s | 0°C | 0% | 0hPa | 0V | 00:00:00 | 00:00:00 | 00:00:00 | |
| DO3DL | 2026-09-01 14:28:29 | 49.74631 | 8.81569 | 92° | 89km/h | 8879m | -4.9m/s | -37.7°C | 0% | 0hPa | 0V | 00:00:00 | 00:00:00 | 00:00:00 | |
| DM0DOS-11 | 2026-09-01 14:28:27 | 49.74634 | 8.81330 | 91° | 88km/h | 8918m | -4.9m/s | 0°C | 0% | 0hPa | 0V | 00:00:00 | 00:00:00 | 00:00:00 | |
| DL1NUX | 2026-09-01 14:28:26 | 49.74635 | 8.81295 | 91° | 89km/h | 8922m | -4.9m/s | 0°C | 0% | 0hPa | 0V | 00:00:00 | 00:00:00 | 00:00:00 | |
| HEMX73-11 | 2026-09-01 14:28:25 | 49.74632 | 8.81398 | 93° | 88km/h | 8903m | -4.6m/s | -37.8°C | 0% | 0hPa | 4.3V | 00:00:00 | 00:00:00 | 00:00:00 | |
| DM7RM-13 | 2026-09-01 14:28:24 | 49.74632 | 8.81398 | 93° | 88km/h | 8903m | -4.6m/s | 0°C | 0% | 0hPa | 4.3V | 00:00:00 | 00:00:00 | 00:00:00 | |
| DJTTGO | 2026-09-01 14:28:23 | 49.74633 | 8.81364 | 93° | 88km/h | 8908m | -4.7m/s | 0°C | 0% | 0hPa | 4.3V | 00:00:00 | 00:00:00 | 00:00:00 | |
| HSKMA3-T | 2026-09-01 14:28:22 | 49.74635 | 8.81295 | 92° | 89km/h | 8918m | -5m/s | -38°C | 0% | 0hPa | 4.3V | 00:00:00 | 00:00:00 | 00:00:00 | |
| BIOWL1-15 | 2026-09-01 14:28:21 | 49.74636 | 8.81226 | 90° | 89km/h | 8927m | -4.9m/s | -38.1°C | 0% | 0hPa | 4.3V | 00:00:00 | 00:00:00 | 00:00:00 | |
| DO3MHA-11 | 2026-09-01 14:28:21 | 49.74635 | 8.81295 | 92° | 88km/h | 8922m | -4.8m/s | 0°C | 0% | 0hPa | 0V | 00:00:00 | 00:00:00 | 00:00:00 | |
| DM0DOS-11 | 2026-09-01 14:28:17 | 49.74639 | 8.80985 | 91° | 89km/h | 8966m | -4.9m/s | 0°C | 0% | 0hPa | 0V | 00:00:00 | 00:00:00 | 00:00:00 | |
| DO3DL | 2026-09-01 14:28:17 | 49.74636 | 8.81122 | 92° | 88km/h | 8942m | -5.0m/s | -38.2°C | 0% | 0hPa | 0V | 00:00:00 | 00:00:00 | 00:00:00 | |
| DL1NUX | 2026-09-01 14:28:16 | 49.74639 | 8.80950 | 90° | 91km/h | 8970m | -5m/s | 0°C | 0% | 0hPa | 0V | 00:00:00 | 00:00:00 | 00:00:00 | |
| DB0UT-7 | 2026-09-01 14:28:14 | 49.74638 | 8.81054 | 92° | 91km/h | 8956m | -4.7m/s | 0°C | 0% | 0hPa | 4.3V | 00:00:00 | 00:00:00 | 00:00:00 | |
| DK7TD | 2026-09-01 14:28:12 | 49.74639 | 8.80950 | 91° | 91km/h | 8966m | -4.9m/s | -38.6°C | 0% | 0hPa | 4.3V | 00:00:00 | 00:00:00 | 00:00:00 | |
| HSKMA3-T | 2026-09-01 14:28:11 | 49.74639 | 8.80914 | 90° | 91km/h | 8971m | -5m/s | -38.5°C | 0% | 0hPa | 4.3V | 00:00:00 | 00:00:00 | 00:00:00 | |
| DO3DL | 2026-09-01 14:28:10 | 49.74640 | 8.80914 | 91° | 91km/h | 8971m | -5.0m/s | -38.5°C | 0% | 0hPa | 4.3V | 00:00:00 | 00:00:00 | 00:00:00 | |
| BIOWL1-15 | 2026-09-01 14:28:09 | 49.74640 | 8.80844 | 91° | 89km/h | 8980m | -5m/s | -38.6°C | 0% | 0hPa | 4.3V | 00:00:00 | 00:00:00 | 00:00:00 | |
| DF2AP-13 | 2026-09-01 14:28:09 | 49.74640 | 8.80879 | 92° | 91km/h | 8980m | -5.0m/s | 0°C | 0% | 0hPa | 0V | 00:00:00 | 00:00:00 | 00:00:00 | |
| DM0DOS-11 | 2026-09-01 14:28:07 | 49.74644 | 8.80635 | 91° | 93km/h | 9014m | -4.9m/s | 0°C | 0% | 0hPa | 0V | 00:00:00 | 00:00:00 | 00:00:00 | |
| DL1NUX | 2026-09-01 14:28:06 | 49.74644 | 8.80599 | 89° | 93km/h | 9020m | -5m/s | 0°C | 0% | 0hPa | 0V | 00:00:00 | 00:00:00 | 00:00:00 | |
| DM7RM-13 | 2026-09-01 14:28:03 | 49.74644 | 8.80671 | 93° | 89km/h | 9005m | -5.0m/s | 0°C | 0% | 0hPa | 4.3V | 00:00:00 | 00:00:00 | 00:00:00 | |
| NBG1-10 | 2026-09-01 14:28:01 | 49.74645 | 8.80599 | 90° | 93km/h | 9020m | -5.0m/s | 0°C | 0% | 0hPa | 4.3V | 00:00:00 | 00:00:00 | 00:00:00 | |
| HSKMA3-T | 2026-09-01 14:28:00 | 49.74644 | 8.80563 | 90° | 91km/h | 9020m | -5.1m/s | -38.8°C | 0% | 0hPa | 4.3V | 00:00:00 | 00:00:00 | 00:00:00 | |
| BIOWL1-15 | 2026-09-01 14:28:00 | 49.74646 | 8.80459 | 92° | 86km/h | 9035m | -5m/s | -39°C | 0% | 0hPa | 4.4V | 00:00:00 | 00:00:00 | 00:00:00 | |
| DM0DOS-11 | 2026-09-01 14:27:57 | 49.74651 | 8.80280 | 89° | 100km/h | 9065m | -4.9m/s | 0°C | 0% | 0hPa | 0V | 00:00:00 | 00:00:00 | 00:00:00 | |
| DL1NUX | 2026-09-01 14:27:56 | 49.74651 | 8.80242 | 89° | 99km/h | 9070m | -5.6m/s | 0°C | 0% | 0hPa | 0V | 00:00:00 | 00:00:00 | 00:00:00 | |
| CB1BUN | 2026-09-01 14:27:52 | 49.74651 | 8.80281 | 92° | 100km/h | 9060m | -4.9m/s | -39.2°C | 0% | 0hPa | 4.4V | 00:00:00 | 00:00:00 | 00:00:00 | |
| DO3MHA-11 | 2026-09-01 14:27:51 | 49.74651 | 8.80242 | 90° | 93km/h | 9071m | -5.5m/s | 0°C | 0% | 0hPa | 4.4V | 00:00:00 | 00:00:00 | 00:00:00 | |
| HSKMA3-T | 2026-09-01 14:27:50 | 49.74651 | 8.80204 | 90° | 97km/h | 9070m | -5.6m/s | -39.3°C | 0% | 0hPa | 4.4V | 00:00:00 | 00:00:00 | 00:00:00 | |
| DK7TD | 2026-09-01 14:27:50 | 49.74651 | 8.80167 | 90° | 93km/h | 9076m | -5.8m/s | -39.4°C | 0% | 0hPa | 4.4V | 00:00:00 | 00:00:00 | 00:00:00 | |
| BIOWL1-15 | 2026-09-01 14:27:47 | 49.74651 | 8.80096 | 90° | 89km/h | 9088m | -6.2m/s | -39.5°C | 0% | 0hPa | 4.4V | 00:00:00 | 00:00:00 | 00:00:00 | |
| DM0DOS-11 | 2026-09-01 14:27:47 | 49.74652 | 8.79919 | 91° | 93km/h | 9125m | -6.3m/s | 0°C | 0% | 0hPa | 0V | 00:00:00 | 00:00:00 | 00:00:00 | |
| DL1NUX | 2026-09-01 14:27:46 | 49.74653 | 8.79883 | 90° | 95km/h | 9132m | -6.7m/s | 0°C | 0% | 0hPa | 0V | 00:00:00 | 00:00:00 | 00:00:00 | |
| DB0UT-7 | 2026-09-01 14:27:44 | 49.74651 | 8.79991 | 91° | 95km/h | 9113m | -5.8m/s | 0°C | 0% | 0hPa | 0V | 00:00:00 | 00:00:00 | 00:00:00 | |
| HEMX73-11 | 2026-09-01 14:27:43 | 49.74652 | 8.79919 | 93° | 93km/h | 9119m | -6.1m/s | -39.7°C | 0% | 0hPa | 0V | 00:00:00 | 00:00:00 | 00:00:00 | |
| DM7RM-13 | 2026-09-01 14:27:42 | 49.74652 | 8.79919 | 93° | 93km/h | 9119m | -6.1m/s | 0°C | 0% | 0hPa | 0V | 00:00:00 | 00:00:00 | 00:00:00 | |
| SO1NDE-10 | 2026-09-01 14:27:41 | 49.74653 | 8.79882 | 91° | 95km/h | 9132m | -6.6m/s | 0°C | 0% | 0hPa | 0V | 00:00:00 | 00:00:00 | 00:00:00 | |
| DO3DL | 2026-09-01 14:27:39 | 49.74653 | 8.79772 | 89° | 93km/h | 9145m | -5.9m/s | -40.0°C | 0% | 0hPa | 0V | 00:00:00 | 00:00:00 | 00:00:00 | |
| KANTATE | 2026-09-01 14:27:38 | 49.74653 | 8.79772 | 89° | 93km/h | 9145m | -5.9m/s | -40.0°C | 0% | 0hPa | 0V | 00:00:00 | 00:00:00 | 00:00:00 | |
| DM0DOS-11 | 2026-09-01 14:27:37 | 49.74653 | 8.79554 | 92° | 97km/h | 9187m | -6m/s | 0°C | 0% | 0hPa | 0V | 00:00:00 | 00:00:00 | 00:00:00 | |
| DK7TD | 2026-09-01 14:27:37 | 49.74652 | 8.79701 | 90° | 91km/h | 9157m | -5.9m/s | -40.1°C | 0% | 0hPa | 4.4V | 00:00:00 | 00:00:00 | 00:00:00 | |
| DL1NUX | 2026-09-01 14:27:36 | 49.74654 | 8.79517 | 92° | 97km/h | 9194m | -6.5m/s | 0°C | 0% | 0hPa | 0V | 00:00:00 | 00:00:00 | 00:00:00 | |
| DO3MHA-11 | 2026-09-01 14:27:31 | 49.74654 | 8.79517 | 93° | 95km/h | 9194m | -6.4m/s | 0°C | 0% | 0hPa | 0V | 00:00:00 | 00:00:00 | 00:00:00 | |
| DB0NH | 2026-09-01 14:27:30 | 49.74655 | 8.79478 | 93° | 95km/h | 9200m | -5.9m/s | 0°C | 0% | 0hPa | 0V | 00:00:00 | 00:00:00 | 00:00:00 | |
| NBG1-10 | 2026-09-01 14:27:28 | 49.74657 | 8.79403 | 92° | 95km/h | 9212m | -5.5m/s | 0°C | 0% | 0hPa | 0V | 00:00:00 | 00:00:00 | 00:00:00 | |
| DM0DOS-11 | 2026-09-01 14:27:27 | 49.74657 | 8.79182 | 88° | 95km/h | 9243m | -5.4m/s | 0°C | 0% | 0hPa | 0V | 00:00:00 | 00:00:00 | 00:00:00 | |
| DL1NUX | 2026-09-01 14:27:26 | 49.74656 | 8.79144 | 88° | 95km/h | 9248m | -5m/s | 0°C | 0% | 0hPa | 0V | 00:00:00 | 00:00:00 | 00:00:00 | |
| DK7TD | 2026-09-01 14:27:26 | 49.74659 | 8.79292 | 90° | 95km/h | 9223m | -5.1m/s | -40.6°C | 0% | 0hPa | 4.4V | 00:00:00 | 00:00:00 | 00:00:00 | |
| DO3DL | 2026-09-01 14:27:25 | 49.74659 | 8.79292 | 91° | 95km/h | 9223m | -5.1m/s | -40.6°C | 0% | 0hPa | 0V | 00:00:00 | 00:00:00 | 00:00:00 | |
| HEMX73-11 | 2026-09-01 14:27:22 | 49.74657 | 8.79181 | 89° | 95km/h | 9238m | -5.1m/s | -40.7°C | 0% | 0hPa | 0V | 00:00:00 | 00:00:00 | 00:00:00 | |
| DO3MHA-11 | 2026-09-01 14:27:21 | 49.74656 | 8.79144 | 89° | 95km/h | 9248m | -4.9m/s | 0°C | 0% | 0hPa | 0V | 00:00:00 | 00:00:00 | 00:00:00 | |
| DF1GD-15 | 2026-09-01 14:27:20 | 49.74656 | 8.79106 | 92° | 97km/h | 9248m | -5.0m/s | -40.7°C | 0% | 0hPa | 0V | 00:00:00 | 00:00:00 | 00:00:00 | |
| DO3DL | 2026-09-01 14:27:19 | 49.74658 | 8.79030 | 94° | 99km/h | 9258m | -5.0m/s | -40.8°C | 0% | 0hPa | 0V | 00:00:00 | 00:00:00 | 00:00:00 | |
| DM0DOS-11 | 2026-09-01 14:27:17 | 49.74657 | 8.78810 | 88° | 95km/h | 9293m | -4.8m/s | 0°C | 0% | 0hPa | 0V | 00:00:00 | 00:00:00 | 00:00:00 | |
| DL1NUX | 2026-09-01 14:27:16 | 49.74657 | 8.78773 | 92° | 97km/h | 9298m | -4.7m/s | 0°C | 0% | 0hPa | 0V | 00:00:00 | 00:00:00 | 00:00:00 | |
| DK7TD | 2026-09-01 14:27:15 | 49.74659 | 8.78882 | 88° | 91km/h | 9278m | -5.3m/s | -40.9°C | 0% | 0hPa | 4.4V | 00:00:00 | 00:00:00 | 00:00:00 | |
| DB0UT-7 | 2026-09-01 14:27:14 | 49.74659 | 8.78882 | 89° | 97km/h | 9283m | -5.0m/s | 0°C | 0% | 0hPa | 0V | 00:00:00 | 00:00:00 | 00:00:00 | |
| DO3DL | 2026-09-01 14:27:12 | 49.74657 | 8.78810 | 89° | 95km/h | 9288m | -5.2m/s | -41.0°C | 0% | 0hPa | 0V | 00:00:00 | 00:00:00 | 00:00:00 | |
| SO1NDE-10 | 2026-09-01 14:27:11 | 49.74656 | 8.78773 | 93° | 97km/h | 9298m | -4.7m/s | 0°C | 0% | 0hPa | 0V | 00:00:00 | 00:00:00 | 00:00:00 | |
| DF2AP-13 | 2026-09-01 14:27:09 | 49.74658 | 8.78694 | 93° | 97km/h | 9309m | -6.2m/s | 0°C | 0% | 0hPa | 0V | 00:00:00 | 00:00:00 | 00:00:00 | |
| DM0DOS-11 | 2026-09-01 14:27:07 | 49.74654 | 8.78437 | 85° | 91km/h | 9346m | -6.4m/s | 0°C | 0% | 0hPa | 0V | 00:00:00 | 00:00:00 | 00:00:00 | |
| HSKMA3-T | 2026-09-01 14:27:06 | 49.74660 | 8.78581 | 88° | 95km/h | 9321m | -6.5m/s | -41.3°C | 0% | 0hPa | 4.4V | 00:00:00 | 00:00:00 | 00:00:00 | |
| DL1NUX | 2026-09-01 14:27:06 | 49.74652 | 8.78401 | 86° | 93km/h | 9358m | -6m/s | 0°C | 0% | 0hPa | 0V | 00:00:00 | 00:00:00 | 00:00:00 | |
| DK7TD | 2026-09-01 14:27:05 | 49.74658 | 8.78508 | 86° | 91km/h | 9334m | -6.1m/s | -41.4°C | 0% | 0hPa | 4.4V | 00:00:00 | 00:00:00 | 00:00:00 | |
| DN1GJH-1 | 2026-09-01 14:27:03 | 49.74656 | 8.78472 | 86° | 91km/h | 9340m | -6.2m/s | -41.5°C | 0% | 0hPa | 4.4V | 00:00:00 | 00:00:00 | 00:00:00 | |
| DO3MHA-11 | 2026-09-01 14:27:01 | 49.74652 | 8.78401 | 87° | 99km/h | 9358m | -6.0m/s | 0°C | 0% | 0hPa | 4.4V | 00:00:00 | 00:00:00 | 00:00:00 | |
| DB0NH | 2026-09-01 14:27:00 | 49.74651 | 8.78365 | 92° | 99km/h | 9364m | -5.9m/s | 0°C | 0% | 0hPa | 4.4V | 00:00:00 | 00:00:00 | 00:00:00 | |
| DO3DL | 2026-09-01 14:26:59 | 49.74651 | 8.78326 | 93° | 99km/h | 9364m | -5.9m/s | -41.6°C | 0% | 0hPa | 4.4V | 00:00:00 | 00:00:00 | 00:00:00 | |
| HSKMA3-T | 2026-09-01 14:26:56 | 49.74655 | 8.78208 | 93° | 100km/h | 9383m | -6m/s | -41.8°C | 0% | 0hPa | 4.4V | 00:00:00 | 00:00:00 | 00:00:00 | |
| DL1NUX | 2026-09-01 14:26:56 | 49.74651 | 8.78015 | 85° | 100km/h | 9418m | -6.2m/s | 0°C | 0% | 0hPa | 0V | 00:00:00 | 00:00:00 | 00:00:00 | |
| NBG1-10 | 2026-09-01 14:26:55 | 49.74656 | 8.78169 | 91° | 99km/h | 9394m | -5.8m/s | 0°C | 0% | 0hPa | 4.4V | 00:00:00 | 00:00:00 | 00:00:00 | |
| DK7TD | 2026-09-01 14:26:54 | 49.74655 | 8.78092 | 86° | 99km/h | 9400m | -6.2m/s | -41.9°C | 0% | 0hPa | 4.4V | 00:00:00 | 00:00:00 | 00:00:00 | |
| BEGRI65-1 | 2026-09-01 14:26:53 | 49.74653 | 8.78053 | 86° | 99km/h | 9406m | -6.3m/s | -42.0°C | 0% | 0hPa | 4.4V | 00:00:00 | 00:00:00 | 00:00:00 | |
| DO3DL | 2026-09-01 14:26:52 | 49.74653 | 8.78053 | 86° | 99km/h | 9406m | -6.3m/s | -42.0°C | 0% | 0hPa | 4.4V | 00:00:00 | 00:00:00 | 00:00:00 | |
| DO3MHA-11 | 2026-09-01 14:26:51 | 49.74651 | 8.78015 | 86° | 99km/h | 9418m | -6.2m/s | 0°C | 0% | 0hPa | 4.4V | 00:00:00 | 00:00:00 | 00:00:00 | |
| CB1BUN | 2026-09-01 14:26:50 | 49.74649 | 8.77976 | 88° | 100km/h | 9418m | -6.2m/s | -42.1°C | 0% | 0hPa | 4.4V | 00:00:00 | 00:00:00 | 00:00:00 | |
| DO3DL | 2026-09-01 14:26:46 | 49.74652 | 8.77823 | 96° | 97km/h | 9441m | -6.0m/s | -42.3°C | 0% | 0hPa | 4.4V | 00:00:00 | 00:00:00 | 00:00:00 | |
| HSKMA3-T | 2026-09-01 14:26:45 | 49.74655 | 8.77748 | 91° | 97km/h | 9451m | -5.4m/s | -42.4°C | 0% | 0hPa | 4.4V | 00:00:00 | 00:00:00 | 00:00:00 | |
| DB0UT-7 | 2026-09-01 14:26:44 | 49.74655 | 8.77748 | 92° | 97km/h | 9457m | -5.5m/s | 0°C | 0% | 0hPa | 4.4V | 00:00:00 | 00:00:00 | 00:00:00 | |
| BIOWL1-15 | 2026-09-01 14:26:43 | 49.74653 | 8.77671 | 86° | 100km/h | 9462m | -5.5m/s | -42.4°C | 0% | 0hPa | 4.4V | 00:00:00 | 00:00:00 | 00:00:00 | |
| SO1NDE-10 | 2026-09-01 14:26:41 | 49.74651 | 8.77632 | 88° | 97km/h | 9473m | -5.7m/s | 0°C | 0% | 0hPa | 0V | 00:00:00 | 00:00:00 | 00:00:00 | |
| DF1GD-15 | 2026-09-01 14:26:40 | 49.74649 | 8.77553 | 90° | 99km/h | 9479m | -5.9m/s | -42.6°C | 0% | 0hPa | 0V | 00:00:00 | 00:00:00 | 00:00:00 | |
| DF2AP-13 | 2026-09-01 14:26:39 | 49.74649 | 8.77553 | 90° | 97km/h | 9484m | -5.8m/s | 0°C | 0% | 0hPa | 0V | 00:00:00 | 00:00:00 | 00:00:00 | |
| DL1NUX | 2026-09-01 14:26:36 | 49.74651 | 8.77252 | 87° | 99km/h | 9527m | -5.9m/s | 0°C | 0% | 0hPa | 0V | 00:00:00 | 00:00:00 | 00:00:00 | |
| HSKMA3-T | 2026-09-01 14:26:34 | 49.74653 | 8.77327 | 88° | 97km/h | 9511m | -5.4m/s | -42.9°C | 0% | 0hPa | 4.4V | 00:00:00 | 00:00:00 | 00:00:00 | |
| DO3DL | 2026-09-01 14:26:33 | 49.74653 | 8.77327 | 89° | 97km/h | 9511m | -5.4m/s | -42.9°C | 0% | 0hPa | 4.4V | 00:00:00 | 00:00:00 | 00:00:00 | |
| BIOWL1-15 | 2026-09-01 14:26:32 | 49.74651 | 8.77252 | 87° | 99km/h | 9522m | -5.9m/s | -42.9°C | 0% | 0hPa | 4.4V | 00:00:00 | 00:00:00 | 00:00:00 | |
| DO3MHA-11 | 2026-09-01 14:26:31 | 49.74651 | 8.77251 | 88° | 99km/h | 9528m | -5.8m/s | 0°C | 0% | 0hPa | 0V | 00:00:00 | 00:00:00 | 00:00:00 | |
| DB0NH | 2026-09-01 14:26:30 | 49.74650 | 8.77213 | 92° | 99km/h | 9533m | -5.6m/s | 0°C | 0% | 0hPa | 0V | 00:00:00 | 00:00:00 | 00:00:00 | |
| DO3DL | 2026-09-01 14:26:27 | 49.74651 | 8.77096 | 92° | 99km/h | 9544m | -5.2m/s | -43.1°C | 0% | 0hPa | 0V | 00:00:00 | 00:00:00 | 00:00:00 | |
| DL1NUX | 2026-09-01 14:26:26 | 49.74648 | 8.76871 | 90° | 97km/h | 9582m | -5.8m/s | 0°C | 0% | 0hPa | 0V | 00:00:00 | 00:00:00 | 00:00:00 | |
| HSKMA3-T | 2026-09-01 14:26:24 | 49.74649 | 8.76945 | 87° | 95km/h | 9565m | -5.7m/s | -43.3°C | 0% | 0hPa | 4.4V | 00:00:00 | 00:00:00 | 00:00:00 | |
| NBG1-10 | 2026-09-01 14:26:22 | 49.74648 | 8.76907 | 88° | 99km/h | 9577m | -5.5m/s | 0°C | 0% | 0hPa | 4.4V | 00:00:00 | 00:00:00 | 00:00:00 | |
| BIOWL1-15 | 2026-09-01 14:26:21 | 49.74648 | 8.76832 | 91° | 97km/h | 9582m | -5.8m/s | -43.5°C | 0% | 0hPa | 4.4V | 00:00:00 | 00:00:00 | 00:00:00 | |
| DO3DL | 2026-09-01 14:26:20 | 49.74647 | 8.76832 | 92° | 97km/h | 9582m | -5.8m/s | -43.5°C | 0% | 0hPa | 4.4V | 00:00:00 | 00:00:00 | 00:00:00 | |
| BIOWL7-15 | 2026-09-01 14:26:19 | 49.74649 | 8.76756 | 93° | 99km/h | 9593m | -5.3m/s | -43.5°C | 0% | 0hPa | 4.4V | 00:00:00 | 00:00:00 | 00:00:00 | |
| DF1GD-15 | 2026-09-01 14:26:18 | 49.74649 | 8.76756 | 93° | 99km/h | 9593m | -5.3m/s | -43.5°C | 0% | 0hPa | 4.4V | 00:00:00 | 00:00:00 | 00:00:00 | |
| DO3DL | 2026-09-01 14:26:15 | 49.74649 | 8.76604 | 88° | 99km/h | 9615m | -6.6m/s | -43.7°C | 0% | 0hPa | 4.4V | 00:00:00 | 00:00:00 | 00:00:00 | |
| DB0UT-7 | 2026-09-01 14:26:14 | 49.74649 | 8.76603 | 88° | 99km/h | 9622m | -6.6m/s | 0°C | 0% | 0hPa | 4.4V | 00:00:00 | 00:00:00 | 00:00:00 | |
| HSKMA3-T | 2026-09-01 14:26:13 | 49.74647 | 8.76528 | 88° | 97km/h | 9628m | -6.5m/s | -43.9°C | 0% | 0hPa | 4.4V | 00:00:00 | 00:00:00 | 00:00:00 | |
| BEGRI65-1 | 2026-09-01 14:26:12 | 49.74646 | 8.76490 | 90° | 97km/h | 9634m | -5.6m/s | -44.0°C | 0% | 0hPa | 4.4V | 00:00:00 | 00:00:00 | 00:00:00 | |
| BIOWL1-15 | 2026-09-01 14:26:11 | 49.74646 | 8.76452 | 90° | 97km/h | 9640m | -5.5m/s | -44°C | 0% | 0hPa | 4.4V | 00:00:00 | 00:00:00 | 00:00:00 | |
| DF2AP-13 | 2026-09-01 14:26:09 | 49.74646 | 8.76414 | 90° | 99km/h | 9650m | -5.5m/s | 0°C | 0% | 0hPa | 4.4V | 00:00:00 | 00:00:00 | 00:00:00 | |
| DO3DL | 2026-09-01 14:26:07 | 49.74645 | 8.76337 | 90° | 99km/h | 9656m | -5.9m/s | -44.2°C | 0% | 0hPa | 4.4V | 00:00:00 | 00:00:00 | 00:00:00 | |
| HSKMA3-T | 2026-09-01 14:26:02 | 49.74644 | 8.76104 | 90° | 99km/h | 9692m | -6.1m/s | -44.4°C | 0% | 0hPa | 4.4V | 00:00:00 | 00:00:00 | 00:00:00 | |
| DO3MHA-11 | 2026-09-01 14:26:01 | 49.74644 | 8.76104 | 91° | 99km/h | 9698m | -6.0m/s | 0°C | 0% | 0hPa | 4.4V | 00:00:00 | 00:00:00 | 00:00:00 | |
| BIOWL1-15 | 2026-09-01 14:26:00 | 49.74644 | 8.76028 | 89° | 97km/h | 9704m | -6m/s | -44.5°C | 0% | 0hPa | 4.4V | 00:00:00 | 00:00:00 | 00:00:00 | |
| DM0DOS-11 | 2026-09-01 14:25:59 | 49.74644 | 8.75835 | 90° | 99km/h | 9740m | -6.1m/s | 0°C | 0% | 0hPa | 0V | 00:00:00 | 00:00:00 | 00:00:00 | |
| DL1NUX | 2026-09-01 14:25:58 | 49.74644 | 8.75796 | 88° | 99km/h | 9746m | -6m/s | 0°C | 0% | 0hPa | 0V | 00:00:00 | 00:00:00 | 00:00:00 | |
| DO3DL | 2026-09-01 14:25:54 | 49.74644 | 8.75834 | 91° | 99km/h | 9734m | -6.0m/s | -44.7°C | 0% | 0hPa | 4.4V | 00:00:00 | 00:00:00 | 00:00:00 | |
| HSKMA3-T | 2026-09-01 14:25:51 | 49.74643 | 8.75683 | 90° | 95km/h | 9758m | -6.2m/s | -44.9°C | 0% | 0hPa | 4.4V | 00:00:00 | 00:00:00 | 00:00:00 | |
| BEGRI65-1 | 2026-09-01 14:25:50 | 49.74642 | 8.75683 | 90° | 95km/h | 9758m | -6.2m/s | -44.9°C | 0% | 0hPa | 4.4V | 00:00:00 | 00:00:00 | 00:00:00 | |
| DK7TD | 2026-09-01 14:25:49 | 49.74643 | 8.75645 | 91° | 97km/h | 9764m | -6.2m/s | -45°C | 0% | 0hPa | 4.4V | 00:00:00 | 00:00:00 | 00:00:00 | |
| DM0DOS-11 | 2026-09-01 14:25:49 | 49.74646 | 8.75453 | 90° | 97km/h | 9810m | -7.1m/s | 0°C | 0% | 0hPa | 0V | 00:00:00 | 00:00:00 | 00:00:00 | |
| BIOWL1-15 | 2026-09-01 14:25:49 | 49.74643 | 8.75607 | 91° | 99km/h | 9770m | -6.2m/s | -45°C | 0% | 0hPa | 4.4V | 00:00:00 | 00:00:00 | 00:00:00 | |
| DL1NUX | 2026-09-01 14:25:48 | 49.74646 | 8.75415 | 90° | 95km/h | 9810m | -7.1m/s | 0°C | 0% | 0hPa | 0V | 00:00:00 | 00:00:00 | 00:00:00 | |
| DL8DAS-14 | 2026-09-01 14:25:48 | 49.74644 | 8.75568 | 91° | 99km/h | 9776m | -6.8m/s | -45.1°C | -1.0% | -1.0hPa | 4.4V | 00:00:00 | 00:00:00 | 00:00:00 | |
| THATR2-17 | 2026-09-01 14:25:46 | 49.74647 | 8.75033 | 90° | 100km/h | 9868m | 0m/s | 0°C | 0% | 0hPa | 4.4V | 00:00:00 | 00:00:00 | 00:00:00 | |
| DB0UT-7 | 2026-09-01 14:25:44 | 49.74645 | 8.75453 | 91° | 99km/h | 9803m | -6.8m/s | 0°C | 0% | 0hPa | 4.4V | 00:00:00 | 00:00:00 | 00:00:00 | |
| DO3MHA-11 | 2026-09-01 14:25:41 | 49.74645 | 8.75341 | 90° | 99km/h | 9824m | -7.0m/s | 0°C | 0% | 0hPa | 4.4V | 00:00:00 | 00:00:00 | 00:00:00 | |
| HSKMA3-T | 2026-09-01 14:25:40 | 49.74645 | 8.75304 | 90° | 97km/h | 9824m | -7.1m/s | -45.5°C | 0% | 0hPa | 4.4V | 00:00:00 | 00:00:00 | 00:00:00 | |
| BIOWL1-15 | 2026-09-01 14:25:40 | 49.74645 | 8.75189 | 91° | 100km/h | 9843m | -6.1m/s | -45.7°C | 0% | 0hPa | 4.4V | 00:00:00 | 00:00:00 | 00:00:00 | |
| DF2AP-13 | 2026-09-01 14:25:39 | 49.74645 | 8.75266 | 90° | 100km/h | 9843m | -6.1m/s | 0°C | 0% | 0hPa | 0V | 00:00:00 | 00:00:00 | 00:00:00 | |
| DM0DOS-11 | 2026-09-01 14:25:38 | 49.74648 | 8.75033 | 90° | 100km/h | 9875m | -6.7m/s | 0°C | 0% | 0hPa | 0V | 00:00:00 | 00:00:00 | 00:00:00 | |
| DK7TD | 2026-09-01 14:25:37 | 49.74646 | 8.75150 | 92° | 100km/h | 9849m | -6.1m/s | -45.7°C | 0% | 0hPa | 4.4V | 00:00:00 | 00:00:00 | 00:00:00 | |
| DO3DL | 2026-09-01 14:25:35 | 49.74646 | 8.75111 | 93° | 100km/h | 9855m | -6.7m/s | -45.8°C | 0% | 0hPa | 4.4V | 00:00:00 | 00:00:00 | 00:00:00 | |
| HSKMA3-T | 2026-09-01 14:25:30 | 49.74648 | 8.74878 | 90° | 99km/h | 9894m | -6.2m/s | -46.1°C | 0% | 0hPa | 4.4V | 00:00:00 | 00:00:00 | 00:00:00 | |
| BIOWL1-15 | 2026-09-01 14:25:29 | 49.74648 | 8.74802 | 91° | 99km/h | 9906m | -6.3m/s | -46.1°C | 0% | 0hPa | 4.4V | 00:00:00 | 00:00:00 | 00:00:00 | |
| CB1BUN | 2026-09-01 14:25:29 | 49.74648 | 8.74840 | 91° | 97km/h | 9900m | -6.2m/s | -46.1°C | 0% | 0hPa | 0V | 00:00:00 | 00:00:00 | 00:00:00 | |
| DL1NUX | 2026-09-01 14:25:28 | 49.74650 | 8.74647 | 92° | 100km/h | 9936m | -6m/s | 0°C | 0% | 0hPa | 0V | 00:00:00 | 00:00:00 | 00:00:00 | |
| DJTTGO | 2026-09-01 14:25:25 | 49.74649 | 8.74686 | 93° | 99km/h | 9925m | -6.1m/s | -46.1°C | 0% | 0hPa | 4.4V | 00:00:00 | 00:00:00 | 00:00:00 | |
| DK7TD | 2026-09-01 14:25:23 | 49.74651 | 8.74608 | 92° | 100km/h | 9936m | -6m/s | -46.1°C | 0% | 0hPa | 4.4V | 00:00:00 | 00:00:00 | 00:00:00 | |
| DO3DL | 2026-09-01 14:25:22 | 49.74651 | 8.74608 | 93° | 100km/h | 9936m | -6.0m/s | -46.1°C | 0% | 0hPa | 4.4V | 00:00:00 | 00:00:00 | 00:00:00 | |
| DO3MHA-11 | 2026-09-01 14:25:21 | 49.74652 | 8.74569 | 92° | 100km/h | 9948m | -5.9m/s | 0°C | 0% | 0hPa | 4.4V | 00:00:00 | 00:00:00 | 00:00:00 | |
| HSKMA3-T | 2026-09-01 14:25:19 | 49.74654 | 8.74451 | 93° | 102km/h | 9960m | -6.1m/s | -46.1°C | 0% | 0hPa | 4.4V | 00:00:00 | 00:00:00 | 00:00:00 | |
| DL1NUX | 2026-09-01 14:25:18 | 49.74660 | 8.74254 | 92° | 100km/h | 9995m | -6m/s | 0°C | 0% | 0hPa | 0V | 00:00:00 | 00:00:00 | 00:00:00 | |
| BIOWL1-15 | 2026-09-01 14:25:17 | 49.74657 | 8.74372 | 93° | 102km/h | 9971m | -6m/s | -46.1°C | 0% | 0hPa | 4.4V | 00:00:00 | 00:00:00 | 00:00:00 | |
| NBG1-10 | 2026-09-01 14:25:16 | 49.74657 | 8.74372 | 93° | 99km/h | 9977m | -5.9m/s | 0°C | 0% | 0hPa | 4.4V | 00:00:00 | 00:00:00 | 00:00:00 | |
| DK7TD | 2026-09-01 14:25:13 | 49.74661 | 8.74214 | 93° | 100km/h | 9995m | -6m/s | -46.3°C | 0% | 0hPa | 4.4V | 00:00:00 | 00:00:00 | 00:00:00 | |
| DO3MHA-11 | 2026-09-01 14:25:11 | 49.74662 | 8.74175 | 93° | 100km/h | 10007m | -5.8m/s | 0°C | 0% | 0hPa | 0V | 00:00:00 | 00:00:00 | 00:00:00 | |
| DO3DL | 2026-09-01 14:25:10 | 49.74664 | 8.74136 | 94° | 102km/h | 10007m | -5.8m/s | -46.4°C | 0% | 0hPa | 0V | 00:00:00 | 00:00:00 | 00:00:00 | |
| BEGRI65-1 | 2026-09-01 14:25:09 | 49.74665 | 8.74096 | 94° | 102km/h | 10013m | -6.0m/s | -46.4°C | 0% | 0hPa | 0V | 00:00:00 | 00:00:00 | 00:00:00 | |
| DL1NUX | 2026-09-01 14:25:08 | 49.74673 | 8.73863 | 94° | 99km/h | 10054m | -6m/s | 0°C | 0% | 0hPa | 0V | 00:00:00 | 00:00:00 | 00:00:00 | |
| HSKMA3-T | 2026-09-01 14:25:08 | 49.74668 | 8.74017 | 93° | 102km/h | 10025m | -6m/s | -46.4°C | 0% | 0hPa | 4.4V | 00:00:00 | 00:00:00 | 00:00:00 | |
| DF2AP-13 | 2026-09-01 14:25:08 | 49.74666 | 8.74056 | 93° | 99km/h | 10025m | -5.9m/s | 0°C | 0% | 0hPa | 4.4V | 00:00:00 | 00:00:00 | 00:00:00 | |
| BIOWL1-15 | 2026-09-01 14:25:06 | 49.74670 | 8.73939 | 93° | 99km/h | 10036m | -5.8m/s | -46.5°C | 0% | 0hPa | 4.4V | 00:00:00 | 00:00:00 | 00:00:00 | |
| DO3DL | 2026-09-01 14:25:04 | 49.74672 | 8.73901 | 95° | 99km/h | 10042m | -5.9m/s | -46.5°C | 0% | 0hPa | 4.4V | 00:00:00 | 00:00:00 | 00:00:00 | |
| DO3MHA-11 | 2026-09-01 14:25:01 | 49.74677 | 8.73786 | 95° | 97km/h | 10066m | -5.9m/s | 0°C | 0% | 0hPa | 4.4V | 00:00:00 | 00:00:00 | 00:00:00 | |
| DK7TD | 2026-09-01 14:25:00 | 49.74681 | 8.73709 | 94° | 99km/h | 10072m | -6.1m/s | -46.8°C | 0% | 0hPa | 4.4V | 00:00:00 | 00:00:00 | 00:00:00 | |
| DB0NH | 2026-09-01 14:25:00 | 49.74680 | 8.73748 | 95° | 99km/h | 10072m | -6.0m/s | 0°C | 0% | 0hPa | 0V | 00:00:00 | 00:00:00 | 00:00:00 | |
| HEMX73-11 | 2026-09-01 14:24:58 | 49.74683 | 8.73671 | 94° | 99km/h | 10078m | -6.1m/s | -46.8°C | 0% | 0hPa | 0V | 00:00:00 | 00:00:00 | 00:00:00 | |
| DM0DOS-11 | 2026-09-01 14:24:57 | 49.74694 | 8.73446 | 95° | 97km/h | 10118m | -6m/s | 0°C | 0% | 0hPa | 0V | 00:00:00 | 00:00:00 | 00:00:00 | |
| HSKMA3-T | 2026-09-01 14:24:57 | 49.74686 | 8.73594 | 94° | 97km/h | 10089m | -5.9m/s | -46.9°C | 0% | 0hPa | 4.4V | 00:00:00 | 00:00:00 | 00:00:00 | |
| BIOWL1-15 | 2026-09-01 14:24:56 | 49.74689 | 8.73520 | 95° | 95km/h | 10101m | -5.8m/s | -47°C | 0% | 0hPa | 4.4V | 00:00:00 | 00:00:00 | 00:00:00 | |
| DF1GD-15 | 2026-09-01 14:24:56 | 49.74685 | 8.73594 | 95° | 97km/h | 10089m | -5.9m/s | -46.9°C | 0% | 0hPa | 4.4V | 00:00:00 | 00:00:00 | 00:00:00 | |
| DO3MHA-11 | 2026-09-01 14:24:51 | 49.74696 | 8.73408 | 94° | 99km/h | 10125m | -6.0m/s | 0°C | 0% | 0hPa | 4.4V | 00:00:00 | 00:00:00 | 00:00:00 | |
| DO3DL | 2026-09-01 14:24:50 | 49.74698 | 8.73370 | 95° | 99km/h | 10125m | -6.1m/s | -47.1°C | 0% | 0hPa | 4.4V | 00:00:00 | 00:00:00 | 00:00:00 | |
| DK7TD | 2026-09-01 14:24:49 | 49.74700 | 8.73294 | 92° | 99km/h | 10136m | -6m/s | -47.2°C | 0% | 0hPa | 4.4V | 00:00:00 | 00:00:00 | 00:00:00 | |
| DL1NUX | 2026-09-01 14:24:48 | 49.74707 | 8.73104 | 93° | 99km/h | 10171m | -6m/s | 0°C | 0% | 0hPa | 0V | 00:00:00 | 00:00:00 | 00:00:00 | |
| HSKMA3-T | 2026-09-01 14:24:47 | 49.74702 | 8.73218 | 93° | 97km/h | 10147m | -5.9m/s | -47.3°C | 0% | 0hPa | 4.4V | 00:00:00 | 00:00:00 | 00:00:00 | |
| BIOWL1-15 | 2026-09-01 14:24:44 | 49.74707 | 8.73104 | 93° | 99km/h | 10165m | -6m/s | -47.4°C | 0% | 0hPa | 4.4V | 00:00:00 | 00:00:00 | 00:00:00 | |
| NBG1-10 | 2026-09-01 14:24:43 | 49.74707 | 8.73104 | 94° | 97km/h | 10171m | -6.0m/s | 0°C | 0% | 0hPa | 4.4V | 00:00:00 | 00:00:00 | 00:00:00 | |
| DO3MHA-11 | 2026-09-01 14:24:41 | 49.74709 | 8.73027 | 92° | 99km/h | 10183m | -6.0m/s | 0°C | 0% | 0hPa | 4.4V | 00:00:00 | 00:00:00 | 00:00:00 | |
| DN1GJH-1 | 2026-09-01 14:24:40 | 49.74709 | 8.72988 | 92° | 99km/h | 10183m | -6.0m/s | -47.5°C | 0% | 0hPa | 4.4V | 00:00:00 | 00:00:00 | 00:00:00 | |
| DK7TD | 2026-09-01 14:24:38 | 49.74711 | 8.72873 | 92° | 97km/h | 10201m | -6m/s | -47.6°C | 0% | 0hPa | 4.4V | 00:00:00 | 00:00:00 | 00:00:00 | |
| DL1NUX | 2026-09-01 14:24:38 | 49.74715 | 8.72720 | 92° | 99km/h | 10230m | -6m/s | 0°C | 0% | 0hPa | 0V | 00:00:00 | 00:00:00 | 00:00:00 | |
| DM7RM-13 | 2026-09-01 14:24:38 | 49.74711 | 8.72873 | 93° | 97km/h | 10201m | -6.0m/s | 0°C | 0% | 0hPa | 4.4V | 00:00:00 | 00:00:00 | 00:00:00 | |
| DO3DL | 2026-09-01 14:24:37 | 49.74711 | 8.72873 | 93° | 97km/h | 10201m | -6.0m/s | -47.6°C | 0% | 0hPa | 4.4V | 00:00:00 | 00:00:00 | 00:00:00 | |
| DF1GD-15 | 2026-09-01 14:24:36 | 49.74712 | 8.72835 | 93° | 99km/h | 10207m | -5.9m/s | -47.7°C | 0% | 0hPa | 4.4V | 00:00:00 | 00:00:00 | 00:00:00 | |
| HSKMA3-T | 2026-09-01 14:24:35 | 49.74713 | 8.72797 | 92° | 99km/h | 10213m | -6m/s | -47.7°C | 0% | 0hPa | 4.4V | 00:00:00 | 00:00:00 | 00:00:00 | |
| BIOWL1-15 | 2026-09-01 14:24:34 | 49.74715 | 8.72720 | 92° | 99km/h | 10225m | -6m/s | -47.8°C | 0% | 0hPa | 4.4V | 00:00:00 | 00:00:00 | 00:00:00 | |
| DO3MHA-11 | 2026-09-01 14:24:31 | 49.74717 | 8.72644 | 93° | 97km/h | 10242m | -5.8m/s | 0°C | 0% | 0hPa | 0V | 00:00:00 | 00:00:00 | 00:00:00 | |
| DB0NH | 2026-09-01 14:24:30 | 49.74718 | 8.72606 | 93° | 97km/h | 10248m | -5.9m/s | 0°C | 0% | 0hPa | 0V | 00:00:00 | 00:00:00 | 00:00:00 | |
| BEGRI65-1 | 2026-09-01 14:24:28 | 49.74719 | 8.72530 | 93° | 97km/h | 10254m | -5.9m/s | -48.1°C | 0% | 0hPa | 0V | 00:00:00 | 00:00:00 | 00:00:00 | |
| DM0DOS-11 | 2026-09-01 14:24:27 | 49.74722 | 8.72304 | 90° | 97km/h | 10295m | -5.8m/s | 0°C | 0% | 0hPa | 0V | 00:00:00 | 00:00:00 | 00:00:00 | |
| DK7TD | 2026-09-01 14:24:27 | 49.74721 | 8.72454 | 91° | 97km/h | 10266m | -5.9m/s | -48.1°C | 0% | 0hPa | 4.4V | 00:00:00 | 00:00:00 | 00:00:00 | |
| HSKMA3-T | 2026-09-01 14:24:25 | 49.74721 | 8.72379 | 91° | 95km/h | 10278m | -5.7m/s | -48.2°C | 0% | 0hPa | 4.4V | 00:00:00 | 00:00:00 | 00:00:00 | |
| BIOWL1-15 | 2026-09-01 14:24:25 | 49.74722 | 8.72304 | 90° | 97km/h | 10289m | -5.9m/s | -48.2°C | 0% | 0hPa | 4.4V | 00:00:00 | 00:00:00 | 00:00:00 | |
| DO3DL | 2026-09-01 14:24:24 | 49.74721 | 8.72379 | 92° | 95km/h | 10278m | -5.7m/s | -48.2°C | 0% | 0hPa | 0V | 00:00:00 | 00:00:00 | 00:00:00 | |
| DO3MHA-11 | 2026-09-01 14:24:21 | 49.74722 | 8.72267 | 91° | 97km/h | 10301m | -5.8m/s | 0°C | 0% | 0hPa | 0V | 00:00:00 | 00:00:00 | 00:00:00 | |
| DN1GJH-1 | 2026-09-01 14:24:19 | 49.74723 | 8.72192 | 92° | 97km/h | 10307m | -5.8m/s | -48.3°C | 0% | 0hPa | 0V | 00:00:00 | 00:00:00 | 00:00:00 | |
| DL1NUX | 2026-09-01 14:24:18 | 49.74722 | 8.71966 | 89° | 95km/h | 10348m | -5.8m/s | 0°C | 0% | 0hPa | 0V | 00:00:00 | 00:00:00 | 00:00:00 | |
| HEMX73-11 | 2026-09-01 14:24:18 | 49.74723 | 8.72116 | 91° | 97km/h | 10319m | -5.9m/s | -48.4°C | 0% | 0hPa | 4.4V | 00:00:00 | 00:00:00 | 00:00:00 | |
| DM7RM-13 | 2026-09-01 14:24:17 | 49.74723 | 8.72116 | 91° | 97km/h | 10319m | -5.9m/s | 0°C | 0% | 0hPa | 4.4V | 00:00:00 | 00:00:00 | 00:00:00 | |
| DK7TD | 2026-09-01 14:24:16 | 49.74723 | 8.72041 | 90° | 95km/h | 10330m | -5.7m/s | -48.5°C | 0% | 0hPa | 4.4V | 00:00:00 | 00:00:00 | 00:00:00 | |
| DF1GD-15 | 2026-09-01 14:24:15 | 49.74723 | 8.72041 | 91° | 95km/h | 10331m | -5.7m/s | -48.5°C | 0% | 0hPa | 4.4V | 00:00:00 | 00:00:00 | 00:00:00 | |
| HSKMA3-T | 2026-09-01 14:24:14 | 49.74722 | 8.71966 | 89° | 95km/h | 10342m | -5.7m/s | -48.6°C | 0% | 0hPa | 4.4V | 00:00:00 | 00:00:00 | 00:00:00 | |
| BIOWL1-15 | 2026-09-01 14:24:14 | 49.74722 | 8.71892 | 90° | 97km/h | 10354m | -6m/s | -48.7°C | 0% | 0hPa | 4.4V | 00:00:00 | 00:00:00 | 00:00:00 | |
| DB0UT-7 | 2026-09-01 14:24:13 | 49.74722 | 8.71966 | 90° | 99km/h | 10348m | -5.8m/s | 0°C | 0% | 0hPa | 0V | 00:00:00 | 00:00:00 | 00:00:00 | |
| DO3MHA-11 | 2026-09-01 14:24:11 | 49.74722 | 8.71892 | 90° | 99km/h | 10360m | -5.9m/s | 0°C | 0% | 0hPa | 0V | 00:00:00 | 00:00:00 | 00:00:00 | |
| NBG1-10 | 2026-09-01 14:24:10 | 49.74721 | 8.71854 | 89° | 99km/h | 10366m | -5.9m/s | 0°C | 0% | 0hPa | 0V | 00:00:00 | 00:00:00 | 00:00:00 | |
| DL1NUX | 2026-09-01 14:24:08 | 49.74717 | 8.71586 | 89° | 97km/h | 10407m | -6.1m/s | 0°C | 0% | 0hPa | 0V | 00:00:00 | 00:00:00 | 00:00:00 | |
| DF2AP-13 | 2026-09-01 14:24:08 | 49.74721 | 8.71778 | 89° | 99km/h | 10378m | -5.9m/s | 0°C | 0% | 0hPa | 4.4V | 00:00:00 | 00:00:00 | 00:00:00 | |
| CB1BUN | 2026-09-01 14:24:07 | 49.74719 | 8.71701 | 89° | 99km/h | 10384m | -5.9m/s | -48.8°C | 0% | 0hPa | 4.4V | 00:00:00 | 00:00:00 | 00:00:00 | |
| DK7TD | 2026-09-01 14:24:06 | 49.74719 | 8.71662 | 88° | 99km/h | 10389m | -5.9m/s | -48.8°C | 0% | 0hPa | 4.4V | 00:00:00 | 00:00:00 | 00:00:00 | |
| HSKMA3-T | 2026-09-01 14:24:04 | 49.74717 | 8.71586 | 89° | 97km/h | 10401m | -6m/s | -48.9°C | 0% | 0hPa | 4.4V | 00:00:00 | 00:00:00 | 00:00:00 | |
| DO3DL | 2026-09-01 14:24:03 | 49.74717 | 8.71548 | 90° | 97km/h | 10407m | -6.1m/s | -48.9°C | 0% | 0hPa | 0V | 00:00:00 | 00:00:00 | 00:00:00 | |
| DO3MHA-11 | 2026-09-01 14:24:01 | 49.74717 | 8.71510 | 89° | 99km/h | 10419m | -5.8m/s | 0°C | 0% | 0hPa | 0V | 00:00:00 | 00:00:00 | 00:00:00 | |
| BIOWL1-15 | 2026-09-01 14:24:01 | 49.74716 | 8.71472 | 89° | 99km/h | 10419m | -5.8m/s | -49°C | 0% | 0hPa | 4.4V | 00:00:00 | 00:00:00 | 00:00:00 | |
| DB0NH | 2026-09-01 14:24:00 | 49.74716 | 8.71472 | 89° | 100km/h | 10425m | -5.5m/s | 0°C | 0% | 0hPa | 0V | 00:00:00 | 00:00:00 | 00:00:00 | |
| DN1GJH-1 | 2026-09-01 14:23:58 | 49.74715 | 8.71395 | 89° | 99km/h | 10430m | -5.9m/s | -49.1°C | 0% | 0hPa | 0V | 00:00:00 | 00:00:00 | 00:00:00 | |
| DM0DOS-11 | 2026-09-01 14:23:57 | 49.74709 | 8.71165 | 87° | 99km/h | 10470m | -5.6m/s | 0°C | 0% | 0hPa | 0V | 00:00:00 | 00:00:00 | 00:00:00 | |
| DO3DL | 2026-09-01 14:23:56 | 49.74714 | 8.71318 | 89° | 99km/h | 10442m | -5.7m/s | -49.2°C | 0% | 0hPa | 4.4V | 00:00:00 | 00:00:00 | 00:00:00 | |
| DK7TD | 2026-09-01 14:23:55 | 49.74712 | 8.71241 | 88° | 99km/h | 10453m | -5.7m/s | -49.3°C | 0% | 0hPa | 4.4V | 00:00:00 | 00:00:00 | 00:00:00 | |
| DL8DAS-15 | 2026-09-01 14:23:54 | 49.74712 | 8.71241 | 89° | 99km/h | 10453m | -5.7m/s | -49.3°C | 0% | 0hPa | 4.4V | 00:00:00 | 00:00:00 | 00:00:00 | |
| HSKMA3-T | 2026-09-01 14:23:53 | 49.74709 | 8.71165 | 87° | 99km/h | 10465m | -5.9m/s | -49.4°C | 0% | 0hPa | 4.4V | 00:00:00 | 00:00:00 | 00:00:00 | |
| BIOWL1-15 | 2026-09-01 14:23:52 | 49.74707 | 8.71088 | 88° | 99km/h | 10476m | -5.9m/s | -49.4°C | 0% | 0hPa | 4.4V | 00:00:00 | 00:00:00 | 00:00:00 | |
| DO3MHA-11 | 2026-09-01 14:23:51 | 49.74708 | 8.71127 | 88° | 100km/h | 10477m | -5.9m/s | 0°C | 0% | 0hPa | 0V | 00:00:00 | 00:00:00 | 00:00:00 | |
| DO3DL | 2026-09-01 14:23:49 | 49.74706 | 8.71050 | 88° | 99km/h | 10482m | -5.7m/s | -49.5°C | 0% | 0hPa | 0V | 00:00:00 | 00:00:00 | 00:00:00 | |
| DL1NUX | 2026-09-01 14:23:48 | 49.74700 | 8.70817 | 88° | 100km/h | 10522m | -5.8m/s | 0°C | 0% | 0hPa | 0V | 00:00:00 | 00:00:00 | 00:00:00 | |
| BEGRI65-1 | 2026-09-01 14:23:46 | 49.74703 | 8.70934 | 89° | 100km/h | 10499m | -5.6m/s | -49.6°C | 0% | 0hPa | 4.4V | 00:00:00 | 00:00:00 | 00:00:00 | |
| KANTATE | 2026-09-01 14:23:45 | 49.74702 | 8.70895 | 89° | 100km/h | 10505m | -5.9m/s | -49.7°C | 0% | 0hPa | 4.4V | 00:00:00 | 00:00:00 | 00:00:00 | |
| DK7TD | 2026-09-01 14:23:44 | 49.74700 | 8.70817 | 88° | 100km/h | 10517m | -5.8m/s | -49.7°C | 0% | 0hPa | 4.4V | 00:00:00 | 00:00:00 | 00:00:00 | |
| DB0UT-7 | 2026-09-01 14:23:43 | 49.74700 | 8.70817 | 89° | 106km/h | 10523m | -5.8m/s | 0°C | 0% | 0hPa | 4.4V | 00:00:00 | 00:00:00 | 00:00:00 | |
| HSKMA3-T | 2026-09-01 14:23:42 | 49.74698 | 8.70738 | 88° | 100km/h | 10528m | -5.9m/s | -49.8°C | 0% | 0hPa | 4.4V | 00:00:00 | 00:00:00 | 00:00:00 | |
| BIOWL1-15 | 2026-09-01 14:23:41 | 49.74697 | 8.70659 | 88° | 102km/h | 10540m | -5.7m/s | -49.9°C | 0% | 0hPa | 4.4V | 00:00:00 | 00:00:00 | 00:00:00 | |
| DL1NUX | 2026-09-01 14:23:38 | 49.74693 | 8.70414 | 88° | 106km/h | 10581m | -5.9m/s | 0°C | 0% | 0hPa | 0V | 00:00:00 | 00:00:00 | 00:00:00 | |
| DF2AP-13 | 2026-09-01 14:23:38 | 49.74696 | 8.70619 | 89° | 108km/h | 10552m | -5.8m/s | 0°C | 0% | 0hPa | 0V | 00:00:00 | 00:00:00 | 00:00:00 | |
| DM0DOS-11 | 2026-09-01 14:23:37 | 49.74692 | 8.70373 | 88° | 106km/h | 10587m | -5.9m/s | 0°C | 0% | 0hPa | 0V | 00:00:00 | 00:00:00 | 00:00:00 | |
| DO3DL | 2026-09-01 14:23:37 | 49.74695 | 8.70537 | 90° | 106km/h | 10557m | -5.8m/s | -50.1°C | 0% | 0hPa | 4.4V | 00:00:00 | 00:00:00 | 00:00:00 | |
| DM7RM-13 | 2026-09-01 14:23:36 | 49.74695 | 8.70537 | 90° | 106km/h | 10557m | -5.8m/s | 0°C | 0% | 0hPa | 4.4V | 00:00:00 | 00:00:00 | 00:00:00 | |
| DF1GD-15 | 2026-09-01 14:23:34 | 49.74694 | 8.70455 | 90° | 106km/h | 10569m | -6.1m/s | -50.1°C | 0% | 0hPa | 4.4V | 00:00:00 | 00:00:00 | 00:00:00 | |
| DK7TD | 2026-09-01 14:23:33 | 49.74692 | 8.70373 | 88° | 106km/h | 10581m | -5.9m/s | -50.2°C | 0% | 0hPa | 4.4V | 00:00:00 | 00:00:00 | 00:00:00 | |
| HSKMA3-T | 2026-09-01 14:23:31 | 49.74691 | 8.70291 | 89° | 104km/h | 10593m | -5.8m/s | -50.3°C | 0% | 0hPa | 4.4V | 00:00:00 | 00:00:00 | 00:00:00 | |
| DB0NH | 2026-09-01 14:23:30 | 49.74691 | 8.70291 | 90° | 110km/h | 10599m | -5.7m/s | 0°C | 0% | 0hPa | 4.4V | 00:00:00 | 00:00:00 | 00:00:00 | |
| BIOWL1-15 | 2026-09-01 14:23:28 | 49.74691 | 8.70208 | 90° | 108km/h | 10604m | -5.6m/s | -50.4°C | 0% | 0hPa | 4.4V | 00:00:00 | 00:00:00 | 00:00:00 | |
| DL1NUX | 2026-09-01 14:23:28 | 49.74689 | 8.69998 | 89° | 108km/h | 10638m | -5.8m/s | 0°C | 0% | 0hPa | 0V | 00:00:00 | 00:00:00 | 00:00:00 | |
| DM0DOS-11 | 2026-09-01 14:23:27 | 49.74688 | 8.69956 | 89° | 108km/h | 10644m | -5.9m/s | 0°C | 0% | 0hPa | 0V | 00:00:00 | 00:00:00 | 00:00:00 | |
| CB1BUN | 2026-09-01 14:23:25 | 49.74689 | 8.70082 | 90° | 108km/h | 10621m | -5.6m/s | -50.6°C | 0% | 0hPa | 4.4V | 00:00:00 | 00:00:00 | 00:00:00 | |
| DK7TD | 2026-09-01 14:23:23 | 49.74688 | 8.69956 | 89° | 108km/h | 10638m | -5.8m/s | -50.7°C | 0% | 0hPa | 4.4V | 00:00:00 | 00:00:00 | 00:00:00 | |
| DO3MHA-11 | 2026-09-01 14:23:21 | 49.74688 | 8.69914 | 90° | 110km/h | 10650m | -5.6m/s | 0°C | 0% | 0hPa | 4.4V | 00:00:00 | 00:00:00 | 00:00:00 | |
| HSKMA3-T | 2026-09-01 14:23:20 | 49.74687 | 8.69830 | 90° | 108km/h | 10656m | -5.9m/s | -50.9°C | 0% | 0hPa | 4.4V | 00:00:00 | 00:00:00 | 00:00:00 | |
| DL1NUX | 2026-09-01 14:23:18 | 49.74685 | 8.69573 | 89° | 110km/h | 10697m | -5.7m/s | 0°C | 0% | 0hPa | 0V | 00:00:00 | 00:00:00 | 00:00:00 | |
| BIOWL1-15 | 2026-09-01 14:23:17 | 49.74687 | 8.69745 | 89° | 110km/h | 10668m | -5.8m/s | -51°C | 0% | 0hPa | 4.4V | 00:00:00 | 00:00:00 | 00:00:00 | |
| DM0DOS-11 | 2026-09-01 14:23:17 | 49.74685 | 8.69531 | 88° | 110km/h | 10702m | -5.7m/s | 0°C | 0% | 0hPa | 0V | 00:00:00 | 00:00:00 | 00:00:00 | |
| DM7RM-13 | 2026-09-01 14:23:16 | 49.74686 | 8.69701 | 90° | 110km/h | 10673m | -5.9m/s | 0°C | 0% | 0hPa | 4.4V | 00:00:00 | 00:00:00 | 00:00:00 | |
| DF1GD-15 | 2026-09-01 14:23:14 | 49.74685 | 8.69616 | 90° | 110km/h | 10685m | -5.9m/s | -51.1°C | 0% | 0hPa | 4.4V | 00:00:00 | 00:00:00 | 00:00:00 | |
| DB0UT-7 | 2026-09-01 14:23:13 | 49.74685 | 8.69573 | 90° | 115km/h | 10697m | -5.6m/s | 0°C | 0% | 0hPa | 4.4V | 00:00:00 | 00:00:00 | 00:00:00 | |
| DK7TD | 2026-09-01 14:23:12 | 49.74684 | 8.69488 | 89° | 110km/h | 10702m | -5.7m/s | -51.3°C | 0% | 0hPa | 4.4V | 00:00:00 | 00:00:00 | 00:00:00 | |
| DO3MHA-11 | 2026-09-01 14:23:11 | 49.74684 | 8.69488 | 89° | 113km/h | 10708m | -5.7m/s | 0°C | 0% | 0hPa | 4.4V | 00:00:00 | 00:00:00 | 00:00:00 | |
| HSKMA3-T | 2026-09-01 14:23:10 | 49.74683 | 8.69401 | 89° | 111km/h | 10714m | -5.6m/s | -51.3°C | 0% | 0hPa | 4.4V | 00:00:00 | 00:00:00 | 00:00:00 | |
| DL1NUX | 2026-09-01 14:23:08 | 49.74680 | 8.69136 | 88° | 113km/h | 10754m | -5.7m/s | 0°C | 0% | 0hPa | 0V | 00:00:00 | 00:00:00 | 00:00:00 | |
| DF2AP-13 | 2026-09-01 14:23:08 | 49.74682 | 8.69357 | 90° | 117km/h | 10726m | -5.7m/s | 0°C | 0% | 0hPa | 4.4V | 00:00:00 | 00:00:00 | 00:00:00 | |
| BIOWL1-15 | 2026-09-01 14:23:07 | 49.74682 | 8.69313 | 89° | 113km/h | 10726m | -5.8m/s | -51.4°C | 0% | 0hPa | 4.4V | 00:00:00 | 00:00:00 | 00:00:00 | |
| DM0DOS-11 | 2026-09-01 14:23:07 | 49.74679 | 8.69092 | 88° | 113km/h | 10760m | -5.8m/s | 0°C | 0% | 0hPa | 0V | 00:00:00 | 00:00:00 | 00:00:00 | |
| SO1NDE-10 | 2026-09-01 14:23:06 | 49.74682 | 8.69269 | 89° | 117km/h | 10737m | -5.6m/s | 0°C | 0% | 0hPa | 4.4V | 00:00:00 | 00:00:00 | 00:00:00 | |
| NBG1-10 | 2026-09-01 14:23:04 | 49.74680 | 8.69180 | 89° | 119km/h | 10748m | -5.8m/s | 0°C | 0% | 0hPa | 4.4V | 00:00:00 | 00:00:00 | 00:00:00 | |
| DK7TD | 2026-09-01 14:23:01 | 49.74678 | 8.69003 | 88° | 113km/h | 10766m | -5.7m/s | -51.6°C | 0% | 0hPa | 4.4V | 00:00:00 | 00:00:00 | 00:00:00 | |
| DO3MHA-11 | 2026-09-01 14:23:01 | 49.74679 | 8.69047 | 89° | 115km/h | 10766m | -5.6m/s | 0°C | 0% | 0hPa | 4.4V | 00:00:00 | 00:00:00 | 00:00:00 | |
| DB0NH | 2026-09-01 14:23:00 | 49.74678 | 8.69003 | 89° | 119km/h | 10772m | -5.8m/s | 0°C | 0% | 0hPa | 4.4V | 00:00:00 | 00:00:00 | 00:00:00 | |
| HSKMA3-T | 2026-09-01 14:22:59 | 49.74676 | 8.68914 | 88° | 113km/h | 10777m | -5.8m/s | -51.6°C | 0% | 0hPa | 4.4V | 00:00:00 | 00:00:00 | 00:00:00 | |
| BIOWL1-15 | 2026-09-01 14:22:59 | 49.74674 | 8.68824 | 88° | 115km/h | 10789m | -5.7m/s | -51.7°C | 0% | 0hPa | 4.4V | 00:00:00 | 00:00:00 | 00:00:00 | |
| DL1NUX | 2026-09-01 14:22:58 | 49.74669 | 8.68689 | 85° | 117km/h | 10811m | -5.7m/s | 0°C | 0% | 0hPa | 0V | 00:00:00 | 00:00:00 | 00:00:00 | |
| DM0DOS-11 | 2026-09-01 14:22:57 | 49.74666 | 8.68644 | 85° | 117km/h | 10816m | -5.7m/s | 0°C | 0% | 0hPa | 0V | 00:00:00 | 00:00:00 | 00:00:00 | |
| DJTTGO | 2026-09-01 14:22:57 | 49.74673 | 8.68824 | 88° | 115km/h | 10789m | -5.7m/s | 0°C | 0% | 0hPa | 4.4V | 00:00:00 | 00:00:00 | 00:00:00 | |
| DN1GJH-1 | 2026-09-01 14:22:56 | 49.74673 | 8.68824 | 88° | 115km/h | 10789m | -5.7m/s | -51.7°C | 0% | 0hPa | 4.4V | 00:00:00 | 00:00:00 | 00:00:00 | |
| DM7RM-13 | 2026-09-01 14:22:55 | 49.74672 | 8.68779 | 88° | 115km/h | 10794m | -5.7m/s | 0°C | 0% | 0hPa | 4.4V | 00:00:00 | 00:00:00 | 00:00:00 | |
| DF1GD-15 | 2026-09-01 14:22:53 | 49.74669 | 8.68689 | 87° | 117km/h | 10806m | -5.6m/s | -51.7°C | 0% | 0hPa | 4.4V | 00:00:00 | 00:00:00 | 00:00:00 | |
| DO3MHA-11 | 2026-09-01 14:22:51 | 49.74664 | 8.68598 | 86° | 119km/h | 10823m | -5.7m/s | 0°C | 0% | 0hPa | 4.4V | 00:00:00 | 00:00:00 | 00:00:00 | |
| DK7TD | 2026-09-01 14:22:50 | 49.74660 | 8.68506 | 86° | 117km/h | 10828m | -5.7m/s | -51.7°C | 0% | 0hPa | 4.4V | 00:00:00 | 00:00:00 | 00:00:00 | |
| DL1NUX | 2026-09-01 14:22:48 | 49.74646 | 8.68227 | 85° | 120km/h | 10868m | -5.7m/s | 0°C | 0% | 0hPa | 0V | 00:00:00 | 00:00:00 | 00:00:00 | |
| BIOWL1-15 | 2026-09-01 14:22:48 | 49.74650 | 8.68321 | 85° | 120km/h | 10851m | -5.7m/s | -51.8°C | 0% | 0hPa | 4.4V | 00:00:00 | 00:00:00 | 00:00:00 | |
| HSKMA3-T | 2026-09-01 14:22:44 | 49.74645 | 8.68227 | 86° | 120km/h | 10862m | -5.8m/s | -51.9°C | 0% | 0hPa | 4.4V | 00:00:00 | 00:00:00 | 00:00:00 | |
| DB0UT-7 | 2026-09-01 14:22:42 | 49.74643 | 8.68181 | 86° | 122km/h | 10886m | -5.6m/s | 0°C | 0% | 0hPa | 4.4V | 00:00:00 | 00:00:00 | 00:00:00 | |
| DO3MHA-11 | 2026-09-01 14:22:41 | 49.74640 | 8.68134 | 86° | 120km/h | 10880m | -5.8m/s | 0°C | 0% | 0hPa | 4.4V | 00:00:00 | 00:00:00 | 00:00:00 | |
| DK7TD | 2026-09-01 14:22:40 | 49.74636 | 8.68040 | 86° | 120km/h | 10885m | -5.7m/s | -52°C | 0% | 0hPa | 4.4V | 00:00:00 | 00:00:00 | 00:00:00 | |
| DF2AP-13 | 2026-09-01 14:22:38 | 49.74633 | 8.67992 | 86° | 120km/h | 10897m | -5.7m/s | 0°C | 0% | 0hPa | 4.4V | 00:00:00 | 00:00:00 | 00:00:00 | |
| BEGRI65-1 | 2026-09-01 14:22:36 | 49.74626 | 8.67851 | 87° | 120km/h | 10908m | -5.7m/s | -52.2°C | 0% | 0hPa | 4.4V | 00:00:00 | 00:00:00 | 00:00:00 | |
| BIOWL1-15 | 2026-09-01 14:22:35 | 49.74624 | 8.67804 | 86° | 120km/h | 10914m | -5.7m/s | -52.3°C | 0% | 0hPa | 4.4V | 00:00:00 | 00:00:00 | 00:00:00 | |
| DN1GJH-1 | 2026-09-01 14:22:34 | 49.74624 | 8.67804 | 87° | 120km/h | 10914m | -5.7m/s | -52.3°C | 0% | 0hPa | 4.4V | 00:00:00 | 00:00:00 | 00:00:00 | |
| HSKMA3-T | 2026-09-01 14:22:33 | 49.74622 | 8.67757 | 86° | 122km/h | 10919m | -5.5m/s | -52.3°C | 0% | 0hPa | 4.4V | 00:00:00 | 00:00:00 | 00:00:00 | |
| DF1GD-15 | 2026-09-01 14:22:33 | 49.74621 | 8.67757 | 87° | 122km/h | 10919m | -5.6m/s | -52.3°C | 0% | 0hPa | 4.4V | 00:00:00 | 00:00:00 | 00:00:00 | |
| DO3DL | 2026-09-01 14:22:32 | 49.74619 | 8.67709 | 87° | 120km/h | 10925m | -5.7m/s | -52.4°C | 0% | 0hPa | 4.4V | 00:00:00 | 00:00:00 | 00:00:00 | |
| NBG1-10 | 2026-09-01 14:22:31 | 49.74617 | 8.67662 | 86° | 120km/h | 10937m | -5.5m/s | 0°C | 0% | 0hPa | 4.4V | 00:00:00 | 00:00:00 | 00:00:00 | |
| DB0NH | 2026-09-01 14:22:30 | 49.74615 | 8.67614 | 86° | 120km/h | 10942m | -5.5m/s | 0°C | 0% | 0hPa | 4.4V | 00:00:00 | 00:00:00 | 00:00:00 | |
| DK7TD | 2026-09-01 14:22:29 | 49.74611 | 8.67519 | 86° | 122km/h | 10948m | -5.7m/s | -52.6°C | 0% | 0hPa | 4.4V | 00:00:00 | 00:00:00 | 00:00:00 | |
| DL1NUX | 2026-09-01 14:22:28 | 49.74600 | 8.67282 | 86° | 120km/h | 10982m | -5.7m/s | 0°C | 0% | 0hPa | 0V | 00:00:00 | 00:00:00 | 00:00:00 | |
| DO3DL | 2026-09-01 14:22:26 | 49.74604 | 8.67377 | 87° | 122km/h | 10965m | -5.7m/s | -52.7°C | 0% | 0hPa | 4.4V | 00:00:00 | 00:00:00 | 00:00:00 | |
| BIOWL7-15 | 2026-09-01 14:22:25 | 49.74604 | 8.67377 | 87° | 122km/h | 10965m | -5.7m/s | -52.7°C | 0% | 0hPa | 4.4V | 00:00:00 | 00:00:00 | 00:00:00 | |
| BIOWL1-15 | 2026-09-01 14:22:24 | 49.74600 | 8.67282 | 86° | 122km/h | 10976m | -5.7m/s | -52.8°C | 0% | 0hPa | 4.4V | 00:00:00 | 00:00:00 | 00:00:00 | |
| CB1BUN | 2026-09-01 14:22:23 | 49.74600 | 8.67282 | 87° | 122km/h | 10976m | -5.7m/s | -52.8°C | 0% | 0hPa | 0V | 00:00:00 | 00:00:00 | 00:00:00 | |
| DO3MHA-11 | 2026-09-01 14:22:21 | 49.74596 | 8.67187 | 87° | 122km/h | 10994m | -5.6m/s | 0°C | 0% | 0hPa | 0V | 00:00:00 | 00:00:00 | 00:00:00 | |
| DO3DL | 2026-09-01 14:22:19 | 49.74592 | 8.67092 | 88° | 122km/h | 10999m | -5.7m/s | -53.0°C | 0% | 0hPa | 0V | 00:00:00 | 00:00:00 | 00:00:00 | |
| DL1NUX | 2026-09-01 14:22:18 | 49.74583 | 8.66808 | 86° | 120km/h | 11039m | -5.6m/s | 0°C | 0% | 0hPa | 0V | 00:00:00 | 00:00:00 | 00:00:00 | |
| DK7TD | 2026-09-01 14:22:18 | 49.74589 | 8.66997 | 87° | 122km/h | 11011m | -5.6m/s | -53.1°C | 0% | 0hPa | 4.4V | 00:00:00 | 00:00:00 | 00:00:00 | |
| HSKMA3-T | 2026-09-01 14:22:15 | 49.74586 | 8.66903 | 87° | 122km/h | 11022m | -5.7m/s | -53.2°C | 0% | 0hPa | 4.4V | 00:00:00 | 00:00:00 | 00:00:00 | |
| DM7RM-13 | 2026-09-01 14:22:15 | 49.74584 | 8.66855 | 88° | 120km/h | 11028m | -5.6m/s | 0°C | 0% | 0hPa | 4.4V | 00:00:00 | 00:00:00 | 00:00:00 | |
| BIOWL1-15 | 2026-09-01 14:22:14 | 49.74583 | 8.66808 | 87° | 120km/h | 11033m | -5.6m/s | -53.3°C | 0% | 0hPa | 4.4V | 00:00:00 | 00:00:00 | 00:00:00 | |
| DO3DL | 2026-09-01 14:22:13 | 49.74581 | 8.66761 | 88° | 120km/h | 11039m | -5.6m/s | -53.3°C | 0% | 0hPa | 0V | 00:00:00 | 00:00:00 | 00:00:00 | |
| DF1GD-15 | 2026-09-01 14:22:12 | 49.74581 | 8.66761 | 88° | 120km/h | 11039m | -5.6m/s | -53.3°C | 0% | 0hPa | 0V | 00:00:00 | 00:00:00 | 00:00:00 | |
| DO3MHA-11 | 2026-09-01 14:22:11 | 49.74580 | 8.66714 | 88° | 119km/h | 11051m | -5.6m/s | 0°C | 0% | 0hPa | 0V | 00:00:00 | 00:00:00 | 00:00:00 | |
| DF2AP-13 | 2026-09-01 14:22:08 | 49.74576 | 8.66573 | 88° | 117km/h | 11068m | -5.7m/s | 0°C | 0% | 0hPa | 0V | 00:00:00 | 00:00:00 | 00:00:00 | |
| DM0DOS-11 | 2026-09-01 14:22:07 | 49.74568 | 8.66296 | 87° | 117km/h | 11102m | -5.6m/s | 0°C | 0% | 0hPa | 0V | 00:00:00 | 00:00:00 | 00:00:00 | |
| DK7TD | 2026-09-01 14:22:07 | 49.74574 | 8.66480 | 88° | 119km/h | 11073m | -5.8m/s | -53.6°C | 0% | 0hPa | 4.4V | 00:00:00 | 00:00:00 | 00:00:00 | |
| SO1NDE-10 | 2026-09-01 14:22:06 | 49.74573 | 8.66480 | 88° | 120km/h | 11079m | -5.5m/s | 0°C | 0% | 0hPa | 4.4V | 00:00:00 | 00:00:00 | 00:00:00 | |
| HSKMA3-T | 2026-09-01 14:22:05 | 49.74571 | 8.66388 | 87° | 117km/h | 11085m | -5.7m/s | -53.7°C | 0% | 0hPa | 4.4V | 00:00:00 | 00:00:00 | 00:00:00 | |
| BIOWL1-15 | 2026-09-01 14:22:04 | 49.74568 | 8.66296 | 88° | 117km/h | 11097m | -5.7m/s | -53.8°C | 0% | 0hPa | 4.4V | 00:00:00 | 00:00:00 | 00:00:00 | |
| CB1BUN | 2026-09-01 14:22:03 | 49.74570 | 8.66342 | 89° | 117km/h | 11091m | -5.7m/s | -53.7°C | 0% | 0hPa | 0V | 00:00:00 | 00:00:00 | 00:00:00 | |
| AU51GT2 | 2026-09-01 14:22:02 | 49.74567 | 8.66251 | 87° | 117km/h | 11102m | -5.6m/s | -53.8°C | -1.0% | -1.0hPa | 0V | 00:00:00 | 00:00:00 | 00:00:00 | |
| DO3MHA-11 | 2026-09-01 14:22:01 | 49.74567 | 8.66251 | 88° | 117km/h | 11108m | -5.6m/s | 0°C | 0% | 0hPa | 0V | 00:00:00 | 00:00:00 | 00:00:00 | |
| DB0NH | 2026-09-01 14:22:00 | 49.74566 | 8.66205 | 88° | 117km/h | 11114m | -5.7m/s | 0°C | 0% | 0hPa | 0V | 00:00:00 | 00:00:00 | 00:00:00 | |
| DO3DL | 2026-09-01 14:21:59 | 49.74565 | 8.66159 | 89° | 117km/h | 11114m | -5.8m/s | -53.9°C | 0% | 0hPa | 0V | 00:00:00 | 00:00:00 | 00:00:00 | |
| NBG1-10 | 2026-09-01 14:21:58 | 49.74563 | 8.66113 | 88° | 117km/h | 11125m | -5.7m/s | 0°C | 0% | 0hPa | 0V | 00:00:00 | 00:00:00 | 00:00:00 | |
| BEGRI65-1 | 2026-09-01 14:21:57 | 49.74562 | 8.66068 | 89° | 117km/h | 11125m | -5.8m/s | -53.9°C | 0% | 0hPa | 0V | 00:00:00 | 00:00:00 | 00:00:00 | |
| DM0DOS-11 | 2026-09-01 14:21:56 | 49.74555 | 8.65793 | 87° | 117km/h | 11166m | -5.7m/s | 0°C | 0% | 0hPa | 0V | 00:00:00 | 00:00:00 | 00:00:00 | |
| DK7TD | 2026-09-01 14:21:56 | 49.74560 | 8.65976 | 88° | 117km/h | 11136m | -5.7m/s | -53.9°C | 0% | 0hPa | 4.4V | 00:00:00 | 00:00:00 | 00:00:00 | |
| HSKMA3-T | 2026-09-01 14:21:54 | 49.74558 | 8.65885 | 88° | 117km/h | 11148m | -5.8m/s | -54°C | 0% | 0hPa | 4.4V | 00:00:00 | 00:00:00 | 00:00:00 | |
| DO3DL | 2026-09-01 14:21:54 | 49.74557 | 8.65885 | 89° | 117km/h | 11148m | -5.8m/s | -54.0°C | 0% | 0hPa | 4.4V | 00:00:00 | 00:00:00 | 00:00:00 | |
| DM7RM-13 | 2026-09-01 14:21:53 | 49.74557 | 8.65885 | 89° | 117km/h | 11148m | -5.8m/s | 0°C | 0% | 0hPa | 4.4V | 00:00:00 | 00:00:00 | 00:00:00 | |
| BIOWL1-15 | 2026-09-01 14:21:52 | 49.74555 | 8.65793 | 87° | 117km/h | 11160m | -5.8m/s | -54.1°C | 0% | 0hPa | 4.4V | 00:00:00 | 00:00:00 | 00:00:00 | |
| DO3MHA-11 | 2026-09-01 14:21:51 | 49.74555 | 8.65793 | 88° | 117km/h | 11166m | -5.6m/s | 0°C | 0% | 0hPa | 0V | 00:00:00 | 00:00:00 | 00:00:00 | |
| DJTTGO | 2026-09-01 14:21:49 | 49.74553 | 8.65701 | 88° | 119km/h | 11172m | -5.7m/s | -54.2°C | 0% | 0hPa | 0V | 00:00:00 | 00:00:00 | 00:00:00 | |
| DO3DL | 2026-09-01 14:21:47 | 49.74547 | 8.65564 | 88° | 117km/h | 11189m | -5.6m/s | -54.3°C | 0% | 0hPa | 0V | 00:00:00 | 00:00:00 | 00:00:00 | |
| DM0DOS-11 | 2026-09-01 14:21:46 | 49.74540 | 8.65337 | 87° | 115km/h | 11224m | -5.7m/s | 0°C | 0% | 0hPa | 0V | 00:00:00 | 00:00:00 | 00:00:00 | |
| DK7TD | 2026-09-01 14:21:46 | 49.74546 | 8.65519 | 87° | 117km/h | 11195m | -5.6m/s | -54.3°C | 0% | 0hPa | 4.4V | 00:00:00 | 00:00:00 | 00:00:00 | |
| HSKMA3-T | 2026-09-01 14:21:44 | 49.74543 | 8.65428 | 87° | 117km/h | 11206m | -5.8m/s | -54.4°C | 0% | 0hPa | 4.4V | 00:00:00 | 00:00:00 | 00:00:00 | |
| CB1BUN | 2026-09-01 14:21:42 | 49.74541 | 8.65383 | 88° | 117km/h | 11212m | -5.8m/s | -54.4°C | 0% | 0hPa | 4.4V | 00:00:00 | 00:00:00 | 00:00:00 | |
| BIOWL1-15 | 2026-09-01 14:21:41 | 49.74539 | 8.65292 | 87° | 115km/h | 11224m | -5.7m/s | -54.4°C | 0% | 0hPa | 4.4V | 00:00:00 | 00:00:00 | 00:00:00 | |
| DO3DL | 2026-09-01 14:21:40 | 49.74539 | 8.65292 | 88° | 115km/h | 11224m | -5.7m/s | -54.4°C | 0% | 0hPa | 4.4V | 00:00:00 | 00:00:00 | 00:00:00 | |
| DF2AP-13 | 2026-09-01 14:21:38 | 49.74536 | 8.65202 | 87° | 120km/h | 11241m | -5.7m/s | 0°C | 0% | 0hPa | 4.4V | 00:00:00 | 00:00:00 | 00:00:00 | |
| BEGRI65-1 | 2026-09-01 14:21:37 | 49.74534 | 8.65157 | 88° | 117km/h | 11241m | -5.8m/s | -54.5°C | 0% | 0hPa | 4.4V | 00:00:00 | 00:00:00 | 00:00:00 | |
| DK7TD | 2026-09-01 14:21:35 | 49.74529 | 8.65021 | 87° | 117km/h | 11258m | -5.8m/s | -54.6°C | 0% | 0hPa | 4.4V | 00:00:00 | 00:00:00 | 00:00:00 | |
| DO3DL | 2026-09-01 14:21:34 | 49.74529 | 8.65021 | 88° | 117km/h | 11258m | -5.8m/s | -54.6°C | 0% | 0hPa | 4.4V | 00:00:00 | 00:00:00 | 00:00:00 | |
| HSKMA3-T | 2026-09-01 14:21:33 | 49.74526 | 8.64930 | 87° | 117km/h | 11270m | -5.8m/s | -54.6°C | 0% | 0hPa | 4.4V | 00:00:00 | 00:00:00 | 00:00:00 | |
| BIOWL1-15 | 2026-09-01 14:21:33 | 49.74523 | 8.64838 | 87° | 119km/h | 11281m | -5.8m/s | -54.7°C | 0% | 0hPa | 4.4V | 00:00:00 | 00:00:00 | 00:00:00 | |
| DO3MHA-11 | 2026-09-01 14:21:31 | 49.74524 | 8.64884 | 88° | 119km/h | 11281m | -5.7m/s | 0°C | 0% | 0hPa | 0V | 00:00:00 | 00:00:00 | 00:00:00 | |
| DB0NH | 2026-09-01 14:21:30 | 49.74523 | 8.64838 | 88° | 120km/h | 11287m | -5.8m/s | 0°C | 0% | 0hPa | 0V | 00:00:00 | 00:00:00 | 00:00:00 | |
| DO3DL | 2026-09-01 14:21:27 | 49.74519 | 8.64699 | 89° | 119km/h | 11299m | -5.8m/s | -54.7°C | 0% | 0hPa | 0V | 00:00:00 | 00:00:00 | 00:00:00 | |
| DM0DOS-11 | 2026-09-01 14:21:26 | 49.74514 | 8.64418 | 88° | 122km/h | 11339m | -5.8m/s | 0°C | 0% | 0hPa | 0V | 00:00:00 | 00:00:00 | 00:00:00 | |
| NBG1-10 | 2026-09-01 14:21:25 | 49.74517 | 8.64606 | 89° | 120km/h | 11316m | -5.7m/s | 0°C | 0% | 0hPa | 4.5V | 00:00:00 | 00:00:00 | 00:00:00 | |
| DK7TD | 2026-09-01 14:21:25 | 49.74516 | 8.64560 | 88° | 120km/h | 11316m | -5.8m/s | -54.8°C | 0% | 0hPa | 4.5V | 00:00:00 | 00:00:00 | 00:00:00 | |
| DO2KSM | 2026-09-01 14:21:24 | 49.74516 | 8.64513 | 89° | 120km/h | 11322m | -5.8m/s | -54.8°C | 0% | 0hPa | 4.5V | 00:00:00 | 00:00:00 | 00:00:00 | |
| CB1BUN | 2026-09-01 14:21:22 | 49.74515 | 8.64466 | 90° | 122km/h | 11328m | -5.7m/s | -54.8°C | 0% | 0hPa | 4.5V | 00:00:00 | 00:00:00 | 00:00:00 | |
| DO3MHA-11 | 2026-09-01 14:21:21 | 49.74514 | 8.64418 | 89° | 122km/h | 11339m | -5.8m/s | 0°C | 0% | 0hPa | 4.5V | 00:00:00 | 00:00:00 | 00:00:00 | |
| HSKMA3-T | 2026-09-01 14:21:20 | 49.74513 | 8.64322 | 89° | 124km/h | 11345m | -5.8m/s | -54.9°C | 0% | 0hPa | 4.5V | 00:00:00 | 00:00:00 | 00:00:00 | |
| DL1NUX | 2026-09-01 14:21:15 | 49.74505 | 8.63891 | 88° | 120km/h | 11404m | -6m/s | 0°C | 0% | 0hPa | 0V | 00:00:00 | 00:00:00 | 00:00:00 | |
| DO3DL | 2026-09-01 14:21:15 | 49.74509 | 8.64080 | 89° | 122km/h | 11375m | -5.8m/s | -54.8°C | 0% | 0hPa | 4.5V | 00:00:00 | 00:00:00 | 00:00:00 | |
| DK7TD | 2026-09-01 14:21:13 | 49.74507 | 8.63985 | 88° | 122km/h | 11386m | -5.8m/s | -54.8°C | 0% | 0hPa | 4.5V | 00:00:00 | 00:00:00 | 00:00:00 | |
| DM7RM-13 | 2026-09-01 14:21:12 | 49.74507 | 8.63985 | 89° | 122km/h | 11387m | -5.8m/s | 0°C | 0% | 0hPa | 4.5V | 00:00:00 | 00:00:00 | 00:00:00 | |
| DO3MHA-11 | 2026-09-01 14:21:11 | 49.74506 | 8.63938 | 89° | 119km/h | 11398m | -6.0m/s | 0°C | 0% | 0hPa | 4.5V | 00:00:00 | 00:00:00 | 00:00:00 | |
| SO1NDE-10 | 2026-09-01 14:21:10 | 49.74505 | 8.63891 | 89° | 120km/h | 11404m | -5.9m/s | 0°C | 0% | 0hPa | 4.5V | 00:00:00 | 00:00:00 | 00:00:00 | |
| DN1GJH-1 | 2026-09-01 14:21:09 | 49.74504 | 8.63844 | 89° | 120km/h | 11404m | -6.0m/s | -54.9°C | 0% | 0hPa | 4.5V | 00:00:00 | 00:00:00 | 00:00:00 | |
| BIOWL1-15 | 2026-09-01 14:21:08 | 49.74503 | 8.63797 | 88° | 120km/h | 11410m | -5.8m/s | -54.9°C | 0% | 0hPa | 4.5V | 00:00:00 | 00:00:00 | 00:00:00 | |
| DF2AP-13 | 2026-09-01 14:21:08 | 49.74503 | 8.63797 | 88° | 120km/h | 11416m | -5.6m/s | 0°C | 0% | 0hPa | 0V | 00:00:00 | 00:00:00 | 00:00:00 | |
| DL1NUX | 2026-09-01 14:21:05 | 49.74490 | 8.63425 | 87° | 120km/h | 11463m | -5.9m/s | 0°C | 0% | 0hPa | 0V | 00:00:00 | 00:00:00 | 00:00:00 | |
| DK7TD | 2026-09-01 14:21:03 | 49.74493 | 8.63519 | 86° | 119km/h | 11445m | -5.8m/s | -55°C | 0% | 0hPa | 4.5V | 00:00:00 | 00:00:00 | 00:00:00 | |
| DO3MHA-11 | 2026-09-01 14:21:01 | 49.74491 | 8.63472 | 87° | 120km/h | 11457m | -5.9m/s | 0°C | 0% | 0hPa | 4.4V | 00:00:00 | 00:00:00 | 00:00:00 | |
| DB0NH | 2026-09-01 14:21:00 | 49.74490 | 8.63425 | 88° | 122km/h | 11463m | -5.9m/s | 0°C | 0% | 0hPa | 4.4V | 00:00:00 | 00:00:00 | 00:00:00 | |
| DO2KSM | 2026-09-01 14:20:59 | 49.74488 | 8.63378 | 88° | 120km/h | 11463m | -5.9m/s | -55.1°C | 0% | 0hPa | 4.4V | 00:00:00 | 00:00:00 | 00:00:00 | |
| BIOWL1-15 | 2026-09-01 14:20:58 | 49.74485 | 8.63284 | 86° | 120km/h | 11475m | -5.8m/s | -55.2°C | 0% | 0hPa | 4.4V | 00:00:00 | 00:00:00 | 00:00:00 | |
| DL8DAS-15 | 2026-09-01 14:20:56 | 49.74480 | 8.63191 | 86° | 119km/h | 11486m | -6.1m/s | -55.2°C | 0% | 0hPa | 4.4V | 00:00:00 | 00:00:00 | 00:00:00 | |
| DM0DOS-11 | 2026-09-01 14:20:56 | 49.74470 | 8.63004 | 84° | 120km/h | 11516m | -6m/s | 0°C | 0% | 0hPa | 0V | 00:00:00 | 00:00:00 | 00:00:00 | |
| DO3DL | 2026-09-01 14:20:55 | 49.74480 | 8.63191 | 86° | 119km/h | 11486m | -6.1m/s | -55.2°C | 0% | 0hPa | 4.4V | 00:00:00 | 00:00:00 | 00:00:00 | |
| DK7TD | 2026-09-01 14:20:52 | 49.74470 | 8.63004 | 85° | 120km/h | 11510m | -5.9m/s | -55.3°C | 0% | 0hPa | 4.4V | 00:00:00 | 00:00:00 | 00:00:00 | |
| NBG1-10 | 2026-09-01 14:20:52 | 49.74473 | 8.63051 | 85° | 122km/h | 11510m | -5.8m/s | 0°C | 0% | 0hPa | 4.5V | 00:00:00 | 00:00:00 | 00:00:00 | |
| DO3MHA-11 | 2026-09-01 14:20:51 | 49.74470 | 8.63004 | 85° | 122km/h | 11516m | -5.9m/s | 0°C | 0% | 0hPa | 4.5V | 00:00:00 | 00:00:00 | 00:00:00 | |
| DF1GD-15 | 2026-09-01 14:20:50 | 49.74467 | 8.62957 | 86° | 120km/h | 11516m | -6.0m/s | -55.3°C | 0% | 0hPa | 4.5V | 00:00:00 | 00:00:00 | 00:00:00 | |
| DO3DL | 2026-09-01 14:20:49 | 49.74461 | 8.62864 | 85° | 120km/h | 11528m | -5.7m/s | -55.3°C | 0% | 0hPa | 4.5V | 00:00:00 | 00:00:00 | 00:00:00 | |
| HSKMA3-T | 2026-09-01 14:20:48 | 49.74458 | 8.62816 | 84° | 120km/h | 11534m | -6m/s | -55.3°C | 0% | 0hPa | 4.5V | 00:00:00 | 00:00:00 | 00:00:00 | |
| DL1NUX | 2026-09-01 14:20:45 | 49.74435 | 8.62483 | 83° | 122km/h | 11581m | -6m/s | 0°C | 0% | 0hPa | 0V | 00:00:00 | 00:00:00 | 00:00:00 | |
| DM0DOS-11 | 2026-09-01 14:20:42 | 49.74438 | 8.62530 | 83° | 122km/h | 11575m | -6.1m/s | 0°C | 0% | 0hPa | 0V | 00:00:00 | 00:00:00 | 00:00:00 | |
| CB1BUN | 2026-09-01 14:20:41 | 49.74439 | 8.62530 | 85° | 122km/h | 11569m | -5.9m/s | -55.5°C | 0% | 0hPa | 4.5V | 00:00:00 | 00:00:00 | 00:00:00 | |
| DK7TD | 2026-09-01 14:20:41 | 49.74435 | 8.62483 | 84° | 122km/h | 11575m | -6.1m/s | -55.5°C | 0% | 0hPa | 4.5V | 00:00:00 | 00:00:00 | 00:00:00 | |
| DO3MHA-11 | 2026-09-01 14:20:40 | 49.74435 | 8.62483 | 84° | 124km/h | 11581m | -6.0m/s | 0°C | 0% | 0hPa | 4.5V | 00:00:00 | 00:00:00 | 00:00:00 | |
| BIOWL1-15 | 2026-09-01 14:20:39 | 49.74422 | 8.62292 | 84° | 124km/h | 11599m | -6.1m/s | -55.7°C | 0% | 0hPa | 4.5V | 00:00:00 | 00:00:00 | 00:00:00 | |
| HSKMA3-T | 2026-09-01 14:20:37 | 49.74425 | 8.62340 | 84° | 124km/h | 11593m | -5.8m/s | -55.7°C | 0% | 0hPa | 4.5V | 00:00:00 | 00:00:00 | 00:00:00 | |
| DM0DOS-11 | 2026-09-01 14:20:36 | 49.74406 | 8.62049 | 84° | 124km/h | 11635m | -6.2m/s | 0°C | 0% | 0hPa | 0V | 00:00:00 | 00:00:00 | 00:00:00 | |
| DL1NUX | 2026-09-01 14:20:35 | 49.74403 | 8.62001 | 84° | 124km/h | 11642m | -6.1m/s | 0°C | 0% | 0hPa | 0V | 00:00:00 | 00:00:00 | 00:00:00 | |
| DO2KSM | 2026-09-01 14:20:33 | 49.74412 | 8.62146 | 85° | 126km/h | 11617m | -6.0m/s | -55.8°C | 0% | 0hPa | 4.5V | 00:00:00 | 00:00:00 | 00:00:00 | |
| DK7TD | 2026-09-01 14:20:31 | 49.74400 | 8.61953 | 84° | 122km/h | 11642m | -6.1m/s | -55.9°C | 0% | 0hPa | 4.5V | 00:00:00 | 00:00:00 | 00:00:00 | |
| DB0NH | 2026-09-01 14:20:30 | 49.74403 | 8.62001 | 85° | 119km/h | 11642m | -6.0m/s | 0°C | 0% | 0hPa | 0V | 00:00:00 | 00:00:00 | 00:00:00 | |
| DO3MHA-11 | 2026-09-01 14:20:29 | 49.74399 | 8.61953 | 85° | 120km/h | 11648m | -6.0m/s | 0°C | 0% | 0hPa | 0V | 00:00:00 | 00:00:00 | 00:00:00 | |
| DN1GJH-1 | 2026-09-01 14:20:28 | 49.74396 | 8.61906 | 85° | 122km/h | 11648m | -6.0m/s | -55.8°C | 0% | 0hPa | 0V | 00:00:00 | 00:00:00 | 00:00:00 | |
| DM0DOS-11 | 2026-09-01 14:20:26 | 49.74372 | 8.61577 | 83° | 119km/h | 11696m | -6m/s | 0°C | 0% | 0hPa | 0V | 00:00:00 | 00:00:00 | 00:00:00 | |
| BIOWL1-15 | 2026-09-01 14:20:25 | 49.74386 | 8.61764 | 84° | 120km/h | 11666m | -6.1m/s | -55.8°C | 0% | 0hPa | 4.5V | 00:00:00 | 00:00:00 | 00:00:00 | |
| DL1NUX | 2026-09-01 14:20:25 | 49.74369 | 8.61531 | 83° | 119km/h | 11702m | -6m/s | 0°C | 0% | 0hPa | 0V | 00:00:00 | 00:00:00 | 00:00:00 | |
| DO3DL | 2026-09-01 14:20:23 | 49.74379 | 8.61670 | 85° | 120km/h | 11678m | -6.1m/s | -55.8°C | 0% | 0hPa | 4.5V | 00:00:00 | 00:00:00 | 00:00:00 | |
| DK7TD | 2026-09-01 14:20:20 | 49.74366 | 8.61486 | 84° | 117km/h | 11702m | -6m/s | -55.9°C | 0% | 0hPa | 4.5V | 00:00:00 | 00:00:00 | 00:00:00 | |
| DO3MHA-11 | 2026-09-01 14:20:19 | 49.74366 | 8.61486 | 84° | 117km/h | 11709m | -5.9m/s | 0°C | 0% | 0hPa | 0V | 00:00:00 | 00:00:00 | 00:00:00 | |
| DM0DOS-11 | 2026-09-01 14:20:16 | 49.74338 | 8.61121 | 83° | 119km/h | 11757m | -6m/s | 0°C | 0% | 0hPa | 0V | 00:00:00 | 00:00:00 | 00:00:00 | |
| DL1NUX | 2026-09-01 14:20:15 | 49.74334 | 8.61075 | 83° | 119km/h | 11763m | -6.2m/s | 0°C | 0% | 0hPa | 0V | 00:00:00 | 00:00:00 | 00:00:00 | |
| BIOWL1-15 | 2026-09-01 14:20:15 | 49.74348 | 8.61259 | 83° | 117km/h | 11733m | -6m/s | -56°C | 0% | 0hPa | 4.5V | 00:00:00 | 00:00:00 | 00:00:00 | |
| DO2KSM | 2026-09-01 14:20:11 | 49.74338 | 8.61121 | 85° | 119km/h | 11751m | -6.1m/s | -56.0°C | 0% | 0hPa | 4.5V | 00:00:00 | 00:00:00 | 00:00:00 | |
| SO1NDE-10 | 2026-09-01 14:20:10 | 49.74334 | 8.61075 | 84° | 117km/h | 11763m | -6.1m/s | 0°C | 0% | 0hPa | 4.5V | 00:00:00 | 00:00:00 | 00:00:00 | |
| DK7TD | 2026-09-01 14:20:09 | 49.74327 | 8.60983 | 83° | 120km/h | 11769m | -6.1m/s | -55.9°C | 0% | 0hPa | 4.5V | 00:00:00 | 00:00:00 | 00:00:00 | |
| DO3MHA-11 | 2026-09-01 14:20:09 | 49.74331 | 8.61030 | 84° | 119km/h | 11770m | -6.1m/s | 0°C | 0% | 0hPa | 0V | 00:00:00 | 00:00:00 | 00:00:00 | |
| DF2AP-13 | 2026-09-01 14:20:08 | 49.74324 | 8.60937 | 84° | 117km/h | 11782m | -5.9m/s | 0°C | 0% | 0hPa | 0V | 00:00:00 | 00:00:00 | 00:00:00 | |
| DN1GJH-1 | 2026-09-01 14:20:07 | 49.74323 | 8.60937 | 84° | 120km/h | 11776m | -6.1m/s | -55.9°C | 0% | 0hPa | 0V | 00:00:00 | 00:00:00 | 00:00:00 | |
| DM0DOS-11 | 2026-09-01 14:20:06 | 49.74303 | 8.60658 | 82° | 119km/h | 11818m | -6m/s | 0°C | 0% | 0hPa | 0V | 00:00:00 | 00:00:00 | 00:00:00 | |
| DL1NUX | 2026-09-01 14:20:04 | 49.74295 | 8.60566 | 82° | 119km/h | 11830m | -6.2m/s | 0°C | 0% | 0hPa | 0V | 00:00:00 | 00:00:00 | 00:00:00 | |
| HSKMA3-T | 2026-09-01 14:20:04 | 49.74310 | 8.60750 | 83° | 119km/h | 11800m | -6.1m/s | -55.9°C | 0% | 0hPa | 4.5V | 00:00:00 | 00:00:00 | 00:00:00 | |
| DL9SK-14 | 2026-09-01 14:20:03 | 49.74306 | 8.60704 | 83° | 119km/h | 11806m | -6.1m/s | -55.9°C | -1.0% | -1.0hPa | 4.5V | 00:00:00 | 00:00:00 | 00:00:00 | |
| DB0NH | 2026-09-01 14:20:00 | 49.74299 | 8.60612 | 83° | 115km/h | 11824m | -6.1m/s | 0°C | 0% | 0hPa | 4.5V | 00:00:00 | 00:00:00 | 00:00:00 | |
| DO3MHA-11 | 2026-09-01 14:19:59 | 49.74295 | 8.60566 | 83° | 117km/h | 11831m | -6.1m/s | 0°C | 0% | 0hPa | 4.5V | 00:00:00 | 00:00:00 | 00:00:00 | |
| DK7TD | 2026-09-01 14:19:58 | 49.74288 | 8.60475 | 83° | 119km/h | 11836m | -6.1m/s | -55.7°C | 0% | 0hPa | 4.5V | 00:00:00 | 00:00:00 | 00:00:00 | |
| DM0DOS-11 | 2026-09-01 14:19:56 | 49.74267 | 8.60204 | 83° | 115km/h | 11879m | -6.1m/s | 0°C | 0% | 0hPa | 0V | 00:00:00 | 00:00:00 | 00:00:00 | |
| BIOWL1-15 | 2026-09-01 14:19:55 | 49.74274 | 8.60294 | 83° | 115km/h | 11861m | -6.1m/s | -55.5°C | 0% | 0hPa | 4.5V | 00:00:00 | 00:00:00 | 00:00:00 | |
| DL1NUX | 2026-09-01 14:19:54 | 49.74261 | 8.60116 | 84° | 115km/h | 11891m | -6.2m/s | 0°C | 0% | 0hPa | 0V | 00:00:00 | 00:00:00 | 00:00:00 | |
| DJ3KS | 2026-09-01 14:19:52 | 49.74270 | 8.60249 | 84° | 115km/h | 11867m | -6.1m/s | 0°C | 0% | 0hPa | 4.5V | 00:00:00 | 00:00:00 | 00:00:00 | |
| HEMX73-11 | 2026-09-01 14:19:51 | 49.74264 | 8.60160 | 85° | 115km/h | 11879m | -6.1m/s | -55.5°C | 0% | 0hPa | 4.5V | 00:00:00 | 00:00:00 | 00:00:00 | |
| DO3DL | 2026-09-01 14:19:50 | 49.74261 | 8.60115 | 85° | 115km/h | 11885m | -6.2m/s | -55.5°C | 0% | 0hPa | 4.5V | 00:00:00 | 00:00:00 | 00:00:00 | |
| DO3MHA-11 | 2026-09-01 14:19:49 | 49.74260 | 8.60116 | 85° | 115km/h | 11891m | -6.1m/s | 0°C | 0% | 0hPa | 4.5V | 00:00:00 | 00:00:00 | 00:00:00 | |
| DF1GD-15 | 2026-09-01 14:19:48 | 49.74258 | 8.60071 | 86° | 115km/h | 11891m | -6.2m/s | -55.5°C | 0% | 0hPa | 4.5V | 00:00:00 | 00:00:00 | 00:00:00 | |
| DK7TD | 2026-09-01 14:19:47 | 49.74253 | 8.59981 | 85° | 115km/h | 11903m | -6.3m/s | -55.5°C | 0% | 0hPa | 4.5V | 00:00:00 | 00:00:00 | 00:00:00 | |
| NBG1-10 | 2026-09-01 14:19:46 | 49.74253 | 8.59981 | 86° | 110km/h | 11910m | -6.1m/s | 0°C | 0% | 0hPa | 4.5V | 00:00:00 | 00:00:00 | 00:00:00 | |
| HSKMA3-T | 2026-09-01 14:19:45 | 49.74248 | 8.59891 | 85° | 115km/h | 11916m | -6.1m/s | -55.5°C | 0% | 0hPa | 4.5V | 00:00:00 | 00:00:00 | 00:00:00 | |
| BIOWL1-15 | 2026-09-01 14:19:44 | 49.74243 | 8.59802 | 85° | 115km/h | 11928m | -6m/s | -55.5°C | 0% | 0hPa | 4.5V | 00:00:00 | 00:00:00 | 00:00:00 | |
| DL1NUX | 2026-09-01 14:19:44 | 49.74237 | 8.59669 | 85° | 113km/h | 11952m | -6m/s | 0°C | 0% | 0hPa | 0V | 00:00:00 | 00:00:00 | 00:00:00 | |
| DO3DL | 2026-09-01 14:19:42 | 49.74243 | 8.59801 | 86° | 115km/h | 11928m | -6.0m/s | -55.5°C | 0% | 0hPa | 0V | 00:00:00 | 00:00:00 | 00:00:00 | |
| DB0UT-7 | 2026-09-01 14:19:40 | 49.74239 | 8.59713 | 86° | 108km/h | 11947m | -6.1m/s | 0°C | 0% | 0hPa | 0V | 00:00:00 | 00:00:00 | 00:00:00 | |
| DO3MHA-11 | 2026-09-01 14:19:39 | 49.74237 | 8.59669 | 86° | 111km/h | 11953m | -5.9m/s | 0°C | 0% | 0hPa | 0V | 00:00:00 | 00:00:00 | 00:00:00 | |
| DF2AP-13 | 2026-09-01 14:19:37 | 49.74232 | 8.59580 | 86° | 106km/h | 11965m | -6.3m/s | 0°C | 0% | 0hPa | 0V | 00:00:00 | 00:00:00 | 00:00:00 | |
| DM0DOS-11 | 2026-09-01 14:19:36 | 49.74220 | 8.59321 | 85° | 110km/h | 12002m | -6.4m/s | 0°C | 0% | 0hPa | 0V | 00:00:00 | 00:00:00 | 00:00:00 | |
| DK7TD | 2026-09-01 14:19:36 | 49.74228 | 8.59493 | 86° | 111km/h | 11971m | -6.1m/s | -55.6°C | 0% | 0hPa | 4.5V | 00:00:00 | 00:00:00 | 00:00:00 | |
| HSKMA3-T | 2026-09-01 14:19:35 | 49.74226 | 8.59449 | 86° | 111km/h | 11977m | -6.2m/s | -55.6°C | 0% | 0hPa | 4.5V | 00:00:00 | 00:00:00 | 00:00:00 | |
| DL1NUX | 2026-09-01 14:19:34 | 49.74216 | 8.59238 | 85° | 108km/h | 12015m | -6.1m/s | 0°C | 0% | 0hPa | 0V | 00:00:00 | 00:00:00 | 00:00:00 | |
| BIOWL1-15 | 2026-09-01 14:19:32 | 49.74220 | 8.59321 | 86° | 110km/h | 11996m | -6.3m/s | -55.6°C | 0% | 0hPa | 4.5V | 00:00:00 | 00:00:00 | 00:00:00 | |
| DB0NH | 2026-09-01 14:19:30 | 49.74218 | 8.59279 | 86° | 106km/h | 12009m | -6.1m/s | 0°C | 0% | 0hPa | 0V | 00:00:00 | 00:00:00 | 00:00:00 | |
| DM7RM-13 | 2026-09-01 14:19:29 | 49.74213 | 8.59196 | 86° | 106km/h | 12015m | -6.1m/s | 0°C | 0% | 0hPa | 0V | 00:00:00 | 00:00:00 | 00:00:00 | |
| DF1GD-15 | 2026-09-01 14:19:28 | 49.74213 | 8.59196 | 86° | 106km/h | 12015m | -6.1m/s | -55.5°C | 0% | 0hPa | 0V | 00:00:00 | 00:00:00 | 00:00:00 | |
| DM0DOS-11 | 2026-09-01 14:19:26 | 49.74193 | 8.58914 | 82° | 104km/h | 12064m | -6.2m/s | 0°C | 0% | 0hPa | 0V | 00:00:00 | 00:00:00 | 00:00:00 | |
| DK7TD | 2026-09-01 14:19:26 | 49.74206 | 8.59074 | 84° | 104km/h | 12034m | -6.2m/s | -55.5°C | 0% | 0hPa | 4.5V | 00:00:00 | 00:00:00 | 00:00:00 | |
| DO3DL | 2026-09-01 14:19:22 | 49.74197 | 8.58954 | 84° | 104km/h | 12052m | -6.0m/s | -55.5°C | 0% | 0hPa | 4.5V | 00:00:00 | 00:00:00 | 00:00:00 | |
| BIOWL1-15 | 2026-09-01 14:19:21 | 49.74190 | 8.58874 | 83° | 104km/h | 12064m | -6.2m/s | -55.5°C | 0% | 0hPa | 4.5V | 00:00:00 | 00:00:00 | 00:00:00 | |
| HSKMA3-T | 2026-09-01 14:19:19 | 49.74183 | 8.58793 | 82° | 104km/h | 12077m | -6.4m/s | -55.6°C | 0% | 0hPa | 4.5V | 00:00:00 | 00:00:00 | 00:00:00 | |
| DO3MHA-11 | 2026-09-01 14:19:19 | 49.74186 | 8.58833 | 83° | 104km/h | 12077m | -6.3m/s | 0°C | 0% | 0hPa | 0V | 00:00:00 | 00:00:00 | 00:00:00 | |
| DO3DL | 2026-09-01 14:19:17 | 49.74175 | 8.58713 | 83° | 104km/h | 12090m | -6.3m/s | -55.6°C | 0% | 0hPa | 0V | 00:00:00 | 00:00:00 | 00:00:00 | |
| DM0DOS-11 | 2026-09-01 14:19:16 | 49.74154 | 8.58512 | 80° | 106km/h | 12127m | -6.2m/s | 0°C | 0% | 0hPa | 0V | 00:00:00 | 00:00:00 | 00:00:00 | |
| DK7TD | 2026-09-01 14:19:15 | 49.74168 | 8.58633 | 81° | 104km/h | 12102m | -6.2m/s | -55.7°C | 0% | 0hPa | 4.5V | 00:00:00 | 00:00:00 | 00:00:00 | |
| NBG1-10 | 2026-09-01 14:19:13 | 49.74163 | 8.58593 | 81° | 104km/h | 12115m | -6.2m/s | 0°C | 0% | 0hPa | 4.5V | 00:00:00 | 00:00:00 | 00:00:00 | |
| DJTTGO | 2026-09-01 14:19:12 | 49.74155 | 8.58512 | 81° | 106km/h | 12121m | -6.2m/s | -55.8°C | 0% | 0hPa | 4.5V | 00:00:00 | 00:00:00 | 00:00:00 | |
| BIOWL1-15 | 2026-09-01 14:19:10 | 49.74150 | 8.58471 | 80° | 106km/h | 12127m | -6.2m/s | -55.8°C | 0% | 0hPa | 4.5V | 00:00:00 | 00:00:00 | 00:00:00 | |
| DO3DL | 2026-09-01 14:19:10 | 49.74145 | 8.58431 | 81° | 106km/h | 12134m | -6.2m/s | -55.8°C | 0% | 0hPa | 4.5V | 00:00:00 | 00:00:00 | 00:00:00 | |
| HSKMA3-T | 2026-09-01 14:19:09 | 49.74141 | 8.58390 | 80° | 106km/h | 12140m | -6.4m/s | 0°C | 0% | 0hPa | 4.5V | 00:00:00 | 00:00:00 | 00:00:00 | |
| DO3MHA-11 | 2026-09-01 14:19:09 | 49.74145 | 8.58431 | 81° | 108km/h | 12140m | -6.3m/s | 0°C | 0% | 0hPa | 0V | 00:00:00 | 00:00:00 | 00:00:00 | |
| DF2AP-13 | 2026-09-01 14:19:07 | 49.74136 | 8.58349 | 81° | 102km/h | 12153m | -6.0m/s | 0°C | 0% | 0hPa | 0V | 00:00:00 | 00:00:00 | 00:00:00 | |
| DM0DOS-11 | 2026-09-01 14:19:06 | 49.74110 | 8.58098 | 83° | 108km/h | 12190m | -6.2m/s | 0°C | 0% | 0hPa | 0V | 00:00:00 | 00:00:00 | 00:00:00 | |
| DN1GJH-1 | 2026-09-01 14:19:06 | 49.74131 | 8.58265 | 81° | 110km/h | 12159m | -6.3m/s | -55.7°C | 0% | 0hPa | 0V | 00:00:00 | 00:00:00 | 00:00:00 | |
| DL1NUX | 2026-09-01 14:19:04 | 49.74105 | 8.58014 | 84° | 108km/h | 12203m | -6.4m/s | 0°C | 0% | 0hPa | 0V | 00:00:00 | 00:00:00 | 00:00:00 | |
| DK7TD | 2026-09-01 14:19:04 | 49.74118 | 8.58181 | 81° | 108km/h | 12171m | -6.4m/s | -55.6°C | 0% | 0hPa | 4.5V | 00:00:00 | 00:00:00 | 00:00:00 | |
| DO2KSM | 2026-09-01 14:19:03 | 49.74118 | 8.58181 | 82° | 108km/h | 12172m | -6.4m/s | -55.6°C | 0% | 0hPa | 4.5V | 00:00:00 | 00:00:00 | 00:00:00 | |
| DB0NH | 2026-09-01 14:19:00 | 49.74107 | 8.58056 | 85° | 99km/h | 12197m | -6.2m/s | 0°C | 0% | 0hPa | 4.5V | 00:00:00 | 00:00:00 | 00:00:00 | |
| BIOWL1-15 | 2026-09-01 14:18:59 | 49.74105 | 8.58014 | 85° | 108km/h | 12197m | -6.2m/s | -55.2°C | 0% | 0hPa | 4.5V | 00:00:00 | 00:00:00 | 00:00:00 | |
| CB1BUN | 2026-09-01 14:18:59 | 49.74102 | 8.57972 | 86° | 108km/h | 12203m | -6.4m/s | -55.1°C | 0% | 0hPa | 0V | 00:00:00 | 00:00:00 | 00:00:00 | |
| DO3DL | 2026-09-01 14:18:56 | 49.74098 | 8.57888 | 87° | 108km/h | 12216m | -6.4m/s | -55.0°C | 0% | 0hPa | 0V | 00:00:00 | 00:00:00 | 00:00:00 | |
| DM0DOS-11 | 2026-09-01 14:18:55 | 49.74088 | 8.57649 | 86° | 99km/h | 12261m | -6.3m/s | 0°C | 0% | 0hPa | 0V | 00:00:00 | 00:00:00 | 00:00:00 | |
| DL1NUX | 2026-09-01 14:18:54 | 49.74086 | 8.57609 | 84° | 99km/h | 12267m | -6.4m/s | 0°C | 0% | 0hPa | 0V | 00:00:00 | 00:00:00 | 00:00:00 | |
| DK7TD | 2026-09-01 14:18:53 | 49.74091 | 8.57726 | 87° | 100km/h | 12242m | -6.7m/s | -54.8°C | 0% | 0hPa | 4.5V | 00:00:00 | 00:00:00 | 00:00:00 | |
| DJTTGO | 2026-09-01 14:18:51 | 49.74088 | 8.57649 | 87° | 99km/h | 12254m | -6.3m/s | -54.7°C | 0% | 0hPa | 4.5V | 00:00:00 | 00:00:00 | 00:00:00 | |
| DO3DL | 2026-09-01 14:18:50 | 49.74088 | 8.57649 | 87° | 99km/h | 12254m | -6.3m/s | -54.7°C | 0% | 0hPa | 4.5V | 00:00:00 | 00:00:00 | 00:00:00 | |
| HSKMA3-T | 2026-09-01 14:18:49 | 49.74084 | 8.57572 | 85° | 97km/h | 12267m | -6.4m/s | -54.6°C | 0% | 0hPa | 4.5V | 00:00:00 | 00:00:00 | 00:00:00 | |
| DO3MHA-11 | 2026-09-01 14:18:49 | 49.74086 | 8.57609 | 85° | 97km/h | 12267m | -6.3m/s | 0°C | 0% | 0hPa | 0V | 00:00:00 | 00:00:00 | 00:00:00 | |
| DF1GD-15 | 2026-09-01 14:18:47 | 49.74082 | 8.57534 | 85° | 97km/h | 12273m | -6.4m/s | -54.5°C | 0% | 0hPa | 0V | 00:00:00 | 00:00:00 | 00:00:00 | |
| DM0DOS-11 | 2026-09-01 14:18:45 | 49.74063 | 8.57274 | 84° | 97km/h | 12325m | -6.4m/s | 0°C | 0% | 0hPa | 0V | 00:00:00 | 00:00:00 | 00:00:00 | |
| DL1NUX | 2026-09-01 14:18:44 | 49.74060 | 8.57237 | 84° | 97km/h | 12331m | -6.4m/s | 0°C | 0% | 0hPa | 0V | 00:00:00 | 00:00:00 | 00:00:00 | |
| DK7TD | 2026-09-01 14:18:43 | 49.74068 | 8.57349 | 83° | 95km/h | 12305m | -6.4m/s | -54°C | 0% | 0hPa | 4.5V | 00:00:00 | 00:00:00 | 00:00:00 | |
| NBG1-10 | 2026-09-01 14:18:40 | 49.74063 | 8.57275 | 85° | 97km/h | 12325m | -6.3m/s | 0°C | 0% | 0hPa | 4.5V | 00:00:00 | 00:00:00 | 00:00:00 | |
| DO3MHA-11 | 2026-09-01 14:18:39 | 49.74060 | 8.57237 | 85° | 91km/h | 12331m | -6.3m/s | 0°C | 0% | 0hPa | 4.5V | 00:00:00 | 00:00:00 | 00:00:00 | |
| HSKMA3-T | 2026-09-01 14:18:38 | 49.74055 | 8.57163 | 84° | 93km/h | 12338m | -6.4m/s | -53.9°C | 0% | 0hPa | 4.5V | 00:00:00 | 00:00:00 | 00:00:00 | |
| DF2AP-13 | 2026-09-01 14:18:37 | 49.74055 | 8.57163 | 84° | 97km/h | 12344m | -6.4m/s | 0°C | 0% | 0hPa | 0V | 00:00:00 | 00:00:00 | 00:00:00 | |
| DL1NUX | 2026-09-01 14:18:34 | 49.74035 | 8.56884 | 83° | 91km/h | 12396m | -6.4m/s | 0°C | 0% | 0hPa | 0V | 00:00:00 | 00:00:00 | 00:00:00 | |
| DO3DL | 2026-09-01 14:18:33 | 49.74044 | 8.57023 | 84° | 89km/h | 12364m | -6.4m/s | -53.6°C | 0% | 0hPa | 4.5V | 00:00:00 | 00:00:00 | 00:00:00 | |
| DK7TD | 2026-09-01 14:18:32 | 49.74039 | 8.56954 | 84° | 89km/h | 12376m | -6.5m/s | -53.6°C | 0% | 0hPa | 4.5V | 00:00:00 | 00:00:00 | 00:00:00 | |
| DB0NH | 2026-09-01 14:18:30 | 49.74037 | 8.56919 | 84° | 100km/h | 12390m | -6.4m/s | 0°C | 0% | 0hPa | 4.5V | 00:00:00 | 00:00:00 | 00:00:00 | |
| HEMX73-11 | 2026-09-01 14:18:29 | 49.74032 | 8.56849 | 84° | 91km/h | 12396m | -6.4m/s | -53.4°C | 0% | 0hPa | 4.5V | 00:00:00 | 00:00:00 | 00:00:00 | |
| HSKMA3-T | 2026-09-01 14:18:27 | 49.74029 | 8.56813 | 83° | 91km/h | 12402m | -6.5m/s | -53.5°C | 0% | 0hPa | 4.5V | 00:00:00 | 00:00:00 | 00:00:00 | |
| DO2KSM | 2026-09-01 14:18:27 | 49.74029 | 8.56813 | 84° | 91km/h | 12403m | -6.5m/s | -53.5°C | 0% | 0hPa | 0V | 00:00:00 | 00:00:00 | 00:00:00 | |
| DM7RM-13 | 2026-09-01 14:18:26 | 49.74026 | 8.56777 | 84° | 91km/h | 12409m | -6.5m/s | 0°C | 0% | 0hPa | 0V | 00:00:00 | 00:00:00 | 00:00:00 | |
| DM0DOS-11 | 2026-09-01 14:18:25 | 49.74009 | 8.56558 | 82° | 99km/h | 12456m | -6.5m/s | 0°C | 0% | 0hPa | 0V | 00:00:00 | 00:00:00 | 00:00:00 | |
| DN1GJH-1 | 2026-09-01 14:18:24 | 49.74020 | 8.56706 | 84° | 93km/h | 12422m | -6.5m/s | -53.5°C | 0% | 0hPa | 4.5V | 00:00:00 | 00:00:00 | 00:00:00 | |
| DJTTGO | 2026-09-01 14:18:23 | 49.74018 | 8.56670 | 84° | 93km/h | 12429m | -6.6m/s | -53.5°C | 0% | 0hPa | 4.5V | 00:00:00 | 00:00:00 | 00:00:00 | |
| DK7TD | 2026-09-01 14:18:21 | 49.74009 | 8.56558 | 83° | 99km/h | 12449m | -6.7m/s | -53.6°C | 0% | 0hPa | 4.5V | 00:00:00 | 00:00:00 | 00:00:00 | |
| DO3DL | 2026-09-01 14:18:20 | 49.74009 | 8.56558 | 84° | 99km/h | 12449m | -6.7m/s | -53.6°C | 0% | 0hPa | 4.5V | 00:00:00 | 00:00:00 | 00:00:00 | |
| DO3MHA-11 | 2026-09-01 14:18:19 | 49.74006 | 8.56520 | 83° | 102km/h | 12462m | -6.6m/s | 0°C | 0% | 0hPa | 4.5V | 00:00:00 | 00:00:00 | 00:00:00 | |
| BIOWL1-15 | 2026-09-01 14:18:17 | 49.73996 | 8.56405 | 82° | 100km/h | 12475m | -6.6m/s | -53.4°C | 0% | 0hPa | 4.5V | 00:00:00 | 00:00:00 | 00:00:00 | |
| DM0DOS-11 | 2026-09-01 14:18:15 | 49.73976 | 8.56166 | 83° | 106km/h | 12523m | -6.7m/s | 0°C | 0% | 0hPa | 0V | 00:00:00 | 00:00:00 | 00:00:00 | |
| DO3DL | 2026-09-01 14:18:13 | 49.73986 | 8.56287 | 83° | 102km/h | 12495m | -6.8m/s | -53.3°C | 0% | 0hPa | 4.5V | 00:00:00 | 00:00:00 | 00:00:00 | |
| DK7TD | 2026-09-01 14:18:11 | 49.73976 | 8.56166 | 83° | 106km/h | 12516m | -6.6m/s | -53.4°C | 0% | 0hPa | 4.5V | 00:00:00 | 00:00:00 | 00:00:00 | |
| DO3MHA-11 | 2026-09-01 14:18:09 | 49.73972 | 8.56125 | 84° | 108km/h | 12530m | -6.7m/s | 0°C | 0% | 0hPa | 4.5V | 00:00:00 | 00:00:00 | 00:00:00 | |
| HEMX73-11 | 2026-09-01 14:18:08 | 49.73969 | 8.56083 | 84° | 108km/h | 12530m | -6.8m/s | -53.4°C | 0% | 0hPa | 4.5V | 00:00:00 | 00:00:00 | 00:00:00 | |
| NBG1-10 | 2026-09-01 14:18:07 | 49.73966 | 8.56041 | 83° | 106km/h | 12544m | -6.7m/s | 0°C | 0% | 0hPa | 4.5V | 00:00:00 | 00:00:00 | 00:00:00 | |
| DF1GD-15 | 2026-09-01 14:18:06 | 49.73962 | 8.56000 | 83° | 108km/h | 12544m | -6.8m/s | -53.4°C | 0% | 0hPa | 4.5V | 00:00:00 | 00:00:00 | 00:00:00 | |
| BIOWL1-15 | 2026-09-01 14:18:05 | 49.73958 | 8.55958 | 82° | 108km/h | 12550m | -6.8m/s | -53.4°C | 0% | 0hPa | 4.5V | 00:00:00 | 00:00:00 | 00:00:00 | |
| DM0DOS-11 | 2026-09-01 14:18:05 | 49.73941 | 8.55752 | 82° | 106km/h | 12591m | -6.8m/s | 0°C | 0% | 0hPa | 0V | 00:00:00 | 00:00:00 | 00:00:00 | |
| DJ2DS-15 | 2026-09-01 14:18:05 | 49.73955 | 8.55917 | 82° | 106km/h | 12557m | -6.8m/s | -53.4°C | -1.0% | -1.0hPa | 0V | 00:00:00 | 00:00:00 | 00:00:00 | |
| DL1NUX | 2026-09-01 14:18:04 | 49.73938 | 8.55711 | 83° | 106km/h | 12598m | -6.6m/s | 0°C | 0% | 0hPa | 0V | 00:00:00 | 00:00:00 | 00:00:00 | |
| DL1ZP-14 | 2026-09-01 14:18:02 | 49.73944 | 8.55792 | 83° | 104km/h | 12578m | -6.8m/s | -53.5°C | -1.0% | -1.0hPa | 4.5V | 00:00:00 | 00:00:00 | 00:00:00 | |
| DB0NH | 2026-09-01 14:18:00 | 49.73941 | 8.55751 | 83° | 106km/h | 12592m | -6.8m/s | 0°C | 0% | 0hPa | 0V | 00:00:00 | 00:00:00 | 00:00:00 | |
| DK7TD | 2026-09-01 14:18:00 | 49.73938 | 8.55711 | 83° | 106km/h | 12592m | -6.8m/s | -53.6°C | 0% | 0hPa | 4.5V | 00:00:00 | 00:00:00 | 00:00:00 | |
| DO3MHA-11 | 2026-09-01 14:17:59 | 49.73938 | 8.55710 | 84° | 108km/h | 12598m | -6.6m/s | 0°C | 0% | 0hPa | 0V | 00:00:00 | 00:00:00 | 00:00:00 | |
| DJTTGO | 2026-09-01 14:17:58 | 49.73934 | 8.55669 | 84° | 106km/h | 12598m | -6.6m/s | -53.6°C | 0% | 0hPa | 0V | 00:00:00 | 00:00:00 | 00:00:00 | |
| CB1BUN | 2026-09-01 14:17:56 | 49.73928 | 8.55586 | 84° | 108km/h | 12612m | -6.8m/s | -53.6°C | 0% | 0hPa | 0V | 00:00:00 | 00:00:00 | 00:00:00 | |
| DM0DOS-11 | 2026-09-01 14:17:55 | 49.73908 | 8.55334 | 84° | 110km/h | 12660m | -6.8m/s | 0°C | 0% | 0hPa | 0V | 00:00:00 | 00:00:00 | 00:00:00 | |
| BIOWL1-15 | 2026-09-01 14:17:55 | 49.73921 | 8.55503 | 83° | 108km/h | 12625m | -6.7m/s | -53.6°C | 0% | 0hPa | 4.5V | 00:00:00 | 00:00:00 | 00:00:00 | |
| DL1NUX | 2026-09-01 14:17:54 | 49.73906 | 8.55292 | 85° | 110km/h | 12667m | -6.8m/s | 0°C | 0% | 0hPa | 0V | 00:00:00 | 00:00:00 | 00:00:00 | |
| DK7TD | 2026-09-01 14:17:49 | 49.73903 | 8.55249 | 85° | 110km/h | 12667m | -6.8m/s | -53.6°C | 0% | 0hPa | 4.5V | 00:00:00 | 00:00:00 | 00:00:00 | |
| DO3MHA-11 | 2026-09-01 14:17:49 | 49.73906 | 8.55292 | 86° | 108km/h | 12667m | -6.8m/s | 0°C | 0% | 0hPa | 0V | 00:00:00 | 00:00:00 | 00:00:00 | |
| HEMX73-11 | 2026-09-01 14:17:48 | 49.73901 | 8.55206 | 86° | 110km/h | 12674m | -7.0m/s | -53.6°C | 0% | 0hPa | 0V | 00:00:00 | 00:00:00 | 00:00:00 | |
| DO3DL | 2026-09-01 14:17:47 | 49.73901 | 8.55206 | 86° | 110km/h | 12674m | -7.0m/s | -53.6°C | 0% | 0hPa | 0V | 00:00:00 | 00:00:00 | 00:00:00 | |
| DM0DOS-11 | 2026-09-01 14:17:45 | 49.73891 | 8.54913 | 88° | 104km/h | 12730m | -7m/s | 0°C | 0% | 0hPa | 0V | 00:00:00 | 00:00:00 | 00:00:00 | |
| DL1NUX | 2026-09-01 14:17:44 | 49.73890 | 8.54873 | 88° | 102km/h | 12737m | -7.1m/s | 0°C | 0% | 0hPa | 0V | 00:00:00 | 00:00:00 | 00:00:00 | |
| BIOWL1-15 | 2026-09-01 14:17:44 | 49.73894 | 8.55037 | 87° | 108km/h | 12702m | -7.1m/s | -53.7°C | 0% | 0hPa | 4.5V | 00:00:00 | 00:00:00 | 00:00:00 | |
| DN1GJH-1 | 2026-09-01 14:17:43 | 49.73894 | 8.55037 | 88° | 108km/h | 12702m | -7.1m/s | -53.7°C | 0% | 0hPa | 4.5V | 00:00:00 | 00:00:00 | 00:00:00 | |
| HSKMA3-T | 2026-09-01 14:17:42 | 49.73893 | 8.54996 | 88° | 106km/h | 12709m | -7m/s | -53.7°C | 0% | 0hPa | 4.5V | 00:00:00 | 00:00:00 | 00:00:00 | |
| BEGRI65-1 | 2026-09-01 14:17:42 | 49.73892 | 8.54954 | 89° | 106km/h | 12716m | -7.0m/s | -53.7°C | 0% | 0hPa | 4.5V | 00:00:00 | 00:00:00 | 00:00:00 | |
| DO3DL | 2026-09-01 14:17:41 | 49.73892 | 8.54954 | 89° | 106km/h | 12716m | -7.0m/s | -53.7°C | 0% | 0hPa | 4.5V | 00:00:00 | 00:00:00 | 00:00:00 | |
| DO3MHA-11 | 2026-09-01 14:17:39 | 49.73890 | 8.54873 | 89° | 99km/h | 12737m | -7.1m/s | 0°C | 0% | 0hPa | 4.5V | 00:00:00 | 00:00:00 | 00:00:00 | |
| DK7TD | 2026-09-01 14:17:38 | 49.73889 | 8.54794 | 88° | 100km/h | 12744m | -7.1m/s | -53.5°C | 0% | 0hPa | 4.5V | 00:00:00 | 00:00:00 | 00:00:00 | |
| DF2AP-13 | 2026-09-01 14:17:37 | 49.73889 | 8.54794 | 89° | 91km/h | 12759m | -6.9m/s | 0°C | 0% | 0hPa | 0V | 00:00:00 | 00:00:00 | 00:00:00 | |
| CB1BUN | 2026-09-01 14:17:36 | 49.73888 | 8.54755 | 90° | 100km/h | 12751m | -7.1m/s | -53.5°C | 0% | 0hPa | 0V | 00:00:00 | 00:00:00 | 00:00:00 | |
| DM0DOS-11 | 2026-09-01 14:17:35 | 49.73887 | 8.54526 | 88° | 97km/h | 12801m | -7m/s | 0°C | 0% | 0hPa | 0V | 00:00:00 | 00:00:00 | 00:00:00 | |
| DO3DL | 2026-09-01 14:17:35 | 49.73888 | 8.54678 | 91° | 99km/h | 12766m | -7.1m/s | -53.6°C | 0% | 0hPa | 0V | 00:00:00 | 00:00:00 | 00:00:00 | |
| DL1NUX | 2026-09-01 14:17:34 | 49.73886 | 8.54488 | 86° | 93km/h | 12808m | -7m/s | 0°C | 0% | 0hPa | 0V | 00:00:00 | 00:00:00 | 00:00:00 | |
| NBG1-10 | 2026-09-01 14:17:34 | 49.73888 | 8.54678 | 90° | 89km/h | 12773m | -7.1m/s | 0°C | 0% | 0hPa | 4.5V | 00:00:00 | 00:00:00 | 00:00:00 | |
| BIOWL1-15 | 2026-09-01 14:17:34 | 49.73888 | 8.54640 | 90° | 99km/h | 12772m | -7.1m/s | -53.6°C | 0% | 0hPa | 4.5V | 00:00:00 | 00:00:00 | 00:00:00 | |
| HSKMA3-T | 2026-09-01 14:17:30 | 49.73886 | 8.54489 | 87° | 93km/h | 12801m | -7m/s | -53.7°C | 0% | 0hPa | 4.5V | 00:00:00 | 00:00:00 | 00:00:00 | |
| DO3DL | 2026-09-01 14:17:28 | 49.73884 | 8.54453 | 87° | 91km/h | 12808m | -7.0m/s | -53.7°C | 0% | 0hPa | 4.5V | 00:00:00 | 00:00:00 | 00:00:00 | |
| DK7TD | 2026-09-01 14:17:27 | 49.73882 | 8.54382 | 87° | 89km/h | 12822m | -7m/s | -53.7°C | 0% | 0hPa | 4.5V | 00:00:00 | 00:00:00 | 00:00:00 | |
| DM0DOS-11 | 2026-09-01 14:17:25 | 49.73879 | 8.54169 | 90° | 91km/h | 12872m | -7.1m/s | 0°C | 0% | 0hPa | 0V | 00:00:00 | 00:00:00 | 00:00:00 | |
| BIOWL1-15 | 2026-09-01 14:17:25 | 49.73879 | 8.54240 | 90° | 91km/h | 12851m | -7.2m/s | -53.6°C | 0% | 0hPa | 4.5V | 00:00:00 | 00:00:00 | 00:00:00 | |
| DL1NUX | 2026-09-01 14:17:24 | 49.73879 | 8.54134 | 90° | 89km/h | 12879m | -7.2m/s | 0°C | 0% | 0hPa | 0V | 00:00:00 | 00:00:00 | 00:00:00 | |
| DN1GJH-1 | 2026-09-01 14:17:23 | 49.73880 | 8.54276 | 90° | 91km/h | 12844m | -6.9m/s | -53.7°C | 0% | 0hPa | 4.5V | 00:00:00 | 00:00:00 | 00:00:00 | |
| DO3DL | 2026-09-01 14:17:22 | 49.73879 | 8.54240 | 90° | 91km/h | 12851m | -7.2m/s | -53.6°C | 0% | 0hPa | 4.5V | 00:00:00 | 00:00:00 | 00:00:00 | |
| DO3MHA-11 | 2026-09-01 14:17:19 | 49.73879 | 8.54134 | 91° | 86km/h | 12880m | -7.1m/s | 0°C | 0% | 0hPa | 4.5V | 00:00:00 | 00:00:00 | 00:00:00 | |
| DK7TD | 2026-09-01 14:17:16 | 49.73880 | 8.53997 | 90° | 86km/h | 12900m | -7.2m/s | -52.9°C | 0% | 0hPa | 4.5V | 00:00:00 | 00:00:00 | 00:00:00 | |
| DO3DL | 2026-09-01 14:17:16 | 49.73880 | 8.53997 | 91° | 86km/h | 12900m | -7.2m/s | -52.9°C | 0% | 0hPa | 0V | 00:00:00 | 00:00:00 | 00:00:00 | |
| CB1BUN | 2026-09-01 14:17:15 | 49.73880 | 8.53997 | 91° | 86km/h | 12900m | -7.2m/s | -52.9°C | 0% | 0hPa | 0V | 00:00:00 | 00:00:00 | 00:00:00 | |
| DL1NUX | 2026-09-01 14:17:14 | 49.73878 | 8.53798 | 88° | 84km/h | 12950m | -7.1m/s | 0°C | 0% | 0hPa | 0V | 00:00:00 | 00:00:00 | 00:00:00 | |
| BIOWL1-15 | 2026-09-01 14:17:14 | 49.73880 | 8.53864 | 89° | 86km/h | 12929m | -7.3m/s | -53°C | 0% | 0hPa | 4.5V | 00:00:00 | 00:00:00 | 00:00:00 | |
| DJTTGO | 2026-09-01 14:17:12 | 49.73880 | 8.53864 | 89° | 86km/h | 12929m | -7.3m/s | -53.0°C | 0% | 0hPa | 4.5V | 00:00:00 | 00:00:00 | 00:00:00 | |
| DL8DAS-15 | 2026-09-01 14:17:11 | 49.73880 | 8.53864 | 89° | 86km/h | 12929m | -7.3m/s | -53.0°C | 0% | 0hPa | 4.5V | 00:00:00 | 00:00:00 | 00:00:00 | |
| DO3MHA-11 | 2026-09-01 14:17:09 | 49.73878 | 8.53798 | 89° | 82km/h | 12951m | -7.0m/s | 0°C | 0% | 0hPa | 4.5V | 00:00:00 | 00:00:00 | 00:00:00 | |
| DK7TD | 2026-09-01 14:17:06 | 49.73876 | 8.53669 | 88° | 82km/h | 12972m | -7.3m/s | -53.2°C | 0% | 0hPa | 4.5V | 00:00:00 | 00:00:00 | 00:00:00 | |
| DM0DOS-11 | 2026-09-01 14:17:05 | 49.73868 | 8.53509 | 84° | 82km/h | 13016m | -7.2m/s | 0°C | 0% | 0hPa | 0V | 00:00:00 | 00:00:00 | 00:00:00 | |
| DF1GD-15 | 2026-09-01 14:17:04 | 49.73875 | 8.53637 | 88° | 82km/h | 12979m | -7.3m/s | -53.3°C | 0% | 0hPa | 4.5V | 00:00:00 | 00:00:00 | 00:00:00 | |
| BIOWL1-15 | 2026-09-01 14:17:03 | 49.73868 | 8.53509 | 84° | 82km/h | 13008m | -7.3m/s | -53.5°C | 0% | 0hPa | 4.5V | 00:00:00 | 00:00:00 | 00:00:00 | |
| DN1GJH-1 | 2026-09-01 14:17:02 | 49.73872 | 8.53573 | 87° | 84km/h | 12994m | -7.3m/s | -53.3°C | 0% | 0hPa | 0V | 00:00:00 | 00:00:00 | 00:00:00 | |
| NBG1-10 | 2026-09-01 14:17:01 | 49.73870 | 8.53540 | 85° | 75km/h | 13016m | -7.2m/s | 0°C | 0% | 0hPa | 0V | 00:00:00 | 00:00:00 | 00:00:00 | |
| DB0NH | 2026-09-01 14:17:00 | 49.73868 | 8.53509 | 85° | 75km/h | 13016m | -7.2m/s | 0°C | 0% | 0hPa | 0V | 00:00:00 | 00:00:00 | 00:00:00 | |
| DO3MHA-11 | 2026-09-01 14:16:59 | 49.73866 | 8.53477 | 84° | 75km/h | 13023m | -7.2m/s | 0°C | 0% | 0hPa | 0V | 00:00:00 | 00:00:00 | 00:00:00 | |
| DO3DL | 2026-09-01 14:16:56 | 49.73859 | 8.53388 | 84° | 73km/h | 13038m | -7.3m/s | -53.5°C | 0% | 0hPa | 0V | 00:00:00 | 00:00:00 | 00:00:00 | |
| DM0DOS-11 | 2026-09-01 14:16:55 | 49.73845 | 8.53219 | 82° | 69km/h | 13088m | -7.3m/s | 0°C | 0% | 0hPa | 0V | 00:00:00 | 00:00:00 | 00:00:00 | |
| DK7TD | 2026-09-01 14:16:55 | 49.73854 | 8.53331 | 83° | 73km/h | 13052m | -7.3m/s | -53.4°C | 0% | 0hPa | 4.5V | 00:00:00 | 00:00:00 | 00:00:00 | |
| BIOWL1-15 | 2026-09-01 14:16:51 | 49.73845 | 8.53219 | 83° | 69km/h | 13081m | -7.3m/s | -53.2°C | 0% | 0hPa | 4.5V | 00:00:00 | 00:00:00 | 00:00:00 | |
| DO3DL | 2026-09-01 14:16:50 | 49.73845 | 8.53219 | 84° | 69km/h | 13081m | -7.3m/s | -53.2°C | 0% | 0hPa | 0V | 00:00:00 | 00:00:00 | 00:00:00 | |
| DO3MHA-11 | 2026-09-01 14:16:49 | 49.73843 | 8.53192 | 83° | 71km/h | 13095m | -7.2m/s | 0°C | 0% | 0hPa | 0V | 00:00:00 | 00:00:00 | 00:00:00 | |
| DM0DOS-11 | 2026-09-01 14:16:45 | 49.73816 | 8.52950 | 78° | 75km/h | 13162m | -7.3m/s | 0°C | 0% | 0hPa | 0V | 00:00:00 | 00:00:00 | 00:00:00 | |
| DK7TD | 2026-09-01 14:16:44 | 49.73825 | 8.53033 | 79° | 71km/h | 13132m | -7.3m/s | -53.3°C | 0% | 0hPa | 4.5V | 00:00:00 | 00:00:00 | 00:00:00 | |
| DL1NUX | 2026-09-01 14:16:44 | 49.73811 | 8.52921 | 78° | 75km/h | 13169m | -7.3m/s | 0°C | 0% | 0hPa | 0V | 00:00:00 | 00:00:00 | 00:00:00 | |
| HSKMA3-T | 2026-09-01 14:16:43 | 49.73822 | 8.53005 | 80° | 73km/h | 13140m | -7.3m/s | -53.1°C | 0% | 0hPa | 4.5V | 00:00:00 | 00:00:00 | 00:00:00 | |
| BIOWL1-15 | 2026-09-01 14:16:42 | 49.73812 | 8.52921 | 78° | 77km/h | 13162m | -7.3m/s | -53°C | 0% | 0hPa | 4.5V | 00:00:00 | 00:00:00 | 00:00:00 | |
| DO3MHA-11 | 2026-09-01 14:16:39 | 49.73812 | 8.52921 | 79° | 78km/h | 13169m | -7.2m/s | 0°C | 0% | 0hPa | 0V | 00:00:00 | 00:00:00 | 00:00:00 | |
| DB0UT-7 | 2026-09-01 14:16:38 | 49.73808 | 8.52891 | 79° | 82km/h | 13176m | -7.2m/s | 0°C | 0% | 0hPa | 0V | 00:00:00 | 00:00:00 | 00:00:00 | |
| DO3DL | 2026-09-01 14:16:36 | 49.73800 | 8.52832 | 79° | 78km/h | 13184m | -7.4m/s | -53.0°C | 0% | 0hPa | 0V | 00:00:00 | 00:00:00 | 00:00:00 | |
| DM0DOS-11 | 2026-09-01 14:16:35 | 49.73777 | 8.52648 | 80° | 82km/h | 13235m | -7.3m/s | 0°C | 0% | 0hPa | 0V | 00:00:00 | 00:00:00 | 00:00:00 | |
| DF2AP-13 | 2026-09-01 14:16:35 | 49.73796 | 8.52803 | 79° | 80km/h | 13199m | -7.3m/s | 0°C | 0% | 0hPa | 4.5V | 00:00:00 | 00:00:00 | 00:00:00 | |
| CB1BUN | 2026-09-01 14:16:34 | 49.73792 | 8.52772 | 80° | 80km/h | 13199m | -7.3m/s | -53.1°C | 0% | 0hPa | 4.5V | 00:00:00 | 00:00:00 | 00:00:00 | |
| DK7TD | 2026-09-01 14:16:33 | 49.73784 | 8.52711 | 79° | 80km/h | 13213m | -7.3m/s | -53.2°C | 0% | 0hPa | 4.5V | 00:00:00 | 00:00:00 | 00:00:00 | |
| HSKMA3-T | 2026-09-01 14:16:31 | 49.73777 | 8.52648 | 81° | 82km/h | 13228m | -7.2m/s | -53.2°C | 0% | 0hPa | 4.5V | 00:00:00 | 00:00:00 | 00:00:00 | |
| DB0NH | 2026-09-01 14:16:30 | 49.73777 | 8.52648 | 81° | 80km/h | 13236m | -7.3m/s | 0°C | 0% | 0hPa | 4.5V | 00:00:00 | 00:00:00 | 00:00:00 | |
| BIOWL1-15 | 2026-09-01 14:16:29 | 49.73771 | 8.52585 | 81° | 82km/h | 13243m | -7.4m/s | -53.2°C | 0% | 0hPa | 4.5V | 00:00:00 | 00:00:00 | 00:00:00 | |
| DJTTGO | 2026-09-01 14:16:26 | 49.73765 | 8.52520 | 83° | 84km/h | 13258m | -7.5m/s | -53.2°C | 0% | 0hPa | 0V | 00:00:00 | 00:00:00 | 00:00:00 | |
| DM0DOS-11 | 2026-09-01 14:16:25 | 49.73749 | 8.52323 | 84° | 84km/h | 13310m | -7.5m/s | 0°C | 0% | 0hPa | 0V | 00:00:00 | 00:00:00 | 00:00:00 | |
| DL1NUX | 2026-09-01 14:16:24 | 49.73747 | 8.52291 | 84° | 84km/h | 13318m | -7.5m/s | 0°C | 0% | 0hPa | 0V | 00:00:00 | 00:00:00 | 00:00:00 | |
| DK7TD | 2026-09-01 14:16:23 | 49.73754 | 8.52389 | 83° | 84km/h | 13288m | -7.4m/s | -53.1°C | 0% | 0hPa | 4.5V | 00:00:00 | 00:00:00 | 00:00:00 | |
| DN1GJH-1 | 2026-09-01 14:16:21 | 49.73751 | 8.52356 | 85° | 84km/h | 13295m | -7.4m/s | -53.1°C | 0% | 0hPa | 4.5V | 00:00:00 | 00:00:00 | 00:00:00 | |
| DO3MHA-11 | 2026-09-01 14:16:19 | 49.73747 | 8.52291 | 85° | 80km/h | 13318m | -7.5m/s | 0°C | 0% | 0hPa | 4.5V | 00:00:00 | 00:00:00 | 00:00:00 | |
| HSKMA3-T | 2026-09-01 14:16:18 | 49.73743 | 8.52226 | 85° | 82km/h | 13325m | -7.3m/s | -53°C | 0% | 0hPa | 4.5V | 00:00:00 | 00:00:00 | 00:00:00 | |
| DL1NUX | 2026-09-01 14:16:14 | 49.73734 | 8.51977 | 88° | 78km/h | 13392m | -7.4m/s | 0°C | 0% | 0hPa | 0V | 00:00:00 | 00:00:00 | 00:00:00 | |
| DK7TD | 2026-09-01 14:16:12 | 49.73735 | 8.52038 | 88° | 80km/h | 13370m | -7.7m/s | -53°C | 0% | 0hPa | 4.5V | 00:00:00 | 00:00:00 | 00:00:00 | |
| DO3DL | 2026-09-01 14:16:10 | 49.73734 | 8.52007 | 89° | 78km/h | 13378m | -7.5m/s | -53.0°C | 0% | 0hPa | 4.5V | 00:00:00 | 00:00:00 | 00:00:00 | |
| DO3MHA-11 | 2026-09-01 14:16:09 | 49.73734 | 8.51977 | 89° | 75km/h | 13393m | -7.4m/s | 0°C | 0% | 0hPa | 4.5V | 00:00:00 | 00:00:00 | 00:00:00 | |
| DB0UT-7 | 2026-09-01 14:16:08 | 49.73734 | 8.51947 | 90° | 75km/h | 13400m | -7.3m/s | 0°C | 0% | 0hPa | 4.5V | 00:00:00 | 00:00:00 | 00:00:00 | |
| HSKMA3-T | 2026-09-01 14:16:08 | 49.73734 | 8.51917 | 91° | 75km/h | 13400m | -7.4m/s | -53°C | 0% | 0hPa | 4.5V | 00:00:00 | 00:00:00 | 00:00:00 | |
| HEMX73-11 | 2026-09-01 14:16:05 | 49.73736 | 8.51830 | 93° | 75km/h | 13422m | -7.4m/s | -53.0°C | 0% | 0hPa | 4.5V | 00:00:00 | 00:00:00 | 00:00:00 | |
| DO3DL | 2026-09-01 14:16:04 | 49.73736 | 8.51830 | 93° | 75km/h | 13422m | -7.4m/s | -53.0°C | 0% | 0hPa | 4.5V | 00:00:00 | 00:00:00 | 00:00:00 | |
| DJTTGO | 2026-09-01 14:16:03 | 49.73736 | 8.51801 | 93° | 75km/h | 13429m | -7.4m/s | -53.0°C | 0% | 0hPa | 4.5V | 00:00:00 | 00:00:00 | 00:00:00 | |
| DK7TD | 2026-09-01 14:16:01 | 49.73739 | 8.51712 | 94° | 77km/h | 13452m | -7.2m/s | -52.7°C | 0% | 0hPa | 4.5V | 00:00:00 | 00:00:00 | 00:00:00 | |
| DB0NH | 2026-09-01 14:16:00 | 49.73739 | 8.51712 | 94° | 73km/h | 13459m | -7.2m/s | 0°C | 0% | 0hPa | 4.5V | 00:00:00 | 00:00:00 | 00:00:00 | |
| DO3MHA-11 | 2026-09-01 14:15:59 | 49.73740 | 8.51681 | 95° | 77km/h | 13466m | -7.4m/s | 0°C | 0% | 0hPa | 4.5V | 00:00:00 | 00:00:00 | 00:00:00 | |
| BIOWL1-15 | 2026-09-01 14:15:58 | 49.73744 | 8.51590 | 93° | 77km/h | 13481m | -7.3m/s | -52.6°C | 0% | 0hPa | 4.5V | 00:00:00 | 00:00:00 | 00:00:00 | |
| HSKMA3-T | 2026-09-01 14:15:58 | 49.73743 | 8.51620 | 94° | 77km/h | 13473m | -7.3m/s | -52.6°C | 0% | 0hPa | 4.5V | 00:00:00 | 00:00:00 | 00:00:00 | |
| NBG1-10 | 2026-09-01 14:15:55 | 49.73745 | 8.51560 | 94° | 71km/h | 13496m | -7.3m/s | 0°C | 0% | 0hPa | 0V | 00:00:00 | 00:00:00 | 00:00:00 | |
| DL1NUX | 2026-09-01 14:15:54 | 49.73750 | 8.51382 | 92° | 73km/h | 13540m | -7.5m/s | 0°C | 0% | 0hPa | 0V | 00:00:00 | 00:00:00 | 00:00:00 | |
| CB1BUN | 2026-09-01 14:15:53 | 49.73747 | 8.51500 | 93° | 77km/h | 13503m | -7.4m/s | -52.5°C | 0% | 0hPa | 4.5V | 00:00:00 | 00:00:00 | 00:00:00 | |
| AM1SDL-15 | 2026-09-01 14:15:51 | 49.73748 | 8.51440 | 93° | 73km/h | 13571m | -7.4m/s | 0°C | 0% | 0hPa | 4.5V | 00:00:00 | 00:00:00 | 00:00:00 | |
| DK7TD | 2026-09-01 14:15:50 | 49.73750 | 8.51382 | 93° | 73km/h | 13533m | -7.4m/s | -52.5°C | 0% | 0hPa | 4.5V | 00:00:00 | 00:00:00 | 00:00:00 | |
| DO3MHA-11 | 2026-09-01 14:15:49 | 49.73750 | 8.51382 | 93° | 71km/h | 13541m | -7.5m/s | 0°C | 0% | 0hPa | 4.5V | 00:00:00 | 00:00:00 | 00:00:00 | |
| HSKMA3-T | 2026-09-01 14:15:46 | 49.73754 | 8.51270 | 93° | 73km/h | 13563m | -7.5m/s | -52.6°C | 0% | 0hPa | 4.5V | 00:00:00 | 00:00:00 | 00:00:00 | |
| DO3DL | 2026-09-01 14:15:45 | 49.73754 | 8.51270 | 94° | 73km/h | 13563m | -7.5m/s | -52.6°C | 0% | 0hPa | 0V | 00:00:00 | 00:00:00 | 00:00:00 | |
| DL1NUX | 2026-09-01 14:15:44 | 49.73758 | 8.51105 | 91° | 69km/h | 13616m | -7.5m/s | 0°C | 0% | 0hPa | 0V | 00:00:00 | 00:00:00 | 00:00:00 | |
| DM7RM-13 | 2026-09-01 14:15:43 | 49.73756 | 8.51187 | 93° | 69km/h | 13586m | -7.5m/s | 0°C | 0% | 0hPa | 4.5V | 00:00:00 | 00:00:00 | 00:00:00 | |
| DF1GD-15 | 2026-09-01 14:15:42 | 49.73756 | 8.51187 | 93° | 69km/h | 13586m | -7.5m/s | -52.7°C | 0% | 0hPa | 4.5V | 00:00:00 | 00:00:00 | 00:00:00 | |
| DK7TD | 2026-09-01 14:15:40 | 49.73758 | 8.51105 | 92° | 69km/h | 13608m | -7.5m/s | -52.8°C | 0% | 0hPa | 4.5V | 00:00:00 | 00:00:00 | 00:00:00 | |
| DO3MHA-11 | 2026-09-01 14:15:39 | 49.73758 | 8.51105 | 92° | 69km/h | 13616m | -7.4m/s | 0°C | 0% | 0hPa | 0V | 00:00:00 | 00:00:00 | 00:00:00 | |
| DB0UT-7 | 2026-09-01 14:15:38 | 49.73758 | 8.51078 | 92° | 66km/h | 13631m | -7.4m/s | 0°C | 0% | 0hPa | 0V | 00:00:00 | 00:00:00 | 00:00:00 | |
| DM0DOS-11 | 2026-09-01 14:15:36 | 49.73763 | 8.50887 | 94° | 68km/h | 13676m | -7.5m/s | 0°C | 0% | 0hPa | 0V | 00:00:00 | 00:00:00 | 00:00:00 | |
| BIOWL1-15 | 2026-09-01 14:15:35 | 49.73761 | 8.50967 | 92° | 71km/h | 13646m | -7.6m/s | -53°C | 0% | 0hPa | 4.5V | 00:00:00 | 00:00:00 | 00:00:00 | |
| DL1NUX | 2026-09-01 14:15:34 | 49.73766 | 8.50835 | 94° | 66km/h | 13691m | -7.8m/s | 0°C | 0% | 0hPa | 0V | 00:00:00 | 00:00:00 | 00:00:00 | |
| DF2AP-13 | 2026-09-01 14:15:34 | 49.73760 | 8.50967 | 92° | 64km/h | 13668m | -7.4m/s | 0°C | 0% | 0hPa | 4.5V | 00:00:00 | 00:00:00 | 00:00:00 | |
| DJ3KS | 2026-09-01 14:15:33 | 49.73761 | 8.50940 | 93° | 69km/h | 13654m | -7.5m/s | 0°C | 0% | 0hPa | 4.5V | 00:00:00 | 00:00:00 | 00:00:00 | |
| DB0NH | 2026-09-01 14:15:30 | 49.73764 | 8.50861 | 95° | 64km/h | 13684m | -7.6m/s | 0°C | 0% | 0hPa | 4.5V | 00:00:00 | 00:00:00 | 00:00:00 | |
| DK7TD | 2026-09-01 14:15:29 | 49.73767 | 8.50810 | 94° | 66km/h | 13691m | -7.8m/s | -53°C | 0% | 0hPa | 4.5V | 00:00:00 | 00:00:00 | 00:00:00 | |
| DO3MHA-11 | 2026-09-01 14:15:29 | 49.73765 | 8.50835 | 95° | 66km/h | 13691m | -7.7m/s | 0°C | 0% | 0hPa | 0V | 00:00:00 | 00:00:00 | 00:00:00 | |
| DM0DOS-11 | 2026-09-01 14:15:26 | 49.73774 | 8.50630 | 93° | 66km/h | 13752m | -7.5m/s | 0°C | 0% | 0hPa | 0V | 00:00:00 | 00:00:00 | 00:00:00 | |
| DL1NUX | 2026-09-01 14:15:24 | 49.73776 | 8.50579 | 92° | 66km/h | 13767m | -7.4m/s | 0°C | 0% | 0hPa | 0V | 00:00:00 | 00:00:00 | 00:00:00 | |
| BIOWL1-15 | 2026-09-01 14:15:24 | 49.73772 | 8.50681 | 94° | 66km/h | 13729m | -7.6m/s | -53.1°C | 0% | 0hPa | 4.5V | 00:00:00 | 00:00:00 | 00:00:00 | |
| HEMX73-11 | 2026-09-01 14:15:23 | 49.73772 | 8.50681 | 95° | 66km/h | 13730m | -7.6m/s | -53.1°C | 0% | 0hPa | 4.5V | 00:00:00 | 00:00:00 | 00:00:00 | |
| NBG1-10 | 2026-09-01 14:15:22 | 49.73773 | 8.50656 | 93° | 64km/h | 13745m | -7.4m/s | 0°C | 0% | 0hPa | 4.5V | 00:00:00 | 00:00:00 | 00:00:00 | |
| DF1GD-15 | 2026-09-01 14:15:21 | 49.73774 | 8.50630 | 95° | 66km/h | 13745m | -7.5m/s | -53.2°C | 0% | 0hPa | 4.5V | 00:00:00 | 00:00:00 | 00:00:00 | |
| DO3MHA-11 | 2026-09-01 14:15:19 | 49.73776 | 8.50579 | 93° | 64km/h | 13768m | -7.4m/s | 0°C | 0% | 0hPa | 4.5V | 00:00:00 | 00:00:00 | 00:00:00 | |
| DK7TD | 2026-09-01 14:15:18 | 49.73777 | 8.50528 | 91° | 64km/h | 13775m | -7.5m/s | -53.3°C | 0% | 0hPa | 4.5V | 00:00:00 | 00:00:00 | 00:00:00 | |
| DM0DOS-11 | 2026-09-01 14:15:16 | 49.73778 | 8.50380 | 88° | 64km/h | 13828m | -7.6m/s | 0°C | 0% | 0hPa | 0V | 00:00:00 | 00:00:00 | 00:00:00 | |
| BIOWL1-15 | 2026-09-01 14:15:16 | 49.73778 | 8.50429 | 91° | 62km/h | 13806m | -7.6m/s | -53.4°C | 0% | 0hPa | 4.5V | 00:00:00 | 00:00:00 | 00:00:00 | |
| DJTTGO | 2026-09-01 14:15:15 | 49.73777 | 8.50478 | 91° | 64km/h | 13790m | -7.5m/s | -53.4°C | 0% | 0hPa | 0V | 00:00:00 | 00:00:00 | 00:00:00 | |
| DL1NUX | 2026-09-01 14:15:14 | 49.73776 | 8.50330 | 84° | 62km/h | 13844m | -7.6m/s | 0°C | 0% | 0hPa | 0V | 00:00:00 | 00:00:00 | 00:00:00 | |
| DO3MHA-11 | 2026-09-01 14:15:09 | 49.73776 | 8.50330 | 85° | 62km/h | 13844m | -7.6m/s | 0°C | 0% | 0hPa | 4.5V | 00:00:00 | 00:00:00 | 00:00:00 | |
| DB0UT-7 | 2026-09-01 14:15:08 | 49.73775 | 8.50306 | 85° | 64km/h | 13852m | -7.6m/s | 0°C | 0% | 0hPa | 4.5V | 00:00:00 | 00:00:00 | 00:00:00 | |
| DK7TD | 2026-09-01 14:15:07 | 49.73772 | 8.50259 | 85° | 60km/h | 13859m | -7.6m/s | -53.6°C | 0% | 0hPa | 4.5V | 00:00:00 | 00:00:00 | 00:00:00 | |
| DF3TZ-5 | 2026-09-01 14:15:06 | 49.73771 | 8.50235 | 86° | 58km/h | 13867m | -7.8m/s | -53.7°C | -1.0% | -1.0hPa | 0V | 00:00:00 | 00:00:00 | 00:00:00 | |
| DM3KS-11 | 2026-09-01 14:15:05 | 49.73770 | 8.50212 | 86° | 58km/h | 13875m | -7.8m/s | -53.7°C | -1.0% | -1.0hPa | 0V | 00:00:00 | 00:00:00 | 00:00:00 | |
| DL1NUX | 2026-09-01 14:15:04 | 49.73761 | 8.50092 | 79° | 64km/h | 13922m | -7.8m/s | 0°C | 0% | 0hPa | 0V | 00:00:00 | 00:00:00 | 00:00:00 | |
| BIOWL1-15 | 2026-09-01 14:15:03 | 49.73768 | 8.50165 | 84° | 62km/h | 13891m | -7.8m/s | -53.8°C | 0% | 0hPa | 4.5V | 00:00:00 | 00:00:00 | 00:00:00 | |
| DM7RM-13 | 2026-09-01 14:15:01 | 49.73766 | 8.50140 | 84° | 64km/h | 13899m | -7.8m/s | 0°C | 0% | 0hPa | 0V | 00:00:00 | 00:00:00 | 00:00:00 | |
| DO3MHA-11 | 2026-09-01 14:14:59 | 49.73761 | 8.50092 | 80° | 66km/h | 13923m | -7.7m/s | 0°C | 0% | 0hPa | 0V | 00:00:00 | 00:00:00 | 00:00:00 | |
| DM0DOS-11 | 2026-09-01 14:14:56 | 49.73740 | 8.49893 | 83° | 68km/h | 13986m | -7.9m/s | 0°C | 0% | 0hPa | 0V | 00:00:00 | 00:00:00 | 00:00:00 | |
| DK7TD | 2026-09-01 14:14:56 | 49.73750 | 8.49994 | 80° | 64km/h | 13946m | -8m/s | -54°C | 0% | 0hPa | 4.5V | 00:00:00 | 00:00:00 | 00:00:00 | |
| DL1NUX | 2026-09-01 14:14:54 | 49.73735 | 8.49841 | 81° | 68km/h | 14002m | -7.9m/s | 0°C | 0% | 0hPa | 0V | 00:00:00 | 00:00:00 | 00:00:00 | |
| HSKMA3-T | 2026-09-01 14:14:54 | 49.73744 | 8.49944 | 81° | 66km/h | 13962m | -8m/s | -53.9°C | 0% | 0hPa | 4.5V | 00:00:00 | 00:00:00 | 00:00:00 | |
| BIOWL1-15 | 2026-09-01 14:14:52 | 49.73740 | 8.49893 | 83° | 68km/h | 13978m | -7.9m/s | -53.7°C | 0% | 0hPa | 4.5V | 00:00:00 | 00:00:00 | 00:00:00 | |
| NBG1-10 | 2026-09-01 14:14:49 | 49.73735 | 8.49841 | 82° | 71km/h | 14010m | -7.8m/s | 0°C | 0% | 0hPa | 0V | 00:00:00 | 00:00:00 | 00:00:00 | |
| DM0DOS-11 | 2026-09-01 14:14:46 | 49.73712 | 8.49643 | 80° | 66km/h | 14066m | -8m/s | 0°C | 0% | 0hPa | 0V | 00:00:00 | 00:00:00 | 00:00:00 | |
| DK7TD | 2026-09-01 14:14:46 | 49.73724 | 8.49742 | 79° | 64km/h | 14026m | -7.9m/s | -53.5°C | 0% | 0hPa | 4.5V | 00:00:00 | 00:00:00 | 00:00:00 | |
| HSKMA3-T | 2026-09-01 14:14:43 | 49.73718 | 8.49693 | 79° | 64km/h | 14042m | -7.9m/s | -53.5°C | 0% | 0hPa | 4.5V | 00:00:00 | 00:00:00 | 00:00:00 | |
| HEMX73-11 | 2026-09-01 14:14:42 | 49.73715 | 8.49668 | 81° | 66km/h | 14050m | -8.0m/s | -53.5°C | 0% | 0hPa | 4.5V | 00:00:00 | 00:00:00 | 00:00:00 | |
| BIOWL1-15 | 2026-09-01 14:14:41 | 49.73709 | 8.49617 | 81° | 68km/h | 14066m | -8m/s | -53.4°C | 0% | 0hPa | 4.5V | 00:00:00 | 00:00:00 | 00:00:00 | |
| DM7RM-13 | 2026-09-01 14:14:40 | 49.73709 | 8.49617 | 82° | 68km/h | 14066m | -8.0m/s | 0°C | 0% | 0hPa | 4.5V | 00:00:00 | 00:00:00 | 00:00:00 | |
| DO3MHA-11 | 2026-09-01 14:14:39 | 49.73706 | 8.49592 | 83° | 71km/h | 14082m | -8.0m/s | 0°C | 0% | 0hPa | 4.5V | 00:00:00 | 00:00:00 | 00:00:00 | |
| DB0UT-7 | 2026-09-01 14:14:38 | 49.73704 | 8.49565 | 83° | 77km/h | 14090m | -8.0m/s | 0°C | 0% | 0hPa | 4.5V | 00:00:00 | 00:00:00 | 00:00:00 | |
| DK7TD | 2026-09-01 14:14:35 | 49.73693 | 8.49457 | 79° | 71km/h | 14114m | -8m/s | -53.4°C | 0% | 0hPa | 4.5V | 00:00:00 | 00:00:00 | 00:00:00 | |
| HSKMA3-T | 2026-09-01 14:14:33 | 49.73686 | 8.49403 | 77° | 71km/h | 14130m | -8m/s | -53.4°C | 0% | 0hPa | 4.5V | 00:00:00 | 00:00:00 | 00:00:00 | |
| DF2AP-13 | 2026-09-01 14:14:33 | 49.73690 | 8.49431 | 78° | 78km/h | 14131m | -8.0m/s | 0°C | 0% | 0hPa | 4.5V | 00:00:00 | 00:00:00 | 00:00:00 | |
| CB1BUN | 2026-09-01 14:14:32 | 49.73682 | 8.49375 | 79° | 73km/h | 14138m | -8.0m/s | -53.4°C | 0% | 0hPa | 4.5V | 00:00:00 | 00:00:00 | 00:00:00 | |
| BIOWL1-15 | 2026-09-01 14:14:31 | 49.73678 | 8.49348 | 78° | 73km/h | 14147m | -8m/s | -53.4°C | 0% | 0hPa | 4.5V | 00:00:00 | 00:00:00 | 00:00:00 | |
| DJTTGO | 2026-09-01 14:14:30 | 49.73678 | 8.49348 | 79° | 73km/h | 14147m | -8.0m/s | -53.4°C | 0% | 0hPa | 0V | 00:00:00 | 00:00:00 | 00:00:00 | |
| DO3MHA-11 | 2026-09-01 14:14:29 | 49.73674 | 8.49319 | 79° | 77km/h | 14163m | -8.0m/s | 0°C | 0% | 0hPa | 0V | 00:00:00 | 00:00:00 | 00:00:00 | |
| BEGRI65-1 | 2026-09-01 14:14:28 | 49.73670 | 8.49291 | 78° | 75km/h | 14163m | -8.1m/s | -53.5°C | 0% | 0hPa | 0V | 00:00:00 | 00:00:00 | 00:00:00 | |
| DM0DOS-11 | 2026-09-01 14:14:26 | 49.73637 | 8.49085 | 75° | 78km/h | 14228m | -7.9m/s | 0°C | 0% | 0hPa | 0V | 00:00:00 | 00:00:00 | 00:00:00 | |
| DK7TD | 2026-09-01 14:14:24 | 49.73647 | 8.49145 | 76° | 78km/h | 14203m | -8.1m/s | -53.4°C | 0% | 0hPa | 4.5V | 00:00:00 | 00:00:00 | 00:00:00 | |
| DL1NUX | 2026-09-01 14:14:24 | 49.73627 | 8.49026 | 74° | 78km/h | 14244m | -8m/s | 0°C | 0% | 0hPa | 0V | 00:00:00 | 00:00:00 | 00:00:00 | |
| THATR2-17 | 2026-09-01 14:14:23 | 49.73608 | 8.48904 | 76° | 82km/h | 14268m | 0m/s | 0°C | 0% | 0hPa | 4.5V | 00:00:00 | 00:00:00 | 00:00:00 | |
| HEMX73-11 | 2026-09-01 14:14:22 | 49.73643 | 8.49115 | 77° | 80km/h | 14212m | -8.0m/s | -53.5°C | 0% | 0hPa | 4.5V | 00:00:00 | 00:00:00 | 00:00:00 | |
| DL1XH-west | 2026-09-01 14:14:20 | 49.73627 | 8.49026 | 75° | 78km/h | 14236m | -7.9m/s | -53.5°C | 0% | 0hPa | 4.5V | 00:00:00 | 00:00:00 | 00:00:00 | |
| DO3MHA-11 | 2026-09-01 14:14:19 | 49.73627 | 8.49026 | 75° | 82km/h | 14245m | -7.9m/s | 0°C | 0% | 0hPa | 0V | 00:00:00 | 00:00:00 | 00:00:00 | |
| DN1GJH-1 | 2026-09-01 14:14:18 | 49.73622 | 8.48997 | 77° | 78km/h | 14245m | -8.0m/s | -53.6°C | 0% | 0hPa | 0V | 00:00:00 | 00:00:00 | 00:00:00 | |
| NBG1-10 | 2026-09-01 14:14:16 | 49.73612 | 8.48936 | 77° | 80km/h | 14277m | -7.9m/s | 0°C | 0% | 0hPa | 0V | 00:00:00 | 00:00:00 | 00:00:00 | |
| DL1NUX | 2026-09-01 14:14:14 | 49.73582 | 8.48717 | 79° | 78km/h | 14333m | -8m/s | 0°C | 0% | 0hPa | 0V | 00:00:00 | 00:00:00 | 00:00:00 | |
| DK7TD | 2026-09-01 14:14:13 | 49.73594 | 8.48808 | 78° | 84km/h | 14292m | -7.9m/s | -53.6°C | 0% | 0hPa | 4.5V | 00:00:00 | 00:00:00 | 00:00:00 | |
| BIOWL1-15 | 2026-09-01 14:14:13 | 49.73578 | 8.48684 | 79° | 80km/h | 14324m | -7.9m/s | -53.4°C | 0% | 0hPa | 4.5V | 00:00:00 | 00:00:00 | 00:00:00 | |
| HSKMA3-T | 2026-09-01 14:14:11 | 49.73590 | 8.48776 | 79° | 82km/h | 14300m | -8m/s | -53.5°C | 0% | 0hPa | 4.5V | 00:00:00 | 00:00:00 | 00:00:00 | |
| CB1BUN | 2026-09-01 14:14:11 | 49.73590 | 8.48776 | 80° | 82km/h | 14301m | -8.0m/s | -53.5°C | 0% | 0hPa | 4.5V | 00:00:00 | 00:00:00 | 00:00:00 | |
| DO3MHA-11 | 2026-09-01 14:14:09 | 49.73582 | 8.48715 | 80° | 84km/h | 14325m | -7.9m/s | 0°C | 0% | 0hPa | 4.5V | 00:00:00 | 00:00:00 | 00:00:00 | |
| DB0UT-7 | 2026-09-01 14:14:08 | 49.73578 | 8.48684 | 80° | 77km/h | 14333m | -7.9m/s | 0°C | 0% | 0hPa | 4.5V | 00:00:00 | 00:00:00 | 00:00:00 | |
| BEGRI65-1 | 2026-09-01 14:14:07 | 49.73574 | 8.48652 | 81° | 82km/h | 14333m | -8.0m/s | -53.3°C | 0% | 0hPa | 4.5V | 00:00:00 | 00:00:00 | 00:00:00 | |
| DL1XH-west | 2026-09-01 14:14:06 | 49.73571 | 8.48620 | 80° | 84km/h | 14341m | -8m/s | -53.2°C | 0% | 0hPa | 4.5V | 00:00:00 | 00:00:00 | 00:00:00 | |
| DM0DOS-11 | 2026-09-01 14:14:05 | 49.73551 | 8.48424 | 83° | 82km/h | 14397m | -8m/s | 0°C | 0% | 0hPa | 0V | 00:00:00 | 00:00:00 | 00:00:00 | |
| DF3TZ-5 | 2026-09-01 14:14:04 | 49.73557 | 8.48490 | 81° | 84km/h | 14373m | -8.1m/s | -53.1°C | -1.0% | -1.0hPa | 0V | 00:00:00 | 00:00:00 | 00:00:00 | |
| DL1NUX | 2026-09-01 14:14:03 | 49.73546 | 8.48362 | 86° | 80km/h | 14413m | -8m/s | 0°C | 0% | 0hPa | 0V | 00:00:00 | 00:00:00 | 00:00:00 | |
| DK7TD | 2026-09-01 14:14:03 | 49.73557 | 8.48490 | 81° | 84km/h | 14373m | -8.1m/s | -53.1°C | 0% | 0hPa | 4.5V | 00:00:00 | 00:00:00 | 00:00:00 | |
| BIOWL1-15 | 2026-09-01 14:14:00 | 49.73545 | 8.48331 | 86° | 78km/h | 14413m | -8m/s | -53°C | 0% | 0hPa | 4.5V | 00:00:00 | 00:00:00 | 00:00:00 | |
| DO3MHA-11 | 2026-09-01 14:13:59 | 49.73548 | 8.48393 | 84° | 78km/h | 14405m | -7.9m/s | 0°C | 0% | 0hPa | 4.5V | 00:00:00 | 00:00:00 | 00:00:00 | |
| HSKMA3-T | 2026-09-01 14:13:57 | 49.73543 | 8.48300 | 86° | 78km/h | 14421m | -8.2m/s | -53°C | 0% | 0hPa | 4.5V | 00:00:00 | 00:00:00 | 00:00:00 | |
| DO2KSM | 2026-09-01 14:13:56 | 49.73543 | 8.48300 | 87° | 78km/h | 14421m | -8.2m/s | -53.0°C | 0% | 0hPa | 4.5V | 00:00:00 | 00:00:00 | 00:00:00 | |
| DL1XH-west | 2026-09-01 14:13:54 | 49.73538 | 8.48209 | 84° | 77km/h | 14446m | -8.1m/s | -52.9°C | 0% | 0hPa | 4.5V | 00:00:00 | 00:00:00 | 00:00:00 | |
| DL1NUX | 2026-09-01 14:13:53 | 49.73534 | 8.48062 | 89° | 73km/h | 14496m | -8.3m/s | 0°C | 0% | 0hPa | 0V | 00:00:00 | 00:00:00 | 00:00:00 | |
| DK7TD | 2026-09-01 14:13:52 | 49.73535 | 8.48149 | 86° | 75km/h | 14462m | -8.3m/s | -52.8°C | 0% | 0hPa | 4.5V | 00:00:00 | 00:00:00 | 00:00:00 | |
| CB1BUN | 2026-09-01 14:13:51 | 49.73534 | 8.48120 | 89° | 75km/h | 14471m | -8.4m/s | -52.8°C | 0% | 0hPa | 4.5V | 00:00:00 | 00:00:00 | 00:00:00 | |
| BIOWL1-15 | 2026-09-01 14:13:50 | 49.73534 | 8.48034 | 90° | 73km/h | 14496m | -8.3m/s | -52.8°C | 0% | 0hPa | 4.5V | 00:00:00 | 00:00:00 | 00:00:00 | |
| DO3MHA-11 | 2026-09-01 14:13:49 | 49.73534 | 8.48091 | 90° | 69km/h | 14488m | -8.4m/s | 0°C | 0% | 0hPa | 0V | 00:00:00 | 00:00:00 | 00:00:00 | |
| AM1SDL-15 | 2026-09-01 14:13:46 | 49.73534 | 8.48006 | 91° | 68km/h | 14513m | -8.4m/s | 0°C | 0% | 0hPa | 0V | 00:00:00 | 00:00:00 | 00:00:00 | |
| DM0DOS-11 | 2026-09-01 14:13:45 | 49.73536 | 8.47845 | 93° | 68km/h | 14573m | -8.6m/s | 0°C | 0% | 0hPa | 0V | 00:00:00 | 00:00:00 | 00:00:00 | |
| DL1XH-west | 2026-09-01 14:13:43 | 49.73534 | 8.47924 | 91° | 69km/h | 14530m | -8.6m/s | -52.6°C | 0% | 0hPa | 4.5V | 00:00:00 | 00:00:00 | 00:00:00 | |
| DL1NUX | 2026-09-01 14:13:43 | 49.73539 | 8.47794 | 93° | 64km/h | 14581m | -8.5m/s | 0°C | 0% | 0hPa | 0V | 00:00:00 | 00:00:00 | 00:00:00 | |
| NBG1-10 | 2026-09-01 14:13:43 | 49.73534 | 8.47924 | 93° | 64km/h | 14539m | -8.4m/s | 0°C | 0% | 0hPa | 4.5V | 00:00:00 | 00:00:00 | 00:00:00 | |
| DK7TD | 2026-09-01 14:13:41 | 49.73536 | 8.47845 | 94° | 68km/h | 14556m | -8.6m/s | -52.4°C | 0% | 0hPa | 4.5V | 00:00:00 | 00:00:00 | 00:00:00 | |
| BIOWL1-15 | 2026-09-01 14:13:41 | 49.73541 | 8.47745 | 95° | 60km/h | 14590m | -8.4m/s | -52.4°C | 0% | 0hPa | 4.5V | 00:00:00 | 00:00:00 | 00:00:00 | |
| DO3MHA-11 | 2026-09-01 14:13:39 | 49.73537 | 8.47818 | 94° | 62km/h | 14573m | -8.5m/s | 0°C | 0% | 0hPa | 4.5V | 00:00:00 | 00:00:00 | 00:00:00 | |
| HSKMA3-T | 2026-09-01 14:13:38 | 49.73540 | 8.47769 | 94° | 62km/h | 14581m | -8.5m/s | -52.4°C | 0% | 0hPa | 4.5V | 00:00:00 | 00:00:00 | 00:00:00 | |
| SO1NDE-10 | 2026-09-01 14:13:38 | 49.73538 | 8.47794 | 94° | 64km/h | 14582m | -8.5m/s | 0°C | 0% | 0hPa | 4.5V | 00:00:00 | 00:00:00 | 00:00:00 | |
| DN1GJH-1 | 2026-09-01 14:13:37 | 49.73539 | 8.47769 | 95° | 62km/h | 14582m | -8.5m/s | -52.4°C | 0% | 0hPa | 4.5V | 00:00:00 | 00:00:00 | 00:00:00 | |
| DF2AP-13 | 2026-09-01 14:13:33 | 49.73545 | 8.47674 | 96° | 64km/h | 14624m | -8.5m/s | 0°C | 0% | 0hPa | 4.5V | 00:00:00 | 00:00:00 | 00:00:00 | |
| DL1XH-west | 2026-09-01 14:13:32 | 49.73548 | 8.47625 | 95° | 64km/h | 14633m | -8.5m/s | -52.4°C | 0% | 0hPa | 4.5V | 00:00:00 | 00:00:00 | 00:00:00 | |
| DK7TD | 2026-09-01 14:13:30 | 49.73550 | 8.47575 | 95° | 66km/h | 14650m | -8.3m/s | -52.4°C | 0% | 0hPa | 4.5V | 00:00:00 | 00:00:00 | 00:00:00 | |
| DD1CC2-15 | 2026-09-01 14:13:29 | 49.73551 | 8.47549 | 95° | 66km/h | 14658m | -8.4m/s | 0°C | 0% | 0hPa | 4.5V | 00:00:00 | 00:00:00 | 00:00:00 | |
| DO2KSM | 2026-09-01 14:13:28 | 49.73551 | 8.47549 | 95° | 66km/h | 14658m | -8.4m/s | -52.4°C | 0% | 0hPa | 4.5V | 00:00:00 | 00:00:00 | 00:00:00 | |
| DL8DAS-15 | 2026-09-01 14:13:27 | 49.73553 | 8.47523 | 95° | 66km/h | 14666m | -8.3m/s | -52.5°C | 0% | 0hPa | 4.5V | 00:00:00 | 00:00:00 | 00:00:00 | |
| BIOWL1-15 | 2026-09-01 14:13:25 | 49.73554 | 8.47472 | 93° | 66km/h | 14683m | -8.4m/s | -52.5°C | 0% | 0hPa | 4.5V | 00:00:00 | 00:00:00 | 00:00:00 | |
| DL1XH-west | 2026-09-01 14:13:21 | 49.73557 | 8.47367 | 92° | 68km/h | 14717m | -8.5m/s | -52.5°C | 0% | 0hPa | 4.5V | 00:00:00 | 00:00:00 | 00:00:00 | |
| THATR2-17 | 2026-09-01 14:13:21 | 49.73555 | 8.46909 | 84° | 58km/h | 14874m | 0m/s | 0°C | 0% | 0hPa | 4.5V | 00:00:00 | 00:00:00 | 00:00:00 | |
| DK7TD | 2026-09-01 14:13:20 | 49.73558 | 8.47316 | 93° | 64km/h | 14734m | -8.3m/s | -52.5°C | 0% | 0hPa | 4.5V | 00:00:00 | 00:00:00 | 00:00:00 | |
| DF1GD-15 | 2026-09-01 14:13:19 | 49.73559 | 8.47291 | 94° | 62km/h | 14742m | -8.3m/s | -52.5°C | 0% | 0hPa | 4.5V | 00:00:00 | 00:00:00 | 00:00:00 | |
| DM7RM-13 | 2026-09-01 14:13:18 | 49.73559 | 8.47291 | 94° | 62km/h | 14742m | -8.3m/s | 0°C | 0% | 0hPa | 4.5V | 00:00:00 | 00:00:00 | 00:00:00 | |
| BIOWL1-15 | 2026-09-01 14:13:17 | 49.73562 | 8.47195 | 91° | 62km/h | 14776m | -8.5m/s | -52.7°C | 0% | 0hPa | 4.5V | 00:00:00 | 00:00:00 | 00:00:00 | |
| DN1GJH-1 | 2026-09-01 14:13:16 | 49.73561 | 8.47243 | 94° | 62km/h | 14759m | -8.5m/s | -52.6°C | 0% | 0hPa | 0V | 00:00:00 | 00:00:00 | 00:00:00 | |
| DL1NUX | 2026-09-01 14:13:13 | 49.73561 | 8.47051 | 87° | 62km/h | 14833m | -8.1m/s | 0°C | 0% | 0hPa | 0V | 00:00:00 | 00:00:00 | 00:00:00 | |
| DL1XH-west | 2026-09-01 14:13:11 | 49.73562 | 8.47123 | 89° | 60km/h | 14801m | -8.2m/s | -52.7°C | 0% | 0hPa | 4.5V | 00:00:00 | 00:00:00 | 00:00:00 | |
| HSKMA3-T | 2026-09-01 14:13:11 | 49.73562 | 8.47099 | 89° | 62km/h | 14809m | -8.2m/s | -52.7°C | 0% | 0hPa | 4.5V | 00:00:00 | 00:00:00 | 00:00:00 | |
| NBG1-10 | 2026-09-01 14:13:10 | 49.73562 | 8.47099 | 90° | 62km/h | 14818m | -8.0m/s | 0°C | 0% | 0hPa | 4.5V | 00:00:00 | 00:00:00 | 00:00:00 | |
| DK7TD | 2026-09-01 14:13:09 | 49.73561 | 8.47051 | 87° | 62km/h | 14825m | -8m/s | -52.8°C | 0% | 0hPa | 4.5V | 00:00:00 | 00:00:00 | 00:00:00 | |
| SO1NDE-10 | 2026-09-01 14:13:08 | 49.73561 | 8.47051 | 88° | 62km/h | 14834m | -8.0m/s | 0°C | 0% | 0hPa | 0V | 00:00:00 | 00:00:00 | 00:00:00 | |
| DB0UT-7 | 2026-09-01 14:13:07 | 49.73560 | 8.47027 | 87° | 62km/h | 14842m | -7.8m/s | 0°C | 0% | 0hPa | 0V | 00:00:00 | 00:00:00 | 00:00:00 | |
| DM0DOS-11 | 2026-09-01 14:13:05 | 49.73552 | 8.46863 | 84° | 60km/h | 14898m | -7.8m/s | 0°C | 0% | 0hPa | 0V | 00:00:00 | 00:00:00 | 00:00:00 | |
| BIOWL1-15 | 2026-09-01 14:13:04 | 49.73556 | 8.46932 | 85° | 60km/h | 14866m | -7.9m/s | -53°C | 0% | 0hPa | 4.5V | 00:00:00 | 00:00:00 | 00:00:00 | |
| DL3AQ-11 | 2026-09-01 14:13:03 | 49.73555 | 8.46909 | 84° | 58km/h | 14874m | -8.0m/s | -53.0°C | -1.0% | -1.0hPa | 4.6V | 00:00:00 | 00:00:00 | 00:00:00 | |
| HSKMA3-T | 2026-09-01 14:13:00 | 49.73551 | 8.46838 | 85° | 62km/h | 14898m | -7.8m/s | -53.2°C | 0% | 0hPa | 4.6V | 00:00:00 | 00:00:00 | 00:00:00 | |
| DO3MHA-11 | 2026-09-01 14:12:59 | 49.73551 | 8.46838 | 85° | 64km/h | 14906m | -7.5m/s | 0°C | 0% | 0hPa | 4.6V | 00:00:00 | 00:00:00 | 00:00:00 | |
| DK7TD | 2026-09-01 14:12:58 | 49.73548 | 8.46789 | 87° | 66km/h | 14914m | -7.7m/s | -53.2°C | 0% | 0hPa | 4.6V | 00:00:00 | 00:00:00 | 00:00:00 | |
| DN1GJH-1 | 2026-09-01 14:12:56 | 49.73547 | 8.46764 | 89° | 64km/h | 14922m | -8.0m/s | -53.2°C | 0% | 0hPa | 4.6V | 00:00:00 | 00:00:00 | 00:00:00 | |
| DL1XH-west | 2026-09-01 14:12:55 | 49.73547 | 8.46739 | 88° | 62km/h | 14930m | -8m/s | -53.2°C | 0% | 0hPa | 4.6V | 00:00:00 | 00:00:00 | 00:00:00 | |
| DM0DOS-11 | 2026-09-01 14:12:55 | 49.73544 | 8.46616 | 87° | 66km/h | 14978m | -7.8m/s | 0°C | 0% | 0hPa | 0V | 00:00:00 | 00:00:00 | 00:00:00 | |
| BIOWL1-15 | 2026-09-01 14:12:54 | 49.73546 | 8.46691 | 88° | 62km/h | 14946m | -8.2m/s | -53.1°C | 0% | 0hPa | 4.5V | 00:00:00 | 00:00:00 | 00:00:00 | |
| DL1NUX | 2026-09-01 14:12:53 | 49.73543 | 8.46564 | 88° | 68km/h | 14994m | -7.5m/s | 0°C | 0% | 0hPa | 0V | 00:00:00 | 00:00:00 | 00:00:00 | |
| DL8DAS-15 | 2026-09-01 14:12:52 | 49.73545 | 8.46642 | 88° | 64km/h | 14963m | -8.1m/s | -53.1°C | 0% | 0hPa | 4.5V | 00:00:00 | 00:00:00 | 00:00:00 | |
| DJTTGO | 2026-09-01 14:12:51 | 49.73545 | 8.46642 | 88° | 64km/h | 14963m | -8.1m/s | -53.1°C | 0% | 0hPa | 4.5V | 00:00:00 | 00:00:00 | 00:00:00 | |
| HSKMA3-T | 2026-09-01 14:12:49 | 49.73543 | 8.46564 | 88° | 68km/h | 14986m | -7.5m/s | -53.2°C | 0% | 0hPa | 4.5V | 00:00:00 | 00:00:00 | 00:00:00 | |
| CB1BUN | 2026-09-01 14:12:48 | 49.73543 | 8.46564 | 89° | 68km/h | 14986m | -7.5m/s | -53.2°C | 0% | 0hPa | 4.5V | 00:00:00 | 00:00:00 | 00:00:00 | |
| DK7TD | 2026-09-01 14:12:47 | 49.73542 | 8.46512 | 90° | 64km/h | 15002m | -7.5m/s | -53.2°C | 0% | 0hPa | 4.5V | 00:00:00 | 00:00:00 | 00:00:00 | |
| DM0DOS-11 | 2026-09-01 14:12:46 | 49.73540 | 8.46369 | 84° | 58km/h | 15055m | -7.7m/s | 0°C | 0% | 0hPa | 0V | 00:00:00 | 00:00:00 | 00:00:00 | |
| DL1XH-west | 2026-09-01 14:12:46 | 49.73542 | 8.46463 | 91° | 62km/h | 15017m | -7.7m/s | -53.1°C | 0% | 0hPa | 4.6V | 00:00:00 | 00:00:00 | 00:00:00 | |
| DO3DL | 2026-09-01 14:12:46 | 49.73542 | 8.46487 | 92° | 64km/h | 15010m | -7.3m/s | -53.1°C | 0% | 0hPa | 0V | 00:00:00 | 00:00:00 | 00:00:00 | |
| DL1NUX | 2026-09-01 14:12:43 | 49.73537 | 8.46323 | 83° | 60km/h | 15071m | -7.8m/s | 0°C | 0% | 0hPa | 0V | 00:00:00 | 00:00:00 | 00:00:00 | |
| BIOWL1-15 | 2026-09-01 14:12:42 | 49.73542 | 8.46415 | 88° | 60km/h | 15032m | -7.4m/s | -53°C | 0% | 0hPa | 4.6V | 00:00:00 | 00:00:00 | 00:00:00 | |
| HSKMA3-T | 2026-09-01 14:12:39 | 49.73537 | 8.46323 | 84° | 60km/h | 15063m | -7.1m/s | -52.6°C | 0% | 0hPa | 4.6V | 00:00:00 | 00:00:00 | 00:00:00 | |
| DM7RM-13 | 2026-09-01 14:12:38 | 49.73535 | 8.46299 | 85° | 60km/h | 15071m | -7.8m/s | 0°C | 0% | 0hPa | 4.6V | 00:00:00 | 00:00:00 | 00:00:00 | |
| NBG1-10 | 2026-09-01 14:12:37 | 49.73535 | 8.46299 | 84° | 69km/h | 15078m | -7.5m/s | 0°C | 0% | 0hPa | 4.6V | 00:00:00 | 00:00:00 | 00:00:00 | |
| DK7TD | 2026-09-01 14:12:36 | 49.73531 | 8.46253 | 83° | 60km/h | 15086m | -7.8m/s | -52.6°C | 0% | 0hPa | 4.6V | 00:00:00 | 00:00:00 | 00:00:00 | |
| DN1GJH-1 | 2026-09-01 14:12:35 | 49.73531 | 8.46253 | 84° | 60km/h | 15086m | -7.8m/s | -52.6°C | 0% | 0hPa | 4.6V | 00:00:00 | 00:00:00 | 00:00:00 | |
| DD1CC2-15 | 2026-09-01 14:12:34 | 49.73529 | 8.46229 | 84° | 62km/h | 15094m | -7.8m/s | 0°C | 0% | 0hPa | 4.6V | 00:00:00 | 00:00:00 | 00:00:00 | |
| DL1XH-west | 2026-09-01 14:12:33 | 49.73527 | 8.46205 | 82° | 64km/h | 15102m | -7.3m/s | -52.7°C | 0% | 0hPa | 4.6V | 00:00:00 | 00:00:00 | 00:00:00 | |
| DL1NUX | 2026-09-01 14:12:33 | 49.73516 | 8.46081 | 80° | 68km/h | 15148m | -7.3m/s | 0°C | 0% | 0hPa | 0V | 00:00:00 | 00:00:00 | 00:00:00 | |
| BIOWL1-15 | 2026-09-01 14:12:32 | 49.73523 | 8.46156 | 81° | 64km/h | 15117m | -7.3m/s | -52.7°C | 0% | 0hPa | 4.6V | 00:00:00 | 00:00:00 | 00:00:00 | |
| DO3DL | 2026-09-01 14:12:31 | 49.73523 | 8.46156 | 82° | 64km/h | 15117m | -7.3m/s | -52.7°C | 0% | 0hPa | 4.6V | 00:00:00 | 00:00:00 | 00:00:00 | |
| DO3MHA-11 | 2026-09-01 14:12:29 | 49.73518 | 8.46106 | 83° | 69km/h | 15140m | -7.5m/s | 0°C | 0% | 0hPa | 4.6V | 00:00:00 | 00:00:00 | 00:00:00 | |
| HSKMA3-T | 2026-09-01 14:12:28 | 49.73516 | 8.46081 | 81° | 68km/h | 15140m | -7.5m/s | -52.8°C | 0% | 0hPa | 4.6V | 00:00:00 | 00:00:00 | 00:00:00 | |
| CB1BUN | 2026-09-01 14:12:28 | 49.73516 | 8.46081 | 82° | 68km/h | 15140m | -7.6m/s | -52.8°C | 0% | 0hPa | 4.6V | 00:00:00 | 00:00:00 | 00:00:00 | |
| DK7TD | 2026-09-01 14:12:26 | 49.73507 | 8.46003 | 79° | 68km/h | 15163m | -7.7m/s | -52.9°C | 0% | 0hPa | 4.6V | 00:00:00 | 00:00:00 | 00:00:00 | |
| DM0DOS-11 | 2026-09-01 14:12:25 | 49.73493 | 8.45866 | 82° | 73km/h | 15209m | -7.6m/s | 0°C | 0% | 0hPa | 0V | 00:00:00 | 00:00:00 | 00:00:00 | |
| DO3DL | 2026-09-01 14:12:25 | 49.73503 | 8.45978 | 81° | 68km/h | 15171m | -7.9m/s | -52.9°C | 0% | 0hPa | 4.6V | 00:00:00 | 00:00:00 | 00:00:00 | |
| DL1XH-west | 2026-09-01 14:12:24 | 49.73501 | 8.45951 | 81° | 71km/h | 15179m | -7.9m/s | -52.9°C | 0% | 0hPa | 4.6V | 00:00:00 | 00:00:00 | 00:00:00 | |
| DL1NUX | 2026-09-01 14:12:23 | 49.73489 | 8.45810 | 84° | 71km/h | 15225m | -7.6m/s | 0°C | 0% | 0hPa | 0V | 00:00:00 | 00:00:00 | 00:00:00 | |
| AM1SDL-15 | 2026-09-01 14:12:22 | 49.73498 | 8.45923 | 82° | 58km/h | 15195m | -7.4m/s | 0°C | 0% | 0hPa | 4.6V | 00:00:00 | 00:00:00 | 00:00:00 | |
| BIOWL1-15 | 2026-09-01 14:12:21 | 49.73493 | 8.45866 | 83° | 73km/h | 15202m | -7.5m/s | -52.9°C | 0% | 0hPa | 4.6V | 00:00:00 | 00:00:00 | 00:00:00 | |
| BEGRI65-1 | 2026-09-01 14:12:20 | 49.73493 | 8.45866 | 84° | 73km/h | 15202m | -7.5m/s | -52.9°C | 0% | 0hPa | 4.6V | 00:00:00 | 00:00:00 | 00:00:00 | |
| DO3MHA-11 | 2026-09-01 14:12:19 | 49.73490 | 8.45837 | 85° | 75km/h | 15217m | -7.6m/s | 0°C | 0% | 0hPa | 4.6V | 00:00:00 | 00:00:00 | 00:00:00 | |
| DO3DL | 2026-09-01 14:12:18 | 49.73488 | 8.45810 | 85° | 71km/h | 15217m | -7.7m/s | -52.9°C | 0% | 0hPa | 4.6V | 00:00:00 | 00:00:00 | 00:00:00 | |
| HSKMA3-T | 2026-09-01 14:12:17 | 49.73484 | 8.45756 | 81° | 71km/h | 15232m | -7.6m/s | -52.8°C | 0% | 0hPa | 4.6V | 00:00:00 | 00:00:00 | 00:00:00 | |
| DM7RM-13 | 2026-09-01 14:12:16 | 49.73484 | 8.45756 | 82° | 71km/h | 15233m | -7.6m/s | 0°C | 0% | 0hPa | 0V | 00:00:00 | 00:00:00 | 00:00:00 | |
| DM0DOS-11 | 2026-09-01 14:12:15 | 49.73466 | 8.45574 | 84° | 78km/h | 15289m | -7.5m/s | 0°C | 0% | 0hPa | 0V | 00:00:00 | 00:00:00 | 00:00:00 | |
| DK7TD | 2026-09-01 14:12:15 | 49.73478 | 8.45699 | 80° | 77km/h | 15248m | -7.6m/s | -52.6°C | 0% | 0hPa | 4.6V | 00:00:00 | 00:00:00 | 00:00:00 | |
| DN1GJH-1 | 2026-09-01 14:12:14 | 49.73478 | 8.45699 | 80° | 77km/h | 15248m | -7.6m/s | -52.6°C | 0% | 0hPa | 0V | 00:00:00 | 00:00:00 | 00:00:00 | |
| DL1NUX | 2026-09-01 14:12:13 | 49.73463 | 8.45516 | 84° | 71km/h | 15304m | -7.6m/s | 0°C | 0% | 0hPa | 0V | 00:00:00 | 00:00:00 | 00:00:00 | |
| DL1XH-west | 2026-09-01 14:12:13 | 49.73471 | 8.45637 | 80° | 84km/h | 15264m | -8.6m/s | -52.6°C | 0% | 0hPa | 4.6V | 00:00:00 | 00:00:00 | 00:00:00 | |
| BIOWL1-15 | 2026-09-01 14:12:13 | 49.73466 | 8.45574 | 85° | 78km/h | 15281m | -8.1m/s | -52.7°C | 0% | 0hPa | 4.6V | 00:00:00 | 00:00:00 | 00:00:00 | |
| DO3MHA-11 | 2026-09-01 14:12:09 | 49.73464 | 8.45544 | 86° | 80km/h | 15297m | -7.6m/s | 0°C | 0% | 0hPa | 4.6V | 00:00:00 | 00:00:00 | 00:00:00 | |
| SO1NDE-10 | 2026-09-01 14:12:08 | 49.73463 | 8.45516 | 85° | 69km/h | 15305m | -7.6m/s | 0°C | 0% | 0hPa | 4.6V | 00:00:00 | 00:00:00 | 00:00:00 | |
| DB0UT-7 | 2026-09-01 14:12:07 | 49.73461 | 8.45488 | 85° | 68km/h | 15313m | -8.0m/s | 0°C | 0% | 0hPa | 4.6V | 00:00:00 | 00:00:00 | 00:00:00 | |
| HSKMA3-T | 2026-09-01 14:12:06 | 49.73459 | 8.45461 | 83° | 73km/h | 15312m | -8m/s | -52.7°C | 0% | 0hPa | 4.6V | 00:00:00 | 00:00:00 | 00:00:00 | |
| DO2KSM | 2026-09-01 14:12:05 | 49.73454 | 8.45399 | 85° | 84km/h | 15329m | -8.6m/s | -52.7°C | 0% | 0hPa | 4.6V | 00:00:00 | 00:00:00 | 00:00:00 | |
| DK7TD | 2026-09-01 14:12:04 | 49.73452 | 8.45366 | 87° | 88km/h | 15338m | -8.3m/s | -52.7°C | 0% | 0hPa | 4.6V | 00:00:00 | 00:00:00 | 00:00:00 | |
| NBG1-10 | 2026-09-01 14:12:04 | 49.73454 | 8.45400 | 87° | 69km/h | 15338m | -8.3m/s | 0°C | 0% | 0hPa | 4.6V | 00:00:00 | 00:00:00 | 00:00:00 | |
| DF2AP-13 | 2026-09-01 14:12:03 | 49.73452 | 8.45366 | 87° | 68km/h | 15346m | -8.4m/s | 0°C | 0% | 0hPa | 4.6V | 00:00:00 | 00:00:00 | 00:00:00 | |
| DL1XH-west | 2026-09-01 14:12:01 | 49.73453 | 8.45298 | 94° | 86km/h | 15355m | -8.2m/s | -52.6°C | 0% | 0hPa | 4.6V | 00:00:00 | 00:00:00 | 00:00:00 | |
| BIOWL1-15 | 2026-09-01 14:12:00 | 49.73457 | 8.45235 | 97° | 75km/h | 15373m | -9.2m/s | -52.4°C | 0% | 0hPa | 4.6V | 00:00:00 | 00:00:00 | 00:00:00 | |
| DO3DL | 2026-09-01 14:11:59 | 49.73459 | 8.45208 | 95° | 68km/h | 15382m | -9.2m/s | -52.4°C | 0% | 0hPa | 0V | 00:00:00 | 00:00:00 | 00:00:00 | |
| DF1GD-15 | 2026-09-01 14:11:56 | 49.73460 | 8.45155 | 89° | 68km/h | 15400m | -8.9m/s | -52.3°C | 0% | 0hPa | 0V | 00:00:00 | 00:00:00 | 00:00:00 | |
| DM0DOS-11 | 2026-09-01 14:11:55 | 49.73460 | 8.45000 | 95° | 66km/h | 15470m | -10.1m/s | 0°C | 0% | 0hPa | 0V | 00:00:00 | 00:00:00 | 00:00:00 | |
| DK7TD | 2026-09-01 14:11:54 | 49.73458 | 8.45076 | 90° | 68km/h | 15429m | -9.9m/s | -52.3°C | 0% | 0hPa | 4.6V | 00:00:00 | 00:00:00 | 00:00:00 | |
| DL1NUX | 2026-09-01 14:11:53 | 49.73463 | 8.44948 | 95° | 68km/h | 15490m | -9.9m/s | 0°C | 0% | 0hPa | 0V | 00:00:00 | 00:00:00 | 00:00:00 | |
| DO3DL | 2026-09-01 14:11:52 | 49.73458 | 8.45051 | 93° | 66km/h | 15439m | -10.0m/s | -52.3°C | 0% | 0hPa | 4.6V | 00:00:00 | 00:00:00 | 00:00:00 | |
| DL1XH-west | 2026-09-01 14:11:51 | 49.73460 | 8.45000 | 95° | 66km/h | 15459m | -10.4m/s | -52.3°C | 0% | 0hPa | 4.6V | 00:00:00 | 00:00:00 | 00:00:00 | |
| BIOWL1-15 | 2026-09-01 14:11:51 | 49.73464 | 8.44948 | 96° | 68km/h | 15480m | -10.2m/s | -52.3°C | 0% | 0hPa | 4.6V | 00:00:00 | 00:00:00 | 00:00:00 | |
| DO3MHA-11 | 2026-09-01 14:11:49 | 49.73462 | 8.44974 | 96° | 64km/h | 15480m | -10.1m/s | 0°C | 0% | 0hPa | 0V | 00:00:00 | 00:00:00 | 00:00:00 | |
| DO3DL | 2026-09-01 14:11:46 | 49.73467 | 8.44895 | 97° | 68km/h | 15500m | -10.1m/s | -52.4°C | 0% | 0hPa | 0V | 00:00:00 | 00:00:00 | 00:00:00 | |
| DM0DOS-11 | 2026-09-01 14:11:45 | 49.73468 | 8.44755 | 87° | 60km/h | 15568m | -9.2m/s | 0°C | 0% | 0hPa | 0V | 00:00:00 | 00:00:00 | 00:00:00 | |
| DK7TD | 2026-09-01 14:11:43 | 49.73470 | 8.44800 | 88° | 57km/h | 15541m | -9.4m/s | -52.5°C | 0% | 0hPa | 4.6V | 00:00:00 | 00:00:00 | 00:00:00 | |
| DL1XH-west | 2026-09-01 14:11:40 | 49.73468 | 8.44729 | 88° | 66km/h | 15568m | -9.2m/s | -52.5°C | 0% | 0hPa | 4.6V | 00:00:00 | 00:00:00 | 00:00:00 | |
| DO3MHA-11 | 2026-09-01 14:11:39 | 49.73468 | 8.44729 | 88° | 66km/h | 15578m | -9.7m/s | 0°C | 0% | 0hPa | 4.6V | 00:00:00 | 00:00:00 | 00:00:00 | |
| BIOWL1-15 | 2026-09-01 14:11:38 | 49.73468 | 8.44676 | 91° | 69km/h | 15587m | -8.9m/s | -52.5°C | 0% | 0hPa | 4.6V | 00:00:00 | 00:00:00 | 00:00:00 | |
| SO1NDE-10 | 2026-09-01 14:11:38 | 49.73468 | 8.44703 | 92° | 55km/h | 15587m | -8.9m/s | 0°C | 0% | 0hPa | 4.6V | 00:00:00 | 00:00:00 | 00:00:00 | |
| DB0UT-7 | 2026-09-01 14:11:37 | 49.73468 | 8.44676 | 92° | 55km/h | 15597m | -9.1m/s | 0°C | 0% | 0hPa | 4.6V | 00:00:00 | 00:00:00 | 00:00:00 | |
| DF1GD-15 | 2026-09-01 14:11:36 | 49.73468 | 8.44650 | 94° | 68km/h | 15597m | -9.1m/s | -52.6°C | 0% | 0hPa | 4.6V | 00:00:00 | 00:00:00 | 00:00:00 | |
| DF2AP-13 | 2026-09-01 14:11:33 | 49.73471 | 8.44573 | 94° | 51km/h | 15650m | -8.8m/s | 0°C | 0% | 0hPa | 4.6V | 00:00:00 | 00:00:00 | 00:00:00 | |
| DK7TD | 2026-09-01 14:11:32 | 49.73473 | 8.44524 | 94° | 64km/h | 15641m | -8.4m/s | -52.5°C | 0% | 0hPa | 4.6V | 00:00:00 | 00:00:00 | 00:00:00 | |
| NBG1-10 | 2026-09-01 14:11:31 | 49.73473 | 8.44524 | 94° | 51km/h | 15650m | -8.8m/s | 0°C | 0% | 0hPa | 4.6V | 00:00:00 | 00:00:00 | 00:00:00 | |
| DL1XH-west | 2026-09-01 14:11:29 | 49.73475 | 8.44475 | 92° | 62km/h | 15658m | -8.2m/s | -52.4°C | 0% | 0hPa | 4.6V | 00:00:00 | 00:00:00 | 00:00:00 | |
| DO3MHA-11 | 2026-09-01 14:11:29 | 49.73475 | 8.44475 | 93° | 57km/h | 15667m | -8.1m/s | 0°C | 0% | 0hPa | 4.6V | 00:00:00 | 00:00:00 | 00:00:00 | |
| DN1GJH-1 | 2026-09-01 14:11:28 | 49.73476 | 8.44451 | 93° | 62km/h | 15667m | -8.1m/s | -52.4°C | 0% | 0hPa | 4.6V | 00:00:00 | 00:00:00 | 00:00:00 | |
| BIOWL1-15 | 2026-09-01 14:11:27 | 49.73476 | 8.44427 | 93° | 62km/h | 15675m | -8.3m/s | -52.3°C | 0% | 0hPa | 4.6V | 00:00:00 | 00:00:00 | 00:00:00 | |
| CB1BUN | 2026-09-01 14:11:26 | 49.73477 | 8.44403 | 96° | 60km/h | 15684m | -8.8m/s | -52.3°C | 0% | 0hPa | 0V | 00:00:00 | 00:00:00 | 00:00:00 | |
| DM0DOS-11 | 2026-09-01 14:11:25 | 49.73482 | 8.44280 | 89° | 51km/h | 15742m | -8.1m/s | 0°C | 0% | 0hPa | 0V | 00:00:00 | 00:00:00 | 00:00:00 | |
| DK7TD | 2026-09-01 14:11:21 | 49.73482 | 8.44280 | 90° | 51km/h | 15734m | -8.2m/s | -52.4°C | 0% | 0hPa | 4.6V | 00:00:00 | 00:00:00 | 00:00:00 | |
| DO3DL | 2026-09-01 14:11:20 | 49.73482 | 8.44280 | 91° | 51km/h | 15734m | -8.2m/s | -52.4°C | 0% | 0hPa | 4.6V | 00:00:00 | 00:00:00 | 00:00:00 | |
| HSKMA3-T | 2026-09-01 14:11:19 | 49.73481 | 8.44260 | 89° | 51km/h | 15742m | -8.1m/s | -52.5°C | 0% | 0hPa | 4.6V | 00:00:00 | 00:00:00 | 00:00:00 | |
| DL1XH-west | 2026-09-01 14:11:19 | 49.73481 | 8.44240 | 88° | 47km/h | 15751m | -8.5m/s | -52.5°C | 0% | 0hPa | 4.6V | 00:00:00 | 00:00:00 | 00:00:00 | |
| BIOWL1-15 | 2026-09-01 14:11:18 | 49.73480 | 8.44205 | 85° | 42km/h | 15768m | -8.4m/s | -52.6°C | 0% | 0hPa | 4.6V | 00:00:00 | 00:00:00 | 00:00:00 | |
| HEMX73-11 | 2026-09-01 14:11:17 | 49.73480 | 8.44222 | 88° | 46km/h | 15759m | -8.7m/s | -52.5°C | 0% | 0hPa | 0V | 00:00:00 | 00:00:00 | 00:00:00 | |
| DM0DOS-11 | 2026-09-01 14:11:15 | 49.73472 | 8.44104 | 86° | 53km/h | 15829m | -8.8m/s | 0°C | 0% | 0hPa | 0V | 00:00:00 | 00:00:00 | 00:00:00 | |
| BIOWL7-15 | 2026-09-01 14:11:14 | 49.73476 | 8.44160 | 81° | 40km/h | 15794m | -8.5m/s | -52.6°C | 0% | 0hPa | 4.6V | 00:00:00 | 00:00:00 | 00:00:00 | |
| DJTTGO | 2026-09-01 14:11:13 | 49.73476 | 8.44160 | 81° | 40km/h | 15794m | -8.5m/s | -52.6°C | 0% | 0hPa | 4.6V | 00:00:00 | 00:00:00 | 00:00:00 | |
| DK7TD | 2026-09-01 14:11:10 | 49.73471 | 8.44083 | 86° | 53km/h | 15829m | -8.8m/s | -52.5°C | 0% | 0hPa | 4.6V | 00:00:00 | 00:00:00 | 00:00:00 | |
| DO3MHA-11 | 2026-09-01 14:11:09 | 49.73471 | 8.44083 | 87° | 49km/h | 15838m | -8.7m/s | 0°C | 0% | 0hPa | 4.6V | 00:00:00 | 00:00:00 | 00:00:00 | |
| DL1XH-west | 2026-09-01 14:11:08 | 49.73469 | 8.44045 | 85° | 44km/h | 15847m | -8.3m/s | -52.4°C | 0% | 0hPa | 4.6V | 00:00:00 | 00:00:00 | 00:00:00 | |
| DB0UT-7 | 2026-09-01 14:11:07 | 49.73469 | 8.44045 | 85° | 51km/h | 15855m | -8.3m/s | 0°C | 0% | 0hPa | 4.6V | 00:00:00 | 00:00:00 | 00:00:00 | |
| BIOWL1-15 | 2026-09-01 14:11:06 | 49.73466 | 8.44015 | 82° | 37km/h | 15864m | -8.8m/s | -52.4°C | 0% | 0hPa | 4.6V | 00:00:00 | 00:00:00 | 00:00:00 | |
| DM0DOS-11 | 2026-09-01 14:11:05 | 49.73460 | 8.43918 | 87° | 62km/h | 15916m | -8.8m/s | 0°C | 0% | 0hPa | 0V | 00:00:00 | 00:00:00 | 00:00:00 | |
| DO2KSM | 2026-09-01 14:11:05 | 49.73466 | 8.44015 | 83° | 37km/h | 15873m | -8.8m/s | -52.3°C | 0% | 0hPa | 26.8V | 00:00:00 | 00:00:00 | 00:00:00 | |
| DL3AQ-11 | 2026-09-01 14:11:04 | 49.73464 | 8.43984 | 83° | 46km/h | 15881m | -8.6m/s | -52.3°C | -1.0% | -1.0hPa | 26.8V | 00:00:00 | 00:00:00 | 00:00:00 | |
| DO3DL | 2026-09-01 14:11:00 | 49.73460 | 8.43918 | 89° | 62km/h | 15908m | -9.1m/s | -52.4°C | 0% | 0hPa | 26.8V | 00:00:00 | 00:00:00 | 00:00:00 | |
| HSKMA3-T | 2026-09-01 14:10:59 | 49.73460 | 8.43894 | 90° | 60km/h | 15916m | -8.8m/s | -52.4°C | 0% | 0hPa | 26.8V | 00:00:00 | 00:00:00 | 00:00:00 | |
| DL1NUX | 2026-09-01 14:10:59 | 49.73465 | 8.43799 | 94° | 47km/h | 15972m | -9.5m/s | 0°C | 0% | 0hPa | 0V | 00:00:00 | 00:00:00 | 00:00:00 | |
| DK7TD | 2026-09-01 14:10:59 | 49.73461 | 8.43872 | 93° | 55km/h | 15925m | -9.3m/s | -52.4°C | 0% | 0hPa | 4.6V | 00:00:00 | 00:00:00 | 00:00:00 | |
| DO3MHA-11 | 2026-09-01 14:10:59 | 49.73460 | 8.43892 | 94° | 51km/h | 15925m | -9.3m/s | 0°C | 0% | 0hPa | 4.6V | 00:00:00 | 00:00:00 | 00:00:00 | |
| NBG1-10 | 2026-09-01 14:10:58 | 49.73460 | 8.43872 | 94° | 47km/h | 15935m | -8.9m/s | 0°C | 0% | 0hPa | 4.6V | 00:00:00 | 00:00:00 | 00:00:00 | |
| BIOWL1-15 | 2026-09-01 14:10:57 | 49.73465 | 8.43798 | 95° | 47km/h | 15962m | -9.4m/s | -52.4°C | 0% | 0hPa | 4.6V | 00:00:00 | 00:00:00 | 00:00:00 | |
| DL1XH-west | 2026-09-01 14:10:57 | 49.73462 | 8.43834 | 96° | 46km/h | 15943m | -9m/s | -52.4°C | 0% | 0hPa | 4.6V | 00:00:00 | 00:00:00 | 00:00:00 | |
| HEMX73-11 | 2026-09-01 14:10:56 | 49.73462 | 8.43834 | 97° | 46km/h | 15944m | -9.0m/s | -52.4°C | 0% | 0hPa | 0V | 00:00:00 | 00:00:00 | 00:00:00 | |
| DM0DOS-11 | 2026-09-01 14:10:55 | 49.73465 | 8.43718 | 88° | 55km/h | 16008m | -8.4m/s | 0°C | 0% | 0hPa | 0V | 00:00:00 | 00:00:00 | 00:00:00 | |
| DO3DL | 2026-09-01 14:10:54 | 49.73465 | 8.43798 | 96° | 47km/h | 15962m | -9.4m/s | -52.4°C | 0% | 0hPa | 4.6V | 00:00:00 | 00:00:00 | 00:00:00 | |
| HSKMA3-T | 2026-09-01 14:10:49 | 49.73465 | 8.43697 | 90° | 53km/h | 16008m | -8.4m/s | -52.5°C | 0% | 0hPa | 4.6V | 00:00:00 | 00:00:00 | 00:00:00 | |
| DL1NUX | 2026-09-01 14:10:49 | 49.73464 | 8.43600 | 88° | 49km/h | 16061m | -8.6m/s | 0°C | 0% | 0hPa | 0V | 00:00:00 | 00:00:00 | 00:00:00 | |
| DK7TD | 2026-09-01 14:10:49 | 49.73465 | 8.43677 | 90° | 53km/h | 16016m | -8.8m/s | -52.6°C | 0% | 0hPa | 4.6V | 00:00:00 | 00:00:00 | 00:00:00 | |
| DO3MHA-11 | 2026-09-01 14:10:49 | 49.73465 | 8.43697 | 90° | 51km/h | 16017m | -8.7m/s | 0°C | 0% | 0hPa | 4.6V | 00:00:00 | 00:00:00 | 00:00:00 | |
| DO3DL | 2026-09-01 14:10:48 | 49.73465 | 8.43656 | 91° | 51km/h | 16025m | -8.7m/s | -52.6°C | 0% | 0hPa | 4.6V | 00:00:00 | 00:00:00 | 00:00:00 | |
| DN1GJH-1 | 2026-09-01 14:10:47 | 49.73465 | 8.43656 | 91° | 51km/h | 16025m | -8.7m/s | -52.6°C | 0% | 0hPa | 4.6V | 00:00:00 | 00:00:00 | 00:00:00 | |
| DL1XH-west | 2026-09-01 14:10:46 | 49.73465 | 8.43637 | 89° | 49km/h | 16034m | -8.9m/s | -52.6°C | 0% | 0hPa | 4.6V | 00:00:00 | 00:00:00 | 00:00:00 | |
| CB1BUN | 2026-09-01 14:10:46 | 49.73464 | 8.43618 | 89° | 47km/h | 16043m | -8.5m/s | -52.6°C | 0% | 0hPa | 0V | 00:00:00 | 00:00:00 | 00:00:00 | |
| DM0DOS-11 | 2026-09-01 14:10:44 | 49.73466 | 8.43501 | 95° | 51km/h | 16103m | -8.3m/s | 0°C | 0% | 0hPa | 0V | 00:00:00 | 00:00:00 | 00:00:00 | |
| BIOWL1-15 | 2026-09-01 14:10:44 | 49.73464 | 8.43580 | 89° | 49km/h | 16061m | -8.6m/s | -52.6°C | 0% | 0hPa | 4.6V | 00:00:00 | 00:00:00 | 00:00:00 | |
| DO3DL | 2026-09-01 14:10:41 | 49.73464 | 8.43540 | 93° | 51km/h | 16078m | -8.1m/s | -52.4°C | 0% | 0hPa | 4.6V | 00:00:00 | 00:00:00 | 00:00:00 | |
| DO3MHA-11 | 2026-09-01 14:10:39 | 49.73466 | 8.43501 | 96° | 46km/h | 16103m | -8.3m/s | 0°C | 0% | 0hPa | 4.6V | 00:00:00 | 00:00:00 | 00:00:00 | |
| DK7TD | 2026-09-01 14:10:38 | 49.73468 | 8.43463 | 95° | 47km/h | 16111m | -8.2m/s | -52.3°C | 0% | 0hPa | 4.6V | 00:00:00 | 00:00:00 | 00:00:00 | |
| DB0UT-7 | 2026-09-01 14:10:37 | 49.73468 | 8.43463 | 96° | 40km/h | 16120m | -8.4m/s | 0°C | 0% | 0hPa | 4.6V | 00:00:00 | 00:00:00 | 00:00:00 | |
| BIOWL1-15 | 2026-09-01 14:10:36 | 49.73472 | 8.43392 | 97° | 46km/h | 16145m | -8.3m/s | -52.1°C | 0% | 0hPa | 4.6V | 00:00:00 | 00:00:00 | 00:00:00 | |
| DL1XH-west | 2026-09-01 14:10:36 | 49.73470 | 8.43427 | 95° | 46km/h | 16128m | -8.3m/s | -52.2°C | 0% | 0hPa | 4.6V | 00:00:00 | 00:00:00 | 00:00:00 | |
| DM0DOS-11 | 2026-09-01 14:10:34 | 49.73479 | 8.43321 | 101° | 44km/h | 16187m | -8.3m/s | 0°C | 0% | 0hPa | 0V | 00:00:00 | 00:00:00 | 00:00:00 | |
| HSKMA3-T | 2026-09-01 14:10:31 | 49.73475 | 8.43357 | 99° | 46km/h | 16162m | -8.2m/s | -52.1°C | 0% | 0hPa | 4.6V | 00:00:00 | 00:00:00 | 00:00:00 | |
| DF2AP-13 | 2026-09-01 14:10:31 | 49.73475 | 8.43357 | 100° | 38km/h | 16171m | -8.1m/s | 0°C | 0% | 0hPa | 0V | 00:00:00 | 00:00:00 | 00:00:00 | |
| DL1NUX | 2026-09-01 14:10:29 | 49.73489 | 8.43243 | 101° | 38km/h | 16230m | -8.4m/s | 0°C | 0% | 0hPa | 0V | 00:00:00 | 00:00:00 | 00:00:00 | |
| DO3MHA-11 | 2026-09-01 14:10:29 | 49.73479 | 8.43321 | 102° | 40km/h | 16187m | -8.3m/s | 0°C | 0% | 0hPa | 4.6V | 00:00:00 | 00:00:00 | 00:00:00 | |
| DJTTGO | 2026-09-01 14:10:28 | 49.73482 | 8.43305 | 102° | 42km/h | 16187m | -8.4m/s | -52.1°C | 0% | 0hPa | 4.6V | 00:00:00 | 00:00:00 | 00:00:00 | |
| DK7TD | 2026-09-01 14:10:27 | 49.73486 | 8.43274 | 101° | 40km/h | 16204m | -8.3m/s | -52.1°C | 0% | 0hPa | 4.6V | 00:00:00 | 00:00:00 | 00:00:00 | |
| DL1XH-west | 2026-09-01 14:10:25 | 49.73489 | 8.43243 | 102° | 38km/h | 16221m | -8.5m/s | -52°C | 0% | 0hPa | 4.6V | 00:00:00 | 00:00:00 | 00:00:00 | |
| DM0DOS-11 | 2026-09-01 14:10:24 | 49.73497 | 8.43167 | 95° | 37km/h | 16272m | -8.3m/s | 0°C | 0% | 0hPa | 0V | 00:00:00 | 00:00:00 | 00:00:00 | |
| BIOWL1-15 | 2026-09-01 14:10:23 | 49.73493 | 8.43213 | 99° | 40km/h | 16239m | -8.3m/s | -52°C | 0% | 0hPa | 4.6V | 00:00:00 | 00:00:00 | 00:00:00 | |
| DO3DL | 2026-09-01 14:10:22 | 49.73493 | 8.43213 | 100° | 40km/h | 16239m | -8.3m/s | -52.0°C | 0% | 0hPa | 4.6V | 00:00:00 | 00:00:00 | 00:00:00 | |
| DO3MHA-11 | 2026-09-01 14:10:19 | 49.73497 | 8.43167 | 96° | 37km/h | 16273m | -8.3m/s | 0°C | 0% | 0hPa | 4.6V | 00:00:00 | 00:00:00 | 00:00:00 | |
| DO2KSM | 2026-09-01 14:10:17 | 49.73498 | 8.43139 | 94° | 37km/h | 16281m | -8.5m/s | -52.2°C | 0% | 0hPa | 4.6V | 00:00:00 | 00:00:00 | 00:00:00 | |
| DK7TD | 2026-09-01 14:10:16 | 49.73499 | 8.43111 | 92° | 37km/h | 16298m | -8.7m/s | -52.4°C | 0% | 0hPa | 4.6V | 00:00:00 | 00:00:00 | 00:00:00 | |
| HEMX73-11 | 2026-09-01 14:10:15 | 49.73499 | 8.43110 | 93° | 37km/h | 16299m | -8.7m/s | -52.4°C | 0% | 0hPa | 0V | 00:00:00 | 00:00:00 | 00:00:00 | |
| DM0DOS-11 | 2026-09-01 14:10:14 | 49.73497 | 8.43025 | 86° | 37km/h | 16359m | -8.6m/s | 0°C | 0% | 0hPa | 0V | 00:00:00 | 00:00:00 | 00:00:00 | |
| DL1XH-west | 2026-09-01 14:10:14 | 49.73499 | 8.43082 | 89° | 37km/h | 16316m | -8.7m/s | -52.5°C | 0% | 0hPa | 4.6V | 00:00:00 | 00:00:00 | 00:00:00 | |
| DF1GD-15 | 2026-09-01 14:10:13 | 49.73499 | 8.43082 | 90° | 37km/h | 16316m | -8.7m/s | -52.5°C | 0% | 0hPa | 4.6V | 00:00:00 | 00:00:00 | 00:00:00 | |
| BIOWL1-15 | 2026-09-01 14:10:12 | 49.73498 | 8.43054 | 87° | 37km/h | 16333m | -8.5m/s | -52.6°C | 0% | 0hPa | 4.6V | 00:00:00 | 00:00:00 | 00:00:00 | |
| BEGRI65-1 | 2026-09-01 14:10:11 | 49.73498 | 8.43053 | 88° | 37km/h | 16333m | -8.5m/s | -52.7°C | 0% | 0hPa | 4.6V | 00:00:00 | 00:00:00 | 00:00:00 | |
| DO3MHA-11 | 2026-09-01 14:10:09 | 49.73497 | 8.43025 | 87° | 37km/h | 16359m | -8.6m/s | 0°C | 0% | 0hPa | 4.6V | 00:00:00 | 00:00:00 | 00:00:00 | |
| HSKMA3-T | 2026-09-01 14:10:08 | 49.73496 | 8.42997 | 84° | 37km/h | 16368m | -8.5m/s | -52.9°C | 0% | 0hPa | 4.6V | 00:00:00 | 00:00:00 | 00:00:00 | |
| SO1NDE-10 | 2026-09-01 14:10:08 | 49.73497 | 8.43011 | 85° | 44km/h | 16368m | -8.5m/s | 0°C | 0% | 0hPa | 4.6V | 00:00:00 | 00:00:00 | 00:00:00 | |
| DD1CC2-15 | 2026-09-01 14:10:07 | 49.73496 | 8.42997 | 85° | 37km/h | 16376m | -8.5m/s | 0°C | 0% | 0hPa | 4.6V | 00:00:00 | 00:00:00 | 00:00:00 | |
| DK7TD | 2026-09-01 14:10:06 | 49.73493 | 8.42969 | 82° | 37km/h | 16385m | -8.5m/s | -53°C | 0% | 0hPa | 4.6V | 00:00:00 | 00:00:00 | 00:00:00 | |
| DL1XH-west | 2026-09-01 14:10:04 | 49.73491 | 8.42940 | 80° | 37km/h | 16402m | -8.5m/s | -53°C | 0% | 0hPa | 4.6V | 00:00:00 | 00:00:00 | 00:00:00 | |
| DM0DOS-11 | 2026-09-01 14:10:03 | 49.73480 | 8.42866 | 75° | 40km/h | 16454m | -8.6m/s | 0°C | 0% | 0hPa | 0V | 00:00:00 | 00:00:00 | 00:00:00 | |
| BIOWL1-15 | 2026-09-01 14:10:03 | 49.73485 | 8.42897 | 77° | 38km/h | 16428m | -8.6m/s | -53.2°C | 0% | 0hPa | 4.6V | 00:00:00 | 00:00:00 | 00:00:00 | |
| DF2AP-13 | 2026-09-01 14:10:01 | 49.73487 | 8.42912 | 78° | 47km/h | 16420m | -8.4m/s | 0°C | 0% | 0hPa | 0V | 00:00:00 | 00:00:00 | 00:00:00 | |
| DL1NUX | 2026-09-01 14:09:59 | 49.73470 | 8.42804 | 75° | 42km/h | 16488m | -8.5m/s | 0°C | 0% | 0hPa | 0V | 00:00:00 | 00:00:00 | 00:00:00 | |
| DO3MHA-11 | 2026-09-01 14:09:59 | 49.73482 | 8.42882 | 76° | 42km/h | 16445m | -8.6m/s | 0°C | 0% | 0hPa | 4.6V | 00:00:00 | 00:00:00 | 00:00:00 | |
| HSKMA3-T | 2026-09-01 14:09:57 | 49.73475 | 8.42836 | 75° | 40km/h | 16463m | -8.6m/s | -53.5°C | 0% | 0hPa | 4.6V | 00:00:00 | 00:00:00 | 00:00:00 | |
| DO3DL | 2026-09-01 14:09:56 | 49.73475 | 8.42836 | 76° | 40km/h | 16463m | -8.6m/s | -53.4°C | 0% | 0hPa | 4.6V | 00:00:00 | 00:00:00 | 00:00:00 | |
| DK7TD | 2026-09-01 14:09:55 | 49.73469 | 8.42804 | 75° | 44km/h | 16480m | -8.5m/s | -53.4°C | 0% | 0hPa | 4.6V | 00:00:00 | 00:00:00 | 00:00:00 | |
| DM0DOS-11 | 2026-09-01 14:09:53 | 49.73452 | 8.42704 | 73° | 47km/h | 16540m | -8.4m/s | 0°C | 0% | 0hPa | 0V | 00:00:00 | 00:00:00 | 00:00:00 | |
| DL1XH-west | 2026-09-01 14:09:52 | 49.73464 | 8.42771 | 76° | 44km/h | 16497m | -8.7m/s | -53.5°C | 0% | 0hPa | 4.6V | 00:00:00 | 00:00:00 | 00:00:00 | |
| BIOWL1-15 | 2026-09-01 14:09:50 | 49.73458 | 8.42738 | 75° | 46km/h | 16514m | -8.5m/s | -53.6°C | 0% | 0hPa | 4.6V | 00:00:00 | 00:00:00 | 00:00:00 | |
| DL1NUX | 2026-09-01 14:09:49 | 49.73438 | 8.42629 | 75° | 51km/h | 16575m | -8.6m/s | 0°C | 0% | 0hPa | 0V | 00:00:00 | 00:00:00 | 00:00:00 | |
| DN1GJH-1 | 2026-09-01 14:09:45 | 49.73442 | 8.42648 | 75° | 51km/h | 16558m | -8.4m/s | -53.7°C | 0% | 0hPa | 4.6V | 00:00:00 | 00:00:00 | 00:00:00 | |
| DK7TD | 2026-09-01 14:09:44 | 49.73435 | 8.42610 | 75° | 51km/h | 16575m | -8.6m/s | -53.7°C | 0% | 0hPa | 4.6V | 00:00:00 | 00:00:00 | 00:00:00 | |
| THATR2-17 | 2026-09-01 14:09:43 | 49.73429 | 8.42571 | 77° | 51km/h | 16592m | 0m/s | 0°C | 0% | 0hPa | 4.6V | 00:00:00 | 00:00:00 | 00:00:00 | |
| DL1XH-west | 2026-09-01 14:09:41 | 49.73429 | 8.42571 | 77° | 51km/h | 16592m | -8.6m/s | -53.8°C | 0% | 0hPa | 4.6V | 00:00:00 | 00:00:00 | 00:00:00 | |
| BIOWL1-15 | 2026-09-01 14:09:40 | 49.73423 | 8.42530 | 77° | 55km/h | 16609m | -8.7m/s | -53.7°C | 0% | 0hPa | 4.6V | 00:00:00 | 00:00:00 | 00:00:00 | |
| DL1NUX | 2026-09-01 14:09:39 | 49.73413 | 8.42429 | 87° | 47km/h | 16662m | -8.7m/s | 0°C | 0% | 0hPa | 0V | 00:00:00 | 00:00:00 | 00:00:00 | |
| DO3MHA-11 | 2026-09-01 14:09:39 | 49.73423 | 8.42530 | 78° | 49km/h | 16619m | -8.6m/s | 0°C | 0% | 0hPa | 0V | 00:00:00 | 00:00:00 | 00:00:00 | |
| SO1NDE-10 | 2026-09-01 14:09:38 | 49.73420 | 8.42510 | 79° | 47km/h | 16627m | -8.8m/s | 0°C | 0% | 0hPa | 0V | 00:00:00 | 00:00:00 | 00:00:00 | |
| DB0UT-7 | 2026-09-01 14:09:36 | 49.73415 | 8.42468 | 83° | 46km/h | 16645m | -8.7m/s | 0°C | 0% | 0hPa | 0V | 00:00:00 | 00:00:00 | 00:00:00 | |
| DJ3KS | 2026-09-01 14:09:35 | 49.73413 | 8.42429 | 88° | 47km/h | 16645m | -8.8m/s | 0°C | 0% | 0hPa | 0V | 00:00:00 | 00:00:00 | 00:00:00 | |
| DJTTGO | 2026-09-01 14:09:34 | 49.73413 | 8.42429 | 88° | 47km/h | 16654m | -8.4m/s | -53.7°C | 0% | 0hPa | 0V | 00:00:00 | 00:00:00 | 00:00:00 | |
| DM0DOS-11 | 2026-09-01 14:09:33 | 49.73409 | 8.42324 | 84° | 51km/h | 16715m | -9.1m/s | 0°C | 0% | 0hPa | 0V | 00:00:00 | 00:00:00 | 00:00:00 | |
| DK7TD | 2026-09-01 14:09:33 | 49.73413 | 8.42395 | 89° | 42km/h | 16671m | -8.8m/s | -53.6°C | 0% | 0hPa | 4.6V | 00:00:00 | 00:00:00 | 00:00:00 | |
| DF1GD-15 | 2026-09-01 14:09:32 | 49.73413 | 8.42395 | 90° | 42km/h | 16671m | -8.8m/s | -53.6°C | 0% | 0hPa | 4.6V | 00:00:00 | 00:00:00 | 00:00:00 | |
| HSKMA3-T | 2026-09-01 14:09:31 | 49.73412 | 8.42378 | 87° | 42km/h | 16680m | -8.8m/s | -53.6°C | 0% | 0hPa | 4.6V | 00:00:00 | 00:00:00 | 00:00:00 | |
| DL1XH-west | 2026-09-01 14:09:31 | 49.73412 | 8.42361 | 85° | 44km/h | 16688m | -8.9m/s | -53.6°C | 0% | 0hPa | 4.6V | 00:00:00 | 00:00:00 | 00:00:00 | |
| DF2AP-13 | 2026-09-01 14:09:30 | 49.73411 | 8.42361 | 85° | 46km/h | 16706m | -8.6m/s | 0°C | 0% | 0hPa | 0V | 00:00:00 | 00:00:00 | 00:00:00 | |
| DL1NUX | 2026-09-01 14:09:29 | 49.73407 | 8.42247 | 89° | 44km/h | 16751m | -8.8m/s | 0°C | 0% | 0hPa | 0V | 00:00:00 | 00:00:00 | 00:00:00 | |
| BIOWL1-15 | 2026-09-01 14:09:29 | 49.73409 | 8.42324 | 84° | 51km/h | 16706m | -8.7m/s | -53.6°C | 0% | 0hPa | 4.6V | 00:00:00 | 00:00:00 | 00:00:00 | |
| DN1GJH-1 | 2026-09-01 14:09:25 | 49.73407 | 8.42265 | 91° | 47km/h | 16734m | -9.1m/s | -53.6°C | 0% | 0hPa | 4.6V | 00:00:00 | 00:00:00 | 00:00:00 | |
| BEGRI65-1 | 2026-09-01 14:09:24 | 49.73407 | 8.42231 | 89° | 40km/h | 16751m | -8.8m/s | -53.6°C | 0% | 0hPa | 4.6V | 00:00:00 | 00:00:00 | 00:00:00 | |
| DK7TD | 2026-09-01 14:09:23 | 49.73406 | 8.42216 | 85° | 38km/h | 16760m | -9.2m/s | -53.7°C | 0% | 0hPa | 4.6V | 00:00:00 | 00:00:00 | 00:00:00 | |
| DL1XH-west | 2026-09-01 14:09:20 | 49.73399 | 8.42167 | 75° | 49km/h | 16787m | -8.9m/s | -53.7°C | 0% | 0hPa | 4.6V | 00:00:00 | 00:00:00 | 00:00:00 | |
| DL1NUX | 2026-09-01 14:09:19 | 49.73388 | 8.42071 | 79° | 44km/h | 16842m | -8.8m/s | 0°C | 0% | 0hPa | 0V | 00:00:00 | 00:00:00 | 00:00:00 | |
| DO3MHA-11 | 2026-09-01 14:09:19 | 49.73399 | 8.42167 | 75° | 46km/h | 16796m | -8.8m/s | 0°C | 0% | 0hPa | 4.6V | 00:00:00 | 00:00:00 | 00:00:00 | |
| BIOWL1-15 | 2026-09-01 14:09:18 | 49.73393 | 8.42128 | 78° | 53km/h | 16805m | -9.1m/s | -53.8°C | 0% | 0hPa | 4.6V | 00:00:00 | 00:00:00 | 00:00:00 | |
| DO3DL | 2026-09-01 14:09:18 | 49.73393 | 8.42128 | 79° | 53km/h | 16805m | -9.1m/s | -53.8°C | 0% | 0hPa | 4.6V | 00:00:00 | 00:00:00 | 00:00:00 | |
| HEMX73-11 | 2026-09-01 14:09:14 | 49.73388 | 8.42072 | 84° | 44km/h | 16832m | -9.1m/s | -53.9°C | 0% | 0hPa | 4.6V | 00:00:00 | 00:00:00 | 00:00:00 | |
| DK7TD | 2026-09-01 14:09:12 | 49.73381 | 8.42025 | 71° | 42km/h | 16860m | -9m/s | -54°C | 0% | 0hPa | 4.6V | 00:00:00 | 00:00:00 | 00:00:00 | |
| DO3DL | 2026-09-01 14:09:11 | 49.73377 | 8.42009 | 70° | 47km/h | 16869m | -8.8m/s | -54.1°C | 0% | 0hPa | 4.6V | 00:00:00 | 00:00:00 | 00:00:00 | |
| BIOWL1-15 | 2026-09-01 14:09:10 | 49.73366 | 8.41953 | 77° | 51km/h | 16896m | -9.2m/s | -54.2°C | 0% | 0hPa | 4.6V | 00:00:00 | 00:00:00 | 00:00:00 | |
| DL1XH-west | 2026-09-01 14:09:10 | 49.73373 | 8.41991 | 71° | 49km/h | 16878m | -9.1m/s | -54.1°C | 0% | 0hPa | 4.6V | 00:00:00 | 00:00:00 | 00:00:00 | |
| DL1NUX | 2026-09-01 14:09:09 | 49.73359 | 8.41899 | 78° | 44km/h | 16933m | -9m/s | 0°C | 0% | 0hPa | 0V | 00:00:00 | 00:00:00 | 00:00:00 | |
| DO3MHA-11 | 2026-09-01 14:09:09 | 49.73373 | 8.41991 | 71° | 47km/h | 16887m | -8.8m/s | 0°C | 0% | 0hPa | 0V | 00:00:00 | 00:00:00 | 00:00:00 | |
| SO1NDE-10 | 2026-09-01 14:09:08 | 49.73369 | 8.41972 | 74° | 51km/h | 16897m | -9.2m/s | 0°C | 0% | 0hPa | 0V | 00:00:00 | 00:00:00 | 00:00:00 | |
| DL8DAS-15 | 2026-09-01 14:09:07 | 49.73366 | 8.41953 | 78° | 51km/h | 16897m | -9.2m/s | -54.2°C | 0% | 0hPa | 0V | 00:00:00 | 00:00:00 | 00:00:00 | |
| DB0UT-7 | 2026-09-01 14:09:06 | 49.73363 | 8.41934 | 80° | 51km/h | 16942m | -9.1m/s | 0°C | 0% | 0hPa | 0V | 00:00:00 | 00:00:00 | 00:00:00 | |
| DJ2DS-15 | 2026-09-01 14:09:04 | 49.73357 | 8.41882 | 73° | 42km/h | 16933m | -9.0m/s | -54.0°C | -1.0% | -1.0hPa | 0V | 00:00:00 | 00:00:00 | 00:00:00 | |
| DM0DOS-11 | 2026-09-01 14:09:03 | 49.73338 | 8.41789 | 80° | 53km/h | 16987m | -8.9m/s | 0°C | 0% | 0hPa | 0V | 00:00:00 | 00:00:00 | 00:00:00 | |
| BEGRI65-1 | 2026-09-01 14:09:02 | 49.73353 | 8.41866 | 71° | 46km/h | 16942m | -9.2m/s | -54.0°C | 0% | 0hPa | 4.6V | 00:00:00 | 00:00:00 | 00:00:00 | |
| DK7TD | 2026-09-01 14:09:01 | 49.73345 | 8.41830 | 72° | 53km/h | 16960m | -8.8m/s | -53.9°C | 0% | 0hPa | 4.6V | 00:00:00 | 00:00:00 | 00:00:00 | |
| DF2AP-13 | 2026-09-01 14:09:00 | 49.73345 | 8.41830 | 72° | 29km/h | 16970m | -9.2m/s | 0°C | 0% | 0hPa | 0V | 00:00:00 | 00:00:00 | 00:00:00 | |
| DL1NUX | 2026-09-01 14:08:59 | 49.73333 | 8.41713 | 81° | 46km/h | 17024m | -9.1m/s | 0°C | 0% | 0hPa | 0V | 00:00:00 | 00:00:00 | 00:00:00 | |
| DO3MHA-11 | 2026-09-01 14:08:59 | 49.73341 | 8.41809 | 81° | 49km/h | 16979m | -8.8m/s | 0°C | 0% | 0hPa | 4.6V | 00:00:00 | 00:00:00 | 00:00:00 | |
| DL1XH-west | 2026-09-01 14:08:58 | 49.73338 | 8.41789 | 81° | 53km/h | 16979m | -8.8m/s | -53.8°C | 0% | 0hPa | 4.6V | 00:00:00 | 00:00:00 | 00:00:00 | |
| DO3DL | 2026-09-01 14:08:58 | 49.73338 | 8.41789 | 82° | 53km/h | 16979m | -8.8m/s | -53.8°C | 0% | 0hPa | 4.6V | 00:00:00 | 00:00:00 | 00:00:00 | |
| BIOWL1-15 | 2026-09-01 14:08:57 | 49.73336 | 8.41768 | 83° | 51km/h | 16987m | -8.9m/s | -53.8°C | 0% | 0hPa | 4.6V | 00:00:00 | 00:00:00 | 00:00:00 | |
| HEMX73-11 | 2026-09-01 14:08:53 | 49.73331 | 8.41695 | 80° | 44km/h | 17024m | -9.1m/s | -53.7°C | 0% | 0hPa | 0V | 00:00:00 | 00:00:00 | 00:00:00 | |
| DM0DOS-11 | 2026-09-01 14:08:52 | 49.73317 | 8.41579 | 84° | 55km/h | 17089m | -8.7m/s | 0°C | 0% | 0hPa | 0V | 00:00:00 | 00:00:00 | 00:00:00 | |
| DF1GD-15 | 2026-09-01 14:08:51 | 49.73325 | 8.41660 | 77° | 49km/h | 17043m | -9.0m/s | -53.7°C | 0% | 0hPa | 4.6V | 00:00:00 | 00:00:00 | 00:00:00 | |
| DK7TD | 2026-09-01 14:08:50 | 49.73320 | 8.41621 | 81° | 53km/h | 17061m | -9m/s | -53.7°C | 0% | 0hPa | 4.6V | 00:00:00 | 00:00:00 | 00:00:00 | |
| DO3MHA-11 | 2026-09-01 14:08:49 | 49.73320 | 8.41621 | 82° | 55km/h | 17070m | -9.0m/s | 0°C | 0% | 0hPa | 4.6V | 00:00:00 | 00:00:00 | 00:00:00 | |
| DL1XH-west | 2026-09-01 14:08:48 | 49.73317 | 8.41579 | 85° | 55km/h | 17079m | -9.6m/s | -53.7°C | 0% | 0hPa | 4.6V | 00:00:00 | 00:00:00 | 00:00:00 | |
| HSKMA3-T | 2026-09-01 14:08:46 | 49.73314 | 8.41536 | 82° | 57km/h | 17097m | -8.8m/s | -53.7°C | 0% | 0hPa | 4.6V | 00:00:00 | 00:00:00 | 00:00:00 | |
| NBG1-10 | 2026-09-01 14:08:46 | 49.73316 | 8.41558 | 82° | 46km/h | 17097m | -8.7m/s | 0°C | 0% | 0hPa | 0V | 00:00:00 | 00:00:00 | 00:00:00 | |
| DO3DL | 2026-09-01 14:08:45 | 49.73314 | 8.41536 | 83° | 57km/h | 17097m | -8.8m/s | -53.7°C | 0% | 0hPa | 0V | 00:00:00 | 00:00:00 | 00:00:00 | |
| DN1GJH-1 | 2026-09-01 14:08:44 | 49.73312 | 8.41514 | 82° | 57km/h | 17107m | -9.4m/s | -53.7°C | 0% | 0hPa | 0V | 00:00:00 | 00:00:00 | 00:00:00 | |
| DM0DOS-11 | 2026-09-01 14:08:42 | 49.73298 | 8.41378 | 83° | 46km/h | 17183m | -9.1m/s | 0°C | 0% | 0hPa | 0V | 00:00:00 | 00:00:00 | 00:00:00 | |
| BIOWL7-15 | 2026-09-01 14:08:41 | 49.73302 | 8.41432 | 82° | 49km/h | 17144m | -9.6m/s | -53.4°C | 0% | 0hPa | 4.6V | 00:00:00 | 00:00:00 | 00:00:00 | |
| DK7TD | 2026-09-01 14:08:40 | 49.73300 | 8.41413 | 82° | 46km/h | 17154m | -9.6m/s | -53.3°C | 0% | 0hPa | 4.6V | 00:00:00 | 00:00:00 | 00:00:00 | |
| DL1NUX | 2026-09-01 14:08:39 | 49.73293 | 8.41322 | 83° | 47km/h | 17211m | -8.9m/s | 0°C | 0% | 0hPa | 0V | 00:00:00 | 00:00:00 | 00:00:00 | |
| DO3MHA-11 | 2026-09-01 14:08:39 | 49.73300 | 8.41413 | 83° | 46km/h | 17164m | -9.8m/s | 0°C | 0% | 0hPa | 4.6V | 00:00:00 | 00:00:00 | 00:00:00 | |
| SO1NDE-10 | 2026-09-01 14:08:38 | 49.73299 | 8.41395 | 85° | 46km/h | 17174m | -9.2m/s | 0°C | 0% | 0hPa | 4.6V | 00:00:00 | 00:00:00 | 00:00:00 | |
| DL1XH-west | 2026-09-01 14:08:37 | 49.73296 | 8.41359 | 84° | 47km/h | 17183m | -9.1m/s | -53.1°C | 0% | 0hPa | 4.6V | 00:00:00 | 00:00:00 | 00:00:00 | |
| BIOWL1-15 | 2026-09-01 14:08:35 | 49.73293 | 8.41322 | 84° | 47km/h | 17202m | -9.3m/s | -52.9°C | 0% | 0hPa | 4.6V | 00:00:00 | 00:00:00 | 00:00:00 | |
| DB0UT-7 | 2026-09-01 14:08:34 | 49.73293 | 8.41322 | 84° | 47km/h | 17211m | -8.8m/s | 0°C | 0% | 0hPa | 0V | 00:00:00 | 00:00:00 | 00:00:00 | |
| DO2KSM | 2026-09-01 14:08:33 | 49.73291 | 8.41304 | 83° | 47km/h | 17211m | -8.9m/s | -52.7°C | 0% | 0hPa | 0V | 00:00:00 | 00:00:00 | 00:00:00 | |
| DO3DL | 2026-09-01 14:08:32 | 49.73290 | 8.41286 | 83° | 46km/h | 17220m | -9.1m/s | -52.6°C | 0% | 0hPa | 0V | 00:00:00 | 00:00:00 | 00:00:00 | |
| DF1GD-15 | 2026-09-01 14:08:31 | 49.73289 | 8.41269 | 84° | 44km/h | 17230m | -9.3m/s | -52.5°C | 0% | 0hPa | 0V | 00:00:00 | 00:00:00 | 00:00:00 | |
| DL1NUX | 2026-09-01 14:08:29 | 49.73273 | 8.41156 | 67° | 44km/h | 17305m | -10.2m/s | 0°C | 0% | 0hPa | 0V | 00:00:00 | 00:00:00 | 00:00:00 | |
| DK7TD | 2026-09-01 14:08:29 | 49.73285 | 8.41219 | 83° | 42km/h | 17257m | -9.9m/s | -52.2°C | 0% | 0hPa | 4.6V | 00:00:00 | 00:00:00 | 00:00:00 | |
| DO3MHA-11 | 2026-09-01 14:08:29 | 49.73286 | 8.41236 | 83° | 42km/h | 17257m | -9.9m/s | 0°C | 0% | 0hPa | 4.6V | 00:00:00 | 00:00:00 | 00:00:00 | |
| DD1CC2-15 | 2026-09-01 14:08:28 | 49.73285 | 8.41219 | 84° | 42km/h | 17257m | -9.9m/s | 0°C | 0% | 0hPa | 4.6V | 00:00:00 | 00:00:00 | 00:00:00 | |
| DL1XH-west | 2026-09-01 14:08:26 | 49.73281 | 8.41187 | 74° | 42km/h | 17276m | -9.1m/s | -52.1°C | 0% | 0hPa | 4.6V | 00:00:00 | 00:00:00 | 00:00:00 | |
| BIOWL1-15 | 2026-09-01 14:08:24 | 49.73269 | 8.41140 | 67° | 44km/h | 17305m | -10.2m/s | -52.2°C | 0% | 0hPa | 4.6V | 00:00:00 | 00:00:00 | 00:00:00 | |
| DO3DL | 2026-09-01 14:08:23 | 49.73269 | 8.41140 | 68° | 44km/h | 17305m | -10.2m/s | -52.2°C | 0% | 0hPa | 0V | 00:00:00 | 00:00:00 | 00:00:00 | |
| DM0DOS-11 | 2026-09-01 14:08:22 | 49.73246 | 8.41046 | 61° | 46km/h | 17374m | -9.8m/s | 0°C | 0% | 0hPa | 0V | 00:00:00 | 00:00:00 | 00:00:00 | |
| CB1BUN | 2026-09-01 14:08:21 | 49.73261 | 8.41108 | 73° | 40km/h | 17325m | -9.4m/s | -52.2°C | 0% | 0hPa | 4.6V | 00:00:00 | 00:00:00 | 00:00:00 | |
| BEGRI65-1 | 2026-09-01 14:08:20 | 49.73258 | 8.41093 | 74° | 42km/h | 17335m | -9.5m/s | -52.3°C | 0% | 0hPa | 4.6V | 00:00:00 | 00:00:00 | 00:00:00 | |
| DO3MHA-11 | 2026-09-01 14:08:19 | 49.73255 | 8.41077 | 72° | 47km/h | 17354m | -9.6m/s | 0°C | 0% | 0hPa | 4.6V | 00:00:00 | 00:00:00 | 00:00:00 | |
| DK7TD | 2026-09-01 14:08:18 | 49.73246 | 8.41046 | 62° | 46km/h | 17364m | -9.8m/s | -52.3°C | 0% | 0hPa | 4.6V | 00:00:00 | 00:00:00 | 00:00:00 | |
| DO3DL | 2026-09-01 14:08:17 | 49.73246 | 8.41045 | 63° | 46km/h | 17364m | -9.8m/s | -52.3°C | 0% | 0hPa | 4.6V | 00:00:00 | 00:00:00 | 00:00:00 | |
| DL1XH-west | 2026-09-01 14:08:16 | 49.73234 | 8.41015 | 57° | 46km/h | 17383m | -9.7m/s | -52.4°C | 0% | 0hPa | 4.6V | 00:00:00 | 00:00:00 | 00:00:00 | |
| BIOWL1-15 | 2026-09-01 14:08:14 | 49.73221 | 8.40984 | 60° | 47km/h | 17403m | -9.7m/s | -52.4°C | 0% | 0hPa | 4.6V | 00:00:00 | 00:00:00 | 00:00:00 | |
| NBG1-10 | 2026-09-01 14:08:13 | 49.73221 | 8.40984 | 60° | 44km/h | 17423m | -9.9m/s | 0°C | 0% | 0hPa | 0V | 00:00:00 | 00:00:00 | 00:00:00 | |
| DM0DOS-11 | 2026-09-01 14:08:12 | 49.73183 | 8.40876 | 60° | 57km/h | 17472m | -9.2m/s | 0°C | 0% | 0hPa | 0V | 00:00:00 | 00:00:00 | 00:00:00 | |
| DO3DL | 2026-09-01 14:08:11 | 49.73203 | 8.40933 | 63° | 53km/h | 17434m | -10.0m/s | -52.5°C | 0% | 0hPa | 0V | 00:00:00 | 00:00:00 | 00:00:00 | |
| DF1GD-15 | 2026-09-01 14:08:10 | 49.73203 | 8.40933 | 63° | 53km/h | 17434m | -10.0m/s | -52.5°C | 0% | 0hPa | 0V | 00:00:00 | 00:00:00 | 00:00:00 | |
| DL1NUX | 2026-09-01 14:08:09 | 49.73165 | 8.40820 | 67° | 53km/h | 17502m | -10.7m/s | 0°C | 0% | 0hPa | 0V | 00:00:00 | 00:00:00 | 00:00:00 | |
| DO3MHA-11 | 2026-09-01 14:08:09 | 49.73197 | 8.40914 | 62° | 55km/h | 17453m | -9.3m/s | 0°C | 0% | 0hPa | 4.6V | 00:00:00 | 00:00:00 | 00:00:00 | |
| SO1NDE-10 | 2026-09-01 14:08:08 | 49.73190 | 8.40895 | 62° | 42km/h | 17463m | -9.3m/s | 0°C | 0% | 0hPa | 4.6V | 00:00:00 | 00:00:00 | 00:00:00 | |
| DK7TD | 2026-09-01 14:08:07 | 49.73177 | 8.40857 | 60° | 55km/h | 17472m | -9.2m/s | -52.3°C | 0% | 0hPa | 4.6V | 00:00:00 | 00:00:00 | 00:00:00 | |
| DL1XH-west | 2026-09-01 14:08:05 | 49.73165 | 8.40820 | 67° | 53km/h | 17492m | -10.2m/s | -52.2°C | 0% | 0hPa | 4.6V | 00:00:00 | 00:00:00 | 00:00:00 | |
| BIOWL1-15 | 2026-09-01 14:08:04 | 49.73157 | 8.40780 | 80° | 53km/h | 17513m | -10.2m/s | -52°C | 0% | 0hPa | 4.6V | 00:00:00 | 00:00:00 | 00:00:00 | |
| DN1GJH-1 | 2026-09-01 14:08:03 | 49.73160 | 8.40800 | 75° | 53km/h | 17503m | -10.7m/s | -52.1°C | 0% | 0hPa | 0V | 00:00:00 | 00:00:00 | 00:00:00 | |
| DM0DOS-11 | 2026-09-01 14:08:02 | 49.73141 | 8.40672 | 66° | 58km/h | 17576m | -10.5m/s | 0°C | 0% | 0hPa | 0V | 00:00:00 | 00:00:00 | 00:00:00 | |
| CB1BUN | 2026-09-01 14:08:01 | 49.73156 | 8.40759 | 85° | 55km/h | 17523m | -10.6m/s | -52.0°C | 0% | 0hPa | 0V | 00:00:00 | 00:00:00 | 00:00:00 | |
| DL1NUX | 2026-09-01 14:07:59 | 49.73129 | 8.40625 | 113° | 27km/h | 17608m | -10.2m/s | 0°C | 0% | 0hPa | 0V | 00:00:00 | 00:00:00 | 00:00:00 | |
| DO3MHA-11 | 2026-09-01 14:07:59 | 49.73151 | 8.40716 | 77° | 44km/h | 17555m | -10.2m/s | 0°C | 0% | 0hPa | 4.6V | 00:00:00 | 00:00:00 | 00:00:00 | |
| DO3DL | 2026-09-01 14:07:57 | 49.73141 | 8.40672 | 68° | 58km/h | 17566m | -10.6m/s | -52.1°C | 0% | 0hPa | 4.6V | 00:00:00 | 00:00:00 | 00:00:00 | |
| DK7TD | 2026-09-01 14:07:56 | 49.73136 | 8.40653 | 64° | 51km/h | 17576m | -10.5m/s | -52°C | 0% | 0hPa | 4.6V | 00:00:00 | 00:00:00 | 00:00:00 | |
| BEGRI65-1 | 2026-09-01 14:07:56 | 49.73131 | 8.40637 | 70° | 37km/h | 17587m | -11.0m/s | -51.9°C | 0% | 0hPa | 4.6V | 00:00:00 | 00:00:00 | 00:00:00 | |
| DD1CC2-15 | 2026-09-01 14:07:55 | 49.73131 | 8.40637 | 70° | 37km/h | 17587m | -11.0m/s | 0°C | 0% | 0hPa | 4.6V | 00:00:00 | 00:00:00 | 00:00:00 | |
| DL1XH-west | 2026-09-01 14:07:53 | 49.73131 | 8.40614 | 113° | 29km/h | 17608m | -10.2m/s | -51.7°C | 0% | 0hPa | 4.6V | 00:00:00 | 00:00:00 | 00:00:00 | |
| DM0DOS-11 | 2026-09-01 14:07:52 | 49.73128 | 8.40522 | 60° | 46km/h | 17684m | -10.8m/s | 0°C | 0% | 0hPa | 0V | 00:00:00 | 00:00:00 | 00:00:00 | |
| BIOWL1-15 | 2026-09-01 14:07:52 | 49.73137 | 8.40590 | 106° | 38km/h | 17630m | -11.1m/s | -51.5°C | 0% | 0hPa | 4.6V | 00:00:00 | 00:00:00 | 00:00:00 | |
| DO3DL | 2026-09-01 14:07:51 | 49.73137 | 8.40590 | 107° | 38km/h | 17631m | -11.1m/s | -51.5°C | 0% | 0hPa | 4.6V | 00:00:00 | 00:00:00 | 00:00:00 | |
| DF1GD-15 | 2026-09-01 14:07:50 | 49.73138 | 8.40574 | 93° | 44km/h | 17642m | -10.2m/s | -51.4°C | 0% | 0hPa | 4.6V | 00:00:00 | 00:00:00 | 00:00:00 | |
| DO3MHA-11 | 2026-09-01 14:07:49 | 49.73137 | 8.40556 | 77° | 33km/h | 17663m | -10.6m/s | 0°C | 0% | 0hPa | 4.6V | 00:00:00 | 00:00:00 | 00:00:00 | |
| DK7TD | 2026-09-01 14:07:46 | 49.73117 | 8.40496 | 58° | 31km/h | 17695m | -10.4m/s | -51.3°C | 0% | 0hPa | 4.6V | 00:00:00 | 00:00:00 | 00:00:00 | |
| DO3DL | 2026-09-01 14:07:44 | 49.73114 | 8.40487 | 64° | 22km/h | 17706m | -10.5m/s | -51.2°C | 0% | 0hPa | 4.6V | 00:00:00 | 00:00:00 | 00:00:00 | |
| DL1XH-west | 2026-09-01 14:07:43 | 49.73112 | 8.40480 | 78° | 18km/h | 17716m | -10.8m/s | -51.1°C | 0% | 0hPa | 4.6V | 00:00:00 | 00:00:00 | 00:00:00 | |
| DL1XH-15 | 2026-09-01 14:07:43 | 49.73107 | 8.40439 | 66° | 22km/h | 17844m | -10.1m/s | 0°C | 0% | 0hPa | 0V | 00:00:00 | 00:00:00 | 00:00:00 | |
| BIOWL1-15 | 2026-09-01 14:07:43 | 49.73110 | 8.40456 | 79° | 24km/h | 17749m | -11.3m/s | -50.8°C | 0% | 0hPa | 4.6V | 00:00:00 | 00:00:00 | 00:00:00 | |
| DM0DOS-11 | 2026-09-01 14:07:42 | 49.73104 | 8.40430 | 60° | 20km/h | 17792m | -9.9m/s | 0°C | 0% | 0hPa | 0V | 00:00:00 | 00:00:00 | 00:00:00 | |
| NBG1-10 | 2026-09-01 14:07:40 | 49.73110 | 8.40456 | 79° | 24km/h | 17771m | -10.5m/s | 0°C | 0% | 0hPa | 0V | 00:00:00 | 00:00:00 | 00:00:00 | |
| DL1NUX | 2026-09-01 14:07:39 | 49.73097 | 8.40412 | 54° | 16km/h | 17823m | -10.8m/s | 0°C | 0% | 0hPa | 0V | 00:00:00 | 00:00:00 | 00:00:00 | |
| DO3MHA-11 | 2026-09-01 14:07:39 | 49.73109 | 8.40446 | 67° | 20km/h | 17771m | -10.5m/s | 0°C | 0% | 0hPa | 4.6V | 00:00:00 | 00:00:00 | 00:00:00 | |
| SO1NDE-10 | 2026-09-01 14:07:38 | 49.73106 | 8.40439 | 67° | 24km/h | 17782m | -10.5m/s | 0°C | 0% | 0hPa | 4.6V | 00:00:00 | 00:00:00 | 00:00:00 | |
| DK7TD | 2026-09-01 14:07:35 | 49.73097 | 8.40412 | 55° | 16km/h | 17813m | -10.1m/s | -50.7°C | 0% | 0hPa | 4.6V | 00:00:00 | 00:00:00 | 00:00:00 | |
| DB0UT-7 | 2026-09-01 14:07:34 | 49.73097 | 8.40412 | 55° | 24km/h | 17823m | -10.7m/s | 0°C | 0% | 0hPa | 4.6V | 00:00:00 | 00:00:00 | 00:00:00 | |
| DL1XH-west | 2026-09-01 14:07:32 | 49.73092 | 8.40401 | 59° | 18km/h | 17834m | -10.2m/s | -50.8°C | 0% | 0hPa | 4.6V | 00:00:00 | 00:00:00 | 00:00:00 | |
| DM0DOS-11 | 2026-09-01 14:07:32 | 49.73076 | 8.40362 | 57° | 26km/h | 17895m | -10.1m/s | 0°C | 0% | 0hPa | 0V | 00:00:00 | 00:00:00 | 00:00:00 | |
| HEMX73-11 | 2026-09-01 14:07:32 | 49.73090 | 8.40394 | 63° | 22km/h | 17844m | -10.1m/s | -50.8°C | 0% | 0hPa | 4.6V | 00:00:00 | 00:00:00 | 00:00:00 | |
| DO3DL | 2026-09-01 14:07:31 | 49.73090 | 8.40394 | 63° | 22km/h | 17844m | -10.1m/s | -50.8°C | 0% | 0hPa | 4.6V | 00:00:00 | 00:00:00 | 00:00:00 | |
| BIOWL1-15 | 2026-09-01 14:07:30 | 49.73087 | 8.40387 | 60° | 24km/h | 17854m | -10.1m/s | -50.8°C | 0% | 0hPa | 4.6V | 00:00:00 | 00:00:00 | 00:00:00 | |
| DL1XH-15 | 2026-09-01 14:07:30 | 49.73070 | 8.40347 | 54° | 20km/h | 17915m | -9.8m/s | 0°C | 0% | 0hPa | 0V | 00:00:00 | 00:00:00 | 00:00:00 | |
| DL1NUX | 2026-09-01 14:07:29 | 49.73067 | 8.40341 | 51° | 16km/h | 17925m | -10.7m/s | 0°C | 0% | 0hPa | 0V | 00:00:00 | 00:00:00 | 00:00:00 | |
| DB0NH | 2026-09-01 14:07:29 | 49.73084 | 8.40379 | 58° | 27km/h | 17875m | -10.3m/s | 0°C | 0% | 0hPa | 4.6V | 00:00:00 | 00:00:00 | 00:00:00 | |
| DO3DL | 2026-09-01 14:07:25 | 49.73070 | 8.40347 | 55° | 20km/h | 17905m | -9.4m/s | -50.7°C | 0% | 0hPa | 4.6V | 00:00:00 | 00:00:00 | 00:00:00 | |
| DK7TD | 2026-09-01 14:07:24 | 49.73065 | 8.40336 | 51° | 18km/h | 17925m | -10.7m/s | -50.5°C | 0% | 0hPa | 4.6V | 00:00:00 | 00:00:00 | 00:00:00 | |
| DM0DOS-11 | 2026-09-01 14:07:22 | 49.73040 | 8.40295 | 52° | 26km/h | 17999m | -10.4m/s | 0°C | 0% | 0hPa | 0V | 00:00:00 | 00:00:00 | 00:00:00 | |
| DL1XH-west | 2026-09-01 14:07:22 | 49.73058 | 8.40324 | 45° | 24km/h | 17946m | -10.5m/s | -50.5°C | 0% | 0hPa | 4.6V | 00:00:00 | 00:00:00 | 00:00:00 | |
| DL1XH-15 | 2026-09-01 14:07:20 | 49.73033 | 8.40280 | 52° | 26km/h | 18021m | -10.3m/s | 0°C | 0% | 0hPa | 0V | 00:00:00 | 00:00:00 | 00:00:00 | |
| BIOWL1-15 | 2026-09-01 14:07:20 | 49.73049 | 8.40310 | 48° | 26km/h | 17968m | -10.4m/s | -50.5°C | 0% | 0hPa | 4.6V | 00:00:00 | 00:00:00 | 00:00:00 | |
| DL1NUX | 2026-09-01 14:07:19 | 49.73029 | 8.40272 | 54° | 26km/h | 18031m | -10m/s | 0°C | 0% | 0hPa | 0V | 00:00:00 | 00:00:00 | 00:00:00 | |
| DO3DL | 2026-09-01 14:07:19 | 49.73045 | 8.40303 | 52° | 26km/h | 17978m | -10.9m/s | -50.5°C | 0% | 0hPa | 4.6V | 00:00:00 | 00:00:00 | 00:00:00 | |
| DG1MJG | 2026-09-01 14:07:15 | 49.73033 | 8.40280 | 54° | 26km/h | 18010m | -10.7m/s | -50.7°C | 0% | 0hPa | 4.6V | 00:00:00 | 00:00:00 | 00:00:00 | |
| DK7TD | 2026-09-01 14:07:13 | 49.73022 | 8.40255 | 61° | 27km/h | 18042m | -10.7m/s | -50.8°C | 0% | 0hPa | 4.6V | 00:00:00 | 00:00:00 | 00:00:00 | |
| DO3DL | 2026-09-01 14:07:12 | 49.73022 | 8.40255 | 61° | 27km/h | 18042m | -10.7m/s | -50.8°C | 0% | 0hPa | 4.6V | 00:00:00 | 00:00:00 | 00:00:00 | |
| BIOWL1-15 | 2026-09-01 14:07:11 | 49.73009 | 8.40214 | 63° | 31km/h | 18082m | -10.2m/s | -51°C | 0% | 0hPa | 4.6V | 00:00:00 | 00:00:00 | 00:00:00 | |
| DL1XH-west | 2026-09-01 14:07:11 | 49.73016 | 8.40236 | 66° | 31km/h | 18062m | -9.9m/s | -50.8°C | 0% | 0hPa | 4.6V | 00:00:00 | 00:00:00 | 00:00:00 | |
| DL1XH-15 | 2026-09-01 14:07:10 | 49.72998 | 8.40186 | 58° | 26km/h | 18123m | -9.6m/s | 0°C | 0% | 0hPa | 0V | 00:00:00 | 00:00:00 | 00:00:00 | |
| DL1NUX | 2026-09-01 14:07:09 | 49.72995 | 8.40177 | 58° | 26km/h | 18153m | -10.6m/s | 0°C | 0% | 0hPa | 0V | 00:00:00 | 00:00:00 | 00:00:00 | |
| DO3MHA-11 | 2026-09-01 14:07:09 | 49.73012 | 8.40224 | 63° | 31km/h | 18083m | -10.1m/s | 0°C | 0% | 0hPa | 4.6V | 00:00:00 | 00:00:00 | 00:00:00 | |
| SO1NDE-10 | 2026-09-01 14:07:08 | 49.73009 | 8.40214 | 63° | 37km/h | 18093m | -9.7m/s | 0°C | 0% | 0hPa | 4.6V | 00:00:00 | 00:00:00 | 00:00:00 | |
| NBG1-10 | 2026-09-01 14:07:07 | 49.73005 | 8.40203 | 59° | 35km/h | 18103m | -9.7m/s | 0°C | 0% | 0hPa | 4.6V | 00:00:00 | 00:00:00 | 00:00:00 | |
| DO3DL | 2026-09-01 14:07:06 | 49.73002 | 8.40194 | 59° | 27km/h | 18103m | -9.7m/s | -51.1°C | 0% | 0hPa | 4.6V | 00:00:00 | 00:00:00 | 00:00:00 | |
| DK7TD | 2026-09-01 14:07:03 | 49.72988 | 8.40157 | 65° | 33km/h | 18143m | -10m/s | -51.3°C | 0% | 0hPa | 4.6V | 00:00:00 | 00:00:00 | 00:00:00 | |
| DM0DOS-11 | 2026-09-01 14:07:02 | 49.72970 | 8.40087 | 69° | 38km/h | 18203m | -10m/s | 0°C | 0% | 0hPa | 0V | 00:00:00 | 00:00:00 | 00:00:00 | |
| DL1XH-15 | 2026-09-01 14:07:00 | 49.72963 | 8.40059 | 67° | 38km/h | 18263m | -9.8m/s | 0°C | 0% | 0hPa | 0V | 00:00:00 | 00:00:00 | 00:00:00 | |
| BIOWL1-15 | 2026-09-01 14:07:00 | 49.72970 | 8.40087 | 69° | 38km/h | 18193m | -9.8m/s | -51.6°C | 0% | 0hPa | 4.6V | 00:00:00 | 00:00:00 | 00:00:00 | |
| DL1XH-west | 2026-09-01 14:07:00 | 49.72977 | 8.40116 | 71° | 40km/h | 18174m | -9.8m/s | -51.5°C | 0% | 0hPa | 4.6V | 00:00:00 | 00:00:00 | 00:00:00 | |
| DO2KSM | 2026-09-01 14:06:59 | 49.72973 | 8.40101 | 71° | 40km/h | 18184m | -9.8m/s | -51.5°C | 0% | 0hPa | 0V | 00:00:00 | 00:00:00 | 00:00:00 | |
| DL1NUX | 2026-09-01 14:06:57 | 49.72952 | 8.40010 | 81° | 46km/h | 18253m | -9.6m/s | 0°C | 0% | 0hPa | 0V | 00:00:00 | 00:00:00 | 00:00:00 | |
| DO3DL | 2026-09-01 14:06:53 | 49.72955 | 8.40028 | 73° | 46km/h | 18233m | -10.0m/s | -51.6°C | 0% | 0hPa | 0V | 00:00:00 | 00:00:00 | 00:00:00 | |
| DM0DOS-11 | 2026-09-01 14:06:52 | 49.72945 | 8.39931 | 78° | 38km/h | 18303m | -9.8m/s | 0°C | 0% | 0hPa | 0V | 00:00:00 | 00:00:00 | 00:00:00 | |
| HSKMA3-T | 2026-09-01 14:06:52 | 49.72950 | 8.39993 | 81° | 46km/h | 18253m | -9.6m/s | -51.5°C | 0% | 0hPa | 4.6V | 00:00:00 | 00:00:00 | 00:00:00 | |
| HEMX73-11 | 2026-09-01 14:06:51 | 49.72949 | 8.39976 | 86° | 42km/h | 18263m | -9.8m/s | -51.6°C | 0% | 0hPa | 4.6V | 00:00:00 | 00:00:00 | 00:00:00 | |
| DL1XH-west | 2026-09-01 14:06:50 | 49.72948 | 8.39960 | 85° | 38km/h | 18272m | -10.3m/s | -51.5°C | 0% | 0hPa | 4.6V | 00:00:00 | 00:00:00 | 00:00:00 | |
| BIOWL1-15 | 2026-09-01 14:06:49 | 49.72944 | 8.39916 | 79° | 38km/h | 18303m | -9.8m/s | -51.4°C | 0% | 0hPa | 4.6V | 00:00:00 | 00:00:00 | 00:00:00 | |
| DO3MHA-11 | 2026-09-01 14:06:48 | 49.72947 | 8.39945 | 84° | 35km/h | 18293m | -10.0m/s | 0°C | 0% | 0hPa | 0V | 00:00:00 | 00:00:00 | 00:00:00 | |
| DL1NUX | 2026-09-01 14:06:47 | 49.72939 | 8.39856 | 87° | 35km/h | 18356m | -11.1m/s | 0°C | 0% | 0hPa | 0V | 00:00:00 | 00:00:00 | 00:00:00 | |
| DO3DL | 2026-09-01 14:06:46 | 49.72943 | 8.39916 | 80° | 38km/h | 18304m | -9.8m/s | -51.4°C | 0% | 0hPa | 4.6V | 00:00:00 | 00:00:00 | 00:00:00 | |
| DJTTGO | 2026-09-01 14:06:44 | 49.72940 | 8.39886 | 86° | 40km/h | 18324m | -10.3m/s | -51.3°C | 0% | 0hPa | 4.6V | 00:00:00 | 00:00:00 | 00:00:00 | |
| HSKMA3-T | 2026-09-01 14:06:41 | 49.72939 | 8.39832 | 86° | 29km/h | 18368m | -11.2m/s | -51.5°C | 0% | 0hPa | 4.6V | 00:00:00 | 00:00:00 | 00:00:00 | |
| BIOWL1-15 | 2026-09-01 14:06:41 | 49.72938 | 8.39787 | 89° | 27km/h | 18411m | -10.5m/s | -51.6°C | 0% | 0hPa | 4.6V | 00:00:00 | 00:00:00 | 00:00:00 | |
| DO3DL | 2026-09-01 14:06:40 | 49.72938 | 8.39832 | 87° | 29km/h | 18368m | -11.2m/s | -51.5°C | 0% | 0hPa | 4.6V | 00:00:00 | 00:00:00 | 00:00:00 | |
| DL1XH-west | 2026-09-01 14:06:39 | 49.72938 | 8.39809 | 91° | 29km/h | 18389m | -10.7m/s | -51.5°C | 0% | 0hPa | 4.6V | 00:00:00 | 00:00:00 | 00:00:00 | |
| SO1NDE-10 | 2026-09-01 14:06:38 | 49.72938 | 8.39809 | 91° | 29km/h | 18400m | -10.7m/s | 0°C | 0% | 0hPa | 0V | 00:00:00 | 00:00:00 | 00:00:00 | |
| DL1NUX | 2026-09-01 14:06:37 | 49.72937 | 8.39746 | 100° | 22km/h | 18463m | -10.2m/s | 0°C | 0% | 0hPa | 0V | 00:00:00 | 00:00:00 | 00:00:00 | |
| DL8DAS-15 | 2026-09-01 14:06:35 | 49.72938 | 8.39777 | 88° | 27km/h | 18422m | -10.5m/s | -51.5°C | 0% | 0hPa | 0V | 00:00:00 | 00:00:00 | 00:00:00 | |
| NBG1-10 | 2026-09-01 14:06:34 | 49.72937 | 8.39766 | 86° | 29km/h | 18443m | -10.2m/s | 0°C | 0% | 0hPa | 0V | 00:00:00 | 00:00:00 | 00:00:00 | |
| DB0UT-7 | 2026-09-01 14:06:33 | 49.72937 | 8.39756 | 87° | 29km/h | 18453m | -10.1m/s | 0°C | 0% | 0hPa | 0V | 00:00:00 | 00:00:00 | 00:00:00 | |
| DM0DOS-11 | 2026-09-01 14:06:32 | 49.72940 | 8.39707 | 90° | 26km/h | 18513m | -10.8m/s | 0°C | 0% | 0hPa | 0V | 00:00:00 | 00:00:00 | 00:00:00 | |
| DO2KSM | 2026-09-01 14:06:31 | 49.72937 | 8.39738 | 102° | 20km/h | 18463m | -10.2m/s | -51.3°C | 0% | 0hPa | 4.6V | 00:00:00 | 00:00:00 | 00:00:00 | |
| HSKMA3-T | 2026-09-01 14:06:30 | 49.72939 | 8.39724 | 99° | 18km/h | 18483m | -10m/s | -51.4°C | 0% | 0hPa | 4.6V | 00:00:00 | 00:00:00 | 00:00:00 | |
| BIOWL1-15 | 2026-09-01 14:06:30 | 49.72941 | 8.39685 | 98° | 29km/h | 18524m | -10.5m/s | -51.5°C | 0% | 0hPa | 4.6V | 00:00:00 | 00:00:00 | 00:00:00 | |
| DB0NH | 2026-09-01 14:06:29 | 49.72939 | 8.39724 | 100° | 29km/h | 18493m | -9.9m/s | 0°C | 0% | 0hPa | 4.6V | 00:00:00 | 00:00:00 | 00:00:00 | |
| DO3MHA-11 | 2026-09-01 14:06:28 | 49.72940 | 8.39717 | 91° | 26km/h | 18503m | -9.8m/s | 0°C | 0% | 0hPa | 4.6V | 00:00:00 | 00:00:00 | 00:00:00 | |
| DL1XH-west | 2026-09-01 14:06:27 | 49.72940 | 8.39707 | 91° | 26km/h | 18503m | -9.8m/s | -51.5°C | 0% | 0hPa | 4.6V | 00:00:00 | 00:00:00 | 00:00:00 | |
| DL1NUX | 2026-09-01 14:06:27 | 49.72946 | 8.39654 | 105° | 24km/h | 18566m | -10.6m/s | 0°C | 0% | 0hPa | 0V | 00:00:00 | 00:00:00 | 00:00:00 | |
| DM0DOS-11 | 2026-09-01 14:06:22 | 49.72948 | 8.39597 | 94° | 40km/h | 18618m | -10.6m/s | 0°C | 0% | 0hPa | 0V | 00:00:00 | 00:00:00 | 00:00:00 | |
| HSKMA3-T | 2026-09-01 14:06:20 | 49.72948 | 8.39624 | 89° | 31km/h | 18587m | -10.5m/s | -51.6°C | 0% | 0hPa | 4.6V | 00:00:00 | 00:00:00 | 00:00:00 | |
| DO3MHA-11 | 2026-09-01 14:06:18 | 49.72948 | 8.39611 | 89° | 37km/h | 18608m | -10.5m/s | 0°C | 0% | 0hPa | 0V | 00:00:00 | 00:00:00 | 00:00:00 | |
| DL1NUX | 2026-09-01 14:06:17 | 49.72956 | 8.39518 | 100° | 37km/h | 18671m | -10.9m/s | 0°C | 0% | 0hPa | 0V | 00:00:00 | 00:00:00 | 00:00:00 | |
| DL1XH-west | 2026-09-01 14:06:17 | 49.72948 | 8.39581 | 94° | 42km/h | 18618m | -10.6m/s | -51.6°C | 0% | 0hPa | 4.6V | 00:00:00 | 00:00:00 | 00:00:00 | |
| BIOWL1-15 | 2026-09-01 14:06:15 | 49.72952 | 8.39548 | 103° | 42km/h | 18639m | -10.6m/s | -51.4°C | 0% | 0hPa | 4.6V | 00:00:00 | 00:00:00 | 00:00:00 | |
| DG1MJG | 2026-09-01 14:06:13 | 49.72953 | 8.39533 | 104° | 40km/h | 18650m | -10.2m/s | -51.2°C | 0% | 0hPa | 4.6V | 00:00:00 | 00:00:00 | 00:00:00 | |
| HSKMA3-T | 2026-09-01 14:06:09 | 49.72959 | 8.39471 | 104° | 27km/h | 18703m | -10.2m/s | -50.7°C | 0% | 0hPa | 4.6V | 00:00:00 | 00:00:00 | 00:00:00 | |
| DO3DL | 2026-09-01 14:06:08 | 49.72961 | 8.39460 | 108° | 31km/h | 18714m | -10.7m/s | -50.7°C | 0% | 0hPa | 4.6V | 00:00:00 | 00:00:00 | 00:00:00 | |
| DF1GD-15 | 2026-09-01 14:06:07 | 49.72961 | 8.39460 | 108° | 31km/h | 18714m | -10.7m/s | -50.7°C | 0% | 0hPa | 4.6V | 00:00:00 | 00:00:00 | 00:00:00 | |
| DL1XH-west | 2026-09-01 14:06:06 | 49.72963 | 8.39448 | 108° | 33km/h | 18724m | -10.7m/s | -50.7°C | 0% | 0hPa | 4.6V | 00:00:00 | 00:00:00 | 00:00:00 | |
| BIOWL1-15 | 2026-09-01 14:06:06 | 49.72970 | 8.39415 | 107° | 24km/h | 18756m | -10.8m/s | -50.8°C | 0% | 0hPa | 4.6V | 00:00:00 | 00:00:00 | 00:00:00 | |
| DL9SK-14 | 2026-09-01 14:06:05 | 49.72968 | 8.39425 | 109° | 27km/h | 18746m | -10.4m/s | -50.8°C | -1.0% | -1.0hPa | 0V | 00:00:00 | 00:00:00 | 00:00:00 | |
| DJ2DS-15 | 2026-09-01 14:06:04 | 49.72970 | 8.39415 | 106° | 24km/h | 18756m | -10.8m/s | -50.8°C | -1.0% | -1.0hPa | 0V | 00:00:00 | 00:00:00 | 00:00:00 | |
| DM0DOS-11 | 2026-09-01 14:06:02 | 49.72980 | 8.39371 | 112° | 18km/h | 18831m | -10.6m/s | 0°C | 0% | 0hPa | 0V | 00:00:00 | 00:00:00 | 00:00:00 | |
| DD1CC2-15 | 2026-09-01 14:06:01 | 49.72974 | 8.39391 | 110° | 20km/h | 18788m | -10.7m/s | 0°C | 0% | 0hPa | 4.6V | 00:00:00 | 00:00:00 | 00:00:00 | |
| DN1GJH-1 | 2026-09-01 14:06:00 | 49.72974 | 8.39391 | 110° | 20km/h | 18788m | -10.7m/s | -50.8°C | 0% | 0hPa | 4.6V | 00:00:00 | 00:00:00 | 00:00:00 | |
| DB0NH | 2026-09-01 14:05:59 | 49.72976 | 8.39384 | 113° | 18km/h | 18810m | -10.8m/s | 0°C | 0% | 0hPa | 4.6V | 00:00:00 | 00:00:00 | 00:00:00 | |
| DO3MHA-11 | 2026-09-01 14:05:58 | 49.72978 | 8.39377 | 113° | 13km/h | 18820m | -10.8m/s | 0°C | 0% | 0hPa | 4.6V | 00:00:00 | 00:00:00 | 00:00:00 | |
| HSKMA3-T | 2026-09-01 14:05:58 | 49.72980 | 8.39371 | 112° | 18km/h | 18820m | -10.9m/s | -51°C | 0% | 0hPa | 4.6V | 00:00:00 | 00:00:00 | 00:00:00 | |
| DL1XH-west | 2026-09-01 14:05:56 | 49.72982 | 8.39358 | 102° | 16km/h | 18842m | -10.6m/s | -51°C | 0% | 0hPa | 4.6V | 00:00:00 | 00:00:00 | 00:00:00 | |
| DO3DL | 2026-09-01 14:05:54 | 49.72983 | 8.39353 | 99° | 13km/h | 18852m | -9.7m/s | -51.0°C | 0% | 0hPa | 4.6V | 00:00:00 | 00:00:00 | 00:00:00 | |
| BIOWL1-15 | 2026-09-01 14:05:53 | 49.72983 | 8.39348 | 93° | 11km/h | 18862m | -10.5m/s | -50.9°C | 0% | 0hPa | 4.6V | 00:00:00 | 00:00:00 | 00:00:00 | |
| DM0DOS-11 | 2026-09-01 14:05:51 | 49.72968 | 8.39330 | 22° | 18km/h | 18952m | -11.4m/s | 0°C | 0% | 0hPa | 0V | 00:00:00 | 00:00:00 | 00:00:00 | |
| DO2KSM | 2026-09-01 14:05:50 | 49.72981 | 8.39339 | 39° | 9km/h | 18894m | -10.2m/s | -50.3°C | 0% | 0hPa | 0V | 00:00:00 | 00:00:00 | 00:00:00 | |
| DO3MHA-11 | 2026-09-01 14:05:48 | 49.72975 | 8.39335 | 20° | 16km/h | 18929m | -11.9m/s | 0°C | 0% | 0hPa | 0V | 00:00:00 | 00:00:00 | 00:00:00 | |
| DL1NUX | 2026-09-01 14:05:47 | 49.72952 | 8.39322 | 3° | 15km/h | 18997m | -11.1m/s | 0°C | 0% | 0hPa | 0V | 00:00:00 | 00:00:00 | 00:00:00 | |
| HSKMA3-T | 2026-09-01 14:05:47 | 49.72967 | 8.39330 | 23° | 18km/h | 18940m | -11.4m/s | -50.4°C | 0% | 0hPa | 4.6V | 00:00:00 | 00:00:00 | 00:00:00 | |
| DL1XH-west | 2026-09-01 14:05:45 | 49.72959 | 8.39325 | 20° | 16km/h | 18963m | -11.6m/s | -50.5°C | 0% | 0hPa | 4.6V | 00:00:00 | 00:00:00 | 00:00:00 | |
| BIOWL1-15 | 2026-09-01 14:05:44 | 49.72952 | 8.39322 | 3° | 15km/h | 18986m | -11m/s | -50.6°C | 0% | 0hPa | 4.6V | 00:00:00 | 00:00:00 | 00:00:00 | |
| DG1MJG | 2026-09-01 14:05:43 | 49.72955 | 8.39323 | 14° | 15km/h | 18975m | -11.0m/s | -50.5°C | 0% | 0hPa | 0V | 00:00:00 | 00:00:00 | 00:00:00 | |
| DO3DL | 2026-09-01 14:05:42 | 49.72951 | 8.39322 | 4° | 15km/h | 18986m | -11.0m/s | -50.6°C | 0% | 0hPa | 0V | 00:00:00 | 00:00:00 | 00:00:00 | |
| DM0DOS-11 | 2026-09-01 14:05:41 | 49.72925 | 8.39313 | 25° | 22km/h | 19065m | -11.4m/s | 0°C | 0% | 0hPa | 0V | 00:00:00 | 00:00:00 | 00:00:00 | |
| DD1CC2-15 | 2026-09-01 14:05:40 | 49.72943 | 8.39322 | 5° | 18km/h | 19008m | -11.4m/s | 0°C | 0% | 0hPa | 4.6V | 00:00:00 | 00:00:00 | 00:00:00 | |
| DN1GJH-1 | 2026-09-01 14:05:39 | 49.72939 | 8.39321 | 12° | 18km/h | 19020m | -11.5m/s | -50.8°C | 0% | 0hPa | 4.6V | 00:00:00 | 00:00:00 | 00:00:00 | |
| SO1NDE-10 | 2026-09-01 14:05:38 | 49.72934 | 8.39319 | 21° | 27km/h | 19042m | -11.5m/s | 0°C | 0% | 0hPa | 4.6V | 00:00:00 | 00:00:00 | 00:00:00 | |
| CB1BUN | 2026-09-01 14:05:37 | 49.72930 | 8.39316 | 27° | 20km/h | 19042m | -11.5m/s | -51.0°C | 0% | 0hPa | 4.6V | 00:00:00 | 00:00:00 | 00:00:00 | |
| HSKMA3-T | 2026-09-01 14:05:36 | 49.72920 | 8.39309 | 25° | 24km/h | 19065m | -11.4m/s | -51.1°C | 0% | 0hPa | 4.6V | 00:00:00 | 00:00:00 | 00:00:00 | |
| DO3DL | 2026-09-01 14:05:35 | 49.72920 | 8.39309 | 26° | 24km/h | 19066m | -11.4m/s | -51.1°C | 0% | 0hPa | 4.6V | 00:00:00 | 00:00:00 | 00:00:00 | |
| BIOWL1-15 | 2026-09-01 14:05:34 | 49.72897 | 8.39296 | 17° | 22km/h | 19110m | -10.9m/s | -51.5°C | 0% | 0hPa | 4.6V | 00:00:00 | 00:00:00 | 00:00:00 | |
| DL1XH-west | 2026-09-01 14:05:34 | 49.72908 | 8.39302 | 20° | 26km/h | 19088m | -11.1m/s | -51.3°C | 0% | 0hPa | 4.6V | 00:00:00 | 00:00:00 | 00:00:00 | |
| DL1XH-15 | 2026-09-01 14:05:33 | 49.72881 | 8.39287 | 24° | 22km/h | 19145m | -11.4m/s | 0°C | 0% | 0hPa | 0V | 00:00:00 | 00:00:00 | 00:00:00 | |
| DB0UT-7 | 2026-09-01 14:05:33 | 49.72908 | 8.39302 | 21° | 29km/h | 19100m | -11.0m/s | 0°C | 0% | 0hPa | 0V | 00:00:00 | 00:00:00 | 00:00:00 | |
| DJTTGO | 2026-09-01 14:05:32 | 49.72902 | 8.39299 | 19° | 26km/h | 19100m | -11.1m/s | -51.4°C | 0% | 0hPa | 0V | 00:00:00 | 00:00:00 | 00:00:00 | |
| DM0DOS-11 | 2026-09-01 14:05:31 | 49.72870 | 8.39279 | 26° | 27km/h | 19179m | -11.2m/s | 0°C | 0% | 0hPa | 0V | 00:00:00 | 00:00:00 | 00:00:00 | |
| DO2KSM | 2026-09-01 14:05:30 | 49.72891 | 8.39293 | 22° | 22km/h | 19122m | -11.4m/s | -51.6°C | 0% | 0hPa | 4.6V | 00:00:00 | 00:00:00 | 00:00:00 | |
| DB0NH | 2026-09-01 14:05:29 | 49.72886 | 8.39290 | 22° | 33km/h | 19145m | -11.4m/s | 0°C | 0% | 0hPa | 4.6V | 00:00:00 | 00:00:00 | 00:00:00 | |
| DO3MHA-11 | 2026-09-01 14:05:28 | 49.72881 | 8.39287 | 25° | 27km/h | 19157m | -11.9m/s | 0°C | 0% | 0hPa | 4.6V | 00:00:00 | 00:00:00 | 00:00:00 | |
| HSKMA3-T | 2026-09-01 14:05:26 | 49.72864 | 8.39274 | 25° | 27km/h | 19179m | -11.2m/s | -52°C | 0% | 0hPa | 4.6V | 00:00:00 | 00:00:00 | 00:00:00 | |
| DL1XH-west | 2026-09-01 14:05:24 | 49.72851 | 8.39265 | 25° | 27km/h | 19201m | -11m/s | -52.3°C | 0% | 0hPa | 4.6V | 00:00:00 | 00:00:00 | 00:00:00 | |
| DL1XH-15 | 2026-09-01 14:05:23 | 49.72819 | 8.39240 | 31° | 29km/h | 19271m | -11.6m/s | 0°C | 0% | 0hPa | 0V | 00:00:00 | 00:00:00 | 00:00:00 | |
| BIOWL1-15 | 2026-09-01 14:05:23 | 49.72832 | 8.39251 | 26° | 29km/h | 19235m | -11.5m/s | -52.6°C | 0% | 0hPa | 4.6V | 00:00:00 | 00:00:00 | 00:00:00 | |
| DO3DL | 2026-09-01 14:05:22 | 49.72845 | 8.39260 | 26° | 27km/h | 19213m | -11.2m/s | -52.4°C | 0% | 0hPa | 0V | 00:00:00 | 00:00:00 | 00:00:00 | |
| DM0DOS-11 | 2026-09-01 14:05:21 | 49.72807 | 8.39227 | 38° | 31km/h | 19294m | -11.3m/s | 0°C | 0% | 0hPa | 0V | 00:00:00 | 00:00:00 | 00:00:00 | |
| DN1GJH-1 | 2026-09-01 14:05:19 | 49.72825 | 8.39246 | 30° | 29km/h | 19247m | -11.8m/s | -52.6°C | 0% | 0hPa | 0V | 00:00:00 | 00:00:00 | 00:00:00 | |
| DO3MHA-11 | 2026-09-01 14:05:18 | 49.72819 | 8.39240 | 32° | 33km/h | 19271m | -11.5m/s | 0°C | 0% | 0hPa | 0V | 00:00:00 | 00:00:00 | 00:00:00 | |
| DL1NUX | 2026-09-01 14:05:17 | 49.72780 | 8.39194 | 39° | 35km/h | 19341m | -11.9m/s | 0°C | 0% | 0hPa | 0V | 00:00:00 | 00:00:00 | 00:00:00 | |
| DO3DL | 2026-09-01 14:05:16 | 49.72807 | 8.39227 | 40° | 31km/h | 19283m | -11.7m/s | -52.8°C | 0% | 0hPa | 4.6V | 00:00:00 | 00:00:00 | 00:00:00 | |
| DJ3KS | 2026-09-01 14:05:15 | 49.72801 | 8.39219 | 40° | 33km/h | 19294m | -11.3m/s | 0°C | 0% | 0hPa | 4.6V | 00:00:00 | 00:00:00 | 00:00:00 | |
| HSKMA3-T | 2026-09-01 14:05:14 | 49.72794 | 8.39211 | 38° | 35km/h | 19305m | -11.5m/s | -53°C | 0% | 0hPa | 4.6V | 00:00:00 | 00:00:00 | 00:00:00 | |
| DF2AP-13 | 2026-09-01 14:05:14 | 49.72794 | 8.39211 | 39° | 33km/h | 19317m | -11.6m/s | 0°C | 0% | 0hPa | 0V | 00:00:00 | 00:00:00 | 00:00:00 | |
| DL1XH-15 | 2026-09-01 14:05:13 | 49.72757 | 8.39161 | 44° | 33km/h | 19376m | -11.5m/s | 0°C | 0% | 0hPa | 0V | 00:00:00 | 00:00:00 | 00:00:00 | |
| DL1XH-west | 2026-09-01 14:05:12 | 49.72780 | 8.39194 | 40° | 35km/h | 19329m | -11.6m/s | -53.2°C | 0% | 0hPa | 4.6V | 00:00:00 | 00:00:00 | 00:00:00 | |
| BEGRI65-1 | 2026-09-01 14:05:12 | 49.72780 | 8.39193 | 41° | 35km/h | 19329m | -11.6m/s | -53.2°C | 0% | 0hPa | 0V | 00:00:00 | 00:00:00 | 00:00:00 | |
| DM0DOS-11 | 2026-09-01 14:05:11 | 49.72744 | 8.39144 | 52° | 38km/h | 19411m | -11.7m/s | 0°C | 0% | 0hPa | 0V | 00:00:00 | 00:00:00 | 00:00:00 | |
| BIOWL1-15 | 2026-09-01 14:05:11 | 49.72767 | 8.39177 | 41° | 29km/h | 19353m | -11.9m/s | -53.3°C | 0% | 0hPa | 4.6V | 00:00:00 | 00:00:00 | 00:00:00 | |
| DO3DL | 2026-09-01 14:05:10 | 49.72762 | 8.39169 | 44° | 29km/h | 19365m | -11.7m/s | -53.4°C | 0% | 0hPa | 4.6V | 00:00:00 | 00:00:00 | 00:00:00 | |
| DO2KSM | 2026-09-01 14:05:09 | 49.72762 | 8.39169 | 44° | 29km/h | 19365m | -11.7m/s | -53.4°C | 0% | 0hPa | 4.6V | 00:00:00 | 00:00:00 | 00:00:00 | |
| SO1NDE-10 | 2026-09-01 14:05:08 | 49.72756 | 8.39167 | 50° | 31km/h | 19388m | -11.5m/s | 0°C | 0% | 0hPa | 4.6V | 00:00:00 | 00:00:00 | 00:00:00 | |
| HEMX73-11 | 2026-09-01 14:05:07 | 49.72751 | 8.39153 | 47° | 33km/h | 19388m | -11.5m/s | -53.4°C | 0% | 0hPa | 4.6V | 00:00:00 | 00:00:00 | 00:00:00 | |
| DF1GD-15 | 2026-09-01 14:05:05 | 49.72738 | 8.39130 | 54° | 42km/h | 19412m | -11.7m/s | -53.5°C | 0% | 0hPa | 4.6V | 00:00:00 | 00:00:00 | 00:00:00 | |
| HSKMA3-T | 2026-09-01 14:05:04 | 49.72726 | 8.39102 | 57° | 44km/h | 19435m | -11.9m/s | -53.4°C | 0% | 0hPa | 4.6V | 00:00:00 | 00:00:00 | 00:00:00 | |
| DB0UT-7 | 2026-09-01 14:05:03 | 49.72725 | 8.39102 | 58° | 29km/h | 19459m | -12.0m/s | 0°C | 0% | 0hPa | 4.6V | 00:00:00 | 00:00:00 | 00:00:00 | |
| BIOWL1-15 | 2026-09-01 14:05:02 | 49.72704 | 8.39046 | 62° | 40km/h | 19483m | -11.6m/s | -53.1°C | 0% | 0hPa | 4.6V | 00:00:00 | 00:00:00 | 00:00:00 | |
| DL1XH-west | 2026-09-01 14:05:02 | 49.72714 | 8.39073 | 59° | 42km/h | 19459m | -12m/s | -53.3°C | 0% | 0hPa | 4.6V | 00:00:00 | 00:00:00 | 00:00:00 | |
| DM0DOS-11 | 2026-09-01 14:05:01 | 49.72692 | 8.39005 | 71° | 37km/h | 19530m | -11.9m/s | 0°C | 0% | 0hPa | 0V | 00:00:00 | 00:00:00 | 00:00:00 | |
| DB0NH | 2026-09-01 14:04:59 | 49.72704 | 8.39046 | 62° | 26km/h | 19495m | -11.3m/s | 0°C | 0% | 0hPa | 0V | 00:00:00 | 00:00:00 | 00:00:00 | |
| DO3MHA-11 | 2026-09-01 14:04:58 | 49.72700 | 8.39032 | 64° | 33km/h | 19507m | -12.0m/s | 0°C | 0% | 0hPa | 0V | 00:00:00 | 00:00:00 | 00:00:00 | |
| DL1NUX | 2026-09-01 14:04:57 | 49.72684 | 8.38957 | 74° | 29km/h | 19579m | -12.3m/s | 0°C | 0% | 0hPa | 0V | 00:00:00 | 00:00:00 | 00:00:00 | |
| DL1XH-15 | 2026-09-01 14:04:53 | 49.72675 | 8.38912 | 66° | 27km/h | 19675m | -11.4m/s | 0°C | 0% | 0hPa | 0V | 00:00:00 | 00:00:00 | 00:00:00 | |
| HSKMA3-T | 2026-09-01 14:04:53 | 49.72685 | 8.38957 | 74° | 29km/h | 19567m | -12m/s | -52.6°C | 0% | 0hPa | 4.6V | 00:00:00 | 00:00:00 | 00:00:00 | |
| DM0DOS-11 | 2026-09-01 14:04:51 | 49.72669 | 8.38895 | 55° | 22km/h | 19652m | -12.2m/s | 0°C | 0% | 0hPa | 0V | 00:00:00 | 00:00:00 | 00:00:00 | |
| DL1XH-west | 2026-09-01 14:04:51 | 49.72680 | 8.38934 | 72° | 31km/h | 19591m | -12m/s | -52.4°C | 0% | 0hPa | 4.6V | 00:00:00 | 00:00:00 | 00:00:00 | |
| DO3DL | 2026-09-01 14:04:50 | 49.72680 | 8.38934 | 73° | 31km/h | 19591m | -12.0m/s | -52.4°C | 0% | 0hPa | 4.6V | 00:00:00 | 00:00:00 | 00:00:00 | |
| BIOWL1-15 | 2026-09-01 14:04:49 | 49.72675 | 8.38912 | 66° | 27km/h | 19615m | -11.9m/s | -52.3°C | 0% | 0hPa | 4.6V | 00:00:00 | 00:00:00 | 00:00:00 | |
| DO3MHA-11 | 2026-09-01 14:04:48 | 49.72675 | 8.38912 | 67° | 22km/h | 19628m | -12.0m/s | 0°C | 0% | 0hPa | 0V | 00:00:00 | 00:00:00 | 00:00:00 | |
| DL1NUX | 2026-09-01 14:04:47 | 49.72658 | 8.38868 | 59° | 20km/h | 19698m | -12.1m/s | 0°C | 0% | 0hPa | 0V | 00:00:00 | 00:00:00 | 00:00:00 | |
| DF2AP-13 | 2026-09-01 14:04:44 | 49.72663 | 8.38881 | 60° | 26km/h | 19675m | -11.4m/s | 0°C | 0% | 0hPa | 4.6V | 00:00:00 | 00:00:00 | 00:00:00 | |
| HSKMA3-T | 2026-09-01 14:04:43 | 49.72658 | 8.38868 | 59° | 20km/h | 19686m | -11.6m/s | -52.4°C | 0% | 0hPa | 4.6V | 00:00:00 | 00:00:00 | 00:00:00 | |
| DL1XH-15 | 2026-09-01 14:04:42 | 49.72641 | 8.38843 | 33° | 18km/h | 19758m | -12m/s | 0°C | 0% | 0hPa | 0V | 00:00:00 | 00:00:00 | 00:00:00 | |
| DL1XH-west | 2026-09-01 14:04:40 | 49.72649 | 8.38851 | 40° | 18km/h | 19722m | -12m/s | -52.7°C | 0% | 0hPa | 4.6V | 00:00:00 | 00:00:00 | 00:00:00 | |
| BIOWL1-15 | 2026-09-01 14:04:38 | 49.72641 | 8.38843 | 33° | 18km/h | 19746m | -11.7m/s | -52.8°C | 0% | 0hPa | 4.6V | 00:00:00 | 00:00:00 | 00:00:00 | |
| DL1NUX | 2026-09-01 14:04:37 | 49.72622 | 8.38815 | 52° | 24km/h | 19819m | -11.6m/s | 0°C | 0% | 0hPa | 0V | 00:00:00 | 00:00:00 | 00:00:00 | |
| CB1BUN | 2026-09-01 14:04:36 | 49.72638 | 8.38839 | 35° | 18km/h | 19758m | -12.0m/s | -52.9°C | 0% | 0hPa | 0V | 00:00:00 | 00:00:00 | 00:00:00 | |
| DB0UT-7 | 2026-09-01 14:04:33 | 49.72625 | 8.38822 | 47° | 31km/h | 19807m | -12.0m/s | 0°C | 0% | 0hPa | 0V | 00:00:00 | 00:00:00 | 00:00:00 | |
| DL1XH-15 | 2026-09-01 14:04:32 | 49.72601 | 8.38779 | 46° | 29km/h | 19877m | -11.6m/s | 0°C | 0% | 0hPa | 0V | 00:00:00 | 00:00:00 | 00:00:00 | |
| HSKMA3-T | 2026-09-01 14:04:32 | 49.72618 | 8.38808 | 52° | 22km/h | 19819m | -11.6m/s | -52.9°C | 0% | 0hPa | 4.6V | 00:00:00 | 00:00:00 | 00:00:00 | |
| BIOWL7-15 | 2026-09-01 14:04:31 | 49.72614 | 8.38801 | 54° | 24km/h | 19831m | -11.4m/s | -52.9°C | 0% | 0hPa | 4.6V | 00:00:00 | 00:00:00 | 00:00:00 | |
| DO3DL | 2026-09-01 14:04:30 | 49.72614 | 8.38801 | 54° | 24km/h | 19831m | -11.4m/s | -52.9°C | 0% | 0hPa | 4.6V | 00:00:00 | 00:00:00 | 00:00:00 | |
| DL1XH-west | 2026-09-01 14:04:29 | 49.72610 | 8.38794 | 51° | 24km/h | 19842m | -11.4m/s | -52.9°C | 0% | 0hPa | 4.6V | 00:00:00 | 00:00:00 | 00:00:00 | |
| DB0NH | 2026-09-01 14:04:29 | 49.72610 | 8.38794 | 51° | 35km/h | 19866m | -11.6m/s | 0°C | 0% | 0hPa | 0V | 00:00:00 | 00:00:00 | 00:00:00 | |
| DO3MHA-11 | 2026-09-01 14:04:28 | 49.72606 | 8.38787 | 47° | 31km/h | 19866m | -11.6m/s | 0°C | 0% | 0hPa | 0V | 00:00:00 | 00:00:00 | 00:00:00 | |
| BIOWL1-15 | 2026-09-01 14:04:28 | 49.72601 | 8.38779 | 46° | 29km/h | 19865m | -11.6m/s | -52.9°C | 0% | 0hPa | 4.6V | 00:00:00 | 00:00:00 | 00:00:00 | |
| DL1NUX | 2026-09-01 14:04:27 | 49.72575 | 8.38735 | 54° | 31km/h | 19936m | -12.5m/s | 0°C | 0% | 0hPa | 0V | 00:00:00 | 00:00:00 | 00:00:00 | |
| HEMX73-11 | 2026-09-01 14:04:26 | 49.72596 | 8.38771 | 45° | 31km/h | 19877m | -11.6m/s | -53.0°C | 0% | 0hPa | 0V | 00:00:00 | 00:00:00 | 00:00:00 | |
| DF1GD-15 | 2026-09-01 14:04:24 | 49.72585 | 8.38754 | 50° | 29km/h | 19899m | -11.5m/s | -53.0°C | 0% | 0hPa | 0V | 00:00:00 | 00:00:00 | 00:00:00 | |
| DM0DOS-11 | 2026-09-01 14:04:21 | 49.72559 | 8.38669 | 79° | 27km/h | 20006m | -11.8m/s | 0°C | 0% | 0hPa | 0V | 00:00:00 | 00:00:00 | 00:00:00 | |
| HSKMA3-T | 2026-09-01 14:04:21 | 49.72567 | 8.38714 | 64° | 31km/h | 19948m | -11.8m/s | -53°C | 0% | 0hPa | 4.6V | 00:00:00 | 00:00:00 | 00:00:00 | |
| DL1XH-west | 2026-09-01 14:04:18 | 49.72561 | 8.38691 | 77° | 29km/h | 19971m | -11.6m/s | -52.8°C | 0% | 0hPa | 4.6V | 00:00:00 | 00:00:00 | 00:00:00 | |
| DO3MHA-11 | 2026-09-01 14:04:18 | 49.72561 | 8.38691 | 77° | 31km/h | 19982m | -11.6m/s | 0°C | 0% | 0hPa | 0V | 00:00:00 | 00:00:00 | 00:00:00 | |
| DL1NUX | 2026-09-01 14:04:17 | 49.72545 | 8.38626 | 67° | 35km/h | 20054m | -11.8m/s | 0°C | 0% | 0hPa | 0V | 00:00:00 | 00:00:00 | 00:00:00 | |
| BIOWL1-15 | 2026-09-01 14:04:16 | 49.72558 | 8.38669 | 80° | 27km/h | 19994m | -11.4m/s | -52.6°C | 0% | 0hPa | 4.6V | 00:00:00 | 00:00:00 | 00:00:00 | |
| CB1BUN | 2026-09-01 14:04:16 | 49.72557 | 8.38658 | 74° | 29km/h | 20006m | -11.8m/s | -52.6°C | 0% | 0hPa | 4.6V | 00:00:00 | 00:00:00 | 00:00:00 | |
| DF2AP-13 | 2026-09-01 14:04:13 | 49.72550 | 8.38636 | 59° | 37km/h | 20054m | -11.8m/s | 0°C | 0% | 0hPa | 4.6V | 00:00:00 | 00:00:00 | 00:00:00 | |
| DL1CLM-18 | 2026-09-01 14:04:12 | 49.72545 | 8.38625 | 60° | 35km/h | 20042m | -12.0m/s | -52.7°C | 0% | 0hPa | 4.6V | 00:00:00 | 00:00:00 | 00:00:00 | |
| DO3DL | 2026-09-01 14:04:11 | 49.72541 | 8.38613 | 69° | 33km/h | 20054m | -11.9m/s | -52.7°C | 0% | 0hPa | 4.6V | 00:00:00 | 00:00:00 | 00:00:00 | |
| HSKMA3-T | 2026-09-01 14:04:10 | 49.72538 | 8.38587 | 89° | 37km/h | 20077m | -11.4m/s | -52.8°C | 0% | 0hPa | 4.6V | 00:00:00 | 00:00:00 | 00:00:00 | |
| DL1XH-west | 2026-09-01 14:04:08 | 49.72539 | 8.38558 | 93° | 37km/h | 20100m | -12.2m/s | -52.8°C | 0% | 0hPa | 4.6V | 00:00:00 | 00:00:00 | 00:00:00 | |
| BIOWL1-15 | 2026-09-01 14:04:07 | 49.72537 | 8.38532 | 71° | 33km/h | 20126m | -12.2m/s | -52.8°C | 0% | 0hPa | 4.6V | 00:00:00 | 00:00:00 | 00:00:00 | |
| DL1NUX | 2026-09-01 14:04:07 | 49.72526 | 8.38492 | 74° | 42km/h | 20173m | -12.9m/s | 0°C | 0% | 0hPa | 0V | 00:00:00 | 00:00:00 | 00:00:00 | |
| HEMX73-11 | 2026-09-01 14:04:06 | 49.72539 | 8.38545 | 83° | 35km/h | 20113m | -12.8m/s | -52.8°C | 0% | 0hPa | 0V | 00:00:00 | 00:00:00 | 00:00:00 | |
| DO3DL | 2026-09-01 14:04:05 | 49.72537 | 8.38532 | 72° | 33km/h | 20126m | -12.1m/s | -52.8°C | 0% | 0hPa | 0V | 00:00:00 | 00:00:00 | 00:00:00 | |
| DF1GD-15 | 2026-09-01 14:04:04 | 49.72534 | 8.38519 | 65° | 35km/h | 20138m | -12.1m/s | -52.8°C | 0% | 0hPa | 0V | 00:00:00 | 00:00:00 | 00:00:00 | |
| DB0UT-7 | 2026-09-01 14:04:02 | 49.72526 | 8.38492 | 75° | 38km/h | 20174m | -12.8m/s | 0°C | 0% | 0hPa | 0V | 00:00:00 | 00:00:00 | 00:00:00 | |
| DL1XH-15 | 2026-09-01 14:04:01 | 49.72529 | 8.38396 | 83° | 31km/h | 20241m | 5.6m/s | 0°C | 0% | 0hPa | 0V | 00:00:00 | 00:00:00 | 00:00:00 | |
| HSKMA3-T | 2026-09-01 14:04:00 | 49.72527 | 8.38439 | 103° | 47km/h | 20201m | -13.7m/s | -52.7°C | 0% | 0hPa | 53.3V | 00:00:00 | 00:00:00 | 00:00:00 | |
| DO3MHA-11 | 2026-09-01 14:03:58 | 49.72530 | 8.38422 | 101° | 38km/h | 20234m | -19.1m/s | 0°C | 0% | 0hPa | 0V | 00:00:00 | 00:00:00 | 00:00:00 | |
| DL1NUX | 2026-09-01 14:03:57 | 49.72524 | 8.38341 | 85° | 42km/h | 20236m | 4.5m/s | 0°C | 0% | 0hPa | 0V | 00:00:00 | 00:00:00 | 00:00:00 | |
| DL1XH-west | 2026-09-01 14:03:57 | 49.72529 | 8.38396 | 84° | 31km/h | 20248m | -10.4m/s | -52.2°C | 0% | 0hPa | 4.6V | 00:00:00 | 00:00:00 | 00:00:00 | |
| DN1GJH-1 | 2026-09-01 14:03:56 | 49.72529 | 8.38396 | 84° | 33km/h | 20248m | -10.4m/s | -52.2°C | 0% | 0hPa | 4.6V | 00:00:00 | 00:00:00 | 00:00:00 | |
| BIOWL1-15 | 2026-09-01 14:03:55 | 49.72527 | 8.38371 | 79° | 33km/h | 20251m | 4.9m/s | -52.3°C | 0% | 0hPa | 4.6V | 00:00:00 | 00:00:00 | 00:00:00 | |
| DO3DL | 2026-09-01 14:03:52 | 49.72524 | 8.38341 | 87° | 42km/h | 20241m | 5.6m/s | -52.4°C | 0% | 0hPa | 0V | 00:00:00 | 00:00:00 | 00:00:00 | |
| DM0DOS-11 | 2026-09-01 14:03:51 | 49.72520 | 8.38246 | 81° | 37km/h | 20207m | 4.3m/s | 0°C | 0% | 0hPa | 0V | 00:00:00 | 00:00:00 | 00:00:00 | |
| DK7TD | 2026-09-01 14:03:49 | 49.72521 | 8.38276 | 91° | 40km/h | 20221m | 5.4m/s | -52.6°C | 0% | 0hPa | 4.6V | 00:00:00 | 00:00:00 | 00:00:00 | |
| DO3MHA-11 | 2026-09-01 14:03:48 | 49.72521 | 8.38276 | 91° | 37km/h | 20212m | 5.7m/s | 0°C | 0% | 0hPa | 4.6V | 00:00:00 | 00:00:00 | 00:00:00 | |
| DL1XH-west | 2026-09-01 14:03:46 | 49.72520 | 8.38246 | 81° | 37km/h | 20212m | 5.7m/s | -52.6°C | 0% | 0hPa | 4.6V | 00:00:00 | 00:00:00 | 00:00:00 | |
| HEMX73-11 | 2026-09-01 14:03:45 | 49.72519 | 8.38233 | 75° | 35km/h | 20207m | 4.3m/s | -52.6°C | 0% | 0hPa | 4.6V | 00:00:00 | 00:00:00 | 00:00:00 | |
| BIOWL1-15 | 2026-09-01 14:03:44 | 49.72515 | 8.38205 | 85° | 38km/h | 20196m | 4.8m/s | -52.7°C | 0% | 0hPa | 4.6V | 00:00:00 | 00:00:00 | 00:00:00 | |
| DF2AP-13 | 2026-09-01 14:03:43 | 49.72515 | 8.38205 | 86° | 37km/h | 20192m | 4.9m/s | 0°C | 0% | 0hPa | 4.6V | 00:00:00 | 00:00:00 | 00:00:00 | |
| DO3DL | 2026-09-01 14:03:39 | 49.72511 | 8.38147 | 90° | 37km/h | 20177m | 5.5m/s | -52.7°C | 0% | 0hPa | 4.6V | 00:00:00 | 00:00:00 | 00:00:00 | |
| DK7TD | 2026-09-01 14:03:38 | 49.72511 | 8.38119 | 86° | 35km/h | 20168m | 5.5m/s | -52.7°C | 0% | 0hPa | 4.6V | 00:00:00 | 00:00:00 | 00:00:00 | |
| SO1NDE-10 | 2026-09-01 14:03:38 | 49.72511 | 8.38132 | 86° | 35km/h | 20168m | 5.5m/s | 0°C | 0% | 0hPa | 4.6V | 00:00:00 | 00:00:00 | 00:00:00 | |
| DL1XH-west | 2026-09-01 14:03:36 | 49.72507 | 8.38093 | 72° | 35km/h | 20157m | 5.8m/s | -52.7°C | 0% | 0hPa | 4.6V | 00:00:00 | 00:00:00 | 00:00:00 | |
| CB1BUN | 2026-09-01 14:03:35 | 49.72504 | 8.38079 | 78° | 38km/h | 20152m | 4.6m/s | -52.8°C | 0% | 0hPa | 4.6V | 00:00:00 | 00:00:00 | 00:00:00 | |
| BIOWL1-15 | 2026-09-01 14:03:33 | 49.72502 | 8.38064 | 77° | 40km/h | 20147m | 4.5m/s | -52.8°C | 0% | 0hPa | 4.6V | 00:00:00 | 00:00:00 | 00:00:00 | |
| BEGRI65-1 | 2026-09-01 14:03:33 | 49.72502 | 8.38064 | 78° | 40km/h | 20147m | 4.6m/s | -52.8°C | 0% | 0hPa | 0V | 00:00:00 | 00:00:00 | 00:00:00 | |
| DB0UT-7 | 2026-09-01 14:03:32 | 49.72499 | 8.38049 | 74° | 35km/h | 20138m | 4.2m/s | 0°C | 0% | 0hPa | 0V | 00:00:00 | 00:00:00 | 00:00:00 | |
| DM0DOS-11 | 2026-09-01 14:03:31 | 49.72490 | 8.37967 | 74° | 33km/h | 20108m | 4m/s | 0°C | 0% | 0hPa | 0V | 00:00:00 | 00:00:00 | 00:00:00 | |
| HSKMA3-T | 2026-09-01 14:03:29 | 49.72494 | 8.37992 | 78° | 33km/h | 20123m | 5.3m/s | -52.6°C | 0% | 0hPa | 4.6V | 00:00:00 | 00:00:00 | 00:00:00 | |
| DB0NH | 2026-09-01 14:03:28 | 49.72494 | 8.37992 | 79° | 31km/h | 20118m | 4.4m/s | 0°C | 0% | 0hPa | 0V | 00:00:00 | 00:00:00 | 00:00:00 | |
| DL1NUX | 2026-09-01 14:03:27 | 49.72481 | 8.37915 | 76° | 35km/h | 20088m | 5.4m/s | 0°C | 0% | 0hPa | 0V | 00:00:00 | 00:00:00 | 00:00:00 | |
| DK7TD | 2026-09-01 14:03:27 | 49.72490 | 8.37967 | 75° | 33km/h | 20113m | 5.7m/s | -52.6°C | 0% | 0hPa | 4.6V | 00:00:00 | 00:00:00 | 00:00:00 | |
| DO3DL | 2026-09-01 14:03:26 | 49.72490 | 8.37967 | 76° | 33km/h | 20113m | 5.7m/s | -52.6°C | 0% | 0hPa | 4.6V | 00:00:00 | 00:00:00 | 00:00:00 | |
| DL1XH-west | 2026-09-01 14:03:25 | 49.72486 | 8.37941 | 76° | 37km/h | 20103m | 5.6m/s | -52.6°C | 0% | 0hPa | 4.6V | 00:00:00 | 00:00:00 | 00:00:00 | |
| DF1GD-15 | 2026-09-01 14:03:23 | 49.72483 | 8.37927 | 72° | 35km/h | 20098m | 4.7m/s | -52.6°C | 0% | 0hPa | 4.6V | 00:00:00 | 00:00:00 | 00:00:00 | |
| BIOWL1-15 | 2026-09-01 14:03:22 | 49.72481 | 8.37915 | 76° | 35km/h | 20093m | 4.7m/s | -52.7°C | 0% | 0hPa | 4.6V | 00:00:00 | 00:00:00 | 00:00:00 | |
| DM0DOS-11 | 2026-09-01 14:03:21 | 49.72466 | 8.37835 | 67° | 38km/h | 20063m | 4.5m/s | 0°C | 0% | 0hPa | 0V | 00:00:00 | 00:00:00 | 00:00:00 | |
| DO3DL | 2026-09-01 14:03:20 | 49.72477 | 8.37874 | 77° | 33km/h | 20079m | 5.6m/s | -52.6°C | 0% | 0hPa | 4.6V | 00:00:00 | 00:00:00 | 00:00:00 | |
| HSKMA3-T | 2026-09-01 14:03:19 | 49.72474 | 8.37861 | 65° | 33km/h | 20074m | 4.1m/s | -52.6°C | 0% | 0hPa | 4.6V | 00:00:00 | 00:00:00 | 00:00:00 | |
| DO3MHA-11 | 2026-09-01 14:03:18 | 49.72474 | 8.37861 | 65° | 33km/h | 20069m | 6.0m/s | 0°C | 0% | 0hPa | 4.6V | 00:00:00 | 00:00:00 | 00:00:00 | |
| DK7TD | 2026-09-01 14:03:16 | 49.72463 | 8.37821 | 67° | 38km/h | 20059m | 5.2m/s | -52.5°C | 0% | 0hPa | 4.6V | 00:00:00 | 00:00:00 | 00:00:00 | |
| DL1XH-west | 2026-09-01 14:03:14 | 49.72457 | 8.37798 | 74° | 27km/h | 20048m | 5m/s | -52.5°C | 0% | 0hPa | 4.6V | 00:00:00 | 00:00:00 | 00:00:00 | |
| DF2AP-13 | 2026-09-01 14:03:13 | 49.72456 | 8.37798 | 75° | 29km/h | 20043m | 5.1m/s | 0°C | 0% | 0hPa | 4.6V | 00:00:00 | 00:00:00 | 00:00:00 | |
| BIOWL1-15 | 2026-09-01 14:03:12 | 49.72455 | 8.37776 | 86° | 27km/h | 20038m | 4.5m/s | -52.4°C | 0% | 0hPa | 4.6V | 00:00:00 | 00:00:00 | 00:00:00 | |
| BEGRI65-1 | 2026-09-01 14:03:11 | 49.72455 | 8.37776 | 87° | 27km/h | 20038m | 4.5m/s | -52.4°C | 0% | 0hPa | 4.6V | 00:00:00 | 00:00:00 | 00:00:00 | |
| DJTTGO | 2026-09-01 14:03:09 | 49.72452 | 8.37756 | 70° | 29km/h | 20028m | 4.8m/s | -52.4°C | 0% | 0hPa | 4.6V | 00:00:00 | 00:00:00 | 00:00:00 | |
| HSKMA3-T | 2026-09-01 14:03:08 | 49.72445 | 8.37730 | 66° | 38km/h | 20018m | 4.3m/s | -52.4°C | 0% | 0hPa | 4.6V | 00:00:00 | 00:00:00 | 00:00:00 | |
| SO1NDE-10 | 2026-09-01 14:03:08 | 49.72449 | 8.37743 | 66° | 31km/h | 20018m | 4.3m/s | 0°C | 0% | 0hPa | 4.6V | 00:00:00 | 00:00:00 | 00:00:00 | |
| DK7TD | 2026-09-01 14:03:06 | 49.72437 | 8.37706 | 61° | 29km/h | 20008m | 3.7m/s | -52.5°C | 0% | 0hPa | 4.6V | 00:00:00 | 00:00:00 | 00:00:00 | |
| DL1XH-west | 2026-09-01 14:03:04 | 49.72433 | 8.37685 | 88° | 27km/h | 19998m | 5.2m/s | -52.6°C | 0% | 0hPa | 4.6V | 00:00:00 | 00:00:00 | 00:00:00 | |
| DL3AQ-11 | 2026-09-01 14:03:04 | 49.72433 | 8.37685 | 87° | 27km/h | 19998m | 5.2m/s | -52.6°C | -1.0% | -1.0hPa | 4.6V | 00:00:00 | 00:00:00 | 00:00:00 | |
| BIOWL1-15 | 2026-09-01 14:03:03 | 49.72431 | 8.37656 | 67° | 26km/h | 19985m | 3.5m/s | -52.7°C | 0% | 0hPa | 4.6V | 00:00:00 | 00:00:00 | 00:00:00 | |
| DB0UT-7 | 2026-09-01 14:03:02 | 49.72433 | 8.37675 | 93° | 27km/h | 19989m | 4.8m/s | 0°C | 0% | 0hPa | 0V | 00:00:00 | 00:00:00 | 00:00:00 | |
| DM0DOS-11 | 2026-09-01 14:03:01 | 49.72417 | 8.37613 | 52° | 31km/h | 19962m | 3.5m/s | 0°C | 0% | 0hPa | 0V | 00:00:00 | 00:00:00 | 00:00:00 | |
| DO3DL | 2026-09-01 14:03:00 | 49.72431 | 8.37656 | 68° | 26km/h | 19985m | 3.5m/s | -52.7°C | 0% | 0hPa | 0V | 00:00:00 | 00:00:00 | 00:00:00 | |
| DO3MHA-11 | 2026-09-01 14:02:58 | 49.72425 | 8.37635 | 69° | 31km/h | 19971m | 3.7m/s | 0°C | 0% | 0hPa | 0V | 00:00:00 | 00:00:00 | 00:00:00 | |
| DL1NUX | 2026-09-01 14:02:57 | 49.72406 | 8.37578 | 87° | 29km/h | 19944m | 5.1m/s | 0°C | 0% | 0hPa | 0V | 00:00:00 | 00:00:00 | 00:00:00 | |
| HSKMA3-T | 2026-09-01 14:02:57 | 49.72417 | 8.37613 | 52° | 31km/h | 19966m | 5.5m/s | -53°C | 0% | 0hPa | 4.6V | 00:00:00 | 00:00:00 | 00:00:00 | |
| DK7TD | 2026-09-01 14:02:55 | 49.72409 | 8.37597 | 58° | 22km/h | 19958m | 4.9m/s | -53°C | 0% | 0hPa | 4.6V | 00:00:00 | 00:00:00 | 00:00:00 | |
| CB1BUN | 2026-09-01 14:02:54 | 49.72407 | 8.37589 | 83° | 24km/h | 19953m | 5.2m/s | -53.0°C | 0% | 0hPa | 0V | 00:00:00 | 00:00:00 | 00:00:00 | |
| DL1XH-15 | 2026-09-01 14:02:53 | 49.72387 | 8.37532 | 48° | 40km/h | 19925m | 4m/s | 0°C | 0% | 0hPa | 0V | 00:00:00 | 00:00:00 | 00:00:00 | |
| DL1XH-west | 2026-09-01 14:02:53 | 49.72406 | 8.37578 | 87° | 29km/h | 19948m | 3.5m/s | -53°C | 0% | 0hPa | 4.6V | 00:00:00 | 00:00:00 | 00:00:00 | |
| BIOWL1-15 | 2026-09-01 14:02:52 | 49.72401 | 8.37556 | 52° | 35km/h | 19939m | 4.7m/s | -53°C | 0% | 0hPa | 4.6V | 00:00:00 | 00:00:00 | 00:00:00 | |
| DM0DOS-11 | 2026-09-01 14:02:51 | 49.72376 | 8.37514 | 47° | 27km/h | 19915m | 4.6m/s | 0°C | 0% | 0hPa | 0V | 00:00:00 | 00:00:00 | 00:00:00 | |
| DO3MHA-11 | 2026-09-01 14:02:48 | 49.72387 | 8.37532 | 49° | 31km/h | 19925m | 4.0m/s | 0°C | 0% | 0hPa | 4.6V | 00:00:00 | 00:00:00 | 00:00:00 | |
| DO3DL | 2026-09-01 14:02:47 | 49.72381 | 8.37523 | 50° | 33km/h | 19925m | 4.0m/s | -53.0°C | 0% | 0hPa | 4.6V | 00:00:00 | 00:00:00 | 00:00:00 | |
| HSKMA3-T | 2026-09-01 14:02:46 | 49.72371 | 8.37508 | 47° | 22km/h | 19915m | 4.6m/s | -52.9°C | 0% | 0hPa | 4.6V | 00:00:00 | 00:00:00 | 00:00:00 | |
| DK7TD | 2026-09-01 14:02:44 | 49.72365 | 8.37492 | 66° | 27km/h | 19905m | 4.9m/s | -52.9°C | 0% | 0hPa | 4.6V | 00:00:00 | 00:00:00 | 00:00:00 | |
| DF2AP-13 | 2026-09-01 14:02:43 | 49.72364 | 8.37492 | 66° | 26km/h | 19900m | 4.5m/s | 0°C | 0% | 0hPa | 4.6V | 00:00:00 | 00:00:00 | 00:00:00 | |
| DL1XH-west | 2026-09-01 14:02:42 | 49.72356 | 8.37472 | 46° | 33km/h | 19895m | 5.5m/s | -52.9°C | 0% | 0hPa | 4.6V | 00:00:00 | 00:00:00 | 00:00:00 | |
| DM0DOS-11 | 2026-09-01 14:02:41 | 49.72330 | 8.37432 | 47° | 16km/h | 19865m | 5.2m/s | 0°C | 0% | 0hPa | 0V | 00:00:00 | 00:00:00 | 00:00:00 | |
| BIOWL1-15 | 2026-09-01 14:02:40 | 49.72343 | 8.37454 | 44° | 35km/h | 19885m | 5.4m/s | -52.9°C | 0% | 0hPa | 4.6V | 00:00:00 | 00:00:00 | 00:00:00 | |
| DO3MHA-11 | 2026-09-01 14:02:38 | 49.72338 | 8.37445 | 50° | 27km/h | 19876m | 6.1m/s | 0°C | 0% | 0hPa | 0V | 00:00:00 | 00:00:00 | 00:00:00 | |
| DL1NUX | 2026-09-01 14:02:37 | 49.72318 | 8.37402 | 45° | 31km/h | 19845m | 4.7m/s | 0°C | 0% | 0hPa | 0V | 00:00:00 | 00:00:00 | 00:00:00 | |
| HSKMA3-T | 2026-09-01 14:02:36 | 49.72327 | 8.37427 | 64° | 16km/h | 19865m | 5.2m/s | -52.8°C | 0% | 0hPa | 4.6V | 00:00:00 | 00:00:00 | 00:00:00 | |
| DN1GJH-1 | 2026-09-01 14:02:35 | 49.72325 | 8.37420 | 70° | 24km/h | 19860m | 4.4m/s | -52.8°C | 0% | 0hPa | 0V | 00:00:00 | 00:00:00 | 00:00:00 | |
| DO3DL | 2026-09-01 14:02:34 | 49.72325 | 8.37420 | 70° | 24km/h | 19860m | 4.4m/s | -52.8°C | 0% | 0hPa | 0V | 00:00:00 | 00:00:00 | 00:00:00 | |
| DL1XH-15 | 2026-09-01 14:02:33 | 49.72295 | 8.37369 | 40° | 20km/h | 19826m | 4.5m/s | 0°C | 0% | 0hPa | 0V | 00:00:00 | 00:00:00 | 00:00:00 | |
| DK7TD | 2026-09-01 14:02:33 | 49.72318 | 8.37402 | 45° | 31km/h | 19850m | 5.2m/s | -52.8°C | 0% | 0hPa | 4.6V | 00:00:00 | 00:00:00 | 00:00:00 | |
| DB0UT-7 | 2026-09-01 14:02:32 | 49.72318 | 8.37402 | 46° | 22km/h | 19845m | 4.7m/s | 0°C | 0% | 0hPa | 0V | 00:00:00 | 00:00:00 | 00:00:00 | |
| DM0DOS-11 | 2026-09-01 14:02:31 | 49.72289 | 8.37363 | 56° | 11km/h | 19818m | 5m/s | 0°C | 0% | 0hPa | 0V | 00:00:00 | 00:00:00 | 00:00:00 | |
| BIOWL1-15 | 2026-09-01 14:02:31 | 49.72294 | 8.37369 | 40° | 20km/h | 19831m | 5.1m/s | -52.8°C | 0% | 0hPa | 4.6V | 00:00:00 | 00:00:00 | 00:00:00 | |
| DL1XH-west | 2026-09-01 14:02:31 | 49.72305 | 8.37384 | 43° | 35km/h | 19840m | 5m/s | -52.8°C | 0% | 0hPa | 4.6V | 00:00:00 | 00:00:00 | 00:00:00 | |
| DO3MHA-11 | 2026-09-01 14:02:28 | 49.72294 | 8.37369 | 41° | 22km/h | 19827m | 4.5m/s | 0°C | 0% | 0hPa | 0V | 00:00:00 | 00:00:00 | 00:00:00 | |
| DL1NUX | 2026-09-01 14:02:27 | 49.72274 | 8.37331 | 39° | 33km/h | 19799m | 5.1m/s | 0°C | 0% | 0hPa | 0V | 00:00:00 | 00:00:00 | 00:00:00 | |
| NBG1-10 | 2026-09-01 14:02:26 | 49.72288 | 8.37363 | 57° | 20km/h | 19804m | 4.0m/s | 0°C | 0% | 0hPa | 0V | 00:00:00 | 00:00:00 | 00:00:00 | |
| HSKMA3-T | 2026-09-01 14:02:25 | 49.72284 | 8.37350 | 64° | 29km/h | 19814m | 4.7m/s | -52.9°C | 0% | 0hPa | 0V | 00:00:00 | 00:00:00 | 00:00:00 | |
| DK7TD | 2026-09-01 14:02:23 | 49.72274 | 8.37331 | 39° | 33km/h | 19804m | 4.1m/s | -53°C | 0% | 0hPa | 4.6V | 00:00:00 | 00:00:00 | 00:00:00 | |
| DF1GD-15 | 2026-09-01 14:02:21 | 49.72268 | 8.37323 | 38° | 27km/h | 19800m | 5.1m/s | -53.0°C | 0% | 0hPa | 0V | 00:00:00 | 00:00:00 | 00:00:00 | |
| DM0DOS-11 | 2026-09-01 14:02:20 | 49.72250 | 8.37300 | 47° | 24km/h | 19761m | 3m/s | 0°C | 0% | 0hPa | 0V | 00:00:00 | 00:00:00 | 00:00:00 | |
| BIOWL1-15 | 2026-09-01 14:02:20 | 49.72256 | 8.37310 | 43° | 11km/h | 19780m | 5.3m/s | -52.8°C | 0% | 0hPa | 4.6V | 00:00:00 | 00:00:00 | 00:00:00 | |
| DL1XH-west | 2026-09-01 14:02:20 | 49.72261 | 8.37314 | 33° | 13km/h | 19789m | 5.5m/s | -52.9°C | 0% | 0hPa | 4.6V | 00:00:00 | 00:00:00 | 00:00:00 | |
| DO3MHA-11 | 2026-09-01 14:02:18 | 49.72258 | 8.37314 | 43° | 16km/h | 19780m | 5.3m/s | 0°C | 0% | 0hPa | 0V | 00:00:00 | 00:00:00 | 00:00:00 | |
| DL1NUX | 2026-09-01 14:02:17 | 49.72234 | 8.37279 | 66° | 22km/h | 19751m | 5.2m/s | 0°C | 0% | 0hPa | 0V | 00:00:00 | 00:00:00 | 00:00:00 | |
| DJTTGO | 2026-09-01 14:02:15 | 49.72250 | 8.37300 | 48° | 24km/h | 19771m | 5.6m/s | -52.8°C | 0% | 0hPa | 4.6V | 00:00:00 | 00:00:00 | 00:00:00 | |
| DN1GJH-1 | 2026-09-01 14:02:14 | 49.72245 | 8.37293 | 37° | 31km/h | 19765m | 5.0m/s | -52.7°C | 0% | 0hPa | 4.6V | 00:00:00 | 00:00:00 | 00:00:00 | |
| DF2AP-13 | 2026-09-01 14:02:13 | 49.72239 | 8.37286 | 33° | 24km/h | 19757m | 5.6m/s | 0°C | 0% | 0hPa | 4.6V | 00:00:00 | 00:00:00 | 00:00:00 | |
| DK7TD | 2026-09-01 14:02:12 | 49.72231 | 8.37276 | 66° | 13km/h | 19751m | 5.2m/s | -52.6°C | 0% | 0hPa | 4.6V | 00:00:00 | 00:00:00 | 00:00:00 | |
| DM0DOS-11 | 2026-09-01 14:02:10 | 49.72222 | 8.37243 | 41° | 27km/h | 19714m | 4.4m/s | 0°C | 0% | 0hPa | 0V | 00:00:00 | 00:00:00 | 00:00:00 | |
| DL1XH-west | 2026-09-01 14:02:10 | 49.72229 | 8.37269 | 68° | 9km/h | 19740m | 4m/s | -52.6°C | 0% | 0hPa | 4.6V | 00:00:00 | 00:00:00 | 00:00:00 | |
| BIOWL1-15 | 2026-09-01 14:02:08 | 49.72227 | 8.37259 | 73° | 20km/h | 19731m | 5.8m/s | -52.5°C | 0% | 0hPa | 4.6V | 00:00:00 | 00:00:00 | 00:00:00 | |
| DO3MHA-11 | 2026-09-01 14:02:08 | 49.72228 | 8.37265 | 71° | 20km/h | 19731m | 5.7m/s | 0°C | 0% | 0hPa | 0V | 00:00:00 | 00:00:00 | 00:00:00 | |
| DL1NUX | 2026-09-01 14:02:07 | 49.72211 | 8.37222 | 73° | 1035km/h | 19678m | 5m/s | 0°C | 0% | 0hPa | 0V | 00:00:00 | 00:00:00 | 00:00:00 | |
| BEGRI65-1 | 2026-09-01 14:02:07 | 49.72213 | 8.37229 | 53° | 22km/h | 19726m | 4.9m/s | -52.5°C | 0% | 0hPa | 4.6V | 00:00:00 | 00:00:00 | 00:00:00 | |
| HEMX73-11 | 2026-09-01 14:02:03 | 49.72213 | 8.37229 | 53° | 22km/h | 19709m | 6.2m/s | -52.5°C | 0% | 0hPa | 4.6V | 00:00:00 | 00:00:00 | 00:00:00 | |
| SONDE2-11 | 2026-09-01 14:02:02 | 49.72209 | 8.37216 | 72° | 15km/h | 19698m | 5.5m/s | -53.2°C | -1.0% | -1.0hPa | 4.6V | 00:00:00 | 00:00:00 | 00:00:00 | |
| DK7TD | 2026-09-01 14:02:01 | 49.72208 | 8.37210 | 68° | 16km/h | 19693m | 4.5m/s | -52.4°C | 0% | 0hPa | 4.6V | 00:00:00 | 00:00:00 | 00:00:00 | |
| DL1XH-west | 2026-09-01 14:01:58 | 49.72205 | 8.37196 | 77° | 22km/h | 19684m | 6.3m/s | -52.4°C | 0% | 0hPa | 4.6V | 00:00:00 | 00:00:00 | 00:00:00 | |
| DL1XH-15 | 2026-09-01 14:01:58 | 49.72194 | 8.37153 | 74° | 26km/h | 19652m | 3.3m/s | 0°C | 0% | 0hPa | 0V | 00:00:00 | 00:00:00 | 00:00:00 | |
| DB0NH | 2026-09-01 14:01:58 | 49.72205 | 8.37196 | 77° | 29km/h | 19679m | 5.0m/s | 0°C | 0% | 0hPa | 4.6V | 00:00:00 | 00:00:00 | 00:00:00 | |
| BIOWL1-15 | 2026-09-01 14:01:57 | 49.72202 | 8.37178 | 71° | 24km/h | 19673m | 5.9m/s | -52.3°C | 0% | 0hPa | 4.6V | 00:00:00 | 00:00:00 | 00:00:00 | |
| DO3DL | 2026-09-01 14:01:55 | 49.72199 | 8.37170 | 59° | 24km/h | 19668m | 4.2m/s | -52.2°C | 0% | 0hPa | 0V | 00:00:00 | 00:00:00 | 00:00:00 | |
| DN1GJH-1 | 2026-09-01 14:01:53 | 49.72193 | 8.37153 | 75° | 26km/h | 19657m | 4.9m/s | -52.2°C | 0% | 0hPa | 0V | 00:00:00 | 00:00:00 | 00:00:00 | |
| CB1BUN | 2026-09-01 14:01:52 | 49.72190 | 8.37132 | 73° | 26km/h | 19648m | 5.8m/s | -52.3°C | 0% | 0hPa | 0V | 00:00:00 | 00:00:00 | 00:00:00 | |
| NBG1-10 | 2026-09-01 14:01:51 | 49.72190 | 8.37132 | 72° | 31km/h | 19643m | 4.9m/s | 0°C | 0% | 0hPa | 0V | 00:00:00 | 00:00:00 | 00:00:00 | |
| DM0DOS-11 | 2026-09-01 14:01:50 | 49.72179 | 8.37065 | 68° | 38km/h | 19613m | 4.5m/s | 0°C | 0% | 0hPa | 0V | 00:00:00 | 00:00:00 | 00:00:00 | |
| DK7TD | 2026-09-01 14:01:50 | 49.72185 | 8.37115 | 69° | 24km/h | 19638m | 3.8m/s | -52.3°C | 0% | 0hPa | 4.7V | 00:00:00 | 00:00:00 | 00:00:00 | |
| DO3DL | 2026-09-01 14:01:49 | 49.72185 | 8.37115 | 70° | 24km/h | 19638m | 3.8m/s | -52.3°C | 0% | 0hPa | 0V | 00:00:00 | 00:00:00 | 00:00:00 | |
| DL1XH-15 | 2026-09-01 14:01:48 | 49.72173 | 8.37042 | 70° | 26km/h | 19603m | 4.9m/s | 0°C | 0% | 0hPa | 0V | 00:00:00 | 00:00:00 | 00:00:00 | |
| BIOWL1-15 | 2026-09-01 14:01:48 | 49.72179 | 8.37065 | 69° | 38km/h | 19618m | 4.5m/s | -52.4°C | 0% | 0hPa | 4.7V | 00:00:00 | 00:00:00 | 00:00:00 | |
| DL1XH-west | 2026-09-01 14:01:48 | 49.72183 | 8.37094 | 86° | 35km/h | 19629m | 4.4m/s | -52.3°C | 0% | 0hPa | 4.7V | 00:00:00 | 00:00:00 | 00:00:00 | |
| DO3MHA-11 | 2026-09-01 14:01:47 | 49.72183 | 8.37094 | 87° | 29km/h | 19624m | 6.1m/s | 0°C | 0% | 0hPa | 4.7V | 00:00:00 | 00:00:00 | 00:00:00 | |
| BEGRI65-1 | 2026-09-01 14:01:46 | 49.72181 | 8.37080 | 81° | 38km/h | 19624m | 6.2m/s | -52.3°C | 0% | 0hPa | 4.7V | 00:00:00 | 00:00:00 | 00:00:00 | |
| DF2AP-13 | 2026-09-01 14:01:43 | 49.72173 | 8.37042 | 71° | 35km/h | 19604m | 4.8m/s | 0°C | 0% | 0hPa | 4.7V | 00:00:00 | 00:00:00 | 00:00:00 | |
| DO3DL | 2026-09-01 14:01:42 | 49.72171 | 8.37034 | 75° | 18km/h | 19604m | 4.9m/s | -52.5°C | 0% | 0hPa | 4.7V | 00:00:00 | 00:00:00 | 00:00:00 | |
| DK7TD | 2026-09-01 14:01:40 | 49.72168 | 8.37012 | 87° | 26km/h | 19590m | 5.9m/s | -52.6°C | 0% | 0hPa | 4.7V | 00:00:00 | 00:00:00 | 00:00:00 | |
| AM1SDL-15 | 2026-09-01 14:01:38 | 49.72167 | 8.37000 | 92° | 37km/h | 19566m | 5.6m/s | 0°C | 0% | 0hPa | 4.7V | 00:00:00 | 00:00:00 | 00:00:00 | |
| DL1XH-west | 2026-09-01 14:01:37 | 49.72165 | 8.36967 | 75° | 42km/h | 19575m | 5m/s | -52.8°C | 0% | 0hPa | 4.7V | 00:00:00 | 00:00:00 | 00:00:00 | |
| DO3MHA-11 | 2026-09-01 14:01:37 | 49.72167 | 8.36982 | 75° | 35km/h | 19575m | 5.0m/s | 0°C | 0% | 0hPa | 0V | 00:00:00 | 00:00:00 | 00:00:00 | |
| BIOWL1-15 | 2026-09-01 14:01:37 | 49.72159 | 8.36940 | 69° | 33km/h | 19565m | 5.6m/s | -52.9°C | 0% | 0hPa | 4.7V | 00:00:00 | 00:00:00 | 00:00:00 | |
| DO3DL | 2026-09-01 14:01:36 | 49.72165 | 8.36967 | 76° | 42km/h | 19575m | 5.0m/s | -52.8°C | 0% | 0hPa | 0V | 00:00:00 | 00:00:00 | 00:00:00 | |
| DL1NUX | 2026-09-01 14:01:33 | 49.72144 | 8.36874 | 81° | 37km/h | 19532m | 4.7m/s | 0°C | 0% | 0hPa | 0V | 00:00:00 | 00:00:00 | 00:00:00 | |
| DB0UT-7 | 2026-09-01 14:01:32 | 49.72154 | 8.36918 | 73° | 38km/h | 19551m | 5.3m/s | 0°C | 0% | 0hPa | 4.7V | 00:00:00 | 00:00:00 | 00:00:00 | |
| CB1BUN | 2026-09-01 14:01:31 | 49.72151 | 8.36908 | 65° | 27km/h | 19551m | 5.4m/s | -52.8°C | 0% | 0hPa | 4.7V | 00:00:00 | 00:00:00 | 00:00:00 | |
| DJTTGO | 2026-09-01 14:01:30 | 49.72149 | 8.36898 | 64° | 29km/h | 19547m | 3.5m/s | -52.9°C | 0% | 0hPa | 4.7V | 00:00:00 | 00:00:00 | 00:00:00 | |
| DK7TD | 2026-09-01 14:01:29 | 49.72143 | 8.36874 | 81° | 37km/h | 19537m | 5.1m/s | -52.9°C | 0% | 0hPa | 4.7V | 00:00:00 | 00:00:00 | 00:00:00 | |
| DB0NH | 2026-09-01 14:01:28 | 49.72143 | 8.36874 | 82° | 40km/h | 19532m | 4.6m/s | 0°C | 0% | 0hPa | 4.7V | 00:00:00 | 00:00:00 | 00:00:00 | |
| DO3MHA-11 | 2026-09-01 14:01:27 | 49.72142 | 8.36860 | 78° | 38km/h | 19527m | 5.6m/s | 0°C | 0% | 0hPa | 4.7V | 00:00:00 | 00:00:00 | 00:00:00 | |
| DL1XH-west | 2026-09-01 14:01:26 | 49.72139 | 8.36846 | 67° | 38km/h | 19527m | 5.6m/s | -52.9°C | 0% | 0hPa | 4.7V | 00:00:00 | 00:00:00 | 00:00:00 | |
| AM1SDL-15 | 2026-09-01 14:01:26 | 49.72139 | 8.36846 | 68° | 44km/h | 19522m | 4.1m/s | 0°C | 0% | 0hPa | 4.7V | 00:00:00 | 00:00:00 | 00:00:00 | |
| BIOWL1-15 | 2026-09-01 14:01:24 | 49.72126 | 8.36808 | 63° | 35km/h | 19512m | 4.5m/s | -53°C | 0% | 0hPa | 4.7V | 00:00:00 | 00:00:00 | 00:00:00 | |
| DL1NUX | 2026-09-01 14:01:23 | 49.72105 | 8.36740 | 58° | 47km/h | 19479m | 5.8m/s | 0°C | 0% | 0hPa | 0V | 00:00:00 | 00:00:00 | 00:00:00 | |
| HEMX73-11 | 2026-09-01 14:01:21 | 49.72117 | 8.36784 | 59° | 35km/h | 19501m | 4.3m/s | -53.2°C | 0% | 0hPa | 0V | 00:00:00 | 00:00:00 | 00:00:00 | |
| DM0DOS-11 | 2026-09-01 14:01:20 | 49.72086 | 8.36693 | 57° | 46km/h | 19463m | 4.6m/s | 0°C | 0% | 0hPa | 0V | 00:00:00 | 00:00:00 | 00:00:00 | |
| DK7TD | 2026-09-01 14:01:18 | 49.72099 | 8.36724 | 59° | 49km/h | 19479m | 5.8m/s | -53.4°C | 0% | 0hPa | 4.7V | 00:00:00 | 00:00:00 | 00:00:00 | |
| BIOWL1-15 | 2026-09-01 14:01:18 | 49.72074 | 8.36666 | 49° | 40km/h | 19458m | 6.2m/s | -53.4°C | 0% | 0hPa | 4.7V | 00:00:00 | 00:00:00 | 00:00:00 | |
| NBG1-10 | 2026-09-01 14:01:18 | 49.72105 | 8.36740 | 59° | 37km/h | 19479m | 5.8m/s | 0°C | 0% | 0hPa | 4.7V | 00:00:00 | 00:00:00 | 00:00:00 | |
| DO3MHA-11 | 2026-09-01 14:01:17 | 49.72099 | 8.36724 | 59° | 44km/h | 19474m | 4.9m/s | 0°C | 0% | 0hPa | 4.7V | 00:00:00 | 00:00:00 | 00:00:00 | |
| DL1XH-west | 2026-09-01 14:01:15 | 49.72086 | 8.36693 | 58° | 46km/h | 19468m | 5.8m/s | -53.4°C | 0% | 0hPa | 4.7V | 00:00:00 | 00:00:00 | 00:00:00 | |
| AM1SDL-15 | 2026-09-01 14:01:14 | 49.72080 | 8.36679 | 56° | 35km/h | 19443m | 4.2m/s | 0°C | 0% | 0hPa | 0V | 00:00:00 | 00:00:00 | 00:00:00 | |
| DL1NUX | 2026-09-01 14:01:13 | 49.72043 | 8.36597 | 55° | 46km/h | 19427m | 4.9m/s | 0°C | 0% | 0hPa | 0V | 00:00:00 | 00:00:00 | 00:00:00 | |
| DF2AP-13 | 2026-09-01 14:01:13 | 49.72074 | 8.36666 | 49° | 35km/h | 19453m | 4.0m/s | 0°C | 0% | 0hPa | 0V | 00:00:00 | 00:00:00 | 00:00:00 | |
| DN1GJH-1 | 2026-09-01 14:01:12 | 49.72067 | 8.36654 | 49° | 40km/h | 19453m | 4.1m/s | -53.4°C | 0% | 0hPa | 0V | 00:00:00 | 00:00:00 | 00:00:00 | |
| DM0DOS-11 | 2026-09-01 14:01:10 | 49.72028 | 8.36561 | 42° | 29km/h | 19412m | 5.7m/s | 0°C | 0% | 0hPa | 0V | 00:00:00 | 00:00:00 | 00:00:00 | |
| DK7TD | 2026-09-01 14:01:08 | 49.72037 | 8.36584 | 55° | 40km/h | 19427m | 5m/s | -53.5°C | 0% | 0hPa | 4.7V | 00:00:00 | 00:00:00 | 00:00:00 | |
| SO1NDE-10 | 2026-09-01 14:01:07 | 49.72037 | 8.36582 | 59° | 31km/h | 19422m | 5.4m/s | 0°C | 0% | 0hPa | 4.7V | 00:00:00 | 00:00:00 | 00:00:00 | |
| BIOWL1-15 | 2026-09-01 14:01:05 | 49.72009 | 8.36534 | 47° | 38km/h | 19402m | 6.2m/s | -53.4°C | 0% | 0hPa | 4.7V | 00:00:00 | 00:00:00 | 00:00:00 | |
| DL1XH-west | 2026-09-01 14:01:04 | 49.72022 | 8.36553 | 42° | 31km/h | 19412m | 5.7m/s | -53.4°C | 0% | 0hPa | 4.7V | 00:00:00 | 00:00:00 | 00:00:00 | |
| DJTTGO | 2026-09-01 14:01:04 | 49.72022 | 8.36553 | 43° | 31km/h | 19413m | 5.7m/s | -53.4°C | 0% | 0hPa | 0V | 00:00:00 | 00:00:00 | 00:00:00 | |
| DL1NUX | 2026-09-01 14:01:03 | 49.71986 | 8.36488 | 44° | 33km/h | 19377m | 6.2m/s | 0°C | 0% | 0hPa | 0V | 00:00:00 | 00:00:00 | 00:00:00 | |
| DB0UT-7 | 2026-09-01 14:01:02 | 49.72009 | 8.36534 | 47° | 31km/h | 19397m | 4.4m/s | 0°C | 0% | 0hPa | 0V | 00:00:00 | 00:00:00 | 00:00:00 | |
| HEMX73-11 | 2026-09-01 14:01:01 | 49.72002 | 8.36522 | 57° | 40km/h | 19397m | 4.5m/s | -53.4°C | 0% | 0hPa | 0V | 00:00:00 | 00:00:00 | 00:00:00 | |
| DM0DOS-11 | 2026-09-01 14:01:00 | 49.71971 | 8.36465 | 39° | 26km/h | 19362m | 5.8m/s | 0°C | 0% | 0hPa | 0V | 00:00:00 | 00:00:00 | 00:00:00 | |
| DF1GD-15 | 2026-09-01 14:00:59 | 49.71991 | 8.36498 | 51° | 37km/h | 19388m | 5.6m/s | -53.3°C | 0% | 0hPa | 4.7V | 00:00:00 | 00:00:00 | 00:00:00 | |
| DB0NH | 2026-09-01 14:00:58 | 49.71985 | 8.36488 | 45° | 29km/h | 19378m | 6.1m/s | 0°C | 0% | 0hPa | 4.7V | 00:00:00 | 00:00:00 | 00:00:00 | |
| DO3MHA-11 | 2026-09-01 14:00:57 | 49.71980 | 8.36480 | 47° | 29km/h | 19372m | 4.6m/s | 0°C | 0% | 0hPa | 4.7V | 00:00:00 | 00:00:00 | 00:00:00 | |
| DK7TD | 2026-09-01 14:00:56 | 49.71971 | 8.36465 | 40° | 26km/h | 19368m | 3.9m/s | -53.1°C | 0% | 0hPa | 4.7V | 00:00:00 | 00:00:00 | 00:00:00 | |
| DL1XH-west | 2026-09-01 14:00:54 | 49.71958 | 8.36452 | 32° | 37km/h | 19358m | 4.1m/s | -53.1°C | 0% | 0hPa | 4.7V | 00:00:00 | 00:00:00 | 00:00:00 | |
| DL1NUX | 2026-09-01 14:00:53 | 49.71929 | 8.36413 | 18° | 26km/h | 19328m | 6.1m/s | 0°C | 0% | 0hPa | 0V | 00:00:00 | 00:00:00 | 00:00:00 | |
| DN1GJH-1 | 2026-09-01 14:00:52 | 49.71951 | 8.36444 | 41° | 35km/h | 19352m | 6.3m/s | -53.1°C | 0% | 0hPa | 4.7V | 00:00:00 | 00:00:00 | 00:00:00 | |
| BIOWL1-15 | 2026-09-01 14:00:51 | 49.71945 | 8.36435 | 52° | 31km/h | 19347m | 4.3m/s | -53°C | 0% | 0hPa | 4.7V | 00:00:00 | 00:00:00 | 00:00:00 | |
| DO3DL | 2026-09-01 14:00:51 | 49.71945 | 8.36434 | 53° | 31km/h | 19347m | 4.3m/s | -53.0°C | 0% | 0hPa | 0V | 00:00:00 | 00:00:00 | 00:00:00 | |
| DM0DOS-11 | 2026-09-01 14:00:50 | 49.71913 | 8.36400 | 38° | 27km/h | 19313m | 5.7m/s | 0°C | 0% | 0hPa | 0V | 00:00:00 | 00:00:00 | 00:00:00 | |
| DO3MHA-11 | 2026-09-01 14:00:47 | 49.71923 | 8.36409 | 19° | 29km/h | 19323m | 3.6m/s | 0°C | 0% | 0hPa | 4.7V | 00:00:00 | 00:00:00 | 00:00:00 | |
| AM1SDL-15 | 2026-09-01 14:00:46 | 49.71918 | 8.36406 | 33° | 27km/h | 19299m | 3.9m/s | 0°C | 0% | 0hPa | 4.7V | 00:00:00 | 00:00:00 | 00:00:00 | |
| DK7TD | 2026-09-01 14:00:46 | 49.71913 | 8.36400 | 39° | 27km/h | 19318m | 5.2m/s | -52.9°C | 0% | 0hPa | 4.7V | 00:00:00 | 00:00:00 | 00:00:00 | |
| NBG1-10 | 2026-09-01 14:00:45 | 49.71913 | 8.36400 | 39° | 29km/h | 19313m | 5.7m/s | 0°C | 0% | 0hPa | 4.7V | 00:00:00 | 00:00:00 | 00:00:00 | |
| DL1XH-west | 2026-09-01 14:00:44 | 49.71900 | 8.36382 | 43° | 40km/h | 19308m | 4.8m/s | -52.8°C | 0% | 0hPa | 4.7V | 00:00:00 | 00:00:00 | 00:00:00 | |
| DL1NUX | 2026-09-01 14:00:43 | 49.71866 | 8.36355 | 28° | 26km/h | 19279m | 4.4m/s | 0°C | 0% | 0hPa | 0V | 00:00:00 | 00:00:00 | 00:00:00 | |
| DF2AP-13 | 2026-09-01 14:00:43 | 49.71900 | 8.36382 | 44° | 29km/h | 19303m | 4.3m/s | 0°C | 0% | 0hPa | 4.7V | 00:00:00 | 00:00:00 | 00:00:00 | |
| BIOWL1-15 | 2026-09-01 14:00:41 | 49.71880 | 8.36362 | 16° | 29km/h | 19294m | 5.9m/s | -52.6°C | 0% | 0hPa | 4.7V | 00:00:00 | 00:00:00 | 00:00:00 | |
| DM0DOS-11 | 2026-09-01 14:00:40 | 49.71850 | 8.36331 | 24° | 35km/h | 19264m | 3.7m/s | 0°C | 0% | 0hPa | 0V | 00:00:00 | 00:00:00 | 00:00:00 | |
| DF1GD-15 | 2026-09-01 14:00:39 | 49.71873 | 8.36358 | 17° | 29km/h | 19289m | 4.0m/s | -52.6°C | 0% | 0hPa | 4.7V | 00:00:00 | 00:00:00 | 00:00:00 | |
| SO1NDE-10 | 2026-09-01 14:00:37 | 49.71861 | 8.36348 | 46° | 27km/h | 19274m | 4.6m/s | 0°C | 0% | 0hPa | 4.7V | 00:00:00 | 00:00:00 | 00:00:00 | |
| BEGRI65-1 | 2026-09-01 14:00:36 | 49.71856 | 8.36340 | 47° | 29km/h | 19274m | 4.6m/s | -52.5°C | 0% | 0hPa | 4.7V | 00:00:00 | 00:00:00 | 00:00:00 | |
| DK7TD | 2026-09-01 14:00:35 | 49.71842 | 8.36326 | 24° | 38km/h | 19265m | 3.7m/s | -52.4°C | 0% | 0hPa | 4.7V | 00:00:00 | 00:00:00 | 00:00:00 | |
| DL1NUX | 2026-09-01 14:00:33 | 49.71804 | 8.36302 | 40° | 22km/h | 19229m | 4.3m/s | 0°C | 0% | 0hPa | 0V | 00:00:00 | 00:00:00 | 00:00:00 | |
| DL1XH-west | 2026-09-01 14:00:33 | 49.71826 | 8.36314 | 28° | 29km/h | 19255m | 4.8m/s | -52.4°C | 0% | 0hPa | 4.7V | 00:00:00 | 00:00:00 | 00:00:00 | |
| DO3DL | 2026-09-01 14:00:32 | 49.71820 | 8.36310 | 24° | 24km/h | 19250m | 5.3m/s | -52.4°C | 0% | 0hPa | 4.7V | 00:00:00 | 00:00:00 | 00:00:00 | |
| BIOWL1-15 | 2026-09-01 14:00:31 | 49.71815 | 8.36307 | 15° | 24km/h | 19244m | 5.7m/s | -52.3°C | 0% | 0hPa | 4.7V | 00:00:00 | 00:00:00 | 00:00:00 | |
| DM0DOS-11 | 2026-09-01 14:00:30 | 49.71785 | 8.36282 | 21° | 35km/h | 19214m | 5m/s | 0°C | 0% | 0hPa | 0V | 00:00:00 | 00:00:00 | 00:00:00 | |
| CB1BUN | 2026-09-01 14:00:30 | 49.71809 | 8.36304 | 23° | 24km/h | 19240m | 3.7m/s | -52.2°C | 0% | 0hPa | 4.7V | 00:00:00 | 00:00:00 | 00:00:00 | |
| DB0NH | 2026-09-01 14:00:28 | 49.71804 | 8.36301 | 41° | 26km/h | 19230m | 4.3m/s | 0°C | 0% | 0hPa | 4.7V | 00:00:00 | 00:00:00 | 00:00:00 | |
| DO3MHA-11 | 2026-09-01 14:00:27 | 49.71799 | 8.36295 | 41° | 29km/h | 19224m | 6.2m/s | 0°C | 0% | 0hPa | 4.7V | 00:00:00 | 00:00:00 | 00:00:00 | |
| DO3DL | 2026-09-01 14:00:25 | 49.71785 | 8.36282 | 22° | 35km/h | 19219m | 4.0m/s | -52.1°C | 0% | 0hPa | 4.7V | 00:00:00 | 00:00:00 | 00:00:00 | |
| DK7TD | 2026-09-01 14:00:24 | 49.71770 | 8.36273 | 23° | 27km/h | 19209m | 5.1m/s | -52°C | 0% | 0hPa | 4.7V | 00:00:00 | 00:00:00 | 00:00:00 | |
| DL1XH-west | 2026-09-01 14:00:22 | 49.71759 | 8.36265 | 22° | 26km/h | 19200m | 5.8m/s | -51.9°C | 0% | 0hPa | 4.7V | 00:00:00 | 00:00:00 | 00:00:00 | |
| BIOWL1-15 | 2026-09-01 14:00:21 | 49.71746 | 8.36258 | 27° | 27km/h | 19191m | 4.4m/s | -51.8°C | 0% | 0hPa | 4.7V | 00:00:00 | 00:00:00 | 00:00:00 | |
| DM0DOS-11 | 2026-09-01 14:00:20 | 49.71725 | 8.36232 | 11° | 31km/h | 19167m | 4m/s | 0°C | 0% | 0hPa | 0V | 00:00:00 | 00:00:00 | 00:00:00 | |
| DO3DL | 2026-09-01 14:00:19 | 49.71740 | 8.36252 | 42° | 24km/h | 19186m | 5.3m/s | -51.8°C | 0% | 0hPa | 0V | 00:00:00 | 00:00:00 | 00:00:00 | |
| AM1SDL-15 | 2026-09-01 14:00:18 | 49.71740 | 8.36252 | 42° | 24km/h | 19182m | 3.5m/s | 0°C | 0% | 0hPa | 0V | 00:00:00 | 00:00:00 | 00:00:00 | |
| DO3MHA-11 | 2026-09-01 14:00:17 | 49.71736 | 8.36245 | 45° | 26km/h | 19177m | 5.4m/s | 0°C | 0% | 0hPa | 0V | 00:00:00 | 00:00:00 | 00:00:00 | |
| DL1NUX | 2026-09-01 14:00:13 | 49.71685 | 8.36208 | 30° | 26km/h | 19132m | 4.2m/s | 0°C | 0% | 0hPa | 0V | 00:00:00 | 00:00:00 | 00:00:00 | |
| DF2AP-13 | 2026-09-01 14:00:13 | 49.71711 | 8.36229 | 29° | 22km/h | 19152m | 4.9m/s | 0°C | 0% | 0hPa | 4.7V | 00:00:00 | 00:00:00 | 00:00:00 | |
| DK7TD | 2026-09-01 14:00:13 | 49.71706 | 8.36225 | 27° | 16km/h | 19157m | 4.6m/s | -51.5°C | 0% | 0hPa | 4.7V | 00:00:00 | 00:00:00 | 00:00:00 | |
| NBG1-10 | 2026-09-01 14:00:12 | 49.71706 | 8.36225 | 28° | 22km/h | 19152m | 4.9m/s | 0°C | 0% | 0hPa | 4.7V | 00:00:00 | 00:00:00 | 00:00:00 | |
| DL1XH-west | 2026-09-01 14:00:10 | 49.71697 | 8.36217 | 27° | 24km/h | 19147m | 5.6m/s | -51.5°C | 0% | 0hPa | 4.7V | 00:00:00 | 00:00:00 | 00:00:00 | |
| DM0DOS-11 | 2026-09-01 14:00:10 | 49.71669 | 8.36195 | 15° | 27km/h | 19117m | 5.6m/s | 0°C | 0% | 0hPa | 0V | 00:00:00 | 00:00:00 | 00:00:00 | |
| BIOWL1-15 | 2026-09-01 14:00:09 | 49.71685 | 8.36208 | 31° | 26km/h | 19137m | 5.7m/s | -51.4°C | 0% | 0hPa | 4.7V | 00:00:00 | 00:00:00 | 00:00:00 | |
| SO1NDE-10 | 2026-09-01 14:00:07 | 49.71680 | 8.36202 | 25° | 20km/h | 19127m | 5.8m/s | 0°C | 0% | 0hPa | 4.7V | 00:00:00 | 00:00:00 | 00:00:00 | |
| AM1SDL-15 | 2026-09-01 14:00:06 | 49.71675 | 8.36199 | 25° | 24km/h | 19122m | 4.5m/s | 0°C | 0% | 0hPa | 4.7V | 00:00:00 | 00:00:00 | 00:00:00 | |
| DK7TD | 2026-09-01 14:00:02 | 49.71647 | 8.36184 | 20° | 24km/h | 19102m | 5m/s | -51.1°C | 0% | 0hPa | 4.7V | 00:00:00 | 00:00:00 | 00:00:00 | |
| OE3JTB-15 | 2026-09-01 14:00:02 | 49.71653 | 8.36189 | 33° | 18km/h | 19103m | 5.0m/s | 0°C | 0% | 0hPa | 0V | 00:00:00 | 00:00:00 | 00:00:00 | |
| DB0UT-7 | 2026-09-01 14:00:01 | 49.71647 | 8.36184 | 20° | 18km/h | 19088m | 4.5m/s | 0°C | 0% | 0hPa | 0V | 00:00:00 | 00:00:00 | 00:00:00 | |
| DM0DOS-11 | 2026-09-01 14:00:00 | 49.71614 | 8.36161 | 12° | 20km/h | 19069m | 4.4m/s | 0°C | 0% | 0hPa | 0V | 00:00:00 | 00:00:00 | 00:00:00 | |
| DL1XH-west | 2026-09-01 14:00:00 | 49.71636 | 8.36176 | 32° | 22km/h | 19093m | 5.7m/s | -51°C | 0% | 0hPa | 4.7V | 00:00:00 | 00:00:00 | 00:00:00 | |
| HEMX73-11 | 2026-09-01 13:59:59 | 49.71636 | 8.36176 | 33° | 22km/h | 19093m | 5.7m/s | -51.0°C | 0% | 0hPa | 4.7V | 00:00:00 | 00:00:00 | 00:00:00 | |
| BIOWL1-15 | 2026-09-01 13:59:58 | 49.71626 | 8.36167 | 25° | 26km/h | 19083m | 5.3m/s | -50.9°C | 0% | 0hPa | 4.7V | 00:00:00 | 00:00:00 | 00:00:00 | |
| DO3MHA-11 | 2026-09-01 13:59:57 | 49.71626 | 8.36167 | 26° | 20km/h | 19079m | 3.1m/s | 0°C | 0% | 0hPa | 4.7V | 00:00:00 | 00:00:00 | 00:00:00 | |
| AM1SDL-15 | 2026-09-01 13:59:54 | 49.71610 | 8.36160 | 23° | 20km/h | 19065m | 4.5m/s | 0°C | 0% | 0hPa | 4.7V | 00:00:00 | 00:00:00 | 00:00:00 | |
| DO3DL | 2026-09-01 13:59:53 | 49.71606 | 8.36157 | 23° | 16km/h | 19065m | 4.5m/s | -50.8°C | 0% | 0hPa | 4.7V | 00:00:00 | 00:00:00 | 00:00:00 | |
| DK7TD | 2026-09-01 13:59:52 | 49.71596 | 8.36150 | 24° | 27km/h | 19055m | 4m/s | -50.7°C | 0% | 0hPa | 4.7V | 00:00:00 | 00:00:00 | 00:00:00 | |
| DN1GJH-1 | 2026-09-01 13:59:50 | 49.71590 | 8.36146 | 27° | 22km/h | 19050m | 5.8m/s | -50.7°C | 0% | 0hPa | 4.7V | 00:00:00 | 00:00:00 | 00:00:00 | |
| DL1XH-west | 2026-09-01 13:59:49 | 49.71586 | 8.36143 | 27° | 18km/h | 19045m | 4m/s | -50.7°C | 0% | 0hPa | 4.7V | 00:00:00 | 00:00:00 | 00:00:00 | |
| BIOWL1-15 | 2026-09-01 13:59:49 | 49.71572 | 8.36133 | 15° | 22km/h | 19032m | 3.3m/s | -50.6°C | 0% | 0hPa | 4.7V | 00:00:00 | 00:00:00 | 00:00:00 | |
| CB1BUN | 2026-09-01 13:59:49 | 49.71582 | 8.36139 | 26° | 18km/h | 19041m | 4.7m/s | -50.6°C | 0% | 0hPa | 0V | 00:00:00 | 00:00:00 | 00:00:00 | |
| DO3DL | 2026-09-01 13:59:47 | 49.71572 | 8.36133 | 16° | 22km/h | 19032m | 3.3m/s | -50.6°C | 0% | 0hPa | 0V | 00:00:00 | 00:00:00 | 00:00:00 | |
| DL1NUX | 2026-09-01 13:59:43 | 49.71541 | 8.36123 | 23° | 16km/h | 18989m | 3.9m/s | 0°C | 0% | 0hPa | 0V | 00:00:00 | 00:00:00 | 00:00:00 | |
| DF2AP-13 | 2026-09-01 13:59:43 | 49.71559 | 8.36134 | 22° | 13km/h | 18998m | 3.9m/s | 0°C | 0% | 0hPa | 4.7V | 00:00:00 | 00:00:00 | 00:00:00 | |
| AM1SDL-15 | 2026-09-01 13:59:42 | 49.71555 | 8.36129 | 178° | 11km/h | 19007m | 5.5m/s | 0°C | 0% | 0hPa | 4.7V | 00:00:00 | 00:00:00 | 00:00:00 | |
| DK7TD | 2026-09-01 13:59:42 | 49.71550 | 8.36127 | 15° | 16km/h | 19007m | 5.6m/s | -50.5°C | 0% | 0hPa | 4.7V | 00:00:00 | 00:00:00 | 00:00:00 | |
| DO3DL | 2026-09-01 13:59:40 | 49.71547 | 8.36126 | 19° | 11km/h | 19002m | 4.6m/s | -50.4°C | 0% | 0hPa | 4.7V | 00:00:00 | 00:00:00 | 00:00:00 | |
| DL1XH-west | 2026-09-01 13:59:39 | 49.71541 | 8.36123 | 23° | 16km/h | 18993m | 5.1m/s | -50.3°C | 0% | 0hPa | 4.7V | 00:00:00 | 00:00:00 | 00:00:00 | |
| NBG1-10 | 2026-09-01 13:59:39 | 49.71544 | 8.36126 | 24° | 13km/h | 18994m | 5.1m/s | 0°C | 0% | 0hPa | 4.7V | 00:00:00 | 00:00:00 | 00:00:00 | |
| BIOWL1-15 | 2026-09-01 13:59:38 | 49.71532 | 8.36117 | 23° | 16km/h | 18984m | 6m/s | -50.3°C | 0% | 0hPa | 4.7V | 00:00:00 | 00:00:00 | 00:00:00 | |
| SO1NDE-10 | 2026-09-01 13:59:37 | 49.71536 | 8.36119 | 23° | 13km/h | 18984m | 5.9m/s | 0°C | 0% | 0hPa | 0V | 00:00:00 | 00:00:00 | 00:00:00 | |
| DO3DL | 2026-09-01 13:59:33 | 49.71523 | 8.36112 | 16° | 15km/h | 18969m | 3.8m/s | -50.3°C | 0% | 0hPa | 0V | 00:00:00 | 00:00:00 | 00:00:00 | |
| OE3JTB-15 | 2026-09-01 13:59:31 | 49.71518 | 8.36110 | 33° | 11km/h | 18945m | 3.7m/s | 0°C | 0% | 0hPa | 0V | 00:00:00 | 00:00:00 | 00:00:00 | |
| DM0DOS-11 | 2026-09-01 13:59:30 | 49.71498 | 8.36098 | 42° | 7km/h | 18925m | 4.3m/s | 0°C | 0% | 0hPa | 0V | 00:00:00 | 00:00:00 | 00:00:00 | |
| DK7TD | 2026-09-01 13:59:30 | 49.71512 | 8.36104 | 25° | 18km/h | 18950m | 5.4m/s | -50.3°C | 0% | 0hPa | 4.7V | 00:00:00 | 00:00:00 | 00:00:00 | |
| DN1GJH-1 | 2026-09-01 13:59:29 | 49.71512 | 8.36104 | 26° | 18km/h | 18950m | 5.4m/s | -50.3°C | 0% | 0hPa | 4.7V | 00:00:00 | 00:00:00 | 00:00:00 | |
| DL1XH-west | 2026-09-01 13:59:28 | 49.71503 | 8.36099 | 11° | 15km/h | 18940m | 5.9m/s | -50.3°C | 0% | 0hPa | 4.7V | 00:00:00 | 00:00:00 | 00:00:00 | |
| DO3MHA-11 | 2026-09-01 13:59:27 | 49.71503 | 8.36099 | 11° | 11km/h | 18935m | 4.3m/s | 0°C | 0% | 0hPa | 4.7V | 00:00:00 | 00:00:00 | 00:00:00 | |
| BEGRI65-1 | 2026-09-01 13:59:26 | 49.71500 | 8.36099 | 21° | 9km/h | 18935m | 4.4m/s | -50.3°C | 0% | 0hPa | 4.7V | 00:00:00 | 00:00:00 | 00:00:00 | |
| BIOWL1-15 | 2026-09-01 13:59:25 | 49.71498 | 8.36098 | 42° | 7km/h | 18930m | 5.8m/s | -50.3°C | 0% | 0hPa | 4.7V | 00:00:00 | 00:00:00 | 00:00:00 | |
| DJ3KS | 2026-09-01 13:59:25 | 49.71498 | 8.36098 | 43° | 7km/h | 18930m | 5.8m/s | 0°C | 0% | 0hPa | 4.7V | 00:00:00 | 00:00:00 | 00:00:00 | |
| AM1SDL-15 | 2026-09-01 13:59:21 | 49.71494 | 8.36086 | 27° | 11km/h | 18901m | 4.2m/s | 0°C | 0% | 0hPa | 4.7V | 00:00:00 | 00:00:00 | 00:00:00 | |
| DK7TD | 2026-09-01 13:59:20 | 49.71488 | 8.36083 | 21° | 15km/h | 18901m | 4.2m/s | -50.5°C | 0% | 0hPa | 4.7V | 00:00:00 | 00:00:00 | 00:00:00 | |
| DM0DOS-11 | 2026-09-01 13:59:19 | 49.71487 | 8.36066 | 123° | 11km/h | 18872m | 4.6m/s | 0°C | 0% | 0hPa | 0V | 00:00:00 | 00:00:00 | 00:00:00 | |
| HEMX73-11 | 2026-09-01 13:59:18 | 49.71485 | 8.36081 | 69° | 7km/h | 18896m | 4.6m/s | -50.5°C | 0% | 0hPa | 4.7V | 00:00:00 | 00:00:00 | 00:00:00 | |
| DL1XH-west | 2026-09-01 13:59:17 | 49.71485 | 8.36075 | 109° | 13km/h | 18886m | 5.7m/s | -50.5°C | 0% | 0hPa | 4.7V | 00:00:00 | 00:00:00 | 00:00:00 | |
| DF1GD-15 | 2026-09-01 13:59:16 | 49.71485 | 8.36075 | 110° | 13km/h | 18887m | 5.7m/s | -50.5°C | 0% | 0hPa | 4.7V | 00:00:00 | 00:00:00 | 00:00:00 | |
| BIOWL1-15 | 2026-09-01 13:59:15 | 49.71487 | 8.36066 | 123° | 11km/h | 18877m | 5.7m/s | -50.7°C | 0% | 0hPa | 4.7V | 00:00:00 | 00:00:00 | 00:00:00 | |
| DO3DL | 2026-09-01 13:59:14 | 49.71487 | 8.36066 | 124° | 11km/h | 18877m | 5.7m/s | -50.7°C | 0% | 0hPa | 0V | 00:00:00 | 00:00:00 | 00:00:00 | |
| DL1NUX | 2026-09-01 13:59:13 | 49.71489 | 8.36047 | 121° | 20km/h | 18843m | 5.1m/s | 0°C | 0% | 0hPa | 0V | 00:00:00 | 00:00:00 | 00:00:00 | |
| DF2AP-13 | 2026-09-01 13:59:13 | 49.71488 | 8.36065 | 60° | 16km/h | 18867m | 5.6m/s | 0°C | 0% | 0hPa | 0V | 00:00:00 | 00:00:00 | 00:00:00 | |
| DM0DOS-11 | 2026-09-01 13:59:09 | 49.71497 | 8.36019 | 110° | 16km/h | 18824m | 5.6m/s | 0°C | 0% | 0hPa | 0V | 00:00:00 | 00:00:00 | 00:00:00 | |
| DJTTGO | 2026-09-01 13:59:08 | 49.71491 | 8.36040 | 115° | 22km/h | 18843m | 5.1m/s | -50.6°C | 0% | 0hPa | 4.7V | 00:00:00 | 00:00:00 | 00:00:00 | |
| DL1XH-west | 2026-09-01 13:59:07 | 49.71493 | 8.36033 | 110° | 20km/h | 18838m | 4m/s | -50.6°C | 0% | 0hPa | 4.7V | 00:00:00 | 00:00:00 | 00:00:00 | |
| BIOWL1-15 | 2026-09-01 13:59:06 | 49.71499 | 8.36014 | 111° | 16km/h | 18824m | 5.6m/s | -50.5°C | 0% | 0hPa | 4.7V | 00:00:00 | 00:00:00 | 00:00:00 | |
| DF3TZ-5 | 2026-09-01 13:59:04 | 49.71499 | 8.36014 | 110° | 15km/h | 18824m | 5.6m/s | -50.5°C | -1.0% | -1.0hPa | 0V | 00:00:00 | 00:00:00 | 00:00:00 | |
| DL1NUX | 2026-09-01 13:59:03 | 49.71506 | 8.35990 | 118° | 18km/h | 18794m | 4.6m/s | 0°C | 0% | 0hPa | 0V | 00:00:00 | 00:00:00 | 00:00:00 | |
| OE3JTB-15 | 2026-09-01 13:59:02 | 49.71499 | 8.36008 | 103° | 22km/h | 18819m | 4.1m/s | 0°C | 0% | 0hPa | 4.7V | 00:00:00 | 00:00:00 | 00:00:00 | |
| DB0UT-7 | 2026-09-01 13:59:01 | 49.71500 | 8.36003 | 113° | 24km/h | 18809m | 4.6m/s | 0°C | 0% | 0hPa | 4.7V | 00:00:00 | 00:00:00 | 00:00:00 | |
| DB0NH | 2026-09-01 13:58:58 | 49.71506 | 8.35990 | 119° | 26km/h | 18794m | 4.5m/s | 0°C | 0% | 0hPa | 4.7V | 00:00:00 | 00:00:00 | 00:00:00 | |
| DO3MHA-11 | 2026-09-01 13:58:57 | 49.71508 | 8.35983 | 119° | 20km/h | 18789m | 5.1m/s | 0°C | 0% | 0hPa | 4.7V | 00:00:00 | 00:00:00 | 00:00:00 | |
| AM1SDL-15 | 2026-09-01 13:58:56 | 49.71510 | 8.35979 | 109° | 22km/h | 18780m | 5.7m/s | 0°C | 0% | 0hPa | 4.7V | 00:00:00 | 00:00:00 | 00:00:00 | |
| DL1XH-west | 2026-09-01 13:58:55 | 49.71513 | 8.35970 | 119° | 20km/h | 18784m | 3.9m/s | -50.1°C | 0% | 0hPa | 4.7V | 00:00:00 | 00:00:00 | 00:00:00 | |
| BIOWL1-15 | 2026-09-01 13:58:54 | 49.71516 | 8.35955 | 97° | 22km/h | 18774m | 4.5m/s | -50.1°C | 0% | 0hPa | 4.7V | 00:00:00 | 00:00:00 | 00:00:00 | |
| DL1NUX | 2026-09-01 13:58:53 | 49.71525 | 8.35921 | 108° | 22km/h | 18745m | 5.7m/s | 0°C | 0% | 0hPa | 0V | 00:00:00 | 00:00:00 | 00:00:00 | |
| DM0DOS-11 | 2026-09-01 13:58:49 | 49.71531 | 8.35884 | 91° | 26km/h | 18725m | 5.3m/s | 0°C | 0% | 0hPa | 0V | 00:00:00 | 00:00:00 | 00:00:00 | |
| DD1CC2-15 | 2026-09-01 13:58:48 | 49.71525 | 8.35921 | 109° | 22km/h | 18745m | 5.7m/s | 0°C | 0% | 0hPa | 4.7V | 00:00:00 | 00:00:00 | 00:00:00 | |
| DO3MHA-11 | 2026-09-01 13:58:47 | 49.71527 | 8.35913 | 111° | 24km/h | 18740m | 4.0m/s | 0°C | 0% | 0hPa | 4.7V | 00:00:00 | 00:00:00 | 00:00:00 | |
| DL1XH-west | 2026-09-01 13:58:44 | 49.71531 | 8.35885 | 91° | 26km/h | 18730m | 4.5m/s | -50°C | 0% | 0hPa | 4.7V | 00:00:00 | 00:00:00 | 00:00:00 | |
| AM1SDL-15 | 2026-09-01 13:58:44 | 49.71531 | 8.35884 | 92° | 27km/h | 18725m | 5.2m/s | 0°C | 0% | 0hPa | 0V | 00:00:00 | 00:00:00 | 00:00:00 | |
| DL1NUX | 2026-09-01 13:58:43 | 49.71545 | 8.35834 | 108° | 35km/h | 18696m | 4m/s | 0°C | 0% | 0hPa | 0V | 00:00:00 | 00:00:00 | 00:00:00 | |
| BIOWL1-15 | 2026-09-01 13:58:43 | 49.71534 | 8.35869 | 126° | 18km/h | 18720m | 5.2m/s | -50.1°C | 0% | 0hPa | 4.7V | 00:00:00 | 00:00:00 | 00:00:00 | |
| DO3DL | 2026-09-01 13:58:42 | 49.71534 | 8.35869 | 127° | 18km/h | 18720m | 5.2m/s | -50.1°C | 0% | 0hPa | 0V | 00:00:00 | 00:00:00 | 00:00:00 | |
| DJ3KS | 2026-09-01 13:58:40 | 49.71540 | 8.35856 | 119° | 24km/h | 18710m | 4.8m/s | 0°C | 0% | 0hPa | 0V | 00:00:00 | 00:00:00 | 00:00:00 | |
| DM0DOS-11 | 2026-09-01 13:58:39 | 49.71550 | 8.35784 | 107° | 26km/h | 18676m | 4.8m/s | 0°C | 0% | 0hPa | 0V | 00:00:00 | 00:00:00 | 00:00:00 | |
| DO3DL | 2026-09-01 13:58:36 | 49.71550 | 8.35795 | 87° | 31km/h | 18686m | 4.7m/s | -50.2°C | 0% | 0hPa | 4.6V | 00:00:00 | 00:00:00 | 00:00:00 | |
| DF1GD-15 | 2026-09-01 13:58:35 | 49.71550 | 8.35795 | 87° | 31km/h | 18686m | 4.7m/s | -50.2°C | 0% | 0hPa | 4.6V | 00:00:00 | 00:00:00 | 00:00:00 | |
| DL1XH-west | 2026-09-01 13:58:34 | 49.71550 | 8.35776 | 108° | 22km/h | 18676m | 4.8m/s | -50.1°C | 0% | 0hPa | 4.6V | 00:00:00 | 00:00:00 | 00:00:00 | |
| BIOWL1-15 | 2026-09-01 13:58:34 | 49.71554 | 8.35757 | 106° | 29km/h | 18666m | 6.1m/s | -50.1°C | 0% | 0hPa | 4.6V | 00:00:00 | 00:00:00 | 00:00:00 | |
| NBG1-10 | 2026-09-01 13:58:33 | 49.71550 | 8.35776 | 108° | 38km/h | 18671m | 4.3m/s | 0°C | 0% | 0hPa | 0V | 00:00:00 | 00:00:00 | 00:00:00 | |
| DL1NUX | 2026-09-01 13:58:33 | 49.71560 | 8.35714 | 97° | 40km/h | 18646m | 6m/s | 0°C | 0% | 0hPa | 0V | 00:00:00 | 00:00:00 | 00:00:00 | |
| AM1SDL-15 | 2026-09-01 13:58:32 | 49.71552 | 8.35767 | 113° | 38km/h | 18671m | 4.3m/s | 0°C | 0% | 0hPa | 0V | 00:00:00 | 00:00:00 | 00:00:00 | |
| DB0UT-7 | 2026-09-01 13:58:31 | 49.71554 | 8.35757 | 106° | 38km/h | 18646m | 5.9m/s | 0°C | 0% | 0hPa | 0V | 00:00:00 | 00:00:00 | 00:00:00 | |
| DM0DOS-11 | 2026-09-01 13:58:29 | 49.71563 | 8.35661 | 103° | 31km/h | 18627m | 4m/s | 0°C | 0% | 0hPa | 0V | 00:00:00 | 00:00:00 | 00:00:00 | |
| DB0NH | 2026-09-01 13:58:28 | 49.71559 | 8.35714 | 98° | 38km/h | 18646m | 5.9m/s | 0°C | 0% | 0hPa | 0V | 00:00:00 | 00:00:00 | 00:00:00 | |
| CB1BUN | 2026-09-01 13:58:27 | 49.71561 | 8.35686 | 89° | 35km/h | 18641m | 4.7m/s | -50.2°C | 0% | 0hPa | 0V | 00:00:00 | 00:00:00 | 00:00:00 | |
| DL1NUX | 2026-09-01 13:58:23 | 49.71572 | 8.35560 | 92° | 46km/h | 18598m | 3.5m/s | 0°C | 0% | 0hPa | 0V | 00:00:00 | 00:00:00 | 00:00:00 | |
| DL1XH-west | 2026-09-01 13:58:23 | 49.71567 | 8.35634 | 99° | 42km/h | 18622m | 5.7m/s | -50.6°C | 0% | 0hPa | 4.6V | 00:00:00 | 00:00:00 | 00:00:00 | |
| BIOWL1-15 | 2026-09-01 13:58:21 | 49.71570 | 8.35597 | 97° | 51km/h | 18612m | 5.4m/s | -51°C | 0% | 0hPa | 4.6V | 00:00:00 | 00:00:00 | 00:00:00 | |
| DM0DOS-11 | 2026-09-01 13:58:19 | 49.71574 | 8.35496 | 93° | 42km/h | 18579m | 4.2m/s | 0°C | 0% | 0hPa | 0V | 00:00:00 | 00:00:00 | 00:00:00 | |
| DO3MHA-11 | 2026-09-01 13:58:17 | 49.71572 | 8.35543 | 94° | 38km/h | 18593m | 5.5m/s | 0°C | 0% | 0hPa | 0V | 00:00:00 | 00:00:00 | 00:00:00 | |
| DF1GD-15 | 2026-09-01 13:58:15 | 49.71573 | 8.35512 | 98° | 40km/h | 18589m | 4.1m/s | -51.4°C | 0% | 0hPa | 0V | 00:00:00 | 00:00:00 | 00:00:00 | |
| DO3DL | 2026-09-01 13:58:14 | 49.71574 | 8.35496 | 94° | 42km/h | 18584m | 5.9m/s | -51.3°C | 0% | 0hPa | 0V | 00:00:00 | 00:00:00 | 00:00:00 | |
| DL1NUX | 2026-09-01 13:58:13 | 49.71576 | 8.35406 | 100° | 31km/h | 18550m | 4.2m/s | 0°C | 0% | 0hPa | 0V | 00:00:00 | 00:00:00 | 00:00:00 | |
| DL1XH-west | 2026-09-01 13:58:13 | 49.71575 | 8.35462 | 94° | 42km/h | 18574m | 5.4m/s | -51.4°C | 0% | 0hPa | 4.7V | 00:00:00 | 00:00:00 | 00:00:00 | |
| DF2AP-13 | 2026-09-01 13:58:13 | 49.71575 | 8.35471 | 90° | 31km/h | 18569m | 4.0m/s | 0°C | 0% | 0hPa | 0V | 00:00:00 | 00:00:00 | 00:00:00 | |
| BIOWL1-15 | 2026-09-01 13:58:12 | 49.71576 | 8.35432 | 89° | 37km/h | 18564m | 5.7m/s | -51.3°C | 0% | 0hPa | 4.7V | 00:00:00 | 00:00:00 | 00:00:00 | |
| DD1CC2-15 | 2026-09-01 13:58:11 | 49.71576 | 8.35431 | 90° | 37km/h | 18564m | 5.7m/s | 0°C | 0% | 0hPa | 0V | 00:00:00 | 00:00:00 | 00:00:00 | |
| DM0DOS-11 | 2026-09-01 13:58:09 | 49.71578 | 8.35349 | 91° | 40km/h | 18531m | 4.7m/s | 0°C | 0% | 0hPa | 0V | 00:00:00 | 00:00:00 | 00:00:00 | |
| DO3MHA-11 | 2026-09-01 13:58:07 | 49.71576 | 8.35393 | 101° | 33km/h | 18546m | 4.8m/s | 0°C | 0% | 0hPa | 4.7V | 00:00:00 | 00:00:00 | 00:00:00 | |
| CB1BUN | 2026-09-01 13:58:05 | 49.71578 | 8.35367 | 91° | 37km/h | 18541m | 4.7m/s | -51.4°C | 0% | 0hPa | 4.7V | 00:00:00 | 00:00:00 | 00:00:00 | |
| DL1XH-west | 2026-09-01 13:58:02 | 49.71578 | 8.35307 | 84° | 35km/h | 18522m | 5.9m/s | -51.5°C | 0% | 0hPa | 4.7V | 00:00:00 | 00:00:00 | 00:00:00 | |
| OE3JTB-15 | 2026-09-01 13:58:01 | 49.71578 | 8.35307 | 85° | 35km/h | 18517m | 3.8m/s | 0°C | 0% | 0hPa | 4.7V | 00:00:00 | 00:00:00 | 00:00:00 | |
| BIOWL1-15 | 2026-09-01 13:58:00 | 49.71576 | 8.35284 | 83° | 26km/h | 18512m | 6.5m/s | -51.5°C | 0% | 0hPa | 4.7V | 00:00:00 | 00:00:00 | 00:00:00 | |
| NBG1-10 | 2026-09-01 13:58:00 | 49.71577 | 8.35293 | 84° | 33km/h | 18512m | 6.5m/s | 0°C | 0% | 0hPa | 0V | 00:00:00 | 00:00:00 | 00:00:00 | |
| DM0DOS-11 | 2026-09-01 13:57:59 | 49.71574 | 8.35235 | 89° | 33km/h | 18484m | 4.9m/s | 0°C | 0% | 0hPa | 0V | 00:00:00 | 00:00:00 | 00:00:00 | |
| AM1SDL-15 | 2026-09-01 13:57:59 | 49.71576 | 8.35284 | 84° | 29km/h | 18507m | 3.7m/s | 0°C | 0% | 0hPa | 0V | 00:00:00 | 00:00:00 | 00:00:00 | |
| DB0NH | 2026-09-01 13:57:58 | 49.71576 | 8.35275 | 93° | 33km/h | 18503m | 5.1m/s | 0°C | 0% | 0hPa | 0V | 00:00:00 | 00:00:00 | 00:00:00 | |
| DO3MHA-11 | 2026-09-01 13:57:57 | 49.71576 | 8.35267 | 89° | 29km/h | 18498m | 4.7m/s | 0°C | 0% | 0hPa | 0V | 00:00:00 | 00:00:00 | 00:00:00 | |
| HEMX73-11 | 2026-09-01 13:57:56 | 49.71575 | 8.35258 | 82° | 24km/h | 18498m | 4.7m/s | -51.5°C | 0% | 0hPa | 0V | 00:00:00 | 00:00:00 | 00:00:00 | |
| DO3DL | 2026-09-01 13:57:55 | 49.71574 | 8.35235 | 90° | 33km/h | 18489m | 4.8m/s | -51.7°C | 0% | 0hPa | 0V | 00:00:00 | 00:00:00 | 00:00:00 | |
| DF1GD-15 | 2026-09-01 13:57:54 | 49.71574 | 8.35235 | 90° | 33km/h | 18489m | 4.8m/s | -51.7°C | 0% | 0hPa | 0V | 00:00:00 | 00:00:00 | 00:00:00 | |
| DL1NUX | 2026-09-01 13:57:53 | 49.71574 | 8.35162 | 78° | 29km/h | 18455m | 3.9m/s | 0°C | 0% | 0hPa | 0V | 00:00:00 | 00:00:00 | 00:00:00 | |
| BIOWL1-15 | 2026-09-01 13:57:51 | 49.71574 | 8.35162 | 79° | 29km/h | 18460m | 5.4m/s | -52°C | 0% | 0hPa | 4.7V | 00:00:00 | 00:00:00 | 00:00:00 | |
| DL1XH-west | 2026-09-01 13:57:51 | 49.71575 | 8.35184 | 87° | 29km/h | 18469m | 5.8m/s | -51.9°C | 0% | 0hPa | 4.7V | 00:00:00 | 00:00:00 | 00:00:00 | |
| DM0DOS-11 | 2026-09-01 13:57:49 | 49.71567 | 8.35117 | 83° | 27km/h | 18436m | 4.3m/s | 0°C | 0% | 0hPa | 0V | 00:00:00 | 00:00:00 | 00:00:00 | |
| DO3DL | 2026-09-01 13:57:48 | 49.71573 | 8.35162 | 80° | 29km/h | 18460m | 5.4m/s | -52.0°C | 0% | 0hPa | 4.7V | 00:00:00 | 00:00:00 | 00:00:00 | |
| DO3MHA-11 | 2026-09-01 13:57:47 | 49.71571 | 8.35150 | 74° | 33km/h | 18450m | 5.6m/s | 0°C | 0% | 0hPa | 4.7V | 00:00:00 | 00:00:00 | 00:00:00 | |
| DJ3KS | 2026-09-01 13:57:46 | 49.71569 | 8.35139 | 74° | 29km/h | 18450m | 5.6m/s | 0°C | 0% | 0hPa | 4.7V | 00:00:00 | 00:00:00 | 00:00:00 | |
| CB1BUN | 2026-09-01 13:57:45 | 49.71568 | 8.35128 | 84° | 27km/h | 18445m | 4.3m/s | -51.9°C | 0% | 0hPa | 4.7V | 00:00:00 | 00:00:00 | 00:00:00 | |
| DO3DL | 2026-09-01 13:57:42 | 49.71564 | 8.35083 | 89° | 33km/h | 18427m | 5.1m/s | -51.7°C | 0% | 0hPa | 4.7V | 00:00:00 | 00:00:00 | 00:00:00 | |
| DL1XH-west | 2026-09-01 13:57:40 | 49.71561 | 8.35055 | 76° | 42km/h | 18418m | 5.5m/s | -51.7°C | 0% | 0hPa | 4.7V | 00:00:00 | 00:00:00 | 00:00:00 | |
| DM0DOS-11 | 2026-09-01 13:57:39 | 49.71553 | 8.34984 | 82° | 33km/h | 18389m | 4.5m/s | 0°C | 0% | 0hPa | 0V | 00:00:00 | 00:00:00 | 00:00:00 | |
| BIOWL1-15 | 2026-09-01 13:57:38 | 49.71556 | 8.35023 | 78° | 40km/h | 18408m | 5.6m/s | -51.7°C | 0% | 0hPa | 4.7V | 00:00:00 | 00:00:00 | 00:00:00 | |
| DO3MHA-11 | 2026-09-01 13:57:37 | 49.71556 | 8.35023 | 79° | 37km/h | 18394m | 4.3m/s | 0°C | 0% | 0hPa | 4.7V | 00:00:00 | 00:00:00 | 00:00:00 | |
| HEMX73-11 | 2026-09-01 13:57:36 | 49.71555 | 8.35008 | 87° | 35km/h | 18404m | 4.0m/s | -51.7°C | 0% | 0hPa | 4.7V | 00:00:00 | 00:00:00 | 00:00:00 | |
| AM1SDL-15 | 2026-09-01 13:57:35 | 49.71554 | 8.34995 | 85° | 40km/h | 18394m | 4.3m/s | 0°C | 0% | 0hPa | 4.7V | 00:00:00 | 00:00:00 | 00:00:00 | |
| DF1GD-15 | 2026-09-01 13:57:34 | 49.71553 | 8.34983 | 80° | 33km/h | 18394m | 4.3m/s | -51.7°C | 0% | 0hPa | 4.7V | 00:00:00 | 00:00:00 | 00:00:00 | |
| DB0UT-7 | 2026-09-01 13:57:30 | 49.71550 | 8.34922 | 83° | 40km/h | 18372m | 4.0m/s | 0°C | 0% | 0hPa | 4.7V | 00:00:00 | 00:00:00 | 00:00:00 | |
| DL1XH-west | 2026-09-01 13:57:29 | 49.71548 | 8.34907 | 75° | 40km/h | 18372m | 4.1m/s | -52°C | 0% | 0hPa | 4.7V | 00:00:00 | 00:00:00 | 00:00:00 | |
| DM0DOS-11 | 2026-09-01 13:57:29 | 49.71537 | 8.34833 | 81° | 49km/h | 18342m | 4.7m/s | 0°C | 0% | 0hPa | 0V | 00:00:00 | 00:00:00 | 00:00:00 | |
| DB0NH | 2026-09-01 13:57:28 | 49.71545 | 8.34892 | 76° | 40km/h | 18362m | 4.1m/s | 0°C | 0% | 0hPa | 0V | 00:00:00 | 00:00:00 | 00:00:00 | |
| BIOWL1-15 | 2026-09-01 13:57:27 | 49.71543 | 8.34879 | 81° | 35km/h | 18362m | 4.2m/s | -52.1°C | 0% | 0hPa | 4.7V | 00:00:00 | 00:00:00 | 00:00:00 | |
| NBG1-10 | 2026-09-01 13:57:27 | 49.71543 | 8.34879 | 81° | 42km/h | 18357m | 5.3m/s | 0°C | 0% | 0hPa | 0V | 00:00:00 | 00:00:00 | 00:00:00 | |
| DO3MHA-11 | 2026-09-01 13:57:26 | 49.71542 | 8.34866 | 78° | 44km/h | 18353m | 4.0m/s | 0°C | 0% | 0hPa | 0V | 00:00:00 | 00:00:00 | 00:00:00 | |
| BEGRI65-1 | 2026-09-01 13:57:25 | 49.71537 | 8.34833 | 82° | 49km/h | 18348m | 5.4m/s | -52.1°C | 0% | 0hPa | 0V | 00:00:00 | 00:00:00 | 00:00:00 | |
| CB1BUN | 2026-09-01 13:57:24 | 49.71537 | 8.34833 | 82° | 49km/h | 18348m | 5.4m/s | -52.1°C | 0% | 0hPa | 0V | 00:00:00 | 00:00:00 | 00:00:00 | |
| DL1NUX | 2026-09-01 13:57:23 | 49.71525 | 8.34724 | 66° | 33km/h | 18314m | 4.2m/s | 0°C | 0% | 0hPa | 0V | 00:00:00 | 00:00:00 | 00:00:00 | |
| AM1SDL-15 | 2026-09-01 13:57:23 | 49.71536 | 8.34812 | 85° | 57km/h | 18338m | 4.5m/s | 0°C | 0% | 0hPa | 0V | 00:00:00 | 00:00:00 | 00:00:00 | |
| DO3DL | 2026-09-01 13:57:22 | 49.71534 | 8.34791 | 86° | 57km/h | 18338m | 4.5m/s | -52.1°C | 0% | 0hPa | 0V | 00:00:00 | 00:00:00 | 00:00:00 | |
| DJTTGO | 2026-09-01 13:57:20 | 49.71530 | 8.34751 | 78° | 44km/h | 18329m | 5.1m/s | -52.1°C | 0% | 0hPa | 0V | 00:00:00 | 00:00:00 | 00:00:00 | |
| DM0DOS-11 | 2026-09-01 13:57:19 | 49.71512 | 8.34661 | 81° | 53km/h | 18295m | 4.3m/s | 0°C | 0% | 0hPa | 0V | 00:00:00 | 00:00:00 | 00:00:00 | |
| DL1XH-west | 2026-09-01 13:57:19 | 49.71525 | 8.34724 | 66° | 33km/h | 18319m | 5m/s | -52.1°C | 0% | 0hPa | 4.7V | 00:00:00 | 00:00:00 | 00:00:00 | |
| THATR2-17 | 2026-09-01 13:57:18 | 49.71486 | 8.34560 | 64° | 33km/h | 18267m | 0m/s | 0°C | 0% | 0hPa | 4.7V | 00:00:00 | 00:00:00 | 00:00:00 | |
| BIOWL1-15 | 2026-09-01 13:57:17 | 49.71517 | 8.34697 | 70° | 42km/h | 18309m | 5m/s | -52.2°C | 0% | 0hPa | 4.7V | 00:00:00 | 00:00:00 | 00:00:00 | |
| HEMX73-11 | 2026-09-01 13:57:16 | 49.71514 | 8.34680 | 82° | 47km/h | 18304m | 4.9m/s | -52.3°C | 0% | 0hPa | 0V | 00:00:00 | 00:00:00 | 00:00:00 | |
| DO3DL | 2026-09-01 13:57:15 | 49.71514 | 8.34680 | 82° | 47km/h | 18304m | 4.9m/s | -52.3°C | 0% | 0hPa | 0V | 00:00:00 | 00:00:00 | 00:00:00 | |
| DL1NUX | 2026-09-01 13:57:13 | 49.71490 | 8.34573 | 64° | 33km/h | 18267m | 5.2m/s | 0°C | 0% | 0hPa | 0V | 00:00:00 | 00:00:00 | 00:00:00 | |
| DF2AP-13 | 2026-09-01 13:57:12 | 49.71506 | 8.34618 | 70° | 37km/h | 18286m | 5.6m/s | 0°C | 0% | 0hPa | 4.7V | 00:00:00 | 00:00:00 | 00:00:00 | |
| AM1SDL-15 | 2026-09-01 13:57:11 | 49.71502 | 8.34606 | 70° | 35km/h | 18281m | 4.7m/s | 0°C | 0% | 0hPa | 4.7V | 00:00:00 | 00:00:00 | 00:00:00 | |
| DO3DL | 2026-09-01 13:57:09 | 49.71495 | 8.34581 | 58° | 31km/h | 18276m | 5.8m/s | -52.3°C | 0% | 0hPa | 4.7V | 00:00:00 | 00:00:00 | 00:00:00 | |
| DL1XH-west | 2026-09-01 13:57:08 | 49.71486 | 8.34560 | 64° | 33km/h | 18267m | 5.2m/s | -52.2°C | 0% | 0hPa | 4.7V | 00:00:00 | 00:00:00 | 00:00:00 | |
| SO1NDE-10 | 2026-09-01 13:57:07 | 49.71486 | 8.34560 | 65° | 33km/h | 18262m | 4.0m/s | 0°C | 0% | 0hPa | 4.7V | 00:00:00 | 00:00:00 | 00:00:00 | |
| BIOWL1-15 | 2026-09-01 13:57:06 | 49.71480 | 8.34532 | 75° | 44km/h | 18257m | 5.9m/s | -52.1°C | 0% | 0hPa | 4.7V | 00:00:00 | 00:00:00 | 00:00:00 | |
| DO3MHA-11 | 2026-09-01 13:57:06 | 49.71483 | 8.34548 | 76° | 37km/h | 18257m | 5.9m/s | 0°C | 0% | 0hPa | 0V | 00:00:00 | 00:00:00 | 00:00:00 | |
| DD1CC2-15 | 2026-09-01 13:57:05 | 49.71480 | 8.34531 | 76° | 44km/h | 18257m | 5.9m/s | 0°C | 0% | 0hPa | 0V | 00:00:00 | 00:00:00 | 00:00:00 | |
| CB1BUN | 2026-09-01 13:57:04 | 49.71477 | 8.34515 | 73° | 47km/h | 18252m | 4.1m/s | -52.0°C | 0% | 0hPa | 0V | 00:00:00 | 00:00:00 | 00:00:00 | |
| DL1NUX | 2026-09-01 13:57:03 | 49.71457 | 8.34442 | 69° | 35km/h | 18220m | 4m/s | 0°C | 0% | 0hPa | 0V | 00:00:00 | 00:00:00 | 00:00:00 | |
| DO3DL | 2026-09-01 13:57:03 | 49.71471 | 8.34484 | 75° | 35km/h | 18243m | 4.8m/s | -52.0°C | 0% | 0hPa | 0V | 00:00:00 | 00:00:00 | 00:00:00 | |
| DB0UT-7 | 2026-09-01 13:57:00 | 49.71465 | 8.34463 | 56° | 31km/h | 18229m | 3.7m/s | 0°C | 0% | 0hPa | 0V | 00:00:00 | 00:00:00 | 00:00:00 | |
| DM0DOS-11 | 2026-09-01 13:56:59 | 49.71444 | 8.34382 | 72° | 37km/h | 18201m | 5m/s | 0°C | 0% | 0hPa | 0V | 00:00:00 | 00:00:00 | 00:00:00 | |
| DB0NH | 2026-09-01 13:56:58 | 49.71457 | 8.34442 | 70° | 31km/h | 18220m | 4.0m/s | 0°C | 0% | 0hPa | 4.7V | 00:00:00 | 00:00:00 | 00:00:00 | |
| BIOWL1-15 | 2026-09-01 13:56:57 | 49.71444 | 8.34382 | 72° | 37km/h | 18206m | 5.7m/s | -51.8°C | 0% | 0hPa | 4.7V | 00:00:00 | 00:00:00 | 00:00:00 | |
| DL1XH-west | 2026-09-01 13:56:57 | 49.71451 | 8.34412 | 72° | 44km/h | 18215m | 5.4m/s | -51.9°C | 0% | 0hPa | 4.7V | 00:00:00 | 00:00:00 | 00:00:00 | |
| AM1SDL-15 | 2026-09-01 13:56:57 | 49.71454 | 8.34427 | 73° | 37km/h | 18215m | 5.3m/s | 0°C | 0% | 0hPa | 0V | 00:00:00 | 00:00:00 | 00:00:00 | |
| DO3MHA-11 | 2026-09-01 13:56:56 | 49.71451 | 8.34412 | 73° | 33km/h | 18211m | 3.2m/s | 0°C | 0% | 0hPa | 0V | 00:00:00 | 00:00:00 | 00:00:00 | |
| HEMX73-11 | 2026-09-01 13:56:55 | 49.71448 | 8.34396 | 70° | 42km/h | 18211m | 3.3m/s | -51.8°C | 0% | 0hPa | 0V | 00:00:00 | 00:00:00 | 00:00:00 | |
| NBG1-10 | 2026-09-01 13:56:54 | 49.71444 | 8.34382 | 73° | 29km/h | 18196m | 4.6m/s | 0°C | 0% | 0hPa | 0V | 00:00:00 | 00:00:00 | 00:00:00 | |
| DL1NUX | 2026-09-01 13:56:53 | 49.71426 | 8.34322 | 69° | 37km/h | 18172m | 5.5m/s | 0°C | 0% | 0hPa | 0V | 00:00:00 | 00:00:00 | 00:00:00 | |
| DO3DL | 2026-09-01 13:56:50 | 49.71434 | 8.34344 | 52° | 29km/h | 18187m | 4.1m/s | -51.6°C | 0% | 0hPa | 0V | 00:00:00 | 00:00:00 | 00:00:00 | |
| DM0DOS-11 | 2026-09-01 13:56:49 | 49.71412 | 8.34271 | 68° | 26km/h | 18149m | 5.1m/s | 0°C | 0% | 0hPa | 0V | 00:00:00 | 00:00:00 | 00:00:00 | |
| DL1XH-west | 2026-09-01 13:56:46 | 49.71419 | 8.34295 | 63° | 38km/h | 18168m | 4.4m/s | -51.6°C | 0% | 0hPa | 4.7V | 00:00:00 | 00:00:00 | 00:00:00 | |
| DO3MHA-11 | 2026-09-01 13:56:46 | 49.71419 | 8.34295 | 63° | 29km/h | 18163m | 4.4m/s | 0°C | 0% | 0hPa | 4.7V | 00:00:00 | 00:00:00 | 00:00:00 | |
| AM1SDL-15 | 2026-09-01 13:56:45 | 49.71415 | 8.34282 | 65° | 27km/h | 18158m | 5.3m/s | 0°C | 0% | 0hPa | 4.7V | 00:00:00 | 00:00:00 | 00:00:00 | |
| BIOWL1-15 | 2026-09-01 13:56:44 | 49.71410 | 8.34263 | 69° | 22km/h | 18154m | 2.9m/s | -51.5°C | 0% | 0hPa | 4.7V | 00:00:00 | 00:00:00 | 00:00:00 | |
| CB1BUN | 2026-09-01 13:56:43 | 49.71410 | 8.34263 | 70° | 22km/h | 18154m | 2.9m/s | -51.5°C | 0% | 0hPa | 0V | 00:00:00 | 00:00:00 | 00:00:00 | |
| DL1NUX | 2026-09-01 13:56:42 | 49.71389 | 8.34206 | 58° | 29km/h | 18121m | 4.5m/s | 0°C | 0% | 0hPa | 0V | 00:00:00 | 00:00:00 | 00:00:00 | |
| DF2AP-13 | 2026-09-01 13:56:42 | 49.71408 | 8.34257 | 54° | 27km/h | 18145m | 4.1m/s | 0°C | 0% | 0hPa | 4.7V | 00:00:00 | 00:00:00 | 00:00:00 | |
| SO1NDE-10 | 2026-09-01 13:56:37 | 49.71388 | 8.34206 | 59° | 26km/h | 18121m | 4.4m/s | 0°C | 0% | 0hPa | 4.7V | 00:00:00 | 00:00:00 | 00:00:00 | |
| DO3MHA-11 | 2026-09-01 13:56:36 | 49.71385 | 8.34196 | 71° | 27km/h | 18116m | 4.8m/s | 0°C | 0% | 0hPa | 4.7V | 00:00:00 | 00:00:00 | 00:00:00 | |
| DL1XH-west | 2026-09-01 13:56:35 | 49.71382 | 8.34187 | 71° | 27km/h | 18116m | 4.9m/s | -51.4°C | 0% | 0hPa | 4.7V | 00:00:00 | 00:00:00 | 00:00:00 | |
| HEMX73-11 | 2026-09-01 13:56:35 | 49.71380 | 8.34177 | 70° | 26km/h | 18112m | 3.6m/s | -51.4°C | 0% | 0hPa | 4.7V | 00:00:00 | 00:00:00 | 00:00:00 | |
| BIOWL1-15 | 2026-09-01 13:56:34 | 49.71377 | 8.34168 | 57° | 27km/h | 18108m | 5.2m/s | -51.4°C | 0% | 0hPa | 4.7V | 00:00:00 | 00:00:00 | 00:00:00 | |
| AM1SDL-15 | 2026-09-01 13:56:33 | 49.71377 | 8.34168 | 57° | 27km/h | 18103m | 4.1m/s | 0°C | 0% | 0hPa | 0V | 00:00:00 | 00:00:00 | 00:00:00 | |
| DL1NUX | 2026-09-01 13:56:32 | 49.71350 | 8.34115 | 57° | 24km/h | 18075m | 5.4m/s | 0°C | 0% | 0hPa | 0V | 00:00:00 | 00:00:00 | 00:00:00 | |
| DO3DL | 2026-09-01 13:56:30 | 49.71363 | 8.34138 | 61° | 29km/h | 18093m | 3.5m/s | -51.4°C | 0% | 0hPa | 0V | 00:00:00 | 00:00:00 | 00:00:00 | |
| DM0DOS-11 | 2026-09-01 13:56:29 | 49.71342 | 8.34091 | 67° | 26km/h | 18060m | 4.3m/s | 0°C | 0% | 0hPa | 0V | 00:00:00 | 00:00:00 | 00:00:00 | |
| DB0NH | 2026-09-01 13:56:28 | 49.71355 | 8.34121 | 46° | 24km/h | 18080m | 3.9m/s | 0°C | 0% | 0hPa | 4.7V | 00:00:00 | 00:00:00 | 00:00:00 | |
| BIOWL1-15 | 2026-09-01 13:56:27 | 49.71335 | 8.34072 | 56° | 31km/h | 18056m | 5.1m/s | -51.4°C | 0% | 0hPa | 4.7V | 00:00:00 | 00:00:00 | 00:00:00 | |
| DO3MHA-11 | 2026-09-01 13:56:26 | 49.71347 | 8.34108 | 58° | 22km/h | 18071m | 4.0m/s | 0°C | 0% | 0hPa | 4.7V | 00:00:00 | 00:00:00 | 00:00:00 | |
| DL1XH-west | 2026-09-01 13:56:25 | 49.71342 | 8.34091 | 68° | 26km/h | 18065m | 5.7m/s | -51.4°C | 0% | 0hPa | 4.7V | 00:00:00 | 00:00:00 | 00:00:00 | |
| OE3JTB-15 | 2026-09-01 13:56:24 | 49.71342 | 8.34091 | 68° | 20km/h | 18037m | 5.0m/s | 0°C | 0% | 0hPa | 0V | 00:00:00 | 00:00:00 | 00:00:00 | |
| CB1BUN | 2026-09-01 13:56:23 | 49.71339 | 8.34081 | 58° | 31km/h | 18061m | 4.3m/s | -51.4°C | 0% | 0hPa | 0V | 00:00:00 | 00:00:00 | 00:00:00 | |
| DL1NUX | 2026-09-01 13:56:22 | 49.71318 | 8.34041 | 71° | 16km/h | 18028m | 4.6m/s | 0°C | 0% | 0hPa | 0V | 00:00:00 | 00:00:00 | 00:00:00 | |
| NBG1-10 | 2026-09-01 13:56:21 | 49.71330 | 8.34060 | 41° | 22km/h | 18047m | 5.2m/s | 0°C | 0% | 0hPa | 0V | 00:00:00 | 00:00:00 | 00:00:00 | |
| AM1SDL-15 | 2026-09-01 13:56:20 | 49.71327 | 8.34056 | 49° | 24km/h | 18042m | 4.3m/s | 0°C | 0% | 0hPa | 0V | 00:00:00 | 00:00:00 | 00:00:00 | |
| DM0DOS-11 | 2026-09-01 13:56:19 | 49.71310 | 8.34014 | 62° | 31km/h | 18014m | 5.3m/s | 0°C | 0% | 0hPa | 0V | 00:00:00 | 00:00:00 | 00:00:00 | |
| DO3DL | 2026-09-01 13:56:18 | 49.71317 | 8.34041 | 73° | 16km/h | 18033m | 4.4m/s | -51.5°C | 0% | 0hPa | 4.7V | 00:00:00 | 00:00:00 | 00:00:00 | |
| DO3MHA-11 | 2026-09-01 13:56:16 | 49.71316 | 8.34034 | 65° | 24km/h | 18023m | 4.9m/s | 0°C | 0% | 0hPa | 4.7V | 00:00:00 | 00:00:00 | 00:00:00 | |
| BIOWL1-15 | 2026-09-01 13:56:14 | 49.71299 | 8.33984 | 54° | 24km/h | 18005m | 5.9m/s | -51.5°C | 0% | 0hPa | 4.7V | 00:00:00 | 00:00:00 | 00:00:00 | |
| DL1XH-west | 2026-09-01 13:56:13 | 49.71307 | 8.34004 | 63° | 33km/h | 18014m | 5.3m/s | -51.6°C | 0% | 0hPa | 4.7V | 00:00:00 | 00:00:00 | 00:00:00 | |
| HEMX73-11 | 2026-09-01 13:56:13 | 49.71306 | 8.34003 | 64° | 33km/h | 18014m | 5.3m/s | -51.6°C | 0% | 0hPa | 0V | 00:00:00 | 00:00:00 | 00:00:00 | |
| DL1NUX | 2026-09-01 13:56:12 | 49.71286 | 8.33963 | 59° | 20km/h | 17981m | 4.6m/s | 0°C | 0% | 0hPa | 0V | 00:00:00 | 00:00:00 | 00:00:00 | |
| DO3DL | 2026-09-01 13:56:11 | 49.71299 | 8.33984 | 55° | 24km/h | 18005m | 5.9m/s | -51.5°C | 0% | 0hPa | 0V | 00:00:00 | 00:00:00 | 00:00:00 | |
| DF2AP-13 | 2026-09-01 13:56:10 | 49.71295 | 8.33982 | 58° | 18km/h | 17990m | 3.9m/s | 0°C | 0% | 0hPa | 0V | 00:00:00 | 00:00:00 | 00:00:00 | |
| DM0DOS-11 | 2026-09-01 13:56:09 | 49.71278 | 8.33936 | 73° | 27km/h | 17968m | 4m/s | 0°C | 0% | 0hPa | 0V | 00:00:00 | 00:00:00 | 00:00:00 | |
| AM1SDL-15 | 2026-09-01 13:56:08 | 49.71289 | 8.33971 | 60° | 18km/h | 17959m | 4.4m/s | 0°C | 0% | 0hPa | 4.7V | 00:00:00 | 00:00:00 | 00:00:00 | |
| SO1NDE-10 | 2026-09-01 13:56:07 | 49.71286 | 8.33963 | 60° | 18km/h | 17981m | 4.5m/s | 0°C | 0% | 0hPa | 4.7V | 00:00:00 | 00:00:00 | 00:00:00 | |
| DO3MHA-11 | 2026-09-01 13:56:06 | 49.71283 | 8.33956 | 58° | 22km/h | 17977m | 3.5m/s | 0°C | 0% | 0hPa | 4.7V | 00:00:00 | 00:00:00 | 00:00:00 | |
| BIOWL1-15 | 2026-09-01 13:56:05 | 49.71267 | 8.33908 | 41° | 15km/h | 17953m | 5.9m/s | -51.4°C | 0% | 0hPa | 4.7V | 00:00:00 | 00:00:00 | 00:00:00 | |
| DN1GJH-1 | 2026-09-01 13:56:04 | 49.71277 | 8.33936 | 75° | 27km/h | 17973m | 5.2m/s | -51.4°C | 0% | 0hPa | 4.7V | 00:00:00 | 00:00:00 | 00:00:00 | |
| DL1XH-west | 2026-09-01 13:56:03 | 49.71276 | 8.33926 | 75° | 26km/h | 17968m | 4m/s | -51.4°C | 0% | 0hPa | 4.7V | 00:00:00 | 00:00:00 | 00:00:00 | |
| DL1NUX | 2026-09-01 13:56:02 | 49.71259 | 8.33896 | 54° | 22km/h | 17934m | 5.5m/s | 0°C | 0% | 0hPa | 0V | 00:00:00 | 00:00:00 | 00:00:00 | |
| BEGRI65-1 | 2026-09-01 13:56:00 | 49.71267 | 8.33908 | 42° | 15km/h | 17954m | 5.9m/s | -51.4°C | 0% | 0hPa | 0V | 00:00:00 | 00:00:00 | 00:00:00 | |
| DM0DOS-11 | 2026-09-01 13:55:59 | 49.71250 | 8.33874 | 58° | 20km/h | 17919m | 4.4m/s | 0°C | 0% | 0hPa | 0V | 00:00:00 | 00:00:00 | 00:00:00 | |
| DB0NH | 2026-09-01 13:55:58 | 49.71262 | 8.33900 | 46° | 18km/h | 17939m | 4.5m/s | 0°C | 0% | 0hPa | 4.7V | 00:00:00 | 00:00:00 | 00:00:00 | |
| AM1SDL-15 | 2026-09-01 13:55:56 | 49.71255 | 8.33888 | 55° | 16km/h | 17929m | 3.8m/s | 0°C | 0% | 0hPa | 4.7V | 00:00:00 | 00:00:00 | 00:00:00 | |
| HEMX73-11 | 2026-09-01 13:55:53 | 49.71247 | 8.33867 | 49° | 18km/h | 17919m | 4.4m/s | -51.5°C | 0% | 0hPa | 4.7V | 00:00:00 | 00:00:00 | 00:00:00 | |
| DL1XH-west | 2026-09-01 13:55:52 | 49.71244 | 8.33863 | 48° | 15km/h | 17915m | 4.5m/s | -51.5°C | 0% | 0hPa | 4.7V | 00:00:00 | 00:00:00 | 00:00:00 | |
| DL1NUX | 2026-09-01 13:55:52 | 49.71235 | 8.33838 | 63° | 20km/h | 17886m | 4.4m/s | 0°C | 0% | 0hPa | 0V | 00:00:00 | 00:00:00 | 00:00:00 | |
| DO3DL | 2026-09-01 13:55:52 | 49.71242 | 8.33860 | 63° | 9km/h | 17910m | 5.1m/s | -51.5°C | 0% | 0hPa | 4.7V | 00:00:00 | 00:00:00 | 00:00:00 | |
| DF1GD-15 | 2026-09-01 13:55:51 | 49.71242 | 8.33860 | 63° | 9km/h | 17910m | 5.1m/s | -51.5°C | 0% | 0hPa | 4.7V | 00:00:00 | 00:00:00 | 00:00:00 | |
| BIOWL1-15 | 2026-09-01 13:55:50 | 49.71242 | 8.33856 | 63° | 11km/h | 17905m | 4.4m/s | -51.4°C | 0% | 0hPa | 4.7V | 00:00:00 | 00:00:00 | 00:00:00 | |
| OE3JTB-15 | 2026-09-01 13:55:49 | 49.71240 | 8.33851 | 59° | 20km/h | 17896m | 3.7m/s | 0°C | 0% | 0hPa | 0V | 00:00:00 | 00:00:00 | 00:00:00 | |
| DM0DOS-11 | 2026-09-01 13:55:48 | 49.71227 | 8.33812 | 77° | 18km/h | 17866m | 4.8m/s | 0°C | 0% | 0hPa | 0V | 00:00:00 | 00:00:00 | 00:00:00 | |
| NBG1-10 | 2026-09-01 13:55:48 | 49.71237 | 8.33845 | 64° | 24km/h | 17891m | 5.5m/s | 0°C | 0% | 0hPa | 0V | 00:00:00 | 00:00:00 | 00:00:00 | |
| DO3MHA-11 | 2026-09-01 13:55:46 | 49.71233 | 8.33832 | 67° | 18km/h | 17881m | 5.1m/s | 0°C | 0% | 0hPa | 0V | 00:00:00 | 00:00:00 | 00:00:00 | |
| DO3DL | 2026-09-01 13:55:45 | 49.71229 | 8.33819 | 69° | 20km/h | 17877m | 4.3m/s | -51.4°C | 0% | 0hPa | 0V | 00:00:00 | 00:00:00 | 00:00:00 | |
| AM1SDL-15 | 2026-09-01 13:55:44 | 49.71229 | 8.33818 | 89° | 18km/h | 17866m | 4.8m/s | 0°C | 0% | 0hPa | 0V | 00:00:00 | 00:00:00 | 00:00:00 | |
| DO2KSM | 2026-09-01 13:55:43 | 49.71227 | 8.33806 | 90° | 15km/h | 17866m | 4.8m/s | -51.4°C | 0% | 0hPa | 0V | 00:00:00 | 00:00:00 | 00:00:00 | |
| DL1NUX | 2026-09-01 13:55:42 | 49.71223 | 8.33774 | 69° | 18km/h | 17838m | 4.4m/s | 0°C | 0% | 0hPa | 0V | 00:00:00 | 00:00:00 | 00:00:00 | |
| DL1XH-west | 2026-09-01 13:55:42 | 49.71227 | 8.33800 | 85° | 16km/h | 17862m | 4.1m/s | -51.4°C | 0% | 0hPa | 4.7V | 00:00:00 | 00:00:00 | 00:00:00 | |
| BIOWL7-15 | 2026-09-01 13:55:41 | 49.71227 | 8.33800 | 86° | 16km/h | 17862m | 4.1m/s | -51.4°C | 0% | 0hPa | 0V | 00:00:00 | 00:00:00 | 00:00:00 | |
| DF2AP-13 | 2026-09-01 13:55:40 | 49.71226 | 8.33793 | 74° | 27km/h | 17852m | 5.0m/s | 0°C | 0% | 0hPa | 0V | 00:00:00 | 00:00:00 | 00:00:00 | |
| BIOWL1-15 | 2026-09-01 13:55:40 | 49.71225 | 8.33786 | 73° | 18km/h | 17852m | 5.1m/s | -51.4°C | 0% | 0hPa | 4.7V | 00:00:00 | 00:00:00 | 00:00:00 | |
| DO3DL | 2026-09-01 13:55:39 | 49.71224 | 8.33780 | 72° | 16km/h | 17847m | 4.3m/s | -51.5°C | 0% | 0hPa | 0V | 00:00:00 | 00:00:00 | 00:00:00 | |
| DM0DOS-11 | 2026-09-01 13:55:38 | 49.71219 | 8.33745 | 90° | 20km/h | 17818m | 5.5m/s | 0°C | 0% | 0hPa | 0V | 00:00:00 | 00:00:00 | 00:00:00 | |
| SO1NDE-10 | 2026-09-01 13:55:37 | 49.71223 | 8.33773 | 70° | 29km/h | 17838m | 4.3m/s | 0°C | 0% | 0hPa | 4.7V | 00:00:00 | 00:00:00 | 00:00:00 | |
| DO3MHA-11 | 2026-09-01 13:55:36 | 49.71221 | 8.33766 | 72° | 22km/h | 17833m | 5.1m/s | 0°C | 0% | 0hPa | 4.7V | 00:00:00 | 00:00:00 | 00:00:00 | |
| AM1SDL-15 | 2026-09-01 13:55:32 | 49.71220 | 8.33735 | 91° | 26km/h | 17809m | 5.5m/s | 0°C | 0% | 0hPa | 4.7V | 00:00:00 | 00:00:00 | 00:00:00 | |
| DF1GD-15 | 2026-09-01 13:55:31 | 49.71219 | 8.33725 | 82° | 29km/h | 17814m | 3.1m/s | -51.6°C | 0% | 0hPa | 4.7V | 00:00:00 | 00:00:00 | 00:00:00 | |
| DL1XH-west | 2026-09-01 13:55:30 | 49.71218 | 8.33714 | 82° | 27km/h | 17809m | 5.6m/s | -51.6°C | 0% | 0hPa | 4.7V | 00:00:00 | 00:00:00 | 00:00:00 | |
| BIOWL1-15 | 2026-09-01 13:55:29 | 49.71217 | 8.33697 | 81° | 20km/h | 17798m | 4.8m/s | -51.7°C | 0% | 0hPa | 4.7V | 00:00:00 | 00:00:00 | 00:00:00 | |
| DM0DOS-11 | 2026-09-01 13:55:28 | 49.71210 | 8.33642 | 90° | 26km/h | 17769m | 5.5m/s | 0°C | 0% | 0hPa | 0V | 00:00:00 | 00:00:00 | 00:00:00 | |
| DB0NH | 2026-09-01 13:55:28 | 49.71217 | 8.33697 | 81° | 35km/h | 17794m | 5.7m/s | 0°C | 0% | 0hPa | 0V | 00:00:00 | 00:00:00 | 00:00:00 | |
| DO3MHA-11 | 2026-09-01 13:55:26 | 49.71214 | 8.33678 | 74° | 31km/h | 17784m | 4.0m/s | 0°C | 0% | 0hPa | 0V | 00:00:00 | 00:00:00 | 00:00:00 | |
| DN1GJH-1 | 2026-09-01 13:55:23 | 49.71210 | 8.33642 | 91° | 26km/h | 17774m | 4.1m/s | -51.7°C | 0% | 0hPa | 0V | 00:00:00 | 00:00:00 | 00:00:00 | |
| DL1NUX | 2026-09-01 13:55:22 | 49.71207 | 8.33570 | 89° | 35km/h | 17740m | 4.1m/s | 0°C | 0% | 0hPa | 0V | 00:00:00 | 00:00:00 | 00:00:00 | |
| DL1XH-west | 2026-09-01 13:55:20 | 49.71207 | 8.33595 | 88° | 33km/h | 17755m | 5.3m/s | -51.8°C | 0% | 0hPa | 4.7V | 00:00:00 | 00:00:00 | 00:00:00 | |
| DO3DL | 2026-09-01 13:55:19 | 49.71207 | 8.33595 | 89° | 33km/h | 17755m | 5.3m/s | -51.8°C | 0% | 0hPa | 0V | 00:00:00 | 00:00:00 | 00:00:00 | |
| DM0DOS-11 | 2026-09-01 13:55:18 | 49.71206 | 8.33513 | 89° | 35km/h | 17722m | 5.2m/s | 0°C | 0% | 0hPa | 0V | 00:00:00 | 00:00:00 | 00:00:00 | |
| BIOWL1-15 | 2026-09-01 13:55:18 | 49.71207 | 8.33570 | 89° | 35km/h | 17745m | 5.8m/s | -51.8°C | 0% | 0hPa | 4.7V | 00:00:00 | 00:00:00 | 00:00:00 | |
| BEGRI65-1 | 2026-09-01 13:55:17 | 49.71207 | 8.33569 | 90° | 35km/h | 17745m | 5.8m/s | -51.8°C | 0% | 0hPa | 0V | 00:00:00 | 00:00:00 | 00:00:00 | |
| DO3MHA-11 | 2026-09-01 13:55:16 | 49.71207 | 8.33555 | 87° | 35km/h | 17736m | 4.7m/s | 0°C | 0% | 0hPa | 0V | 00:00:00 | 00:00:00 | 00:00:00 | |
| NBG1-10 | 2026-09-01 13:55:15 | 49.71206 | 8.33541 | 87° | 42km/h | 17727m | 4.4m/s | 0°C | 0% | 0hPa | 0V | 00:00:00 | 00:00:00 | 00:00:00 | |
| BIOWL7-15 | 2026-09-01 13:55:14 | 49.71206 | 8.33527 | 93° | 35km/h | 17732m | 4.5m/s | -51.9°C | 0% | 0hPa | 0V | 00:00:00 | 00:00:00 | 00:00:00 | |
| DO3DL | 2026-09-01 13:55:13 | 49.71206 | 8.33513 | 90° | 35km/h | 17727m | 4.5m/s | -51.9°C | 0% | 0hPa | 0V | 00:00:00 | 00:00:00 | 00:00:00 | |
| DL1NUX | 2026-09-01 13:55:12 | 49.71197 | 8.33434 | 79° | 42km/h | 17693m | 5m/s | 0°C | 0% | 0hPa | 0V | 00:00:00 | 00:00:00 | 00:00:00 | |
| DF2AP-13 | 2026-09-01 13:55:10 | 49.71201 | 8.33474 | 76° | 46km/h | 17708m | 3.3m/s | 0°C | 0% | 0hPa | 4.7V | 00:00:00 | 00:00:00 | 00:00:00 | |
| DL1XH-west | 2026-09-01 13:55:09 | 49.71200 | 8.33462 | 82° | 31km/h | 17707m | 3.3m/s | -51.9°C | 0% | 0hPa | 4.7V | 00:00:00 | 00:00:00 | 00:00:00 | |
| DM0DOS-11 | 2026-09-01 13:55:08 | 49.71188 | 8.33371 | 79° | 38km/h | 17674m | 5.9m/s | 0°C | 0% | 0hPa | 0V | 00:00:00 | 00:00:00 | 00:00:00 | |
| AM1SDL-15 | 2026-09-01 13:55:08 | 49.71198 | 8.33449 | 82° | 42km/h | 17689m | 3.8m/s | 0°C | 0% | 0hPa | 4.7V | 00:00:00 | 00:00:00 | 00:00:00 | |
| BIOWL1-15 | 2026-09-01 13:55:07 | 49.71197 | 8.33434 | 80° | 42km/h | 17698m | 4.8m/s | -51.9°C | 0% | 0hPa | 4.7V | 00:00:00 | 00:00:00 | 00:00:00 | |
| SO1NDE-10 | 2026-09-01 13:55:07 | 49.71197 | 8.33434 | 80° | 47km/h | 17694m | 5.0m/s | 0°C | 0% | 0hPa | 4.7V | 00:00:00 | 00:00:00 | 00:00:00 | |
| DO3MHA-11 | 2026-09-01 13:55:06 | 49.71195 | 8.33418 | 81° | 42km/h | 17689m | 3.8m/s | 0°C | 0% | 0hPa | 4.7V | 00:00:00 | 00:00:00 | 00:00:00 | |
| DJ3KS | 2026-09-01 13:55:05 | 49.71193 | 8.33401 | 80° | 40km/h | 17689m | 3.9m/s | 0°C | 0% | 0hPa | 4.7V | 00:00:00 | 00:00:00 | 00:00:00 | |
| DN1GJH-1 | 2026-09-01 13:55:03 | 49.71188 | 8.33371 | 74° | 38km/h | 17679m | 3.8m/s | -52.1°C | 0% | 0hPa | 4.7V | 00:00:00 | 00:00:00 | 00:00:00 | |
| CB1BUN | 2026-09-01 13:55:01 | 49.71185 | 8.33342 | 91° | 37km/h | 17669m | 3.9m/s | -52.3°C | 0% | 0hPa | 4.7V | 00:00:00 | 00:00:00 | 00:00:00 | |
| DO3DL | 2026-09-01 13:55:00 | 49.71184 | 8.33327 | 89° | 42km/h | 17664m | 6.0m/s | -52.4°C | 0% | 0hPa | 4.7V | 00:00:00 | 00:00:00 | 00:00:00 | |
| DL1XH-west | 2026-09-01 13:54:59 | 49.71182 | 8.33291 | 81° | 49km/h | 17653m | 5.5m/s | -52.5°C | 0% | 0hPa | 4.7V | 00:00:00 | 00:00:00 | 00:00:00 | |
| DM0DOS-11 | 2026-09-01 13:54:58 | 49.71164 | 8.33200 | 77° | 42km/h | 17624m | 5.9m/s | 0°C | 0% | 0hPa | 0V | 00:00:00 | 00:00:00 | 00:00:00 | |
| DB0NH | 2026-09-01 13:54:58 | 49.71182 | 8.33291 | 81° | 51km/h | 17649m | 3.7m/s | 0°C | 0% | 0hPa | 4.7V | 00:00:00 | 00:00:00 | 00:00:00 | |
| BIOWL1-15 | 2026-09-01 13:54:57 | 49.71176 | 8.33253 | 72° | 51km/h | 17644m | 5.8m/s | -52.5°C | 0% | 0hPa | 4.7V | 00:00:00 | 00:00:00 | 00:00:00 | |
| DO3MHA-11 | 2026-09-01 13:54:56 | 49.71175 | 8.33253 | 72° | 49km/h | 17639m | 3.6m/s | 0°C | 0% | 0hPa | 0V | 00:00:00 | 00:00:00 | 00:00:00 | |
| AM1SDL-15 | 2026-09-01 13:54:55 | 49.71171 | 8.33234 | 70° | 53km/h | 17610m | 4.7m/s | 0°C | 0% | 0hPa | 0V | 00:00:00 | 00:00:00 | 00:00:00 | |
| DO3DL | 2026-09-01 13:54:53 | 49.71164 | 8.33200 | 78° | 42km/h | 17630m | 4.5m/s | -52.5°C | 0% | 0hPa | 0V | 00:00:00 | 00:00:00 | 00:00:00 | |
| DL1NUX | 2026-09-01 13:54:52 | 49.71143 | 8.33091 | 64° | 53km/h | 17595m | 4.4m/s | 0°C | 0% | 0hPa | 0V | 00:00:00 | 00:00:00 | 00:00:00 | |
| OE3JTB-15 | 2026-09-01 13:54:51 | 49.71159 | 8.33165 | 75° | 51km/h | 17615m | 5.0m/s | 0°C | 0% | 0hPa | 0V | 00:00:00 | 00:00:00 | 00:00:00 | |
| DF1GD-15 | 2026-09-01 13:54:49 | 49.71152 | 8.33127 | 73° | 49km/h | 17610m | 4.7m/s | -52.4°C | 0% | 0hPa | 0V | 00:00:00 | 00:00:00 | 00:00:00 | |
| DM0DOS-11 | 2026-09-01 13:54:48 | 49.71124 | 8.33018 | 71° | 53km/h | 17577m | 3.1m/s | 0°C | 0% | 0hPa | 0V | 00:00:00 | 00:00:00 | 00:00:00 | |
| DL1XH-west | 2026-09-01 13:54:48 | 49.71143 | 8.33091 | 65° | 53km/h | 17600m | 5.5m/s | -52.3°C | 0% | 0hPa | 4.7V | 00:00:00 | 00:00:00 | 00:00:00 | |
| DO3DL | 2026-09-01 13:54:47 | 49.71142 | 8.33091 | 66° | 53km/h | 17601m | 5.4m/s | -52.3°C | 0% | 0hPa | 4.7V | 00:00:00 | 00:00:00 | 00:00:00 | |
| BIOWL1-15 | 2026-09-01 13:54:46 | 49.71132 | 8.33055 | 69° | 47km/h | 17591m | 5m/s | -52.2°C | 0% | 0hPa | 4.7V | 00:00:00 | 00:00:00 | 00:00:00 | |
| DL1NUX | 2026-09-01 13:54:42 | 49.71095 | 8.32899 | 70° | 51km/h | 17550m | 4.1m/s | 0°C | 0% | 0hPa | 0V | 00:00:00 | 00:00:00 | 00:00:00 | |
| NBG1-10 | 2026-09-01 13:54:42 | 49.71120 | 8.32998 | 72° | 51km/h | 17574m | 5.2m/s | 0°C | 0% | 0hPa | 4.7V | 00:00:00 | 00:00:00 | 00:00:00 | |
| DO3DL | 2026-09-01 13:54:41 | 49.71111 | 8.32957 | 73° | 53km/h | 17569m | 4.5m/s | -52.2°C | 0% | 0hPa | 4.7V | 00:00:00 | 00:00:00 | 00:00:00 | |
| DF2AP-13 | 2026-09-01 13:54:40 | 49.71111 | 8.32957 | 72° | 51km/h | 17563m | 5.3m/s | 0°C | 0% | 0hPa | 4.7V | 00:00:00 | 00:00:00 | 00:00:00 | |
| DL1XH-west | 2026-09-01 13:54:37 | 49.71091 | 8.32880 | 71° | 47km/h | 17550m | 4.1m/s | -52.1°C | 0% | 0hPa | 4.7V | 00:00:00 | 00:00:00 | 00:00:00 | |
| BIOWL1-15 | 2026-09-01 13:54:37 | 49.71083 | 8.32842 | 71° | 57km/h | 17540m | 4.2m/s | -52°C | 0% | 0hPa | 4.7V | 00:00:00 | 00:00:00 | 00:00:00 | |
| DO3MHA-11 | 2026-09-01 13:54:36 | 49.71091 | 8.32880 | 71° | 53km/h | 17545m | 5.4m/s | 0°C | 0% | 0hPa | 0V | 00:00:00 | 00:00:00 | 00:00:00 | |
| AM1SDL-15 | 2026-09-01 13:54:34 | 49.71082 | 8.32842 | 72° | 53km/h | 17535m | 4.3m/s | 0°C | 0% | 0hPa | 0V | 00:00:00 | 00:00:00 | 00:00:00 | |
| DL1NUX | 2026-09-01 13:54:32 | 49.71045 | 8.32710 | 69° | 55km/h | 17503m | 3.6m/s | 0°C | 0% | 0hPa | 0V | 00:00:00 | 00:00:00 | 00:00:00 | |
| HEMX73-11 | 2026-09-01 13:54:31 | 49.71083 | 8.32784 | 64° | 51km/h | 17526m | 4.2m/s | -52.1°C | 0% | 0hPa | 0V | 00:00:00 | 00:00:00 | 00:00:00 | |
| DF1GD-15 | 2026-09-01 13:54:29 | 49.71055 | 8.32747 | 66° | 53km/h | 17517m | 4.3m/s | -52.2°C | 0% | 0hPa | 0V | 00:00:00 | 00:00:00 | 00:00:00 | |
| DM0DOS-11 | 2026-09-01 13:54:28 | 49.71022 | 8.32632 | 60° | 47km/h | 17484m | 5.2m/s | 0°C | 0% | 0hPa | 0V | 00:00:00 | 00:00:00 | 00:00:00 | |
| DB0NH | 2026-09-01 13:54:27 | 49.71045 | 8.32710 | 70° | 47km/h | 17503m | 3.5m/s | 0°C | 0% | 0hPa | 4.7V | 00:00:00 | 00:00:00 | 00:00:00 | |
| DL1XH-west | 2026-09-01 13:54:26 | 49.71039 | 8.32689 | 69° | 60km/h | 17503m | 3.6m/s | -52.4°C | 0% | 0hPa | 4.7V | 00:00:00 | 00:00:00 | 00:00:00 | |
| BIOWL1-15 | 2026-09-01 13:54:26 | 49.71022 | 8.32632 | 60° | 49km/h | 17489m | 4.4m/s | -52.5°C | 0% | 0hPa | 4.7V | 00:00:00 | 00:00:00 | 00:00:00 | |
| DL1NUX | 2026-09-01 13:54:22 | 49.70987 | 8.32530 | 63° | 53km/h | 17457m | 5.6m/s | 0°C | 0% | 0hPa | 0V | 00:00:00 | 00:00:00 | 00:00:00 | |
| AM1SDL-15 | 2026-09-01 13:54:22 | 49.71016 | 8.32615 | 60° | 49km/h | 17479m | 3.8m/s | 0°C | 0% | 0hPa | 0V | 00:00:00 | 00:00:00 | 00:00:00 | |
| DN1GJH-1 | 2026-09-01 13:54:21 | 49.71009 | 8.32598 | 61° | 51km/h | 17479m | 3.9m/s | -52.5°C | 0% | 0hPa | 0V | 00:00:00 | 00:00:00 | 00:00:00 | |
| CB1BUN | 2026-09-01 13:54:20 | 49.71003 | 8.32582 | 62° | 47km/h | 17475m | 5.3m/s | -52.5°C | 0% | 0hPa | 0V | 00:00:00 | 00:00:00 | 00:00:00 | |
| DM0DOS-11 | 2026-09-01 13:54:18 | 49.70963 | 8.32466 | 58° | 49km/h | 17438m | 4.3m/s | 0°C | 0% | 0hPa | 0V | 00:00:00 | 00:00:00 | 00:00:00 | |
| DL1XH-west | 2026-09-01 13:54:16 | 49.70975 | 8.32496 | 59° | 46km/h | 17451m | 4.5m/s | -52.5°C | 0% | 0hPa | 4.7V | 00:00:00 | 00:00:00 | 00:00:00 | |
| BIOWL1-15 | 2026-09-01 13:54:16 | 49.70962 | 8.32466 | 59° | 49km/h | 17443m | 4.9m/s | -52.4°C | 0% | 0hPa | 4.7V | 00:00:00 | 00:00:00 | 00:00:00 | |
| DO3DL | 2026-09-01 13:54:15 | 49.70969 | 8.32481 | 58° | 46km/h | 17447m | 3.9m/s | -52.5°C | 0% | 0hPa | 0V | 00:00:00 | 00:00:00 | 00:00:00 | |
| DL1NUX | 2026-09-01 13:54:12 | 49.70931 | 8.32370 | 63° | 42km/h | 17410m | 4.2m/s | 0°C | 0% | 0hPa | 0V | 00:00:00 | 00:00:00 | 00:00:00 | |
| THATR2-17 | 2026-09-01 13:54:11 | 49.70838 | 8.32024 | 76° | 44km/h | 17299m | 0m/s | 0°C | 0% | 0hPa | 4.7V | 00:00:00 | 00:00:00 | 00:00:00 | |
| AM1SDL-15 | 2026-09-01 13:54:10 | 49.70946 | 8.32418 | 65° | 44km/h | 17425m | 5.1m/s | 0°C | 0% | 0hPa | 4.7V | 00:00:00 | 00:00:00 | 00:00:00 | |
| NBG1-10 | 2026-09-01 13:54:09 | 49.70941 | 8.32401 | 66° | 40km/h | 17420m | 4.7m/s | 0°C | 0% | 0hPa | 4.7V | 00:00:00 | 00:00:00 | 00:00:00 | |
| DO3DL | 2026-09-01 13:54:08 | 49.70936 | 8.32385 | 66° | 47km/h | 17420m | 4.8m/s | -52.4°C | 0% | 0hPa | 4.7V | 00:00:00 | 00:00:00 | 00:00:00 | |
| SO1NDE-10 | 2026-09-01 13:54:07 | 49.70931 | 8.32370 | 64° | 40km/h | 17410m | 4.2m/s | 0°C | 0% | 0hPa | 4.7V | 00:00:00 | 00:00:00 | 00:00:00 | |
| DO3MHA-11 | 2026-09-01 13:54:06 | 49.70926 | 8.32355 | 64° | 42km/h | 17405m | 5.5m/s | 0°C | 0% | 0hPa | 4.7V | 00:00:00 | 00:00:00 | 00:00:00 | |
| DL1XH-west | 2026-09-01 13:54:04 | 49.70917 | 8.32325 | 63° | 46km/h | 17400m | 3.2m/s | -52.3°C | 0% | 0hPa | 4.7V | 00:00:00 | 00:00:00 | 00:00:00 | |
| BIOWL1-15 | 2026-09-01 13:54:03 | 49.70906 | 8.32296 | 59° | 38km/h | 17392m | 4.4m/s | -52.2°C | 0% | 0hPa | 4.7V | 00:00:00 | 00:00:00 | 00:00:00 | |
| DL1NUX | 2026-09-01 13:54:02 | 49.70884 | 8.32222 | 71° | 42km/h | 17362m | 3.6m/s | 0°C | 0% | 0hPa | 0V | 00:00:00 | 00:00:00 | 00:00:00 | |
| DN1GJH-1 | 2026-09-01 13:54:01 | 49.70901 | 8.32283 | 60° | 42km/h | 17387m | 5.3m/s | -52.1°C | 0% | 0hPa | 0V | 00:00:00 | 00:00:00 | 00:00:00 | |
| CB1BUN | 2026-09-01 13:54:00 | 49.70891 | 8.32253 | 67° | 44km/h | 17377m | 5.8m/s | -52.1°C | 0% | 0hPa | 0V | 00:00:00 | 00:00:00 | 00:00:00 | |
| DM0DOS-11 | 2026-09-01 13:53:58 | 49.70868 | 8.32168 | 60° | 37km/h | 17343m | 4.6m/s | 0°C | 0% | 0hPa | 0V | 00:00:00 | 00:00:00 | 00:00:00 | |
| AM1SDL-15 | 2026-09-01 13:53:58 | 49.70887 | 8.32237 | 72° | 38km/h | 17367m | 5.4m/s | 0°C | 0% | 0hPa | 4.7V | 00:00:00 | 00:00:00 | 00:00:00 | |
| DB0NH | 2026-09-01 13:53:57 | 49.70884 | 8.32222 | 72° | 38km/h | 17362m | 3.5m/s | 0°C | 0% | 0hPa | 4.7V | 00:00:00 | 00:00:00 | 00:00:00 | |
| DO3DL | 2026-09-01 13:53:55 | 49.70876 | 8.32192 | 67° | 37km/h | 17358m | 5.8m/s | -52.1°C | 0% | 0hPa | 4.7V | 00:00:00 | 00:00:00 | 00:00:00 | |
| DL1XH-west | 2026-09-01 13:53:54 | 49.70868 | 8.32168 | 61° | 37km/h | 17348m | 5.2m/s | -52°C | 0% | 0hPa | 4.7V | 00:00:00 | 00:00:00 | 00:00:00 | |
| DJTTGO | 2026-09-01 13:53:53 | 49.70868 | 8.32168 | 62° | 37km/h | 17348m | 5.2m/s | -52.0°C | 0% | 0hPa | 0V | 00:00:00 | 00:00:00 | 00:00:00 | |
| DL1NUX | 2026-09-01 13:53:52 | 49.70848 | 8.32079 | 70° | 37km/h | 17313m | 6.2m/s | 0°C | 0% | 0hPa | 0V | 00:00:00 | 00:00:00 | 00:00:00 | |
| BIOWL1-15 | 2026-09-01 13:53:52 | 49.70859 | 8.32139 | 69° | 46km/h | 17338m | 4.4m/s | -52°C | 0% | 0hPa | 4.7V | 00:00:00 | 00:00:00 | 00:00:00 | |
| HEMX73-11 | 2026-09-01 13:53:50 | 49.70856 | 8.32122 | 76° | 42km/h | 17334m | 5.4m/s | -52.0°C | 0% | 0hPa | 0V | 00:00:00 | 00:00:00 | 00:00:00 | |
| DO3DL | 2026-09-01 13:53:49 | 49.70853 | 8.32107 | 78° | 38km/h | 17328m | 4.9m/s | -52.0°C | 0% | 0hPa | 0V | 00:00:00 | 00:00:00 | 00:00:00 | |
| DM0DOS-11 | 2026-09-01 13:53:48 | 49.70838 | 8.32024 | 76° | 44km/h | 17294m | 5.7m/s | 0°C | 0% | 0hPa | 0V | 00:00:00 | 00:00:00 | 00:00:00 | |
| DO3MHA-11 | 2026-09-01 13:53:46 | 49.70845 | 8.32066 | 73° | 38km/h | 17308m | 4.1m/s | 0°C | 0% | 0hPa | 4.7V | 00:00:00 | 00:00:00 | 00:00:00 | |
| AM1SDL-15 | 2026-09-01 13:53:45 | 49.70843 | 8.32053 | 79° | 38km/h | 17248m | 4.3m/s | 0°C | 0% | 0hPa | 4.7V | 00:00:00 | 00:00:00 | 00:00:00 | |
| DL1XH-west | 2026-09-01 13:53:43 | 49.70838 | 8.32024 | 76° | 44km/h | 17299m | 3.7m/s | -52°C | 0% | 0hPa | 4.7V | 00:00:00 | 00:00:00 | 00:00:00 | |
| BIOWL1-15 | 2026-09-01 13:53:42 | 49.70834 | 8.31977 | 82° | 38km/h | 17285m | 4.9m/s | -51.9°C | 0% | 0hPa | 4.7V | 00:00:00 | 00:00:00 | 00:00:00 | |
| DL1NUX | 2026-09-01 13:53:42 | 49.70827 | 8.31936 | 84° | 35km/h | 17266m | 4m/s | 0°C | 0% | 0hPa | 0V | 00:00:00 | 00:00:00 | 00:00:00 | |
| DF2AP-13 | 2026-09-01 13:53:40 | 49.70834 | 8.31977 | 83° | 40km/h | 17280m | 4.7m/s | 0°C | 0% | 0hPa | 0V | 00:00:00 | 00:00:00 | 00:00:00 | |
| CB1BUN | 2026-09-01 13:53:39 | 49.70832 | 8.31962 | 76° | 38km/h | 17280m | 4.7m/s | -51.9°C | 0% | 0hPa | 0V | 00:00:00 | 00:00:00 | 00:00:00 | |
| DM0DOS-11 | 2026-09-01 13:53:38 | 49.70822 | 8.31868 | 92° | 44km/h | 17247m | 4.3m/s | 0°C | 0% | 0hPa | 0V | 00:00:00 | 00:00:00 | 00:00:00 | |
| SO1NDE-10 | 2026-09-01 13:53:37 | 49.70827 | 8.31936 | 85° | 42km/h | 17266m | 3.9m/s | 0°C | 0% | 0hPa | 4.7V | 00:00:00 | 00:00:00 | 00:00:00 | |
| DO3MHA-11 | 2026-09-01 13:53:36 | 49.70826 | 8.31920 | 85° | 38km/h | 17261m | 5.3m/s | 0°C | 0% | 0hPa | 4.7V | 00:00:00 | 00:00:00 | 00:00:00 | |
| DL1XH-west | 2026-09-01 13:53:32 | 49.70822 | 8.31853 | 93° | 40km/h | 17247m | 4.3m/s | -51.9°C | 0% | 0hPa | 4.7V | 00:00:00 | 00:00:00 | 00:00:00 | |
| DL1NUX | 2026-09-01 13:53:32 | 49.70816 | 8.31785 | 89° | 38km/h | 17219m | 5.5m/s | 0°C | 0% | 0hPa | 0V | 00:00:00 | 00:00:00 | 00:00:00 | |
| BIOWL1-15 | 2026-09-01 13:53:30 | 49.70821 | 8.31825 | 77° | 35km/h | 17238m | 4.7m/s | -52°C | 0% | 0hPa | 4.7V | 00:00:00 | 00:00:00 | 00:00:00 | |
| DO3DL | 2026-09-01 13:53:29 | 49.70819 | 8.31812 | 75° | 35km/h | 17233m | 4.3m/s | -52.0°C | 0% | 0hPa | 0V | 00:00:00 | 00:00:00 | 00:00:00 | |
| DM0DOS-11 | 2026-09-01 13:53:28 | 49.70815 | 8.31717 | 91° | 38km/h | 17200m | 4.9m/s | 0°C | 0% | 0hPa | 0V | 00:00:00 | 00:00:00 | 00:00:00 | |
| DB0NH | 2026-09-01 13:53:27 | 49.70816 | 8.31784 | 90° | 44km/h | 17219m | 5.4m/s | 0°C | 0% | 0hPa | 0V | 00:00:00 | 00:00:00 | 00:00:00 | |
| DO3MHA-11 | 2026-09-01 13:53:26 | 49.70816 | 8.31769 | 86° | 44km/h | 17214m | 3.8m/s | 0°C | 0% | 0hPa | 0V | 00:00:00 | 00:00:00 | 00:00:00 | |
| AM1SDL-15 | 2026-09-01 13:53:23 | 49.70815 | 8.31717 | 92° | 40km/h | 17191m | 4.9m/s | 0°C | 0% | 0hPa | 0V | 00:00:00 | 00:00:00 | 00:00:00 | |
| DL1NUX | 2026-09-01 13:53:22 | 49.70815 | 8.31618 | 90° | 55km/h | 17173m | 3.8m/s | 0°C | 0% | 0hPa | 0V | 00:00:00 | 00:00:00 | 00:00:00 | |
| BIOWL1-15 | 2026-09-01 13:53:22 | 49.70813 | 8.31656 | 94° | 44km/h | 17186m | 4.8m/s | -52.3°C | 0% | 0hPa | 4.7V | 00:00:00 | 00:00:00 | 00:00:00 | |
| DL1XH-west | 2026-09-01 13:53:22 | 49.70814 | 8.31688 | 83° | 38km/h | 17196m | 4.4m/s | -52.2°C | 0% | 0hPa | 4.7V | 00:00:00 | 00:00:00 | 00:00:00 | |
| DN1GJH-1 | 2026-09-01 13:53:20 | 49.70813 | 8.31672 | 87° | 40km/h | 17191m | 5.0m/s | -52.3°C | 0% | 0hPa | 0V | 00:00:00 | 00:00:00 | 00:00:00 | |
| DM0DOS-11 | 2026-09-01 13:53:18 | 49.70813 | 8.31546 | 79° | 38km/h | 17153m | 4.5m/s | 0°C | 0% | 0hPa | 0V | 00:00:00 | 00:00:00 | 00:00:00 | |
| DO3MHA-11 | 2026-09-01 13:53:16 | 49.70815 | 8.31597 | 87° | 44km/h | 17168m | 5.2m/s | 0°C | 0% | 0hPa | 4.7V | 00:00:00 | 00:00:00 | 00:00:00 | |
| DL1XH-west | 2026-09-01 13:53:11 | 49.70809 | 8.31501 | 83° | 40km/h | 17144m | 3.8m/s | -52.5°C | 0% | 0hPa | 4.7V | 00:00:00 | 00:00:00 | 00:00:00 | |
| DF2AP-13 | 2026-09-01 13:53:10 | 49.70808 | 8.31501 | 84° | 49km/h | 17139m | 5.8m/s | 0°C | 0% | 0hPa | 4.7V | 00:00:00 | 00:00:00 | 00:00:00 | |
| HEMX73-11 | 2026-09-01 13:53:09 | 49.70807 | 8.31485 | 81° | 44km/h | 17139m | 5.9m/s | -52.5°C | 0% | 0hPa | 4.7V | 00:00:00 | 00:00:00 | 00:00:00 | |
| BIOWL1-15 | 2026-09-01 13:53:08 | 49.70805 | 8.31468 | 81° | 46km/h | 17134m | 3.9m/s | -52.6°C | 0% | 0hPa | 4.7V | 00:00:00 | 00:00:00 | 00:00:00 | |
| DM0DOS-11 | 2026-09-01 13:53:08 | 49.70802 | 8.31380 | 91° | 46km/h | 17105m | 4.7m/s | 0°C | 0% | 0hPa | 0V | 00:00:00 | 00:00:00 | 00:00:00 | |
| SO1NDE-10 | 2026-09-01 13:53:07 | 49.70804 | 8.31450 | 90° | 51km/h | 17125m | 4.4m/s | 0°C | 0% | 0hPa | 0V | 00:00:00 | 00:00:00 | 00:00:00 | |
| DO2KSM | 2026-09-01 13:53:06 | 49.70803 | 8.31415 | 88° | 46km/h | 17120m | 5.4m/s | -52.7°C | 0% | 0hPa | 0V | 00:00:00 | 00:00:00 | 00:00:00 | |
| DO3DL | 2026-09-01 13:53:04 | 49.70802 | 8.31380 | 93° | 46km/h | 17110m | 5.6m/s | -52.7°C | 0% | 0hPa | 0V | 00:00:00 | 00:00:00 | 00:00:00 | |
| NBG1-10 | 2026-09-01 13:53:03 | 49.70802 | 8.31379 | 92° | 51km/h | 17100m | 5.1m/s | 0°C | 0% | 0hPa | 0V | 00:00:00 | 00:00:00 | 00:00:00 | |
| DL1NUX | 2026-09-01 13:53:02 | 49.70798 | 8.31265 | 75° | 49km/h | 17075m | 5.8m/s | 0°C | 0% | 0hPa | 0V | 00:00:00 | 00:00:00 | 00:00:00 | |
| DK7TD | 2026-09-01 13:53:01 | 49.70803 | 8.31321 | 88° | 53km/h | 17095m | 4.3m/s | -52.9°C | 0% | 0hPa | 4.7V | 00:00:00 | 00:00:00 | 00:00:00 | |
| DL1XH-west | 2026-09-01 13:53:00 | 49.70802 | 8.31302 | 87° | 49km/h | 17090m | 5m/s | -52.9°C | 0% | 0hPa | 4.7V | 00:00:00 | 00:00:00 | 00:00:00 | |
| DN1GJH-1 | 2026-09-01 13:52:59 | 49.70802 | 8.31301 | 88° | 49km/h | 17090m | 5.0m/s | -52.9°C | 0% | 0hPa | 0V | 00:00:00 | 00:00:00 | 00:00:00 | |
| DM0DOS-11 | 2026-09-01 13:52:58 | 49.70789 | 8.31189 | 83° | 57km/h | 17056m | 4.7m/s | 0°C | 0% | 0hPa | 0V | 00:00:00 | 00:00:00 | 00:00:00 | |
| BIOWL1-15 | 2026-09-01 13:52:58 | 49.70798 | 8.31265 | 75° | 49km/h | 17080m | 5m/s | -52.9°C | 0% | 0hPa | 4.7V | 00:00:00 | 00:00:00 | 00:00:00 | |
| DB0NH | 2026-09-01 13:52:57 | 49.70798 | 8.31264 | 76° | 51km/h | 17075m | 5.7m/s | 0°C | 0% | 0hPa | 0V | 00:00:00 | 00:00:00 | 00:00:00 | |
| DO3MHA-11 | 2026-09-01 13:52:56 | 49.70795 | 8.31248 | 81° | 51km/h | 17070m | 4.3m/s | 0°C | 0% | 0hPa | 0V | 00:00:00 | 00:00:00 | 00:00:00 | |
| DL1NUX | 2026-09-01 13:52:52 | 49.70784 | 8.31065 | 90° | 47km/h | 17027m | 4m/s | 0°C | 0% | 0hPa | 0V | 00:00:00 | 00:00:00 | 00:00:00 | |
| BIOWL1-15 | 2026-09-01 13:52:51 | 49.70784 | 8.31065 | 90° | 47km/h | 17032m | 4.8m/s | -53°C | 0% | 0hPa | 4.7V | 00:00:00 | 00:00:00 | 00:00:00 | |
| DO3DL | 2026-09-01 13:52:51 | 49.70787 | 8.31125 | 88° | 53km/h | 17046m | 5.5m/s | -53.1°C | 0% | 0hPa | 4.7V | 00:00:00 | 00:00:00 | 00:00:00 | |
| DL1XH-west | 2026-09-01 13:52:49 | 49.70786 | 8.31104 | 84° | 53km/h | 17040m | 4.4m/s | -53.1°C | 0% | 0hPa | 4.7V | 00:00:00 | 00:00:00 | 00:00:00 | |
| HEMX73-11 | 2026-09-01 13:52:49 | 49.70785 | 8.31084 | 87° | 51km/h | 17036m | 4.9m/s | -53.1°C | 0% | 0hPa | 0V | 00:00:00 | 00:00:00 | 00:00:00 | |
| DM0DOS-11 | 2026-09-01 13:52:47 | 49.70779 | 8.30962 | 84° | 53km/h | 17003m | 5.7m/s | 0°C | 0% | 0hPa | 0V | 00:00:00 | 00:00:00 | 00:00:00 | |
| DO3MHA-11 | 2026-09-01 13:52:46 | 49.70784 | 8.31046 | 90° | 51km/h | 17022m | 5.1m/s | 0°C | 0% | 0hPa | 4.7V | 00:00:00 | 00:00:00 | 00:00:00 | |
| DF2AP-13 | 2026-09-01 13:52:40 | 49.70775 | 8.30923 | 78° | 47km/h | 16993m | 5.9m/s | 0°C | 0% | 0hPa | 4.7V | 00:00:00 | 00:00:00 | 00:00:00 | |
| DN1GJH-1 | 2026-09-01 13:52:39 | 49.70773 | 8.30905 | 80° | 46km/h | 16993m | 6.0m/s | -52.9°C | 0% | 0hPa | 4.7V | 00:00:00 | 00:00:00 | 00:00:00 | |
| DL1XH-west | 2026-09-01 13:52:38 | 49.70771 | 8.30888 | 83° | 44km/h | 16988m | 3.9m/s | -52.9°C | 0% | 0hPa | 4.7V | 00:00:00 | 00:00:00 | 00:00:00 | |
| THATR2-17 | 2026-09-01 13:52:38 | 49.70763 | 8.30731 | 76° | 40km/h | 16951m | 0m/s | 0°C | 0% | 0hPa | 0V | 00:00:00 | 00:00:00 | 00:00:00 | |
| DM0DOS-11 | 2026-09-01 13:52:37 | 49.70768 | 8.30763 | 74° | 49km/h | 16955m | 4.2m/s | 0°C | 0% | 0hPa | 0V | 00:00:00 | 00:00:00 | 00:00:00 | |
| BIOWL1-15 | 2026-09-01 13:52:37 | 49.70768 | 8.30849 | 85° | 57km/h | 16979m | 4.1m/s | -52.8°C | 0% | 0hPa | 4.7V | 00:00:00 | 00:00:00 | 00:00:00 | |
| SO1NDE-10 | 2026-09-01 13:52:37 | 49.70769 | 8.30848 | 83° | 47km/h | 16960m | 5.1m/s | 0°C | 0% | 0hPa | 4.7V | 00:00:00 | 00:00:00 | 00:00:00 | |
| DO3MHA-11 | 2026-09-01 13:52:36 | 49.70768 | 8.30849 | 86° | 49km/h | 16974m | 5.5m/s | 0°C | 0% | 0hPa | 4.7V | 00:00:00 | 00:00:00 | 00:00:00 | |
| DJTTGO | 2026-09-01 13:52:33 | 49.70769 | 8.30784 | 92° | 51km/h | 16965m | 4.1m/s | -52.8°C | 0% | 0hPa | 4.7V | 00:00:00 | 00:00:00 | 00:00:00 | |
| DO3DL | 2026-09-01 13:52:31 | 49.70766 | 8.30747 | 76° | 44km/h | 16955m | 4.2m/s | -52.8°C | 0% | 0hPa | 4.7V | 00:00:00 | 00:00:00 | 00:00:00 | |
| NBG1-10 | 2026-09-01 13:52:29 | 49.70761 | 8.30714 | 82° | 47km/h | 16941m | 5.8m/s | 0°C | 0% | 0hPa | 4.7V | 00:00:00 | 00:00:00 | 00:00:00 | |
| DL1XH-west | 2026-09-01 13:52:28 | 49.70758 | 8.30678 | 86° | 51km/h | 16936m | 4.9m/s | -52.7°C | 0% | 0hPa | 4.7V | 00:00:00 | 00:00:00 | 00:00:00 | |
| DM0DOS-11 | 2026-09-01 13:52:27 | 49.70752 | 8.30591 | 71° | 44km/h | 16905m | 4.5m/s | 0°C | 0% | 0hPa | 0V | 00:00:00 | 00:00:00 | 00:00:00 | |
| DB0NH | 2026-09-01 13:52:27 | 49.70758 | 8.30678 | 87° | 47km/h | 16930m | 5.3m/s | 0°C | 0% | 0hPa | 0V | 00:00:00 | 00:00:00 | 00:00:00 | |
| DO3MHA-11 | 2026-09-01 13:52:26 | 49.70758 | 8.30658 | 91° | 46km/h | 16926m | 3.7m/s | 0°C | 0% | 0hPa | 0V | 00:00:00 | 00:00:00 | 00:00:00 | |
| BIOWL1-15 | 2026-09-01 13:52:26 | 49.70758 | 8.30641 | 91° | 44km/h | 16926m | 3.8m/s | -52.8°C | 0% | 0hPa | 4.7V | 00:00:00 | 00:00:00 | 00:00:00 | |
| DO3DL | 2026-09-01 13:52:25 | 49.70758 | 8.30641 | 92° | 44km/h | 16926m | 3.8m/s | -52.8°C | 0% | 0hPa | 0V | 00:00:00 | 00:00:00 | 00:00:00 | |
| DL1NUX | 2026-09-01 13:52:21 | 49.70744 | 8.30481 | 88° | 47km/h | 16874m | 5m/s | 0°C | 0% | 0hPa | 0V | 00:00:00 | 00:00:00 | 00:00:00 | |
| DO3DL | 2026-09-01 13:52:19 | 49.70743 | 8.30519 | 90° | 53km/h | 16890m | 5.3m/s | -52.7°C | 0% | 0hPa | 0V | 00:00:00 | 00:00:00 | 00:00:00 | |
| DN1GJH-1 | 2026-09-01 13:52:18 | 49.70743 | 8.30519 | 90° | 53km/h | 16890m | 5.3m/s | -52.7°C | 0% | 0hPa | 0V | 00:00:00 | 00:00:00 | 00:00:00 | |
| DM0DOS-11 | 2026-09-01 13:52:17 | 49.70731 | 8.30410 | 72° | 49km/h | 16854m | 5.6m/s | 0°C | 0% | 0hPa | 0V | 00:00:00 | 00:00:00 | 00:00:00 | |
| DL1XH-west | 2026-09-01 13:52:17 | 49.70743 | 8.30481 | 89° | 47km/h | 16880m | 5m/s | -52.7°C | 0% | 0hPa | 4.7V | 00:00:00 | 00:00:00 | 00:00:00 | |
| BIOWL1-15 | 2026-09-01 13:52:17 | 49.70739 | 8.30444 | 71° | 47km/h | 16869m | 5.5m/s | -52.7°C | 0% | 0hPa | 4.7V | 00:00:00 | 00:00:00 | 00:00:00 | |
| CB1BUN | 2026-09-01 13:52:17 | 49.70743 | 8.30480 | 90° | 47km/h | 16880m | 5.0m/s | -52.7°C | 0% | 0hPa | 0V | 00:00:00 | 00:00:00 | 00:00:00 | |
| DO3MHA-11 | 2026-09-01 13:52:16 | 49.70743 | 8.30480 | 89° | 47km/h | 16875m | 4.9m/s | 0°C | 0% | 0hPa | 0V | 00:00:00 | 00:00:00 | 00:00:00 | |
| DO2KSM | 2026-09-01 13:52:15 | 49.70742 | 8.30462 | 79° | 47km/h | 16875m | 5.0m/s | -52.7°C | 0% | 0hPa | 0V | 00:00:00 | 00:00:00 | 00:00:00 | |
| DO3DL | 2026-09-01 13:52:12 | 49.70731 | 8.30409 | 74° | 49km/h | 16860m | 4.4m/s | -52.7°C | 0% | 0hPa | 0V | 00:00:00 | 00:00:00 | 00:00:00 | |
| DL1NUX | 2026-09-01 13:52:11 | 49.70714 | 8.30298 | 75° | 47km/h | 16825m | 5.8m/s | 0°C | 0% | 0hPa | 0V | 00:00:00 | 00:00:00 | 00:00:00 | |
| DF2AP-13 | 2026-09-01 13:52:10 | 49.70724 | 8.30370 | 77° | 46km/h | 16845m | 5.5m/s | 0°C | 0% | 0hPa | 4.7V | 00:00:00 | 00:00:00 | 00:00:00 | |
| SO1NDE-10 | 2026-09-01 13:52:07 | 49.70717 | 8.30316 | 79° | 44km/h | 16830m | 4.0m/s | 0°C | 0% | 0hPa | 4.7V | 00:00:00 | 00:00:00 | 00:00:00 | |
| DL1XH-west | 2026-09-01 13:52:06 | 49.70714 | 8.30298 | 76° | 47km/h | 16830m | 4m/s | -52.8°C | 0% | 0hPa | 4.7V | 00:00:00 | 00:00:00 | 00:00:00 | |
| DO3MHA-11 | 2026-09-01 13:52:06 | 49.70714 | 8.30298 | 76° | 46km/h | 16825m | 5.8m/s | 0°C | 0% | 0hPa | 4.7V | 00:00:00 | 00:00:00 | 00:00:00 | |
| BIOWL1-15 | 2026-09-01 13:52:05 | 49.70706 | 8.30247 | 77° | 46km/h | 16815m | 5.9m/s | -52.7°C | 0% | 0hPa | 4.7V | 00:00:00 | 00:00:00 | 00:00:00 | |
| DD1CC2-15 | 2026-09-01 13:52:04 | 49.70706 | 8.30247 | 78° | 46km/h | 16815m | 5.9m/s | 0°C | 0% | 0hPa | 0V | 00:00:00 | 00:00:00 | 00:00:00 | |
| AU51GT2 | 2026-09-01 13:52:02 | 49.70701 | 8.30211 | 75° | 46km/h | 16805m | 5.9m/s | -52.7°C | -1.0% | -1.0hPa | 0V | 00:00:00 | 00:00:00 | 00:00:00 | |
| DL1NUX | 2026-09-01 13:52:01 | 49.70682 | 8.30129 | 85° | 38km/h | 16775m | 4.5m/s | 0°C | 0% | 0hPa | 0V | 00:00:00 | 00:00:00 | 00:00:00 | |
| DO3DL | 2026-09-01 13:52:00 | 49.70693 | 8.30178 | 69° | 46km/h | 16795m | 6.2m/s | -52.7°C | 0% | 0hPa | 4.7V | 00:00:00 | 00:00:00 | 00:00:00 | |
| DN1GJH-1 | 2026-09-01 13:51:58 | 49.70689 | 8.30161 | 69° | 47km/h | 16790m | 3.7m/s | -52.7°C | 0% | 0hPa | 4.7V | 00:00:00 | 00:00:00 | 00:00:00 | |
| DB0NH | 2026-09-01 13:51:57 | 49.70685 | 8.30144 | 71° | 44km/h | 16780m | 5.1m/s | 0°C | 0% | 0hPa | 4.7V | 00:00:00 | 00:00:00 | 00:00:00 | |
| DO3MHA-11 | 2026-09-01 13:51:56 | 49.70682 | 8.30129 | 86° | 42km/h | 16775m | 4.5m/s | 0°C | 0% | 0hPa | 4.7V | 00:00:00 | 00:00:00 | 00:00:00 | |
| DL1XH-west | 2026-09-01 13:51:55 | 49.70681 | 8.30113 | 85° | 38km/h | 16775m | 4.5m/s | -52.7°C | 0% | 0hPa | 4.7V | 00:00:00 | 00:00:00 | 00:00:00 | |
| DO2KSM | 2026-09-01 13:51:55 | 49.70680 | 8.30097 | 85° | 44km/h | 16770m | 5.2m/s | -52.7°C | 0% | 0hPa | 0V | 00:00:00 | 00:00:00 | 00:00:00 | |
| DM0DOS-11 | 2026-09-01 13:51:54 | 49.70676 | 8.30063 | 75° | 44km/h | 16755m | 4.9m/s | 0°C | 0% | 0hPa | 0V | 00:00:00 | 00:00:00 | 00:00:00 | |
| DO3DL | 2026-09-01 13:51:52 | 49.70675 | 8.30063 | 76° | 44km/h | 16760m | 5.1m/s | -52.7°C | 0% | 0hPa | 0V | 00:00:00 | 00:00:00 | 00:00:00 | |
| DL1NUX | 2026-09-01 13:51:51 | 49.70657 | 8.29969 | 79° | 42km/h | 16726m | 4.6m/s | 0°C | 0% | 0hPa | 0V | 00:00:00 | 00:00:00 | 00:00:00 | |
| DJ3KS | 2026-09-01 13:51:51 | 49.70673 | 8.30047 | 72° | 44km/h | 16755m | 4.9m/s | 0°C | 0% | 0hPa | 0V | 00:00:00 | 00:00:00 | 00:00:00 | |
| DM0DOS-11 | 2026-09-01 13:51:47 | 49.70647 | 8.29899 | 73° | 44km/h | 16706m | 4.8m/s | 0°C | 0% | 0hPa | 0V | 00:00:00 | 00:00:00 | 00:00:00 | |
| DO3MHA-11 | 2026-09-01 13:51:46 | 49.70657 | 8.29969 | 80° | 46km/h | 16726m | 4.6m/s | 0°C | 0% | 0hPa | 4.7V | 00:00:00 | 00:00:00 | 00:00:00 | |
| BIOWL1-15 | 2026-09-01 13:51:45 | 49.70647 | 8.29899 | 74° | 44km/h | 16711m | 4.5m/s | -52.5°C | 0% | 0hPa | 4.7V | 00:00:00 | 00:00:00 | 00:00:00 | |
| DL1XH-west | 2026-09-01 13:51:45 | 49.70652 | 8.29933 | 78° | 47km/h | 16721m | 5.3m/s | -52.6°C | 0% | 0hPa | 4.7V | 00:00:00 | 00:00:00 | 00:00:00 | |
| DD1CC2-15 | 2026-09-01 13:51:43 | 49.70650 | 8.29916 | 78° | 44km/h | 16716m | 4.4m/s | 0°C | 0% | 0hPa | 0V | 00:00:00 | 00:00:00 | 00:00:00 | |
| DL1NUX | 2026-09-01 13:51:41 | 49.70634 | 8.29796 | 75° | 46km/h | 16677m | 5.8m/s | 0°C | 0% | 0hPa | 0V | 00:00:00 | 00:00:00 | 00:00:00 | |
| DF2AP-13 | 2026-09-01 13:51:40 | 49.70640 | 8.29864 | 77° | 44km/h | 16698m | 6.0m/s | 0°C | 0% | 0hPa | 4.7V | 00:00:00 | 00:00:00 | 00:00:00 | |
| DO3DL | 2026-09-01 13:51:39 | 49.70638 | 8.29846 | 81° | 44km/h | 16698m | 6.1m/s | -52.5°C | 0% | 0hPa | 4.7V | 00:00:00 | 00:00:00 | 00:00:00 | |
| SO1NDE-10 | 2026-09-01 13:51:37 | 49.70636 | 8.29814 | 84° | 44km/h | 16682m | 3.9m/s | 0°C | 0% | 0hPa | 4.7V | 00:00:00 | 00:00:00 | 00:00:00 | |
| DO3MHA-11 | 2026-09-01 13:51:36 | 49.70634 | 8.29796 | 76° | 46km/h | 16677m | 5.7m/s | 0°C | 0% | 0hPa | 4.7V | 00:00:00 | 00:00:00 | 00:00:00 | |
| CB1BUN | 2026-09-01 13:51:35 | 49.70632 | 8.29780 | 77° | 44km/h | 16677m | 5.8m/s | -52.3°C | 0% | 0hPa | 4.7V | 00:00:00 | 00:00:00 | 00:00:00 | |
| DL1XH-west | 2026-09-01 13:51:34 | 49.70625 | 8.29748 | 71° | 46km/h | 16667m | 5.8m/s | -52.2°C | 0% | 0hPa | 4.7V | 00:00:00 | 00:00:00 | 00:00:00 | |
| DO2KSM | 2026-09-01 13:51:33 | 49.70625 | 8.29748 | 72° | 46km/h | 16667m | 5.8m/s | -52.2°C | 0% | 0hPa | 4.7V | 00:00:00 | 00:00:00 | 00:00:00 | |
| BIOWL1-15 | 2026-09-01 13:51:32 | 49.70619 | 8.29712 | 78° | 47km/h | 16658m | 5.6m/s | -52.2°C | 0% | 0hPa | 4.7V | 00:00:00 | 00:00:00 | 00:00:00 | |
| DL1NUX | 2026-09-01 13:51:31 | 49.70612 | 8.29627 | 77° | 42km/h | 16627m | 6m/s | 0°C | 0% | 0hPa | 0V | 00:00:00 | 00:00:00 | 00:00:00 | |
| DJTTGO | 2026-09-01 13:51:30 | 49.70617 | 8.29695 | 86° | 44km/h | 16653m | 4.4m/s | -52.2°C | 0% | 0hPa | 4.7V | 00:00:00 | 00:00:00 | 00:00:00 | |
| DO3DL | 2026-09-01 13:51:27 | 49.70612 | 8.29627 | 78° | 42km/h | 16633m | 4.8m/s | -52.1°C | 0% | 0hPa | 4.7V | 00:00:00 | 00:00:00 | 00:00:00 | |
| DO3MHA-11 | 2026-09-01 13:51:26 | 49.70612 | 8.29627 | 78° | 46km/h | 16627m | 5.9m/s | 0°C | 0% | 0hPa | 4.7V | 00:00:00 | 00:00:00 | 00:00:00 | |
| DF1GD-15 | 2026-09-01 13:51:24 | 49.70606 | 8.29594 | 74° | 47km/h | 16623m | 3.8m/s | -52.1°C | 0% | 0hPa | 4.7V | 00:00:00 | 00:00:00 | 00:00:00 | |
| BIOWL1-15 | 2026-09-01 13:51:23 | 49.70602 | 8.29541 | 92° | 44km/h | 16608m | 4.2m/s | -52°C | 0% | 0hPa | 4.7V | 00:00:00 | 00:00:00 | 00:00:00 | |
| DM0DOS-11 | 2026-09-01 13:51:23 | 49.70602 | 8.29558 | 88° | 44km/h | 16608m | 4.2m/s | 0°C | 0% | 0hPa | 0V | 00:00:00 | 00:00:00 | 00:00:00 | |
| DL1XH-west | 2026-09-01 13:51:23 | 49.70602 | 8.29558 | 89° | 44km/h | 16613m | 4.7m/s | -52.1°C | 0% | 0hPa | 4.7V | 00:00:00 | 00:00:00 | 00:00:00 | |
| DL1NUX | 2026-09-01 13:51:21 | 49.70593 | 8.29456 | 81° | 42km/h | 16580m | 4.9m/s | 0°C | 0% | 0hPa | 0V | 00:00:00 | 00:00:00 | 00:00:00 | |
| DO3DL | 2026-09-01 13:51:20 | 49.70601 | 8.29523 | 87° | 46km/h | 16604m | 5.2m/s | -52.0°C | 0% | 0hPa | 0V | 00:00:00 | 00:00:00 | 00:00:00 | |
| DM0DOS-11 | 2026-09-01 13:51:17 | 49.70589 | 8.29391 | 87° | 40km/h | 16561m | 5.5m/s | 0°C | 0% | 0hPa | 0V | 00:00:00 | 00:00:00 | 00:00:00 | |
| DO3MHA-11 | 2026-09-01 13:51:16 | 49.70593 | 8.29456 | 82° | 44km/h | 16580m | 4.8m/s | 0°C | 0% | 0hPa | 4.7V | 00:00:00 | 00:00:00 | 00:00:00 | |
| CB1BUN | 2026-09-01 13:51:15 | 49.70592 | 8.29440 | 82° | 44km/h | 16580m | 4.9m/s | -51.9°C | 0% | 0hPa | 4.7V | 00:00:00 | 00:00:00 | 00:00:00 | |
| DO3DL | 2026-09-01 13:51:14 | 49.70590 | 8.29423 | 85° | 42km/h | 16575m | 4.7m/s | -51.9°C | 0% | 0hPa | 4.7V | 00:00:00 | 00:00:00 | 00:00:00 | |
| DL1XH-west | 2026-09-01 13:51:13 | 49.70589 | 8.29391 | 88° | 42km/h | 16566m | 3.8m/s | -51.8°C | 0% | 0hPa | 4.7V | 00:00:00 | 00:00:00 | 00:00:00 | |
| DO2KSM | 2026-09-01 13:51:12 | 49.70589 | 8.29391 | 88° | 42km/h | 16566m | 3.8m/s | -51.8°C | 0% | 0hPa | 4.7V | 00:00:00 | 00:00:00 | 00:00:00 | |
| BIOWL1-15 | 2026-09-01 13:51:11 | 49.70586 | 8.29356 | 81° | 47km/h | 16556m | 4.5m/s | -51.8°C | 0% | 0hPa | 4.7V | 00:00:00 | 00:00:00 | 00:00:00 | |
| DL1NUX | 2026-09-01 13:51:11 | 49.70583 | 8.29280 | 92° | 47km/h | 16531m | 5.9m/s | 0°C | 0% | 0hPa | 0V | 00:00:00 | 00:00:00 | 00:00:00 | |
| DF2AP-13 | 2026-09-01 13:51:10 | 49.70586 | 8.29356 | 82° | 49km/h | 16551m | 5.5m/s | 0°C | 0% | 0hPa | 0V | 00:00:00 | 00:00:00 | 00:00:00 | |
| SO1NDE-10 | 2026-09-01 13:51:07 | 49.70584 | 8.29300 | 88° | 49km/h | 16536m | 4.4m/s | 0°C | 0% | 0hPa | 0V | 00:00:00 | 00:00:00 | 00:00:00 | |
| DO3MHA-11 | 2026-09-01 13:51:06 | 49.70583 | 8.29280 | 93° | 46km/h | 16531m | 5.9m/s | 0°C | 0% | 0hPa | 0V | 00:00:00 | 00:00:00 | 00:00:00 | |
| DM0DOS-11 | 2026-09-01 13:51:05 | 49.70584 | 8.29213 | 82° | 46km/h | 16511m | 5.6m/s | 0°C | 0% | 0hPa | 0V | 00:00:00 | 00:00:00 | 00:00:00 | |
| DF1GD-15 | 2026-09-01 13:51:04 | 49.70584 | 8.29247 | 97° | 42km/h | 16526m | 4.1m/s | -52.0°C | 0% | 0hPa | 4.7V | 00:00:00 | 00:00:00 | 00:00:00 | |
| DJTTGO | 2026-09-01 13:51:03 | 49.70585 | 8.29230 | 93° | 42km/h | 16521m | 5.5m/s | -52.0°C | 0% | 0hPa | 4.7V | 00:00:00 | 00:00:00 | 00:00:00 | |
| DL1XH-west | 2026-09-01 13:51:02 | 49.70583 | 8.29196 | 82° | 46km/h | 16511m | 5.6m/s | -52°C | 0% | 0hPa | 4.7V | 00:00:00 | 00:00:00 | 00:00:00 | |
| BIOWL1-15 | 2026-09-01 13:51:01 | 49.70577 | 8.29122 | 86° | 49km/h | 16491m | 4.7m/s | -52.1°C | 0% | 0hPa | 4.7V | 00:00:00 | 00:00:00 | 00:00:00 | |
| DB0NH | 2026-09-01 13:50:57 | 49.70577 | 8.29122 | 86° | 49km/h | 16486m | 4.8m/s | 0°C | 0% | 0hPa | 0V | 00:00:00 | 00:00:00 | 00:00:00 | |
| DO3MHA-11 | 2026-09-01 13:50:56 | 49.70577 | 8.29103 | 91° | 49km/h | 16482m | 4.4m/s | 0°C | 0% | 0hPa | 0V | 00:00:00 | 00:00:00 | 00:00:00 | |
| DO3DL | 2026-09-01 13:50:54 | 49.70576 | 8.29068 | 87° | 49km/h | 16477m | 5.3m/s | -52.0°C | 0% | 0hPa | 0V | 00:00:00 | 00:00:00 | 00:00:00 | |
| DM0DOS-11 | 2026-09-01 13:50:53 | 49.70573 | 8.29029 | 79° | 49km/h | 16463m | 3.5m/s | 0°C | 0% | 0hPa | 0V | 00:00:00 | 00:00:00 | 00:00:00 | |
| DL1NUX | 2026-09-01 13:50:51 | 49.70557 | 8.28914 | 83° | 47km/h | 16434m | 4.8m/s | 0°C | 0% | 0hPa | 0V | 00:00:00 | 00:00:00 | 00:00:00 | |
| DL1XH-west | 2026-09-01 13:50:51 | 49.70567 | 8.28991 | 75° | 53km/h | 16458m | 5.6m/s | -52°C | 0% | 0hPa | 4.7V | 00:00:00 | 00:00:00 | 00:00:00 | |
| BIOWL1-15 | 2026-09-01 13:50:50 | 49.70561 | 8.28950 | 78° | 51km/h | 16448m | 5.7m/s | -52°C | 0% | 0hPa | 4.7V | 00:00:00 | 00:00:00 | 00:00:00 | |
| DO3DL | 2026-09-01 13:50:48 | 49.70560 | 8.28950 | 79° | 51km/h | 16448m | 5.7m/s | -52.0°C | 0% | 0hPa | 0V | 00:00:00 | 00:00:00 | 00:00:00 | |
| DM0DOS-11 | 2026-09-01 13:50:47 | 49.70549 | 8.28834 | 73° | 55km/h | 16415m | 4.2m/s | 0°C | 0% | 0hPa | 0V | 00:00:00 | 00:00:00 | 00:00:00 | |
| DO3MHA-11 | 2026-09-01 13:50:46 | 49.70557 | 8.28914 | 84° | 51km/h | 16434m | 4.8m/s | 0°C | 0% | 0hPa | 0V | 00:00:00 | 00:00:00 | 00:00:00 | |
| HEMX73-11 | 2026-09-01 13:50:45 | 49.70555 | 8.28894 | 84° | 53km/h | 16434m | 4.8m/s | -52.1°C | 0% | 0hPa | 0V | 00:00:00 | 00:00:00 | 00:00:00 | |
| DF1GD-15 | 2026-09-01 13:50:43 | 49.70552 | 8.28854 | 78° | 51km/h | 16424m | 4.4m/s | -52.2°C | 0% | 0hPa | 0V | 00:00:00 | 00:00:00 | 00:00:00 | |
| DL1NUX | 2026-09-01 13:50:41 | 49.70524 | 8.28718 | 76° | 51km/h | 16385m | 5.5m/s | 0°C | 0% | 0hPa | 0V | 00:00:00 | 00:00:00 | 00:00:00 | |
| DL1XH-west | 2026-09-01 13:50:40 | 49.70535 | 8.28773 | 72° | 49km/h | 16404m | 4.8m/s | -52.1°C | 0% | 0hPa | 4.7V | 00:00:00 | 00:00:00 | 00:00:00 | |
| SO1NDE-10 | 2026-09-01 13:50:37 | 49.70528 | 8.28737 | 73° | 44km/h | 16391m | 4.7m/s | 0°C | 0% | 0hPa | 0V | 00:00:00 | 00:00:00 | 00:00:00 | |
| DO3MHA-11 | 2026-09-01 13:50:36 | 49.70524 | 8.28718 | 77° | 47km/h | 16385m | 5.5m/s | 0°C | 0% | 0hPa | 0V | 00:00:00 | 00:00:00 | 00:00:00 | |
| DO3DL | 2026-09-01 13:50:35 | 49.70521 | 8.28700 | 78° | 47km/h | 16385m | 5.5m/s | -52.1°C | 0% | 0hPa | 0V | 00:00:00 | 00:00:00 | 00:00:00 | |
| DM0DOS-11 | 2026-09-01 13:50:35 | 49.70512 | 8.28644 | 68° | 49km/h | 16367m | 5.7m/s | 0°C | 0% | 0hPa | 0V | 00:00:00 | 00:00:00 | 00:00:00 | |
| CB1BUN | 2026-09-01 13:50:34 | 49.70519 | 8.28682 | 79° | 47km/h | 16381m | 3.0m/s | -52.0°C | 0% | 0hPa | 0V | 00:00:00 | 00:00:00 | 00:00:00 | |
| DL1NUX | 2026-09-01 13:50:31 | 49.70490 | 8.28540 | 80° | 47km/h | 16339m | 4.2m/s | 0°C | 0% | 0hPa | 0V | 00:00:00 | 00:00:00 | 00:00:00 | |
| BIOWL1-15 | 2026-09-01 13:50:29 | 49.70500 | 8.28596 | 71° | 44km/h | 16358m | 5m/s | -52°C | 0% | 0hPa | 4.7V | 00:00:00 | 00:00:00 | 00:00:00 | |
| DD1CC2-15 | 2026-09-01 13:50:29 | 49.70499 | 8.28595 | 72° | 44km/h | 16358m | 5.0m/s | 0°C | 0% | 0hPa | 0V | 00:00:00 | 00:00:00 | 00:00:00 | |
| DO3DL | 2026-09-01 13:50:28 | 49.70495 | 8.28578 | 72° | 51km/h | 16353m | 4.8m/s | -52.0°C | 0% | 0hPa | 0V | 00:00:00 | 00:00:00 | 00:00:00 | |
| DB0NH | 2026-09-01 13:50:27 | 49.70492 | 8.28558 | 81° | 42km/h | 16344m | 4.8m/s | 0°C | 0% | 0hPa | 0V | 00:00:00 | 00:00:00 | 00:00:00 | |
| DO3MHA-11 | 2026-09-01 13:50:26 | 49.70489 | 8.28540 | 81° | 44km/h | 16339m | 4.2m/s | 0°C | 0% | 0hPa | 0V | 00:00:00 | 00:00:00 | 00:00:00 | |
| HEMX73-11 | 2026-09-01 13:50:24 | 49.70485 | 8.28504 | 77° | 47km/h | 16335m | 4.6m/s | -51.9°C | 0% | 0hPa | 0V | 00:00:00 | 00:00:00 | 00:00:00 | |
| DM0DOS-11 | 2026-09-01 13:50:23 | 49.70479 | 8.28472 | 70° | 38km/h | 16321m | 3.8m/s | 0°C | 0% | 0hPa | 0V | 00:00:00 | 00:00:00 | 00:00:00 | |
| DO3DL | 2026-09-01 13:50:22 | 49.70479 | 8.28472 | 72° | 38km/h | 16325m | 5.3m/s | -51.9°C | 0% | 0hPa | 0V | 00:00:00 | 00:00:00 | 00:00:00 | |
| DL1NUX | 2026-09-01 13:50:21 | 49.70461 | 8.28379 | 74° | 42km/h | 16294m | 4.6m/s | 0°C | 0% | 0hPa | 0V | 00:00:00 | 00:00:00 | 00:00:00 | |
| DJ3KS | 2026-09-01 13:50:19 | 49.70469 | 8.28427 | 73° | 44km/h | 16312m | 3.2m/s | 0°C | 0% | 0hPa | 4.7V | 00:00:00 | 00:00:00 | 00:00:00 | |
| DL1XH-west | 2026-09-01 13:50:18 | 49.70465 | 8.28410 | 76° | 42km/h | 16308m | 4.9m/s | -51.8°C | 0% | 0hPa | 4.7V | 00:00:00 | 00:00:00 | 00:00:00 | |
| DM0DOS-11 | 2026-09-01 13:50:17 | 49.70451 | 8.28312 | 70° | 44km/h | 16277m | 3.5m/s | 0°C | 0% | 0hPa | 0V | 00:00:00 | 00:00:00 | 00:00:00 | |
| DO3DL | 2026-09-01 13:50:16 | 49.70457 | 8.28362 | 76° | 44km/h | 16295m | 4.6m/s | -51.7°C | 0% | 0hPa | 4.8V | 00:00:00 | 00:00:00 | 00:00:00 | |
| DN1GJH-1 | 2026-09-01 13:50:15 | 49.70457 | 8.28362 | 76° | 44km/h | 16295m | 4.6m/s | -51.7°C | 0% | 0hPa | 4.8V | 00:00:00 | 00:00:00 | 00:00:00 | |
| CB1BUN | 2026-09-01 13:50:14 | 49.70453 | 8.28330 | 81° | 42km/h | 16286m | 2.7m/s | -51.7°C | 0% | 0hPa | 4.8V | 00:00:00 | 00:00:00 | 00:00:00 | |
| BIOWL1-15 | 2026-09-01 13:50:12 | 49.70432 | 8.28196 | 74° | 46km/h | 16244m | 5m/s | -51.5°C | 0% | 0hPa | 4.8V | 00:00:00 | 00:00:00 | 00:00:00 | |
| DJTTGO | 2026-09-01 13:50:10 | 49.70442 | 8.28269 | 82° | 33km/h | 16268m | 4.8m/s | -51.6°C | 0% | 0hPa | 4.8V | 00:00:00 | 00:00:00 | 00:00:00 | |
| DO3DL | 2026-09-01 13:50:09 | 49.70442 | 8.28269 | 82° | 33km/h | 16268m | 4.8m/s | -51.6°C | 0% | 0hPa | 4.8V | 00:00:00 | 00:00:00 | 00:00:00 | |
| DL1XH-west | 2026-09-01 13:50:08 | 49.70439 | 8.28243 | 78° | 37km/h | 16258m | 4m/s | -51.6°C | 0% | 0hPa | 4.8V | 00:00:00 | 00:00:00 | 00:00:00 | |
| SO1NDE-10 | 2026-09-01 13:50:07 | 49.70439 | 8.28243 | 78° | 40km/h | 16254m | 5.4m/s | 0°C | 0% | 0hPa | 0V | 00:00:00 | 00:00:00 | 00:00:00 | |
| DO3MHA-11 | 2026-09-01 13:50:06 | 49.70437 | 8.28229 | 79° | 40km/h | 16249m | 4.1m/s | 0°C | 0% | 0hPa | 0V | 00:00:00 | 00:00:00 | 00:00:00 | |
| DM0DOS-11 | 2026-09-01 13:50:05 | 49.70428 | 8.28162 | 85° | 42km/h | 16231m | 2.8m/s | 0°C | 0% | 0hPa | 0V | 00:00:00 | 00:00:00 | 00:00:00 | |
| HEMX73-11 | 2026-09-01 13:50:04 | 49.70432 | 8.28196 | 75° | 46km/h | 16244m | 5.0m/s | -51.5°C | 0% | 0hPa | 4.8V | 00:00:00 | 00:00:00 | 00:00:00 | |
| DO3DL | 2026-09-01 13:50:03 | 49.70430 | 8.28179 | 78° | 46km/h | 16239m | 4.8m/s | -51.5°C | 0% | 0hPa | 4.8V | 00:00:00 | 00:00:00 | 00:00:00 | |
| DL9SK-14 | 2026-09-01 13:50:02 | 49.70427 | 8.28146 | 90° | 37km/h | 16231m | 2.8m/s | -51.4°C | -1.0% | -1.0hPa | 4.8V | 00:00:00 | 00:00:00 | 00:00:00 | |
| DL8DAS-15 | 2026-09-01 13:50:00 | 49.70427 | 8.28132 | 87° | 37km/h | 16227m | 5.4m/s | -51.4°C | 0% | 0hPa | 4.8V | 00:00:00 | 00:00:00 | 00:00:00 | |
| BIOWL1-15 | 2026-09-01 13:49:57 | 49.70423 | 8.28089 | 85° | 38km/h | 16213m | 4.6m/s | -51.3°C | 0% | 0hPa | 4.8V | 00:00:00 | 00:00:00 | 00:00:00 | |
| DL1XH-west | 2026-09-01 13:49:57 | 49.70422 | 8.28074 | 80° | 38km/h | 16208m | 5.3m/s | -51.2°C | 0% | 0hPa | 4.8V | 00:00:00 | 00:00:00 | 00:00:00 | |
| DO3MHA-11 | 2026-09-01 13:49:56 | 49.70422 | 8.28074 | 81° | 40km/h | 16203m | 4.2m/s | 0°C | 0% | 0hPa | 0V | 00:00:00 | 00:00:00 | 00:00:00 | |
| DN1GJH-1 | 2026-09-01 13:49:55 | 49.70420 | 8.28058 | 78° | 40km/h | 16203m | 4.2m/s | -51.2°C | 0% | 0hPa | 0V | 00:00:00 | 00:00:00 | 00:00:00 | |
| DM0DOS-11 | 2026-09-01 13:49:53 | 49.70418 | 8.28012 | 89° | 38km/h | 16184m | 4.2m/s | 0°C | 0% | 0hPa | 0V | 00:00:00 | 00:00:00 | 00:00:00 | |
| CB1BUN | 2026-09-01 13:49:53 | 49.70418 | 8.28027 | 91° | 40km/h | 16194m | 3.5m/s | -51.2°C | 0% | 0hPa | 0V | 00:00:00 | 00:00:00 | 00:00:00 | |
| DL1NUX | 2026-09-01 13:49:51 | 49.70417 | 8.27917 | 85° | 44km/h | 16157m | 4.2m/s | 0°C | 0% | 0hPa | 0V | 00:00:00 | 00:00:00 | 00:00:00 | |
| DM0DOS-11 | 2026-09-01 13:49:47 | 49.70419 | 8.27849 | 96° | 42km/h | 16140m | 5.3m/s | 0°C | 0% | 0hPa | 0V | 00:00:00 | 00:00:00 | 00:00:00 | |
| DL1XH-west | 2026-09-01 13:49:46 | 49.70417 | 8.27917 | 85° | 44km/h | 16162m | 5.1m/s | -51°C | 0% | 0hPa | 4.8V | 00:00:00 | 00:00:00 | 00:00:00 | |
| DO3MHA-11 | 2026-09-01 13:49:46 | 49.70417 | 8.27917 | 86° | 42km/h | 16157m | 4.2m/s | 0°C | 0% | 0hPa | 0V | 00:00:00 | 00:00:00 | 00:00:00 | |
| NBG1-10 | 2026-09-01 13:49:43 | 49.70418 | 8.27865 | 92° | 47km/h | 16136m | 3.8m/s | 0°C | 0% | 0hPa | 0V | 00:00:00 | 00:00:00 | 00:00:00 | |
| DL1NUX | 2026-09-01 13:49:41 | 49.70422 | 8.27754 | 101° | 38km/h | 16113m | 3.6m/s | 0°C | 0% | 0hPa | 0V | 00:00:00 | 00:00:00 | 00:00:00 | |
| DF2AP-13 | 2026-09-01 13:49:40 | 49.70421 | 8.27815 | 96° | 47km/h | 16132m | 4.5m/s | 0°C | 0% | 0hPa | 4.8V | 00:00:00 | 00:00:00 | 00:00:00 | |
| DD1CC2-15 | 2026-09-01 13:49:38 | 49.70422 | 8.27783 | 88° | 40km/h | 16127m | 4.9m/s | 0°C | 0% | 0hPa | 4.8V | 00:00:00 | 00:00:00 | 00:00:00 | |
| SO1NDE-10 | 2026-09-01 13:49:37 | 49.70422 | 8.27768 | 89° | 47km/h | 16118m | 4.4m/s | 0°C | 0% | 0hPa | 4.8V | 00:00:00 | 00:00:00 | 00:00:00 | |
| DO3MHA-11 | 2026-09-01 13:49:36 | 49.70422 | 8.27754 | 102° | 47km/h | 16114m | 3.6m/s | 0°C | 0% | 0hPa | 4.8V | 00:00:00 | 00:00:00 | 00:00:00 | |
| BIOWL1-15 | 2026-09-01 13:49:35 | 49.70424 | 8.27738 | 102° | 38km/h | 16113m | 3.6m/s | -51.2°C | 0% | 0hPa | 4.8V | 00:00:00 | 00:00:00 | 00:00:00 | |
| DM0DOS-11 | 2026-09-01 13:49:35 | 49.70430 | 8.27687 | 104° | 51km/h | 16096m | 4.4m/s | 0°C | 0% | 0hPa | 0V | 00:00:00 | 00:00:00 | 00:00:00 | |
| HTAHTA | 2026-09-01 13:49:35 | 49.70428 | 8.27706 | 100° | 46km/h | 16105m | 3.1m/s | -51.2°C | -1.0% | -1.0hPa | 4.8V | 00:00:00 | 00:00:00 | 00:00:00 | |
| DL1ZP-14 | 2026-09-01 13:49:34 | 49.70428 | 8.27706 | 100° | 46km/h | 16105m | 3.1m/s | -51.2°C | -1.0% | -1.0hPa | 4.8V | 00:00:00 | 00:00:00 | 00:00:00 | |
| THATR2-17 | 2026-09-01 13:49:32 | 49.70446 | 8.27283 | 91° | 53km/h | 16012m | 0m/s | 0°C | 0% | 0hPa | 0V | 00:00:00 | 00:00:00 | 00:00:00 | |
| DL1NUX | 2026-09-01 13:49:31 | 49.70439 | 8.27573 | 94° | 42km/h | 16070m | 3.6m/s | 0°C | 0% | 0hPa | 0V | 00:00:00 | 00:00:00 | 00:00:00 | |
| DB0NH | 2026-09-01 13:49:27 | 49.70438 | 8.27590 | 95° | 51km/h | 16074m | 4.8m/s | 0°C | 0% | 0hPa | 4.8V | 00:00:00 | 00:00:00 | 00:00:00 | |
| DL1XH-west | 2026-09-01 13:49:24 | 49.70440 | 8.27538 | 94° | 47km/h | 16066m | 4.7m/s | -51.6°C | 0% | 0hPa | 4.8V | 00:00:00 | 00:00:00 | 00:00:00 | |
| DM0DOS-11 | 2026-09-01 13:49:24 | 49.70443 | 8.27499 | 98° | 51km/h | 16053m | 4m/s | 0°C | 0% | 0hPa | 0V | 00:00:00 | 00:00:00 | 00:00:00 | |
| HEMX73-11 | 2026-09-01 13:49:23 | 49.70441 | 8.27519 | 100° | 51km/h | 16061m | 4.7m/s | -51.6°C | 0% | 0hPa | 0V | 00:00:00 | 00:00:00 | 00:00:00 | |
| DL1NUX | 2026-09-01 13:49:21 | 49.70447 | 8.27387 | 86° | 47km/h | 16029m | 4m/s | 0°C | 0% | 0hPa | 0V | 00:00:00 | 00:00:00 | 00:00:00 | |
| DD1CC2-15 | 2026-09-01 13:49:17 | 49.70447 | 8.27403 | 92° | 47km/h | 16037m | 4.6m/s | 0°C | 0% | 0hPa | 4.8V | 00:00:00 | 00:00:00 | 00:00:00 | |
| DO3MHA-11 | 2026-09-01 13:49:16 | 49.70447 | 8.27387 | 87° | 51km/h | 16029m | 3.9m/s | 0°C | 0% | 0hPa | 4.8V | 00:00:00 | 00:00:00 | 00:00:00 | |
| DL1XH-west | 2026-09-01 13:49:14 | 49.70446 | 8.27325 | 92° | 55km/h | 16020m | 4.8m/s | -51.8°C | 0% | 0hPa | 4.8V | 00:00:00 | 00:00:00 | 00:00:00 | |
| DO3DL | 2026-09-01 13:49:13 | 49.70446 | 8.27304 | 91° | 55km/h | 16016m | 3.5m/s | -51.8°C | 0% | 0hPa | 0V | 00:00:00 | 00:00:00 | 00:00:00 | |
| CB1BUN | 2026-09-01 13:49:12 | 49.70446 | 8.27304 | 91° | 55km/h | 16016m | 3.5m/s | -51.8°C | 0% | 0hPa | 0V | 00:00:00 | 00:00:00 | 00:00:00 | |
| DL1NUX | 2026-09-01 13:49:11 | 49.70443 | 8.27183 | 85° | 58km/h | 15986m | 4.1m/s | 0°C | 0% | 0hPa | 0V | 00:00:00 | 00:00:00 | 00:00:00 | |
| NBG1-10 | 2026-09-01 13:49:10 | 49.70447 | 8.27262 | 90° | 55km/h | 16004m | 4.6m/s | 0°C | 0% | 0hPa | 4.8V | 00:00:00 | 00:00:00 | 00:00:00 | |
| DO3DL | 2026-09-01 13:49:07 | 49.70443 | 8.27183 | 86° | 58km/h | 15990m | 3.7m/s | -52.1°C | 0% | 0hPa | 4.8V | 00:00:00 | 00:00:00 | 00:00:00 | |
| DO3MHA-11 | 2026-09-01 13:49:06 | 49.70443 | 8.27183 | 86° | 57km/h | 15986m | 4.0m/s | 0°C | 0% | 0hPa | 4.8V | 00:00:00 | 00:00:00 | 00:00:00 | |
| BIOWL1-15 | 2026-09-01 13:49:03 | 49.70439 | 8.27114 | 87° | 57km/h | 15979m | 2.8m/s | -52.3°C | 0% | 0hPa | 4.8V | 00:00:00 | 00:00:00 | 00:00:00 | |
| HEMX73-11 | 2026-09-01 13:49:02 | 49.70439 | 8.27092 | 94° | 57km/h | 15975m | 5.3m/s | -52.3°C | 0% | 0hPa | 0V | 00:00:00 | 00:00:00 | 00:00:00 | |
| DL1NUX | 2026-09-01 13:49:01 | 49.70440 | 8.26966 | 85° | 57km/h | 15943m | 3.5m/s | 0°C | 0% | 0hPa | 0V | 00:00:00 | 00:00:00 | 00:00:00 | |
| DO3DL | 2026-09-01 13:49:01 | 49.70441 | 8.27049 | 95° | 53km/h | 15966m | 4.9m/s | -52.2°C | 0% | 0hPa | 0V | 00:00:00 | 00:00:00 | 00:00:00 | |
| DF1GD-15 | 2026-09-01 13:49:00 | 49.70441 | 8.27049 | 95° | 53km/h | 15966m | 4.9m/s | -52.2°C | 0% | 0hPa | 0V | 00:00:00 | 00:00:00 | 00:00:00 | |
| DO3MHA-11 | 2026-09-01 13:48:56 | 49.70440 | 8.26966 | 86° | 55km/h | 15944m | 3.4m/s | 0°C | 0% | 0hPa | 0V | 00:00:00 | 00:00:00 | 00:00:00 | |
| DD1CC2-15 | 2026-09-01 13:48:55 | 49.70439 | 8.26944 | 85° | 55km/h | 15944m | 3.5m/s | 0°C | 0% | 0hPa | 0V | 00:00:00 | 00:00:00 | 00:00:00 | |
| DO3DL | 2026-09-01 13:48:54 | 49.70438 | 8.26923 | 92° | 55km/h | 15940m | 5.0m/s | -52.1°C | 0% | 0hPa | 0V | 00:00:00 | 00:00:00 | 00:00:00 | |
| DM0DOS-11 | 2026-09-01 13:48:53 | 49.70441 | 8.26882 | 98° | 53km/h | 15926m | 3.2m/s | 0°C | 0% | 0hPa | 0V | 00:00:00 | 00:00:00 | 00:00:00 | |
| DL1XH-west | 2026-09-01 13:48:52 | 49.70441 | 8.26882 | 98° | 53km/h | 15930m | 5.1m/s | -52.2°C | 0% | 0hPa | 4.8V | 00:00:00 | 00:00:00 | 00:00:00 | |
| CB1BUN | 2026-09-01 13:48:52 | 49.70443 | 8.26862 | 96° | 51km/h | 15926m | 3.2m/s | -52.2°C | 0% | 0hPa | 0V | 00:00:00 | 00:00:00 | 00:00:00 | |
| DL1NUX | 2026-09-01 13:48:51 | 49.70446 | 8.26748 | 94° | 57km/h | 15901m | 4.2m/s | 0°C | 0% | 0hPa | 0V | 00:00:00 | 00:00:00 | 00:00:00 | |
| DJTTGO | 2026-09-01 13:48:49 | 49.70445 | 8.26820 | 97° | 58km/h | 15918m | 4.1m/s | -52.2°C | 0% | 0hPa | 4.8V | 00:00:00 | 00:00:00 | 00:00:00 | |
| DO3DL | 2026-09-01 13:48:47 | 49.70447 | 8.26773 | 90° | 58km/h | 15910m | 4.6m/s | -52.3°C | 0% | 0hPa | 4.8V | 00:00:00 | 00:00:00 | 00:00:00 | |
| DM0DOS-11 | 2026-09-01 13:48:47 | 49.70448 | 8.26672 | 94° | 49km/h | 15885m | 4.5m/s | 0°C | 0% | 0hPa | 0V | 00:00:00 | 00:00:00 | 00:00:00 | |
| DO3MHA-11 | 2026-09-01 13:48:46 | 49.70446 | 8.26751 | 93° | 53km/h | 15901m | 4.1m/s | 0°C | 0% | 0hPa | 4.8V | 00:00:00 | 00:00:00 | 00:00:00 | |
| BIOWL1-15 | 2026-09-01 13:48:42 | 49.70448 | 8.26670 | 91° | 49km/h | 15889m | 3.5m/s | -52.3°C | 0% | 0hPa | 4.8V | 00:00:00 | 00:00:00 | 00:00:00 | |
| DL1XH-west | 2026-09-01 13:48:42 | 49.70449 | 8.26650 | 95° | 53km/h | 15885m | 4.5m/s | -52.4°C | 0% | 0hPa | 4.8V | 00:00:00 | 00:00:00 | 00:00:00 | |
| DO3DL | 2026-09-01 13:48:41 | 49.70449 | 8.26650 | 96° | 53km/h | 15885m | 4.5m/s | -52.4°C | 0% | 0hPa | 0V | 00:00:00 | 00:00:00 | 00:00:00 | |
| DF2AP-13 | 2026-09-01 13:48:40 | 49.70451 | 8.26629 | 94° | 51km/h | 15881m | 2.8m/s | 0°C | 0% | 0hPa | 0V | 00:00:00 | 00:00:00 | 00:00:00 | |
| DL1NUX | 2026-09-01 13:48:39 | 49.70446 | 8.26503 | 87° | 53km/h | 15851m | 4.7m/s | 0°C | 0% | 0hPa | 0V | 00:00:00 | 00:00:00 | 00:00:00 | |
| SO1NDE-10 | 2026-09-01 13:48:37 | 49.70447 | 8.26564 | 85° | 51km/h | 15864m | 3.7m/s | 0°C | 0% | 0hPa | 0V | 00:00:00 | 00:00:00 | 00:00:00 | |
| DO3MHA-11 | 2026-09-01 13:48:36 | 49.70447 | 8.26543 | 89° | 51km/h | 15859m | 5.0m/s | 0°C | 0% | 0hPa | 0V | 00:00:00 | 00:00:00 | 00:00:00 | |
| DM0DOS-11 | 2026-09-01 13:48:35 | 49.70447 | 8.26462 | 94° | 55km/h | 15843m | 3.9m/s | 0°C | 0% | 0hPa | 0V | 00:00:00 | 00:00:00 | 00:00:00 | |
| DO3DL | 2026-09-01 13:48:34 | 49.70446 | 8.26503 | 88° | 53km/h | 15855m | 3.2m/s | -52.6°C | 0% | 0hPa | 4.8V | 00:00:00 | 00:00:00 | 00:00:00 | |
| BIOWL1-15 | 2026-09-01 13:48:32 | 49.70447 | 8.26441 | 91° | 53km/h | 15843m | 3.9m/s | -52.6°C | 0% | 0hPa | 4.8V | 00:00:00 | 00:00:00 | 00:00:00 | |
| DL1XH-west | 2026-09-01 13:48:31 | 49.70447 | 8.26420 | 82° | 51km/h | 15838m | 4.7m/s | -52.6°C | 0% | 0hPa | 4.8V | 00:00:00 | 00:00:00 | 00:00:00 | |
| DL1NUX | 2026-09-01 13:48:29 | 49.70437 | 8.26313 | 92° | 47km/h | 15808m | 4.3m/s | 0°C | 0% | 0hPa | 0V | 00:00:00 | 00:00:00 | 00:00:00 | |
| DD1CC2-15 | 2026-09-01 13:48:29 | 49.70442 | 8.26383 | 82° | 46km/h | 15829m | 4.2m/s | 0°C | 0% | 0hPa | 4.8V | 00:00:00 | 00:00:00 | 00:00:00 | |
| DO3DL | 2026-09-01 13:48:28 | 49.70442 | 8.26383 | 82° | 46km/h | 15829m | 4.2m/s | -52.7°C | 0% | 0hPa | 4.8V | 00:00:00 | 00:00:00 | 00:00:00 | |
| DB0NH | 2026-09-01 13:48:27 | 49.70440 | 8.26366 | 80° | 53km/h | 15821m | 4.0m/s | 0°C | 0% | 0hPa | 4.8V | 00:00:00 | 00:00:00 | 00:00:00 | |
| DO3MHA-11 | 2026-09-01 13:48:26 | 49.70439 | 8.26349 | 80° | 47km/h | 15817m | 4.5m/s | 0°C | 0% | 0hPa | 4.8V | 00:00:00 | 00:00:00 | 00:00:00 | |
| DB0UT-7 | 2026-09-01 13:48:25 | 49.70437 | 8.26332 | 85° | 53km/h | 15812m | 4.5m/s | 0°C | 0% | 0hPa | 4.8V | 00:00:00 | 00:00:00 | 00:00:00 | |
| BIOWL1-15 | 2026-09-01 13:48:24 | 49.70436 | 8.26240 | 91° | 47km/h | 15794m | 4.5m/s | -52.6°C | 0% | 0hPa | 4.8V | 00:00:00 | 00:00:00 | 00:00:00 | |
| DM0DOS-11 | 2026-09-01 13:48:23 | 49.70437 | 8.26276 | 87° | 46km/h | 15798m | 4.5m/s | 0°C | 0% | 0hPa | 0V | 00:00:00 | 00:00:00 | 00:00:00 | |
| DO3DL | 2026-09-01 13:48:22 | 49.70437 | 8.26258 | 88° | 46km/h | 15798m | 4.5m/s | -52.6°C | 0% | 0hPa | 4.8V | 00:00:00 | 00:00:00 | 00:00:00 | |
| HEMX73-11 | 2026-09-01 13:48:21 | 49.70437 | 8.26258 | 88° | 46km/h | 15798m | 4.5m/s | -52.6°C | 0% | 0hPa | 4.8V | 00:00:00 | 00:00:00 | 00:00:00 | |
| DL1XH-west | 2026-09-01 13:48:20 | 49.70436 | 8.26221 | 89° | 49km/h | 15789m | 3.6m/s | -52.6°C | 0% | 0hPa | 4.8V | 00:00:00 | 00:00:00 | 00:00:00 | |
| DL1NUX | 2026-09-01 13:48:19 | 49.70436 | 8.26120 | 92° | 51km/h | 15762m | 4.5m/s | 0°C | 0% | 0hPa | 0V | 00:00:00 | 00:00:00 | 00:00:00 | |
| DM0DOS-11 | 2026-09-01 13:48:17 | 49.70438 | 8.26079 | 92° | 53km/h | 15752m | 5.5m/s | 0°C | 0% | 0hPa | 0V | 00:00:00 | 00:00:00 | 00:00:00 | |
| DO3MHA-11 | 2026-09-01 13:48:16 | 49.70434 | 8.26160 | 95° | 53km/h | 15771m | 4.6m/s | 0°C | 0% | 0hPa | 4.8V | 00:00:00 | 00:00:00 | 00:00:00 | |
| DO3DL | 2026-09-01 13:48:15 | 49.70435 | 8.26140 | 96° | 53km/h | 15771m | 4.7m/s | -52.6°C | 0% | 0hPa | 4.8V | 00:00:00 | 00:00:00 | 00:00:00 | |
| BIOWL1-15 | 2026-09-01 13:48:14 | 49.70439 | 8.26059 | 93° | 53km/h | 15752m | 5.5m/s | -52.6°C | 0% | 0hPa | 4.8V | 00:00:00 | 00:00:00 | 00:00:00 | |
| DN1GJH-1 | 2026-09-01 13:48:12 | 49.70438 | 8.26079 | 96° | 53km/h | 15758m | 4.4m/s | -52.6°C | 0% | 0hPa | 4.8V | 00:00:00 | 00:00:00 | 00:00:00 | |
| CB1BUN | 2026-09-01 13:48:11 | 49.70439 | 8.26038 | 91° | 51km/h | 15748m | 2.7m/s | -52.6°C | 0% | 0hPa | 4.8V | 00:00:00 | 00:00:00 | 00:00:00 | |
| DF2AP-13 | 2026-09-01 13:48:10 | 49.70439 | 8.26038 | 90° | 64km/h | 15744m | 5.1m/s | 0°C | 0% | 0hPa | 4.8V | 00:00:00 | 00:00:00 | 00:00:00 | |
| DL1XH-west | 2026-09-01 13:48:09 | 49.70439 | 8.26018 | 93° | 53km/h | 15744m | 5.2m/s | -52.6°C | 0% | 0hPa | 4.8V | 00:00:00 | 00:00:00 | 00:00:00 | |
| DL1NUX | 2026-09-01 13:48:09 | 49.70444 | 8.25914 | 91° | 57km/h | 15718m | 3.7m/s | 0°C | 0% | 0hPa | 0V | 00:00:00 | 00:00:00 | 00:00:00 | |
| SO1NDE-10 | 2026-09-01 13:48:07 | 49.70442 | 8.25976 | 98° | 64km/h | 15731m | 4.7m/s | 0°C | 0% | 0hPa | 0V | 00:00:00 | 00:00:00 | 00:00:00 | |
| DO3MHA-11 | 2026-09-01 13:48:06 | 49.70443 | 8.25955 | 93° | 58km/h | 15727m | 4.1m/s | 0°C | 0% | 0hPa | 0V | 00:00:00 | 00:00:00 | 00:00:00 | |
| DM0DOS-11 | 2026-09-01 13:48:05 | 49.70444 | 8.25867 | 89° | 60km/h | 15710m | 3.2m/s | 0°C | 0% | 0hPa | 0V | 00:00:00 | 00:00:00 | 00:00:00 | |
| NBG1-10 | 2026-09-01 13:48:04 | 49.70444 | 8.25913 | 92° | 66km/h | 15719m | 3.6m/s | 0°C | 0% | 0hPa | 4.8V | 00:00:00 | 00:00:00 | 00:00:00 | |
| DO3DL | 2026-09-01 13:48:03 | 49.70444 | 8.25890 | 92° | 60km/h | 15719m | 3.7m/s | -52.8°C | 0% | 0hPa | 4.8V | 00:00:00 | 00:00:00 | 00:00:00 | |
| BIOWL1-15 | 2026-09-01 13:48:01 | 49.70444 | 8.25844 | 93° | 60km/h | 15710m | 3.2m/s | -52.8°C | 0% | 0hPa | 4.8V | 00:00:00 | 00:00:00 | 00:00:00 | |
| HEMX73-11 | 2026-09-01 13:48:01 | 49.70444 | 8.25844 | 94° | 60km/h | 15711m | 3.2m/s | -52.8°C | 0% | 0hPa | 0V | 00:00:00 | 00:00:00 | 00:00:00 | |
| DL1NUX | 2026-09-01 13:47:59 | 49.70454 | 8.25671 | 92° | 69km/h | 15677m | 3.5m/s | 0°C | 0% | 0hPa | 0V | 00:00:00 | 00:00:00 | 00:00:00 | |
| DL1XH-west | 2026-09-01 13:47:58 | 49.70451 | 8.25773 | 96° | 62km/h | 15697m | 4.1m/s | -52.9°C | 0% | 0hPa | 4.8V | 00:00:00 | 00:00:00 | 00:00:00 | |
| DB0NH | 2026-09-01 13:47:57 | 49.70452 | 8.25749 | 91° | 68km/h | 15690m | 4.8m/s | 0°C | 0% | 0hPa | 0V | 00:00:00 | 00:00:00 | 00:00:00 | |
| DJTTGO | 2026-09-01 13:47:56 | 49.70453 | 8.25698 | 95° | 68km/h | 15686m | 4.5m/s | -53.0°C | 0% | 0hPa | 0V | 00:00:00 | 00:00:00 | 00:00:00 | |
| DB0UT-7 | 2026-09-01 13:47:55 | 49.70453 | 8.25698 | 94° | 68km/h | 15681m | 3.5m/s | 0°C | 0% | 0hPa | 0V | 00:00:00 | 00:00:00 | 00:00:00 | |
| DM0DOS-11 | 2026-09-01 13:47:53 | 49.70454 | 8.25616 | 93° | 73km/h | 15668m | 3.9m/s | 0°C | 0% | 0hPa | 0V | 00:00:00 | 00:00:00 | 00:00:00 | |
| DN1GJH-1 | 2026-09-01 13:47:51 | 49.70455 | 8.25588 | 94° | 73km/h | 15669m | 3.9m/s | -53.0°C | 0% | 0hPa | 0V | 00:00:00 | 00:00:00 | 00:00:00 | |
| DO3DL | 2026-09-01 13:47:50 | 49.70456 | 8.25559 | 94° | 71km/h | 15665m | 3.3m/s | -53.0°C | 0% | 0hPa | 0V | 00:00:00 | 00:00:00 | 00:00:00 | |
| DL1NUX | 2026-09-01 13:47:49 | 49.70456 | 8.25402 | 91° | 68km/h | 15635m | 4.5m/s | 0°C | 0% | 0hPa | 0V | 00:00:00 | 00:00:00 | 00:00:00 | |
| DL1XH-west | 2026-09-01 13:47:48 | 49.70456 | 8.25481 | 91° | 66km/h | 15652m | 4.3m/s | -53.1°C | 0% | 0hPa | 4.8V | 00:00:00 | 00:00:00 | 00:00:00 | |
| DM0DOS-11 | 2026-09-01 13:47:47 | 49.70456 | 8.25350 | 91° | 66km/h | 15626m | 5.3m/s | 0°C | 0% | 0hPa | 0V | 00:00:00 | 00:00:00 | 00:00:00 | |
| DO3MHA-11 | 2026-09-01 13:47:46 | 49.70456 | 8.25456 | 89° | 66km/h | 15644m | 4.7m/s | 0°C | 0% | 0hPa | 4.8V | 00:00:00 | 00:00:00 | 00:00:00 | |
| DD1CC2-15 | 2026-09-01 13:47:44 | 49.70455 | 8.25403 | 89° | 68km/h | 15639m | 3.8m/s | 0°C | 0% | 0hPa | 4.8V | 00:00:00 | 00:00:00 | 00:00:00 | |
| DO2KSM | 2026-09-01 13:47:43 | 49.70455 | 8.25376 | 92° | 68km/h | 15635m | 4.6m/s | -53.1°C | 0% | 0hPa | 4.8V | 00:00:00 | 00:00:00 | 00:00:00 | |
| BEGRI65-1 | 2026-09-01 13:47:41 | 49.70456 | 8.25325 | 89° | 64km/h | 15627m | 5.3m/s | -53.1°C | 0% | 0hPa | 4.8V | 00:00:00 | 00:00:00 | 00:00:00 | |
| BIOWL1-15 | 2026-09-01 13:47:40 | 49.70454 | 8.25275 | 87° | 64km/h | 15618m | 5.1m/s | -53°C | 0% | 0hPa | 4.8V | 00:00:00 | 00:00:00 | 00:00:00 | |
| DL1NUX | 2026-09-01 13:47:39 | 49.70453 | 8.25149 | 92° | 62km/h | 15591m | 4.7m/s | 0°C | 0% | 0hPa | 0V | 00:00:00 | 00:00:00 | 00:00:00 | |
| DF1GD-15 | 2026-09-01 13:47:38 | 49.70453 | 8.25250 | 92° | 64km/h | 15614m | 3.7m/s | -53.0°C | 0% | 0hPa | 4.8V | 00:00:00 | 00:00:00 | 00:00:00 | |
| DL1XH-west | 2026-09-01 13:47:37 | 49.70453 | 8.25225 | 90° | 66km/h | 15609m | 5m/s | -53°C | 0% | 0hPa | 4.8V | 00:00:00 | 00:00:00 | 00:00:00 | |
| SO1NDE-10 | 2026-09-01 13:47:37 | 49.70453 | 8.25225 | 88° | 69km/h | 15605m | 3.7m/s | 0°C | 0% | 0hPa | 0V | 00:00:00 | 00:00:00 | 00:00:00 | |
| DM0DOS-11 | 2026-09-01 13:47:36 | 49.70453 | 8.25099 | 89° | 68km/h | 15582m | 5.6m/s | 0°C | 0% | 0hPa | 0V | 00:00:00 | 00:00:00 | 00:00:00 | |
| DO3MHA-11 | 2026-09-01 13:47:36 | 49.70453 | 8.25199 | 88° | 66km/h | 15601m | 4.7m/s | 0°C | 0% | 0hPa | 0V | 00:00:00 | 00:00:00 | 00:00:00 | |
| NBG1-10 | 2026-09-01 13:47:31 | 49.70453 | 8.25072 | 93° | 73km/h | 15573m | 4.0m/s | 0°C | 0% | 0hPa | 0V | 00:00:00 | 00:00:00 | 00:00:00 | |
| DO3DL | 2026-09-01 13:47:30 | 49.70453 | 8.25047 | 94° | 64km/h | 15578m | 3.8m/s | -53.2°C | 0% | 0hPa | 0V | 00:00:00 | 00:00:00 | 00:00:00 | |
| DL1NUX | 2026-09-01 13:47:29 | 49.70454 | 8.24891 | 92° | 69km/h | 15548m | 4m/s | 0°C | 0% | 0hPa | 0V | 00:00:00 | 00:00:00 | 00:00:00 | |
| BIOWL1-15 | 2026-09-01 13:47:28 | 49.70455 | 8.24995 | 89° | 69km/h | 15569m | 4.2m/s | -53.2°C | 0% | 0hPa | 4.8V | 00:00:00 | 00:00:00 | 00:00:00 | |
| DJTTGO | 2026-09-01 13:47:28 | 49.70455 | 8.24995 | 90° | 69km/h | 15569m | 4.2m/s | -53.2°C | 0% | 0hPa | 4.8V | 00:00:00 | 00:00:00 | 00:00:00 | |
| DB0NH | 2026-09-01 13:47:27 | 49.70454 | 8.24968 | 89° | 75km/h | 15561m | 4.0m/s | 0°C | 0% | 0hPa | 4.8V | 00:00:00 | 00:00:00 | 00:00:00 | |
| DL1XH-west | 2026-09-01 13:47:26 | 49.70454 | 8.24942 | 88° | 64km/h | 15560m | 4m/s | -53.1°C | 0% | 0hPa | 4.8V | 00:00:00 | 00:00:00 | 00:00:00 | |
| DO3MHA-11 | 2026-09-01 13:47:26 | 49.70454 | 8.24942 | 89° | 69km/h | 15557m | 3.8m/s | 0°C | 0% | 0hPa | 0V | 00:00:00 | 00:00:00 | 00:00:00 | |
| DB0UT-7 | 2026-09-01 13:47:25 | 49.70454 | 8.24917 | 90° | 75km/h | 15552m | 4.6m/s | 0°C | 0% | 0hPa | 0V | 00:00:00 | 00:00:00 | 00:00:00 | |
| DM0DOS-11 | 2026-09-01 13:47:24 | 49.70456 | 8.24836 | 96° | 69km/h | 15539m | 3.4m/s | 0°C | 0% | 0hPa | 0V | 00:00:00 | 00:00:00 | 00:00:00 | |
| DO3DL | 2026-09-01 13:47:23 | 49.70454 | 8.24863 | 94° | 71km/h | 15548m | 4.0m/s | -53.2°C | 0% | 0hPa | 4.8V | 00:00:00 | 00:00:00 | 00:00:00 | |
| DO2KSM | 2026-09-01 13:47:21 | 49.70457 | 8.24808 | 97° | 69km/h | 15539m | 3.4m/s | -53.2°C | 0% | 0hPa | 4.8V | 00:00:00 | 00:00:00 | 00:00:00 | |
| HEMX73-11 | 2026-09-01 13:47:20 | 49.70459 | 8.24781 | 95° | 73km/h | 15535m | 5.2m/s | -53.2°C | 0% | 0hPa | 4.8V | 00:00:00 | 00:00:00 | 00:00:00 | |
| DH7VM-15 | 2026-09-01 13:47:19 | 49.70460 | 8.24752 | 93° | 75km/h | 15531m | 3.1m/s | -53.2°C | 0% | 0hPa | 4.8V | 00:00:00 | 00:00:00 | 00:00:00 | |
| DF1GD-15 | 2026-09-01 13:47:18 | 49.70460 | 8.24723 | 92° | 73km/h | 15527m | 5.3m/s | -53.3°C | 0% | 0hPa | 4.8V | 00:00:00 | 00:00:00 | 00:00:00 | |
| BIOWL1-15 | 2026-09-01 13:47:17 | 49.70464 | 8.24524 | 91° | 73km/h | 15497m | 5m/s | -53.4°C | 0% | 0hPa | 4.8V | 00:00:00 | 00:00:00 | 00:00:00 | |
| DM0DOS-11 | 2026-09-01 13:47:17 | 49.70464 | 8.24553 | 93° | 71km/h | 15497m | 5m/s | 0°C | 0% | 0hPa | 0V | 00:00:00 | 00:00:00 | 00:00:00 | |
| DO3MHA-11 | 2026-09-01 13:47:16 | 49.70461 | 8.24671 | 91° | 75km/h | 15513m | 4.6m/s | 0°C | 0% | 0hPa | 4.8V | 00:00:00 | 00:00:00 | 00:00:00 | |
| DL1XH-west | 2026-09-01 13:47:15 | 49.70461 | 8.24641 | 91° | 75km/h | 15513m | 4.7m/s | -53.3°C | 0% | 0hPa | 4.8V | 00:00:00 | 00:00:00 | 00:00:00 | |
| DF2AP-13 | 2026-09-01 13:47:10 | 49.70464 | 8.24495 | 87° | 77km/h | 15487m | 5.4m/s | 0°C | 0% | 0hPa | 0V | 00:00:00 | 00:00:00 | 00:00:00 | |
| DL1NUX | 2026-09-01 13:47:09 | 49.70457 | 8.24313 | 89° | 75km/h | 15460m | 5.3m/s | 0°C | 0% | 0hPa | 0V | 00:00:00 | 00:00:00 | 00:00:00 | |
| CB1BUN | 2026-09-01 13:47:08 | 49.70460 | 8.24435 | 85° | 77km/h | 15483m | 4.2m/s | -53.5°C | 0% | 0hPa | 0V | 00:00:00 | 00:00:00 | 00:00:00 | |
| DM0DOS-11 | 2026-09-01 13:47:06 | 49.70457 | 8.24253 | 86° | 75km/h | 15455m | 4.2m/s | 0°C | 0% | 0hPa | 0V | 00:00:00 | 00:00:00 | 00:00:00 | |
| DO3MHA-11 | 2026-09-01 13:47:06 | 49.70458 | 8.24373 | 89° | 78km/h | 15469m | 4.8m/s | 0°C | 0% | 0hPa | 4.8V | 00:00:00 | 00:00:00 | 00:00:00 | |
| DL1XH-west | 2026-09-01 13:47:05 | 49.70457 | 8.24313 | 90° | 75km/h | 15465m | 3.9m/s | -53.6°C | 0% | 0hPa | 4.8V | 00:00:00 | 00:00:00 | 00:00:00 | |
| DD1CC2-15 | 2026-09-01 13:47:03 | 49.70457 | 8.24253 | 88° | 75km/h | 15455m | 4.2m/s | 0°C | 0% | 0hPa | 0V | 00:00:00 | 00:00:00 | 00:00:00 | |
| DJTTGO | 2026-09-01 13:47:01 | 49.70454 | 8.24221 | 86° | 80km/h | 15451m | 4.2m/s | -53.6°C | 0% | 0hPa | 0V | 00:00:00 | 00:00:00 | 00:00:00 | |
| DL1NUX | 2026-09-01 13:46:59 | 49.70441 | 8.24008 | 82° | 82km/h | 15414m | 5.3m/s | 0°C | 0% | 0hPa | 0V | 00:00:00 | 00:00:00 | 00:00:00 | |
| NBG1-10 | 2026-09-01 13:46:58 | 49.70450 | 8.24130 | 86° | 75km/h | 15433m | 4.2m/s | 0°C | 0% | 0hPa | 4.8V | 00:00:00 | 00:00:00 | 00:00:00 | |
| DB0NH | 2026-09-01 13:46:57 | 49.70448 | 8.24099 | 86° | 75km/h | 15429m | 4.6m/s | 0°C | 0% | 0hPa | 4.8V | 00:00:00 | 00:00:00 | 00:00:00 | |
| DO3MHA-11 | 2026-09-01 13:46:56 | 49.70447 | 8.24070 | 83° | 77km/h | 15424m | 4.7m/s | 0°C | 0% | 0hPa | 4.8V | 00:00:00 | 00:00:00 | 00:00:00 | |
| DB0UT-7 | 2026-09-01 13:46:55 | 49.70444 | 8.24039 | 83° | 75km/h | 15419m | 4.5m/s | 0°C | 0% | 0hPa | 4.8V | 00:00:00 | 00:00:00 | 00:00:00 | |
| BIOWL1-15 | 2026-09-01 13:46:54 | 49.70439 | 8.23977 | 82° | 80km/h | 15414m | 5.3m/s | -53.9°C | 0% | 0hPa | 4.8V | 00:00:00 | 00:00:00 | 00:00:00 | |
| KANTATE | 2026-09-01 13:46:52 | 49.70436 | 8.23947 | 85° | 77km/h | 15409m | 4.2m/s | -54.1°C | 0% | 0hPa | 0V | 00:00:00 | 00:00:00 | 00:00:00 | |
| DN1GJH-1 | 2026-09-01 13:46:50 | 49.70432 | 8.23887 | 85° | 78km/h | 15400m | 3.9m/s | -54.0°C | 0% | 0hPa | 0V | 00:00:00 | 00:00:00 | 00:00:00 | |
| DL1NUX | 2026-09-01 13:46:49 | 49.70415 | 8.23715 | 81° | 75km/h | 15365m | 5.8m/s | 0°C | 0% | 0hPa | 0V | 00:00:00 | 00:00:00 | 00:00:00 | |
| CB1BUN | 2026-09-01 13:46:48 | 49.70428 | 8.23829 | 82° | 71km/h | 15390m | 4.2m/s | -54.0°C | 0% | 0hPa | 4.8V | 00:00:00 | 00:00:00 | 00:00:00 | |
| DO3DL | 2026-09-01 13:46:47 | 49.70421 | 8.23773 | 82° | 77km/h | 15380m | 4.3m/s | -54.0°C | 0% | 0hPa | 4.8V | 00:00:00 | 00:00:00 | 00:00:00 | |
| DO3MHA-11 | 2026-09-01 13:46:46 | 49.70421 | 8.23773 | 82° | 73km/h | 15375m | 5.5m/s | 0°C | 0% | 0hPa | 4.8V | 00:00:00 | 00:00:00 | 00:00:00 | |
| BIOWL1-15 | 2026-09-01 13:46:43 | 49.70413 | 8.23686 | 82° | 77km/h | 15365m | 5.8m/s | -54.1°C | 0% | 0hPa | 4.8V | 00:00:00 | 00:00:00 | 00:00:00 | |
| DF2AP-13 | 2026-09-01 13:46:40 | 49.70407 | 8.23598 | 87° | 69km/h | 15346m | 4.3m/s | 0°C | 0% | 0hPa | 0V | 00:00:00 | 00:00:00 | 00:00:00 | |
| DL1NUX | 2026-09-01 13:46:39 | 49.70392 | 8.23430 | 79° | 80km/h | 15317m | 5.1m/s | 0°C | 0% | 0hPa | 0V | 00:00:00 | 00:00:00 | 00:00:00 | |
| SO1NDE-10 | 2026-09-01 13:46:37 | 49.70402 | 8.23519 | 80° | 69km/h | 15332m | 5.0m/s | 0°C | 0% | 0hPa | 4.8V | 00:00:00 | 00:00:00 | 00:00:00 | |
| DO3MHA-11 | 2026-09-01 13:46:36 | 49.70399 | 8.23489 | 80° | 73km/h | 15327m | 4.2m/s | 0°C | 0% | 0hPa | 4.8V | 00:00:00 | 00:00:00 | 00:00:00 | |
| BIOWL7-15 | 2026-09-01 13:46:34 | 49.70392 | 8.23430 | 81° | 80km/h | 15322m | 5.1m/s | -54.1°C | 0% | 0hPa | 4.8V | 00:00:00 | 00:00:00 | 00:00:00 | |
| DL1XH-west | 2026-09-01 13:46:33 | 49.70386 | 8.23370 | 82° | 71km/h | 15312m | 5.1m/s | -54.1°C | 0% | 0hPa | 4.8V | 00:00:00 | 00:00:00 | 00:00:00 | |
| BEGRI65-1 | 2026-09-01 13:46:30 | 49.70381 | 8.23318 | 82° | 68km/h | 15302m | 4.9m/s | -54.1°C | 0% | 0hPa | 0V | 00:00:00 | 00:00:00 | 00:00:00 | |
| DL1NUX | 2026-09-01 13:46:29 | 49.70365 | 8.23153 | 80° | 68km/h | 15268m | 3.6m/s | 0°C | 0% | 0hPa | 0V | 00:00:00 | 00:00:00 | 00:00:00 | |
| CB1BUN | 2026-09-01 13:46:27 | 49.70372 | 8.23237 | 83° | 71km/h | 15287m | 3.9m/s | -54.0°C | 0% | 0hPa | 4.8V | 00:00:00 | 00:00:00 | 00:00:00 | |
| NBG1-10 | 2026-09-01 13:46:25 | 49.70367 | 8.23180 | 84° | 64km/h | 15273m | 4.8m/s | 0°C | 0% | 0hPa | 4.8V | 00:00:00 | 00:00:00 | 00:00:00 | |
| DL1XH-west | 2026-09-01 13:46:21 | 49.70357 | 8.23075 | 79° | 68km/h | 15259m | 3.8m/s | -53.9°C | 0% | 0hPa | 4.8V | 00:00:00 | 00:00:00 | 00:00:00 | |
| DL1NUX | 2026-09-01 13:46:19 | 49.70343 | 8.22898 | 84° | 68km/h | 15220m | 4m/s | 0°C | 0% | 0hPa | 0V | 00:00:00 | 00:00:00 | 00:00:00 | |
| HEMX73-11 | 2026-09-01 13:46:18 | 49.70348 | 8.23000 | 82° | 66km/h | 15244m | 4.7m/s | -53.7°C | 0% | 0hPa | 4.8V | 00:00:00 | 00:00:00 | 00:00:00 | |
| DO3DL | 2026-09-01 13:46:17 | 49.70345 | 8.22949 | 88° | 64km/h | 15234m | 5.3m/s | -53.7°C | 0% | 0hPa | 4.8V | 00:00:00 | 00:00:00 | 00:00:00 | |
| DO3MHA-11 | 2026-09-01 13:46:16 | 49.70345 | 8.22949 | 88° | 62km/h | 15230m | 3.5m/s | 0°C | 0% | 0hPa | 4.8V | 00:00:00 | 00:00:00 | 00:00:00 | |
| DL1XH-west | 2026-09-01 13:46:11 | 49.70336 | 8.22822 | 84° | 60km/h | 15210m | 3.9m/s | -53.6°C | 0% | 0hPa | 4.8V | 00:00:00 | 00:00:00 | 00:00:00 | |
| DK7TD | 2026-09-01 13:46:11 | 49.70334 | 8.22798 | 84° | 60km/h | 15206m | 5.1m/s | -53.6°C | 0% | 0hPa | 4.8V | 00:00:00 | 00:00:00 | 00:00:00 | |
| DF2AP-13 | 2026-09-01 13:46:10 | 49.70334 | 8.22798 | 85° | 62km/h | 15201m | 4.6m/s | 0°C | 0% | 0hPa | 0V | 00:00:00 | 00:00:00 | 00:00:00 | |
| DL1NUX | 2026-09-01 13:46:09 | 49.70325 | 8.22658 | 82° | 64km/h | 15173m | 4.7m/s | 0°C | 0% | 0hPa | 0V | 00:00:00 | 00:00:00 | 00:00:00 | |
| DH7VM-15 | 2026-09-01 13:46:09 | 49.70331 | 8.22751 | 87° | 60km/h | 15196m | 5.0m/s | -53.5°C | 0% | 0hPa | 4.8V | 00:00:00 | 00:00:00 | 00:00:00 | |
| SO1NDE-10 | 2026-09-01 13:46:07 | 49.70330 | 8.22730 | 86° | 62km/h | 15187m | 3.4m/s | 0°C | 0% | 0hPa | 4.8V | 00:00:00 | 00:00:00 | 00:00:00 | |
| DO3MHA-11 | 2026-09-01 13:46:06 | 49.70330 | 8.22706 | 86° | 62km/h | 15183m | 5.4m/s | 0°C | 0% | 0hPa | 4.8V | 00:00:00 | 00:00:00 | 00:00:00 | |
| DD1CC2-15 | 2026-09-01 13:46:05 | 49.70328 | 8.22683 | 83° | 64km/h | 15183m | 5.4m/s | 0°C | 0% | 0hPa | 4.8V | 00:00:00 | 00:00:00 | 00:00:00 | |
| DO3DL | 2026-09-01 13:46:04 | 49.70326 | 8.22658 | 83° | 64km/h | 15178m | 4.7m/s | -53.4°C | 0% | 0hPa | 4.8V | 00:00:00 | 00:00:00 | 00:00:00 | |
| BIOWL1-15 | 2026-09-01 13:46:02 | 49.70322 | 8.22444 | 88° | 57km/h | 15135m | 4.5m/s | -53.8°C | 0% | 0hPa | 4.8V | 00:00:00 | 00:00:00 | 00:00:00 | |
| DM0DOS-11 | 2026-09-01 13:46:00 | 49.70321 | 8.22560 | 94° | 62km/h | 15153m | 5.2m/s | 0°C | 0% | 0hPa | 0V | 00:00:00 | 00:00:00 | 00:00:00 | |
| DK7TD | 2026-09-01 13:46:00 | 49.70322 | 8.22536 | 94° | 60km/h | 15153m | 5.2m/s | -53.5°C | 0% | 0hPa | 4.8V | 00:00:00 | 00:00:00 | 00:00:00 | |
| DL1XH-west | 2026-09-01 13:45:58 | 49.70323 | 8.22513 | 94° | 60km/h | 15148m | 3.4m/s | -53.5°C | 0% | 0hPa | 4.8V | 00:00:00 | 00:00:00 | 00:00:00 | |
| DB0NH | 2026-09-01 13:45:57 | 49.70323 | 8.22490 | 90° | 64km/h | 15139m | 4.5m/s | 0°C | 0% | 0hPa | 4.8V | 00:00:00 | 00:00:00 | 00:00:00 | |
| DO3MHA-11 | 2026-09-01 13:45:56 | 49.70323 | 8.22467 | 88° | 62km/h | 15135m | 4.4m/s | 0°C | 0% | 0hPa | 4.8V | 00:00:00 | 00:00:00 | 00:00:00 | |
| DB0UT-7 | 2026-09-01 13:45:55 | 49.70322 | 8.22444 | 88° | 66km/h | 15131m | 4.0m/s | 0°C | 0% | 0hPa | 4.8V | 00:00:00 | 00:00:00 | 00:00:00 | |
| DM0DOS-11 | 2026-09-01 13:45:55 | 49.70324 | 8.22324 | 98° | 62km/h | 15107m | 5.3m/s | 0°C | 0% | 0hPa | 0V | 00:00:00 | 00:00:00 | 00:00:00 | |
| NBG1-10 | 2026-09-01 13:45:52 | 49.70321 | 8.22373 | 97° | 66km/h | 15116m | 4.6m/s | 0°C | 0% | 0hPa | 4.8V | 00:00:00 | 00:00:00 | 00:00:00 | |
| DL1CLM-18 | 2026-09-01 13:45:51 | 49.70324 | 8.22324 | 99° | 62km/h | 15112m | 4.1m/s | -53.9°C | 0% | 0hPa | 4.8V | 00:00:00 | 00:00:00 | 00:00:00 | |
| DK7TD | 2026-09-01 13:45:50 | 49.70326 | 8.22300 | 96° | 66km/h | 15107m | 5.3m/s | -54°C | 0% | 0hPa | 4.8V | 00:00:00 | 00:00:00 | 00:00:00 | |
| DN1GJH-1 | 2026-09-01 13:45:48 | 49.70328 | 8.22274 | 96° | 66km/h | 15102m | 4.3m/s | -54.0°C | 0% | 0hPa | 0V | 00:00:00 | 00:00:00 | 00:00:00 | |
| DO3MHA-11 | 2026-09-01 13:45:46 | 49.70330 | 8.22223 | 94° | 66km/h | 15088m | 5.4m/s | 0°C | 0% | 0hPa | 0V | 00:00:00 | 00:00:00 | 00:00:00 | |
| DM0DOS-11 | 2026-09-01 13:45:44 | 49.70332 | 8.22070 | 94° | 64km/h | 15059m | 5.5m/s | 0°C | 0% | 0hPa | 0V | 00:00:00 | 00:00:00 | 00:00:00 | |
| DL1XH-west | 2026-09-01 13:45:43 | 49.70330 | 8.22143 | 88° | 66km/h | 15079m | 5.2m/s | -53.9°C | 0% | 0hPa | 4.8V | 00:00:00 | 00:00:00 | 00:00:00 | |
| DD1CC2-15 | 2026-09-01 13:45:41 | 49.70331 | 8.22094 | 95° | 62km/h | 15069m | 5.5m/s | 0°C | 0% | 0hPa | 4.8V | 00:00:00 | 00:00:00 | 00:00:00 | |
| DF2AP-13 | 2026-09-01 13:45:40 | 49.70332 | 8.22070 | 95° | 66km/h | 15059m | 5.5m/s | 0°C | 0% | 0hPa | 4.8V | 00:00:00 | 00:00:00 | 00:00:00 | |
| DK7TD | 2026-09-01 13:45:39 | 49.70334 | 8.22020 | 91° | 64km/h | 15054m | 3.7m/s | -54°C | 0% | 0hPa | 4.8V | 00:00:00 | 00:00:00 | 00:00:00 | |
| DO3DL | 2026-09-01 13:45:38 | 49.70334 | 8.22020 | 92° | 64km/h | 15055m | 3.7m/s | -54.0°C | 0% | 0hPa | 0V | 00:00:00 | 00:00:00 | 00:00:00 | |
| HEMX73-11 | 2026-09-01 13:45:37 | 49.70333 | 8.21994 | 89° | 69km/h | 15050m | 5.8m/s | -54.0°C | 0% | 0hPa | 0V | 00:00:00 | 00:00:00 | 00:00:00 | |
| DF1GD-15 | 2026-09-01 13:45:36 | 49.70332 | 8.21938 | 89° | 71km/h | 15039m | 5.2m/s | -54.0°C | 0% | 0hPa | 0V | 00:00:00 | 00:00:00 | 00:00:00 | |
| DM0DOS-11 | 2026-09-01 13:45:32 | 49.70335 | 8.21813 | 89° | 62km/h | 15010m | 5.2m/s | 0°C | 0% | 0hPa | 0V | 00:00:00 | 00:00:00 | 00:00:00 | |
| DO3DL | 2026-09-01 13:45:31 | 49.70334 | 8.21835 | 96° | 62km/h | 15020m | 5.6m/s | -53.9°C | 0% | 0hPa | 4.8V | 00:00:00 | 00:00:00 | 00:00:00 | |
| BIOWL1-15 | 2026-09-01 13:45:30 | 49.70336 | 8.21786 | 89° | 68km/h | 15010m | 5.2m/s | -53.8°C | 0% | 0hPa | 4.8V | 00:00:00 | 00:00:00 | 00:00:00 | |
| DL1XH-west | 2026-09-01 13:45:27 | 49.70334 | 8.21733 | 86° | 68km/h | 15000m | 4.8m/s | -53.8°C | 0% | 0hPa | 4.8V | 00:00:00 | 00:00:00 | 00:00:00 | |
| DB0NH | 2026-09-01 13:45:27 | 49.70334 | 8.21733 | 86° | 62km/h | 14995m | 4.5m/s | 0°C | 0% | 0hPa | 0V | 00:00:00 | 00:00:00 | 00:00:00 | |
| DO3MHA-11 | 2026-09-01 13:45:26 | 49.70333 | 8.21706 | 87° | 64km/h | 14990m | 4.2m/s | 0°C | 0% | 0hPa | 0V | 00:00:00 | 00:00:00 | 00:00:00 | |
| DB0UT-7 | 2026-09-01 13:45:25 | 49.70332 | 8.21680 | 87° | 62km/h | 14986m | 4.9m/s | 0°C | 0% | 0hPa | 0V | 00:00:00 | 00:00:00 | 00:00:00 | |
| DM0DOS-11 | 2026-09-01 13:45:21 | 49.70329 | 8.21559 | 86° | 68km/h | 14962m | 5.2m/s | 0°C | 0% | 0hPa | 0V | 00:00:00 | 00:00:00 | 00:00:00 | |
| NBG1-10 | 2026-09-01 13:45:19 | 49.70328 | 8.21533 | 88° | 60km/h | 14957m | 4.2m/s | 0°C | 0% | 0hPa | 4.8V | 00:00:00 | 00:00:00 | 00:00:00 | |
| DK7TD | 2026-09-01 13:45:18 | 49.70327 | 8.21482 | 87° | 68km/h | 14952m | 6m/s | -53.6°C | 0% | 0hPa | 4.8V | 00:00:00 | 00:00:00 | 00:00:00 | |
| DL1XH-west | 2026-09-01 13:45:17 | 49.70326 | 8.21456 | 87° | 68km/h | 14946m | 4.3m/s | -53.6°C | 0% | 0hPa | 4.8V | 00:00:00 | 00:00:00 | 00:00:00 | |
| DO3MHA-11 | 2026-09-01 13:45:16 | 49.70326 | 8.21456 | 87° | 62km/h | 14942m | 5.1m/s | 0°C | 0% | 0hPa | 0V | 00:00:00 | 00:00:00 | 00:00:00 | |
| DM0DOS-11 | 2026-09-01 13:45:15 | 49.70322 | 8.21311 | 87° | 60km/h | 14913m | 3.8m/s | 0°C | 0% | 0hPa | 0V | 00:00:00 | 00:00:00 | 00:00:00 | |
| DF1GD-15 | 2026-09-01 13:45:15 | 49.70325 | 8.21431 | 89° | 64km/h | 14942m | 5.2m/s | -53.7°C | 0% | 0hPa | 0V | 00:00:00 | 00:00:00 | 00:00:00 | |
| DO2KSM | 2026-09-01 13:45:14 | 49.70325 | 8.21406 | 89° | 60km/h | 14937m | 4.2m/s | -53.6°C | 0% | 0hPa | 0V | 00:00:00 | 00:00:00 | 00:00:00 | |
| DO3DL | 2026-09-01 13:45:12 | 49.70323 | 8.21358 | 89° | 62km/h | 14928m | 4.9m/s | -53.6°C | 0% | 0hPa | 0V | 00:00:00 | 00:00:00 | 00:00:00 | |
| DL1NUX | 2026-09-01 13:45:11 | 49.70319 | 8.21218 | 89° | 57km/h | 14894m | 4.3m/s | 0°C | 0% | 0hPa | 0V | 00:00:00 | 00:00:00 | 00:00:00 | |
| DF2AP-13 | 2026-09-01 13:45:10 | 49.70323 | 8.21311 | 88° | 58km/h | 14913m | 3.7m/s | 0°C | 0% | 0hPa | 4.8V | 00:00:00 | 00:00:00 | 00:00:00 | |
| BIOWL1-15 | 2026-09-01 13:45:08 | 49.70320 | 8.21263 | 85° | 62km/h | 14908m | 5.3m/s | -53.5°C | 0% | 0hPa | 4.8V | 00:00:00 | 00:00:00 | 00:00:00 | |
| DL1XH-west | 2026-09-01 13:45:07 | 49.70319 | 8.21218 | 90° | 57km/h | 14898m | 4.2m/s | -53.5°C | 0% | 0hPa | 4.8V | 00:00:00 | 00:00:00 | 00:00:00 | |
| DO3MHA-11 | 2026-09-01 13:45:06 | 49.70319 | 8.21218 | 90° | 58km/h | 14894m | 4.2m/s | 0°C | 0% | 0hPa | 0V | 00:00:00 | 00:00:00 | 00:00:00 | |
| DL8DAS-15 | 2026-09-01 13:45:05 | 49.70319 | 8.21195 | 94° | 60km/h | 14894m | 4.3m/s | -53.5°C | 0% | 0hPa | 0V | 00:00:00 | 00:00:00 | 00:00:00 | |
| DM3KS-11 | 2026-09-01 13:45:04 | 49.70322 | 8.21149 | 97° | 58km/h | 14884m | 5.1m/s | -53.4°C | -1.0% | -1.0hPa | 0V | 00:00:00 | 00:00:00 | 00:00:00 | |
| DD1CC8 | 2026-09-01 13:45:03 | 49.70323 | 8.21127 | 94° | 58km/h | 14879m | 4.6m/s | -53.3°C | -1.0% | -1.0hPa | 0V | 00:00:00 | 00:00:00 | 00:00:00 | |
| DL1NUX | 2026-09-01 13:45:01 | 49.70322 | 8.20989 | 100° | 58km/h | 14843m | 5m/s | 0°C | 0% | 0hPa | 0V | 00:00:00 | 00:00:00 | 00:00:00 | |
| DM0DOS-11 | 2026-09-01 13:45:00 | 49.70323 | 8.21080 | 85° | 58km/h | 14864m | 4.6m/s | 0°C | 0% | 0hPa | 0V | 00:00:00 | 00:00:00 | 00:00:00 | |
| DO3DL | 2026-09-01 13:44:59 | 49.70322 | 8.21057 | 86° | 57km/h | 14864m | 4.6m/s | -53.2°C | 0% | 0hPa | 4.8V | 00:00:00 | 00:00:00 | 00:00:00 | |
| SO1NDE-10 | 2026-09-01 13:44:58 | 49.70321 | 8.21035 | 92° | 60km/h | 14854m | 3.7m/s | 0°C | 0% | 0hPa | 4.8V | 00:00:00 | 00:00:00 | 00:00:00 | |
| DB0NH | 2026-09-01 13:44:57 | 49.70321 | 8.21012 | 92° | 60km/h | 14849m | 5.7m/s | 0°C | 0% | 0hPa | 4.8V | 00:00:00 | 00:00:00 | 00:00:00 | |
| DO3MHA-11 | 2026-09-01 13:44:56 | 49.70321 | 8.20989 | 101° | 58km/h | 14844m | 5.0m/s | 0°C | 0% | 0hPa | 4.8V | 00:00:00 | 00:00:00 | 00:00:00 | |
| DL1XH-west | 2026-09-01 13:44:55 | 49.70324 | 8.20966 | 101° | 58km/h | 14843m | 5m/s | -53.1°C | 0% | 0hPa | 4.8V | 00:00:00 | 00:00:00 | 00:00:00 | |
| DB0UT-7 | 2026-09-01 13:44:55 | 49.70324 | 8.20966 | 101° | 60km/h | 14838m | 5.2m/s | 0°C | 0% | 0hPa | 0V | 00:00:00 | 00:00:00 | 00:00:00 | |
| DM0DOS-11 | 2026-09-01 13:44:54 | 49.70331 | 8.20851 | 90° | 62km/h | 14814m | 4.7m/s | 0°C | 0% | 0hPa | 0V | 00:00:00 | 00:00:00 | 00:00:00 | |
| DO3DL | 2026-09-01 13:44:53 | 49.70329 | 8.20920 | 97° | 60km/h | 14834m | 4.1m/s | -53.0°C | 0% | 0hPa | 0V | 00:00:00 | 00:00:00 | 00:00:00 | |
| DL1NUX | 2026-09-01 13:44:51 | 49.70336 | 8.20759 | 96° | 58km/h | 14796m | 3.6m/s | 0°C | 0% | 0hPa | 0V | 00:00:00 | 00:00:00 | 00:00:00 | |
| BIOWL1-15 | 2026-09-01 13:44:47 | 49.70336 | 8.20759 | 97° | 58km/h | 14801m | 5.3m/s | -52.9°C | 0% | 0hPa | 4.8V | 00:00:00 | 00:00:00 | 00:00:00 | |
| DO3MHA-11 | 2026-09-01 13:44:46 | 49.70336 | 8.20759 | 97° | 60km/h | 14797m | 3.5m/s | 0°C | 0% | 0hPa | 4.8V | 00:00:00 | 00:00:00 | 00:00:00 | |
| DN1GJH-1 | 2026-09-01 13:44:45 | 49.70337 | 8.20736 | 95° | 62km/h | 14797m | 3.6m/s | -52.9°C | 0% | 0hPa | 4.8V | 00:00:00 | 00:00:00 | 00:00:00 | |
| DL1XH-west | 2026-09-01 13:44:44 | 49.70338 | 8.20712 | 94° | 58km/h | 14792m | 5.2m/s | -53°C | 0% | 0hPa | 4.8V | 00:00:00 | 00:00:00 | 00:00:00 | |
| DO2KSM | 2026-09-01 13:44:44 | 49.70338 | 8.20712 | 95° | 58km/h | 14792m | 5.2m/s | -53.0°C | 0% | 0hPa | 0V | 00:00:00 | 00:00:00 | 00:00:00 | |
| DM0DOS-11 | 2026-09-01 13:44:42 | 49.70346 | 8.20619 | 97° | 62km/h | 14768m | 4.9m/s | 0°C | 0% | 0hPa | 0V | 00:00:00 | 00:00:00 | 00:00:00 | |
| DL1NUX | 2026-09-01 13:44:41 | 49.70354 | 8.20525 | 95° | 64km/h | 14750m | 5.1m/s | 0°C | 0% | 0hPa | 0V | 00:00:00 | 00:00:00 | 00:00:00 | |
| DO3DL | 2026-09-01 13:44:40 | 49.70348 | 8.20595 | 101° | 58km/h | 14768m | 4.9m/s | -53.2°C | 0% | 0hPa | 4.8V | 00:00:00 | 00:00:00 | 00:00:00 | |
| DO3MHA-11 | 2026-09-01 13:44:36 | 49.70354 | 8.20525 | 96° | 64km/h | 14750m | 5.0m/s | 0°C | 0% | 0hPa | 4.8V | 00:00:00 | 00:00:00 | 00:00:00 | |
| BIOWL1-15 | 2026-09-01 13:44:35 | 49.70355 | 8.20501 | 96° | 62km/h | 14750m | 5.1m/s | -53.1°C | 0% | 0hPa | 4.8V | 00:00:00 | 00:00:00 | 00:00:00 | |
| DK7TD | 2026-09-01 13:44:35 | 49.70357 | 8.20477 | 96° | 60km/h | 14745m | 4.5m/s | -53.1°C | 0% | 0hPa | 4.8V | 00:00:00 | 00:00:00 | 00:00:00 | |
| DL1XH-west | 2026-09-01 13:44:34 | 49.70359 | 8.20453 | 96° | 64km/h | 14740m | 5.6m/s | -53.1°C | 0% | 0hPa | 4.8V | 00:00:00 | 00:00:00 | 00:00:00 | |
| DF1GD-15 | 2026-09-01 13:44:33 | 49.70358 | 8.20453 | 97° | 64km/h | 14740m | 5.6m/s | -53.1°C | 0% | 0hPa | 0V | 00:00:00 | 00:00:00 | 00:00:00 | |
| DL1NUX | 2026-09-01 13:44:31 | 49.70378 | 8.20281 | 96° | 60km/h | 14704m | 5.4m/s | 0°C | 0% | 0hPa | 0V | 00:00:00 | 00:00:00 | 00:00:00 | |
| DM0DOS-11 | 2026-09-01 13:44:30 | 49.70367 | 8.20380 | 102° | 64km/h | 14722m | 4.9m/s | 0°C | 0% | 0hPa | 0V | 00:00:00 | 00:00:00 | 00:00:00 | |
| SO1NDE-10 | 2026-09-01 13:44:28 | 49.70374 | 8.20329 | 96° | 66km/h | 14713m | 5.0m/s | 0°C | 0% | 0hPa | 4.8V | 00:00:00 | 00:00:00 | 00:00:00 | |
| DB0NH | 2026-09-01 13:44:27 | 49.70376 | 8.20305 | 96° | 66km/h | 14709m | 4.5m/s | 0°C | 0% | 0hPa | 4.8V | 00:00:00 | 00:00:00 | 00:00:00 | |
| DO3MHA-11 | 2026-09-01 13:44:26 | 49.70378 | 8.20281 | 97° | 64km/h | 14704m | 5.3m/s | 0°C | 0% | 0hPa | 4.8V | 00:00:00 | 00:00:00 | 00:00:00 | |
| BIOWL1-15 | 2026-09-01 13:44:25 | 49.70379 | 8.20257 | 94° | 62km/h | 14704m | 5.4m/s | -53°C | 0% | 0hPa | 4.8V | 00:00:00 | 00:00:00 | 00:00:00 | |
| CB1BUN | 2026-09-01 13:44:25 | 49.70380 | 8.20233 | 93° | 62km/h | 14699m | 4.1m/s | -53.1°C | 0% | 0hPa | 0V | 00:00:00 | 00:00:00 | 00:00:00 | |
| DM0DOS-11 | 2026-09-01 13:44:24 | 49.70389 | 8.20136 | 99° | 66km/h | 14675m | 5.5m/s | 0°C | 0% | 0hPa | 0V | 00:00:00 | 00:00:00 | 00:00:00 | |
| DN1GJH-1 | 2026-09-01 13:44:24 | 49.70380 | 8.20233 | 93° | 62km/h | 14699m | 4.1m/s | -53.1°C | 0% | 0hPa | 4.8V | 00:00:00 | 00:00:00 | 00:00:00 | |
| DL1XH-west | 2026-09-01 13:44:23 | 49.70381 | 8.20209 | 96° | 62km/h | 14694m | 5.5m/s | -53.1°C | 0% | 0hPa | 4.8V | 00:00:00 | 00:00:00 | 00:00:00 | |
| DL1NUX | 2026-09-01 13:44:21 | 49.70396 | 8.20035 | 89° | 66km/h | 14655m | 4.6m/s | 0°C | 0% | 0hPa | 0V | 00:00:00 | 00:00:00 | 00:00:00 | |
| DK7TD | 2026-09-01 13:44:21 | 49.70389 | 8.20136 | 100° | 66km/h | 14680m | 4.8m/s | -53.1°C | 0% | 0hPa | 4.8V | 00:00:00 | 00:00:00 | 00:00:00 | |
| DJTTGO | 2026-09-01 13:44:21 | 49.70389 | 8.20136 | 101° | 66km/h | 14680m | 4.8m/s | -53.1°C | 0% | 0hPa | 4.8V | 00:00:00 | 00:00:00 | 00:00:00 | |
| DO3DL | 2026-09-01 13:44:20 | 49.70389 | 8.20136 | 101° | 66km/h | 14680m | 4.8m/s | -53.1°C | 0% | 0hPa | 4.8V | 00:00:00 | 00:00:00 | 00:00:00 | |
| DO3MHA-11 | 2026-09-01 13:44:16 | 49.70396 | 8.20035 | 90° | 66km/h | 14655m | 4.5m/s | 0°C | 0% | 0hPa | 4.8V | 00:00:00 | 00:00:00 | 00:00:00 | |
| HEMX73-11 | 2026-09-01 13:44:15 | 49.70396 | 8.20010 | 92° | 64km/h | 14655m | 4.6m/s | -53.1°C | 0% | 0hPa | 4.8V | 00:00:00 | 00:00:00 | 00:00:00 | |
| BIOWL1-15 | 2026-09-01 13:44:14 | 49.70397 | 8.19960 | 91° | 68km/h | 14647m | 5.2m/s | -53.1°C | 0% | 0hPa | 4.8V | 00:00:00 | 00:00:00 | 00:00:00 | |
| DL1XH-west | 2026-09-01 13:44:13 | 49.70397 | 8.19933 | 91° | 73km/h | 14642m | 3.8m/s | 0°C | 0% | 0hPa | 0V | 00:00:00 | 00:00:00 | 00:00:00 | |
| DM0DOS-11 | 2026-09-01 13:44:12 | 49.70399 | 8.19878 | 94° | 66km/h | 14629m | 4.6m/s | 0°C | 0% | 0hPa | 0V | 00:00:00 | 00:00:00 | 00:00:00 | |
| DL1NUX | 2026-09-01 13:44:11 | 49.70399 | 8.19779 | 88° | 66km/h | 14611m | 5.3m/s | 0°C | 0% | 0hPa | 0V | 00:00:00 | 00:00:00 | 00:00:00 | |
| DK7TD | 2026-09-01 13:44:11 | 49.70399 | 8.19878 | 95° | 66km/h | 14633m | 3.2m/s | -53.1°C | 0% | 0hPa | 4.8V | 00:00:00 | 00:00:00 | 00:00:00 | |
| DF2AP-13 | 2026-09-01 13:44:10 | 49.70399 | 8.19878 | 95° | 69km/h | 14629m | 4.6m/s | 0°C | 0% | 0hPa | 0V | 00:00:00 | 00:00:00 | 00:00:00 | |
| DO3MHA-11 | 2026-09-01 13:44:06 | 49.70399 | 8.19779 | 89° | 69km/h | 14612m | 5.2m/s | 0°C | 0% | 0hPa | 0V | 00:00:00 | 00:00:00 | 00:00:00 | |
| DN1GJH-1 | 2026-09-01 13:44:04 | 49.70398 | 8.19723 | 89° | 73km/h | 14607m | 3.6m/s | -53.1°C | 0% | 0hPa | 0V | 00:00:00 | 00:00:00 | 00:00:00 | |
| DL1CLM-18 | 2026-09-01 13:44:02 | 49.70398 | 8.19667 | 94° | 69km/h | 14599m | 3.4m/s | -53.1°C | 0% | 0hPa | 0V | 00:00:00 | 00:00:00 | 00:00:00 | |
| DL1NUX | 2026-09-01 13:44:01 | 49.70398 | 8.19509 | 89° | 75km/h | 14568m | 5.5m/s | 0°C | 0% | 0hPa | 0V | 00:00:00 | 00:00:00 | 00:00:00 | |
| DM0DOS-11 | 2026-09-01 13:44:00 | 49.70399 | 8.19615 | 87° | 68km/h | 14586m | 5.2m/s | 0°C | 0% | 0hPa | 0V | 00:00:00 | 00:00:00 | 00:00:00 | |
| DK7TD | 2026-09-01 13:44:00 | 49.70398 | 8.19589 | 88° | 66km/h | 14586m | 5.2m/s | -53°C | 0% | 0hPa | 4.8V | 00:00:00 | 00:00:00 | 00:00:00 | |
| SO1NDE-10 | 2026-09-01 13:43:58 | 49.70397 | 8.19563 | 92° | 75km/h | 14577m | 5.3m/s | 0°C | 0% | 0hPa | 0V | 00:00:00 | 00:00:00 | 00:00:00 | |
| DB0NH | 2026-09-01 13:43:57 | 49.70398 | 8.19537 | 91° | 75km/h | 14572m | 4.0m/s | 0°C | 0% | 0hPa | 0V | 00:00:00 | 00:00:00 | 00:00:00 | |
| DO3MHA-11 | 2026-09-01 13:43:56 | 49.70398 | 8.19509 | 90° | 73km/h | 14568m | 5.5m/s | 0°C | 0% | 0hPa | 0V | 00:00:00 | 00:00:00 | 00:00:00 | |
| DB0UT-7 | 2026-09-01 13:43:55 | 49.70398 | 8.19480 | 92° | 75km/h | 14563m | 3.8m/s | 0°C | 0% | 0hPa | 0V | 00:00:00 | 00:00:00 | 00:00:00 | |
| DM0DOS-11 | 2026-09-01 13:43:54 | 49.70396 | 8.19342 | 91° | 68km/h | 14541m | 5.6m/s | 0°C | 0% | 0hPa | 0V | 00:00:00 | 00:00:00 | 00:00:00 | |
| BIOWL1-15 | 2026-09-01 13:43:53 | 49.70396 | 8.19315 | 90° | 71km/h | 14541m | 5.6m/s | -53°C | 0% | 0hPa | 4.8V | 00:00:00 | 00:00:00 | 00:00:00 | |
| DF1GD-15 | 2026-09-01 13:43:52 | 49.70397 | 8.19394 | 87° | 69km/h | 14554m | 3.3m/s | -53.0°C | 0% | 0hPa | 0V | 00:00:00 | 00:00:00 | 00:00:00 | |
| DL1NUX | 2026-09-01 13:43:51 | 49.70395 | 8.19227 | 88° | 75km/h | 14523m | 5.1m/s | 0°C | 0% | 0hPa | 0V | 00:00:00 | 00:00:00 | 00:00:00 | |
| DK7TD | 2026-09-01 13:43:49 | 49.70396 | 8.19286 | 88° | 75km/h | 14536m | 4.2m/s | -53°C | 0% | 0hPa | 4.8V | 00:00:00 | 00:00:00 | 00:00:00 | |
| DO3MHA-11 | 2026-09-01 13:43:46 | 49.70395 | 8.19227 | 89° | 73km/h | 14523m | 5.1m/s | 0°C | 0% | 0hPa | 0V | 00:00:00 | 00:00:00 | 00:00:00 | |
| DN1GJH-1 | 2026-09-01 13:43:43 | 49.70392 | 8.19143 | 89° | 68km/h | 14515m | 4.7m/s | -53.1°C | 0% | 0hPa | 0V | 00:00:00 | 00:00:00 | 00:00:00 | |
| DM0DOS-11 | 2026-09-01 13:43:42 | 49.70390 | 8.19064 | 88° | 73km/h | 14498m | 4.4m/s | 0°C | 0% | 0hPa | 0V | 00:00:00 | 00:00:00 | 00:00:00 | |
| BIOWL1-15 | 2026-09-01 13:43:41 | 49.70389 | 8.19033 | 89° | 77km/h | 14498m | 4.4m/s | -53.3°C | 0% | 0hPa | 4.8V | 00:00:00 | 00:00:00 | 00:00:00 | |
| DF2AP-13 | 2026-09-01 13:43:40 | 49.70390 | 8.19064 | 89° | 82km/h | 14498m | 4.3m/s | 0°C | 0% | 0hPa | 4.8V | 00:00:00 | 00:00:00 | 00:00:00 | |
| DK7TD | 2026-09-01 13:43:38 | 49.70387 | 8.18971 | 84° | 84km/h | 14489m | 5m/s | -53.4°C | 0% | 0hPa | 4.8V | 00:00:00 | 00:00:00 | 00:00:00 | |
| DO3MHA-11 | 2026-09-01 13:43:36 | 49.70385 | 8.18937 | 88° | 80km/h | 14480m | 4.0m/s | 0°C | 0% | 0hPa | 0V | 00:00:00 | 00:00:00 | 00:00:00 | |
| DM0DOS-11 | 2026-09-01 13:43:35 | 49.70377 | 8.18752 | 84° | 78km/h | 14454m | 3.7m/s | 0°C | 0% | 0hPa | 0V | 00:00:00 | 00:00:00 | 00:00:00 | |
| HEMX73-11 | 2026-09-01 13:43:34 | 49.70382 | 8.18874 | 88° | 80km/h | 14476m | 4.5m/s | -53.4°C | 0% | 0hPa | 4.8V | 00:00:00 | 00:00:00 | 00:00:00 | |
| DF1GD-15 | 2026-09-01 13:43:32 | 49.70380 | 8.18812 | 86° | 78km/h | 14467m | 4.3m/s | -53.4°C | 0% | 0hPa | 4.8V | 00:00:00 | 00:00:00 | 00:00:00 | |
| BIOWL1-15 | 2026-09-01 13:43:30 | 49.70374 | 8.18721 | 80° | 82km/h | 14454m | 3.7m/s | -53.4°C | 0% | 0hPa | 4.8V | 00:00:00 | 00:00:00 | 00:00:00 | |
| DK7TD | 2026-09-01 13:43:28 | 49.70366 | 8.18659 | 80° | 80km/h | 14445m | 3.6m/s | -53.4°C | 0% | 0hPa | 4.8V | 00:00:00 | 00:00:00 | 00:00:00 | |
| DB0NH | 2026-09-01 13:43:27 | 49.70366 | 8.18658 | 80° | 82km/h | 14441m | 4.9m/s | 0°C | 0% | 0hPa | 0V | 00:00:00 | 00:00:00 | 00:00:00 | |
| DO3MHA-11 | 2026-09-01 13:43:26 | 49.70362 | 8.18627 | 80° | 82km/h | 14437m | 3.6m/s | 0°C | 0% | 0hPa | 0V | 00:00:00 | 00:00:00 | 00:00:00 | |
| DB0UT-7 | 2026-09-01 13:43:25 | 49.70358 | 8.18595 | 82° | 82km/h | 14432m | 5.2m/s | 0°C | 0% | 0hPa | 0V | 00:00:00 | 00:00:00 | 00:00:00 | |
| DM0DOS-11 | 2026-09-01 13:43:24 | 49.70342 | 8.18435 | 76° | 82km/h | 14411m | 4.3m/s | 0°C | 0% | 0hPa | 0V | 00:00:00 | 00:00:00 | 00:00:00 | |
| DN1GJH-1 | 2026-09-01 13:43:23 | 49.70352 | 8.18531 | 86° | 82km/h | 14428m | 3.5m/s | -53.4°C | 0% | 0hPa | 0V | 00:00:00 | 00:00:00 | 00:00:00 | |
| DL1NUX | 2026-09-01 13:43:21 | 49.70323 | 8.18307 | 78° | 86km/h | 14395m | 3.6m/s | 0°C | 0% | 0hPa | 0V | 00:00:00 | 00:00:00 | 00:00:00 | |
| BIOWL1-15 | 2026-09-01 13:43:18 | 49.70333 | 8.18372 | 78° | 82km/h | 14407m | 3.4m/s | -53.3°C | 0% | 0hPa | 4.8V | 00:00:00 | 00:00:00 | 00:00:00 | |
| DK7TD | 2026-09-01 13:43:17 | 49.70323 | 8.18307 | 78° | 86km/h | 14399m | 4.1m/s | -53.3°C | 0% | 0hPa | 4.8V | 00:00:00 | 00:00:00 | 00:00:00 | |
| DO3MHA-11 | 2026-09-01 13:43:16 | 49.70323 | 8.18307 | 79° | 84km/h | 14395m | 3.6m/s | 0°C | 0% | 0hPa | 0V | 00:00:00 | 00:00:00 | 00:00:00 | |
| HEMX73-11 | 2026-09-01 13:43:13 | 49.70311 | 8.18210 | 78° | 84km/h | 14387m | 3.8m/s | -53.3°C | 0% | 0hPa | 0V | 00:00:00 | 00:00:00 | 00:00:00 | |
| DM0DOS-11 | 2026-09-01 13:43:11 | 49.70299 | 8.18117 | 76° | 82km/h | 14370m | 3.3m/s | 0°C | 0% | 0hPa | 0V | 00:00:00 | 00:00:00 | 00:00:00 | |
| DF2AP-13 | 2026-09-01 13:43:10 | 49.70299 | 8.18117 | 77° | 80km/h | 14370m | 3.2m/s | 0°C | 0% | 0hPa | 4.8V | 00:00:00 | 00:00:00 | 00:00:00 | |
| BIOWL1-15 | 2026-09-01 13:43:08 | 49.70285 | 8.18021 | 77° | 82km/h | 14362m | 3.6m/s | -53.3°C | 0% | 0hPa | 4.8V | 00:00:00 | 00:00:00 | 00:00:00 | |
| NBG1-10 | 2026-09-01 13:43:07 | 49.70284 | 8.18021 | 78° | 78km/h | 14358m | 4.2m/s | 0°C | 0% | 0hPa | 4.8V | 00:00:00 | 00:00:00 | 00:00:00 | |
| DK7TD | 2026-09-01 13:43:06 | 49.70275 | 8.17958 | 78° | 84km/h | 14354m | 3.3m/s | -53.3°C | 0% | 0hPa | 4.8V | 00:00:00 | 00:00:00 | 00:00:00 | |
| DO3MHA-11 | 2026-09-01 13:43:06 | 49.70280 | 8.17989 | 78° | 80km/h | 14354m | 3.3m/s | 0°C | 0% | 0hPa | 0V | 00:00:00 | 00:00:00 | 00:00:00 | |
| DM0DOS-11 | 2026-09-01 13:43:05 | 49.70255 | 8.17806 | 74° | 78km/h | 14329m | 3.8m/s | 0°C | 0% | 0hPa | 0V | 00:00:00 | 00:00:00 | 00:00:00 | |
| CB1BUN | 2026-09-01 13:43:03 | 49.70265 | 8.17866 | 80° | 78km/h | 14342m | 4.8m/s | -53.3°C | 0% | 0hPa | 0V | 00:00:00 | 00:00:00 | 00:00:00 | |
| DN1GJH-1 | 2026-09-01 13:43:02 | 49.70265 | 8.17866 | 80° | 78km/h | 14342m | 4.8m/s | -53.3°C | 0% | 0hPa | 0V | 00:00:00 | 00:00:00 | 00:00:00 | |
| DL1NUX | 2026-09-01 13:43:01 | 49.70236 | 8.17687 | 79° | 78km/h | 14312m | 3.3m/s | 0°C | 0% | 0hPa | 0V | 00:00:00 | 00:00:00 | 00:00:00 | |
| DL8DAS-15 | 2026-09-01 13:42:59 | 49.70250 | 8.17776 | 76° | 77km/h | 14329m | 3.8m/s | -53.4°C | 0% | 0hPa | 4.8V | 00:00:00 | 00:00:00 | 00:00:00 | |
| SO1NDE-10 | 2026-09-01 13:42:58 | 49.70245 | 8.17747 | 75° | 78km/h | 14320m | 3.4m/s | 0°C | 0% | 0hPa | 4.8V | 00:00:00 | 00:00:00 | 00:00:00 | |
| BIOWL1-15 | 2026-09-01 13:42:57 | 49.70236 | 8.17687 | 80° | 78km/h | 14316m | 4.5m/s | -53.5°C | 0% | 0hPa | 4.8V | 00:00:00 | 00:00:00 | 00:00:00 | |
| DO3MHA-11 | 2026-09-01 13:42:56 | 49.70236 | 8.17687 | 80° | 78km/h | 14312m | 3.3m/s | 0°C | 0% | 0hPa | 4.8V | 00:00:00 | 00:00:00 | 00:00:00 | |
| DK7TD | 2026-09-01 13:42:55 | 49.70229 | 8.17627 | 78° | 78km/h | 14308m | 4.5m/s | -53.5°C | 0% | 0hPa | 4.8V | 00:00:00 | 00:00:00 | 00:00:00 | |
| DM0DOS-11 | 2026-09-01 13:42:53 | 49.70207 | 8.17511 | 70° | 78km/h | 14288m | 4.4m/s | 0°C | 0% | 0hPa | 0V | 00:00:00 | 00:00:00 | 00:00:00 | |
| DL1NUX | 2026-09-01 13:42:51 | 49.70186 | 8.17389 | 76° | 84km/h | 14272m | 4.5m/s | 0°C | 0% | 0hPa | 0V | 00:00:00 | 00:00:00 | 00:00:00 | |
| DJTTGO | 2026-09-01 13:42:50 | 49.70207 | 8.17511 | 71° | 78km/h | 14292m | 4.2m/s | 0°C | 0% | 0hPa | 4.8V | 00:00:00 | 00:00:00 | 00:00:00 | |
| BIOWL1-15 | 2026-09-01 13:42:46 | 49.70186 | 8.17389 | 76° | 84km/h | 14275m | 3.1m/s | -53.7°C | 0% | 0hPa | 4.8V | 00:00:00 | 00:00:00 | 00:00:00 | |
| DO3MHA-11 | 2026-09-01 13:42:46 | 49.70186 | 8.17389 | 77° | 78km/h | 14272m | 4.5m/s | 0°C | 0% | 0hPa | 4.8V | 00:00:00 | 00:00:00 | 00:00:00 | |
| DK7TD | 2026-09-01 13:42:45 | 49.70177 | 8.17327 | 78° | 78km/h | 14268m | 3.5m/s | -53.7°C | 0% | 0hPa | 4.8V | 00:00:00 | 00:00:00 | 00:00:00 | |
| DM0DOS-11 | 2026-09-01 13:42:41 | 49.70147 | 8.17181 | 74° | 75km/h | 14244m | 4.7m/s | 0°C | 0% | 0hPa | 0V | 00:00:00 | 00:00:00 | 00:00:00 | |
| DL1NUX | 2026-09-01 13:42:40 | 49.70127 | 8.17064 | 75° | 77km/h | 14227m | 4m/s | 0°C | 0% | 0hPa | 0V | 00:00:00 | 00:00:00 | 00:00:00 | |
| DF2AP-13 | 2026-09-01 13:42:40 | 49.70153 | 8.17210 | 75° | 73km/h | 14248m | 3.4m/s | 0°C | 0% | 0hPa | 4.8V | 00:00:00 | 00:00:00 | 00:00:00 | |
| BIOWL1-15 | 2026-09-01 13:42:36 | 49.70127 | 8.17064 | 76° | 77km/h | 14231m | 3.5m/s | -53.8°C | 0% | 0hPa | 4.8V | 00:00:00 | 00:00:00 | 00:00:00 | |
| DO3MHA-11 | 2026-09-01 13:42:36 | 49.70132 | 8.17092 | 76° | 73km/h | 14231m | 3.5m/s | 0°C | 0% | 0hPa | 4.8V | 00:00:00 | 00:00:00 | 00:00:00 | |
| DK7TD | 2026-09-01 13:42:34 | 49.70117 | 8.17008 | 73° | 73km/h | 14223m | 3.9m/s | -53.8°C | 0% | 0hPa | 4.8V | 00:00:00 | 00:00:00 | 00:00:00 | |
| NBG1-10 | 2026-09-01 13:42:34 | 49.70122 | 8.17035 | 74° | 69km/h | 14223m | 3.8m/s | 0°C | 0% | 0hPa | 0V | 00:00:00 | 00:00:00 | 00:00:00 | |
| HEMX73-11 | 2026-09-01 13:42:32 | 49.70112 | 8.16980 | 76° | 71km/h | 14219m | 4.6m/s | -53.8°C | 0% | 0hPa | 0V | 00:00:00 | 00:00:00 | 00:00:00 | |
| DL1NUX | 2026-09-01 13:42:30 | 49.70084 | 8.16787 | 76° | 73km/h | 14186m | 4.5m/s | 0°C | 0% | 0hPa | 0V | 00:00:00 | 00:00:00 | 00:00:00 | |
| DM0DOS-11 | 2026-09-01 13:42:29 | 49.70099 | 8.16897 | 78° | 75km/h | 14203m | 4.6m/s | 0°C | 0% | 0hPa | 0V | 00:00:00 | 00:00:00 | 00:00:00 | |
| BIOWL1-15 | 2026-09-01 13:42:28 | 49.70084 | 8.16787 | 76° | 73km/h | 14190m | 3.6m/s | -53.7°C | 0% | 0hPa | 4.8V | 00:00:00 | 00:00:00 | 00:00:00 | |
| DB0NH | 2026-09-01 13:42:27 | 49.70092 | 8.16842 | 77° | 68km/h | 14195m | 4.5m/s | 0°C | 0% | 0hPa | 0V | 00:00:00 | 00:00:00 | 00:00:00 | |
| DO3MHA-11 | 2026-09-01 13:42:26 | 49.70088 | 8.16814 | 77° | 69km/h | 14190m | 3.5m/s | 0°C | 0% | 0hPa | 0V | 00:00:00 | 00:00:00 | 00:00:00 | |
| DB0UT-7 | 2026-09-01 13:42:24 | 49.70079 | 8.16760 | 77° | 68km/h | 14182m | 3.5m/s | 0°C | 0% | 0hPa | 0V | 00:00:00 | 00:00:00 | 00:00:00 | |
| DM0DOS-11 | 2026-09-01 13:42:23 | 49.70059 | 8.16627 | 81° | 68km/h | 14161m | 5m/s | 0°C | 0% | 0hPa | 0V | 00:00:00 | 00:00:00 | 00:00:00 | |
| DK7TD | 2026-09-01 13:42:23 | 49.70071 | 8.16707 | 75° | 71km/h | 14178m | 4.5m/s | -53.7°C | 0% | 0hPa | 4.8V | 00:00:00 | 00:00:00 | 00:00:00 | |
| DN1GJH-1 | 2026-09-01 13:42:21 | 49.70066 | 8.16680 | 76° | 73km/h | 14174m | 3.4m/s | -53.6°C | 0% | 0hPa | 0V | 00:00:00 | 00:00:00 | 00:00:00 | |
| DL1NUX | 2026-09-01 13:42:20 | 49.70045 | 8.16525 | 77° | 68km/h | 14131m | 3.7m/s | 0°C | 0% | 0hPa | 0V | 00:00:00 | 00:00:00 | 00:00:00 | |
| DO3MHA-11 | 2026-09-01 13:42:16 | 49.70049 | 8.16551 | 78° | 68km/h | 14148m | 3.8m/s | 0°C | 0% | 0hPa | 4.8V | 00:00:00 | 00:00:00 | 00:00:00 | |
| BIOWL1-15 | 2026-09-01 13:42:15 | 49.70037 | 8.16471 | 78° | 73km/h | 14139m | 3.2m/s | -53.6°C | 0% | 0hPa | 4.8V | 00:00:00 | 00:00:00 | 00:00:00 | |
| DK7TD | 2026-09-01 13:42:12 | 49.70031 | 8.16417 | 84° | 68km/h | 14131m | 3.7m/s | -53.6°C | 0% | 0hPa | 4.8V | 00:00:00 | 00:00:00 | 00:00:00 | |
| DM0DOS-11 | 2026-09-01 13:42:11 | 49.70026 | 8.16365 | 78° | 68km/h | 14118m | 4.7m/s | 0°C | 0% | 0hPa | 0V | 00:00:00 | 00:00:00 | 00:00:00 | |
| DF2AP-13 | 2026-09-01 13:42:10 | 49.70029 | 8.16390 | 79° | 64km/h | 14122m | 3.2m/s | 0°C | 0% | 0hPa | 4.9V | 00:00:00 | 00:00:00 | 00:00:00 | |
| BIOWL1-15 | 2026-09-01 13:42:03 | 49.70010 | 8.16211 | 80° | 64km/h | 14097m | 4.3m/s | -53.5°C | 0% | 0hPa | 4.9V | 00:00:00 | 00:00:00 | 00:00:00 | |
| NBG1-10 | 2026-09-01 13:42:01 | 49.70004 | 8.16167 | 84° | 64km/h | 14084m | 3.6m/s | 0°C | 0% | 0hPa | 0V | 00:00:00 | 00:00:00 | 00:00:00 | |
| DN1GJH-1 | 2026-09-01 13:42:00 | 49.70002 | 8.16140 | 85° | 60km/h | 14084m | 3.7m/s | -53.6°C | 0% | 0hPa | 0V | 00:00:00 | 00:00:00 | 00:00:00 | |
| DM0DOS-11 | 2026-09-01 13:41:59 | 49.70000 | 8.16116 | 81° | 64km/h | 14075m | 3.8m/s | 0°C | 0% | 0hPa | 0V | 00:00:00 | 00:00:00 | 00:00:00 | |
| SO1NDE-10 | 2026-09-01 13:41:58 | 49.69998 | 8.16091 | 82° | 64km/h | 14071m | 4.7m/s | 0°C | 0% | 0hPa | 0V | 00:00:00 | 00:00:00 | 00:00:00 | |
| DL1NUX | 2026-09-01 13:41:57 | 49.69981 | 8.15947 | 83° | 58km/h | 14046m | 3.6m/s | 0°C | 0% | 0hPa | 0V | 00:00:00 | 00:00:00 | 00:00:00 | |
| DB0NH | 2026-09-01 13:41:57 | 49.69995 | 8.16066 | 79° | 64km/h | 14067m | 3.0m/s | 0°C | 0% | 0hPa | 4.9V | 00:00:00 | 00:00:00 | 00:00:00 | |
| DO3MHA-11 | 2026-09-01 13:41:56 | 49.69992 | 8.16041 | 79° | 64km/h | 14063m | 4.5m/s | 0°C | 0% | 0hPa | 4.9V | 00:00:00 | 00:00:00 | 00:00:00 | |
| DB0UT-7 | 2026-09-01 13:41:54 | 49.69985 | 8.15993 | 79° | 64km/h | 14055m | 4.3m/s | 0°C | 0% | 0hPa | 4.9V | 00:00:00 | 00:00:00 | 00:00:00 | |
| BIOWL1-15 | 2026-09-01 13:41:53 | 49.69981 | 8.15947 | 83° | 58km/h | 14050m | 4.5m/s | -53.8°C | 0% | 0hPa | 4.9V | 00:00:00 | 00:00:00 | 00:00:00 | |
| HEMX73-11 | 2026-09-01 13:41:52 | 49.69979 | 8.15923 | 85° | 64km/h | 14046m | 3.6m/s | -53.8°C | 0% | 0hPa | 4.9V | 00:00:00 | 00:00:00 | 00:00:00 | |
| DK7TD | 2026-09-01 13:41:50 | 49.69977 | 8.15898 | 85° | 64km/h | 14042m | 4.4m/s | -53.9°C | 0% | 0hPa | 4.9V | 00:00:00 | 00:00:00 | 00:00:00 | |
| DF1GD-15 | 2026-09-01 13:41:49 | 49.69975 | 8.15873 | 86° | 66km/h | 14038m | 4.0m/s | -53.9°C | 0% | 0hPa | 0V | 00:00:00 | 00:00:00 | 00:00:00 | |
| DJ3KS | 2026-09-01 13:41:48 | 49.69974 | 8.15847 | 83° | 69km/h | 14034m | 4.8m/s | 0°C | 0% | 0hPa | 0V | 00:00:00 | 00:00:00 | 00:00:00 | |
| DL1NUX | 2026-09-01 13:41:47 | 49.69955 | 8.15702 | 81° | 62km/h | 14004m | 3.7m/s | 0°C | 0% | 0hPa | 0V | 00:00:00 | 00:00:00 | 00:00:00 | |
| DO3MHA-11 | 2026-09-01 13:41:46 | 49.69968 | 8.15795 | 79° | 64km/h | 14021m | 3.3m/s | 0°C | 0% | 0hPa | 4.9V | 00:00:00 | 00:00:00 | 00:00:00 | |
| BIOWL1-15 | 2026-09-01 13:41:44 | 49.69953 | 8.15677 | 82° | 64km/h | 14004m | 3.7m/s | -54°C | 0% | 0hPa | 4.9V | 00:00:00 | 00:00:00 | 00:00:00 | |
| DM0DOS-11 | 2026-09-01 13:41:41 | 49.69948 | 8.15625 | 81° | 68km/h | 13991m | 3.7m/s | 0°C | 0% | 0hPa | 0V | 00:00:00 | 00:00:00 | 00:00:00 | |
| DK7TD | 2026-09-01 13:41:40 | 49.69948 | 8.15625 | 81° | 68km/h | 13995m | 5.2m/s | -54.1°C | 0% | 0hPa | 4.9V | 00:00:00 | 00:00:00 | 00:00:00 | |
| DF2AP-13 | 2026-09-01 13:41:40 | 49.69950 | 8.15650 | 82° | 64km/h | 13996m | 5.1m/s | 0°C | 0% | 0hPa | 0V | 00:00:00 | 00:00:00 | 00:00:00 | |
| DL1NUX | 2026-09-01 13:41:37 | 49.69927 | 8.15448 | 79° | 68km/h | 13961m | 4.1m/s | 0°C | 0% | 0hPa | 0V | 00:00:00 | 00:00:00 | 00:00:00 | |
| DO3MHA-11 | 2026-09-01 13:41:36 | 49.69940 | 8.15550 | 79° | 66km/h | 13978m | 3.8m/s | 0°C | 0% | 0hPa | 4.9V | 00:00:00 | 00:00:00 | 00:00:00 | |
| BIOWL1-15 | 2026-09-01 13:41:31 | 49.69924 | 8.15422 | 81° | 68km/h | 13961m | 4.1m/s | -54.3°C | 0% | 0hPa | 4.9V | 00:00:00 | 00:00:00 | 00:00:00 | |
| HEMX73-11 | 2026-09-01 13:41:31 | 49.69924 | 8.15422 | 82° | 68km/h | 13961m | 4.1m/s | -54.3°C | 0% | 0hPa | 0V | 00:00:00 | 00:00:00 | 00:00:00 | |
| DM0DOS-11 | 2026-09-01 13:41:29 | 49.69919 | 8.15373 | 77° | 60km/h | 13948m | 4.7m/s | 0°C | 0% | 0hPa | 0V | 00:00:00 | 00:00:00 | 00:00:00 | |
| DK7TD | 2026-09-01 13:41:29 | 49.69916 | 8.15349 | 78° | 64km/h | 13948m | 4.7m/s | -54.3°C | 0% | 0hPa | 4.9V | 00:00:00 | 00:00:00 | 00:00:00 | |
| NBG1-10 | 2026-09-01 13:41:28 | 49.69916 | 8.15349 | 78° | 64km/h | 13944m | 4.3m/s | 0°C | 0% | 0hPa | 0V | 00:00:00 | 00:00:00 | 00:00:00 | |
| DL1NUX | 2026-09-01 13:41:27 | 49.69900 | 8.15206 | 85° | 68km/h | 13918m | 3.1m/s | 0°C | 0% | 0hPa | 0V | 00:00:00 | 00:00:00 | 00:00:00 | |
| DB0NH | 2026-09-01 13:41:27 | 49.69912 | 8.15325 | 78° | 64km/h | 13939m | 4.3m/s | 0°C | 0% | 0hPa | 0V | 00:00:00 | 00:00:00 | 00:00:00 | |
| DO3MHA-11 | 2026-09-01 13:41:26 | 49.69909 | 8.15303 | 78° | 62km/h | 13935m | 3.6m/s | 0°C | 0% | 0hPa | 0V | 00:00:00 | 00:00:00 | 00:00:00 | |
| DM0DOS-11 | 2026-09-01 13:41:23 | 49.69896 | 8.15131 | 83° | 64km/h | 13905m | 5.5m/s | 0°C | 0% | 0hPa | 0V | 00:00:00 | 00:00:00 | 00:00:00 | |
| DB0UT-7 | 2026-09-01 13:41:23 | 49.69901 | 8.15232 | 84° | 66km/h | 13922m | 5.4m/s | 0°C | 0% | 0hPa | 4.9V | 00:00:00 | 00:00:00 | 00:00:00 | |
| BIOWL1-15 | 2026-09-01 13:41:21 | 49.69895 | 8.15131 | 84° | 64km/h | 13910m | 3.2m/s | -54°C | 0% | 0hPa | 4.9V | 00:00:00 | 00:00:00 | 00:00:00 | |
| DN1GJH-1 | 2026-09-01 13:41:19 | 49.69895 | 8.15130 | 85° | 64km/h | 13910m | 3.2m/s | -54.0°C | 0% | 0hPa | 4.9V | 00:00:00 | 00:00:00 | 00:00:00 | |
| DK7TD | 2026-09-01 13:41:18 | 49.69892 | 8.15084 | 84° | 57km/h | 13901m | 3.8m/s | -54°C | 0% | 0hPa | 4.9V | 00:00:00 | 00:00:00 | 00:00:00 | |
| DL1NUX | 2026-09-01 13:41:17 | 49.69885 | 8.14957 | 83° | 68km/h | 13872m | 3.9m/s | 0°C | 0% | 0hPa | 0V | 00:00:00 | 00:00:00 | 00:00:00 | |
| DO3MHA-11 | 2026-09-01 13:41:16 | 49.69890 | 8.15063 | 85° | 64km/h | 13891m | 4.0m/s | 0°C | 0% | 0hPa | 0V | 00:00:00 | 00:00:00 | 00:00:00 | |
| DM0DOS-11 | 2026-09-01 13:41:11 | 49.69880 | 8.14886 | 83° | 57km/h | 13857m | 4.9m/s | 0°C | 0% | 0hPa | 0V | 00:00:00 | 00:00:00 | 00:00:00 | |
| HEMX73-11 | 2026-09-01 13:41:11 | 49.69881 | 8.14909 | 84° | 60km/h | 13867m | 5.9m/s | -53.7°C | 0% | 0hPa | 4.9V | 00:00:00 | 00:00:00 | 00:00:00 | |
| DF2AP-13 | 2026-09-01 13:41:10 | 49.69881 | 8.14909 | 84° | 68km/h | 13862m | 4.0m/s | 0°C | 0% | 0hPa | 4.9V | 00:00:00 | 00:00:00 | 00:00:00 | |
| DK7TD | 2026-09-01 13:41:08 | 49.69877 | 8.14839 | 87° | 66km/h | 13853m | 3.5m/s | -53.6°C | 0% | 0hPa | 4.9V | 00:00:00 | 00:00:00 | 00:00:00 | |
| DL1NUX | 2026-09-01 13:41:07 | 49.69877 | 8.14704 | 88° | 66km/h | 13826m | 4.6m/s | 0°C | 0% | 0hPa | 0V | 00:00:00 | 00:00:00 | 00:00:00 | |
| DO3MHA-11 | 2026-09-01 13:41:06 | 49.69876 | 8.14814 | 91° | 66km/h | 13844m | 3.9m/s | 0°C | 0% | 0hPa | 0V | 00:00:00 | 00:00:00 | 00:00:00 | |
| DL9PN | 2026-09-01 13:41:03 | 49.69877 | 8.14704 | 88° | 64km/h | 13831m | 4.4m/s | -53.5°C | -1.0% | -1.0hPa | 0V | 00:00:00 | 00:00:00 | 00:00:00 | |
| DM0DOS-11 | 2026-09-01 13:40:59 | 49.69872 | 8.14631 | 86° | 64km/h | 13813m | 3.9m/s | 0°C | 0% | 0hPa | 0V | 00:00:00 | 00:00:00 | 00:00:00 | |
| SO1NDE-10 | 2026-09-01 13:40:58 | 49.69871 | 8.14606 | 87° | 71km/h | 13809m | 5.4m/s | 0°C | 0% | 0hPa | 0V | 00:00:00 | 00:00:00 | 00:00:00 | |
| DL1NUX | 2026-09-01 13:40:57 | 49.69873 | 8.14441 | 85° | 69km/h | 13781m | 5.1m/s | 0°C | 0% | 0hPa | 0V | 00:00:00 | 00:00:00 | 00:00:00 | |
| BIOWL1-15 | 2026-09-01 13:40:57 | 49.69871 | 8.14554 | 92° | 73km/h | 13804m | 4.2m/s | -53.4°C | 0% | 0hPa | 4.9V | 00:00:00 | 00:00:00 | 00:00:00 | |
| DO3MHA-11 | 2026-09-01 13:40:56 | 49.69871 | 8.14553 | 93° | 69km/h | 13800m | 5.2m/s | 0°C | 0% | 0hPa | 0V | 00:00:00 | 00:00:00 | 00:00:00 | |
| NBG1-10 | 2026-09-01 13:40:55 | 49.69872 | 8.14525 | 95° | 69km/h | 13795m | 3.4m/s | 0°C | 0% | 0hPa | 0V | 00:00:00 | 00:00:00 | 00:00:00 | |
| DJ3KS | 2026-09-01 13:40:54 | 49.69873 | 8.14498 | 95° | 71km/h | 13795m | 3.5m/s | 0°C | 0% | 0hPa | 0V | 00:00:00 | 00:00:00 | 00:00:00 | |
| DM0DOS-11 | 2026-09-01 13:40:53 | 49.69870 | 8.14365 | 89° | 68km/h | 13767m | 3.9m/s | 0°C | 0% | 0hPa | 0V | 00:00:00 | 00:00:00 | 00:00:00 | |
| DB0UT-7 | 2026-09-01 13:40:53 | 49.69874 | 8.14470 | 90° | 71km/h | 13786m | 4.2m/s | 0°C | 0% | 0hPa | 4.9V | 00:00:00 | 00:00:00 | 00:00:00 | |
| HEMX73-11 | 2026-09-01 13:40:49 | 49.69870 | 8.14365 | 91° | 68km/h | 13772m | 5.4m/s | -53.2°C | 0% | 0hPa | 4.9V | 00:00:00 | 00:00:00 | 00:00:00 | |
| DF1GD-15 | 2026-09-01 13:40:48 | 49.69871 | 8.14337 | 93° | 75km/h | 13768m | 3.9m/s | -53.2°C | 0% | 0hPa | 4.9V | 00:00:00 | 00:00:00 | 00:00:00 | |
| DK7TD | 2026-09-01 13:40:46 | 49.69874 | 8.14252 | 92° | 73km/h | 13753m | 5.6m/s | -53.1°C | 0% | 0hPa | 4.9V | 00:00:00 | 00:00:00 | 00:00:00 | |
| BIOWL1-15 | 2026-09-01 13:40:45 | 49.69874 | 8.14196 | 88° | 69km/h | 13744m | 4.9m/s | -53.1°C | 0% | 0hPa | 4.9V | 00:00:00 | 00:00:00 | 00:00:00 | |
| DM0DOS-11 | 2026-09-01 13:40:41 | 49.69873 | 8.14089 | 89° | 73km/h | 13722m | 4.4m/s | 0°C | 0% | 0hPa | 0V | 00:00:00 | 00:00:00 | 00:00:00 | |
| DF2AP-13 | 2026-09-01 13:40:40 | 49.69873 | 8.14118 | 90° | 73km/h | 13726m | 4.0m/s | 0°C | 0% | 0hPa | 0V | 00:00:00 | 00:00:00 | 00:00:00 | |
| DN1GJH-1 | 2026-09-01 13:40:39 | 49.69873 | 8.14061 | 91° | 73km/h | 13722m | 4.4m/s | -53.0°C | 0% | 0hPa | 0V | 00:00:00 | 00:00:00 | 00:00:00 | |
| DL1NUX | 2026-09-01 13:40:37 | 49.69873 | 8.13888 | 90° | 75km/h | 13691m | 4.5m/s | 0°C | 0% | 0hPa | 0V | 00:00:00 | 00:00:00 | 00:00:00 | |
| DO3MHA-11 | 2026-09-01 13:40:36 | 49.69872 | 8.14003 | 88° | 73km/h | 13709m | 4.4m/s | 0°C | 0% | 0hPa | 4.9V | 00:00:00 | 00:00:00 | 00:00:00 | |
| DK7TD | 2026-09-01 13:40:35 | 49.69872 | 8.13945 | 91° | 73km/h | 13704m | 4.2m/s | -52.9°C | 0% | 0hPa | 4.9V | 00:00:00 | 00:00:00 | 00:00:00 | |
| DM0DOS-11 | 2026-09-01 13:40:29 | 49.69874 | 8.13804 | 86° | 69km/h | 13677m | 3.8m/s | 0°C | 0% | 0hPa | 0V | 00:00:00 | 00:00:00 | 00:00:00 | |
| SO1NDE-10 | 2026-09-01 13:40:28 | 49.69873 | 8.13777 | 87° | 73km/h | 13673m | 5.4m/s | 0°C | 0% | 0hPa | 4.9V | 00:00:00 | 00:00:00 | 00:00:00 | |
| DB0NH | 2026-09-01 13:40:27 | 49.69872 | 8.13749 | 87° | 73km/h | 13668m | 4.4m/s | 0°C | 0% | 0hPa | 4.9V | 00:00:00 | 00:00:00 | 00:00:00 | |
| DO3MHA-11 | 2026-09-01 13:40:26 | 49.69871 | 8.13723 | 90° | 71km/h | 13663m | 4.9m/s | 0°C | 0% | 0hPa | 4.9V | 00:00:00 | 00:00:00 | 00:00:00 | |
| DK7TD | 2026-09-01 13:40:24 | 49.69873 | 8.13638 | 94° | 75km/h | 13653m | 5.6m/s | -52.8°C | 0% | 0hPa | 4.9V | 00:00:00 | 00:00:00 | 00:00:00 | |
| DM0DOS-11 | 2026-09-01 13:40:23 | 49.69879 | 8.13525 | 92° | 73km/h | 13630m | 4.6m/s | 0°C | 0% | 0hPa | 0V | 00:00:00 | 00:00:00 | 00:00:00 | |
| DB0UT-7 | 2026-09-01 13:40:23 | 49.69873 | 8.13638 | 95° | 75km/h | 13649m | 4.0m/s | 0°C | 0% | 0hPa | 4.9V | 00:00:00 | 00:00:00 | 00:00:00 | |
| NBG1-10 | 2026-09-01 13:40:22 | 49.69875 | 8.13610 | 96° | 75km/h | 13644m | 5.3m/s | 0°C | 0% | 0hPa | 4.9V | 00:00:00 | 00:00:00 | 00:00:00 | |
| BIOWL1-15 | 2026-09-01 13:40:20 | 49.69881 | 8.13442 | 91° | 73km/h | 13621m | 4.1m/s | -52.7°C | 0% | 0hPa | 4.9V | 00:00:00 | 00:00:00 | 00:00:00 | |
| DN1GJH-1 | 2026-09-01 13:40:18 | 49.69880 | 8.13497 | 95° | 69km/h | 13630m | 4.6m/s | -52.8°C | 0% | 0hPa | 4.9V | 00:00:00 | 00:00:00 | 00:00:00 | |
| DO3MHA-11 | 2026-09-01 13:40:16 | 49.69881 | 8.13442 | 93° | 73km/h | 13616m | 5.4m/s | 0°C | 0% | 0hPa | 4.9V | 00:00:00 | 00:00:00 | 00:00:00 | |
| DK7TD | 2026-09-01 13:40:14 | 49.69883 | 8.13357 | 92° | 75km/h | 13607m | 5.5m/s | -52.6°C | 0% | 0hPa | 4.9V | 00:00:00 | 00:00:00 | 00:00:00 | |
| DM0DOS-11 | 2026-09-01 13:40:11 | 49.69884 | 8.13238 | 89° | 75km/h | 13582m | 5m/s | 0°C | 0% | 0hPa | 0V | 00:00:00 | 00:00:00 | 00:00:00 | |
| DF2AP-13 | 2026-09-01 13:40:10 | 49.69884 | 8.13269 | 92° | 77km/h | 13588m | 4.6m/s | 0°C | 0% | 0hPa | 0V | 00:00:00 | 00:00:00 | 00:00:00 | |
| DJ3KS | 2026-09-01 13:40:09 | 49.69884 | 8.13239 | 91° | 75km/h | 13588m | 4.7m/s | 0°C | 0% | 0hPa | 0V | 00:00:00 | 00:00:00 | 00:00:00 | |
| HEMX73-11 | 2026-09-01 13:40:08 | 49.69884 | 8.13210 | 91° | 73km/h | 13583m | 5.0m/s | -52.6°C | 0% | 0hPa | 0V | 00:00:00 | 00:00:00 | 00:00:00 | |
| DL1NUX | 2026-09-01 13:40:07 | 49.69882 | 8.13036 | 91° | 75km/h | 13550m | 5.5m/s | 0°C | 0% | 0hPa | 0V | 00:00:00 | 00:00:00 | 00:00:00 | |
| DO3MHA-11 | 2026-09-01 13:40:06 | 49.69884 | 8.13155 | 90° | 77km/h | 13569m | 5.0m/s | 0°C | 0% | 0hPa | 4.9V | 00:00:00 | 00:00:00 | 00:00:00 | |
| DK7TD | 2026-09-01 13:40:03 | 49.69882 | 8.13036 | 91° | 75km/h | 13554m | 3.6m/s | -52.4°C | 0% | 0hPa | 4.9V | 00:00:00 | 00:00:00 | 00:00:00 | |
| DM0DOS-11 | 2026-09-01 13:40:00 | 49.69883 | 8.12947 | 90° | 75km/h | 13536m | 3.9m/s | 0°C | 0% | 0hPa | 0V | 00:00:00 | 00:00:00 | 00:00:00 | |
| SO1NDE-10 | 2026-09-01 13:39:58 | 49.69883 | 8.12918 | 90° | 77km/h | 13532m | 5.1m/s | 0°C | 0% | 0hPa | 0V | 00:00:00 | 00:00:00 | 00:00:00 | |
| DO3MHA-11 | 2026-09-01 13:39:56 | 49.69881 | 8.12856 | 90° | 77km/h | 13522m | 4.6m/s | 0°C | 0% | 0hPa | 0V | 00:00:00 | 00:00:00 | 00:00:00 | |
| DM0DOS-11 | 2026-09-01 13:39:55 | 49.69883 | 8.12652 | 88° | 77km/h | 13490m | 4m/s | 0°C | 0% | 0hPa | 0V | 00:00:00 | 00:00:00 | 00:00:00 | |
| BIOWL1-15 | 2026-09-01 13:39:54 | 49.69881 | 8.12768 | 91° | 78km/h | 13513m | 4.8m/s | -52.3°C | 0% | 0hPa | 4.9V | 00:00:00 | 00:00:00 | 00:00:00 | |
| DB0UT-7 | 2026-09-01 13:39:53 | 49.69881 | 8.12768 | 92° | 77km/h | 13509m | 4.2m/s | 0°C | 0% | 0hPa | 4.9V | 00:00:00 | 00:00:00 | 00:00:00 | |
| DK7TD | 2026-09-01 13:39:52 | 49.69882 | 8.12709 | 93° | 73km/h | 13504m | 4.9m/s | -52.3°C | 0% | 0hPa | 4.9V | 00:00:00 | 00:00:00 | 00:00:00 | |
| NBG1-10 | 2026-09-01 13:39:49 | 49.69882 | 8.12651 | 89° | 77km/h | 13490m | 4.0m/s | 0°C | 0% | 0hPa | 4.9V | 00:00:00 | 00:00:00 | 00:00:00 | |
| HEMX73-11 | 2026-09-01 13:39:48 | 49.69882 | 8.12621 | 89° | 80km/h | 13490m | 4.0m/s | -52.4°C | 0% | 0hPa | 4.9V | 00:00:00 | 00:00:00 | 00:00:00 | |
| DO3MHA-11 | 2026-09-01 13:39:46 | 49.69882 | 8.12558 | 94° | 78km/h | 13477m | 5.2m/s | 0°C | 0% | 0hPa | 4.9V | 00:00:00 | 00:00:00 | 00:00:00 | |
| BIOWL1-15 | 2026-09-01 13:39:45 | 49.69886 | 8.12465 | 92° | 75km/h | 13467m | 4.5m/s | -52.4°C | 0% | 0hPa | 4.9V | 00:00:00 | 00:00:00 | 00:00:00 | |
| DM0DOS-11 | 2026-09-01 13:39:39 | 49.69885 | 8.12346 | 89° | 77km/h | 13442m | 5.4m/s | 0°C | 0% | 0hPa | 0V | 00:00:00 | 00:00:00 | 00:00:00 | |
| DL1NUX | 2026-09-01 13:39:37 | 49.69881 | 8.12136 | 85° | 78km/h | 13411m | 3.7m/s | 0°C | 0% | 0hPa | 0V | 00:00:00 | 00:00:00 | 00:00:00 | |
| DO3MHA-11 | 2026-09-01 13:39:36 | 49.69884 | 8.12254 | 91° | 77km/h | 13429m | 3.8m/s | 0°C | 0% | 0hPa | 4.9V | 00:00:00 | 00:00:00 | 00:00:00 | |
| DN1GJH-1 | 2026-09-01 13:39:35 | 49.69884 | 8.12225 | 91° | 73km/h | 13429m | 3.8m/s | -52.3°C | 0% | 0hPa | 4.9V | 00:00:00 | 00:00:00 | 00:00:00 | |
| BIOWL1-15 | 2026-09-01 13:39:34 | 49.69881 | 8.12136 | 85° | 78km/h | 13415m | 5.3m/s | -52.3°C | 0% | 0hPa | 4.9V | 00:00:00 | 00:00:00 | 00:00:00 | |
| DK7TD | 2026-09-01 13:39:31 | 49.69878 | 8.12074 | 86° | 82km/h | 13406m | 5.2m/s | -52.2°C | 0% | 0hPa | 4.9V | 00:00:00 | 00:00:00 | 00:00:00 | |
| SO1NDE-10 | 2026-09-01 13:39:28 | 49.69875 | 8.12010 | 88° | 77km/h | 13393m | 3.5m/s | 0°C | 0% | 0hPa | 0V | 00:00:00 | 00:00:00 | 00:00:00 | |
| DL1NUX | 2026-09-01 13:39:27 | 49.69869 | 8.11834 | 86° | 82km/h | 13366m | 5m/s | 0°C | 0% | 0hPa | 0V | 00:00:00 | 00:00:00 | 00:00:00 | |
| DB0NH | 2026-09-01 13:39:27 | 49.69874 | 8.11982 | 88° | 78km/h | 13389m | 4.7m/s | 0°C | 0% | 0hPa | 0V | 00:00:00 | 00:00:00 | 00:00:00 | |
| DO3MHA-11 | 2026-09-01 13:39:26 | 49.69873 | 8.11954 | 87° | 77km/h | 13384m | 3.7m/s | 0°C | 0% | 0hPa | 0V | 00:00:00 | 00:00:00 | 00:00:00 | |
| DF1GD-15 | 2026-09-01 13:39:25 | 49.69872 | 8.11925 | 88° | 75km/h | 13384m | 3.8m/s | -52.2°C | 0% | 0hPa | 0V | 00:00:00 | 00:00:00 | 00:00:00 | |
| DL8DAS-15 | 2026-09-01 13:39:24 | 49.69871 | 8.11895 | 89° | 75km/h | 13380m | 5.0m/s | -52.1°C | 0% | 0hPa | 0V | 00:00:00 | 00:00:00 | 00:00:00 | |
| DM0DOS-11 | 2026-09-01 13:39:23 | 49.69864 | 8.11684 | 86° | 75km/h | 13343m | 3.5m/s | 0°C | 0% | 0hPa | 0V | 00:00:00 | 00:00:00 | 00:00:00 | |
| DB0UT-7 | 2026-09-01 13:39:23 | 49.69870 | 8.11866 | 88° | 80km/h | 13371m | 4.2m/s | 0°C | 0% | 0hPa | 4.9V | 00:00:00 | 00:00:00 | 00:00:00 | |
| BIOWL1-15 | 2026-09-01 13:39:22 | 49.69868 | 8.11803 | 87° | 80km/h | 13366m | 5m/s | -52.1°C | 0% | 0hPa | 4.9V | 00:00:00 | 00:00:00 | 00:00:00 | |
| DK7TD | 2026-09-01 13:39:20 | 49.69866 | 8.11743 | 87° | 75km/h | 13357m | 4.5m/s | -52.1°C | 0% | 0hPa | 4.9V | 00:00:00 | 00:00:00 | 00:00:00 | |
| DL1NUX | 2026-09-01 13:39:17 | 49.69856 | 8.11533 | 82° | 75km/h | 13313m | 4.3m/s | 0°C | 0% | 0hPa | 0V | 00:00:00 | 00:00:00 | 00:00:00 | |
| CB1BUN | 2026-09-01 13:39:17 | 49.69863 | 8.11654 | 88° | 75km/h | 13343m | 3.5m/s | -52.1°C | 0% | 0hPa | 4.9V | 00:00:00 | 00:00:00 | 00:00:00 | |
| DO3MHA-11 | 2026-09-01 13:39:16 | 49.69863 | 8.11654 | 87° | 78km/h | 13339m | 5.5m/s | 0°C | 0% | 0hPa | 4.9V | 00:00:00 | 00:00:00 | 00:00:00 | |
| DJ3KS | 2026-09-01 13:39:15 | 49.69862 | 8.11625 | 87° | 78km/h | 13339m | 5.6m/s | 0°C | 0% | 0hPa | 4.9V | 00:00:00 | 00:00:00 | 00:00:00 | |
| DN1GJH-1 | 2026-09-01 13:39:14 | 49.69860 | 8.11594 | 86° | 82km/h | 13334m | 3.0m/s | -52.0°C | 0% | 0hPa | 4.9V | 00:00:00 | 00:00:00 | 00:00:00 | |
| BIOWL1-15 | 2026-09-01 13:39:13 | 49.69851 | 8.11474 | 83° | 80km/h | 13318m | 4.4m/s | -52°C | 0% | 0hPa | 4.9V | 00:00:00 | 00:00:00 | 00:00:00 | |
| DF2AP-13 | 2026-09-01 13:39:10 | 49.69851 | 8.11474 | 83° | 84km/h | 13314m | 4.3m/s | 0°C | 0% | 0hPa | 0V | 00:00:00 | 00:00:00 | 00:00:00 | |
| DM0DOS-11 | 2026-09-01 13:39:09 | 49.69844 | 8.11383 | 85° | 80km/h | 13301m | 4.3m/s | 0°C | 0% | 0hPa | 0V | 00:00:00 | 00:00:00 | 00:00:00 | |
| HEMX73-11 | 2026-09-01 13:39:07 | 49.69844 | 8.11382 | 85° | 80km/h | 13305m | 5.0m/s | -52.1°C | 0% | 0hPa | 4.9V | 00:00:00 | 00:00:00 | 00:00:00 | |
| DO3MHA-11 | 2026-09-01 13:39:06 | 49.69842 | 8.11351 | 86° | 82km/h | 13296m | 4.5m/s | 0°C | 0% | 0hPa | 4.9V | 00:00:00 | 00:00:00 | 00:00:00 | |
| DF1GD-15 | 2026-09-01 13:39:05 | 49.69840 | 8.11318 | 87° | 84km/h | 13296m | 4.6m/s | -52.1°C | 0% | 0hPa | 4.9V | 00:00:00 | 00:00:00 | 00:00:00 | |
| BIOWL1-15 | 2026-09-01 13:39:02 | 49.69827 | 8.11130 | 82° | 84km/h | 13269m | 4.7m/s | -52.1°C | 0% | 0hPa | 4.9V | 00:00:00 | 00:00:00 | 00:00:00 | |
| DM0DOS-11 | 2026-09-01 13:38:58 | 49.69820 | 8.11063 | 80° | 86km/h | 13256m | 3.4m/s | 0°C | 0% | 0hPa | 0V | 00:00:00 | 00:00:00 | 00:00:00 | |
| SO1NDE-10 | 2026-09-01 13:38:58 | 49.69823 | 8.11096 | 81° | 86km/h | 13261m | 4.8m/s | 0°C | 0% | 0hPa | 4.9V | 00:00:00 | 00:00:00 | 00:00:00 | |
| DK7TD | 2026-09-01 13:38:58 | 49.69820 | 8.11063 | 80° | 86km/h | 13260m | 4.9m/s | -52.1°C | 0% | 0hPa | 4.9V | 00:00:00 | 00:00:00 | 00:00:00 | |
| DB0NH | 2026-09-01 13:38:57 | 49.69820 | 8.11063 | 81° | 86km/h | 13256m | 3.4m/s | 0°C | 0% | 0hPa | 4.9V | 00:00:00 | 00:00:00 | 00:00:00 | |
| DO3MHA-11 | 2026-09-01 13:38:56 | 49.69816 | 8.11030 | 83° | 86km/h | 13252m | 4.6m/s | 0°C | 0% | 0hPa | 4.9V | 00:00:00 | 00:00:00 | 00:00:00 | |
| DN1GJH-1 | 2026-09-01 13:38:54 | 49.69810 | 8.10964 | 84° | 86km/h | 13248m | 2.8m/s | -52.1°C | 0% | 0hPa | 4.9V | 00:00:00 | 00:00:00 | 00:00:00 | |
| DB0UT-7 | 2026-09-01 13:38:53 | 49.69808 | 8.10931 | 84° | 84km/h | 13241m | 2.9m/s | 0°C | 0% | 0hPa | 4.9V | 00:00:00 | 00:00:00 | 00:00:00 | |
| BIOWL1-15 | 2026-09-01 13:38:49 | 49.69796 | 8.10803 | 79° | 88km/h | 13228m | 5.3m/s | -52.2°C | 0% | 0hPa | 4.9V | 00:00:00 | 00:00:00 | 00:00:00 | |
| DO3DL | 2026-09-01 13:38:49 | 49.69791 | 8.10769 | 80° | 88km/h | 13224m | 3.7m/s | -52.2°C | 0% | 0hPa | 0V | 00:00:00 | 00:00:00 | 00:00:00 | |
| DM0DOS-11 | 2026-09-01 13:38:48 | 49.69787 | 8.10735 | 79° | 91km/h | 13215m | 3.5m/s | 0°C | 0% | 0hPa | 0V | 00:00:00 | 00:00:00 | 00:00:00 | |
| DK7TD | 2026-09-01 13:38:48 | 49.69787 | 8.10735 | 79° | 91km/h | 13219m | 5.2m/s | -52.3°C | 0% | 0hPa | 4.9V | 00:00:00 | 00:00:00 | 00:00:00 | |
| DO3MHA-11 | 2026-09-01 13:38:46 | 49.69783 | 8.10699 | 81° | 88km/h | 13212m | 4.3m/s | 0°C | 0% | 0hPa | 0V | 00:00:00 | 00:00:00 | 00:00:00 | |
| DF1GD-15 | 2026-09-01 13:38:44 | 49.69775 | 8.10631 | 79° | 88km/h | 13207m | 4.8m/s | -52.3°C | 0% | 0hPa | 0V | 00:00:00 | 00:00:00 | 00:00:00 | |
| DL1NUX | 2026-09-01 13:38:43 | 49.69746 | 8.10433 | 75° | 86km/h | 13178m | 4.2m/s | 0°C | 0% | 0hPa | 0V | 00:00:00 | 00:00:00 | 00:00:00 | |
| NBG1-10 | 2026-09-01 13:38:43 | 49.69770 | 8.10596 | 78° | 80km/h | 13198m | 5.0m/s | 0°C | 0% | 0hPa | 0V | 00:00:00 | 00:00:00 | 00:00:00 | |
| DO3DL | 2026-09-01 13:38:42 | 49.69765 | 8.10564 | 79° | 84km/h | 13198m | 5.1m/s | -52.3°C | 0% | 0hPa | 0V | 00:00:00 | 00:00:00 | 00:00:00 | |
| DF2AP-13 | 2026-09-01 13:38:40 | 49.69756 | 8.10499 | 78° | 80km/h | 13187m | 3.3m/s | 0°C | 0% | 0hPa | 0V | 00:00:00 | 00:00:00 | 00:00:00 | |
| DM0DOS-11 | 2026-09-01 13:38:38 | 49.69740 | 8.10401 | 72° | 86km/h | 13174m | 3.8m/s | 0°C | 0% | 0hPa | 0V | 00:00:00 | 00:00:00 | 00:00:00 | |
| DK7TD | 2026-09-01 13:38:37 | 49.69733 | 8.10369 | 72° | 88km/h | 13174m | 3.8m/s | -52.3°C | 0% | 0hPa | 4.9V | 00:00:00 | 00:00:00 | 00:00:00 | |
| CB1BUN | 2026-09-01 13:38:36 | 49.69727 | 8.10337 | 73° | 84km/h | 13170m | 4.7m/s | -52.3°C | 0% | 0hPa | 0V | 00:00:00 | 00:00:00 | 00:00:00 | |
| DL1NUX | 2026-09-01 13:38:33 | 49.69689 | 8.10117 | 74° | 84km/h | 13138m | 5m/s | 0°C | 0% | 0hPa | 0V | 00:00:00 | 00:00:00 | 00:00:00 | |
| DO3DL | 2026-09-01 13:38:32 | 49.69708 | 8.10243 | 76° | 86km/h | 13159m | 3.0m/s | -52.3°C | 0% | 0hPa | 0V | 00:00:00 | 00:00:00 | 00:00:00 | |
| DM0DOS-11 | 2026-09-01 13:38:28 | 49.69684 | 8.10087 | 74° | 82km/h | 13134m | 3.4m/s | 0°C | 0% | 0hPa | 0V | 00:00:00 | 00:00:00 | 00:00:00 | |
| BIOWL1-15 | 2026-09-01 13:38:28 | 49.69684 | 8.10087 | 75° | 82km/h | 13138m | 5m/s | -52.3°C | 0% | 0hPa | 4.9V | 00:00:00 | 00:00:00 | 00:00:00 | |
| HEMX73-11 | 2026-09-01 13:38:27 | 49.69678 | 8.10057 | 74° | 78km/h | 13134m | 3.4m/s | -52.2°C | 0% | 0hPa | 0V | 00:00:00 | 00:00:00 | 00:00:00 | |
| DK7TD | 2026-09-01 13:38:26 | 49.69673 | 8.10027 | 75° | 78km/h | 13130m | 4.8m/s | -52.2°C | 0% | 0hPa | 4.9V | 00:00:00 | 00:00:00 | 00:00:00 | |
| DO3MHA-11 | 2026-09-01 13:38:26 | 49.69678 | 8.10057 | 75° | 77km/h | 13130m | 4.8m/s | 0°C | 0% | 0hPa | 0V | 00:00:00 | 00:00:00 | 00:00:00 | |
| DF1GD-15 | 2026-09-01 13:38:24 | 49.69668 | 8.09997 | 78° | 80km/h | 13126m | 2.9m/s | -52.2°C | 0% | 0hPa | 0V | 00:00:00 | 00:00:00 | 00:00:00 | |
| DL1NUX | 2026-09-01 13:38:23 | 49.69641 | 8.09822 | 75° | 73km/h | 13098m | 5.1m/s | 0°C | 0% | 0hPa | 0V | 00:00:00 | 00:00:00 | 00:00:00 | |
| DM0DOS-11 | 2026-09-01 13:38:22 | 49.69632 | 8.09765 | 75° | 75km/h | 13089m | 4.4m/s | 0°C | 0% | 0hPa | 0V | 00:00:00 | 00:00:00 | 00:00:00 | |
| BIOWL1-15 | 2026-09-01 13:38:21 | 49.69632 | 8.09765 | 76° | 77km/h | 13094m | 4.2m/s | -52.3°C | 0% | 0hPa | 4.9V | 00:00:00 | 00:00:00 | 00:00:00 | |
| DO3MHA-11 | 2026-09-01 13:38:16 | 49.69632 | 8.09765 | 76° | 75km/h | 13089m | 4.3m/s | 0°C | 0% | 0hPa | 4.9V | 00:00:00 | 00:00:00 | 00:00:00 | |
| DK7TD | 2026-09-01 13:38:15 | 49.69621 | 8.09708 | 74° | 77km/h | 13085m | 3.1m/s | -52.5°C | 0% | 0hPa | 4.9V | 00:00:00 | 00:00:00 | 00:00:00 | |
| DL1NUX | 2026-09-01 13:38:13 | 49.69596 | 8.09538 | 81° | 71km/h | 13059m | 4.7m/s | 0°C | 0% | 0hPa | 0V | 00:00:00 | 00:00:00 | 00:00:00 | |
| DM0DOS-11 | 2026-09-01 13:38:11 | 49.69593 | 8.09511 | 79° | 71km/h | 13055m | 3.2m/s | 0°C | 0% | 0hPa | 0V | 00:00:00 | 00:00:00 | 00:00:00 | |
| NBG1-10 | 2026-09-01 13:38:10 | 49.69603 | 8.09592 | 77° | 75km/h | 13067m | 4.1m/s | 0°C | 0% | 0hPa | 4.9V | 00:00:00 | 00:00:00 | 00:00:00 | |
| BIOWL1-15 | 2026-09-01 13:38:06 | 49.69589 | 8.09484 | 77° | 69km/h | 13055m | 3.2m/s | -52.8°C | 0% | 0hPa | 4.9V | 00:00:00 | 00:00:00 | 00:00:00 | |
| DO3MHA-11 | 2026-09-01 13:38:06 | 49.69589 | 8.09484 | 78° | 71km/h | 13052m | 4.8m/s | 0°C | 0% | 0hPa | 4.9V | 00:00:00 | 00:00:00 | 00:00:00 | |
| HEMX73-11 | 2026-09-01 13:38:05 | 49.69585 | 8.09457 | 79° | 73km/h | 13052m | 4.8m/s | -52.8°C | 0% | 0hPa | 4.9V | 00:00:00 | 00:00:00 | 00:00:00 | |
| DK7TD | 2026-09-01 13:38:04 | 49.69578 | 8.09401 | 79° | 75km/h | 13043m | 4.6m/s | -52.8°C | 0% | 0hPa | 4.9V | 00:00:00 | 00:00:00 | 00:00:00 | |
| DL1NUX | 2026-09-01 13:38:03 | 49.69567 | 8.09265 | 82° | 69km/h | 13019m | 3.9m/s | 0°C | 0% | 0hPa | 0V | 00:00:00 | 00:00:00 | 00:00:00 | |
| DM0DOS-11 | 2026-09-01 13:38:01 | 49.69564 | 8.09236 | 82° | 75km/h | 13015m | 5.2m/s | 0°C | 0% | 0hPa | 0V | 00:00:00 | 00:00:00 | 00:00:00 | |
| SO1NDE-10 | 2026-09-01 13:37:58 | 49.69567 | 8.09264 | 83° | 78km/h | 13019m | 3.9m/s | 0°C | 0% | 0hPa | 4.9V | 00:00:00 | 00:00:00 | 00:00:00 | |
| DB0NH | 2026-09-01 13:37:57 | 49.69564 | 8.09236 | 83° | 80km/h | 13015m | 5.2m/s | 0°C | 0% | 0hPa | 4.9V | 00:00:00 | 00:00:00 | 00:00:00 | |
| BIOWL1-15 | 2026-09-01 13:37:56 | 49.69559 | 8.09178 | 81° | 75km/h | 13010m | 3.7m/s | -53.1°C | 0% | 0hPa | 4.9V | 00:00:00 | 00:00:00 | 00:00:00 | |
| DL8DAS-15 | 2026-09-01 13:37:55 | 49.69559 | 8.09178 | 81° | 75km/h | 13010m | 3.7m/s | -53.1°C | 0% | 0hPa | 4.9V | 00:00:00 | 00:00:00 | 00:00:00 | |
| DK7TD | 2026-09-01 13:37:54 | 49.69553 | 8.09118 | 81° | 78km/h | 13002m | 4.1m/s | -53.1°C | 0% | 0hPa | 4.9V | 00:00:00 | 00:00:00 | 00:00:00 | |
| DL1NUX | 2026-09-01 13:37:53 | 49.69538 | 8.08970 | 81° | 78km/h | 12978m | 5m/s | 0°C | 0% | 0hPa | 0V | 00:00:00 | 00:00:00 | 00:00:00 | |
| DB0UT-7 | 2026-09-01 13:37:52 | 49.69549 | 8.09089 | 80° | 80km/h | 12994m | 4.4m/s | 0°C | 0% | 0hPa | 0V | 00:00:00 | 00:00:00 | 00:00:00 | |
| DM0DOS-11 | 2026-09-01 13:37:50 | 49.69532 | 8.08907 | 83° | 82km/h | 12970m | 4.7m/s | 0°C | 0% | 0hPa | 0V | 00:00:00 | 00:00:00 | 00:00:00 | |
| BIOWL1-15 | 2026-09-01 13:37:47 | 49.69528 | 8.08846 | 85° | 75km/h | 12966m | 3.1m/s | -53.1°C | 0% | 0hPa | 4.9V | 00:00:00 | 00:00:00 | 00:00:00 | |
| DO3MHA-11 | 2026-09-01 13:37:46 | 49.69532 | 8.08907 | 84° | 80km/h | 12970m | 4.6m/s | 0°C | 0% | 0hPa | 0V | 00:00:00 | 00:00:00 | 00:00:00 | |
| HEMX73-11 | 2026-09-01 13:37:45 | 49.69530 | 8.08875 | 85° | 78km/h | 12970m | 4.7m/s | -53.2°C | 0% | 0hPa | 0V | 00:00:00 | 00:00:00 | 00:00:00 | |
| DL1NUX | 2026-09-01 13:37:43 | 49.69517 | 8.08659 | 84° | 86km/h | 12937m | 4.1m/s | 0°C | 0% | 0hPa | 0V | 00:00:00 | 00:00:00 | 00:00:00 | |
| DK7TD | 2026-09-01 13:37:43 | 49.69525 | 8.08786 | 87° | 80km/h | 12957m | 3.4m/s | -53.1°C | 0% | 0hPa | 4.9V | 00:00:00 | 00:00:00 | 00:00:00 | |
| DM0DOS-11 | 2026-09-01 13:37:40 | 49.69513 | 8.08596 | 89° | 78km/h | 12929m | 4.2m/s | 0°C | 0% | 0hPa | 0V | 00:00:00 | 00:00:00 | 00:00:00 | |
| DF2AP-13 | 2026-09-01 13:37:40 | 49.69521 | 8.08724 | 83° | 86km/h | 12945m | 4.2m/s | 0°C | 0% | 0hPa | 4.9V | 00:00:00 | 00:00:00 | 00:00:00 | |
| NBG1-10 | 2026-09-01 13:37:37 | 49.69515 | 8.08627 | 85° | 88km/h | 12933m | 3.7m/s | 0°C | 0% | 0hPa | 4.9V | 00:00:00 | 00:00:00 | 00:00:00 | |
| DO3MHA-11 | 2026-09-01 13:37:36 | 49.69513 | 8.08595 | 90° | 80km/h | 12929m | 4.1m/s | 0°C | 0% | 0hPa | 4.9V | 00:00:00 | 00:00:00 | 00:00:00 | |
| BIOWL1-15 | 2026-09-01 13:37:34 | 49.69513 | 8.08504 | 89° | 77km/h | 12921m | 3.4m/s | -53°C | 0% | 0hPa | 4.9V | 00:00:00 | 00:00:00 | 00:00:00 | |
| DL1NUX | 2026-09-01 13:37:33 | 49.69506 | 8.08344 | 87° | 82km/h | 12897m | 3.6m/s | 0°C | 0% | 0hPa | 0V | 00:00:00 | 00:00:00 | 00:00:00 | |
| DK7TD | 2026-09-01 13:37:32 | 49.69511 | 8.08441 | 87° | 84km/h | 12913m | 3.7m/s | -53°C | 0% | 0hPa | 4.9V | 00:00:00 | 00:00:00 | 00:00:00 | |
| DM0DOS-11 | 2026-09-01 13:37:30 | 49.69503 | 8.08279 | 86° | 82km/h | 12889m | 2.9m/s | 0°C | 0% | 0hPa | 0V | 00:00:00 | 00:00:00 | 00:00:00 | |
| SO1NDE-10 | 2026-09-01 13:37:28 | 49.69506 | 8.08343 | 88° | 91km/h | 12897m | 3.5m/s | 0°C | 0% | 0hPa | 4.9V | 00:00:00 | 00:00:00 | 00:00:00 | |
| DB0NH | 2026-09-01 13:37:27 | 49.69504 | 8.08311 | 88° | 91km/h | 12893m | 4.8m/s | 0°C | 0% | 0hPa | 4.9V | 00:00:00 | 00:00:00 | 00:00:00 | |
| DO3MHA-11 | 2026-09-01 13:37:26 | 49.69503 | 8.08279 | 87° | 88km/h | 12889m | 2.9m/s | 0°C | 0% | 0hPa | 4.9V | 00:00:00 | 00:00:00 | 00:00:00 | |
| BIOWL1-15 | 2026-09-01 13:37:24 | 49.69498 | 8.08180 | 87° | 88km/h | 12881m | 3.5m/s | -53.1°C | 0% | 0hPa | 4.9V | 00:00:00 | 00:00:00 | 00:00:00 | |
| DL1NUX | 2026-09-01 13:37:23 | 49.69489 | 8.08004 | 82° | 91km/h | 12858m | 3m/s | 0°C | 0% | 0hPa | 0V | 00:00:00 | 00:00:00 | 00:00:00 | |
| DB0UT-7 | 2026-09-01 13:37:22 | 49.69497 | 8.08146 | 87° | 95km/h | 12873m | 3.3m/s | 0°C | 0% | 0hPa | 4.9V | 00:00:00 | 00:00:00 | 00:00:00 | |
| DK7TD | 2026-09-01 13:37:21 | 49.69493 | 8.08076 | 85° | 93km/h | 12869m | 4.4m/s | -53.2°C | 0% | 0hPa | 4.9V | 00:00:00 | 00:00:00 | 00:00:00 | |
| DM0DOS-11 | 2026-09-01 13:37:20 | 49.69484 | 8.07934 | 88° | 91km/h | 12849m | 4.1m/s | 0°C | 0% | 0hPa | 0V | 00:00:00 | 00:00:00 | 00:00:00 | |
| DO3MHA-11 | 2026-09-01 13:37:16 | 49.69484 | 8.07934 | 89° | 91km/h | 12849m | 4.1m/s | 0°C | 0% | 0hPa | 0V | 00:00:00 | 00:00:00 | 00:00:00 | |
| DL1NUX | 2026-09-01 13:37:13 | 49.69477 | 8.07652 | 85° | 93km/h | 12819m | 3.7m/s | 0°C | 0% | 0hPa | 0V | 00:00:00 | 00:00:00 | 00:00:00 | |
| BIOWL1-15 | 2026-09-01 13:37:12 | 49.69484 | 8.07791 | 89° | 91km/h | 12838m | 2.5m/s | -53.5°C | 0% | 0hPa | 4.9V | 00:00:00 | 00:00:00 | 00:00:00 | |
| DK7TD | 2026-09-01 13:37:11 | 49.69481 | 8.07722 | 84° | 89km/h | 12830m | 3m/s | -53.6°C | 0% | 0hPa | 4.9V | 00:00:00 | 00:00:00 | 00:00:00 | |
| DM0DOS-11 | 2026-09-01 13:37:10 | 49.69474 | 8.07578 | 88° | 95km/h | 12815m | 3.6m/s | 0°C | 0% | 0hPa | 0V | 00:00:00 | 00:00:00 | 00:00:00 | |
| DF2AP-13 | 2026-09-01 13:37:10 | 49.69481 | 8.07722 | 84° | 100km/h | 12827m | 3.7m/s | 0°C | 0% | 0hPa | 4.9V | 00:00:00 | 00:00:00 | 00:00:00 | |
| DO3MHA-11 | 2026-09-01 13:37:06 | 49.69474 | 8.07578 | 93° | 97km/h | 12812m | 3.8m/s | 0°C | 0% | 0hPa | 4.9V | 00:00:00 | 00:00:00 | 00:00:00 | |
| NBG1-10 | 2026-09-01 13:37:04 | 49.69477 | 8.07503 | 94° | 104km/h | 12808m | 4.0m/s | 0°C | 0% | 0hPa | 4.9V | 00:00:00 | 00:00:00 | 00:00:00 | |
| BIOWL1-15 | 2026-09-01 13:37:03 | 49.69473 | 8.07395 | 85° | 97km/h | 12796m | 4m/s | -53.6°C | 0% | 0hPa | 4.9V | 00:00:00 | 00:00:00 | 00:00:00 | |
| AU51GT2 | 2026-09-01 13:37:02 | 49.69473 | 8.07395 | 84° | 95km/h | 12796m | 4.0m/s | -53.6°C | -1.0% | -1.0hPa | 4.9V | 00:00:00 | 00:00:00 | 00:00:00 | |
| DK7TD | 2026-09-01 13:37:00 | 49.69469 | 8.07319 | 86° | 99km/h | 12788m | 2.8m/s | -53.7°C | 0% | 0hPa | 4.9V | 00:00:00 | 00:00:00 | 00:00:00 | |
| DM0DOS-11 | 2026-09-01 13:36:59 | 49.69471 | 8.07122 | 87° | 99km/h | 12763m | 4.2m/s | 0°C | 0% | 0hPa | 0V | 00:00:00 | 00:00:00 | 00:00:00 | |
| SO1NDE-10 | 2026-09-01 13:36:58 | 49.69468 | 8.07280 | 90° | 106km/h | 12780m | 3.7m/s | 0°C | 0% | 0hPa | 0V | 00:00:00 | 00:00:00 | 00:00:00 | |
| DB0NH | 2026-09-01 13:36:57 | 49.69468 | 8.07240 | 94° | 106km/h | 12775m | 4.9m/s | 0°C | 0% | 0hPa | 0V | 00:00:00 | 00:00:00 | 00:00:00 | |
| DO3MHA-11 | 2026-09-01 13:36:56 | 49.69470 | 8.07200 | 95° | 102km/h | 12771m | 3.2m/s | 0°C | 0% | 0hPa | 0V | 00:00:00 | 00:00:00 | 00:00:00 | |
| DJ3KS | 2026-09-01 13:36:54 | 49.69471 | 8.07122 | 88° | 99km/h | 12767m | 4.2m/s | 0°C | 0% | 0hPa | 0V | 00:00:00 | 00:00:00 | 00:00:00 | |
| DL1NUX | 2026-09-01 13:36:53 | 49.69463 | 8.06884 | 90° | 110km/h | 12737m | 2.8m/s | 0°C | 0% | 0hPa | 0V | 00:00:00 | 00:00:00 | 00:00:00 | |
| BIOWL1-15 | 2026-09-01 13:36:53 | 49.69464 | 8.06968 | 87° | 102km/h | 12750m | 5.6m/s | -53.8°C | 0% | 0hPa | 4.9V | 00:00:00 | 00:00:00 | 00:00:00 | |
| DB0UT-7 | 2026-09-01 13:36:52 | 49.69467 | 8.07045 | 85° | 108km/h | 12755m | 3.4m/s | 0°C | 0% | 0hPa | 4.9V | 00:00:00 | 00:00:00 | 00:00:00 | |
| DN1GJH-1 | 2026-09-01 13:36:51 | 49.69465 | 8.07006 | 87° | 99km/h | 12755m | 3.4m/s | -53.8°C | 0% | 0hPa | 4.9V | 00:00:00 | 00:00:00 | 00:00:00 | |
| DK7TD | 2026-09-01 13:36:49 | 49.69463 | 8.06884 | 90° | 110km/h | 12742m | 5.4m/s | -53.8°C | 0% | 0hPa | 4.9V | 00:00:00 | 00:00:00 | 00:00:00 | |
| DO3MHA-11 | 2026-09-01 13:36:46 | 49.69462 | 8.06799 | 89° | 108km/h | 12730m | 3.5m/s | 0°C | 0% | 0hPa | 0V | 00:00:00 | 00:00:00 | 00:00:00 | |
| DM0DOS-11 | 2026-09-01 13:36:45 | 49.69459 | 8.06713 | 86° | 110km/h | 12721m | 3.9m/s | 0°C | 0% | 0hPa | 0V | 00:00:00 | 00:00:00 | 00:00:00 | |
| BIOWL1-15 | 2026-09-01 13:36:42 | 49.69448 | 8.06507 | 86° | 108km/h | 12703m | 3.7m/s | -53.8°C | 0% | 0hPa | 4.9V | 00:00:00 | 00:00:00 | 00:00:00 | |
| DF2AP-13 | 2026-09-01 13:36:40 | 49.69449 | 8.06549 | 87° | 108km/h | 12703m | 3.6m/s | 0°C | 0% | 0hPa | 4.9V | 00:00:00 | 00:00:00 | 00:00:00 | |
| DK7TD | 2026-09-01 13:36:38 | 49.69443 | 8.06421 | 85° | 111km/h | 12695m | 4.5m/s | -53.9°C | 0% | 0hPa | 4.9V | 00:00:00 | 00:00:00 | 00:00:00 | |
| DO3MHA-11 | 2026-09-01 13:36:36 | 49.69440 | 8.06379 | 84° | 108km/h | 12687m | 4.9m/s | 0°C | 0% | 0hPa | 0V | 00:00:00 | 00:00:00 | 00:00:00 | |
| DM0DOS-11 | 2026-09-01 13:36:35 | 49.69434 | 8.06294 | 83° | 110km/h | 12678m | 4.8m/s | 0°C | 0% | 0hPa | 0V | 00:00:00 | 00:00:00 | 00:00:00 | |
| DJ3KS | 2026-09-01 13:36:34 | 49.69434 | 8.06295 | 83° | 110km/h | 12683m | 3.7m/s | 0°C | 0% | 0hPa | 5V | 00:00:00 | 00:00:00 | 00:00:00 | |
| CB1BUN | 2026-09-01 13:36:32 | 49.69427 | 8.06211 | 86° | 106km/h | 12675m | 3.2m/s | -54.2°C | 0% | 0hPa | 5V | 00:00:00 | 00:00:00 | 00:00:00 | |
| NBG1-10 | 2026-09-01 13:36:31 | 49.69425 | 8.06169 | 86° | 104km/h | 12667m | 2.9m/s | 0°C | 0% | 0hPa | 5V | 00:00:00 | 00:00:00 | 00:00:00 | |
| BIOWL1-15 | 2026-09-01 13:36:30 | 49.69420 | 8.06084 | 83° | 108km/h | 12663m | 4.3m/s | -54.4°C | 0% | 0hPa | 5V | 00:00:00 | 00:00:00 | 00:00:00 | |
| SO1NDE-10 | 2026-09-01 13:36:28 | 49.69416 | 8.06042 | 81° | 100km/h | 12644m | 3.2m/s | 0°C | 0% | 0hPa | 5V | 00:00:00 | 00:00:00 | 00:00:00 | |
| DK7TD | 2026-09-01 13:36:27 | 49.69407 | 8.05959 | 81° | 110km/h | 12652m | 3.9m/s | -54.4°C | 0% | 0hPa | 5V | 00:00:00 | 00:00:00 | 00:00:00 | |
| DB0NH | 2026-09-01 13:36:27 | 49.69412 | 8.06001 | 81° | 104km/h | 12652m | 3.9m/s | 0°C | 0% | 0hPa | 0V | 00:00:00 | 00:00:00 | 00:00:00 | |
| DO3MHA-11 | 2026-09-01 13:36:26 | 49.69407 | 8.05959 | 81° | 106km/h | 12648m | 4.8m/s | 0°C | 0% | 0hPa | 0V | 00:00:00 | 00:00:00 | 00:00:00 | |
| DM0DOS-11 | 2026-09-01 13:36:25 | 49.69399 | 8.05877 | 81° | 106km/h | 12635m | 4m/s | 0°C | 0% | 0hPa | 0V | 00:00:00 | 00:00:00 | 00:00:00 | |
| BIOWL1-15 | 2026-09-01 13:36:23 | 49.69373 | 8.05632 | 77° | 106km/h | 12618m | 5.2m/s | -54.3°C | 0% | 0hPa | 5V | 00:00:00 | 00:00:00 | 00:00:00 | |
| DB0UT-7 | 2026-09-01 13:36:22 | 49.69392 | 8.05793 | 83° | 102km/h | 12632m | 4.2m/s | 0°C | 0% | 0hPa | 5V | 00:00:00 | 00:00:00 | 00:00:00 | |
| DF1GD-15 | 2026-09-01 13:36:21 | 49.69388 | 8.05753 | 82° | 104km/h | 12632m | 4.3m/s | -54.4°C | 0% | 0hPa | 5V | 00:00:00 | 00:00:00 | 00:00:00 | |
| DK7TD | 2026-09-01 13:36:17 | 49.69361 | 8.05552 | 79° | 106km/h | 12610m | 4.7m/s | -54.3°C | 0% | 0hPa | 5V | 00:00:00 | 00:00:00 | 00:00:00 | |
| DO3MHA-11 | 2026-09-01 13:36:16 | 49.69361 | 8.05552 | 79° | 104km/h | 12606m | 3.3m/s | 0°C | 0% | 0hPa | 0V | 00:00:00 | 00:00:00 | 00:00:00 | |
| DM0DOS-11 | 2026-09-01 13:36:15 | 49.69352 | 8.05469 | 80° | 110km/h | 12597m | 3.4m/s | 0°C | 0% | 0hPa | 0V | 00:00:00 | 00:00:00 | 00:00:00 | |
| DL1NUX | 2026-09-01 13:36:15 | 49.69334 | 8.05308 | 78° | 99km/h | 12579m | 3.8m/s | 0°C | 0% | 0hPa | 0V | 00:00:00 | 00:00:00 | 00:00:00 | |
| CB1BUN | 2026-09-01 13:36:12 | 49.69338 | 8.05346 | 81° | 104km/h | 12589m | 4.1m/s | -54.2°C | 0% | 0hPa | 4.9V | 00:00:00 | 00:00:00 | 00:00:00 | |
| DO2KSM | 2026-09-01 13:36:11 | 49.69338 | 8.05346 | 81° | 104km/h | 12589m | 4.1m/s | -54.2°C | 0% | 0hPa | 4.9V | 00:00:00 | 00:00:00 | 00:00:00 | |
| DF2AP-13 | 2026-09-01 13:36:10 | 49.69334 | 8.05308 | 79° | 97km/h | 12580m | 3.7m/s | 0°C | 0% | 0hPa | 4.9V | 00:00:00 | 00:00:00 | 00:00:00 | |
| BIOWL1-15 | 2026-09-01 13:36:09 | 49.69320 | 8.05192 | 81° | 102km/h | 12572m | 3.4m/s | -54.1°C | 0% | 0hPa | 4.9V | 00:00:00 | 00:00:00 | 00:00:00 | |
| DN1GJH-1 | 2026-09-01 13:36:09 | 49.69329 | 8.05269 | 79° | 99km/h | 12580m | 3.8m/s | -54.2°C | 0% | 0hPa | 0V | 00:00:00 | 00:00:00 | 00:00:00 | |
| DM0DOS-11 | 2026-09-01 13:36:06 | 49.69310 | 8.05075 | 82° | 104km/h | 12559m | 4.9m/s | 0°C | 0% | 0hPa | 0V | 00:00:00 | 00:00:00 | 00:00:00 | |
| DL1NUX | 2026-09-01 13:36:05 | 49.69291 | 8.04920 | 80° | 99km/h | 12538m | 3.7m/s | 0°C | 0% | 0hPa | 0V | 00:00:00 | 00:00:00 | 00:00:00 | |
| DL9SK-14 | 2026-09-01 13:36:04 | 49.69295 | 8.04957 | 78° | 97km/h | 12547m | 4.0m/s | -54.5°C | -1.0% | -1.0hPa | 4.9V | 00:00:00 | 00:00:00 | 00:00:00 | |
| HEMX73-11 | 2026-09-01 13:36:01 | 49.69290 | 8.04919 | 81° | 99km/h | 12543m | 5.0m/s | -54.6°C | 0% | 0hPa | 4.9V | 00:00:00 | 00:00:00 | 00:00:00 | |
| DF1GD-15 | 2026-09-01 13:36:00 | 49.69290 | 8.04919 | 81° | 99km/h | 12543m | 5.0m/s | -54.6°C | 0% | 0hPa | 4.9V | 00:00:00 | 00:00:00 | 00:00:00 | |
| BIOWL1-15 | 2026-09-01 13:35:59 | 49.69279 | 8.04771 | 84° | 100km/h | 12525m | 3.5m/s | -54.7°C | 0% | 0hPa | 4.9V | 00:00:00 | 00:00:00 | 00:00:00 | |
| NBG1-10 | 2026-09-01 13:35:58 | 49.69284 | 8.04845 | 84° | 93km/h | 12525m | 3.5m/s | 0°C | 0% | 0hPa | 0V | 00:00:00 | 00:00:00 | 00:00:00 | |
| DB0NH | 2026-09-01 13:35:57 | 49.69282 | 8.04809 | 84° | 95km/h | 12525m | 3.5m/s | 0°C | 0% | 0hPa | 0V | 00:00:00 | 00:00:00 | 00:00:00 | |
| DO3MHA-11 | 2026-09-01 13:35:56 | 49.69279 | 8.04771 | 84° | 95km/h | 12521m | 4.9m/s | 0°C | 0% | 0hPa | 0V | 00:00:00 | 00:00:00 | 00:00:00 | |
| DM0DOS-11 | 2026-09-01 13:35:55 | 49.69272 | 8.04696 | 79° | 95km/h | 12512m | 4.6m/s | 0°C | 0% | 0hPa | 0V | 00:00:00 | 00:00:00 | 00:00:00 | |
| DL1NUX | 2026-09-01 13:35:55 | 49.69254 | 8.04553 | 79° | 89km/h | 12495m | 5.4m/s | 0°C | 0% | 0hPa | 0V | 00:00:00 | 00:00:00 | 00:00:00 | |
| DK7TD | 2026-09-01 13:35:55 | 49.69272 | 8.04696 | 79° | 95km/h | 12517m | 4m/s | -54.8°C | 0% | 0hPa | 4.9V | 00:00:00 | 00:00:00 | 00:00:00 | |
| DB0UT-7 | 2026-09-01 13:35:52 | 49.69263 | 8.04624 | 80° | 93km/h | 12504m | 4.6m/s | 0°C | 0% | 0hPa | 4.9V | 00:00:00 | 00:00:00 | 00:00:00 | |
| DN1GJH-1 | 2026-09-01 13:35:49 | 49.69251 | 8.04519 | 83° | 89km/h | 12495m | 5.4m/s | -54.7°C | 0% | 0hPa | 4.9V | 00:00:00 | 00:00:00 | 00:00:00 | |
| BIOWL1-15 | 2026-09-01 13:35:46 | 49.69242 | 8.04411 | 81° | 91km/h | 12482m | 3.6m/s | -54.8°C | 0% | 0hPa | 4.9V | 00:00:00 | 00:00:00 | 00:00:00 | |
| DO3MHA-11 | 2026-09-01 13:35:46 | 49.69242 | 8.04411 | 82° | 91km/h | 12478m | 4.6m/s | 0°C | 0% | 0hPa | 0V | 00:00:00 | 00:00:00 | 00:00:00 | |
| DM0DOS-11 | 2026-09-01 13:35:45 | 49.69234 | 8.04338 | 78° | 95km/h | 12469m | 5.3m/s | 0°C | 0% | 0hPa | 0V | 00:00:00 | 00:00:00 | 00:00:00 | |
| DL1NUX | 2026-09-01 13:35:45 | 49.69217 | 8.04200 | 80° | 91km/h | 12452m | 4.4m/s | 0°C | 0% | 0hPa | 0V | 00:00:00 | 00:00:00 | 00:00:00 | |
| DK7TD | 2026-09-01 13:35:44 | 49.69230 | 8.04303 | 78° | 91km/h | 12469m | 5.3m/s | -55°C | 0% | 0hPa | 4.9V | 00:00:00 | 00:00:00 | 00:00:00 | |
| DF2AP-13 | 2026-09-01 13:35:40 | 49.69217 | 8.04200 | 81° | 93km/h | 12452m | 4.3m/s | 0°C | 0% | 0hPa | 5V | 00:00:00 | 00:00:00 | 00:00:00 | |
| DO3DL | 2026-09-01 13:35:38 | 49.69210 | 8.04130 | 83° | 93km/h | 12448m | 4.6m/s | -55.2°C | 0% | 0hPa | 5V | 00:00:00 | 00:00:00 | 00:00:00 | |
| DO3MHA-11 | 2026-09-01 13:35:36 | 49.69203 | 8.04055 | 81° | 95km/h | 12435m | 4.4m/s | 0°C | 0% | 0hPa | 5V | 00:00:00 | 00:00:00 | 00:00:00 | |
| BIOWL1-15 | 2026-09-01 13:35:35 | 49.69200 | 8.04019 | 81° | 95km/h | 12435m | 4.4m/s | -55.3°C | 0% | 0hPa | 5V | 00:00:00 | 00:00:00 | 00:00:00 | |
| DL1NUX | 2026-09-01 13:35:35 | 49.69176 | 8.03838 | 77° | 95km/h | 12406m | 4m/s | 0°C | 0% | 0hPa | 0V | 00:00:00 | 00:00:00 | 00:00:00 | |
| DK7TD | 2026-09-01 13:35:34 | 49.69192 | 8.03946 | 79° | 97km/h | 12426m | 4.4m/s | -55.4°C | 0% | 0hPa | 5V | 00:00:00 | 00:00:00 | 00:00:00 | |
| CB1BUN | 2026-09-01 13:35:31 | 49.69176 | 8.03838 | 78° | 95km/h | 12414m | 3.7m/s | -55.5°C | 0% | 0hPa | 0V | 00:00:00 | 00:00:00 | 00:00:00 | |
| DO2KSM | 2026-09-01 13:35:29 | 49.69171 | 8.03801 | 81° | 97km/h | 12410m | 4.2m/s | -55.5°C | 0% | 0hPa | 0V | 00:00:00 | 00:00:00 | 00:00:00 | |
| DN1GJH-1 | 2026-09-01 13:35:28 | 49.69168 | 8.03764 | 83° | 95km/h | 12406m | 4.0m/s | -55.5°C | 0% | 0hPa | 0V | 00:00:00 | 00:00:00 | 00:00:00 | |
| DB0NH | 2026-09-01 13:35:27 | 49.69164 | 8.03729 | 81° | 95km/h | 12397m | 3.7m/s | 0°C | 0% | 0hPa | 0V | 00:00:00 | 00:00:00 | 00:00:00 | |
| DO3MHA-11 | 2026-09-01 13:35:26 | 49.69161 | 8.03695 | 81° | 91km/h | 12393m | 4.5m/s | 0°C | 0% | 0hPa | 0V | 00:00:00 | 00:00:00 | 00:00:00 | |
| DM0DOS-11 | 2026-09-01 13:35:25 | 49.69150 | 8.03592 | 83° | 88km/h | 12380m | 4m/s | 0°C | 0% | 0hPa | 0V | 00:00:00 | 00:00:00 | 00:00:00 | |
| DL1NUX | 2026-09-01 13:35:25 | 49.69143 | 8.03485 | 85° | 91km/h | 12367m | 3.5m/s | 0°C | 0% | 0hPa | 0V | 00:00:00 | 00:00:00 | 00:00:00 | |
| NBG1-10 | 2026-09-01 13:35:25 | 49.69157 | 8.03660 | 81° | 97km/h | 12388m | 4.9m/s | 0°C | 0% | 0hPa | 5V | 00:00:00 | 00:00:00 | 00:00:00 | |
| DK7TD | 2026-09-01 13:35:23 | 49.69147 | 8.03556 | 83° | 89km/h | 12380m | 4m/s | -55.6°C | 0% | 0hPa | 5V | 00:00:00 | 00:00:00 | 00:00:00 | |
| DB0UT-7 | 2026-09-01 13:35:22 | 49.69147 | 8.03556 | 84° | 97km/h | 12376m | 4.1m/s | 0°C | 0% | 0hPa | 0V | 00:00:00 | 00:00:00 | 00:00:00 | |
| SO1NDE-10 | 2026-09-01 13:35:21 | 49.69145 | 8.03520 | 86° | 97km/h | 12371m | 5.3m/s | 0°C | 0% | 0hPa | 0V | 00:00:00 | 00:00:00 | 00:00:00 | |
| HEMX73-11 | 2026-09-01 13:35:20 | 49.69140 | 8.03450 | 84° | 89km/h | 12367m | 3.5m/s | -55.6°C | 0% | 0hPa | 0V | 00:00:00 | 00:00:00 | 00:00:00 | |
| DF1GD-15 | 2026-09-01 13:35:19 | 49.69140 | 8.03450 | 84° | 89km/h | 12367m | 3.5m/s | -55.6°C | 0% | 0hPa | 0V | 00:00:00 | 00:00:00 | 00:00:00 | |
| DO3MHA-11 | 2026-09-01 13:35:16 | 49.69130 | 8.03342 | 81° | 95km/h | 12348m | 3.4m/s | 0°C | 0% | 0hPa | 0V | 00:00:00 | 00:00:00 | 00:00:00 | |
| DM0DOS-11 | 2026-09-01 13:35:15 | 49.69119 | 8.03235 | 84° | 95km/h | 12335m | 4.8m/s | 0°C | 0% | 0hPa | 0V | 00:00:00 | 00:00:00 | 00:00:00 | |
| BIOWL1-15 | 2026-09-01 13:35:14 | 49.69119 | 8.03235 | 85° | 95km/h | 12339m | 4m/s | -55.4°C | 0% | 0hPa | 5V | 00:00:00 | 00:00:00 | 00:00:00 | |
| DK7TD | 2026-09-01 13:35:12 | 49.69115 | 8.03162 | 85° | 93km/h | 12330m | 3.8m/s | -55.3°C | 0% | 0hPa | 5V | 00:00:00 | 00:00:00 | 00:00:00 | |
| DF2AP-13 | 2026-09-01 13:35:10 | 49.69113 | 8.03124 | 86° | 100km/h | 12322m | 4.3m/s | 0°C | 0% | 0hPa | 0V | 00:00:00 | 00:00:00 | 00:00:00 | |
| DN1GJH-1 | 2026-09-01 13:35:08 | 49.69109 | 8.03050 | 85° | 95km/h | 12317m | 4.6m/s | -55.3°C | 0% | 0hPa | 0V | 00:00:00 | 00:00:00 | 00:00:00 | |
| DO3MHA-11 | 2026-09-01 13:35:06 | 49.69104 | 8.02976 | 85° | 99km/h | 12304m | 3.9m/s | 0°C | 0% | 0hPa | 0V | 00:00:00 | 00:00:00 | 00:00:00 | |
| DL1NUX | 2026-09-01 13:35:05 | 49.69090 | 8.02748 | 85° | 97km/h | 12276m | 4.3m/s | 0°C | 0% | 0hPa | 0V | 00:00:00 | 00:00:00 | 00:00:00 | |
| DM0DOS-11 | 2026-09-01 13:35:04 | 49.69096 | 8.02865 | 82° | 97km/h | 12290m | 4.2m/s | 0°C | 0% | 0hPa | 0V | 00:00:00 | 00:00:00 | 00:00:00 | |
| BIOWL1-15 | 2026-09-01 13:35:04 | 49.69096 | 8.02865 | 83° | 97km/h | 12294m | 4.9m/s | -55.1°C | 0% | 0hPa | 5V | 00:00:00 | 00:00:00 | 00:00:00 | |
| DO2KSM | 2026-09-01 13:35:03 | 49.69093 | 8.02826 | 85° | 102km/h | 12294m | 4.9m/s | -55.1°C | 0% | 0hPa | 5V | 00:00:00 | 00:00:00 | 00:00:00 | |
| DK7TD | 2026-09-01 13:35:01 | 49.69089 | 8.02748 | 86° | 97km/h | 12281m | 4.7m/s | -55.1°C | 0% | 0hPa | 5V | 00:00:00 | 00:00:00 | 00:00:00 | |
| DO3DL | 2026-09-01 13:35:00 | 49.69090 | 8.02748 | 87° | 97km/h | 12281m | 4.7m/s | -55.1°C | 0% | 0hPa | 0V | 00:00:00 | 00:00:00 | 00:00:00 | |
| DF1GD-15 | 2026-09-01 13:34:59 | 49.69088 | 8.02710 | 87° | 95km/h | 12276m | 4.3m/s | -55.1°C | 0% | 0hPa | 0V | 00:00:00 | 00:00:00 | 00:00:00 | |
| DB0NH | 2026-09-01 13:34:57 | 49.69084 | 8.02635 | 82° | 106km/h | 12264m | 4.2m/s | 0°C | 0% | 0hPa | 0V | 00:00:00 | 00:00:00 | 00:00:00 | |
| DO3MHA-11 | 2026-09-01 13:34:56 | 49.69081 | 8.02596 | 82° | 102km/h | 12259m | 4.9m/s | 0°C | 0% | 0hPa | 0V | 00:00:00 | 00:00:00 | 00:00:00 | |
| DL1NUX | 2026-09-01 13:34:55 | 49.69066 | 8.02357 | 88° | 102km/h | 12216m | 4.4m/s | 0°C | 0% | 0hPa | 0V | 00:00:00 | 00:00:00 | 00:00:00 | |
| DM0DOS-11 | 2026-09-01 13:34:54 | 49.69071 | 8.02475 | 85° | 106km/h | 12246m | 4.4m/s | 0°C | 0% | 0hPa | 0V | 00:00:00 | 00:00:00 | 00:00:00 | |
| BIOWL1-15 | 2026-09-01 13:34:52 | 49.69069 | 8.02436 | 86° | 102km/h | 12246m | 4.4m/s | -55.5°C | 0% | 0hPa | 5V | 00:00:00 | 00:00:00 | 00:00:00 | |
| DK7TD | 2026-09-01 13:34:51 | 49.69066 | 8.02357 | 88° | 102km/h | 12237m | 4m/s | -55.7°C | 0% | 0hPa | 5V | 00:00:00 | 00:00:00 | 00:00:00 | |
| CB1BUN | 2026-09-01 13:34:49 | 49.69065 | 8.02317 | 88° | 104km/h | 12233m | 3.9m/s | -55.7°C | 0% | 0hPa | 0V | 00:00:00 | 00:00:00 | 00:00:00 | |
| DO3DL | 2026-09-01 13:34:47 | 49.69061 | 8.02237 | 84° | 106km/h | 12225m | 4.2m/s | -55.7°C | 0% | 0hPa | 0V | 00:00:00 | 00:00:00 | 00:00:00 | |
| DO3MHA-11 | 2026-09-01 13:34:46 | 49.69058 | 8.02195 | 84° | 108km/h | 12216m | 4.3m/s | 0°C | 0% | 0hPa | 0V | 00:00:00 | 00:00:00 | 00:00:00 | |
| DM0DOS-11 | 2026-09-01 13:34:44 | 49.69049 | 8.02069 | 84° | 108km/h | 12203m | 3.9m/s | 0°C | 0% | 0hPa | 0V | 00:00:00 | 00:00:00 | 00:00:00 | |
| BIOWL1-15 | 2026-09-01 13:34:42 | 49.69044 | 8.01986 | 84° | 106km/h | 12198m | 5.2m/s | -55.8°C | 0% | 0hPa | 5V | 00:00:00 | 00:00:00 | 00:00:00 | |
| DK7TD | 2026-09-01 13:34:41 | 49.69041 | 8.01945 | 82° | 102km/h | 12193m | 4.2m/s | -55.8°C | 0% | 0hPa | 5V | 00:00:00 | 00:00:00 | 00:00:00 | |
| DF2AP-13 | 2026-09-01 13:34:40 | 49.69041 | 8.01947 | 82° | 104km/h | 12189m | 4.8m/s | 0°C | 0% | 0hPa | 0V | 00:00:00 | 00:00:00 | 00:00:00 | |
| HEMX73-11 | 2026-09-01 13:34:39 | 49.69033 | 8.01863 | 83° | 110km/h | 12184m | 3.9m/s | -55.9°C | 0% | 0hPa | 0V | 00:00:00 | 00:00:00 | 00:00:00 | |
| DF1GD-15 | 2026-09-01 13:34:38 | 49.69033 | 8.01863 | 83° | 110km/h | 12184m | 3.9m/s | -55.9°C | 0% | 0hPa | 0V | 00:00:00 | 00:00:00 | 00:00:00 | |
| DO3MHA-11 | 2026-09-01 13:34:36 | 49.69024 | 8.01780 | 82° | 106km/h | 12171m | 4.4m/s | 0°C | 0% | 0hPa | 0V | 00:00:00 | 00:00:00 | 00:00:00 | |
| DL1NUX | 2026-09-01 13:34:35 | 49.68997 | 8.01533 | 80° | 110km/h | 12144m | 4m/s | 0°C | 0% | 0hPa | 0V | 00:00:00 | 00:00:00 | 00:00:00 | |
| BIOWL1-15 | 2026-09-01 13:34:35 | 49.68997 | 8.01533 | 81° | 110km/h | 12148m | 4.8m/s | -55.9°C | 0% | 0hPa | 5V | 00:00:00 | 00:00:00 | 00:00:00 | |
| DO3DL | 2026-09-01 13:34:34 | 49.69016 | 8.01696 | 82° | 108km/h | 12166m | 4.7m/s | -56.0°C | 0% | 0hPa | 5V | 00:00:00 | 00:00:00 | 00:00:00 | |
| DM0DOS-11 | 2026-09-01 13:34:34 | 49.69012 | 8.01657 | 78° | 104km/h | 12158m | 4.8m/s | 0°C | 0% | 0hPa | 0V | 00:00:00 | 00:00:00 | 00:00:00 | |
| DK7TD | 2026-09-01 13:34:30 | 49.68993 | 8.01492 | 82° | 104km/h | 12144m | 4m/s | -55.9°C | 0% | 0hPa | 5V | 00:00:00 | 00:00:00 | 00:00:00 | |
| CB1BUN | 2026-09-01 13:34:29 | 49.68992 | 8.01492 | 83° | 104km/h | 12144m | 4.0m/s | -55.9°C | 0% | 0hPa | 0V | 00:00:00 | 00:00:00 | 00:00:00 | |
| DO3DL | 2026-09-01 13:34:28 | 49.68990 | 8.01451 | 85° | 104km/h | 12140m | 4.9m/s | -55.9°C | 0% | 0hPa | 0V | 00:00:00 | 00:00:00 | 00:00:00 | |
| DN1GJH-1 | 2026-09-01 13:34:27 | 49.68987 | 8.01411 | 86° | 104km/h | 12135m | 3.5m/s | -55.9°C | 0% | 0hPa | 0V | 00:00:00 | 00:00:00 | 00:00:00 | |
| DO3MHA-11 | 2026-09-01 13:34:26 | 49.68984 | 8.01371 | 84° | 102km/h | 12126m | 3.2m/s | 0°C | 0% | 0hPa | 0V | 00:00:00 | 00:00:00 | 00:00:00 | |
| DL1NUX | 2026-09-01 13:34:25 | 49.68961 | 8.01134 | 84° | 102km/h | 12101m | 3.3m/s | 0°C | 0% | 0hPa | 0V | 00:00:00 | 00:00:00 | 00:00:00 | |
| DM0DOS-11 | 2026-09-01 13:34:24 | 49.68972 | 8.01255 | 80° | 106km/h | 12114m | 4.5m/s | 0°C | 0% | 0hPa | 0V | 00:00:00 | 00:00:00 | 00:00:00 | |
| DB0UT-7 | 2026-09-01 13:34:21 | 49.68964 | 8.01174 | 84° | 104km/h | 12105m | 4.9m/s | 0°C | 0% | 0hPa | 5V | 00:00:00 | 00:00:00 | 00:00:00 | |
| BIOWL1-15 | 2026-09-01 13:34:20 | 49.68959 | 8.01095 | 85° | 102km/h | 12101m | 3.3m/s | -55.9°C | 0% | 0hPa | 5V | 00:00:00 | 00:00:00 | 00:00:00 | |
| DF1GD-15 | 2026-09-01 13:34:17 | 49.68953 | 8.01019 | 81° | 97km/h | 12093m | 4.1m/s | -55.9°C | 0% | 0hPa | 0V | 00:00:00 | 00:00:00 | 00:00:00 | |
| DO3MHA-11 | 2026-09-01 13:34:16 | 49.68948 | 8.00981 | 81° | 102km/h | 12085m | 3.2m/s | 0°C | 0% | 0hPa | 0V | 00:00:00 | 00:00:00 | 00:00:00 | |
| DL1NUX | 2026-09-01 13:34:15 | 49.68931 | 8.00741 | 88° | 106km/h | 12057m | 3.5m/s | 0°C | 0% | 0hPa | 0V | 00:00:00 | 00:00:00 | 00:00:00 | |
| DM0DOS-11 | 2026-09-01 13:34:14 | 49.68937 | 8.00863 | 83° | 100km/h | 12071m | 4.8m/s | 0°C | 0% | 0hPa | 0V | 00:00:00 | 00:00:00 | 00:00:00 | |
| DK7TD | 2026-09-01 13:34:10 | 49.68930 | 8.00701 | 89° | 99km/h | 12057m | 3.5m/s | -55.8°C | 0% | 0hPa | 5V | 00:00:00 | 00:00:00 | 00:00:00 | |
| CB1BUN | 2026-09-01 13:34:09 | 49.68930 | 8.00663 | 90° | 97km/h | 12053m | 5.1m/s | -55.8°C | 0% | 0hPa | 0V | 00:00:00 | 00:00:00 | 00:00:00 | |
| DO3DL | 2026-09-01 13:34:08 | 49.68930 | 8.00663 | 90° | 97km/h | 12053m | 5.1m/s | -55.8°C | 0% | 0hPa | 0V | 00:00:00 | 00:00:00 | 00:00:00 | |
| DO3MHA-11 | 2026-09-01 13:34:06 | 49.68928 | 8.00587 | 89° | 104km/h | 12039m | 3.6m/s | 0°C | 0% | 0hPa | 0V | 00:00:00 | 00:00:00 | 00:00:00 | |
| DL1NUX | 2026-09-01 13:34:05 | 49.68922 | 8.00344 | 86° | 102km/h | 12011m | 3.3m/s | 0°C | 0% | 0hPa | 0V | 00:00:00 | 00:00:00 | 00:00:00 | |
| DM0DOS-11 | 2026-09-01 13:34:04 | 49.68925 | 8.00466 | 85° | 108km/h | 12029m | 3.9m/s | 0°C | 0% | 0hPa | 0V | 00:00:00 | 00:00:00 | 00:00:00 | |
| DL1ZP-14 | 2026-09-01 13:34:02 | 49.68923 | 8.00384 | 88° | 102km/h | 12020m | 4.0m/s | -55.9°C | -1.0% | -1.0hPa | 5.0V | 00:00:00 | 00:00:00 | 00:00:00 | |
| BIOWL1-15 | 2026-09-01 13:33:59 | 49.68918 | 8.00264 | 87° | 104km/h | 12007m | 4.9m/s | -55.8°C | 0% | 0hPa | 5V | 00:00:00 | 00:00:00 | 00:00:00 | |
| DF1GD-15 | 2026-09-01 13:33:57 | 49.68916 | 8.00224 | 89° | 104km/h | 12003m | 3.6m/s | -55.7°C | 0% | 0hPa | 0V | 00:00:00 | 00:00:00 | 00:00:00 | |
| DO3MHA-11 | 2026-09-01 13:33:56 | 49.68915 | 8.00183 | 87° | 110km/h | 11994m | 3.4m/s | 0°C | 0% | 0hPa | 0V | 00:00:00 | 00:00:00 | 00:00:00 | |
| DL1NUX | 2026-09-01 13:33:55 | 49.68904 | 7.99927 | 88° | 111km/h | 11972m | 3.8m/s | 0°C | 0% | 0hPa | 0V | 00:00:00 | 00:00:00 | 00:00:00 | |
| SO1NDE-10 | 2026-09-01 13:33:51 | 49.68905 | 7.99970 | 87° | 115km/h | 11972m | 3.8m/s | 0°C | 0% | 0hPa | 5V | 00:00:00 | 00:00:00 | 00:00:00 | |
| BIOWL1-15 | 2026-09-01 13:33:48 | 49.68900 | 7.99796 | 86° | 111km/h | 11959m | 5.2m/s | -55.6°C | 0% | 0hPa | 5V | 00:00:00 | 00:00:00 | 00:00:00 | |
| DO3MHA-11 | 2026-09-01 13:33:46 | 49.68898 | 7.99754 | 86° | 113km/h | 11951m | 4.6m/s | 0°C | 0% | 0hPa | 0V | 00:00:00 | 00:00:00 | 00:00:00 | |
| DL1NUX | 2026-09-01 13:33:43 | 49.68885 | 7.99404 | 87° | 113km/h | 11917m | 3.6m/s | 0°C | 0% | 0hPa | 0V | 00:00:00 | 00:00:00 | 00:00:00 | |
| NBG1-10 | 2026-09-01 13:33:43 | 49.68891 | 7.99625 | 86° | 117km/h | 11938m | 3.9m/s | 0°C | 0% | 0hPa | 5V | 00:00:00 | 00:00:00 | 00:00:00 | |
| DO2KSM | 2026-09-01 13:33:41 | 49.68889 | 7.99537 | 90° | 115km/h | 11934m | 3.9m/s | -55.6°C | 0% | 0hPa | 5V | 00:00:00 | 00:00:00 | 00:00:00 | |
| DF2AP-13 | 2026-09-01 13:33:40 | 49.68888 | 7.99492 | 88° | 117km/h | 11926m | 4.4m/s | 0°C | 0% | 0hPa | 5V | 00:00:00 | 00:00:00 | 00:00:00 | |
| BIOWL1-15 | 2026-09-01 13:33:37 | 49.68882 | 7.99314 | 85° | 115km/h | 11913m | 4.1m/s | -55.6°C | 0% | 0hPa | 5V | 00:00:00 | 00:00:00 | 00:00:00 | |
| DO3MHA-11 | 2026-09-01 13:33:36 | 49.68882 | 7.99314 | 85° | 119km/h | 11909m | 4.9m/s | 0°C | 0% | 0hPa | 0V | 00:00:00 | 00:00:00 | 00:00:00 | |
| DL1NUX | 2026-09-01 13:33:33 | 49.68863 | 7.98945 | 84° | 122km/h | 11875m | 3.8m/s | 0°C | 0% | 0hPa | 0V | 00:00:00 | 00:00:00 | 00:00:00 | |
| CB1BUN | 2026-09-01 13:33:28 | 49.68860 | 7.98899 | 86° | 117km/h | 11875m | 3.8m/s | -55.8°C | 0% | 0hPa | 5V | 00:00:00 | 00:00:00 | 00:00:00 | |
| BIOWL1-15 | 2026-09-01 13:33:26 | 49.68857 | 7.98855 | 83° | 113km/h | 11871m | 5.2m/s | -55.8°C | 0% | 0hPa | 5V | 00:00:00 | 00:00:00 | 00:00:00 | |
| DB0NH | 2026-09-01 13:33:25 | 49.68853 | 7.98812 | 83° | 117km/h | 11863m | 4.0m/s | 0°C | 0% | 0hPa | 0V | 00:00:00 | 00:00:00 | 00:00:00 | |
| DL1NUX | 2026-09-01 13:33:23 | 49.68832 | 7.98488 | 82° | 115km/h | 11837m | 3.6m/s | 0°C | 0% | 0hPa | 0V | 00:00:00 | 00:00:00 | 00:00:00 | |
| DB0UT-7 | 2026-09-01 13:33:21 | 49.68840 | 7.98628 | 85° | 117km/h | 11846m | 3.6m/s | 0°C | 0% | 0hPa | 5V | 00:00:00 | 00:00:00 | 00:00:00 | |
| DK7TD | 2026-09-01 13:33:16 | 49.68822 | 7.98357 | 83° | 113km/h | 11824m | 5.2m/s | -55.8°C | 0% | 0hPa | 5V | 00:00:00 | 00:00:00 | 00:00:00 | |
| DO3MHA-11 | 2026-09-01 13:33:16 | 49.68825 | 7.98402 | 83° | 115km/h | 11824m | 5.2m/s | 0°C | 0% | 0hPa | 5V | 00:00:00 | 00:00:00 | 00:00:00 | |
| DF2AP-13 | 2026-09-01 13:33:10 | 49.68805 | 7.98129 | 84° | 115km/h | 11800m | 3.9m/s | 0°C | 0% | 0hPa | 5V | 00:00:00 | 00:00:00 | 00:00:00 | |
| NBG1-10 | 2026-09-01 13:33:08 | 49.68799 | 7.98039 | 84° | 113km/h | 11787m | 5.0m/s | 0°C | 0% | 0hPa | 5V | 00:00:00 | 00:00:00 | 00:00:00 | |
| CB1BUN | 2026-09-01 13:33:07 | 49.68796 | 7.97995 | 84° | 111km/h | 11791m | 3.6m/s | -55.8°C | 0% | 0hPa | 5V | 00:00:00 | 00:00:00 | 00:00:00 | |
| DO3MHA-11 | 2026-09-01 13:33:06 | 49.68792 | 7.97952 | 84° | 115km/h | 11782m | 3.5m/s | 0°C | 0% | 0hPa | 5V | 00:00:00 | 00:00:00 | 00:00:00 | |
| DK7TD | 2026-09-01 13:33:05 | 49.68786 | 7.97865 | 82° | 113km/h | 11779m | 3.9m/s | -55.9°C | 0% | 0hPa | 5V | 00:00:00 | 00:00:00 | 00:00:00 | |
| DM0DOS-11 | 2026-09-01 13:33:04 | 49.68779 | 7.97774 | 84° | 120km/h | 11766m | 4.8m/s | 0°C | 0% | 0hPa | 0V | 00:00:00 | 00:00:00 | 00:00:00 | |
| DL8DAS-14 | 2026-09-01 13:33:03 | 49.68779 | 7.97774 | 84° | 119km/h | 11770m | 3.6m/s | -55.9°C | -1.0% | -1.0hPa | 5V | 00:00:00 | 00:00:00 | 00:00:00 | |
| DO3MHA-11 | 2026-09-01 13:32:56 | 49.68759 | 7.97510 | 81° | 113km/h | 11741m | 3.8m/s | 0°C | 0% | 0hPa | 5V | 00:00:00 | 00:00:00 | 00:00:00 | |
| DB0NH | 2026-09-01 13:32:55 | 49.68754 | 7.97465 | 81° | 113km/h | 11737m | 4.2m/s | 0°C | 0% | 0hPa | 5V | 00:00:00 | 00:00:00 | 00:00:00 | |
| DK7TD | 2026-09-01 13:32:54 | 49.68746 | 7.97376 | 83° | 115km/h | 11733m | 3.6m/s | -55.8°C | 0% | 0hPa | 5V | 00:00:00 | 00:00:00 | 00:00:00 | |
| DO2KSM | 2026-09-01 13:32:52 | 49.68742 | 7.97331 | 86° | 115km/h | 11729m | 5.6m/s | -55.8°C | 0% | 0hPa | 0V | 00:00:00 | 00:00:00 | 00:00:00 | |
| DB0UT-7 | 2026-09-01 13:32:51 | 49.68740 | 7.97286 | 88° | 113km/h | 11720m | 4.9m/s | 0°C | 0% | 0hPa | 0V | 00:00:00 | 00:00:00 | 00:00:00 | |
| BIOWL7-15 | 2026-09-01 13:32:50 | 49.68739 | 7.97243 | 87° | 111km/h | 11720m | 4.9m/s | -55.7°C | 0% | 0hPa | 0V | 00:00:00 | 00:00:00 | 00:00:00 | |
| CB1BUN | 2026-09-01 13:32:47 | 49.68724 | 7.97070 | 83° | 117km/h | 11704m | 4.8m/s | -55.7°C | 0% | 0hPa | 0V | 00:00:00 | 00:00:00 | 00:00:00 | |
| DO3MHA-11 | 2026-09-01 13:32:46 | 49.68724 | 7.97070 | 82° | 113km/h | 11700m | 3.5m/s | 0°C | 0% | 0hPa | 0V | 00:00:00 | 00:00:00 | 00:00:00 | |
| DM0DOS-11 | 2026-09-01 13:32:44 | 49.68710 | 7.96889 | 83° | 113km/h | 11683m | 3.6m/s | 0°C | 0% | 0hPa | 0V | 00:00:00 | 00:00:00 | 00:00:00 | |
| DK7TD | 2026-09-01 13:32:43 | 49.68710 | 7.96889 | 84° | 113km/h | 11688m | 4.7m/s | -55.6°C | 0% | 0hPa | 5V | 00:00:00 | 00:00:00 | 00:00:00 | |
| DF2AP-13 | 2026-09-01 13:32:40 | 49.68703 | 7.96804 | 84° | 117km/h | 11622m | 4.0m/s | 0°C | 0% | 0hPa | 0V | 00:00:00 | 00:00:00 | 00:00:00 | |
| DM0DOS-11 | 2026-09-01 13:32:37 | 49.68679 | 7.96457 | 85° | 111km/h | 11643m | 4.7m/s | 0°C | 0% | 0hPa | 0V | 00:00:00 | 00:00:00 | 00:00:00 | |
| DO3MHA-11 | 2026-09-01 13:32:36 | 49.68690 | 7.96631 | 85° | 111km/h | 11659m | 4.5m/s | 0°C | 0% | 0hPa | 5V | 00:00:00 | 00:00:00 | 00:00:00 | |
| DF1GD-15 | 2026-09-01 13:32:35 | 49.68688 | 7.96586 | 85° | 115km/h | 11659m | 4.5m/s | -55.5°C | 0% | 0hPa | 5V | 00:00:00 | 00:00:00 | 00:00:00 | |
| NBG1-10 | 2026-09-01 13:32:34 | 49.68684 | 7.96543 | 84° | 117km/h | 11647m | 3.8m/s | 0°C | 0% | 0hPa | 5V | 00:00:00 | 00:00:00 | 00:00:00 | |
| BIOWL1-15 | 2026-09-01 13:32:33 | 49.68679 | 7.96457 | 85° | 111km/h | 11647m | 3.8m/s | -55.5°C | 0% | 0hPa | 5V | 00:00:00 | 00:00:00 | 00:00:00 | |
| DO2KSM | 2026-09-01 13:32:29 | 49.68671 | 7.96327 | 86° | 111km/h | 11635m | 5.3m/s | -55.4°C | 0% | 0hPa | 0V | 00:00:00 | 00:00:00 | 00:00:00 | |
| DO3MHA-11 | 2026-09-01 13:32:26 | 49.68663 | 7.96197 | 86° | 115km/h | 11618m | 4.2m/s | 0°C | 0% | 0hPa | 0V | 00:00:00 | 00:00:00 | 00:00:00 | |
| DB0NH | 2026-09-01 13:32:25 | 49.68660 | 7.96153 | 86° | 119km/h | 11614m | 3.7m/s | 0°C | 0% | 0hPa | 0V | 00:00:00 | 00:00:00 | 00:00:00 | |
| DM0DOS-11 | 2026-09-01 13:32:24 | 49.68653 | 7.96023 | 85° | 113km/h | 11602m | 3.9m/s | 0°C | 0% | 0hPa | 0V | 00:00:00 | 00:00:00 | 00:00:00 | |
| BIOWL1-15 | 2026-09-01 13:32:22 | 49.68650 | 7.95977 | 86° | 117km/h | 11602m | 3.9m/s | -55.1°C | 0% | 0hPa | 5V | 00:00:00 | 00:00:00 | 00:00:00 | |
| DB0UT-7 | 2026-09-01 13:32:21 | 49.68650 | 7.95977 | 86° | 120km/h | 11598m | 4.0m/s | 0°C | 0% | 0hPa | 0V | 00:00:00 | 00:00:00 | 00:00:00 | |
| DO3MHA-11 | 2026-09-01 13:32:16 | 49.68637 | 7.95751 | 85° | 119km/h | 11576m | 3.8m/s | 0°C | 0% | 0hPa | 0V | 00:00:00 | 00:00:00 | 00:00:00 | |
| HEMX73-11 | 2026-09-01 13:32:15 | 49.68632 | 7.95661 | 88° | 117km/h | 11572m | 4.5m/s | -55.0°C | 0% | 0hPa | 0V | 00:00:00 | 00:00:00 | 00:00:00 | |
| DF1GD-15 | 2026-09-01 13:32:14 | 49.68632 | 7.95661 | 88° | 117km/h | 11572m | 4.5m/s | -55.0°C | 0% | 0hPa | 0V | 00:00:00 | 00:00:00 | 00:00:00 | |
| DM0DOS-11 | 2026-09-01 13:32:13 | 49.68628 | 7.95571 | 84° | 117km/h | 11559m | 4.8m/s | 0°C | 0% | 0hPa | 0V | 00:00:00 | 00:00:00 | 00:00:00 | |
| DK7TD | 2026-09-01 13:32:11 | 49.68622 | 7.95477 | 85° | 124km/h | 11555m | 3.8m/s | -54.9°C | 0% | 0hPa | 5V | 00:00:00 | 00:00:00 | 00:00:00 | |
| DO2KSM | 2026-09-01 13:32:09 | 49.68619 | 7.95429 | 85° | 124km/h | 11551m | 4.9m/s | -54.9°C | 0% | 0hPa | 0V | 00:00:00 | 00:00:00 | 00:00:00 | |
| DM0DOS-11 | 2026-09-01 13:32:06 | 49.68605 | 7.95102 | 87° | 124km/h | 11519m | 4.1m/s | 0°C | 0% | 0hPa | 0V | 00:00:00 | 00:00:00 | 00:00:00 | |
| DO3MHA-11 | 2026-09-01 13:32:06 | 49.68610 | 7.95289 | 87° | 122km/h | 11535m | 3.6m/s | 0°C | 0% | 0hPa | 5V | 00:00:00 | 00:00:00 | 00:00:00 | |
| DJ3KS | 2026-09-01 13:32:05 | 49.68608 | 7.95243 | 87° | 117km/h | 11535m | 3.6m/s | 0°C | 0% | 0hPa | 5V | 00:00:00 | 00:00:00 | 00:00:00 | |
| DN1GJH-1 | 2026-09-01 13:32:03 | 49.68606 | 7.95150 | 89° | 124km/h | 11527m | 4.0m/s | -54.8°C | 0% | 0hPa | 5V | 00:00:00 | 00:00:00 | 00:00:00 | |
| DF2AP-13 | 2026-09-01 13:32:02 | 49.68605 | 7.95102 | 88° | 120km/h | 11519m | 4.0m/s | 0°C | 0% | 0hPa | 5V | 00:00:00 | 00:00:00 | 00:00:00 | |
| BIOWL1-15 | 2026-09-01 13:32:00 | 49.68597 | 7.94959 | 84° | 124km/h | 11511m | 3.4m/s | -54.7°C | 0% | 0hPa | 5V | 00:00:00 | 00:00:00 | 00:00:00 | |
| NBG1-10 | 2026-09-01 13:31:59 | 49.68597 | 7.94959 | 84° | 120km/h | 11503m | 3.6m/s | 0°C | 0% | 0hPa | 0V | 00:00:00 | 00:00:00 | 00:00:00 | |
| DM0DOS-11 | 2026-09-01 13:31:56 | 49.68577 | 7.94623 | 84° | 122km/h | 11478m | 4m/s | 0°C | 0% | 0hPa | 0V | 00:00:00 | 00:00:00 | 00:00:00 | |
| DO3MHA-11 | 2026-09-01 13:31:55 | 49.68584 | 7.94767 | 86° | 122km/h | 11490m | 3.5m/s | 0°C | 0% | 0hPa | 5V | 00:00:00 | 00:00:00 | 00:00:00 | |
| DF1GD-15 | 2026-09-01 13:31:54 | 49.68581 | 7.94719 | 87° | 122km/h | 11490m | 3.6m/s | -54.6°C | 0% | 0hPa | 5V | 00:00:00 | 00:00:00 | 00:00:00 | |
| DB0UT-7 | 2026-09-01 13:31:51 | 49.68574 | 7.94576 | 85° | 120km/h | 11474m | 3.9m/s | 0°C | 0% | 0hPa | 5V | 00:00:00 | 00:00:00 | 00:00:00 | |
| BIOWL1-15 | 2026-09-01 13:31:50 | 49.68569 | 7.94483 | 86° | 122km/h | 11470m | 3.9m/s | -54.5°C | 0% | 0hPa | 5V | 00:00:00 | 00:00:00 | 00:00:00 | |
| DO2KSM | 2026-09-01 13:31:48 | 49.68567 | 7.94435 | 87° | 120km/h | 11466m | 3.9m/s | -54.5°C | 0% | 0hPa | 0V | 00:00:00 | 00:00:00 | 00:00:00 | |
| DM0DOS-11 | 2026-09-01 13:31:46 | 49.68555 | 7.94154 | 87° | 117km/h | 11437m | 3.9m/s | 0°C | 0% | 0hPa | 0V | 00:00:00 | 00:00:00 | 00:00:00 | |
| DO3MHA-11 | 2026-09-01 13:31:45 | 49.68560 | 7.94291 | 87° | 119km/h | 11446m | 3.7m/s | 0°C | 0% | 0hPa | 5V | 00:00:00 | 00:00:00 | 00:00:00 | |
| CB1BUN | 2026-09-01 13:31:44 | 49.68558 | 7.94246 | 88° | 122km/h | 11450m | 4.9m/s | -54.4°C | 0% | 0hPa | 5V | 00:00:00 | 00:00:00 | 00:00:00 | |
| DN1GJH-1 | 2026-09-01 13:31:43 | 49.68556 | 7.94200 | 88° | 117km/h | 11446m | 3.8m/s | -54.4°C | 0% | 0hPa | 5V | 00:00:00 | 00:00:00 | 00:00:00 | |
| BIOWL1-15 | 2026-09-01 13:31:39 | 49.68549 | 7.93968 | 87° | 120km/h | 11425m | 4.7m/s | -54.4°C | 0% | 0hPa | 5V | 00:00:00 | 00:00:00 | 00:00:00 | |
| DM0DOS-11 | 2026-09-01 13:31:36 | 49.68542 | 7.93692 | 87° | 119km/h | 11396m | 4.3m/s | 0°C | 0% | 0hPa | 0V | 00:00:00 | 00:00:00 | 00:00:00 | |
| HEMX73-11 | 2026-09-01 13:31:34 | 49.68543 | 7.93737 | 89° | 117km/h | 11405m | 4.6m/s | -54.3°C | 0% | 0hPa | 5V | 00:00:00 | 00:00:00 | 00:00:00 | |
| DF1GD-15 | 2026-09-01 13:31:33 | 49.68543 | 7.93737 | 89° | 117km/h | 11405m | 4.6m/s | -54.3°C | 0% | 0hPa | 5V | 00:00:00 | 00:00:00 | 00:00:00 | |
| DF2AP-13 | 2026-09-01 13:31:32 | 49.68542 | 7.93692 | 88° | 122km/h | 11396m | 4.3m/s | 0°C | 0% | 0hPa | 5V | 00:00:00 | 00:00:00 | 00:00:00 | |
| BIOWL7-15 | 2026-09-01 13:31:29 | 49.68537 | 7.93549 | 87° | 120km/h | 11388m | 3.4m/s | -54.3°C | 0% | 0hPa | 5V | 00:00:00 | 00:00:00 | 00:00:00 | |
| BIOWL1-15 | 2026-09-01 13:31:28 | 49.68534 | 7.93454 | 88° | 124km/h | 11380m | 3.7m/s | -54.3°C | 0% | 0hPa | 5V | 00:00:00 | 00:00:00 | 00:00:00 | |
| DM0DOS-11 | 2026-09-01 13:31:27 | 49.68529 | 7.93219 | 85° | 120km/h | 11355m | 4.2m/s | 0°C | 0% | 0hPa | 0V | 00:00:00 | 00:00:00 | 00:00:00 | |
| NBG1-10 | 2026-09-01 13:31:26 | 49.68533 | 7.93408 | 90° | 122km/h | 11372m | 3.5m/s | 0°C | 0% | 0hPa | 5V | 00:00:00 | 00:00:00 | 00:00:00 | |
| DB0NH | 2026-09-01 13:31:25 | 49.68532 | 7.93360 | 89° | 124km/h | 11368m | 4.5m/s | 0°C | 0% | 0hPa | 5V | 00:00:00 | 00:00:00 | 00:00:00 | |
| DO3MHA-11 | 2026-09-01 13:31:24 | 49.68531 | 7.93314 | 88° | 122km/h | 11364m | 3.5m/s | 0°C | 0% | 0hPa | 5V | 00:00:00 | 00:00:00 | 00:00:00 | |
| CB1BUN | 2026-09-01 13:31:23 | 49.68530 | 7.93267 | 89° | 120km/h | 11364m | 3.5m/s | -54.2°C | 0% | 0hPa | 5V | 00:00:00 | 00:00:00 | 00:00:00 | |
| DB0UT-7 | 2026-09-01 13:31:21 | 49.68526 | 7.93172 | 85° | 122km/h | 11352m | 3.4m/s | 0°C | 0% | 0hPa | 5V | 00:00:00 | 00:00:00 | 00:00:00 | |
| BIOWL1-15 | 2026-09-01 13:31:17 | 49.68515 | 7.92932 | 88° | 126km/h | 11335m | 3.1m/s | -54.1°C | 0% | 0hPa | 5V | 00:00:00 | 00:00:00 | 00:00:00 | |
| DM0DOS-11 | 2026-09-01 13:31:16 | 49.68504 | 7.92738 | 85° | 124km/h | 11314m | 3.3m/s | 0°C | 0% | 0hPa | 0V | 00:00:00 | 00:00:00 | 00:00:00 | |
| DO3MHA-11 | 2026-09-01 13:31:14 | 49.68510 | 7.92834 | 84° | 126km/h | 11323m | 5.0m/s | 0°C | 0% | 0hPa | 0V | 00:00:00 | 00:00:00 | 00:00:00 | |
| DF1GD-15 | 2026-09-01 13:31:13 | 49.68507 | 7.92786 | 85° | 126km/h | 11323m | 5.0m/s | -54.1°C | 0% | 0hPa | 0V | 00:00:00 | 00:00:00 | 00:00:00 | |
| DL8DAS-15 | 2026-09-01 13:31:12 | 49.68505 | 7.92738 | 86° | 124km/h | 11318m | 3.9m/s | -54.0°C | 0% | 0hPa | 0V | 00:00:00 | 00:00:00 | 00:00:00 | |
| DM0DOS-11 | 2026-09-01 13:31:07 | 49.68483 | 7.92256 | 89° | 120km/h | 11274m | 3.6m/s | 0°C | 0% | 0hPa | 0V | 00:00:00 | 00:00:00 | 00:00:00 | |
| BIOWL1-15 | 2026-09-01 13:31:07 | 49.68494 | 7.92446 | 86° | 128km/h | 11294m | 4.4m/s | -53.9°C | 0% | 0hPa | 5V | 00:00:00 | 00:00:00 | 00:00:00 | |
| DO3MHA-11 | 2026-09-01 13:31:04 | 49.68488 | 7.92348 | 85° | 124km/h | 11282m | 3.6m/s | 0°C | 0% | 0hPa | 0V | 00:00:00 | 00:00:00 | 00:00:00 | |
| DO2KSM | 2026-09-01 13:31:03 | 49.68485 | 7.92301 | 85° | 119km/h | 11282m | 3.7m/s | -53.9°C | 0% | 0hPa | 0V | 00:00:00 | 00:00:00 | 00:00:00 | |
| DF2AP-13 | 2026-09-01 13:31:02 | 49.68483 | 7.92256 | 90° | 120km/h | 11275m | 3.5m/s | 0°C | 0% | 0hPa | 0V | 00:00:00 | 00:00:00 | 00:00:00 | |
| CB1BUN | 2026-09-01 13:31:01 | 49.68482 | 7.92208 | 90° | 122km/h | 11275m | 3.6m/s | -53.9°C | 0% | 0hPa | 0V | 00:00:00 | 00:00:00 | 00:00:00 | |
| DN1GJH-1 | 2026-09-01 13:30:59 | 49.68481 | 7.92110 | 89° | 128km/h | 11267m | 3.1m/s | -53.8°C | 0% | 0hPa | 0V | 00:00:00 | 00:00:00 | 00:00:00 | |
| DM0DOS-11 | 2026-09-01 13:30:56 | 49.68469 | 7.91779 | 86° | 119km/h | 11234m | 4.3m/s | 0°C | 0% | 0hPa | 0V | 00:00:00 | 00:00:00 | 00:00:00 | |
| DK7TD | 2026-09-01 13:30:56 | 49.68475 | 7.91915 | 85° | 117km/h | 11251m | 4.2m/s | -53.7°C | 0% | 0hPa | 5V | 00:00:00 | 00:00:00 | 00:00:00 | |
| DO3MHA-11 | 2026-09-01 13:30:54 | 49.68473 | 7.91869 | 86° | 120km/h | 11243m | 2.6m/s | 0°C | 0% | 0hPa | 0V | 00:00:00 | 00:00:00 | 00:00:00 | |
| NBG1-10 | 2026-09-01 13:30:52 | 49.68469 | 7.91779 | 87° | 117km/h | 11226m | 4.9m/s | 0°C | 0% | 0hPa | 0V | 00:00:00 | 00:00:00 | 00:00:00 | |
| DB0UT-7 | 2026-09-01 13:30:51 | 49.68467 | 7.91731 | 89° | 115km/h | 11231m | 3.5m/s | 0°C | 0% | 0hPa | 0V | 00:00:00 | 00:00:00 | 00:00:00 | |
| DM0DOS-11 | 2026-09-01 13:30:46 | 49.68456 | 7.91311 | 90° | 119km/h | 11193m | 3.6m/s | 0°C | 0% | 0hPa | 0V | 00:00:00 | 00:00:00 | 00:00:00 | |
| BIOWL1-15 | 2026-09-01 13:30:45 | 49.68457 | 7.91402 | 87° | 119km/h | 11206m | 4.3m/s | -53.3°C | 0% | 0hPa | 5V | 00:00:00 | 00:00:00 | 00:00:00 | |
| DO3MHA-11 | 2026-09-01 13:30:44 | 49.68456 | 7.91402 | 88° | 117km/h | 11202m | 4.5m/s | 0°C | 0% | 0hPa | 5V | 00:00:00 | 00:00:00 | 00:00:00 | |
| CB1BUN | 2026-09-01 13:30:41 | 49.68456 | 7.91264 | 89° | 119km/h | 11193m | 3.6m/s | -53.2°C | 0% | 0hPa | 5V | 00:00:00 | 00:00:00 | 00:00:00 | |
| DK7TD | 2026-09-01 13:30:34 | 49.68442 | 7.90904 | 88° | 119km/h | 11158m | 2.9m/s | -53.2°C | 0% | 0hPa | 5V | 00:00:00 | 00:00:00 | 00:00:00 | |
| DO3MHA-11 | 2026-09-01 13:30:34 | 49.68443 | 7.90950 | 88° | 115km/h | 11158m | 2.9m/s | 0°C | 0% | 0hPa | 0V | 00:00:00 | 00:00:00 | 00:00:00 | |
| DF2AP-13 | 2026-09-01 13:30:32 | 49.68441 | 7.90857 | 90° | 115km/h | 11150m | 3.7m/s | 0°C | 0% | 0hPa | 0V | 00:00:00 | 00:00:00 | 00:00:00 | |
| DL8DAS-15 | 2026-09-01 13:30:27 | 49.68435 | 7.90638 | 88° | 113km/h | 11134m | 3.5m/s | -53.0°C | 0% | 0hPa | 0V | 00:00:00 | 00:00:00 | 00:00:00 | |
| DM0DOS-11 | 2026-09-01 13:30:26 | 49.68427 | 7.90421 | 86° | 113km/h | 11110m | 4.8m/s | 0°C | 0% | 0hPa | 0V | 00:00:00 | 00:00:00 | 00:00:00 | |
| Es werden nur die letzten 3500 von 4279 Frames angezeigt. GPX/KML und Diagramme bleiben verfügbar. | |||||||||||||||